<?xml version='1.0' encoding='UTF-8'?><gpx version="1.1" creator="JPX - https://github.com/jenetics/jpx" xmlns="http://www.topografix.com/GPX/1/1"><trk><trkseg><trkpt lat="43.627394" lon="11.5163647"><ele>147.0</ele><time>2026-04-26T07:24:11.748Z</time></trkpt><trkpt lat="43.6273495" lon="11.5164402"><ele>147.0</ele><time>2026-04-26T07:24:19.599Z</time></trkpt><trkpt lat="43.6273243" lon="11.5165299"><ele>147.0</ele><time>2026-04-26T07:24:25.756Z</time></trkpt><trkpt lat="43.6273614" lon="11.5166007"><ele>147.0</ele><time>2026-04-26T07:24:41.74Z</time></trkpt><trkpt lat="43.6274567" lon="11.5167367"><ele>147.0</ele><time>2026-04-26T07:25:05.642Z</time></trkpt><trkpt lat="43.6274" lon="11.5166867"><ele>147.0</ele><time>2026-04-26T07:25:29.644Z</time></trkpt><trkpt lat="43.6273317" lon="11.5166683"><ele>147.0</ele><time>2026-04-26T07:25:31.645Z</time></trkpt><trkpt lat="43.62724" lon="11.5166517"><ele>147.0</ele><time>2026-04-26T07:25:33.644Z</time></trkpt><trkpt lat="43.62713" lon="11.5167017"><ele>147.0</ele><time>2026-04-26T07:25:35.643Z</time></trkpt><trkpt lat="43.6270283" lon="11.5167617"><ele>147.0</ele><time>2026-04-26T07:25:37.645Z</time></trkpt><trkpt lat="43.6269533" lon="11.5168283"><ele>147.0</ele><time>2026-04-26T07:25:39.643Z</time></trkpt><trkpt lat="43.626905" lon="11.5168917"><ele>147.0</ele><time>2026-04-26T07:25:41.645Z</time></trkpt><trkpt lat="43.626855" lon="11.51697"><ele>147.0</ele><time>2026-04-26T07:25:43.645Z</time></trkpt><trkpt lat="43.6268983" lon="11.5170333"><ele>147.0</ele><time>2026-04-26T07:25:45.644Z</time></trkpt><trkpt lat="43.626965" lon="11.5170917"><ele>147.0</ele><time>2026-04-26T07:25:47.645Z</time></trkpt><trkpt lat="43.6270483" lon="11.51714"><ele>147.0</ele><time>2026-04-26T07:25:49.644Z</time></trkpt><trkpt lat="43.627145" lon="11.517195"><ele>147.0</ele><time>2026-04-26T07:25:51.647Z</time></trkpt><trkpt lat="43.6272483" lon="11.5172483"><ele>147.6</ele><time>2026-04-26T07:25:53.644Z</time></trkpt><trkpt lat="43.6273533" lon="11.5173"><ele>148.2</ele><time>2026-04-26T07:25:55.644Z</time></trkpt><trkpt lat="43.627465" lon="11.517345"><ele>148.8</ele><time>2026-04-26T07:25:57.644Z</time></trkpt><trkpt lat="43.627575" lon="11.5173983"><ele>149.4</ele><time>2026-04-26T07:25:59.647Z</time></trkpt><trkpt lat="43.6276633" lon="11.5174383"><ele>150.0</ele><time>2026-04-26T07:26:01.643Z</time></trkpt><trkpt lat="43.6277333" lon="11.5174433"><ele>150.66666666666666</ele><time>2026-04-26T07:26:04.645Z</time></trkpt><trkpt lat="43.6278133" lon="11.517405"><ele>151.33333333333334</ele><time>2026-04-26T07:26:10.644Z</time></trkpt><trkpt lat="43.62785" lon="11.51731"><ele>152.0</ele><time>2026-04-26T07:26:12.645Z</time></trkpt><trkpt lat="43.6278617" lon="11.5171617"><ele>152.66666666666669</ele><time>2026-04-26T07:26:14.647Z</time></trkpt><trkpt lat="43.6278667" lon="11.5170733"><ele>153.33333333333334</ele><time>2026-04-26T07:26:15.647Z</time></trkpt><trkpt lat="43.6278683" lon="11.5169817"><ele>154.0</ele><time>2026-04-26T07:26:16.644Z</time></trkpt><trkpt lat="43.6278733" lon="11.51688"><ele>154.0</ele><time>2026-04-26T07:26:17.644Z</time></trkpt><trkpt lat="43.627875" lon="11.5167633"><ele>154.0</ele><time>2026-04-26T07:26:18.648Z</time></trkpt><trkpt lat="43.627875" lon="11.5166467"><ele>154.0</ele><time>2026-04-26T07:26:19.645Z</time></trkpt><trkpt lat="43.627875" lon="11.5165267"><ele>154.0</ele><time>2026-04-26T07:26:20.647Z</time></trkpt><trkpt lat="43.6278733" lon="11.5164167"><ele>154.0</ele><time>2026-04-26T07:26:21.644Z</time></trkpt><trkpt lat="43.62787" lon="11.5162967"><ele>154.0</ele><time>2026-04-26T07:26:22.645Z</time></trkpt><trkpt lat="43.6278717" lon="11.5161667"><ele>154.0</ele><time>2026-04-26T07:26:23.644Z</time></trkpt><trkpt lat="43.6278667" lon="11.5160467"><ele>154.0</ele><time>2026-04-26T07:26:24.646Z</time></trkpt><trkpt lat="43.6278583" lon="11.51593"><ele>154.0</ele><time>2026-04-26T07:26:25.645Z</time></trkpt><trkpt lat="43.6278533" lon="11.5158167"><ele>154.0</ele><time>2026-04-26T07:26:26.647Z</time></trkpt><trkpt lat="43.6278433" lon="11.5157017"><ele>154.0</ele><time>2026-04-26T07:26:27.643Z</time></trkpt><trkpt lat="43.6278367" lon="11.51558"><ele>154.0</ele><time>2026-04-26T07:26:28.645Z</time></trkpt><trkpt lat="43.6278333" lon="11.5154633"><ele>154.0</ele><time>2026-04-26T07:26:29.645Z</time></trkpt><trkpt lat="43.6278283" lon="11.5153483"><ele>154.0</ele><time>2026-04-26T07:26:30.646Z</time></trkpt><trkpt lat="43.627825" lon="11.5152367"><ele>154.0</ele><time>2026-04-26T07:26:31.646Z</time></trkpt><trkpt lat="43.6278133" lon="11.5151233"><ele>154.0</ele><time>2026-04-26T07:26:32.643Z</time></trkpt><trkpt lat="43.6278117" lon="11.5150133"><ele>154.0</ele><time>2026-04-26T07:26:33.645Z</time></trkpt><trkpt lat="43.62781" lon="11.5149"><ele>154.0</ele><time>2026-04-26T07:26:34.645Z</time></trkpt><trkpt lat="43.6278067" lon="11.5147883"><ele>152.66666666666669</ele><time>2026-04-26T07:26:35.647Z</time></trkpt><trkpt lat="43.6278" lon="11.5146767"><ele>151.33333333333334</ele><time>2026-04-26T07:26:36.645Z</time></trkpt><trkpt lat="43.627795" lon="11.514565"><ele>150.0</ele><time>2026-04-26T07:26:37.648Z</time></trkpt><trkpt lat="43.6277883" lon="11.5144483"><ele>148.66666666666666</ele><time>2026-04-26T07:26:38.645Z</time></trkpt><trkpt lat="43.6277783" lon="11.514335"><ele>147.33333333333331</ele><time>2026-04-26T07:26:39.645Z</time></trkpt><trkpt lat="43.6277717" lon="11.5142233"><ele>146.0</ele><time>2026-04-26T07:26:40.647Z</time></trkpt><trkpt lat="43.6277633" lon="11.5141117"><ele>145.83333333333331</ele><time>2026-04-26T07:26:41.646Z</time></trkpt><trkpt lat="43.627755" lon="11.5140017"><ele>145.66666666666666</ele><time>2026-04-26T07:26:42.647Z</time></trkpt><trkpt lat="43.6277483" lon="11.5138883"><ele>145.5</ele><time>2026-04-26T07:26:43.643Z</time></trkpt><trkpt lat="43.6277267" lon="11.51377"><ele>145.33333333333334</ele><time>2026-04-26T07:26:44.644Z</time></trkpt><trkpt lat="43.6277117" lon="11.513655"><ele>145.16666666666669</ele><time>2026-04-26T07:26:45.645Z</time></trkpt><trkpt lat="43.62771" lon="11.5135517"><ele>145.0</ele><time>2026-04-26T07:26:46.646Z</time></trkpt><trkpt lat="43.627725" lon="11.5134633"><ele>144.57142857142858</ele><time>2026-04-26T07:26:47.645Z</time></trkpt><trkpt lat="43.627735" lon="11.5133717"><ele>144.14285714285717</ele><time>2026-04-26T07:26:48.646Z</time></trkpt><trkpt lat="43.62772" lon="11.5132767"><ele>143.71428571428572</ele><time>2026-04-26T07:26:49.645Z</time></trkpt><trkpt lat="43.6276883" lon="11.5131833"><ele>143.28571428571428</ele><time>2026-04-26T07:26:50.644Z</time></trkpt><trkpt lat="43.627635" lon="11.5131117"><ele>142.85714285714283</ele><time>2026-04-26T07:26:51.645Z</time></trkpt><trkpt lat="43.62757" lon="11.51307"><ele>142.42857142857142</ele><time>2026-04-26T07:26:52.645Z</time></trkpt><trkpt lat="43.6274917" lon="11.5130517"><ele>142.0</ele><time>2026-04-26T07:26:53.646Z</time></trkpt><trkpt lat="43.6274117" lon="11.5130317"><ele>142.0</ele><time>2026-04-26T07:26:54.645Z</time></trkpt><trkpt lat="43.6273367" lon="11.513015"><ele>142.0</ele><time>2026-04-26T07:26:55.644Z</time></trkpt><trkpt lat="43.6272533" lon="11.513"><ele>142.0</ele><time>2026-04-26T07:26:56.644Z</time></trkpt><trkpt lat="43.62717" lon="11.5129783"><ele>142.0</ele><time>2026-04-26T07:26:57.646Z</time></trkpt><trkpt lat="43.6270867" lon="11.5129533"><ele>142.0</ele><time>2026-04-26T07:26:58.646Z</time></trkpt><trkpt lat="43.6270067" lon="11.5129267"><ele>142.0</ele><time>2026-04-26T07:26:59.647Z</time></trkpt><trkpt lat="43.6269317" lon="11.5128933"><ele>141.83333333333334</ele><time>2026-04-26T07:27:00.643Z</time></trkpt><trkpt lat="43.62685" lon="11.512855"><ele>141.66666666666669</ele><time>2026-04-26T07:27:01.645Z</time></trkpt><trkpt lat="43.6267867" lon="11.5128"><ele>141.5</ele><time>2026-04-26T07:27:02.647Z</time></trkpt><trkpt lat="43.626725" lon="11.51274"><ele>141.33333333333334</ele><time>2026-04-26T07:27:03.646Z</time></trkpt><trkpt lat="43.62666" lon="11.5126817"><ele>141.16666666666666</ele><time>2026-04-26T07:27:04.645Z</time></trkpt><trkpt lat="43.6265833" lon="11.5126333"><ele>141.0</ele><time>2026-04-26T07:27:05.644Z</time></trkpt><trkpt lat="43.6265083" lon="11.5125933"><ele>141.0</ele><time>2026-04-26T07:27:06.643Z</time></trkpt><trkpt lat="43.6264333" lon="11.5125567"><ele>141.0</ele><time>2026-04-26T07:27:07.647Z</time></trkpt><trkpt lat="43.626355" lon="11.5125267"><ele>141.0</ele><time>2026-04-26T07:27:08.646Z</time></trkpt><trkpt lat="43.6262783" lon="11.5124967"><ele>141.0</ele><time>2026-04-26T07:27:09.645Z</time></trkpt><trkpt lat="43.626205" lon="11.5124633"><ele>141.0</ele><time>2026-04-26T07:27:10.647Z</time></trkpt><trkpt lat="43.6261333" lon="11.512435"><ele>141.0</ele><time>2026-04-26T07:27:11.644Z</time></trkpt><trkpt lat="43.6260617" lon="11.5124033"><ele>140.83333333333334</ele><time>2026-04-26T07:27:12.647Z</time></trkpt><trkpt lat="43.6259817" lon="11.5123733"><ele>140.66666666666666</ele><time>2026-04-26T07:27:13.647Z</time></trkpt><trkpt lat="43.6259083" lon="11.512335"><ele>140.5</ele><time>2026-04-26T07:27:14.646Z</time></trkpt><trkpt lat="43.6258283" lon="11.5123033"><ele>140.33333333333331</ele><time>2026-04-26T07:27:15.647Z</time></trkpt><trkpt lat="43.6257467" lon="11.5122683"><ele>140.16666666666666</ele><time>2026-04-26T07:27:16.644Z</time></trkpt><trkpt lat="43.6256783" lon="11.5122167"><ele>140.0</ele><time>2026-04-26T07:27:17.644Z</time></trkpt><trkpt lat="43.625605" lon="11.512165"><ele>140.0</ele><time>2026-04-26T07:27:18.645Z</time></trkpt><trkpt lat="43.625535" lon="11.51211"><ele>140.0</ele><time>2026-04-26T07:27:19.645Z</time></trkpt><trkpt lat="43.6254683" lon="11.5120483"><ele>140.0</ele><time>2026-04-26T07:27:20.646Z</time></trkpt><trkpt lat="43.6254083" lon="11.511975"><ele>140.0</ele><time>2026-04-26T07:27:21.645Z</time></trkpt><trkpt lat="43.6253433" lon="11.511905"><ele>140.0</ele><time>2026-04-26T07:27:22.644Z</time></trkpt><trkpt lat="43.6252783" lon="11.5118317"><ele>140.0</ele><time>2026-04-26T07:27:23.644Z</time></trkpt><trkpt lat="43.62522" lon="11.5117583"><ele>139.66666666666666</ele><time>2026-04-26T07:27:24.646Z</time></trkpt><trkpt lat="43.6251617" lon="11.5116883"><ele>139.33333333333331</ele><time>2026-04-26T07:27:25.645Z</time></trkpt><trkpt lat="43.6251017" lon="11.5116183"><ele>139.0</ele><time>2026-04-26T07:27:26.647Z</time></trkpt><trkpt lat="43.6250383" lon="11.5115433"><ele>138.66666666666666</ele><time>2026-04-26T07:27:27.646Z</time></trkpt><trkpt lat="43.624975" lon="11.5114683"><ele>138.33333333333334</ele><time>2026-04-26T07:27:28.644Z</time></trkpt><trkpt lat="43.6249183" lon="11.5113983"><ele>138.0</ele><time>2026-04-26T07:27:29.646Z</time></trkpt><trkpt lat="43.624865" lon="11.5113467"><ele>138.0</ele><time>2026-04-26T07:27:30.646Z</time></trkpt><trkpt lat="43.6247983" lon="11.51127"><ele>138.0</ele><time>2026-04-26T07:27:32.646Z</time></trkpt><trkpt lat="43.62475" lon="11.5112133"><ele>138.0</ele><time>2026-04-26T07:27:34.645Z</time></trkpt><trkpt lat="43.6246967" lon="11.5111367"><ele>138.0</ele><time>2026-04-26T07:27:36.645Z</time></trkpt><trkpt lat="43.6246433" lon="11.51101"><ele>138.0</ele><time>2026-04-26T07:27:38.644Z</time></trkpt><trkpt lat="43.6245883" lon="11.5108483"><ele>138.0</ele><time>2026-04-26T07:27:40.646Z</time></trkpt><trkpt lat="43.6245683" lon="11.51076"><ele>138.0</ele><time>2026-04-26T07:27:41.644Z</time></trkpt><trkpt lat="43.6245467" lon="11.51067"><ele>138.0</ele><time>2026-04-26T07:27:42.643Z</time></trkpt><trkpt lat="43.6245283" lon="11.5105817"><ele>138.0</ele><time>2026-04-26T07:27:43.644Z</time></trkpt><trkpt lat="43.62451" lon="11.5104933"><ele>138.0</ele><time>2026-04-26T07:27:44.643Z</time></trkpt><trkpt lat="43.6244767" lon="11.5103917"><ele>138.0</ele><time>2026-04-26T07:27:45.643Z</time></trkpt><trkpt lat="43.6244483" lon="11.510295"><ele>138.0</ele><time>2026-04-26T07:27:46.642Z</time></trkpt><trkpt lat="43.6244267" lon="11.5101967"><ele>137.83333333333334</ele><time>2026-04-26T07:27:47.644Z</time></trkpt><trkpt lat="43.6243983" lon="11.5101017"><ele>137.66666666666666</ele><time>2026-04-26T07:27:48.643Z</time></trkpt><trkpt lat="43.6243717" lon="11.51001"><ele>137.5</ele><time>2026-04-26T07:27:49.643Z</time></trkpt><trkpt lat="43.6243433" lon="11.5099133"><ele>137.33333333333331</ele><time>2026-04-26T07:27:50.644Z</time></trkpt><trkpt lat="43.624315" lon="11.5098133"><ele>137.16666666666666</ele><time>2026-04-26T07:27:51.643Z</time></trkpt><trkpt lat="43.624285" lon="11.5097"><ele>137.0</ele><time>2026-04-26T07:27:52.647Z</time></trkpt><trkpt lat="43.6242633" lon="11.5095967"><ele>136.83333333333331</ele><time>2026-04-26T07:27:53.646Z</time></trkpt><trkpt lat="43.6242383" lon="11.50949"><ele>136.66666666666666</ele><time>2026-04-26T07:27:54.646Z</time></trkpt><trkpt lat="43.6242033" lon="11.509375"><ele>136.5</ele><time>2026-04-26T07:27:55.646Z</time></trkpt><trkpt lat="43.6241733" lon="11.509265"><ele>136.33333333333334</ele><time>2026-04-26T07:27:56.646Z</time></trkpt><trkpt lat="43.6241467" lon="11.509155"><ele>136.16666666666669</ele><time>2026-04-26T07:27:57.643Z</time></trkpt><trkpt lat="43.624125" lon="11.5090433"><ele>136.0</ele><time>2026-04-26T07:27:58.643Z</time></trkpt><trkpt lat="43.624105" lon="11.5089317"><ele>136.0</ele><time>2026-04-26T07:27:59.645Z</time></trkpt><trkpt lat="43.62408" lon="11.5088217"><ele>136.0</ele><time>2026-04-26T07:28:00.645Z</time></trkpt><trkpt lat="43.6240467" lon="11.5087133"><ele>136.0</ele><time>2026-04-26T07:28:01.645Z</time></trkpt><trkpt lat="43.624015" lon="11.5086083"><ele>136.0</ele><time>2026-04-26T07:28:02.644Z</time></trkpt><trkpt lat="43.6239783" lon="11.508505"><ele>136.0</ele><time>2026-04-26T07:28:03.643Z</time></trkpt><trkpt lat="43.62394" lon="11.508405"><ele>136.0</ele><time>2026-04-26T07:28:04.643Z</time></trkpt><trkpt lat="43.6239" lon="11.5083067"><ele>135.83333333333334</ele><time>2026-04-26T07:28:05.646Z</time></trkpt><trkpt lat="43.6238583" lon="11.50821"><ele>135.66666666666669</ele><time>2026-04-26T07:28:06.647Z</time></trkpt><trkpt lat="43.62382" lon="11.5081133"><ele>135.5</ele><time>2026-04-26T07:28:07.647Z</time></trkpt><trkpt lat="43.623775" lon="11.5080167"><ele>135.33333333333334</ele><time>2026-04-26T07:28:08.645Z</time></trkpt><trkpt lat="43.623725" lon="11.507925"><ele>135.16666666666666</ele><time>2026-04-26T07:28:09.644Z</time></trkpt><trkpt lat="43.6236683" lon="11.5078417"><ele>135.0</ele><time>2026-04-26T07:28:10.646Z</time></trkpt><trkpt lat="43.6236133" lon="11.507755"><ele>134.66666666666666</ele><time>2026-04-26T07:28:11.645Z</time></trkpt><trkpt lat="43.6235583" lon="11.50767"><ele>134.33333333333334</ele><time>2026-04-26T07:28:12.649Z</time></trkpt><trkpt lat="43.6235" lon="11.5075867"><ele>134.0</ele><time>2026-04-26T07:28:13.645Z</time></trkpt><trkpt lat="43.6234383" lon="11.50751"><ele>133.66666666666669</ele><time>2026-04-26T07:28:14.644Z</time></trkpt><trkpt lat="43.6233767" lon="11.5074367"><ele>133.33333333333334</ele><time>2026-04-26T07:28:15.644Z</time></trkpt><trkpt lat="43.6233117" lon="11.507365"><ele>133.0</ele><time>2026-04-26T07:28:16.646Z</time></trkpt><trkpt lat="43.6232467" lon="11.5072983"><ele>133.0</ele><time>2026-04-26T07:28:17.645Z</time></trkpt><trkpt lat="43.6231767" lon="11.5072333"><ele>133.0</ele><time>2026-04-26T07:28:18.645Z</time></trkpt><trkpt lat="43.6231083" lon="11.5071733"><ele>133.0</ele><time>2026-04-26T07:28:19.644Z</time></trkpt><trkpt lat="43.6230383" lon="11.5071133"><ele>133.0</ele><time>2026-04-26T07:28:20.643Z</time></trkpt><trkpt lat="43.6229617" lon="11.50706"><ele>133.0</ele><time>2026-04-26T07:28:21.645Z</time></trkpt><trkpt lat="43.62289" lon="11.5070083"><ele>133.0</ele><time>2026-04-26T07:28:22.645Z</time></trkpt><trkpt lat="43.62282" lon="11.50696"><ele>133.16666666666669</ele><time>2026-04-26T07:28:23.646Z</time></trkpt><trkpt lat="43.622755" lon="11.5069133"><ele>133.33333333333334</ele><time>2026-04-26T07:28:24.646Z</time></trkpt><trkpt lat="43.62268" lon="11.5068667"><ele>133.5</ele><time>2026-04-26T07:28:25.644Z</time></trkpt><trkpt lat="43.622605" lon="11.5068117"><ele>133.66666666666666</ele><time>2026-04-26T07:28:26.645Z</time></trkpt><trkpt lat="43.6225317" lon="11.5067617"><ele>133.83333333333331</ele><time>2026-04-26T07:28:27.643Z</time></trkpt><trkpt lat="43.6224583" lon="11.5067133"><ele>134.0</ele><time>2026-04-26T07:28:28.644Z</time></trkpt><trkpt lat="43.6223867" lon="11.5066617"><ele>134.0</ele><time>2026-04-26T07:28:29.645Z</time></trkpt><trkpt lat="43.6223167" lon="11.50661"><ele>134.0</ele><time>2026-04-26T07:28:30.644Z</time></trkpt><trkpt lat="43.6222467" lon="11.5065583"><ele>134.0</ele><time>2026-04-26T07:28:31.643Z</time></trkpt><trkpt lat="43.622175" lon="11.506505"><ele>134.0</ele><time>2026-04-26T07:28:32.643Z</time></trkpt><trkpt lat="43.622105" lon="11.506455"><ele>134.0</ele><time>2026-04-26T07:28:33.646Z</time></trkpt><trkpt lat="43.6220383" lon="11.5064033"><ele>134.0</ele><time>2026-04-26T07:28:34.646Z</time></trkpt><trkpt lat="43.62197" lon="11.5063517"><ele>133.83333333333331</ele><time>2026-04-26T07:28:35.644Z</time></trkpt><trkpt lat="43.6218917" lon="11.5062967"><ele>133.66666666666666</ele><time>2026-04-26T07:28:36.643Z</time></trkpt><trkpt lat="43.6218167" lon="11.5062517"><ele>133.5</ele><time>2026-04-26T07:28:37.644Z</time></trkpt><trkpt lat="43.6217433" lon="11.5062017"><ele>133.33333333333334</ele><time>2026-04-26T07:28:38.647Z</time></trkpt><trkpt lat="43.6216717" lon="11.5061483"><ele>133.16666666666669</ele><time>2026-04-26T07:28:39.645Z</time></trkpt><trkpt lat="43.6215983" lon="11.5060933"><ele>133.0</ele><time>2026-04-26T07:28:40.644Z</time></trkpt><trkpt lat="43.62153" lon="11.506045"><ele>133.0</ele><time>2026-04-26T07:28:41.643Z</time></trkpt><trkpt lat="43.6214617" lon="11.505995"><ele>133.0</ele><time>2026-04-26T07:28:42.642Z</time></trkpt><trkpt lat="43.6213917" lon="11.5059433"><ele>133.0</ele><time>2026-04-26T07:28:43.644Z</time></trkpt><trkpt lat="43.6213217" lon="11.5058883"><ele>133.0</ele><time>2026-04-26T07:28:44.647Z</time></trkpt><trkpt lat="43.6212517" lon="11.505835"><ele>133.0</ele><time>2026-04-26T07:28:45.645Z</time></trkpt><trkpt lat="43.6211817" lon="11.5057867"><ele>133.0</ele><time>2026-04-26T07:28:46.643Z</time></trkpt><trkpt lat="43.6211083" lon="11.5057417"><ele>133.0</ele><time>2026-04-26T07:28:47.644Z</time></trkpt><trkpt lat="43.6210383" lon="11.5056933"><ele>133.0</ele><time>2026-04-26T07:28:48.643Z</time></trkpt><trkpt lat="43.620965" lon="11.5056467"><ele>133.0</ele><time>2026-04-26T07:28:49.645Z</time></trkpt><trkpt lat="43.6208917" lon="11.5055983"><ele>133.0</ele><time>2026-04-26T07:28:50.646Z</time></trkpt><trkpt lat="43.6208167" lon="11.5055517"><ele>133.0</ele><time>2026-04-26T07:28:51.644Z</time></trkpt><trkpt lat="43.62074" lon="11.5055133"><ele>133.0</ele><time>2026-04-26T07:28:52.645Z</time></trkpt><trkpt lat="43.620665" lon="11.5054817"><ele>133.0</ele><time>2026-04-26T07:28:53.643Z</time></trkpt><trkpt lat="43.6205917" lon="11.5054567"><ele>133.0</ele><time>2026-04-26T07:28:54.647Z</time></trkpt><trkpt lat="43.620515" lon="11.5054317"><ele>133.0</ele><time>2026-04-26T07:28:55.646Z</time></trkpt><trkpt lat="43.6204333" lon="11.50541"><ele>133.0</ele><time>2026-04-26T07:28:56.647Z</time></trkpt><trkpt lat="43.62035" lon="11.50539"><ele>133.0</ele><time>2026-04-26T07:28:57.643Z</time></trkpt><trkpt lat="43.62027" lon="11.5053767"><ele>133.0</ele><time>2026-04-26T07:28:58.643Z</time></trkpt><trkpt lat="43.6201883" lon="11.5053683"><ele>133.5</ele><time>2026-04-26T07:28:59.644Z</time></trkpt><trkpt lat="43.6201033" lon="11.5053583"><ele>134.0</ele><time>2026-04-26T07:29:00.645Z</time></trkpt><trkpt lat="43.6200183" lon="11.505355"><ele>134.5</ele><time>2026-04-26T07:29:01.645Z</time></trkpt><trkpt lat="43.619935" lon="11.5053567"><ele>135.0</ele><time>2026-04-26T07:29:02.646Z</time></trkpt><trkpt lat="43.6198533" lon="11.5053633"><ele>135.5</ele><time>2026-04-26T07:29:03.645Z</time></trkpt><trkpt lat="43.6197767" lon="11.5053667"><ele>136.0</ele><time>2026-04-26T07:29:04.644Z</time></trkpt><trkpt lat="43.6196967" lon="11.50537"><ele>136.0</ele><time>2026-04-26T07:29:05.645Z</time></trkpt><trkpt lat="43.619615" lon="11.5053717"><ele>136.0</ele><time>2026-04-26T07:29:06.646Z</time></trkpt><trkpt lat="43.6195317" lon="11.50537"><ele>136.0</ele><time>2026-04-26T07:29:07.645Z</time></trkpt><trkpt lat="43.6194467" lon="11.5053783"><ele>136.0</ele><time>2026-04-26T07:29:08.644Z</time></trkpt><trkpt lat="43.6193617" lon="11.5053817"><ele>136.0</ele><time>2026-04-26T07:29:09.644Z</time></trkpt><trkpt lat="43.6192733" lon="11.5053883"><ele>136.0</ele><time>2026-04-26T07:29:10.644Z</time></trkpt><trkpt lat="43.619185" lon="11.5054"><ele>136.33333333333334</ele><time>2026-04-26T07:29:11.645Z</time></trkpt><trkpt lat="43.6191017" lon="11.5054033"><ele>136.66666666666669</ele><time>2026-04-26T07:29:12.647Z</time></trkpt><trkpt lat="43.619015" lon="11.505405"><ele>137.0</ele><time>2026-04-26T07:29:13.646Z</time></trkpt><trkpt lat="43.6189267" lon="11.5054017"><ele>137.33333333333334</ele><time>2026-04-26T07:29:14.645Z</time></trkpt><trkpt lat="43.6188417" lon="11.5053933"><ele>137.66666666666666</ele><time>2026-04-26T07:29:15.645Z</time></trkpt><trkpt lat="43.6187617" lon="11.505375"><ele>138.0</ele><time>2026-04-26T07:29:16.644Z</time></trkpt><trkpt lat="43.61868" lon="11.50535"><ele>138.33333333333334</ele><time>2026-04-26T07:29:17.644Z</time></trkpt><trkpt lat="43.6186" lon="11.50533"><ele>138.66666666666666</ele><time>2026-04-26T07:29:18.645Z</time></trkpt><trkpt lat="43.618525" lon="11.5053083"><ele>139.0</ele><time>2026-04-26T07:29:19.646Z</time></trkpt><trkpt lat="43.6184517" lon="11.5052867"><ele>139.33333333333331</ele><time>2026-04-26T07:29:20.647Z</time></trkpt><trkpt lat="43.6183783" lon="11.5052633"><ele>139.66666666666666</ele><time>2026-04-26T07:29:21.644Z</time></trkpt><trkpt lat="43.6183017" lon="11.5052367"><ele>140.0</ele><time>2026-04-26T07:29:22.647Z</time></trkpt><trkpt lat="43.618225" lon="11.5052033"><ele>140.0</ele><time>2026-04-26T07:29:23.644Z</time></trkpt><trkpt lat="43.6181467" lon="11.50517"><ele>140.0</ele><time>2026-04-26T07:29:24.643Z</time></trkpt><trkpt lat="43.6180683" lon="11.5051267"><ele>140.0</ele><time>2026-04-26T07:29:25.646Z</time></trkpt><trkpt lat="43.61799" lon="11.5050917"><ele>140.0</ele><time>2026-04-26T07:29:26.646Z</time></trkpt><trkpt lat="43.6179083" lon="11.5050583"><ele>140.0</ele><time>2026-04-26T07:29:27.644Z</time></trkpt><trkpt lat="43.6178267" lon="11.5050283"><ele>140.0</ele><time>2026-04-26T07:29:28.643Z</time></trkpt><trkpt lat="43.61775" lon="11.504985"><ele>138.83333333333331</ele><time>2026-04-26T07:29:29.644Z</time></trkpt><trkpt lat="43.617665" lon="11.5049383"><ele>137.66666666666666</ele><time>2026-04-26T07:29:30.644Z</time></trkpt><trkpt lat="43.6175867" lon="11.504895"><ele>136.5</ele><time>2026-04-26T07:29:31.643Z</time></trkpt><trkpt lat="43.6175117" lon="11.5048533"><ele>135.33333333333334</ele><time>2026-04-26T07:29:32.643Z</time></trkpt><trkpt lat="43.617435" lon="11.5048183"><ele>134.16666666666669</ele><time>2026-04-26T07:29:33.646Z</time></trkpt><trkpt lat="43.6173567" lon="11.5047833"><ele>133.0</ele><time>2026-04-26T07:29:34.646Z</time></trkpt><trkpt lat="43.6172783" lon="11.5047483"><ele>133.0</ele><time>2026-04-26T07:29:35.646Z</time></trkpt><trkpt lat="43.6172033" lon="11.5047083"><ele>133.0</ele><time>2026-04-26T07:29:36.646Z</time></trkpt><trkpt lat="43.6171233" lon="11.504665"><ele>133.0</ele><time>2026-04-26T07:29:37.646Z</time></trkpt><trkpt lat="43.617035" lon="11.5046267"><ele>133.0</ele><time>2026-04-26T07:29:38.647Z</time></trkpt><trkpt lat="43.6169517" lon="11.504585"><ele>133.0</ele><time>2026-04-26T07:29:39.645Z</time></trkpt><trkpt lat="43.6168683" lon="11.5045533"><ele>133.0</ele><time>2026-04-26T07:29:40.646Z</time></trkpt><trkpt lat="43.616785" lon="11.5045233"><ele>133.33333333333334</ele><time>2026-04-26T07:29:41.646Z</time></trkpt><trkpt lat="43.6167017" lon="11.5044933"><ele>133.66666666666669</ele><time>2026-04-26T07:29:42.645Z</time></trkpt><trkpt lat="43.61662" lon="11.50446"><ele>134.0</ele><time>2026-04-26T07:29:43.645Z</time></trkpt><trkpt lat="43.6165367" lon="11.5044283"><ele>134.33333333333334</ele><time>2026-04-26T07:29:44.647Z</time></trkpt><trkpt lat="43.6164533" lon="11.5043833"><ele>134.66666666666666</ele><time>2026-04-26T07:29:45.645Z</time></trkpt><trkpt lat="43.6163767" lon="11.5043333"><ele>135.0</ele><time>2026-04-26T07:29:46.646Z</time></trkpt><trkpt lat="43.6163017" lon="11.5042883"><ele>135.0</ele><time>2026-04-26T07:29:47.645Z</time></trkpt><trkpt lat="43.6162267" lon="11.5042417"><ele>135.0</ele><time>2026-04-26T07:29:48.646Z</time></trkpt><trkpt lat="43.6161517" lon="11.5041883"><ele>135.0</ele><time>2026-04-26T07:29:49.645Z</time></trkpt><trkpt lat="43.616075" lon="11.504145"><ele>135.0</ele><time>2026-04-26T07:29:50.647Z</time></trkpt><trkpt lat="43.6159983" lon="11.504105"><ele>135.0</ele><time>2026-04-26T07:29:51.644Z</time></trkpt><trkpt lat="43.6159217" lon="11.5040517"><ele>135.0</ele><time>2026-04-26T07:29:52.646Z</time></trkpt><trkpt lat="43.6158533" lon="11.50399"><ele>134.16666666666666</ele><time>2026-04-26T07:29:53.646Z</time></trkpt><trkpt lat="43.6157817" lon="11.503935"><ele>133.33333333333334</ele><time>2026-04-26T07:29:54.646Z</time></trkpt><trkpt lat="43.6157133" lon="11.5038767"><ele>132.5</ele><time>2026-04-26T07:29:55.647Z</time></trkpt><trkpt lat="43.6156483" lon="11.5038083"><ele>131.66666666666669</ele><time>2026-04-26T07:29:56.646Z</time></trkpt><trkpt lat="43.6155883" lon="11.50373"><ele>130.83333333333334</ele><time>2026-04-26T07:29:57.643Z</time></trkpt><trkpt lat="43.6155283" lon="11.5036483"><ele>130.0</ele><time>2026-04-26T07:29:58.645Z</time></trkpt><trkpt lat="43.6154717" lon="11.5035633"><ele>130.0</ele><time>2026-04-26T07:29:59.646Z</time></trkpt><trkpt lat="43.6154183" lon="11.5034717"><ele>130.0</ele><time>2026-04-26T07:30:00.647Z</time></trkpt><trkpt lat="43.6153667" lon="11.50338"><ele>130.0</ele><time>2026-04-26T07:30:01.646Z</time></trkpt><trkpt lat="43.6153167" lon="11.5032867"><ele>130.0</ele><time>2026-04-26T07:30:02.647Z</time></trkpt><trkpt lat="43.615265" lon="11.5032"><ele>130.0</ele><time>2026-04-26T07:30:03.646Z</time></trkpt><trkpt lat="43.6152133" lon="11.5031083"><ele>130.0</ele><time>2026-04-26T07:30:04.644Z</time></trkpt><trkpt lat="43.6151667" lon="11.5030083"><ele>129.5</ele><time>2026-04-26T07:30:05.645Z</time></trkpt><trkpt lat="43.6151217" lon="11.5029083"><ele>129.0</ele><time>2026-04-26T07:30:06.645Z</time></trkpt><trkpt lat="43.6150783" lon="11.502805"><ele>128.5</ele><time>2026-04-26T07:30:07.646Z</time></trkpt><trkpt lat="43.6150433" lon="11.5026967"><ele>128.0</ele><time>2026-04-26T07:30:08.645Z</time></trkpt><trkpt lat="43.6150083" lon="11.5025933"><ele>127.50000000000001</ele><time>2026-04-26T07:30:09.644Z</time></trkpt><trkpt lat="43.6149767" lon="11.502485"><ele>127.0</ele><time>2026-04-26T07:30:10.644Z</time></trkpt><trkpt lat="43.614955" lon="11.502375"><ele>127.00000000000001</ele><time>2026-04-26T07:30:11.646Z</time></trkpt><trkpt lat="43.6149367" lon="11.5022617"><ele>127.0</ele><time>2026-04-26T07:30:12.646Z</time></trkpt><trkpt lat="43.6149233" lon="11.50215"><ele>127.0</ele><time>2026-04-26T07:30:13.648Z</time></trkpt><trkpt lat="43.6149083" lon="11.50204"><ele>127.0</ele><time>2026-04-26T07:30:14.648Z</time></trkpt><trkpt lat="43.61489" lon="11.50193"><ele>127.00000000000001</ele><time>2026-04-26T07:30:15.645Z</time></trkpt><trkpt lat="43.6148833" lon="11.50182"><ele>127.0</ele><time>2026-04-26T07:30:16.646Z</time></trkpt><trkpt lat="43.6148717" lon="11.5017067"><ele>127.00000000000001</ele><time>2026-04-26T07:30:17.645Z</time></trkpt><trkpt lat="43.614865" lon="11.5015933"><ele>127.0</ele><time>2026-04-26T07:30:18.647Z</time></trkpt><trkpt lat="43.61486" lon="11.501485"><ele>127.0</ele><time>2026-04-26T07:30:19.647Z</time></trkpt><trkpt lat="43.614855" lon="11.50137"><ele>127.0</ele><time>2026-04-26T07:30:20.646Z</time></trkpt><trkpt lat="43.61486" lon="11.5012533"><ele>127.00000000000001</ele><time>2026-04-26T07:30:21.645Z</time></trkpt><trkpt lat="43.614865" lon="11.50114"><ele>127.0</ele><time>2026-04-26T07:30:22.644Z</time></trkpt><trkpt lat="43.6148767" lon="11.501025"><ele>126.83333333333334</ele><time>2026-04-26T07:30:23.646Z</time></trkpt><trkpt lat="43.614885" lon="11.50091"><ele>126.66666666666667</ele><time>2026-04-26T07:30:24.647Z</time></trkpt><trkpt lat="43.614895" lon="11.50079"><ele>126.5</ele><time>2026-04-26T07:30:25.647Z</time></trkpt><trkpt lat="43.61491" lon="11.500675"><ele>126.33333333333334</ele><time>2026-04-26T07:30:26.645Z</time></trkpt><trkpt lat="43.6149233" lon="11.500565"><ele>126.16666666666667</ele><time>2026-04-26T07:30:27.645Z</time></trkpt><trkpt lat="43.6149317" lon="11.5004567"><ele>126.0</ele><time>2026-04-26T07:30:28.646Z</time></trkpt><trkpt lat="43.61493" lon="11.5003533"><ele>125.83333333333333</ele><time>2026-04-26T07:30:29.646Z</time></trkpt><trkpt lat="43.61491" lon="11.500255"><ele>125.66666666666666</ele><time>2026-04-26T07:30:30.646Z</time></trkpt><trkpt lat="43.61488" lon="11.50016"><ele>125.5</ele><time>2026-04-26T07:30:31.646Z</time></trkpt><trkpt lat="43.6148433" lon="11.5000783"><ele>125.33333333333333</ele><time>2026-04-26T07:30:32.645Z</time></trkpt><trkpt lat="43.6147683" lon="11.4999633"><ele>125.16666666666666</ele><time>2026-04-26T07:30:34.646Z</time></trkpt><trkpt lat="43.6147067" lon="11.4999133"><ele>125.0</ele><time>2026-04-26T07:30:36.645Z</time></trkpt><trkpt lat="43.614635" lon="11.499895"><ele>125.0</ele><time>2026-04-26T07:30:38.646Z</time></trkpt><trkpt lat="43.6145417" lon="11.49991"><ele>125.0</ele><time>2026-04-26T07:30:40.644Z</time></trkpt><trkpt lat="43.6144317" lon="11.4999583"><ele>125.0</ele><time>2026-04-26T07:30:42.645Z</time></trkpt><trkpt lat="43.614315" lon="11.50002"><ele>125.0</ele><time>2026-04-26T07:30:44.646Z</time></trkpt><trkpt lat="43.6142583" lon="11.50006"><ele>125.0</ele><time>2026-04-26T07:30:45.645Z</time></trkpt><trkpt lat="43.6141983" lon="11.5000917"><ele>124.85714285714286</ele><time>2026-04-26T07:30:46.646Z</time></trkpt><trkpt lat="43.6141367" lon="11.5001217"><ele>124.71428571428572</ele><time>2026-04-26T07:30:47.644Z</time></trkpt><trkpt lat="43.6140783" lon="11.5001583"><ele>124.57142857142858</ele><time>2026-04-26T07:30:48.645Z</time></trkpt><trkpt lat="43.6140183" lon="11.5001867"><ele>124.42857142857143</ele><time>2026-04-26T07:30:49.646Z</time></trkpt><trkpt lat="43.6139583" lon="11.5002167"><ele>124.2857142857143</ele><time>2026-04-26T07:30:50.645Z</time></trkpt><trkpt lat="43.613845" lon="11.5002767"><ele>124.14285714285715</ele><time>2026-04-26T07:30:52.643Z</time></trkpt><trkpt lat="43.613785" lon="11.5003067"><ele>124.0</ele><time>2026-04-26T07:30:53.647Z</time></trkpt><trkpt lat="43.6137217" lon="11.5003333"><ele>124.33333333333334</ele><time>2026-04-26T07:30:54.645Z</time></trkpt><trkpt lat="43.6135983" lon="11.5003717"><ele>124.66666666666667</ele><time>2026-04-26T07:30:56.647Z</time></trkpt><trkpt lat="43.6135283" lon="11.5003883"><ele>125.0</ele><time>2026-04-26T07:30:57.645Z</time></trkpt><trkpt lat="43.6134567" lon="11.5004217"><ele>125.33333333333334</ele><time>2026-04-26T07:30:58.647Z</time></trkpt><trkpt lat="43.613385" lon="11.5004533"><ele>125.66666666666667</ele><time>2026-04-26T07:30:59.645Z</time></trkpt><trkpt lat="43.6133083" lon="11.50048"><ele>126.0</ele><time>2026-04-26T07:31:00.647Z</time></trkpt><trkpt lat="43.6132333" lon="11.5005117"><ele>126.0</ele><time>2026-04-26T07:31:01.644Z</time></trkpt><trkpt lat="43.6131567" lon="11.5005367"><ele>126.0</ele><time>2026-04-26T07:31:02.643Z</time></trkpt><trkpt lat="43.6130733" lon="11.500555"><ele>126.0</ele><time>2026-04-26T07:31:03.643Z</time></trkpt><trkpt lat="43.61299" lon="11.5005767"><ele>126.0</ele><time>2026-04-26T07:31:04.642Z</time></trkpt><trkpt lat="43.6129117" lon="11.5006"><ele>126.0</ele><time>2026-04-26T07:31:05.643Z</time></trkpt><trkpt lat="43.612835" lon="11.5006233"><ele>126.0</ele><time>2026-04-26T07:31:06.643Z</time></trkpt><trkpt lat="43.6127633" lon="11.5006483"><ele>126.0</ele><time>2026-04-26T07:31:07.643Z</time></trkpt><trkpt lat="43.6126883" lon="11.500675"><ele>126.0</ele><time>2026-04-26T07:31:08.643Z</time></trkpt><trkpt lat="43.612615" lon="11.5006883"><ele>126.0</ele><time>2026-04-26T07:31:09.643Z</time></trkpt><trkpt lat="43.6125317" lon="11.5006967"><ele>126.0</ele><time>2026-04-26T07:31:10.646Z</time></trkpt><trkpt lat="43.6124517" lon="11.5007117"><ele>126.0</ele><time>2026-04-26T07:31:11.645Z</time></trkpt><trkpt lat="43.6123733" lon="11.50074"><ele>126.0</ele><time>2026-04-26T07:31:12.646Z</time></trkpt><trkpt lat="43.6122917" lon="11.5007633"><ele>126.0</ele><time>2026-04-26T07:31:13.646Z</time></trkpt><trkpt lat="43.6122167" lon="11.50079"><ele>126.0</ele><time>2026-04-26T07:31:14.646Z</time></trkpt><trkpt lat="43.61214" lon="11.5008233"><ele>126.0</ele><time>2026-04-26T07:31:15.646Z</time></trkpt><trkpt lat="43.6120617" lon="11.5008517"><ele>126.0</ele><time>2026-04-26T07:31:16.646Z</time></trkpt><trkpt lat="43.6119817" lon="11.5008717"><ele>126.0</ele><time>2026-04-26T07:31:17.646Z</time></trkpt><trkpt lat="43.6119033" lon="11.500895"><ele>126.0</ele><time>2026-04-26T07:31:18.649Z</time></trkpt><trkpt lat="43.6118267" lon="11.5009217"><ele>125.66666666666667</ele><time>2026-04-26T07:31:19.646Z</time></trkpt><trkpt lat="43.6117517" lon="11.5009533"><ele>125.33333333333334</ele><time>2026-04-26T07:31:20.646Z</time></trkpt><trkpt lat="43.61167" lon="11.5009867"><ele>125.0</ele><time>2026-04-26T07:31:21.645Z</time></trkpt><trkpt lat="43.6115867" lon="11.5010217"><ele>124.66666666666667</ele><time>2026-04-26T07:31:22.647Z</time></trkpt><trkpt lat="43.6115033" lon="11.5010483"><ele>124.33333333333334</ele><time>2026-04-26T07:31:23.646Z</time></trkpt><trkpt lat="43.6114217" lon="11.5010767"><ele>124.0</ele><time>2026-04-26T07:31:24.645Z</time></trkpt><trkpt lat="43.611345" lon="11.5011017"><ele>124.00000000000001</ele><time>2026-04-26T07:31:25.644Z</time></trkpt><trkpt lat="43.6112683" lon="11.5011267"><ele>124.0</ele><time>2026-04-26T07:31:26.647Z</time></trkpt><trkpt lat="43.6111933" lon="11.5011483"><ele>124.0</ele><time>2026-04-26T07:31:27.646Z</time></trkpt><trkpt lat="43.6111117" lon="11.5011767"><ele>124.0</ele><time>2026-04-26T07:31:28.646Z</time></trkpt><trkpt lat="43.61103" lon="11.50121"><ele>124.00000000000001</ele><time>2026-04-26T07:31:29.648Z</time></trkpt><trkpt lat="43.6109517" lon="11.5012483"><ele>124.0</ele><time>2026-04-26T07:31:30.646Z</time></trkpt><trkpt lat="43.61087" lon="11.501285"><ele>124.50000000000001</ele><time>2026-04-26T07:31:31.648Z</time></trkpt><trkpt lat="43.61079" lon="11.5013317"><ele>125.0</ele><time>2026-04-26T07:31:32.646Z</time></trkpt><trkpt lat="43.6107133" lon="11.5013717"><ele>125.5</ele><time>2026-04-26T07:31:33.648Z</time></trkpt><trkpt lat="43.6106333" lon="11.501415"><ele>126.0</ele><time>2026-04-26T07:31:34.645Z</time></trkpt><trkpt lat="43.610555" lon="11.5014567"><ele>126.50000000000001</ele><time>2026-04-26T07:31:35.646Z</time></trkpt><trkpt lat="43.610475" lon="11.501495"><ele>127.0</ele><time>2026-04-26T07:31:36.646Z</time></trkpt><trkpt lat="43.6103983" lon="11.50153"><ele>126.83333333333334</ele><time>2026-04-26T07:31:37.647Z</time></trkpt><trkpt lat="43.6103233" lon="11.5015733"><ele>126.66666666666667</ele><time>2026-04-26T07:31:38.645Z</time></trkpt><trkpt lat="43.610245" lon="11.5016233"><ele>126.5</ele><time>2026-04-26T07:31:39.647Z</time></trkpt><trkpt lat="43.6101617" lon="11.5016667"><ele>126.33333333333334</ele><time>2026-04-26T07:31:40.646Z</time></trkpt><trkpt lat="43.6100817" lon="11.5017017"><ele>126.16666666666667</ele><time>2026-04-26T07:31:41.645Z</time></trkpt><trkpt lat="43.610005" lon="11.50174"><ele>126.0</ele><time>2026-04-26T07:31:42.647Z</time></trkpt><trkpt lat="43.60993" lon="11.5017767"><ele>126.0</ele><time>2026-04-26T07:31:43.645Z</time></trkpt><trkpt lat="43.609855" lon="11.5018083"><ele>126.0</ele><time>2026-04-26T07:31:44.647Z</time></trkpt><trkpt lat="43.609775" lon="11.501845"><ele>126.0</ele><time>2026-04-26T07:31:45.647Z</time></trkpt><trkpt lat="43.6097017" lon="11.5018783"><ele>126.0</ele><time>2026-04-26T07:31:46.648Z</time></trkpt><trkpt lat="43.6096283" lon="11.50191"><ele>126.0</ele><time>2026-04-26T07:31:47.647Z</time></trkpt><trkpt lat="43.6095567" lon="11.50194"><ele>126.0</ele><time>2026-04-26T07:31:48.647Z</time></trkpt><trkpt lat="43.6094867" lon="11.5019717"><ele>126.14285714285714</ele><time>2026-04-26T07:31:49.645Z</time></trkpt><trkpt lat="43.6094133" lon="11.50201"><ele>126.28571428571428</ele><time>2026-04-26T07:31:50.645Z</time></trkpt><trkpt lat="43.6093467" lon="11.5020467"><ele>126.42857142857143</ele><time>2026-04-26T07:31:51.646Z</time></trkpt><trkpt lat="43.6092867" lon="11.502085"><ele>126.57142857142857</ele><time>2026-04-26T07:31:52.646Z</time></trkpt><trkpt lat="43.60923" lon="11.50213"><ele>126.71428571428571</ele><time>2026-04-26T07:31:53.645Z</time></trkpt><trkpt lat="43.6091733" lon="11.50218"><ele>126.85714285714286</ele><time>2026-04-26T07:31:54.647Z</time></trkpt><trkpt lat="43.6091133" lon="11.50223"><ele>127.0</ele><time>2026-04-26T07:31:55.648Z</time></trkpt><trkpt lat="43.6090533" lon="11.502285"><ele>127.0</ele><time>2026-04-26T07:31:56.646Z</time></trkpt><trkpt lat="43.6089983" lon="11.5023433"><ele>127.0</ele><time>2026-04-26T07:31:57.646Z</time></trkpt><trkpt lat="43.6089433" lon="11.5024067"><ele>127.0</ele><time>2026-04-26T07:31:58.647Z</time></trkpt><trkpt lat="43.60889" lon="11.50248"><ele>127.0</ele><time>2026-04-26T07:31:59.648Z</time></trkpt><trkpt lat="43.6088367" lon="11.5025417"><ele>127.0</ele><time>2026-04-26T07:32:00.646Z</time></trkpt><trkpt lat="43.6087817" lon="11.5026117"><ele>127.0</ele><time>2026-04-26T07:32:01.646Z</time></trkpt><trkpt lat="43.6087183" lon="11.5026717"><ele>127.0</ele><time>2026-04-26T07:32:02.647Z</time></trkpt><trkpt lat="43.6086533" lon="11.502725"><ele>127.0</ele><time>2026-04-26T07:32:03.646Z</time></trkpt><trkpt lat="43.608585" lon="11.50278"><ele>127.0</ele><time>2026-04-26T07:32:04.647Z</time></trkpt><trkpt lat="43.6085217" lon="11.5028367"><ele>127.0</ele><time>2026-04-26T07:32:05.647Z</time></trkpt><trkpt lat="43.6084583" lon="11.5028967"><ele>127.0</ele><time>2026-04-26T07:32:06.647Z</time></trkpt><trkpt lat="43.6083983" lon="11.5029517"><ele>127.0</ele><time>2026-04-26T07:32:07.646Z</time></trkpt><trkpt lat="43.60834" lon="11.503015"><ele>127.0</ele><time>2026-04-26T07:32:08.647Z</time></trkpt><trkpt lat="43.60828" lon="11.5030683"><ele>127.0</ele><time>2026-04-26T07:32:09.646Z</time></trkpt><trkpt lat="43.6082183" lon="11.5031233"><ele>127.0</ele><time>2026-04-26T07:32:10.647Z</time></trkpt><trkpt lat="43.608155" lon="11.5031717"><ele>127.0</ele><time>2026-04-26T07:32:11.648Z</time></trkpt><trkpt lat="43.6080917" lon="11.503225"><ele>127.0</ele><time>2026-04-26T07:32:12.649Z</time></trkpt><trkpt lat="43.6080317" lon="11.503275"><ele>127.0</ele><time>2026-04-26T07:32:13.647Z</time></trkpt><trkpt lat="43.6079717" lon="11.5033183"><ele>127.0</ele><time>2026-04-26T07:32:14.647Z</time></trkpt><trkpt lat="43.6079083" lon="11.5033567"><ele>127.0</ele><time>2026-04-26T07:32:15.647Z</time></trkpt><trkpt lat="43.607845" lon="11.5033883"><ele>127.0</ele><time>2026-04-26T07:32:16.646Z</time></trkpt><trkpt lat="43.6077783" lon="11.5034117"><ele>127.42857142857143</ele><time>2026-04-26T07:32:17.647Z</time></trkpt><trkpt lat="43.607705" lon="11.5034283"><ele>127.85714285714286</ele><time>2026-04-26T07:32:18.646Z</time></trkpt><trkpt lat="43.607635" lon="11.5034367"><ele>128.28571428571428</ele><time>2026-04-26T07:32:19.648Z</time></trkpt><trkpt lat="43.6075667" lon="11.5034417"><ele>128.71428571428572</ele><time>2026-04-26T07:32:20.646Z</time></trkpt><trkpt lat="43.607495" lon="11.5034383"><ele>129.14285714285714</ele><time>2026-04-26T07:32:21.646Z</time></trkpt><trkpt lat="43.6074217" lon="11.503445"><ele>129.57142857142858</ele><time>2026-04-26T07:32:22.646Z</time></trkpt><trkpt lat="43.6073467" lon="11.5034483"><ele>130.0</ele><time>2026-04-26T07:32:23.646Z</time></trkpt><trkpt lat="43.6072733" lon="11.503455"><ele>130.00000000000003</ele><time>2026-04-26T07:32:24.645Z</time></trkpt><trkpt lat="43.6072" lon="11.5034617"><ele>130.0</ele><time>2026-04-26T07:32:25.646Z</time></trkpt><trkpt lat="43.6071267" lon="11.503465"><ele>130.0</ele><time>2026-04-26T07:32:26.647Z</time></trkpt><trkpt lat="43.6070567" lon="11.503475"><ele>130.0</ele><time>2026-04-26T07:32:27.646Z</time></trkpt><trkpt lat="43.606985" lon="11.503485"><ele>130.0</ele><time>2026-04-26T07:32:28.646Z</time></trkpt><trkpt lat="43.60691" lon="11.5034983"><ele>130.00000000000003</ele><time>2026-04-26T07:32:29.645Z</time></trkpt><trkpt lat="43.6068333" lon="11.5035067"><ele>130.0</ele><time>2026-04-26T07:32:30.648Z</time></trkpt><trkpt lat="43.6067583" lon="11.5035267"><ele>129.83333333333334</ele><time>2026-04-26T07:32:31.647Z</time></trkpt><trkpt lat="43.6066867" lon="11.5035533"><ele>129.66666666666669</ele><time>2026-04-26T07:32:32.646Z</time></trkpt><trkpt lat="43.6066167" lon="11.503585"><ele>129.5</ele><time>2026-04-26T07:32:33.646Z</time></trkpt><trkpt lat="43.6065467" lon="11.5036233"><ele>129.33333333333334</ele><time>2026-04-26T07:32:34.646Z</time></trkpt><trkpt lat="43.60648" lon="11.50367"><ele>129.16666666666666</ele><time>2026-04-26T07:32:35.646Z</time></trkpt><trkpt lat="43.6064117" lon="11.5037217"><ele>129.0</ele><time>2026-04-26T07:32:36.646Z</time></trkpt><trkpt lat="43.6063467" lon="11.5037783"><ele>129.33333333333334</ele><time>2026-04-26T07:32:37.648Z</time></trkpt><trkpt lat="43.60628" lon="11.5038333"><ele>129.66666666666666</ele><time>2026-04-26T07:32:38.645Z</time></trkpt><trkpt lat="43.606215" lon="11.5038883"><ele>130.0</ele><time>2026-04-26T07:32:39.646Z</time></trkpt><trkpt lat="43.6061517" lon="11.50395"><ele>130.33333333333331</ele><time>2026-04-26T07:32:40.645Z</time></trkpt><trkpt lat="43.6060867" lon="11.5040017"><ele>130.66666666666666</ele><time>2026-04-26T07:32:41.646Z</time></trkpt><trkpt lat="43.606025" lon="11.5040583"><ele>131.0</ele><time>2026-04-26T07:32:42.648Z</time></trkpt><trkpt lat="43.6059633" lon="11.50411"><ele>131.0</ele><time>2026-04-26T07:32:43.648Z</time></trkpt><trkpt lat="43.6059033" lon="11.50417"><ele>131.0</ele><time>2026-04-26T07:32:44.646Z</time></trkpt><trkpt lat="43.605845" lon="11.5042283"><ele>131.0</ele><time>2026-04-26T07:32:45.646Z</time></trkpt><trkpt lat="43.6057867" lon="11.50429"><ele>131.0</ele><time>2026-04-26T07:32:46.646Z</time></trkpt><trkpt lat="43.6057333" lon="11.5043517"><ele>131.0</ele><time>2026-04-26T07:32:47.646Z</time></trkpt><trkpt lat="43.605675" lon="11.504415"><ele>131.0</ele><time>2026-04-26T07:32:48.645Z</time></trkpt><trkpt lat="43.6056183" lon="11.5044817"><ele>131.0</ele><time>2026-04-26T07:32:49.646Z</time></trkpt><trkpt lat="43.6055617" lon="11.504545"><ele>130.57142857142858</ele><time>2026-04-26T07:32:50.645Z</time></trkpt><trkpt lat="43.6055083" lon="11.50461"><ele>130.14285714285717</ele><time>2026-04-26T07:32:51.645Z</time></trkpt><trkpt lat="43.6054517" lon="11.5046783"><ele>129.71428571428572</ele><time>2026-04-26T07:32:52.644Z</time></trkpt><trkpt lat="43.6053983" lon="11.5047517"><ele>129.28571428571428</ele><time>2026-04-26T07:32:53.645Z</time></trkpt><trkpt lat="43.605345" lon="11.5048167"><ele>128.85714285714283</ele><time>2026-04-26T07:32:54.645Z</time></trkpt><trkpt lat="43.6052883" lon="11.50488"><ele>128.42857142857142</ele><time>2026-04-26T07:32:55.646Z</time></trkpt><trkpt lat="43.6052333" lon="11.5049483"><ele>128.0</ele><time>2026-04-26T07:32:56.646Z</time></trkpt><trkpt lat="43.60518" lon="11.5050133"><ele>128.0</ele><time>2026-04-26T07:32:57.644Z</time></trkpt><trkpt lat="43.60513" lon="11.5050867"><ele>127.99999999999999</ele><time>2026-04-26T07:32:58.643Z</time></trkpt><trkpt lat="43.6050783" lon="11.5051533"><ele>128.0</ele><time>2026-04-26T07:32:59.646Z</time></trkpt><trkpt lat="43.6050283" lon="11.5052267"><ele>128.0</ele><time>2026-04-26T07:33:00.644Z</time></trkpt><trkpt lat="43.6049783" lon="11.5053017"><ele>127.99999999999999</ele><time>2026-04-26T07:33:01.646Z</time></trkpt><trkpt lat="43.6049283" lon="11.5053817"><ele>128.0</ele><time>2026-04-26T07:33:02.646Z</time></trkpt><trkpt lat="43.60488" lon="11.5054567"><ele>128.0</ele><time>2026-04-26T07:33:03.645Z</time></trkpt><trkpt lat="43.604825" lon="11.5055217"><ele>129.16666666666666</ele><time>2026-04-26T07:33:04.646Z</time></trkpt><trkpt lat="43.6047733" lon="11.5055967"><ele>130.33333333333331</ele><time>2026-04-26T07:33:05.646Z</time></trkpt><trkpt lat="43.6047233" lon="11.505675"><ele>131.5</ele><time>2026-04-26T07:33:06.645Z</time></trkpt><trkpt lat="43.6046717" lon="11.5057517"><ele>132.66666666666666</ele><time>2026-04-26T07:33:07.647Z</time></trkpt><trkpt lat="43.60462" lon="11.505825"><ele>133.83333333333334</ele><time>2026-04-26T07:33:08.647Z</time></trkpt><trkpt lat="43.6045567" lon="11.5059083"><ele>135.0</ele><time>2026-04-26T07:33:09.645Z</time></trkpt><trkpt lat="43.6045017" lon="11.5059917"><ele>133.83333333333334</ele><time>2026-04-26T07:33:10.645Z</time></trkpt><trkpt lat="43.6044517" lon="11.506075"><ele>132.66666666666666</ele><time>2026-04-26T07:33:11.645Z</time></trkpt><trkpt lat="43.6044017" lon="11.5061583"><ele>131.5</ele><time>2026-04-26T07:33:12.648Z</time></trkpt><trkpt lat="43.6043583" lon="11.5062517"><ele>130.33333333333331</ele><time>2026-04-26T07:33:13.645Z</time></trkpt><trkpt lat="43.6043217" lon="11.5063533"><ele>129.16666666666666</ele><time>2026-04-26T07:33:14.648Z</time></trkpt><trkpt lat="43.6042917" lon="11.5064567"><ele>128.0</ele><time>2026-04-26T07:33:15.645Z</time></trkpt><trkpt lat="43.604265" lon="11.5065617"><ele>127.99999999999999</ele><time>2026-04-26T07:33:16.646Z</time></trkpt><trkpt lat="43.6042433" lon="11.50667"><ele>128.0</ele><time>2026-04-26T07:33:17.645Z</time></trkpt><trkpt lat="43.6042167" lon="11.5067683"><ele>128.0</ele><time>2026-04-26T07:33:18.645Z</time></trkpt><trkpt lat="43.6042" lon="11.5068783"><ele>128.0</ele><time>2026-04-26T07:33:19.645Z</time></trkpt><trkpt lat="43.6041817" lon="11.5069833"><ele>127.99999999999999</ele><time>2026-04-26T07:33:20.645Z</time></trkpt><trkpt lat="43.6041667" lon="11.5070867"><ele>128.0</ele><time>2026-04-26T07:33:21.646Z</time></trkpt><trkpt lat="43.6041483" lon="11.50719"><ele>128.5</ele><time>2026-04-26T07:33:22.645Z</time></trkpt><trkpt lat="43.6041317" lon="11.5072933"><ele>129.0</ele><time>2026-04-26T07:33:23.645Z</time></trkpt><trkpt lat="43.6041133" lon="11.507395"><ele>129.5</ele><time>2026-04-26T07:33:24.646Z</time></trkpt><trkpt lat="43.6040967" lon="11.5075"><ele>130.0</ele><time>2026-04-26T07:33:25.647Z</time></trkpt><trkpt lat="43.6040733" lon="11.5076017"><ele>130.5</ele><time>2026-04-26T07:33:26.647Z</time></trkpt><trkpt lat="43.6040517" lon="11.5077067"><ele>131.0</ele><time>2026-04-26T07:33:27.646Z</time></trkpt><trkpt lat="43.6040283" lon="11.5078083"><ele>131.16666666666666</ele><time>2026-04-26T07:33:28.645Z</time></trkpt><trkpt lat="43.604" lon="11.5079167"><ele>131.33333333333331</ele><time>2026-04-26T07:33:29.646Z</time></trkpt><trkpt lat="43.6039667" lon="11.50802"><ele>131.5</ele><time>2026-04-26T07:33:30.648Z</time></trkpt><trkpt lat="43.6039417" lon="11.5081267"><ele>131.66666666666666</ele><time>2026-04-26T07:33:31.645Z</time></trkpt><trkpt lat="43.6039067" lon="11.5082317"><ele>131.83333333333334</ele><time>2026-04-26T07:33:32.645Z</time></trkpt><trkpt lat="43.60387" lon="11.5083367"><ele>132.0</ele><time>2026-04-26T07:33:33.646Z</time></trkpt><trkpt lat="43.6038267" lon="11.508435"><ele>132.0</ele><time>2026-04-26T07:33:34.646Z</time></trkpt><trkpt lat="43.603785" lon="11.5085317"><ele>132.0</ele><time>2026-04-26T07:33:35.645Z</time></trkpt><trkpt lat="43.6037367" lon="11.5086233"><ele>132.0</ele><time>2026-04-26T07:33:36.647Z</time></trkpt><trkpt lat="43.6036883" lon="11.508715"><ele>132.0</ele><time>2026-04-26T07:33:37.648Z</time></trkpt><trkpt lat="43.6036367" lon="11.508805"><ele>132.0</ele><time>2026-04-26T07:33:38.645Z</time></trkpt><trkpt lat="43.6035817" lon="11.5088817"><ele>132.0</ele><time>2026-04-26T07:33:39.646Z</time></trkpt><trkpt lat="43.6035233" lon="11.508955"><ele>131.66666666666666</ele><time>2026-04-26T07:33:40.644Z</time></trkpt><trkpt lat="43.6034567" lon="11.509015"><ele>131.33333333333334</ele><time>2026-04-26T07:33:41.646Z</time></trkpt><trkpt lat="43.603395" lon="11.509085"><ele>131.0</ele><time>2026-04-26T07:33:42.645Z</time></trkpt><trkpt lat="43.6033383" lon="11.5091583"><ele>130.66666666666669</ele><time>2026-04-26T07:33:43.646Z</time></trkpt><trkpt lat="43.6032867" lon="11.5092417"><ele>130.33333333333334</ele><time>2026-04-26T07:33:44.646Z</time></trkpt><trkpt lat="43.603245" lon="11.5093267"><ele>130.0</ele><time>2026-04-26T07:33:45.645Z</time></trkpt><trkpt lat="43.6032033" lon="11.5094133"><ele>130.00000000000003</ele><time>2026-04-26T07:33:46.645Z</time></trkpt><trkpt lat="43.6031633" lon="11.5095"><ele>130.0</ele><time>2026-04-26T07:33:47.645Z</time></trkpt><trkpt lat="43.6031233" lon="11.50959"><ele>130.0</ele><time>2026-04-26T07:33:48.646Z</time></trkpt><trkpt lat="43.60309" lon="11.5096867"><ele>130.0</ele><time>2026-04-26T07:33:49.647Z</time></trkpt><trkpt lat="43.6030567" lon="11.50978"><ele>130.0</ele><time>2026-04-26T07:33:50.647Z</time></trkpt><trkpt lat="43.6030267" lon="11.50987"><ele>130.00000000000003</ele><time>2026-04-26T07:33:51.647Z</time></trkpt><trkpt lat="43.6029883" lon="11.509955"><ele>130.0</ele><time>2026-04-26T07:33:52.646Z</time></trkpt><trkpt lat="43.602955" lon="11.51004"><ele>129.85714285714286</ele><time>2026-04-26T07:33:53.647Z</time></trkpt><trkpt lat="43.6029183" lon="11.510125"><ele>129.71428571428572</ele><time>2026-04-26T07:33:54.646Z</time></trkpt><trkpt lat="43.6028817" lon="11.5102017"><ele>129.57142857142856</ele><time>2026-04-26T07:33:55.647Z</time></trkpt><trkpt lat="43.60284" lon="11.510275"><ele>129.42857142857144</ele><time>2026-04-26T07:33:56.645Z</time></trkpt><trkpt lat="43.6027933" lon="11.510345"><ele>129.28571428571428</ele><time>2026-04-26T07:33:57.647Z</time></trkpt><trkpt lat="43.602735" lon="11.5104067"><ele>129.14285714285714</ele><time>2026-04-26T07:33:58.647Z</time></trkpt><trkpt lat="43.6026783" lon="11.5104683"><ele>129.0</ele><time>2026-04-26T07:33:59.647Z</time></trkpt><trkpt lat="43.6026167" lon="11.5105233"><ele>129.33333333333334</ele><time>2026-04-26T07:34:00.646Z</time></trkpt><trkpt lat="43.6025517" lon="11.5105733"><ele>129.66666666666666</ele><time>2026-04-26T07:34:01.646Z</time></trkpt><trkpt lat="43.6024833" lon="11.510625"><ele>130.0</ele><time>2026-04-26T07:34:02.647Z</time></trkpt><trkpt lat="43.602415" lon="11.5106767"><ele>130.33333333333331</ele><time>2026-04-26T07:34:03.644Z</time></trkpt><trkpt lat="43.6023467" lon="11.510725"><ele>130.66666666666666</ele><time>2026-04-26T07:34:04.646Z</time></trkpt><trkpt lat="43.60228" lon="11.5107717"><ele>131.0</ele><time>2026-04-26T07:34:05.645Z</time></trkpt><trkpt lat="43.6022183" lon="11.5108283"><ele>131.0</ele><time>2026-04-26T07:34:06.646Z</time></trkpt><trkpt lat="43.602155" lon="11.510875"><ele>131.0</ele><time>2026-04-26T07:34:07.646Z</time></trkpt><trkpt lat="43.6020917" lon="11.5109267"><ele>131.0</ele><time>2026-04-26T07:34:08.647Z</time></trkpt><trkpt lat="43.6020267" lon="11.5109767"><ele>131.0</ele><time>2026-04-26T07:34:09.645Z</time></trkpt><trkpt lat="43.60196" lon="11.5110317"><ele>131.0</ele><time>2026-04-26T07:34:10.646Z</time></trkpt><trkpt lat="43.6018967" lon="11.5110833"><ele>131.0</ele><time>2026-04-26T07:34:11.645Z</time></trkpt><trkpt lat="43.6018317" lon="11.5111367"><ele>131.0</ele><time>2026-04-26T07:34:12.647Z</time></trkpt><trkpt lat="43.60177" lon="11.5111883"><ele>131.14285714285714</ele><time>2026-04-26T07:34:13.645Z</time></trkpt><trkpt lat="43.60171" lon="11.51124"><ele>131.2857142857143</ele><time>2026-04-26T07:34:14.646Z</time></trkpt><trkpt lat="43.60165" lon="11.5112867"><ele>131.42857142857144</ele><time>2026-04-26T07:34:15.647Z</time></trkpt><trkpt lat="43.60159" lon="11.5113383"><ele>131.57142857142858</ele><time>2026-04-26T07:34:16.647Z</time></trkpt><trkpt lat="43.60153" lon="11.5113833"><ele>131.71428571428572</ele><time>2026-04-26T07:34:17.645Z</time></trkpt><trkpt lat="43.6014667" lon="11.5114333"><ele>131.85714285714286</ele><time>2026-04-26T07:34:18.647Z</time></trkpt><trkpt lat="43.601405" lon="11.5114817"><ele>132.0</ele><time>2026-04-26T07:34:19.648Z</time></trkpt><trkpt lat="43.6013417" lon="11.5115267"><ele>132.0</ele><time>2026-04-26T07:34:20.645Z</time></trkpt><trkpt lat="43.60128" lon="11.5115767"><ele>132.0</ele><time>2026-04-26T07:34:21.645Z</time></trkpt><trkpt lat="43.6012217" lon="11.5116317"><ele>132.0</ele><time>2026-04-26T07:34:22.647Z</time></trkpt><trkpt lat="43.6011667" lon="11.511685"><ele>132.0</ele><time>2026-04-26T07:34:23.645Z</time></trkpt><trkpt lat="43.601115" lon="11.5117467"><ele>132.0</ele><time>2026-04-26T07:34:24.646Z</time></trkpt><trkpt lat="43.60106" lon="11.5118117"><ele>132.0</ele><time>2026-04-26T07:34:25.646Z</time></trkpt><trkpt lat="43.6010067" lon="11.5118833"><ele>132.0</ele><time>2026-04-26T07:34:26.648Z</time></trkpt><trkpt lat="43.6009567" lon="11.5119533"><ele>132.28571428571428</ele><time>2026-04-26T07:34:27.647Z</time></trkpt><trkpt lat="43.6009083" lon="11.5120267"><ele>132.57142857142858</ele><time>2026-04-26T07:34:28.645Z</time></trkpt><trkpt lat="43.60086" lon="11.5120983"><ele>132.85714285714286</ele><time>2026-04-26T07:34:29.645Z</time></trkpt><trkpt lat="43.6008117" lon="11.5121633"><ele>133.14285714285714</ele><time>2026-04-26T07:34:30.648Z</time></trkpt><trkpt lat="43.60076" lon="11.5122317"><ele>133.42857142857142</ele><time>2026-04-26T07:34:31.646Z</time></trkpt><trkpt lat="43.6007067" lon="11.512295"><ele>133.71428571428572</ele><time>2026-04-26T07:34:32.647Z</time></trkpt><trkpt lat="43.6006567" lon="11.512365"><ele>134.0</ele><time>2026-04-26T07:34:33.646Z</time></trkpt><trkpt lat="43.6006083" lon="11.5124283"><ele>134.0</ele><time>2026-04-26T07:34:34.645Z</time></trkpt><trkpt lat="43.6005583" lon="11.51249"><ele>134.0</ele><time>2026-04-26T07:34:35.644Z</time></trkpt><trkpt lat="43.6005017" lon="11.5125517"><ele>134.0</ele><time>2026-04-26T07:34:36.647Z</time></trkpt><trkpt lat="43.600445" lon="11.51261"><ele>134.0</ele><time>2026-04-26T07:34:37.647Z</time></trkpt><trkpt lat="43.60039" lon="11.512665"><ele>134.0</ele><time>2026-04-26T07:34:38.647Z</time></trkpt><trkpt lat="43.6003383" lon="11.51272"><ele>134.0</ele><time>2026-04-26T07:34:39.646Z</time></trkpt><trkpt lat="43.60028" lon="11.5127683"><ele>134.0</ele><time>2026-04-26T07:34:40.646Z</time></trkpt><trkpt lat="43.6002217" lon="11.51282"><ele>134.14285714285714</ele><time>2026-04-26T07:34:41.647Z</time></trkpt><trkpt lat="43.6001633" lon="11.5128717"><ele>134.28571428571428</ele><time>2026-04-26T07:34:42.646Z</time></trkpt><trkpt lat="43.600105" lon="11.5129217"><ele>134.42857142857142</ele><time>2026-04-26T07:34:43.647Z</time></trkpt><trkpt lat="43.600045" lon="11.51297"><ele>134.57142857142856</ele><time>2026-04-26T07:34:44.646Z</time></trkpt><trkpt lat="43.599985" lon="11.5130267"><ele>134.7142857142857</ele><time>2026-04-26T07:34:45.645Z</time></trkpt><trkpt lat="43.599925" lon="11.5130817"><ele>134.85714285714286</ele><time>2026-04-26T07:34:46.645Z</time></trkpt><trkpt lat="43.5998667" lon="11.5131333"><ele>135.0</ele><time>2026-04-26T07:34:47.647Z</time></trkpt><trkpt lat="43.5998017" lon="11.513185"><ele>135.0</ele><time>2026-04-26T07:34:48.645Z</time></trkpt><trkpt lat="43.59974" lon="11.5132483"><ele>135.0</ele><time>2026-04-26T07:34:49.646Z</time></trkpt><trkpt lat="43.5996783" lon="11.5133117"><ele>135.0</ele><time>2026-04-26T07:34:50.648Z</time></trkpt><trkpt lat="43.5996217" lon="11.5133667"><ele>135.0</ele><time>2026-04-26T07:34:51.645Z</time></trkpt><trkpt lat="43.5995667" lon="11.5134283"><ele>135.0</ele><time>2026-04-26T07:34:52.648Z</time></trkpt><trkpt lat="43.5995133" lon="11.51348"><ele>135.0</ele><time>2026-04-26T07:34:53.647Z</time></trkpt><trkpt lat="43.59946" lon="11.5135367"><ele>135.0</ele><time>2026-04-26T07:34:54.646Z</time></trkpt><trkpt lat="43.5994033" lon="11.513595"><ele>135.33333333333334</ele><time>2026-04-26T07:34:55.646Z</time></trkpt><trkpt lat="43.5993467" lon="11.5136483"><ele>135.66666666666666</ele><time>2026-04-26T07:34:56.648Z</time></trkpt><trkpt lat="43.5992917" lon="11.513695"><ele>136.0</ele><time>2026-04-26T07:34:57.646Z</time></trkpt><trkpt lat="43.5992367" lon="11.5137433"><ele>136.33333333333331</ele><time>2026-04-26T07:34:58.645Z</time></trkpt><trkpt lat="43.5991817" lon="11.5138"><ele>136.66666666666666</ele><time>2026-04-26T07:34:59.645Z</time></trkpt><trkpt lat="43.5990817" lon="11.5139133"><ele>137.0</ele><time>2026-04-26T07:35:01.646Z</time></trkpt><trkpt lat="43.599015" lon="11.5139717"><ele>137.00000000000003</ele><time>2026-04-26T07:35:02.648Z</time></trkpt><trkpt lat="43.5989517" lon="11.5140233"><ele>137.0</ele><time>2026-04-26T07:35:03.646Z</time></trkpt><trkpt lat="43.5988867" lon="11.5140733"><ele>137.0</ele><time>2026-04-26T07:35:04.645Z</time></trkpt><trkpt lat="43.5988117" lon="11.51411"><ele>137.0</ele><time>2026-04-26T07:35:05.645Z</time></trkpt><trkpt lat="43.5987417" lon="11.5141483"><ele>137.0</ele><time>2026-04-26T07:35:06.647Z</time></trkpt><trkpt lat="43.5986733" lon="11.5141833"><ele>137.00000000000003</ele><time>2026-04-26T07:35:07.646Z</time></trkpt><trkpt lat="43.598605" lon="11.51422"><ele>137.0</ele><time>2026-04-26T07:35:08.645Z</time></trkpt><trkpt lat="43.5985367" lon="11.51426"><ele>136.85714285714286</ele><time>2026-04-26T07:35:09.645Z</time></trkpt><trkpt lat="43.598475" lon="11.5143083"><ele>136.71428571428572</ele><time>2026-04-26T07:35:10.645Z</time></trkpt><trkpt lat="43.5984133" lon="11.514365"><ele>136.57142857142856</ele><time>2026-04-26T07:35:11.647Z</time></trkpt><trkpt lat="43.5983617" lon="11.51443"><ele>136.42857142857144</ele><time>2026-04-26T07:35:12.647Z</time></trkpt><trkpt lat="43.5983083" lon="11.5144917"><ele>136.28571428571428</ele><time>2026-04-26T07:35:13.645Z</time></trkpt><trkpt lat="43.5982533" lon="11.51455"><ele>136.14285714285714</ele><time>2026-04-26T07:35:14.647Z</time></trkpt><trkpt lat="43.5981917" lon="11.5146033"><ele>136.0</ele><time>2026-04-26T07:35:15.646Z</time></trkpt><trkpt lat="43.5981333" lon="11.514655"><ele>135.99999999999997</ele><time>2026-04-26T07:35:16.645Z</time></trkpt><trkpt lat="43.598075" lon="11.5147133"><ele>136.0</ele><time>2026-04-26T07:35:17.646Z</time></trkpt><trkpt lat="43.59802" lon="11.51477"><ele>136.0</ele><time>2026-04-26T07:35:18.646Z</time></trkpt><trkpt lat="43.597965" lon="11.5148333"><ele>136.0</ele><time>2026-04-26T07:35:19.646Z</time></trkpt><trkpt lat="43.5979067" lon="11.5148933"><ele>136.0</ele><time>2026-04-26T07:35:20.646Z</time></trkpt><trkpt lat="43.5978483" lon="11.514955"><ele>135.99999999999997</ele><time>2026-04-26T07:35:21.647Z</time></trkpt><trkpt lat="43.5977867" lon="11.5150117"><ele>136.0</ele><time>2026-04-26T07:35:22.646Z</time></trkpt><trkpt lat="43.5977283" lon="11.515065"><ele>135.57142857142856</ele><time>2026-04-26T07:35:23.647Z</time></trkpt><trkpt lat="43.59767" lon="11.5151133"><ele>135.14285714285714</ele><time>2026-04-26T07:35:24.646Z</time></trkpt><trkpt lat="43.5976083" lon="11.5151617"><ele>134.71428571428572</ele><time>2026-04-26T07:35:25.645Z</time></trkpt><trkpt lat="43.5975433" lon="11.5152133"><ele>134.28571428571428</ele><time>2026-04-26T07:35:26.646Z</time></trkpt><trkpt lat="43.597475" lon="11.5152683"><ele>133.85714285714286</ele><time>2026-04-26T07:35:27.648Z</time></trkpt><trkpt lat="43.5974167" lon="11.5153233"><ele>133.42857142857142</ele><time>2026-04-26T07:35:28.647Z</time></trkpt><trkpt lat="43.59736" lon="11.51538"><ele>133.0</ele><time>2026-04-26T07:35:29.647Z</time></trkpt><trkpt lat="43.5973033" lon="11.5154283"><ele>134.20000000000002</ele><time>2026-04-26T07:35:30.645Z</time></trkpt><trkpt lat="43.5971983" lon="11.5155283"><ele>135.4</ele><time>2026-04-26T07:35:32.647Z</time></trkpt><trkpt lat="43.59715" lon="11.515585"><ele>136.60000000000002</ele><time>2026-04-26T07:35:33.645Z</time></trkpt><trkpt lat="43.5970533" lon="11.5156683"><ele>137.8</ele><time>2026-04-26T07:35:35.646Z</time></trkpt><trkpt lat="43.5969483" lon="11.5157533"><ele>139.0</ele><time>2026-04-26T07:35:37.645Z</time></trkpt><trkpt lat="43.59684" lon="11.5158283"><ele>139.0</ele><time>2026-04-26T07:35:39.645Z</time></trkpt><trkpt lat="43.596715" lon="11.5159117"><ele>139.0</ele><time>2026-04-26T07:35:41.645Z</time></trkpt><trkpt lat="43.5966517" lon="11.5159633"><ele>139.0</ele><time>2026-04-26T07:35:42.647Z</time></trkpt><trkpt lat="43.59659" lon="11.5160117"><ele>139.0</ele><time>2026-04-26T07:35:43.647Z</time></trkpt><trkpt lat="43.5965283" lon="11.5160633"><ele>139.0</ele><time>2026-04-26T07:35:44.646Z</time></trkpt><trkpt lat="43.5964717" lon="11.51611"><ele>139.0</ele><time>2026-04-26T07:35:45.646Z</time></trkpt><trkpt lat="43.59636" lon="11.516185"><ele>139.0</ele><time>2026-04-26T07:35:47.646Z</time></trkpt><trkpt lat="43.5963" lon="11.5162183"><ele>139.0</ele><time>2026-04-26T07:35:48.647Z</time></trkpt><trkpt lat="43.5962383" lon="11.5162583"><ele>139.0</ele><time>2026-04-26T07:35:49.647Z</time></trkpt><trkpt lat="43.596175" lon="11.5162983"><ele>139.0</ele><time>2026-04-26T07:35:50.646Z</time></trkpt><trkpt lat="43.5961083" lon="11.51633"><ele>139.0</ele><time>2026-04-26T07:35:51.645Z</time></trkpt><trkpt lat="43.596045" lon="11.51636"><ele>139.0</ele><time>2026-04-26T07:35:52.646Z</time></trkpt><trkpt lat="43.595985" lon="11.5163967"><ele>139.0</ele><time>2026-04-26T07:35:53.646Z</time></trkpt><trkpt lat="43.5959217" lon="11.5164383"><ele>139.0</ele><time>2026-04-26T07:35:54.646Z</time></trkpt><trkpt lat="43.5958633" lon="11.5164783"><ele>139.0</ele><time>2026-04-26T07:35:55.646Z</time></trkpt><trkpt lat="43.5957983" lon="11.5165033"><ele>139.0</ele><time>2026-04-26T07:35:56.647Z</time></trkpt><trkpt lat="43.5957333" lon="11.5165267"><ele>139.0</ele><time>2026-04-26T07:35:57.647Z</time></trkpt><trkpt lat="43.59567" lon="11.516545"><ele>139.0</ele><time>2026-04-26T07:35:58.645Z</time></trkpt><trkpt lat="43.5955467" lon="11.51657"><ele>139.0</ele><time>2026-04-26T07:36:00.646Z</time></trkpt><trkpt lat="43.5954267" lon="11.5165883"><ele>138.66666666666669</ele><time>2026-04-26T07:36:02.646Z</time></trkpt><trkpt lat="43.59531" lon="11.516605"><ele>138.33333333333334</ele><time>2026-04-26T07:36:04.646Z</time></trkpt><trkpt lat="43.595195" lon="11.5166133"><ele>138.0</ele><time>2026-04-26T07:36:06.646Z</time></trkpt><trkpt lat="43.59513" lon="11.51662"><ele>137.66666666666666</ele><time>2026-04-26T07:36:07.647Z</time></trkpt><trkpt lat="43.595065" lon="11.5166217"><ele>137.33333333333331</ele><time>2026-04-26T07:36:08.647Z</time></trkpt><trkpt lat="43.5949983" lon="11.51663"><ele>137.0</ele><time>2026-04-26T07:36:09.645Z</time></trkpt><trkpt lat="43.5949183" lon="11.5166483"><ele>137.0</ele><time>2026-04-26T07:36:10.648Z</time></trkpt><trkpt lat="43.5948283" lon="11.516665"><ele>137.0</ele><time>2026-04-26T07:36:11.646Z</time></trkpt><trkpt lat="43.5947317" lon="11.5166767"><ele>137.0</ele><time>2026-04-26T07:36:12.646Z</time></trkpt><trkpt lat="43.5946333" lon="11.5166933"><ele>137.0</ele><time>2026-04-26T07:36:13.646Z</time></trkpt><trkpt lat="43.5945417" lon="11.5167"><ele>137.0</ele><time>2026-04-26T07:36:14.648Z</time></trkpt><trkpt lat="43.59444" lon="11.5167083"><ele>136.4</ele><time>2026-04-26T07:36:15.647Z</time></trkpt><trkpt lat="43.59434" lon="11.5167083"><ele>135.79999999999998</ele><time>2026-04-26T07:36:16.644Z</time></trkpt><trkpt lat="43.5942433" lon="11.5166867"><ele>135.2</ele><time>2026-04-26T07:36:17.645Z</time></trkpt><trkpt lat="43.59414" lon="11.516665"><ele>134.6</ele><time>2026-04-26T07:36:18.646Z</time></trkpt><trkpt lat="43.5940467" lon="11.5166367"><ele>134.0</ele><time>2026-04-26T07:36:19.647Z</time></trkpt><trkpt lat="43.5939533" lon="11.5166"><ele>134.0</ele><time>2026-04-26T07:36:20.645Z</time></trkpt><trkpt lat="43.5938617" lon="11.5165533"><ele>134.0</ele><time>2026-04-26T07:36:21.645Z</time></trkpt><trkpt lat="43.5937683" lon="11.5165083"><ele>134.0</ele><time>2026-04-26T07:36:22.646Z</time></trkpt><trkpt lat="43.593685" lon="11.51645"><ele>134.0</ele><time>2026-04-26T07:36:23.645Z</time></trkpt><trkpt lat="43.5936017" lon="11.51639"><ele>134.0</ele><time>2026-04-26T07:36:24.646Z</time></trkpt><trkpt lat="43.5935233" lon="11.5163367"><ele>133.66666666666666</ele><time>2026-04-26T07:36:25.646Z</time></trkpt><trkpt lat="43.5934433" lon="11.5162917"><ele>133.33333333333331</ele><time>2026-04-26T07:36:26.646Z</time></trkpt><trkpt lat="43.5933583" lon="11.5162533"><ele>133.0</ele><time>2026-04-26T07:36:27.647Z</time></trkpt><trkpt lat="43.5932717" lon="11.5162417"><ele>132.66666666666666</ele><time>2026-04-26T07:36:28.647Z</time></trkpt><trkpt lat="43.5931833" lon="11.5162583"><ele>132.33333333333334</ele><time>2026-04-26T07:36:29.645Z</time></trkpt><trkpt lat="43.5931083" lon="11.5163067"><ele>132.0</ele><time>2026-04-26T07:36:30.646Z</time></trkpt><trkpt lat="43.5930367" lon="11.5163683"><ele>132.0</ele><time>2026-04-26T07:36:31.647Z</time></trkpt><trkpt lat="43.59297" lon="11.5164383"><ele>132.0</ele><time>2026-04-26T07:36:32.646Z</time></trkpt><trkpt lat="43.5929033" lon="11.5164967"><ele>132.0</ele><time>2026-04-26T07:36:33.646Z</time></trkpt><trkpt lat="43.5928367" lon="11.516545"><ele>132.0</ele><time>2026-04-26T07:36:34.647Z</time></trkpt><trkpt lat="43.5927667" lon="11.5165783"><ele>132.0</ele><time>2026-04-26T07:36:35.647Z</time></trkpt><trkpt lat="43.5926967" lon="11.5165983"><ele>132.0</ele><time>2026-04-26T07:36:36.647Z</time></trkpt><trkpt lat="43.592625" lon="11.516595"><ele>132.14285714285714</ele><time>2026-04-26T07:36:37.645Z</time></trkpt><trkpt lat="43.5925583" lon="11.516575"><ele>132.28571428571428</ele><time>2026-04-26T07:36:38.648Z</time></trkpt><trkpt lat="43.5924967" lon="11.51653"><ele>132.42857142857144</ele><time>2026-04-26T07:36:39.647Z</time></trkpt><trkpt lat="43.59245" lon="11.5164567"><ele>132.57142857142856</ele><time>2026-04-26T07:36:40.645Z</time></trkpt><trkpt lat="43.5924183" lon="11.5163717"><ele>132.71428571428572</ele><time>2026-04-26T07:36:41.645Z</time></trkpt><trkpt lat="43.59239" lon="11.5162833"><ele>132.85714285714286</ele><time>2026-04-26T07:36:42.647Z</time></trkpt><trkpt lat="43.59236" lon="11.5161917"><ele>133.0</ele><time>2026-04-26T07:36:43.645Z</time></trkpt><trkpt lat="43.5923117" lon="11.5161117"><ele>133.28571428571428</ele><time>2026-04-26T07:36:44.646Z</time></trkpt><trkpt lat="43.5922517" lon="11.5160633"><ele>133.57142857142856</ele><time>2026-04-26T07:36:45.647Z</time></trkpt><trkpt lat="43.5921733" lon="11.5160583"><ele>133.85714285714286</ele><time>2026-04-26T07:36:46.646Z</time></trkpt><trkpt lat="43.5920983" lon="11.5160767"><ele>134.14285714285714</ele><time>2026-04-26T07:36:47.645Z</time></trkpt><trkpt lat="43.5920283" lon="11.5161067"><ele>134.42857142857142</ele><time>2026-04-26T07:36:48.646Z</time></trkpt><trkpt lat="43.5919567" lon="11.5161317"><ele>134.71428571428572</ele><time>2026-04-26T07:36:49.647Z</time></trkpt><trkpt lat="43.591885" lon="11.51613"><ele>135.0</ele><time>2026-04-26T07:36:50.646Z</time></trkpt><trkpt lat="43.5918067" lon="11.5160967"><ele>135.0</ele><time>2026-04-26T07:36:51.645Z</time></trkpt><trkpt lat="43.5917433" lon="11.5160333"><ele>135.0</ele><time>2026-04-26T07:36:52.645Z</time></trkpt><trkpt lat="43.5916833" lon="11.5159667"><ele>135.0</ele><time>2026-04-26T07:36:53.646Z</time></trkpt><trkpt lat="43.5916267" lon="11.5158967"><ele>135.0</ele><time>2026-04-26T07:36:54.648Z</time></trkpt><trkpt lat="43.59157" lon="11.5158267"><ele>135.0</ele><time>2026-04-26T07:36:55.644Z</time></trkpt><trkpt lat="43.5915133" lon="11.5157567"><ele>135.0</ele><time>2026-04-26T07:36:56.647Z</time></trkpt><trkpt lat="43.5914583" lon="11.5156917"><ele>135.0</ele><time>2026-04-26T07:36:57.646Z</time></trkpt><trkpt lat="43.5914017" lon="11.515625"><ele>135.0</ele><time>2026-04-26T07:36:58.647Z</time></trkpt><trkpt lat="43.591345" lon="11.51556"><ele>135.0</ele><time>2026-04-26T07:36:59.645Z</time></trkpt><trkpt lat="43.59129" lon="11.5155"><ele>135.0</ele><time>2026-04-26T07:37:00.646Z</time></trkpt><trkpt lat="43.5912333" lon="11.5154417"><ele>135.0</ele><time>2026-04-26T07:37:01.646Z</time></trkpt><trkpt lat="43.5911717" lon="11.5153867"><ele>135.0</ele><time>2026-04-26T07:37:02.647Z</time></trkpt><trkpt lat="43.5911117" lon="11.515335"><ele>135.0</ele><time>2026-04-26T07:37:03.647Z</time></trkpt><trkpt lat="43.5910517" lon="11.5152833"><ele>134.42857142857142</ele><time>2026-04-26T07:37:04.646Z</time></trkpt><trkpt lat="43.5909867" lon="11.5152367"><ele>133.85714285714283</ele><time>2026-04-26T07:37:05.645Z</time></trkpt><trkpt lat="43.5909217" lon="11.515195"><ele>133.28571428571428</ele><time>2026-04-26T07:37:06.647Z</time></trkpt><trkpt lat="43.5908567" lon="11.5151567"><ele>132.71428571428572</ele><time>2026-04-26T07:37:07.647Z</time></trkpt><trkpt lat="43.59079" lon="11.5151233"><ele>132.14285714285717</ele><time>2026-04-26T07:37:08.646Z</time></trkpt><trkpt lat="43.59072" lon="11.5150967"><ele>131.57142857142858</ele><time>2026-04-26T07:37:09.646Z</time></trkpt><trkpt lat="43.59065" lon="11.5150717"><ele>131.0</ele><time>2026-04-26T07:37:10.645Z</time></trkpt><trkpt lat="43.5905817" lon="11.5150567"><ele>131.0</ele><time>2026-04-26T07:37:11.645Z</time></trkpt><trkpt lat="43.5905133" lon="11.5150417"><ele>131.0</ele><time>2026-04-26T07:37:12.644Z</time></trkpt><trkpt lat="43.5904417" lon="11.5150317"><ele>131.0</ele><time>2026-04-26T07:37:13.648Z</time></trkpt><trkpt lat="43.5903717" lon="11.515025"><ele>131.0</ele><time>2026-04-26T07:37:14.646Z</time></trkpt><trkpt lat="43.5902967" lon="11.5150233"><ele>131.0</ele><time>2026-04-26T07:37:15.648Z</time></trkpt><trkpt lat="43.5902233" lon="11.515025"><ele>131.0</ele><time>2026-04-26T07:37:16.646Z</time></trkpt><trkpt lat="43.59015" lon="11.5150333"><ele>131.0</ele><time>2026-04-26T07:37:17.648Z</time></trkpt><trkpt lat="43.5900783" lon="11.5150417"><ele>131.14285714285714</ele><time>2026-04-26T07:37:18.647Z</time></trkpt><trkpt lat="43.5900083" lon="11.5150567"><ele>131.2857142857143</ele><time>2026-04-26T07:37:19.646Z</time></trkpt><trkpt lat="43.5899383" lon="11.515075"><ele>131.42857142857144</ele><time>2026-04-26T07:37:20.646Z</time></trkpt><trkpt lat="43.58987" lon="11.5151033"><ele>131.57142857142858</ele><time>2026-04-26T07:37:21.645Z</time></trkpt><trkpt lat="43.5898033" lon="11.5151367"><ele>131.71428571428572</ele><time>2026-04-26T07:37:22.646Z</time></trkpt><trkpt lat="43.58974" lon="11.51518"><ele>131.85714285714286</ele><time>2026-04-26T07:37:23.648Z</time></trkpt><trkpt lat="43.589675" lon="11.51522"><ele>132.0</ele><time>2026-04-26T07:37:24.648Z</time></trkpt><trkpt lat="43.5896117" lon="11.5152617"><ele>132.0</ele><time>2026-04-26T07:37:25.647Z</time></trkpt><trkpt lat="43.5895467" lon="11.515305"><ele>132.0</ele><time>2026-04-26T07:37:26.647Z</time></trkpt><trkpt lat="43.5894833" lon="11.5153533"><ele>132.0</ele><time>2026-04-26T07:37:27.645Z</time></trkpt><trkpt lat="43.58942" lon="11.5154083"><ele>132.0</ele><time>2026-04-26T07:37:28.646Z</time></trkpt><trkpt lat="43.58936" lon="11.51547"><ele>132.0</ele><time>2026-04-26T07:37:29.646Z</time></trkpt><trkpt lat="43.5893017" lon="11.5155317"><ele>132.0</ele><time>2026-04-26T07:37:30.647Z</time></trkpt><trkpt lat="43.5892417" lon="11.5155917"><ele>132.0</ele><time>2026-04-26T07:37:31.646Z</time></trkpt><trkpt lat="43.5891883" lon="11.5156583"><ele>132.33333333333334</ele><time>2026-04-26T07:37:32.647Z</time></trkpt><trkpt lat="43.5891317" lon="11.5157217"><ele>132.66666666666666</ele><time>2026-04-26T07:37:33.646Z</time></trkpt><trkpt lat="43.5890767" lon="11.515795"><ele>133.0</ele><time>2026-04-26T07:37:34.646Z</time></trkpt><trkpt lat="43.5890183" lon="11.5158667"><ele>133.33333333333331</ele><time>2026-04-26T07:37:35.646Z</time></trkpt><trkpt lat="43.588965" lon="11.5159383"><ele>133.66666666666666</ele><time>2026-04-26T07:37:36.648Z</time></trkpt><trkpt lat="43.5889133" lon="11.5160117"><ele>134.0</ele><time>2026-04-26T07:37:37.647Z</time></trkpt><trkpt lat="43.5888567" lon="11.5160867"><ele>134.0</ele><time>2026-04-26T07:37:38.647Z</time></trkpt><trkpt lat="43.5888033" lon="11.5161667"><ele>134.0</ele><time>2026-04-26T07:37:39.645Z</time></trkpt><trkpt lat="43.58875" lon="11.5162417"><ele>134.0</ele><time>2026-04-26T07:37:40.645Z</time></trkpt><trkpt lat="43.5886933" lon="11.5163183"><ele>134.0</ele><time>2026-04-26T07:37:41.647Z</time></trkpt><trkpt lat="43.5886383" lon="11.5163917"><ele>134.0</ele><time>2026-04-26T07:37:42.645Z</time></trkpt><trkpt lat="43.588585" lon="11.5164667"><ele>134.0</ele><time>2026-04-26T07:37:43.645Z</time></trkpt><trkpt lat="43.5885283" lon="11.5165483"><ele>133.66666666666666</ele><time>2026-04-26T07:37:44.646Z</time></trkpt><trkpt lat="43.5884733" lon="11.5166283"><ele>133.33333333333331</ele><time>2026-04-26T07:37:45.645Z</time></trkpt><trkpt lat="43.5884183" lon="11.5167083"><ele>133.0</ele><time>2026-04-26T07:37:46.647Z</time></trkpt><trkpt lat="43.58836" lon="11.51679"><ele>132.66666666666666</ele><time>2026-04-26T07:37:47.646Z</time></trkpt><trkpt lat="43.5883067" lon="11.5168733"><ele>132.33333333333334</ele><time>2026-04-26T07:37:48.646Z</time></trkpt><trkpt lat="43.58825" lon="11.5169567"><ele>132.0</ele><time>2026-04-26T07:37:49.645Z</time></trkpt><trkpt lat="43.588195" lon="11.51704"><ele>132.16666666666666</ele><time>2026-04-26T07:37:50.647Z</time></trkpt><trkpt lat="43.588135" lon="11.51712"><ele>132.33333333333334</ele><time>2026-04-26T07:37:51.647Z</time></trkpt><trkpt lat="43.5880767" lon="11.5172033"><ele>132.5</ele><time>2026-04-26T07:37:52.647Z</time></trkpt><trkpt lat="43.58802" lon="11.517285"><ele>132.66666666666669</ele><time>2026-04-26T07:37:53.647Z</time></trkpt><trkpt lat="43.5879617" lon="11.517365"><ele>132.83333333333334</ele><time>2026-04-26T07:37:54.646Z</time></trkpt><trkpt lat="43.5879033" lon="11.517445"><ele>133.0</ele><time>2026-04-26T07:37:55.646Z</time></trkpt><trkpt lat="43.5878467" lon="11.5175233"><ele>132.66666666666669</ele><time>2026-04-26T07:37:56.648Z</time></trkpt><trkpt lat="43.587795" lon="11.5176033"><ele>132.33333333333334</ele><time>2026-04-26T07:37:57.644Z</time></trkpt><trkpt lat="43.5877433" lon="11.517685"><ele>132.0</ele><time>2026-04-26T07:37:58.647Z</time></trkpt><trkpt lat="43.5876883" lon="11.5177667"><ele>131.66666666666666</ele><time>2026-04-26T07:37:59.648Z</time></trkpt><trkpt lat="43.5876333" lon="11.5178417"><ele>131.33333333333331</ele><time>2026-04-26T07:38:00.647Z</time></trkpt><trkpt lat="43.5875783" lon="11.5179183"><ele>131.0</ele><time>2026-04-26T07:38:01.646Z</time></trkpt><trkpt lat="43.587525" lon="11.5179917"><ele>131.0</ele><time>2026-04-26T07:38:02.647Z</time></trkpt><trkpt lat="43.5874717" lon="11.5180683"><ele>131.0</ele><time>2026-04-26T07:38:03.647Z</time></trkpt><trkpt lat="43.5874167" lon="11.51815"><ele>131.0</ele><time>2026-04-26T07:38:04.645Z</time></trkpt><trkpt lat="43.5873633" lon="11.5182317"><ele>131.0</ele><time>2026-04-26T07:38:05.646Z</time></trkpt><trkpt lat="43.5873133" lon="11.5183117"><ele>131.0</ele><time>2026-04-26T07:38:06.646Z</time></trkpt><trkpt lat="43.5872583" lon="11.5183917"><ele>131.0</ele><time>2026-04-26T07:38:07.649Z</time></trkpt><trkpt lat="43.5872033" lon="11.5184717"><ele>131.0</ele><time>2026-04-26T07:38:08.646Z</time></trkpt><trkpt lat="43.5871467" lon="11.518545"><ele>131.0</ele><time>2026-04-26T07:38:09.647Z</time></trkpt><trkpt lat="43.5870917" lon="11.5186267"><ele>131.0</ele><time>2026-04-26T07:38:10.646Z</time></trkpt><trkpt lat="43.5870317" lon="11.5187033"><ele>131.0</ele><time>2026-04-26T07:38:11.646Z</time></trkpt><trkpt lat="43.5869767" lon="11.5187833"><ele>131.0</ele><time>2026-04-26T07:38:12.646Z</time></trkpt><trkpt lat="43.5869183" lon="11.5188567"><ele>131.0</ele><time>2026-04-26T07:38:13.645Z</time></trkpt><trkpt lat="43.5868633" lon="11.5189383"><ele>130.83333333333331</ele><time>2026-04-26T07:38:14.645Z</time></trkpt><trkpt lat="43.5868083" lon="11.51902"><ele>130.66666666666666</ele><time>2026-04-26T07:38:15.646Z</time></trkpt><trkpt lat="43.5867533" lon="11.519095"><ele>130.5</ele><time>2026-04-26T07:38:16.644Z</time></trkpt><trkpt lat="43.5867017" lon="11.5191733"><ele>130.33333333333334</ele><time>2026-04-26T07:38:17.645Z</time></trkpt><trkpt lat="43.58665" lon="11.51925"><ele>130.16666666666669</ele><time>2026-04-26T07:38:18.646Z</time></trkpt><trkpt lat="43.5866" lon="11.5193283"><ele>130.0</ele><time>2026-04-26T07:38:19.646Z</time></trkpt><trkpt lat="43.586545" lon="11.5194033"><ele>130.0</ele><time>2026-04-26T07:38:20.645Z</time></trkpt><trkpt lat="43.5864883" lon="11.519485"><ele>130.0</ele><time>2026-04-26T07:38:21.645Z</time></trkpt><trkpt lat="43.5864317" lon="11.51956"><ele>130.0</ele><time>2026-04-26T07:38:22.645Z</time></trkpt><trkpt lat="43.5863717" lon="11.519635"><ele>130.0</ele><time>2026-04-26T07:38:23.645Z</time></trkpt><trkpt lat="43.58631" lon="11.51971"><ele>130.0</ele><time>2026-04-26T07:38:24.646Z</time></trkpt><trkpt lat="43.5862533" lon="11.5197883"><ele>130.0</ele><time>2026-04-26T07:38:25.646Z</time></trkpt><trkpt lat="43.5862" lon="11.5198667"><ele>130.33333333333334</ele><time>2026-04-26T07:38:26.646Z</time></trkpt><trkpt lat="43.58614" lon="11.51994"><ele>130.66666666666669</ele><time>2026-04-26T07:38:27.644Z</time></trkpt><trkpt lat="43.5860833" lon="11.5200117"><ele>131.0</ele><time>2026-04-26T07:38:28.644Z</time></trkpt><trkpt lat="43.5860283" lon="11.52009"><ele>131.33333333333334</ele><time>2026-04-26T07:38:29.647Z</time></trkpt><trkpt lat="43.5859717" lon="11.5201683"><ele>131.66666666666666</ele><time>2026-04-26T07:38:30.646Z</time></trkpt><trkpt lat="43.5859133" lon="11.5202433"><ele>132.0</ele><time>2026-04-26T07:38:31.645Z</time></trkpt><trkpt lat="43.5858583" lon="11.5203217"><ele>132.33333333333334</ele><time>2026-04-26T07:38:32.648Z</time></trkpt><trkpt lat="43.5858083" lon="11.5204"><ele>132.66666666666666</ele><time>2026-04-26T07:38:33.645Z</time></trkpt><trkpt lat="43.5857533" lon="11.520475"><ele>133.0</ele><time>2026-04-26T07:38:34.645Z</time></trkpt><trkpt lat="43.5857033" lon="11.52055"><ele>133.33333333333331</ele><time>2026-04-26T07:38:35.646Z</time></trkpt><trkpt lat="43.5856483" lon="11.5206217"><ele>133.66666666666666</ele><time>2026-04-26T07:38:36.645Z</time></trkpt><trkpt lat="43.5855967" lon="11.5206967"><ele>134.0</ele><time>2026-04-26T07:38:37.645Z</time></trkpt><trkpt lat="43.5855417" lon="11.52077"><ele>134.0</ele><time>2026-04-26T07:38:38.646Z</time></trkpt><trkpt lat="43.5854883" lon="11.520845"><ele>134.0</ele><time>2026-04-26T07:38:39.644Z</time></trkpt><trkpt lat="43.5854333" lon="11.520925"><ele>134.0</ele><time>2026-04-26T07:38:40.645Z</time></trkpt><trkpt lat="43.5853783" lon="11.5210033"><ele>134.0</ele><time>2026-04-26T07:38:41.644Z</time></trkpt><trkpt lat="43.5853217" lon="11.52108"><ele>134.0</ele><time>2026-04-26T07:38:42.645Z</time></trkpt><trkpt lat="43.5852683" lon="11.5211617"><ele>134.0</ele><time>2026-04-26T07:38:43.647Z</time></trkpt><trkpt lat="43.5852133" lon="11.5212433"><ele>133.66666666666666</ele><time>2026-04-26T07:38:44.644Z</time></trkpt><trkpt lat="43.5851583" lon="11.5213233"><ele>133.33333333333331</ele><time>2026-04-26T07:38:45.644Z</time></trkpt><trkpt lat="43.5851033" lon="11.5214033"><ele>133.0</ele><time>2026-04-26T07:38:46.645Z</time></trkpt><trkpt lat="43.58505" lon="11.521485"><ele>132.66666666666666</ele><time>2026-04-26T07:38:47.646Z</time></trkpt><trkpt lat="43.584995" lon="11.5215617"><ele>132.33333333333334</ele><time>2026-04-26T07:38:48.645Z</time></trkpt><trkpt lat="43.5849417" lon="11.521645"><ele>132.0</ele><time>2026-04-26T07:38:49.645Z</time></trkpt><trkpt lat="43.5848817" lon="11.5217217"><ele>132.0</ele><time>2026-04-26T07:38:50.647Z</time></trkpt><trkpt lat="43.5848283" lon="11.5218"><ele>132.0</ele><time>2026-04-26T07:38:51.644Z</time></trkpt><trkpt lat="43.5847733" lon="11.5218767"><ele>132.0</ele><time>2026-04-26T07:38:52.646Z</time></trkpt><trkpt lat="43.5847217" lon="11.5219567"><ele>132.0</ele><time>2026-04-26T07:38:53.646Z</time></trkpt><trkpt lat="43.584665" lon="11.5220333"><ele>132.0</ele><time>2026-04-26T07:38:54.647Z</time></trkpt><trkpt lat="43.58461" lon="11.52211"><ele>132.0</ele><time>2026-04-26T07:38:55.645Z</time></trkpt><trkpt lat="43.5845517" lon="11.5221883"><ele>131.83333333333334</ele><time>2026-04-26T07:38:56.645Z</time></trkpt><trkpt lat="43.5844933" lon="11.522265"><ele>131.66666666666666</ele><time>2026-04-26T07:38:57.647Z</time></trkpt><trkpt lat="43.5844367" lon="11.52234"><ele>131.5</ele><time>2026-04-26T07:38:58.645Z</time></trkpt><trkpt lat="43.5843783" lon="11.5224167"><ele>131.33333333333331</ele><time>2026-04-26T07:38:59.646Z</time></trkpt><trkpt lat="43.58432" lon="11.522495"><ele>131.16666666666666</ele><time>2026-04-26T07:39:00.645Z</time></trkpt><trkpt lat="43.58426" lon="11.522565"><ele>131.0</ele><time>2026-04-26T07:39:01.644Z</time></trkpt><trkpt lat="43.5842017" lon="11.522645"><ele>131.0</ele><time>2026-04-26T07:39:02.645Z</time></trkpt><trkpt lat="43.5841467" lon="11.5227267"><ele>131.0</ele><time>2026-04-26T07:39:03.644Z</time></trkpt><trkpt lat="43.5840883" lon="11.5228133"><ele>131.0</ele><time>2026-04-26T07:39:04.643Z</time></trkpt><trkpt lat="43.584035" lon="11.5228917"><ele>131.0</ele><time>2026-04-26T07:39:05.644Z</time></trkpt><trkpt lat="43.58398" lon="11.5229667"><ele>131.0</ele><time>2026-04-26T07:39:06.644Z</time></trkpt><trkpt lat="43.5839267" lon="11.5230417"><ele>131.0</ele><time>2026-04-26T07:39:07.645Z</time></trkpt><trkpt lat="43.583875" lon="11.52312"><ele>131.33333333333331</ele><time>2026-04-26T07:39:08.645Z</time></trkpt><trkpt lat="43.5838233" lon="11.5231983"><ele>131.66666666666666</ele><time>2026-04-26T07:39:09.645Z</time></trkpt><trkpt lat="43.5837717" lon="11.5232783"><ele>132.0</ele><time>2026-04-26T07:39:10.647Z</time></trkpt><trkpt lat="43.58372" lon="11.5233567"><ele>132.33333333333334</ele><time>2026-04-26T07:39:11.645Z</time></trkpt><trkpt lat="43.5836667" lon="11.52343"><ele>132.66666666666669</ele><time>2026-04-26T07:39:12.646Z</time></trkpt><trkpt lat="43.58361" lon="11.5235067"><ele>133.0</ele><time>2026-04-26T07:39:13.644Z</time></trkpt><trkpt lat="43.583555" lon="11.5235833"><ele>133.0</ele><time>2026-04-26T07:39:14.645Z</time></trkpt><trkpt lat="43.5834983" lon="11.5236583"><ele>133.0</ele><time>2026-04-26T07:39:15.644Z</time></trkpt><trkpt lat="43.5834483" lon="11.5237367"><ele>133.0</ele><time>2026-04-26T07:39:16.645Z</time></trkpt><trkpt lat="43.5833983" lon="11.52381"><ele>133.0</ele><time>2026-04-26T07:39:17.647Z</time></trkpt><trkpt lat="43.5833467" lon="11.5238817"><ele>133.0</ele><time>2026-04-26T07:39:18.645Z</time></trkpt><trkpt lat="43.5832933" lon="11.523955"><ele>133.0</ele><time>2026-04-26T07:39:19.647Z</time></trkpt><trkpt lat="43.5832417" lon="11.524025"><ele>133.0</ele><time>2026-04-26T07:39:20.644Z</time></trkpt><trkpt lat="43.5831917" lon="11.5240983"><ele>133.0</ele><time>2026-04-26T07:39:21.646Z</time></trkpt><trkpt lat="43.5831433" lon="11.524165"><ele>133.0</ele><time>2026-04-26T07:39:22.646Z</time></trkpt><trkpt lat="43.583095" lon="11.524235"><ele>133.0</ele><time>2026-04-26T07:39:23.646Z</time></trkpt><trkpt lat="43.5830467" lon="11.5243033"><ele>133.0</ele><time>2026-04-26T07:39:24.646Z</time></trkpt><trkpt lat="43.583" lon="11.5243733"><ele>133.0</ele><time>2026-04-26T07:39:25.644Z</time></trkpt><trkpt lat="43.5829517" lon="11.5244417"><ele>133.0</ele><time>2026-04-26T07:39:26.645Z</time></trkpt><trkpt lat="43.5829067" lon="11.5245117"><ele>133.0</ele><time>2026-04-26T07:39:27.644Z</time></trkpt><trkpt lat="43.5828567" lon="11.5245783"><ele>132.85714285714286</ele><time>2026-04-26T07:39:28.644Z</time></trkpt><trkpt lat="43.58281" lon="11.524645"><ele>132.71428571428572</ele><time>2026-04-26T07:39:29.644Z</time></trkpt><trkpt lat="43.5827617" lon="11.524715"><ele>132.57142857142856</ele><time>2026-04-26T07:39:30.645Z</time></trkpt><trkpt lat="43.5827167" lon="11.52479"><ele>132.42857142857144</ele><time>2026-04-26T07:39:31.645Z</time></trkpt><trkpt lat="43.58267" lon="11.5248617"><ele>132.28571428571428</ele><time>2026-04-26T07:39:32.645Z</time></trkpt><trkpt lat="43.582625" lon="11.52494"><ele>132.14285714285714</ele><time>2026-04-26T07:39:33.646Z</time></trkpt><trkpt lat="43.58258" lon="11.5250183"><ele>132.0</ele><time>2026-04-26T07:39:34.645Z</time></trkpt><trkpt lat="43.5825333" lon="11.5250983"><ele>132.0</ele><time>2026-04-26T07:39:35.645Z</time></trkpt><trkpt lat="43.5824867" lon="11.525175"><ele>132.0</ele><time>2026-04-26T07:39:36.646Z</time></trkpt><trkpt lat="43.582445" lon="11.5252617"><ele>132.0</ele><time>2026-04-26T07:39:37.645Z</time></trkpt><trkpt lat="43.5823983" lon="11.5253383"><ele>132.0</ele><time>2026-04-26T07:39:38.646Z</time></trkpt><trkpt lat="43.582355" lon="11.5254217"><ele>132.0</ele><time>2026-04-26T07:39:39.644Z</time></trkpt><trkpt lat="43.5823083" lon="11.5255017"><ele>132.0</ele><time>2026-04-26T07:39:40.646Z</time></trkpt><trkpt lat="43.5822617" lon="11.5255833"><ele>132.0</ele><time>2026-04-26T07:39:41.645Z</time></trkpt><trkpt lat="43.5822167" lon="11.525665"><ele>132.0</ele><time>2026-04-26T07:39:42.646Z</time></trkpt><trkpt lat="43.5821717" lon="11.5257467"><ele>132.0</ele><time>2026-04-26T07:39:43.646Z</time></trkpt><trkpt lat="43.5821267" lon="11.525835"><ele>132.0</ele><time>2026-04-26T07:39:44.646Z</time></trkpt><trkpt lat="43.5820817" lon="11.525925"><ele>132.0</ele><time>2026-04-26T07:39:45.647Z</time></trkpt><trkpt lat="43.582035" lon="11.5260133"><ele>132.0</ele><time>2026-04-26T07:39:46.645Z</time></trkpt><trkpt lat="43.58199" lon="11.5260967"><ele>132.0</ele><time>2026-04-26T07:39:47.645Z</time></trkpt><trkpt lat="43.5819467" lon="11.526185"><ele>132.16666666666666</ele><time>2026-04-26T07:39:48.644Z</time></trkpt><trkpt lat="43.5819033" lon="11.5262783"><ele>132.33333333333334</ele><time>2026-04-26T07:39:49.646Z</time></trkpt><trkpt lat="43.5818633" lon="11.52637"><ele>132.5</ele><time>2026-04-26T07:39:50.646Z</time></trkpt><trkpt lat="43.5818233" lon="11.5264633"><ele>132.66666666666669</ele><time>2026-04-26T07:39:51.645Z</time></trkpt><trkpt lat="43.5817817" lon="11.52656"><ele>132.83333333333334</ele><time>2026-04-26T07:39:52.645Z</time></trkpt><trkpt lat="43.5817433" lon="11.5266533"><ele>133.0</ele><time>2026-04-26T07:39:53.646Z</time></trkpt><trkpt lat="43.581705" lon="11.5267483"><ele>133.0</ele><time>2026-04-26T07:39:54.646Z</time></trkpt><trkpt lat="43.581665" lon="11.526845"><ele>133.0</ele><time>2026-04-26T07:39:55.645Z</time></trkpt><trkpt lat="43.5816233" lon="11.5269417"><ele>133.0</ele><time>2026-04-26T07:39:56.646Z</time></trkpt><trkpt lat="43.5815883" lon="11.5270417"><ele>133.0</ele><time>2026-04-26T07:39:57.644Z</time></trkpt><trkpt lat="43.5815467" lon="11.5271367"><ele>133.0</ele><time>2026-04-26T07:39:58.645Z</time></trkpt><trkpt lat="43.5815133" lon="11.5272367"><ele>133.0</ele><time>2026-04-26T07:39:59.645Z</time></trkpt><trkpt lat="43.5814817" lon="11.5273367"><ele>133.16666666666669</ele><time>2026-04-26T07:40:00.646Z</time></trkpt><trkpt lat="43.5814467" lon="11.5274383"><ele>133.33333333333334</ele><time>2026-04-26T07:40:01.645Z</time></trkpt><trkpt lat="43.581405" lon="11.527535"><ele>133.5</ele><time>2026-04-26T07:40:02.645Z</time></trkpt><trkpt lat="43.58137" lon="11.527635"><ele>133.66666666666666</ele><time>2026-04-26T07:40:03.644Z</time></trkpt><trkpt lat="43.5813333" lon="11.5277367"><ele>133.83333333333331</ele><time>2026-04-26T07:40:04.645Z</time></trkpt><trkpt lat="43.5812933" lon="11.5278383"><ele>134.0</ele><time>2026-04-26T07:40:05.645Z</time></trkpt><trkpt lat="43.5812617" lon="11.5279383"><ele>133.5</ele><time>2026-04-26T07:40:06.647Z</time></trkpt><trkpt lat="43.5812217" lon="11.528035"><ele>133.0</ele><time>2026-04-26T07:40:07.646Z</time></trkpt><trkpt lat="43.581185" lon="11.5281283"><ele>132.5</ele><time>2026-04-26T07:40:08.645Z</time></trkpt><trkpt lat="43.5811467" lon="11.5282267"><ele>132.0</ele><time>2026-04-26T07:40:09.644Z</time></trkpt><trkpt lat="43.5811133" lon="11.5283267"><ele>131.5</ele><time>2026-04-26T07:40:10.645Z</time></trkpt><trkpt lat="43.5810817" lon="11.5284267"><ele>131.0</ele><time>2026-04-26T07:40:11.644Z</time></trkpt><trkpt lat="43.5810467" lon="11.5285283"><ele>131.0</ele><time>2026-04-26T07:40:12.645Z</time></trkpt><trkpt lat="43.5810083" lon="11.52863"><ele>131.0</ele><time>2026-04-26T07:40:13.647Z</time></trkpt><trkpt lat="43.5809733" lon="11.5287317"><ele>131.0</ele><time>2026-04-26T07:40:14.644Z</time></trkpt><trkpt lat="43.58094" lon="11.5288317"><ele>131.0</ele><time>2026-04-26T07:40:15.646Z</time></trkpt><trkpt lat="43.5808983" lon="11.5289267"><ele>131.0</ele><time>2026-04-26T07:40:16.643Z</time></trkpt><trkpt lat="43.58086" lon="11.5290217"><ele>131.0</ele><time>2026-04-26T07:40:17.645Z</time></trkpt><trkpt lat="43.580815" lon="11.5291133"><ele>130.83333333333331</ele><time>2026-04-26T07:40:18.645Z</time></trkpt><trkpt lat="43.5807683" lon="11.5292083"><ele>130.66666666666666</ele><time>2026-04-26T07:40:19.645Z</time></trkpt><trkpt lat="43.5807167" lon="11.5292967"><ele>130.5</ele><time>2026-04-26T07:40:20.647Z</time></trkpt><trkpt lat="43.5806617" lon="11.52938"><ele>130.33333333333334</ele><time>2026-04-26T07:40:21.647Z</time></trkpt><trkpt lat="43.580605" lon="11.5294583"><ele>130.16666666666669</ele><time>2026-04-26T07:40:22.646Z</time></trkpt><trkpt lat="43.5805417" lon="11.52953"><ele>130.0</ele><time>2026-04-26T07:40:23.644Z</time></trkpt><trkpt lat="43.5804767" lon="11.5295983"><ele>130.0</ele><time>2026-04-26T07:40:24.647Z</time></trkpt><trkpt lat="43.580415" lon="11.5296617"><ele>130.0</ele><time>2026-04-26T07:40:25.646Z</time></trkpt><trkpt lat="43.58035" lon="11.5297283"><ele>130.0</ele><time>2026-04-26T07:40:26.644Z</time></trkpt><trkpt lat="43.5802817" lon="11.5297867"><ele>130.0</ele><time>2026-04-26T07:40:27.645Z</time></trkpt><trkpt lat="43.5802133" lon="11.5298417"><ele>130.0</ele><time>2026-04-26T07:40:28.644Z</time></trkpt><trkpt lat="43.5801467" lon="11.5298983"><ele>130.0</ele><time>2026-04-26T07:40:29.646Z</time></trkpt><trkpt lat="43.58008" lon="11.5299567"><ele>129.83333333333334</ele><time>2026-04-26T07:40:30.646Z</time></trkpt><trkpt lat="43.5800133" lon="11.530015"><ele>129.66666666666669</ele><time>2026-04-26T07:40:31.645Z</time></trkpt><trkpt lat="43.579945" lon="11.5300817"><ele>129.5</ele><time>2026-04-26T07:40:32.645Z</time></trkpt><trkpt lat="43.5798817" lon="11.5301533"><ele>129.33333333333334</ele><time>2026-04-26T07:40:33.646Z</time></trkpt><trkpt lat="43.5798217" lon="11.53023"><ele>129.16666666666666</ele><time>2026-04-26T07:40:34.644Z</time></trkpt><trkpt lat="43.5797667" lon="11.5303067"><ele>129.0</ele><time>2026-04-26T07:40:35.645Z</time></trkpt><trkpt lat="43.579715" lon="11.530385"><ele>129.0</ele><time>2026-04-26T07:40:36.645Z</time></trkpt><trkpt lat="43.579665" lon="11.530465"><ele>129.0</ele><time>2026-04-26T07:40:37.645Z</time></trkpt><trkpt lat="43.5796167" lon="11.5305517"><ele>129.0</ele><time>2026-04-26T07:40:38.645Z</time></trkpt><trkpt lat="43.5795683" lon="11.53064"><ele>129.0</ele><time>2026-04-26T07:40:39.646Z</time></trkpt><trkpt lat="43.57952" lon="11.5307267"><ele>129.0</ele><time>2026-04-26T07:40:40.646Z</time></trkpt><trkpt lat="43.5794733" lon="11.5308183"><ele>129.0</ele><time>2026-04-26T07:40:41.644Z</time></trkpt><trkpt lat="43.5794233" lon="11.530905"><ele>129.33333333333334</ele><time>2026-04-26T07:40:42.645Z</time></trkpt><trkpt lat="43.57938" lon="11.5309933"><ele>129.66666666666666</ele><time>2026-04-26T07:40:43.645Z</time></trkpt><trkpt lat="43.5793333" lon="11.53108"><ele>130.0</ele><time>2026-04-26T07:40:44.645Z</time></trkpt><trkpt lat="43.5792883" lon="11.53117"><ele>130.33333333333331</ele><time>2026-04-26T07:40:45.645Z</time></trkpt><trkpt lat="43.57924" lon="11.53126"><ele>130.66666666666666</ele><time>2026-04-26T07:40:46.646Z</time></trkpt><trkpt lat="43.5791917" lon="11.5313517"><ele>131.0</ele><time>2026-04-26T07:40:47.645Z</time></trkpt><trkpt lat="43.5791467" lon="11.5314417"><ele>131.0</ele><time>2026-04-26T07:40:48.644Z</time></trkpt><trkpt lat="43.5791" lon="11.5315283"><ele>131.0</ele><time>2026-04-26T07:40:49.646Z</time></trkpt><trkpt lat="43.5790517" lon="11.5316183"><ele>131.0</ele><time>2026-04-26T07:40:50.646Z</time></trkpt><trkpt lat="43.5790017" lon="11.5317033"><ele>131.0</ele><time>2026-04-26T07:40:51.645Z</time></trkpt><trkpt lat="43.5789583" lon="11.5317917"><ele>131.0</ele><time>2026-04-26T07:40:52.644Z</time></trkpt><trkpt lat="43.5789083" lon="11.5318817"><ele>131.0</ele><time>2026-04-26T07:40:53.646Z</time></trkpt><trkpt lat="43.5788617" lon="11.5319717"><ele>130.83333333333331</ele><time>2026-04-26T07:40:54.647Z</time></trkpt><trkpt lat="43.5788183" lon="11.5320617"><ele>130.66666666666666</ele><time>2026-04-26T07:40:55.644Z</time></trkpt><trkpt lat="43.5787717" lon="11.5321483"><ele>130.5</ele><time>2026-04-26T07:40:56.645Z</time></trkpt><trkpt lat="43.578725" lon="11.5322367"><ele>130.33333333333334</ele><time>2026-04-26T07:40:57.645Z</time></trkpt><trkpt lat="43.5786783" lon="11.532325"><ele>130.16666666666669</ele><time>2026-04-26T07:40:58.646Z</time></trkpt><trkpt lat="43.5786317" lon="11.532415"><ele>130.0</ele><time>2026-04-26T07:40:59.644Z</time></trkpt><trkpt lat="43.57858" lon="11.5325033"><ele>130.5</ele><time>2026-04-26T07:41:00.645Z</time></trkpt><trkpt lat="43.578525" lon="11.532595"><ele>131.0</ele><time>2026-04-26T07:41:01.645Z</time></trkpt><trkpt lat="43.5784733" lon="11.5326867"><ele>131.5</ele><time>2026-04-26T07:41:02.645Z</time></trkpt><trkpt lat="43.5784267" lon="11.532775"><ele>132.0</ele><time>2026-04-26T07:41:03.646Z</time></trkpt><trkpt lat="43.5783767" lon="11.5328683"><ele>132.5</ele><time>2026-04-26T07:41:04.645Z</time></trkpt><trkpt lat="43.57833" lon="11.5329517"><ele>133.0</ele><time>2026-04-26T07:41:05.644Z</time></trkpt><trkpt lat="43.5782867" lon="11.5330433"><ele>133.0</ele><time>2026-04-26T07:41:06.645Z</time></trkpt><trkpt lat="43.578245" lon="11.53313"><ele>133.0</ele><time>2026-04-26T07:41:07.647Z</time></trkpt><trkpt lat="43.5782017" lon="11.5332183"><ele>133.0</ele><time>2026-04-26T07:41:08.645Z</time></trkpt><trkpt lat="43.5781617" lon="11.5333033"><ele>133.0</ele><time>2026-04-26T07:41:09.645Z</time></trkpt><trkpt lat="43.5781233" lon="11.53339"><ele>133.0</ele><time>2026-04-26T07:41:10.644Z</time></trkpt><trkpt lat="43.5780833" lon="11.5334783"><ele>133.0</ele><time>2026-04-26T07:41:11.644Z</time></trkpt><trkpt lat="43.5780467" lon="11.533575"><ele>133.0</ele><time>2026-04-26T07:41:12.645Z</time></trkpt><trkpt lat="43.5780133" lon="11.5336767"><ele>133.0</ele><time>2026-04-26T07:41:13.647Z</time></trkpt><trkpt lat="43.5779767" lon="11.533775"><ele>133.0</ele><time>2026-04-26T07:41:14.645Z</time></trkpt><trkpt lat="43.5779283" lon="11.533865"><ele>133.0</ele><time>2026-04-26T07:41:15.646Z</time></trkpt><trkpt lat="43.5778717" lon="11.5339467"><ele>133.0</ele><time>2026-04-26T07:41:16.645Z</time></trkpt><trkpt lat="43.5777983" lon="11.53401"><ele>133.0</ele><time>2026-04-26T07:41:17.645Z</time></trkpt><trkpt lat="43.5777267" lon="11.5340733"><ele>133.5</ele><time>2026-04-26T07:41:18.645Z</time></trkpt><trkpt lat="43.577665" lon="11.53415"><ele>134.0</ele><time>2026-04-26T07:41:19.645Z</time></trkpt><trkpt lat="43.57762" lon="11.53424"><ele>134.5</ele><time>2026-04-26T07:41:20.646Z</time></trkpt><trkpt lat="43.5776017" lon="11.53435"><ele>135.0</ele><time>2026-04-26T07:41:21.646Z</time></trkpt><trkpt lat="43.5776183" lon="11.534455"><ele>135.5</ele><time>2026-04-26T07:41:22.645Z</time></trkpt><trkpt lat="43.5776633" lon="11.5345483"><ele>136.0</ele><time>2026-04-26T07:41:23.645Z</time></trkpt><trkpt lat="43.5777417" lon="11.5345983"><ele>136.0</ele><time>2026-04-26T07:41:24.648Z</time></trkpt><trkpt lat="43.5778217" lon="11.534625"><ele>136.0</ele><time>2026-04-26T07:41:25.644Z</time></trkpt><trkpt lat="43.5779017" lon="11.5346217"><ele>136.0</ele><time>2026-04-26T07:41:26.648Z</time></trkpt><trkpt lat="43.5779833" lon="11.5346"><ele>136.0</ele><time>2026-04-26T07:41:27.644Z</time></trkpt><trkpt lat="43.5780667" lon="11.5345683"><ele>136.0</ele><time>2026-04-26T07:41:28.647Z</time></trkpt><trkpt lat="43.5781517" lon="11.5345567"><ele>136.0</ele><time>2026-04-26T07:41:29.645Z</time></trkpt><trkpt lat="43.5782383" lon="11.5345783"><ele>136.16666666666669</ele><time>2026-04-26T07:41:30.646Z</time></trkpt><trkpt lat="43.5783183" lon="11.5346217"><ele>136.33333333333334</ele><time>2026-04-26T07:41:31.646Z</time></trkpt><trkpt lat="43.578395" lon="11.534665"><ele>136.5</ele><time>2026-04-26T07:41:32.645Z</time></trkpt><trkpt lat="43.5784617" lon="11.5347083"><ele>136.66666666666666</ele><time>2026-04-26T07:41:33.646Z</time></trkpt><trkpt lat="43.5785583" lon="11.534755"><ele>136.83333333333331</ele><time>2026-04-26T07:41:35.645Z</time></trkpt><trkpt lat="43.5785667" lon="11.534665"><ele>137.0</ele><time>2026-04-26T07:49:17.647Z</time></trkpt><trkpt lat="43.5784917" lon="11.5346217"><ele>137.0</ele><time>2026-04-26T07:49:20.645Z</time></trkpt><trkpt lat="43.5784017" lon="11.5345817"><ele>137.0</ele><time>2026-04-26T07:49:23.644Z</time></trkpt><trkpt lat="43.5783317" lon="11.53455"><ele>137.0</ele><time>2026-04-26T07:49:25.646Z</time></trkpt><trkpt lat="43.578255" lon="11.53451"><ele>137.0</ele><time>2026-04-26T07:49:27.643Z</time></trkpt><trkpt lat="43.5781767" lon="11.5344667"><ele>137.0</ele><time>2026-04-26T07:49:29.645Z</time></trkpt><trkpt lat="43.5781117" lon="11.5343867"><ele>137.0</ele><time>2026-04-26T07:49:31.645Z</time></trkpt><trkpt lat="43.5780517" lon="11.5342783"><ele>137.0</ele><time>2026-04-26T07:49:33.644Z</time></trkpt><trkpt lat="43.5779783" lon="11.534165"><ele>137.0</ele><time>2026-04-26T07:49:35.645Z</time></trkpt><trkpt lat="43.5779283" lon="11.5341117"><ele>137.0</ele><time>2026-04-26T07:49:36.645Z</time></trkpt><trkpt lat="43.5778183" lon="11.5340683"><ele>137.0</ele><time>2026-04-26T07:49:38.646Z</time></trkpt><trkpt lat="43.577755" lon="11.5340783"><ele>137.0</ele><time>2026-04-26T07:49:39.643Z</time></trkpt><trkpt lat="43.5776967" lon="11.5341117"><ele>137.0</ele><time>2026-04-26T07:49:40.645Z</time></trkpt><trkpt lat="43.5776067" lon="11.534235"><ele>136.83333333333331</ele><time>2026-04-26T07:49:42.644Z</time></trkpt><trkpt lat="43.577555" lon="11.5343933"><ele>136.66666666666666</ele><time>2026-04-26T07:49:44.645Z</time></trkpt><trkpt lat="43.5775333" lon="11.53448"><ele>136.5</ele><time>2026-04-26T07:49:45.644Z</time></trkpt><trkpt lat="43.5775067" lon="11.534565"><ele>136.33333333333334</ele><time>2026-04-26T07:49:46.644Z</time></trkpt><trkpt lat="43.5774683" lon="11.5346483"><ele>136.16666666666669</ele><time>2026-04-26T07:49:47.644Z</time></trkpt><trkpt lat="43.57742" lon="11.53472"><ele>136.0</ele><time>2026-04-26T07:49:48.645Z</time></trkpt><trkpt lat="43.5773667" lon="11.5347817"><ele>135.99999999999997</ele><time>2026-04-26T07:49:49.646Z</time></trkpt><trkpt lat="43.5773083" lon="11.5348483"><ele>136.0</ele><time>2026-04-26T07:49:50.645Z</time></trkpt><trkpt lat="43.5772517" lon="11.5349183"><ele>136.0</ele><time>2026-04-26T07:49:51.644Z</time></trkpt><trkpt lat="43.577195" lon="11.5349833"><ele>136.0</ele><time>2026-04-26T07:49:52.643Z</time></trkpt><trkpt lat="43.5771367" lon="11.5350483"><ele>136.0</ele><time>2026-04-26T07:49:53.645Z</time></trkpt><trkpt lat="43.57708" lon="11.5351133"><ele>135.99999999999997</ele><time>2026-04-26T07:49:54.643Z</time></trkpt><trkpt lat="43.5770233" lon="11.535175"><ele>136.0</ele><time>2026-04-26T07:49:55.644Z</time></trkpt><trkpt lat="43.57697" lon="11.535235"><ele>135.83333333333334</ele><time>2026-04-26T07:49:56.645Z</time></trkpt><trkpt lat="43.5769183" lon="11.535295"><ele>135.66666666666669</ele><time>2026-04-26T07:49:57.646Z</time></trkpt><trkpt lat="43.57687" lon="11.5353583"><ele>135.5</ele><time>2026-04-26T07:49:58.644Z</time></trkpt><trkpt lat="43.5768183" lon="11.5354183"><ele>135.33333333333334</ele><time>2026-04-26T07:49:59.645Z</time></trkpt><trkpt lat="43.5767683" lon="11.5354767"><ele>135.16666666666666</ele><time>2026-04-26T07:50:00.646Z</time></trkpt><trkpt lat="43.5766733" lon="11.5355833"><ele>135.0</ele><time>2026-04-26T07:50:02.644Z</time></trkpt><trkpt lat="43.5765817" lon="11.53569"><ele>135.0</ele><time>2026-04-26T07:50:04.644Z</time></trkpt><trkpt lat="43.576495" lon="11.5357967"><ele>135.0</ele><time>2026-04-26T07:50:06.645Z</time></trkpt><trkpt lat="43.5764067" lon="11.535895"><ele>135.0</ele><time>2026-04-26T07:50:08.644Z</time></trkpt><trkpt lat="43.5763167" lon="11.5359983"><ele>135.0</ele><time>2026-04-26T07:50:10.644Z</time></trkpt><trkpt lat="43.57622" lon="11.53611"><ele>135.14285714285714</ele><time>2026-04-26T07:50:12.645Z</time></trkpt><trkpt lat="43.576165" lon="11.53617"><ele>135.28571428571428</ele><time>2026-04-26T07:50:13.645Z</time></trkpt><trkpt lat="43.5761133" lon="11.5362367"><ele>135.42857142857142</ele><time>2026-04-26T07:50:14.644Z</time></trkpt><trkpt lat="43.5760683" lon="11.53631"><ele>135.57142857142856</ele><time>2026-04-26T07:50:15.644Z</time></trkpt><trkpt lat="43.5760117" lon="11.5363733"><ele>135.71428571428572</ele><time>2026-04-26T07:50:16.643Z</time></trkpt><trkpt lat="43.5759517" lon="11.5364433"><ele>135.85714285714283</ele><time>2026-04-26T07:50:17.644Z</time></trkpt><trkpt lat="43.5758933" lon="11.5365167"><ele>136.0</ele><time>2026-04-26T07:50:18.645Z</time></trkpt><trkpt lat="43.57583" lon="11.53659"><ele>136.5</ele><time>2026-04-26T07:50:19.643Z</time></trkpt><trkpt lat="43.5757633" lon="11.5366667"><ele>137.0</ele><time>2026-04-26T07:50:20.645Z</time></trkpt><trkpt lat="43.5757" lon="11.53674"><ele>137.5</ele><time>2026-04-26T07:50:21.643Z</time></trkpt><trkpt lat="43.575635" lon="11.53681"><ele>138.0</ele><time>2026-04-26T07:50:22.643Z</time></trkpt><trkpt lat="43.57557" lon="11.5368833"><ele>138.5</ele><time>2026-04-26T07:50:23.645Z</time></trkpt><trkpt lat="43.575505" lon="11.5369583"><ele>139.0</ele><time>2026-04-26T07:50:24.645Z</time></trkpt><trkpt lat="43.57544" lon="11.5370383"><ele>139.0</ele><time>2026-04-26T07:50:25.645Z</time></trkpt><trkpt lat="43.5753733" lon="11.537115"><ele>139.0</ele><time>2026-04-26T07:50:26.645Z</time></trkpt><trkpt lat="43.5753033" lon="11.5371933"><ele>139.0</ele><time>2026-04-26T07:50:27.644Z</time></trkpt><trkpt lat="43.575235" lon="11.537275"><ele>139.0</ele><time>2026-04-26T07:50:28.646Z</time></trkpt><trkpt lat="43.5751683" lon="11.537355"><ele>139.0</ele><time>2026-04-26T07:50:29.645Z</time></trkpt><trkpt lat="43.5751033" lon="11.5374333"><ele>139.0</ele><time>2026-04-26T07:50:30.644Z</time></trkpt><trkpt lat="43.5750383" lon="11.53751"><ele>139.0</ele><time>2026-04-26T07:50:31.645Z</time></trkpt><trkpt lat="43.5749717" lon="11.53759"><ele>139.0</ele><time>2026-04-26T07:50:32.644Z</time></trkpt><trkpt lat="43.5749067" lon="11.5376717"><ele>139.0</ele><time>2026-04-26T07:50:33.644Z</time></trkpt><trkpt lat="43.5748433" lon="11.5377567"><ele>139.0</ele><time>2026-04-26T07:50:34.645Z</time></trkpt><trkpt lat="43.5747783" lon="11.5378383"><ele>139.0</ele><time>2026-04-26T07:50:35.644Z</time></trkpt><trkpt lat="43.5747117" lon="11.5379183"><ele>139.0</ele><time>2026-04-26T07:50:36.646Z</time></trkpt><trkpt lat="43.5746433" lon="11.5379983"><ele>139.5</ele><time>2026-04-26T07:50:37.644Z</time></trkpt><trkpt lat="43.574575" lon="11.538075"><ele>140.0</ele><time>2026-04-26T07:50:38.646Z</time></trkpt><trkpt lat="43.5745117" lon="11.538155"><ele>140.5</ele><time>2026-04-26T07:50:39.644Z</time></trkpt><trkpt lat="43.57445" lon="11.538235"><ele>141.0</ele><time>2026-04-26T07:50:40.644Z</time></trkpt><trkpt lat="43.5743883" lon="11.53831"><ele>141.5</ele><time>2026-04-26T07:50:41.644Z</time></trkpt><trkpt lat="43.574325" lon="11.5383833"><ele>142.0</ele><time>2026-04-26T07:50:42.644Z</time></trkpt><trkpt lat="43.5742633" lon="11.5384583"><ele>141.0</ele><time>2026-04-26T07:50:43.645Z</time></trkpt><trkpt lat="43.5742" lon="11.5385317"><ele>140.0</ele><time>2026-04-26T07:50:44.644Z</time></trkpt><trkpt lat="43.574135" lon="11.5386017"><ele>139.0</ele><time>2026-04-26T07:50:45.644Z</time></trkpt><trkpt lat="43.5740683" lon="11.53867"><ele>138.0</ele><time>2026-04-26T07:50:46.643Z</time></trkpt><trkpt lat="43.5740033" lon="11.5387383"><ele>137.0</ele><time>2026-04-26T07:50:47.644Z</time></trkpt><trkpt lat="43.5739367" lon="11.5388067"><ele>136.0</ele><time>2026-04-26T07:50:48.643Z</time></trkpt><trkpt lat="43.573875" lon="11.53888"><ele>136.0</ele><time>2026-04-26T07:50:49.645Z</time></trkpt><trkpt lat="43.5738117" lon="11.538955"><ele>136.0</ele><time>2026-04-26T07:50:50.645Z</time></trkpt><trkpt lat="43.5737483" lon="11.5390267"><ele>136.0</ele><time>2026-04-26T07:50:51.643Z</time></trkpt><trkpt lat="43.57369" lon="11.5391"><ele>136.0</ele><time>2026-04-26T07:50:52.643Z</time></trkpt><trkpt lat="43.5736283" lon="11.5391717"><ele>136.0</ele><time>2026-04-26T07:50:53.644Z</time></trkpt><trkpt lat="43.573565" lon="11.5392467"><ele>136.0</ele><time>2026-04-26T07:50:54.644Z</time></trkpt><trkpt lat="43.573505" lon="11.5393233"><ele>135.83333333333334</ele><time>2026-04-26T07:50:55.644Z</time></trkpt><trkpt lat="43.57344" lon="11.5393967"><ele>135.66666666666669</ele><time>2026-04-26T07:50:56.645Z</time></trkpt><trkpt lat="43.5733783" lon="11.5394767"><ele>135.5</ele><time>2026-04-26T07:50:57.644Z</time></trkpt><trkpt lat="43.573315" lon="11.5395583"><ele>135.33333333333334</ele><time>2026-04-26T07:50:58.644Z</time></trkpt><trkpt lat="43.57325" lon="11.5396367"><ele>135.16666666666666</ele><time>2026-04-26T07:50:59.644Z</time></trkpt><trkpt lat="43.5731833" lon="11.5397183"><ele>135.0</ele><time>2026-04-26T07:51:00.644Z</time></trkpt><trkpt lat="43.5731167" lon="11.5398017"><ele>135.0</ele><time>2026-04-26T07:51:01.644Z</time></trkpt><trkpt lat="43.57305" lon="11.5398783"><ele>135.0</ele><time>2026-04-26T07:51:02.643Z</time></trkpt><trkpt lat="43.5729867" lon="11.53995"><ele>135.0</ele><time>2026-04-26T07:51:03.645Z</time></trkpt><trkpt lat="43.5729283" lon="11.5400333"><ele>135.0</ele><time>2026-04-26T07:51:04.644Z</time></trkpt><trkpt lat="43.5728667" lon="11.54012"><ele>135.0</ele><time>2026-04-26T07:51:05.645Z</time></trkpt><trkpt lat="43.5728083" lon="11.5402117"><ele>135.0</ele><time>2026-04-26T07:51:06.645Z</time></trkpt><trkpt lat="43.5727533" lon="11.5403083"><ele>135.0</ele><time>2026-04-26T07:51:07.645Z</time></trkpt><trkpt lat="43.5726983" lon="11.540395"><ele>135.0</ele><time>2026-04-26T07:51:08.646Z</time></trkpt><trkpt lat="43.5726467" lon="11.5404883"><ele>135.0</ele><time>2026-04-26T07:51:09.645Z</time></trkpt><trkpt lat="43.5725933" lon="11.5405833"><ele>135.0</ele><time>2026-04-26T07:51:10.644Z</time></trkpt><trkpt lat="43.5725383" lon="11.54067"><ele>135.0</ele><time>2026-04-26T07:51:11.643Z</time></trkpt><trkpt lat="43.5724817" lon="11.5407567"><ele>135.0</ele><time>2026-04-26T07:51:12.646Z</time></trkpt><trkpt lat="43.5724267" lon="11.540835"><ele>135.0</ele><time>2026-04-26T07:51:13.644Z</time></trkpt><trkpt lat="43.572365" lon="11.5409167"><ele>135.0</ele><time>2026-04-26T07:51:14.644Z</time></trkpt><trkpt lat="43.572305" lon="11.5409967"><ele>135.0</ele><time>2026-04-26T07:51:15.645Z</time></trkpt><trkpt lat="43.5722467" lon="11.5410733"><ele>135.0</ele><time>2026-04-26T07:51:16.645Z</time></trkpt><trkpt lat="43.5721867" lon="11.5411517"><ele>135.0</ele><time>2026-04-26T07:51:17.644Z</time></trkpt><trkpt lat="43.5721283" lon="11.54122"><ele>135.0</ele><time>2026-04-26T07:51:18.645Z</time></trkpt><trkpt lat="43.572065" lon="11.54129"><ele>135.33333333333334</ele><time>2026-04-26T07:51:19.643Z</time></trkpt><trkpt lat="43.572" lon="11.5413533"><ele>135.66666666666666</ele><time>2026-04-26T07:51:20.644Z</time></trkpt><trkpt lat="43.5719383" lon="11.5414233"><ele>136.0</ele><time>2026-04-26T07:51:21.645Z</time></trkpt><trkpt lat="43.5718667" lon="11.5414767"><ele>136.33333333333331</ele><time>2026-04-26T07:51:22.644Z</time></trkpt><trkpt lat="43.571795" lon="11.5415383"><ele>136.66666666666666</ele><time>2026-04-26T07:51:23.643Z</time></trkpt><trkpt lat="43.5717217" lon="11.5415967"><ele>137.0</ele><time>2026-04-26T07:51:24.644Z</time></trkpt><trkpt lat="43.5716483" lon="11.54166"><ele>137.0</ele><time>2026-04-26T07:51:25.645Z</time></trkpt><trkpt lat="43.5715783" lon="11.541725"><ele>137.0</ele><time>2026-04-26T07:51:26.644Z</time></trkpt><trkpt lat="43.57151" lon="11.5417883"><ele>137.0</ele><time>2026-04-26T07:51:27.643Z</time></trkpt><trkpt lat="43.57144" lon="11.5418467"><ele>137.0</ele><time>2026-04-26T07:51:28.644Z</time></trkpt><trkpt lat="43.571375" lon="11.5418967"><ele>137.0</ele><time>2026-04-26T07:51:29.644Z</time></trkpt><trkpt lat="43.57131" lon="11.54195"><ele>137.0</ele><time>2026-04-26T07:51:30.645Z</time></trkpt><trkpt lat="43.5712433" lon="11.5420067"><ele>137.16666666666666</ele><time>2026-04-26T07:51:31.645Z</time></trkpt><trkpt lat="43.57118" lon="11.542065"><ele>137.33333333333331</ele><time>2026-04-26T07:51:32.644Z</time></trkpt><trkpt lat="43.5711217" lon="11.542125"><ele>137.5</ele><time>2026-04-26T07:51:33.645Z</time></trkpt><trkpt lat="43.571065" lon="11.5421983"><ele>137.66666666666666</ele><time>2026-04-26T07:51:34.643Z</time></trkpt><trkpt lat="43.5710083" lon="11.5422683"><ele>137.83333333333334</ele><time>2026-04-26T07:51:35.644Z</time></trkpt><trkpt lat="43.5709467" lon="11.5423317"><ele>138.0</ele><time>2026-04-26T07:51:36.644Z</time></trkpt><trkpt lat="43.5708883" lon="11.5423983"><ele>138.0</ele><time>2026-04-26T07:51:37.646Z</time></trkpt><trkpt lat="43.5708267" lon="11.54247"><ele>138.0</ele><time>2026-04-26T07:51:38.644Z</time></trkpt><trkpt lat="43.570765" lon="11.5425383"><ele>138.0</ele><time>2026-04-26T07:51:39.645Z</time></trkpt><trkpt lat="43.5707033" lon="11.5426067"><ele>138.0</ele><time>2026-04-26T07:51:40.643Z</time></trkpt><trkpt lat="43.5706417" lon="11.5426683"><ele>138.0</ele><time>2026-04-26T07:51:41.644Z</time></trkpt><trkpt lat="43.5705817" lon="11.5427317"><ele>138.0</ele><time>2026-04-26T07:51:42.645Z</time></trkpt><trkpt lat="43.57052" lon="11.5428017"><ele>138.0</ele><time>2026-04-26T07:51:43.643Z</time></trkpt><trkpt lat="43.5704583" lon="11.5428667"><ele>138.0</ele><time>2026-04-26T07:51:44.644Z</time></trkpt><trkpt lat="43.570395" lon="11.542925"><ele>138.0</ele><time>2026-04-26T07:51:45.644Z</time></trkpt><trkpt lat="43.5703333" lon="11.54298"><ele>138.0</ele><time>2026-04-26T07:51:46.644Z</time></trkpt><trkpt lat="43.570265" lon="11.5430267"><ele>138.0</ele><time>2026-04-26T07:51:47.644Z</time></trkpt><trkpt lat="43.570185" lon="11.54305"><ele>138.0</ele><time>2026-04-26T07:51:48.644Z</time></trkpt><trkpt lat="43.5701067" lon="11.5430833"><ele>137.66666666666666</ele><time>2026-04-26T07:51:49.646Z</time></trkpt><trkpt lat="43.5700267" lon="11.5430883"><ele>137.33333333333334</ele><time>2026-04-26T07:51:50.644Z</time></trkpt><trkpt lat="43.569945" lon="11.543095"><ele>137.0</ele><time>2026-04-26T07:51:51.643Z</time></trkpt><trkpt lat="43.56987" lon="11.5430983"><ele>136.66666666666669</ele><time>2026-04-26T07:51:52.643Z</time></trkpt><trkpt lat="43.5698017" lon="11.5430917"><ele>136.33333333333334</ele><time>2026-04-26T07:51:53.644Z</time></trkpt><trkpt lat="43.5697267" lon="11.5430767"><ele>136.0</ele><time>2026-04-26T07:51:54.644Z</time></trkpt><trkpt lat="43.5696417" lon="11.5430583"><ele>136.0</ele><time>2026-04-26T07:51:55.645Z</time></trkpt><trkpt lat="43.5695783" lon="11.543015"><ele>136.0</ele><time>2026-04-26T07:51:56.644Z</time></trkpt><trkpt lat="43.569515" lon="11.5429833"><ele>136.0</ele><time>2026-04-26T07:51:57.644Z</time></trkpt><trkpt lat="43.5694167" lon="11.54293"><ele>136.0</ele><time>2026-04-26T07:51:59.645Z</time></trkpt><trkpt lat="43.5693017" lon="11.5429117"><ele>136.0</ele><time>2026-04-26T07:52:01.644Z</time></trkpt><trkpt lat="43.5692017" lon="11.5428983"><ele>136.4</ele><time>2026-04-26T07:52:03.643Z</time></trkpt><trkpt lat="43.5691017" lon="11.5428983"><ele>136.8</ele><time>2026-04-26T07:52:05.644Z</time></trkpt><trkpt lat="43.569005" lon="11.54289"><ele>137.20000000000002</ele><time>2026-04-26T07:52:07.645Z</time></trkpt><trkpt lat="43.5688917" lon="11.5428983"><ele>137.6</ele><time>2026-04-26T07:52:09.645Z</time></trkpt><trkpt lat="43.56878" lon="11.542915"><ele>138.0</ele><time>2026-04-26T07:52:11.644Z</time></trkpt><trkpt lat="43.5686683" lon="11.5429417"><ele>138.0</ele><time>2026-04-26T07:52:13.644Z</time></trkpt><trkpt lat="43.5685583" lon="11.542975"><ele>138.0</ele><time>2026-04-26T07:52:15.643Z</time></trkpt><trkpt lat="43.5684417" lon="11.5430117"><ele>138.0</ele><time>2026-04-26T07:52:17.644Z</time></trkpt><trkpt lat="43.5683217" lon="11.5430483"><ele>138.0</ele><time>2026-04-26T07:52:19.644Z</time></trkpt><trkpt lat="43.5682" lon="11.543085"><ele>138.0</ele><time>2026-04-26T07:52:21.644Z</time></trkpt><trkpt lat="43.5681333" lon="11.5431017"><ele>138.0</ele><time>2026-04-26T07:52:22.646Z</time></trkpt><trkpt lat="43.5680683" lon="11.5431183"><ele>138.0</ele><time>2026-04-26T07:52:23.645Z</time></trkpt><trkpt lat="43.5680017" lon="11.543135"><ele>138.0</ele><time>2026-04-26T07:52:24.645Z</time></trkpt><trkpt lat="43.5679333" lon="11.5431517"><ele>138.0</ele><time>2026-04-26T07:52:25.644Z</time></trkpt><trkpt lat="43.5678667" lon="11.5431717"><ele>138.0</ele><time>2026-04-26T07:52:26.645Z</time></trkpt><trkpt lat="43.5677967" lon="11.5431883"><ele>138.0</ele><time>2026-04-26T07:52:27.644Z</time></trkpt><trkpt lat="43.567725" lon="11.5432033"><ele>138.5</ele><time>2026-04-26T07:52:28.646Z</time></trkpt><trkpt lat="43.5676517" lon="11.5432117"><ele>139.0</ele><time>2026-04-26T07:52:29.644Z</time></trkpt><trkpt lat="43.5675783" lon="11.54322"><ele>139.5</ele><time>2026-04-26T07:52:30.645Z</time></trkpt><trkpt lat="43.5675033" lon="11.54323"><ele>140.0</ele><time>2026-04-26T07:52:31.644Z</time></trkpt><trkpt lat="43.567425" lon="11.5432317"><ele>140.5</ele><time>2026-04-26T07:52:32.645Z</time></trkpt><trkpt lat="43.567345" lon="11.543235"><ele>141.0</ele><time>2026-04-26T07:52:33.644Z</time></trkpt><trkpt lat="43.5672633" lon="11.5432283"><ele>141.0</ele><time>2026-04-26T07:52:34.645Z</time></trkpt><trkpt lat="43.5671783" lon="11.5432283"><ele>141.0</ele><time>2026-04-26T07:52:35.644Z</time></trkpt><trkpt lat="43.5670967" lon="11.5432233"><ele>141.0</ele><time>2026-04-26T07:52:36.644Z</time></trkpt><trkpt lat="43.5670167" lon="11.543215"><ele>141.0</ele><time>2026-04-26T07:52:37.644Z</time></trkpt><trkpt lat="43.566935" lon="11.5432067"><ele>141.0</ele><time>2026-04-26T07:52:38.645Z</time></trkpt><trkpt lat="43.566855" lon="11.5431983"><ele>141.0</ele><time>2026-04-26T07:52:39.643Z</time></trkpt><trkpt lat="43.566775" lon="11.5431917"><ele>141.66666666666666</ele><time>2026-04-26T07:52:40.644Z</time></trkpt><trkpt lat="43.5666933" lon="11.543185"><ele>142.33333333333334</ele><time>2026-04-26T07:52:41.643Z</time></trkpt><trkpt lat="43.5666117" lon="11.5431767"><ele>143.0</ele><time>2026-04-26T07:52:42.645Z</time></trkpt><trkpt lat="43.56653" lon="11.54317"><ele>143.66666666666669</ele><time>2026-04-26T07:52:43.645Z</time></trkpt><trkpt lat="43.5664483" lon="11.543155"><ele>144.33333333333334</ele><time>2026-04-26T07:52:44.644Z</time></trkpt><trkpt lat="43.5663683" lon="11.5431417"><ele>145.0</ele><time>2026-04-26T07:52:45.642Z</time></trkpt><trkpt lat="43.5662867" lon="11.5431317"><ele>145.0</ele><time>2026-04-26T07:52:46.644Z</time></trkpt><trkpt lat="43.5662033" lon="11.543125"><ele>145.0</ele><time>2026-04-26T07:52:47.643Z</time></trkpt><trkpt lat="43.56612" lon="11.5431183"><ele>145.0</ele><time>2026-04-26T07:52:48.644Z</time></trkpt><trkpt lat="43.566035" lon="11.5431067"><ele>145.0</ele><time>2026-04-26T07:52:49.644Z</time></trkpt><trkpt lat="43.56595" lon="11.5430967"><ele>145.0</ele><time>2026-04-26T07:52:50.647Z</time></trkpt><trkpt lat="43.565865" lon="11.5430867"><ele>145.0</ele><time>2026-04-26T07:52:51.643Z</time></trkpt><trkpt lat="43.56578" lon="11.54308"><ele>144.66666666666669</ele><time>2026-04-26T07:52:52.644Z</time></trkpt><trkpt lat="43.5656917" lon="11.5430683"><ele>144.33333333333334</ele><time>2026-04-26T07:52:53.644Z</time></trkpt><trkpt lat="43.5656017" lon="11.543055"><ele>144.0</ele><time>2026-04-26T07:52:54.644Z</time></trkpt><trkpt lat="43.5655117" lon="11.5430367"><ele>143.66666666666666</ele><time>2026-04-26T07:52:55.646Z</time></trkpt><trkpt lat="43.5654233" lon="11.5430283"><ele>143.33333333333331</ele><time>2026-04-26T07:52:56.644Z</time></trkpt><trkpt lat="43.565335" lon="11.5430183"><ele>143.0</ele><time>2026-04-26T07:52:57.644Z</time></trkpt><trkpt lat="43.565245" lon="11.543005"><ele>142.0</ele><time>2026-04-26T07:52:58.643Z</time></trkpt><trkpt lat="43.5651517" lon="11.5429933"><ele>141.0</ele><time>2026-04-26T07:52:59.644Z</time></trkpt><trkpt lat="43.56506" lon="11.542985"><ele>140.0</ele><time>2026-04-26T07:53:00.644Z</time></trkpt><trkpt lat="43.5649683" lon="11.5429783"><ele>139.0</ele><time>2026-04-26T07:53:01.643Z</time></trkpt><trkpt lat="43.5648783" lon="11.5429717"><ele>138.0</ele><time>2026-04-26T07:53:02.643Z</time></trkpt><trkpt lat="43.5647883" lon="11.5429667"><ele>138.0</ele><time>2026-04-26T07:53:03.644Z</time></trkpt><trkpt lat="43.5646983" lon="11.5429633"><ele>138.0</ele><time>2026-04-26T07:53:04.643Z</time></trkpt><trkpt lat="43.5646083" lon="11.5429583"><ele>138.0</ele><time>2026-04-26T07:53:05.645Z</time></trkpt><trkpt lat="43.5645167" lon="11.5429617"><ele>138.0</ele><time>2026-04-26T07:53:06.645Z</time></trkpt><trkpt lat="43.564425" lon="11.5429617"><ele>138.0</ele><time>2026-04-26T07:53:07.644Z</time></trkpt><trkpt lat="43.5643333" lon="11.5429617"><ele>137.83333333333334</ele><time>2026-04-26T07:53:08.645Z</time></trkpt><trkpt lat="43.564245" lon="11.5429633"><ele>137.66666666666666</ele><time>2026-04-26T07:53:09.645Z</time></trkpt><trkpt lat="43.5641567" lon="11.542965"><ele>137.5</ele><time>2026-04-26T07:53:10.645Z</time></trkpt><trkpt lat="43.5640733" lon="11.5429667"><ele>137.33333333333331</ele><time>2026-04-26T07:53:11.645Z</time></trkpt><trkpt lat="43.563995" lon="11.54297"><ele>137.16666666666666</ele><time>2026-04-26T07:53:12.645Z</time></trkpt><trkpt lat="43.5639133" lon="11.5429717"><ele>137.0</ele><time>2026-04-26T07:53:13.645Z</time></trkpt><trkpt lat="43.5638283" lon="11.5429783"><ele>137.0</ele><time>2026-04-26T07:53:14.645Z</time></trkpt><trkpt lat="43.5637433" lon="11.5429833"><ele>137.0</ele><time>2026-04-26T07:53:15.645Z</time></trkpt><trkpt lat="43.56366" lon="11.5429817"><ele>137.0</ele><time>2026-04-26T07:53:16.644Z</time></trkpt><trkpt lat="43.563575" lon="11.5429683"><ele>137.0</ele><time>2026-04-26T07:53:17.644Z</time></trkpt><trkpt lat="43.56349" lon="11.5429517"><ele>137.0</ele><time>2026-04-26T07:53:18.645Z</time></trkpt><trkpt lat="43.5634017" lon="11.54294"><ele>137.0</ele><time>2026-04-26T07:53:19.645Z</time></trkpt><trkpt lat="43.5633133" lon="11.54294"><ele>137.0</ele><time>2026-04-26T07:53:20.646Z</time></trkpt><trkpt lat="43.5632283" lon="11.5429467"><ele>137.0</ele><time>2026-04-26T07:53:21.644Z</time></trkpt><trkpt lat="43.56314" lon="11.5429517"><ele>137.0</ele><time>2026-04-26T07:53:22.645Z</time></trkpt><trkpt lat="43.5630567" lon="11.54294"><ele>137.0</ele><time>2026-04-26T07:53:23.644Z</time></trkpt><trkpt lat="43.5629733" lon="11.5429217"><ele>137.0</ele><time>2026-04-26T07:53:24.645Z</time></trkpt><trkpt lat="43.56289" lon="11.5428983"><ele>137.0</ele><time>2026-04-26T07:53:25.645Z</time></trkpt><trkpt lat="43.5628117" lon="11.5428767"><ele>136.66666666666666</ele><time>2026-04-26T07:53:26.645Z</time></trkpt><trkpt lat="43.5627367" lon="11.5428517"><ele>136.33333333333331</ele><time>2026-04-26T07:53:27.644Z</time></trkpt><trkpt lat="43.56266" lon="11.54283"><ele>136.0</ele><time>2026-04-26T07:53:28.644Z</time></trkpt><trkpt lat="43.56258" lon="11.5428117"><ele>135.66666666666666</ele><time>2026-04-26T07:53:29.646Z</time></trkpt><trkpt lat="43.5625017" lon="11.5427933"><ele>135.33333333333334</ele><time>2026-04-26T07:53:30.645Z</time></trkpt><trkpt lat="43.5624217" lon="11.5427783"><ele>135.0</ele><time>2026-04-26T07:53:31.645Z</time></trkpt><trkpt lat="43.5623433" lon="11.542765"><ele>135.0</ele><time>2026-04-26T07:53:32.645Z</time></trkpt><trkpt lat="43.5622667" lon="11.5427533"><ele>135.0</ele><time>2026-04-26T07:53:33.645Z</time></trkpt><trkpt lat="43.56219" lon="11.5427433"><ele>135.0</ele><time>2026-04-26T07:53:34.644Z</time></trkpt><trkpt lat="43.5621117" lon="11.5427383"><ele>135.0</ele><time>2026-04-26T07:53:35.644Z</time></trkpt><trkpt lat="43.56203" lon="11.5427283"><ele>135.0</ele><time>2026-04-26T07:53:36.646Z</time></trkpt><trkpt lat="43.5619483" lon="11.542715"><ele>135.0</ele><time>2026-04-26T07:53:37.645Z</time></trkpt><trkpt lat="43.5618683" lon="11.5427033"><ele>135.0</ele><time>2026-04-26T07:53:38.646Z</time></trkpt><trkpt lat="43.5617867" lon="11.5426917"><ele>135.0</ele><time>2026-04-26T07:53:39.645Z</time></trkpt><trkpt lat="43.5617083" lon="11.5426783"><ele>135.0</ele><time>2026-04-26T07:53:40.644Z</time></trkpt><trkpt lat="43.56163" lon="11.5426633"><ele>135.0</ele><time>2026-04-26T07:53:41.644Z</time></trkpt><trkpt lat="43.56155" lon="11.54265"><ele>135.0</ele><time>2026-04-26T07:53:42.645Z</time></trkpt><trkpt lat="43.5614733" lon="11.5426383"><ele>135.0</ele><time>2026-04-26T07:53:43.645Z</time></trkpt><trkpt lat="43.5613967" lon="11.54263"><ele>135.0</ele><time>2026-04-26T07:53:44.645Z</time></trkpt><trkpt lat="43.5613183" lon="11.5426183"><ele>135.0</ele><time>2026-04-26T07:53:45.644Z</time></trkpt><trkpt lat="43.5612383" lon="11.54261"><ele>135.0</ele><time>2026-04-26T07:53:46.646Z</time></trkpt><trkpt lat="43.5611567" lon="11.5426"><ele>135.0</ele><time>2026-04-26T07:53:47.644Z</time></trkpt><trkpt lat="43.561075" lon="11.54259"><ele>135.0</ele><time>2026-04-26T07:53:48.645Z</time></trkpt><trkpt lat="43.5609933" lon="11.5425783"><ele>135.0</ele><time>2026-04-26T07:53:49.644Z</time></trkpt><trkpt lat="43.5609117" lon="11.5425633"><ele>134.83333333333334</ele><time>2026-04-26T07:53:50.645Z</time></trkpt><trkpt lat="43.56083" lon="11.542555"><ele>134.66666666666666</ele><time>2026-04-26T07:53:51.645Z</time></trkpt><trkpt lat="43.5607517" lon="11.542545"><ele>134.5</ele><time>2026-04-26T07:53:52.644Z</time></trkpt><trkpt lat="43.56067" lon="11.54254"><ele>134.33333333333331</ele><time>2026-04-26T07:53:53.645Z</time></trkpt><trkpt lat="43.56059" lon="11.5425333"><ele>134.16666666666666</ele><time>2026-04-26T07:53:54.645Z</time></trkpt><trkpt lat="43.5605067" lon="11.54253"><ele>134.0</ele><time>2026-04-26T07:53:55.644Z</time></trkpt><trkpt lat="43.560425" lon="11.5425267"><ele>134.16666666666666</ele><time>2026-04-26T07:53:56.647Z</time></trkpt><trkpt lat="43.5603433" lon="11.5425267"><ele>134.33333333333331</ele><time>2026-04-26T07:53:57.646Z</time></trkpt><trkpt lat="43.56026" lon="11.542525"><ele>134.5</ele><time>2026-04-26T07:53:58.645Z</time></trkpt><trkpt lat="43.56018" lon="11.5425217"><ele>134.66666666666666</ele><time>2026-04-26T07:53:59.645Z</time></trkpt><trkpt lat="43.5601033" lon="11.5425183"><ele>134.83333333333334</ele><time>2026-04-26T07:54:00.646Z</time></trkpt><trkpt lat="43.5600267" lon="11.5425167"><ele>135.0</ele><time>2026-04-26T07:54:01.646Z</time></trkpt><trkpt lat="43.5599483" lon="11.5425183"><ele>135.0</ele><time>2026-04-26T07:54:02.646Z</time></trkpt><trkpt lat="43.5598733" lon="11.5425217"><ele>135.0</ele><time>2026-04-26T07:54:03.647Z</time></trkpt><trkpt lat="43.5598" lon="11.5425217"><ele>135.0</ele><time>2026-04-26T07:54:04.645Z</time></trkpt><trkpt lat="43.5597283" lon="11.54252"><ele>135.0</ele><time>2026-04-26T07:54:05.644Z</time></trkpt><trkpt lat="43.5596567" lon="11.54252"><ele>135.0</ele><time>2026-04-26T07:54:06.645Z</time></trkpt><trkpt lat="43.55959" lon="11.54252"><ele>135.0</ele><time>2026-04-26T07:54:07.645Z</time></trkpt><trkpt lat="43.559525" lon="11.5425233"><ele>135.0</ele><time>2026-04-26T07:54:08.645Z</time></trkpt><trkpt lat="43.559455" lon="11.5425283"><ele>135.28571428571428</ele><time>2026-04-26T07:54:09.644Z</time></trkpt><trkpt lat="43.559385" lon="11.5425383"><ele>135.57142857142856</ele><time>2026-04-26T07:54:10.644Z</time></trkpt><trkpt lat="43.5593183" lon="11.5425533"><ele>135.85714285714286</ele><time>2026-04-26T07:54:11.644Z</time></trkpt><trkpt lat="43.5592567" lon="11.5425717"><ele>136.14285714285714</ele><time>2026-04-26T07:54:12.645Z</time></trkpt><trkpt lat="43.5591917" lon="11.5425883"><ele>136.42857142857144</ele><time>2026-04-26T07:54:13.645Z</time></trkpt><trkpt lat="43.5591267" lon="11.5426067"><ele>136.71428571428572</ele><time>2026-04-26T07:54:14.647Z</time></trkpt><trkpt lat="43.55906" lon="11.5426283"><ele>137.0</ele><time>2026-04-26T07:54:15.644Z</time></trkpt><trkpt lat="43.5589967" lon="11.54265"><ele>137.00000000000003</ele><time>2026-04-26T07:54:16.644Z</time></trkpt><trkpt lat="43.5589317" lon="11.5426783"><ele>137.0</ele><time>2026-04-26T07:54:17.647Z</time></trkpt><trkpt lat="43.5588667" lon="11.5427083"><ele>137.0</ele><time>2026-04-26T07:54:18.645Z</time></trkpt><trkpt lat="43.5588017" lon="11.5427417"><ele>137.0</ele><time>2026-04-26T07:54:19.645Z</time></trkpt><trkpt lat="43.5587367" lon="11.54278"><ele>137.0</ele><time>2026-04-26T07:54:20.645Z</time></trkpt><trkpt lat="43.5586767" lon="11.542815"><ele>137.00000000000003</ele><time>2026-04-26T07:54:21.643Z</time></trkpt><trkpt lat="43.558615" lon="11.5428467"><ele>137.0</ele><time>2026-04-26T07:54:22.645Z</time></trkpt><trkpt lat="43.5585567" lon="11.542885"><ele>137.0</ele><time>2026-04-26T07:54:23.644Z</time></trkpt><trkpt lat="43.5584983" lon="11.542925"><ele>137.0</ele><time>2026-04-26T07:54:24.645Z</time></trkpt><trkpt lat="43.5584417" lon="11.542965"><ele>137.0</ele><time>2026-04-26T07:54:25.644Z</time></trkpt><trkpt lat="43.5583317" lon="11.5430533"><ele>137.0</ele><time>2026-04-26T07:54:27.646Z</time></trkpt><trkpt lat="43.558275" lon="11.5430983"><ele>137.0</ele><time>2026-04-26T07:54:28.644Z</time></trkpt><trkpt lat="43.5582183" lon="11.5431467"><ele>137.0</ele><time>2026-04-26T07:54:29.646Z</time></trkpt><trkpt lat="43.558165" lon="11.5431967"><ele>137.0</ele><time>2026-04-26T07:54:30.646Z</time></trkpt><trkpt lat="43.5581117" lon="11.5432483"><ele>137.0</ele><time>2026-04-26T07:54:31.644Z</time></trkpt><trkpt lat="43.5580633" lon="11.5433083"><ele>137.0</ele><time>2026-04-26T07:54:32.646Z</time></trkpt><trkpt lat="43.558015" lon="11.5433667"><ele>137.0</ele><time>2026-04-26T07:54:33.645Z</time></trkpt><trkpt lat="43.5579683" lon="11.543425"><ele>137.0</ele><time>2026-04-26T07:54:34.647Z</time></trkpt><trkpt lat="43.5578733" lon="11.54354"><ele>137.0</ele><time>2026-04-26T07:54:36.645Z</time></trkpt><trkpt lat="43.55773" lon="11.543715"><ele>137.6</ele><time>2026-04-26T07:54:39.645Z</time></trkpt><trkpt lat="43.55764" lon="11.5438317"><ele>138.2</ele><time>2026-04-26T07:54:41.645Z</time></trkpt><trkpt lat="43.557595" lon="11.5438933"><ele>138.8</ele><time>2026-04-26T07:54:42.645Z</time></trkpt><trkpt lat="43.5575083" lon="11.5440117"><ele>139.4</ele><time>2026-04-26T07:54:44.646Z</time></trkpt><trkpt lat="43.5574167" lon="11.544125"><ele>140.0</ele><time>2026-04-26T07:54:46.645Z</time></trkpt><trkpt lat="43.5573267" lon="11.5442433"><ele>140.0</ele><time>2026-04-26T07:54:48.647Z</time></trkpt><trkpt lat="43.5572367" lon="11.5443667"><ele>140.0</ele><time>2026-04-26T07:54:50.647Z</time></trkpt><trkpt lat="43.55719" lon="11.5444267"><ele>140.0</ele><time>2026-04-26T07:54:51.647Z</time></trkpt><trkpt lat="43.5571433" lon="11.5444867"><ele>140.0</ele><time>2026-04-26T07:54:52.647Z</time></trkpt><trkpt lat="43.5570967" lon="11.5445483"><ele>140.0</ele><time>2026-04-26T07:54:53.645Z</time></trkpt><trkpt lat="43.55705" lon="11.5446117"><ele>140.0</ele><time>2026-04-26T07:54:54.646Z</time></trkpt><trkpt lat="43.5570017" lon="11.54468"><ele>140.14285714285714</ele><time>2026-04-26T07:54:55.646Z</time></trkpt><trkpt lat="43.5569517" lon="11.5447467"><ele>140.28571428571428</ele><time>2026-04-26T07:54:56.646Z</time></trkpt><trkpt lat="43.5569" lon="11.544815"><ele>140.42857142857144</ele><time>2026-04-26T07:54:57.647Z</time></trkpt><trkpt lat="43.5568517" lon="11.5448867"><ele>140.57142857142856</ele><time>2026-04-26T07:54:58.644Z</time></trkpt><trkpt lat="43.5568" lon="11.544955"><ele>140.71428571428572</ele><time>2026-04-26T07:54:59.645Z</time></trkpt><trkpt lat="43.5567483" lon="11.545025"><ele>140.85714285714286</ele><time>2026-04-26T07:55:00.645Z</time></trkpt><trkpt lat="43.5566983" lon="11.5450917"><ele>141.0</ele><time>2026-04-26T07:55:01.644Z</time></trkpt><trkpt lat="43.5566467" lon="11.545165"><ele>141.0</ele><time>2026-04-26T07:55:02.645Z</time></trkpt><trkpt lat="43.556595" lon="11.5452417"><ele>141.0</ele><time>2026-04-26T07:55:03.645Z</time></trkpt><trkpt lat="43.5565417" lon="11.54532"><ele>141.0</ele><time>2026-04-26T07:55:04.645Z</time></trkpt><trkpt lat="43.5564883" lon="11.5453983"><ele>141.0</ele><time>2026-04-26T07:55:05.645Z</time></trkpt><trkpt lat="43.556435" lon="11.545485"><ele>141.0</ele><time>2026-04-26T07:55:06.647Z</time></trkpt><trkpt lat="43.5563817" lon="11.5455733"><ele>141.0</ele><time>2026-04-26T07:55:07.646Z</time></trkpt><trkpt lat="43.5563267" lon="11.54566"><ele>140.4</ele><time>2026-04-26T07:55:08.646Z</time></trkpt><trkpt lat="43.55627" lon="11.5457517"><ele>139.8</ele><time>2026-04-26T07:55:09.644Z</time></trkpt><trkpt lat="43.556215" lon="11.5458467"><ele>139.20000000000002</ele><time>2026-04-26T07:55:10.646Z</time></trkpt><trkpt lat="43.55616" lon="11.545945"><ele>138.6</ele><time>2026-04-26T07:55:11.644Z</time></trkpt><trkpt lat="43.5561017" lon="11.5460483"><ele>138.0</ele><time>2026-04-26T07:55:12.645Z</time></trkpt><trkpt lat="43.556045" lon="11.5461533"><ele>139.0</ele><time>2026-04-26T07:55:13.646Z</time></trkpt><trkpt lat="43.555985" lon="11.5462583"><ele>140.0</ele><time>2026-04-26T07:55:14.646Z</time></trkpt><trkpt lat="43.5559267" lon="11.546365"><ele>141.0</ele><time>2026-04-26T07:55:15.645Z</time></trkpt><trkpt lat="43.555865" lon="11.54647"><ele>142.0</ele><time>2026-04-26T07:55:16.645Z</time></trkpt><trkpt lat="43.5558083" lon="11.546585"><ele>143.0</ele><time>2026-04-26T07:55:17.644Z</time></trkpt><trkpt lat="43.5557467" lon="11.546695"><ele>143.0</ele><time>2026-04-26T07:55:18.647Z</time></trkpt><trkpt lat="43.5556817" lon="11.546805"><ele>143.0</ele><time>2026-04-26T07:55:19.646Z</time></trkpt><trkpt lat="43.5556183" lon="11.54691"><ele>143.0</ele><time>2026-04-26T07:55:20.646Z</time></trkpt><trkpt lat="43.5555533" lon="11.5470167"><ele>143.0</ele><time>2026-04-26T07:55:21.644Z</time></trkpt><trkpt lat="43.55549" lon="11.5471217"><ele>143.0</ele><time>2026-04-26T07:55:22.645Z</time></trkpt><trkpt lat="43.5554283" lon="11.54723"><ele>141.6</ele><time>2026-04-26T07:55:23.645Z</time></trkpt><trkpt lat="43.55537" lon="11.5473367"><ele>140.20000000000002</ele><time>2026-04-26T07:55:24.646Z</time></trkpt><trkpt lat="43.55531" lon="11.547445"><ele>138.8</ele><time>2026-04-26T07:55:25.646Z</time></trkpt><trkpt lat="43.55525" lon="11.5475533"><ele>137.4</ele><time>2026-04-26T07:55:26.645Z</time></trkpt><trkpt lat="43.5551917" lon="11.5476617"><ele>136.0</ele><time>2026-04-26T07:55:27.645Z</time></trkpt><trkpt lat="43.5551333" lon="11.5477733"><ele>136.2</ele><time>2026-04-26T07:55:28.643Z</time></trkpt><trkpt lat="43.555075" lon="11.5478833"><ele>136.39999999999998</ele><time>2026-04-26T07:55:29.645Z</time></trkpt><trkpt lat="43.555015" lon="11.547985"><ele>136.6</ele><time>2026-04-26T07:55:30.645Z</time></trkpt><trkpt lat="43.5549567" lon="11.5480917"><ele>136.79999999999998</ele><time>2026-04-26T07:55:31.645Z</time></trkpt><trkpt lat="43.5549" lon="11.5481983"><ele>137.0</ele><time>2026-04-26T07:55:32.646Z</time></trkpt><trkpt lat="43.5548417" lon="11.5483033"><ele>137.0</ele><time>2026-04-26T07:55:33.647Z</time></trkpt><trkpt lat="43.5547867" lon="11.5484067"><ele>137.0</ele><time>2026-04-26T07:55:34.645Z</time></trkpt><trkpt lat="43.5547317" lon="11.5485067"><ele>137.0</ele><time>2026-04-26T07:55:35.644Z</time></trkpt><trkpt lat="43.5546733" lon="11.5486083"><ele>137.0</ele><time>2026-04-26T07:55:36.647Z</time></trkpt><trkpt lat="43.55462" lon="11.5487133"><ele>137.0</ele><time>2026-04-26T07:55:37.645Z</time></trkpt><trkpt lat="43.5545633" lon="11.5488133"><ele>136.5</ele><time>2026-04-26T07:55:38.646Z</time></trkpt><trkpt lat="43.5545067" lon="11.5489083"><ele>136.0</ele><time>2026-04-26T07:55:39.646Z</time></trkpt><trkpt lat="43.55445" lon="11.5490067"><ele>135.5</ele><time>2026-04-26T07:55:40.646Z</time></trkpt><trkpt lat="43.554395" lon="11.549105"><ele>135.0</ele><time>2026-04-26T07:55:41.647Z</time></trkpt><trkpt lat="43.5543433" lon="11.5492033"><ele>134.5</ele><time>2026-04-26T07:55:42.646Z</time></trkpt><trkpt lat="43.55429" lon="11.5493017"><ele>134.0</ele><time>2026-04-26T07:55:43.646Z</time></trkpt><trkpt lat="43.55424" lon="11.5494017"><ele>134.0</ele><time>2026-04-26T07:55:44.647Z</time></trkpt><trkpt lat="43.5541867" lon="11.5494933"><ele>134.0</ele><time>2026-04-26T07:55:45.645Z</time></trkpt><trkpt lat="43.5541317" lon="11.5495867"><ele>134.0</ele><time>2026-04-26T07:55:46.645Z</time></trkpt><trkpt lat="43.5540783" lon="11.54968"><ele>134.0</ele><time>2026-04-26T07:55:47.645Z</time></trkpt><trkpt lat="43.5540317" lon="11.5497767"><ele>134.0</ele><time>2026-04-26T07:55:48.645Z</time></trkpt><trkpt lat="43.5539817" lon="11.549865"><ele>134.0</ele><time>2026-04-26T07:55:49.646Z</time></trkpt><trkpt lat="43.55393" lon="11.5499583"><ele>134.33333333333331</ele><time>2026-04-26T07:55:50.646Z</time></trkpt><trkpt lat="43.5538783" lon="11.5500467"><ele>134.66666666666666</ele><time>2026-04-26T07:55:51.647Z</time></trkpt><trkpt lat="43.5538267" lon="11.55014"><ele>135.0</ele><time>2026-04-26T07:55:52.646Z</time></trkpt><trkpt lat="43.553775" lon="11.5502317"><ele>135.33333333333334</ele><time>2026-04-26T07:55:53.647Z</time></trkpt><trkpt lat="43.553725" lon="11.5503217"><ele>135.66666666666669</ele><time>2026-04-26T07:55:54.646Z</time></trkpt><trkpt lat="43.5536767" lon="11.550415"><ele>136.0</ele><time>2026-04-26T07:55:55.645Z</time></trkpt><trkpt lat="43.553625" lon="11.5505083"><ele>136.0</ele><time>2026-04-26T07:55:56.646Z</time></trkpt><trkpt lat="43.553575" lon="11.5506033"><ele>136.0</ele><time>2026-04-26T07:55:57.646Z</time></trkpt><trkpt lat="43.5535217" lon="11.5506917"><ele>136.0</ele><time>2026-04-26T07:55:58.646Z</time></trkpt><trkpt lat="43.5534717" lon="11.550785"><ele>136.0</ele><time>2026-04-26T07:55:59.646Z</time></trkpt><trkpt lat="43.5534167" lon="11.5508733"><ele>136.0</ele><time>2026-04-26T07:56:00.645Z</time></trkpt><trkpt lat="43.5533633" lon="11.5509633"><ele>136.0</ele><time>2026-04-26T07:56:01.646Z</time></trkpt><trkpt lat="43.55331" lon="11.5510517"><ele>136.0</ele><time>2026-04-26T07:56:02.645Z</time></trkpt><trkpt lat="43.553255" lon="11.551135"><ele>136.0</ele><time>2026-04-26T07:56:03.645Z</time></trkpt><trkpt lat="43.5532017" lon="11.55122"><ele>136.0</ele><time>2026-04-26T07:56:04.647Z</time></trkpt><trkpt lat="43.5531467" lon="11.5513033"><ele>136.0</ele><time>2026-04-26T07:56:05.645Z</time></trkpt><trkpt lat="43.5530917" lon="11.55139"><ele>136.0</ele><time>2026-04-26T07:56:06.645Z</time></trkpt><trkpt lat="43.5530367" lon="11.5514767"><ele>136.0</ele><time>2026-04-26T07:56:07.645Z</time></trkpt><trkpt lat="43.5529833" lon="11.5515617"><ele>135.83333333333334</ele><time>2026-04-26T07:56:08.647Z</time></trkpt><trkpt lat="43.55293" lon="11.55165"><ele>135.66666666666669</ele><time>2026-04-26T07:56:09.645Z</time></trkpt><trkpt lat="43.5528733" lon="11.551735"><ele>135.5</ele><time>2026-04-26T07:56:10.645Z</time></trkpt><trkpt lat="43.55282" lon="11.55182"><ele>135.33333333333334</ele><time>2026-04-26T07:56:11.645Z</time></trkpt><trkpt lat="43.5527633" lon="11.551905"><ele>135.16666666666666</ele><time>2026-04-26T07:56:12.646Z</time></trkpt><trkpt lat="43.552705" lon="11.5519883"><ele>135.0</ele><time>2026-04-26T07:56:13.645Z</time></trkpt><trkpt lat="43.5526483" lon="11.552075"><ele>135.33333333333334</ele><time>2026-04-26T07:56:14.646Z</time></trkpt><trkpt lat="43.5525917" lon="11.5521617"><ele>135.66666666666666</ele><time>2026-04-26T07:56:15.646Z</time></trkpt><trkpt lat="43.552535" lon="11.5522533"><ele>136.0</ele><time>2026-04-26T07:56:16.645Z</time></trkpt><trkpt lat="43.55248" lon="11.5523417"><ele>136.33333333333331</ele><time>2026-04-26T07:56:17.646Z</time></trkpt><trkpt lat="43.5524217" lon="11.5524267"><ele>136.66666666666666</ele><time>2026-04-26T07:56:18.646Z</time></trkpt><trkpt lat="43.5523617" lon="11.5525033"><ele>137.0</ele><time>2026-04-26T07:56:19.646Z</time></trkpt><trkpt lat="43.5523033" lon="11.55258"><ele>137.0</ele><time>2026-04-26T07:56:20.646Z</time></trkpt><trkpt lat="43.552245" lon="11.5526617"><ele>137.0</ele><time>2026-04-26T07:56:21.647Z</time></trkpt><trkpt lat="43.5521867" lon="11.5527383"><ele>137.0</ele><time>2026-04-26T07:56:22.645Z</time></trkpt><trkpt lat="43.55213" lon="11.5528167"><ele>137.0</ele><time>2026-04-26T07:56:23.646Z</time></trkpt><trkpt lat="43.5520733" lon="11.5528967"><ele>137.0</ele><time>2026-04-26T07:56:24.646Z</time></trkpt><trkpt lat="43.5520167" lon="11.5529733"><ele>137.0</ele><time>2026-04-26T07:56:25.645Z</time></trkpt><trkpt lat="43.5519633" lon="11.5530533"><ele>137.16666666666666</ele><time>2026-04-26T07:56:26.646Z</time></trkpt><trkpt lat="43.5519133" lon="11.553135"><ele>137.33333333333331</ele><time>2026-04-26T07:56:27.646Z</time></trkpt><trkpt lat="43.551865" lon="11.5532217"><ele>137.5</ele><time>2026-04-26T07:56:28.645Z</time></trkpt><trkpt lat="43.551815" lon="11.5533083"><ele>137.66666666666666</ele><time>2026-04-26T07:56:29.646Z</time></trkpt><trkpt lat="43.551775" lon="11.5533933"><ele>137.83333333333334</ele><time>2026-04-26T07:56:30.648Z</time></trkpt><trkpt lat="43.5517317" lon="11.5534717"><ele>138.0</ele><time>2026-04-26T07:56:31.645Z</time></trkpt><trkpt lat="43.5516917" lon="11.5535533"><ele>138.0</ele><time>2026-04-26T07:56:32.646Z</time></trkpt><trkpt lat="43.551655" lon="11.55364"><ele>138.0</ele><time>2026-04-26T07:56:33.644Z</time></trkpt><trkpt lat="43.5516167" lon="11.5537267"><ele>138.0</ele><time>2026-04-26T07:56:34.645Z</time></trkpt><trkpt lat="43.5515867" lon="11.5538167"><ele>138.0</ele><time>2026-04-26T07:56:35.645Z</time></trkpt><trkpt lat="43.5515583" lon="11.5539083"><ele>138.0</ele><time>2026-04-26T07:56:36.647Z</time></trkpt><trkpt lat="43.551525" lon="11.554"><ele>138.0</ele><time>2026-04-26T07:56:37.646Z</time></trkpt><trkpt lat="43.5514933" lon="11.5540933"><ele>138.0</ele><time>2026-04-26T07:56:38.647Z</time></trkpt><trkpt lat="43.5514667" lon="11.554195"><ele>138.33333333333334</ele><time>2026-04-26T07:56:39.645Z</time></trkpt><trkpt lat="43.55144" lon="11.5542983"><ele>138.66666666666666</ele><time>2026-04-26T07:56:40.646Z</time></trkpt><trkpt lat="43.5514167" lon="11.5544017"><ele>139.0</ele><time>2026-04-26T07:56:41.646Z</time></trkpt><trkpt lat="43.5513933" lon="11.554505"><ele>139.33333333333331</ele><time>2026-04-26T07:56:42.645Z</time></trkpt><trkpt lat="43.5513717" lon="11.554605"><ele>139.66666666666666</ele><time>2026-04-26T07:56:43.645Z</time></trkpt><trkpt lat="43.5513483" lon="11.5547017"><ele>140.0</ele><time>2026-04-26T07:56:44.646Z</time></trkpt><trkpt lat="43.5513267" lon="11.5548033"><ele>140.0</ele><time>2026-04-26T07:56:45.644Z</time></trkpt><trkpt lat="43.5512983" lon="11.5549"><ele>140.0</ele><time>2026-04-26T07:56:46.647Z</time></trkpt><trkpt lat="43.5512767" lon="11.5549917"><ele>140.0</ele><time>2026-04-26T07:56:47.647Z</time></trkpt><trkpt lat="43.5512533" lon="11.5550917"><ele>140.0</ele><time>2026-04-26T07:56:48.647Z</time></trkpt><trkpt lat="43.55123" lon="11.5551933"><ele>140.0</ele><time>2026-04-26T07:56:49.646Z</time></trkpt><trkpt lat="43.5512017" lon="11.5552933"><ele>140.0</ele><time>2026-04-26T07:56:50.647Z</time></trkpt><trkpt lat="43.55118" lon="11.5554083"><ele>139.33333333333331</ele><time>2026-04-26T07:56:51.646Z</time></trkpt><trkpt lat="43.5511667" lon="11.5555217"><ele>138.66666666666666</ele><time>2026-04-26T07:56:52.645Z</time></trkpt><trkpt lat="43.55116" lon="11.5556333"><ele>138.0</ele><time>2026-04-26T07:56:53.646Z</time></trkpt><trkpt lat="43.55116" lon="11.5557533"><ele>137.33333333333334</ele><time>2026-04-26T07:56:54.647Z</time></trkpt><trkpt lat="43.55116" lon="11.55587"><ele>136.66666666666669</ele><time>2026-04-26T07:56:55.645Z</time></trkpt><trkpt lat="43.5511633" lon="11.5559883"><ele>136.0</ele><time>2026-04-26T07:56:56.646Z</time></trkpt><trkpt lat="43.5511683" lon="11.556105"><ele>136.66666666666669</ele><time>2026-04-26T07:56:57.645Z</time></trkpt><trkpt lat="43.5511717" lon="11.5562233"><ele>137.33333333333334</ele><time>2026-04-26T07:56:58.645Z</time></trkpt><trkpt lat="43.5511717" lon="11.5563467"><ele>138.0</ele><time>2026-04-26T07:56:59.644Z</time></trkpt><trkpt lat="43.551165" lon="11.5564667"><ele>138.66666666666666</ele><time>2026-04-26T07:57:00.645Z</time></trkpt><trkpt lat="43.5511483" lon="11.5565833"><ele>139.33333333333331</ele><time>2026-04-26T07:57:01.645Z</time></trkpt><trkpt lat="43.551125" lon="11.5567067"><ele>140.0</ele><time>2026-04-26T07:57:02.647Z</time></trkpt><trkpt lat="43.551085" lon="11.5568117"><ele>140.0</ele><time>2026-04-26T07:57:03.646Z</time></trkpt><trkpt lat="43.5510483" lon="11.5569217"><ele>140.0</ele><time>2026-04-26T07:57:04.646Z</time></trkpt><trkpt lat="43.551005" lon="11.55703"><ele>140.0</ele><time>2026-04-26T07:57:05.646Z</time></trkpt><trkpt lat="43.5509617" lon="11.5571283"><ele>140.0</ele><time>2026-04-26T07:57:06.646Z</time></trkpt><trkpt lat="43.5509183" lon="11.5572233"><ele>140.0</ele><time>2026-04-26T07:57:07.647Z</time></trkpt><trkpt lat="43.550875" lon="11.5573267"><ele>140.0</ele><time>2026-04-26T07:57:08.647Z</time></trkpt><trkpt lat="43.55083" lon="11.5574283"><ele>140.0</ele><time>2026-04-26T07:57:09.646Z</time></trkpt><trkpt lat="43.5507867" lon="11.5575267"><ele>140.0</ele><time>2026-04-26T07:57:10.645Z</time></trkpt><trkpt lat="43.550745" lon="11.557625"><ele>140.0</ele><time>2026-04-26T07:57:11.645Z</time></trkpt><trkpt lat="43.5507117" lon="11.55773"><ele>140.0</ele><time>2026-04-26T07:57:12.646Z</time></trkpt><trkpt lat="43.5506833" lon="11.55784"><ele>140.0</ele><time>2026-04-26T07:57:13.644Z</time></trkpt><trkpt lat="43.5506533" lon="11.557945"><ele>140.0</ele><time>2026-04-26T07:57:14.647Z</time></trkpt><trkpt lat="43.5506217" lon="11.5580483"><ele>140.16666666666666</ele><time>2026-04-26T07:57:15.647Z</time></trkpt><trkpt lat="43.5505917" lon="11.558155"><ele>140.33333333333331</ele><time>2026-04-26T07:57:16.645Z</time></trkpt><trkpt lat="43.55057" lon="11.5582683"><ele>140.5</ele><time>2026-04-26T07:57:17.645Z</time></trkpt><trkpt lat="43.5505483" lon="11.558385"><ele>140.66666666666666</ele><time>2026-04-26T07:57:18.647Z</time></trkpt><trkpt lat="43.55053" lon="11.5585017"><ele>140.83333333333334</ele><time>2026-04-26T07:57:19.646Z</time></trkpt><trkpt lat="43.5505133" lon="11.5586133"><ele>141.0</ele><time>2026-04-26T07:57:20.645Z</time></trkpt><trkpt lat="43.55049" lon="11.558725"><ele>141.0</ele><time>2026-04-26T07:57:21.646Z</time></trkpt><trkpt lat="43.5504667" lon="11.5588333"><ele>141.0</ele><time>2026-04-26T07:57:22.646Z</time></trkpt><trkpt lat="43.550445" lon="11.5589433"><ele>141.0</ele><time>2026-04-26T07:57:23.645Z</time></trkpt><trkpt lat="43.55042" lon="11.5590483"><ele>141.0</ele><time>2026-04-26T07:57:24.647Z</time></trkpt><trkpt lat="43.5503933" lon="11.55916"><ele>141.0</ele><time>2026-04-26T07:57:25.647Z</time></trkpt><trkpt lat="43.5503667" lon="11.559265"><ele>141.0</ele><time>2026-04-26T07:57:26.646Z</time></trkpt><trkpt lat="43.55034" lon="11.55937"><ele>141.16666666666666</ele><time>2026-04-26T07:57:27.647Z</time></trkpt><trkpt lat="43.5503067" lon="11.5594733"><ele>141.33333333333334</ele><time>2026-04-26T07:57:28.645Z</time></trkpt><trkpt lat="43.5502783" lon="11.5595817"><ele>141.5</ele><time>2026-04-26T07:57:29.645Z</time></trkpt><trkpt lat="43.5502483" lon="11.5596883"><ele>141.66666666666669</ele><time>2026-04-26T07:57:30.646Z</time></trkpt><trkpt lat="43.5502217" lon="11.5597917"><ele>141.83333333333334</ele><time>2026-04-26T07:57:31.647Z</time></trkpt><trkpt lat="43.5501933" lon="11.55989"><ele>142.0</ele><time>2026-04-26T07:57:32.645Z</time></trkpt><trkpt lat="43.550165" lon="11.5599933"><ele>141.71428571428572</ele><time>2026-04-26T07:57:33.646Z</time></trkpt><trkpt lat="43.5501367" lon="11.5600917"><ele>141.42857142857142</ele><time>2026-04-26T07:57:34.647Z</time></trkpt><trkpt lat="43.5501083" lon="11.5601867"><ele>141.14285714285714</ele><time>2026-04-26T07:57:35.644Z</time></trkpt><trkpt lat="43.550085" lon="11.5602817"><ele>140.85714285714286</ele><time>2026-04-26T07:57:36.645Z</time></trkpt><trkpt lat="43.55005" lon="11.560375"><ele>140.57142857142856</ele><time>2026-04-26T07:57:37.646Z</time></trkpt><trkpt lat="43.5500217" lon="11.56047"><ele>140.28571428571428</ele><time>2026-04-26T07:57:38.645Z</time></trkpt><trkpt lat="43.5499967" lon="11.5605583"><ele>140.0</ele><time>2026-04-26T07:57:39.645Z</time></trkpt><trkpt lat="43.5499667" lon="11.560655"><ele>140.0</ele><time>2026-04-26T07:57:40.646Z</time></trkpt><trkpt lat="43.5499333" lon="11.5607533"><ele>140.0</ele><time>2026-04-26T07:57:41.645Z</time></trkpt><trkpt lat="43.5499083" lon="11.5608517"><ele>140.0</ele><time>2026-04-26T07:57:42.647Z</time></trkpt><trkpt lat="43.54988" lon="11.5609533"><ele>140.0</ele><time>2026-04-26T07:57:43.644Z</time></trkpt><trkpt lat="43.5498483" lon="11.5610517"><ele>140.0</ele><time>2026-04-26T07:57:44.646Z</time></trkpt><trkpt lat="43.5498167" lon="11.561155"><ele>140.0</ele><time>2026-04-26T07:57:45.645Z</time></trkpt><trkpt lat="43.5497883" lon="11.5612617"><ele>140.16666666666666</ele><time>2026-04-26T07:57:46.646Z</time></trkpt><trkpt lat="43.5497583" lon="11.5613617"><ele>140.33333333333331</ele><time>2026-04-26T07:57:47.645Z</time></trkpt><trkpt lat="43.5497283" lon="11.5614633"><ele>140.5</ele><time>2026-04-26T07:57:48.645Z</time></trkpt><trkpt lat="43.5496967" lon="11.5615683"><ele>140.66666666666666</ele><time>2026-04-26T07:57:49.644Z</time></trkpt><trkpt lat="43.5496583" lon="11.5616783"><ele>140.83333333333334</ele><time>2026-04-26T07:57:50.646Z</time></trkpt><trkpt lat="43.54962" lon="11.56178"><ele>141.0</ele><time>2026-04-26T07:57:51.646Z</time></trkpt><trkpt lat="43.5495817" lon="11.561875"><ele>140.33333333333334</ele><time>2026-04-26T07:57:52.646Z</time></trkpt><trkpt lat="43.5495367" lon="11.561975"><ele>139.66666666666666</ele><time>2026-04-26T07:57:53.645Z</time></trkpt><trkpt lat="43.5494917" lon="11.56208"><ele>139.0</ele><time>2026-04-26T07:57:54.647Z</time></trkpt><trkpt lat="43.5494517" lon="11.5621817"><ele>138.33333333333331</ele><time>2026-04-26T07:57:55.645Z</time></trkpt><trkpt lat="43.54941" lon="11.5622833"><ele>137.66666666666666</ele><time>2026-04-26T07:57:56.646Z</time></trkpt><trkpt lat="43.5493667" lon="11.5623767"><ele>137.0</ele><time>2026-04-26T07:57:57.645Z</time></trkpt><trkpt lat="43.5493217" lon="11.5624817"><ele>137.0</ele><time>2026-04-26T07:57:58.647Z</time></trkpt><trkpt lat="43.54928" lon="11.5625833"><ele>137.0</ele><time>2026-04-26T07:57:59.646Z</time></trkpt><trkpt lat="43.54924" lon="11.56269"><ele>137.0</ele><time>2026-04-26T07:58:00.646Z</time></trkpt><trkpt lat="43.5492017" lon="11.562795"><ele>137.0</ele><time>2026-04-26T07:58:01.647Z</time></trkpt><trkpt lat="43.5491633" lon="11.5629067"><ele>137.0</ele><time>2026-04-26T07:58:02.646Z</time></trkpt><trkpt lat="43.5491267" lon="11.5630167"><ele>137.0</ele><time>2026-04-26T07:58:03.647Z</time></trkpt><trkpt lat="43.5490883" lon="11.5631217"><ele>137.5</ele><time>2026-04-26T07:58:04.645Z</time></trkpt><trkpt lat="43.5490517" lon="11.563225"><ele>138.0</ele><time>2026-04-26T07:58:05.646Z</time></trkpt><trkpt lat="43.5490133" lon="11.56333"><ele>138.5</ele><time>2026-04-26T07:58:06.645Z</time></trkpt><trkpt lat="43.5489783" lon="11.5634267"><ele>139.0</ele><time>2026-04-26T07:58:07.646Z</time></trkpt><trkpt lat="43.5489433" lon="11.56352"><ele>139.5</ele><time>2026-04-26T07:58:08.645Z</time></trkpt><trkpt lat="43.5489117" lon="11.5636167"><ele>140.0</ele><time>2026-04-26T07:58:09.646Z</time></trkpt><trkpt lat="43.5488733" lon="11.5637117"><ele>140.16666666666666</ele><time>2026-04-26T07:58:10.647Z</time></trkpt><trkpt lat="43.54883" lon="11.563815"><ele>140.33333333333331</ele><time>2026-04-26T07:58:11.646Z</time></trkpt><trkpt lat="43.5487883" lon="11.56392"><ele>140.5</ele><time>2026-04-26T07:58:12.646Z</time></trkpt><trkpt lat="43.54875" lon="11.564025"><ele>140.66666666666666</ele><time>2026-04-26T07:58:13.646Z</time></trkpt><trkpt lat="43.5487117" lon="11.5641283"><ele>140.83333333333334</ele><time>2026-04-26T07:58:14.644Z</time></trkpt><trkpt lat="43.5486683" lon="11.5642367"><ele>141.0</ele><time>2026-04-26T07:58:15.646Z</time></trkpt><trkpt lat="43.548625" lon="11.564345"><ele>140.83333333333334</ele><time>2026-04-26T07:58:16.646Z</time></trkpt><trkpt lat="43.548585" lon="11.564455"><ele>140.66666666666666</ele><time>2026-04-26T07:58:17.645Z</time></trkpt><trkpt lat="43.548545" lon="11.5645617"><ele>140.5</ele><time>2026-04-26T07:58:18.647Z</time></trkpt><trkpt lat="43.548505" lon="11.56467"><ele>140.33333333333331</ele><time>2026-04-26T07:58:19.646Z</time></trkpt><trkpt lat="43.548465" lon="11.5647817"><ele>140.16666666666666</ele><time>2026-04-26T07:58:20.645Z</time></trkpt><trkpt lat="43.5484283" lon="11.5648883"><ele>140.0</ele><time>2026-04-26T07:58:21.646Z</time></trkpt><trkpt lat="43.5483917" lon="11.56499"><ele>140.0</ele><time>2026-04-26T07:58:22.644Z</time></trkpt><trkpt lat="43.5483533" lon="11.56509"><ele>140.0</ele><time>2026-04-26T07:58:23.646Z</time></trkpt><trkpt lat="43.5483133" lon="11.565185"><ele>140.0</ele><time>2026-04-26T07:58:24.645Z</time></trkpt><trkpt lat="43.5482717" lon="11.56528"><ele>140.0</ele><time>2026-04-26T07:58:25.644Z</time></trkpt><trkpt lat="43.5482317" lon="11.56538"><ele>140.0</ele><time>2026-04-26T07:58:26.647Z</time></trkpt><trkpt lat="43.5481883" lon="11.56548"><ele>140.0</ele><time>2026-04-26T07:58:27.646Z</time></trkpt><trkpt lat="43.5481433" lon="11.5655817"><ele>140.16666666666666</ele><time>2026-04-26T07:58:28.646Z</time></trkpt><trkpt lat="43.5481033" lon="11.5656817"><ele>140.33333333333331</ele><time>2026-04-26T07:58:29.646Z</time></trkpt><trkpt lat="43.548065" lon="11.5657883"><ele>140.5</ele><time>2026-04-26T07:58:30.645Z</time></trkpt><trkpt lat="43.5480233" lon="11.5658917"><ele>140.66666666666666</ele><time>2026-04-26T07:58:31.647Z</time></trkpt><trkpt lat="43.5479833" lon="11.5659917"><ele>140.83333333333334</ele><time>2026-04-26T07:58:32.645Z</time></trkpt><trkpt lat="43.547945" lon="11.566095"><ele>141.0</ele><time>2026-04-26T07:58:33.646Z</time></trkpt><trkpt lat="43.5479083" lon="11.5661933"><ele>141.0</ele><time>2026-04-26T07:58:34.646Z</time></trkpt><trkpt lat="43.54787" lon="11.5662867"><ele>141.0</ele><time>2026-04-26T07:58:35.645Z</time></trkpt><trkpt lat="43.5478333" lon="11.5663817"><ele>141.0</ele><time>2026-04-26T07:58:36.646Z</time></trkpt><trkpt lat="43.5477933" lon="11.566475"><ele>141.0</ele><time>2026-04-26T07:58:37.647Z</time></trkpt><trkpt lat="43.547755" lon="11.566575"><ele>141.0</ele><time>2026-04-26T07:58:38.646Z</time></trkpt><trkpt lat="43.5477133" lon="11.5666733"><ele>141.0</ele><time>2026-04-26T07:58:39.644Z</time></trkpt><trkpt lat="43.547675" lon="11.5667683"><ele>141.0</ele><time>2026-04-26T07:58:40.648Z</time></trkpt><trkpt lat="43.5476333" lon="11.5668633"><ele>141.0</ele><time>2026-04-26T07:58:41.646Z</time></trkpt><trkpt lat="43.5475867" lon="11.5669567"><ele>141.0</ele><time>2026-04-26T07:58:42.646Z</time></trkpt><trkpt lat="43.5475433" lon="11.5670533"><ele>141.0</ele><time>2026-04-26T07:58:43.646Z</time></trkpt><trkpt lat="43.5475033" lon="11.5671517"><ele>141.0</ele><time>2026-04-26T07:58:44.645Z</time></trkpt><trkpt lat="43.547465" lon="11.56725"><ele>141.0</ele><time>2026-04-26T07:58:45.646Z</time></trkpt><trkpt lat="43.5474267" lon="11.5673517"><ele>141.0</ele><time>2026-04-26T07:58:46.645Z</time></trkpt><trkpt lat="43.547385" lon="11.5674617"><ele>141.0</ele><time>2026-04-26T07:58:47.646Z</time></trkpt><trkpt lat="43.547345" lon="11.56757"><ele>141.0</ele><time>2026-04-26T07:58:48.646Z</time></trkpt><trkpt lat="43.5473017" lon="11.5676717"><ele>141.0</ele><time>2026-04-26T07:58:49.646Z</time></trkpt><trkpt lat="43.5472583" lon="11.56778"><ele>141.0</ele><time>2026-04-26T07:58:50.645Z</time></trkpt><trkpt lat="43.5472183" lon="11.5678867"><ele>141.0</ele><time>2026-04-26T07:58:51.645Z</time></trkpt><trkpt lat="43.5471917" lon="11.568005"><ele>141.0</ele><time>2026-04-26T07:58:52.645Z</time></trkpt><trkpt lat="43.5471533" lon="11.568105"><ele>141.0</ele><time>2026-04-26T07:58:53.645Z</time></trkpt><trkpt lat="43.5471133" lon="11.5682067"><ele>141.0</ele><time>2026-04-26T07:58:54.647Z</time></trkpt><trkpt lat="43.5470717" lon="11.56831"><ele>141.0</ele><time>2026-04-26T07:58:55.645Z</time></trkpt><trkpt lat="43.54703" lon="11.5684283"><ele>141.0</ele><time>2026-04-26T07:58:56.648Z</time></trkpt><trkpt lat="43.5469883" lon="11.56853"><ele>141.0</ele><time>2026-04-26T07:58:57.644Z</time></trkpt><trkpt lat="43.546945" lon="11.5686267"><ele>140.83333333333334</ele><time>2026-04-26T07:58:58.644Z</time></trkpt><trkpt lat="43.546905" lon="11.5687317"><ele>140.66666666666666</ele><time>2026-04-26T07:58:59.645Z</time></trkpt><trkpt lat="43.5468667" lon="11.568835"><ele>140.5</ele><time>2026-04-26T07:59:00.646Z</time></trkpt><trkpt lat="43.5468283" lon="11.56894"><ele>140.33333333333331</ele><time>2026-04-26T07:59:01.647Z</time></trkpt><trkpt lat="43.5467883" lon="11.5690483"><ele>140.16666666666666</ele><time>2026-04-26T07:59:02.647Z</time></trkpt><trkpt lat="43.5467517" lon="11.5691733"><ele>140.0</ele><time>2026-04-26T07:59:03.645Z</time></trkpt><trkpt lat="43.5467183" lon="11.569285"><ele>140.0</ele><time>2026-04-26T07:59:04.645Z</time></trkpt><trkpt lat="43.5466817" lon="11.569385"><ele>140.0</ele><time>2026-04-26T07:59:05.645Z</time></trkpt><trkpt lat="43.5466417" lon="11.5694833"><ele>140.0</ele><time>2026-04-26T07:59:06.643Z</time></trkpt><trkpt lat="43.5466017" lon="11.5695933"><ele>140.0</ele><time>2026-04-26T07:59:07.644Z</time></trkpt><trkpt lat="43.5465683" lon="11.5696917"><ele>140.0</ele><time>2026-04-26T07:59:08.646Z</time></trkpt><trkpt lat="43.5465383" lon="11.5697983"><ele>140.0</ele><time>2026-04-26T07:59:09.644Z</time></trkpt><trkpt lat="43.546505" lon="11.5699067"><ele>140.33333333333331</ele><time>2026-04-26T07:59:10.644Z</time></trkpt><trkpt lat="43.5464667" lon="11.570015"><ele>140.66666666666666</ele><time>2026-04-26T07:59:11.645Z</time></trkpt><trkpt lat="43.5464317" lon="11.5701217"><ele>141.0</ele><time>2026-04-26T07:59:12.646Z</time></trkpt><trkpt lat="43.546395" lon="11.5702317"><ele>141.33333333333334</ele><time>2026-04-26T07:59:13.644Z</time></trkpt><trkpt lat="43.5463617" lon="11.5703433"><ele>141.66666666666669</ele><time>2026-04-26T07:59:14.646Z</time></trkpt><trkpt lat="43.5463217" lon="11.5704483"><ele>142.0</ele><time>2026-04-26T07:59:15.644Z</time></trkpt><trkpt lat="43.54628" lon="11.5705483"><ele>142.16666666666669</ele><time>2026-04-26T07:59:16.643Z</time></trkpt><trkpt lat="43.5462367" lon="11.5706383"><ele>142.33333333333334</ele><time>2026-04-26T07:59:17.644Z</time></trkpt><trkpt lat="43.546185" lon="11.57072"><ele>142.5</ele><time>2026-04-26T07:59:18.646Z</time></trkpt><trkpt lat="43.5461317" lon="11.5707883"><ele>142.66666666666666</ele><time>2026-04-26T07:59:19.644Z</time></trkpt><trkpt lat="43.5460683" lon="11.570855"><ele>142.83333333333331</ele><time>2026-04-26T07:59:20.644Z</time></trkpt><trkpt lat="43.546005" lon="11.5709133"><ele>143.0</ele><time>2026-04-26T07:59:21.642Z</time></trkpt><trkpt lat="43.545935" lon="11.5709533"><ele>142.5</ele><time>2026-04-26T07:59:22.647Z</time></trkpt><trkpt lat="43.5458683" lon="11.57098"><ele>142.0</ele><time>2026-04-26T07:59:23.644Z</time></trkpt><trkpt lat="43.5458017" lon="11.5709733"><ele>141.5</ele><time>2026-04-26T07:59:24.644Z</time></trkpt><trkpt lat="43.5457233" lon="11.5709683"><ele>141.0</ele><time>2026-04-26T07:59:25.644Z</time></trkpt><trkpt lat="43.5456417" lon="11.570965"><ele>140.5</ele><time>2026-04-26T07:59:26.643Z</time></trkpt><trkpt lat="43.5455617" lon="11.5709617"><ele>140.0</ele><time>2026-04-26T07:59:27.644Z</time></trkpt><trkpt lat="43.54548" lon="11.5709617"><ele>140.0</ele><time>2026-04-26T07:59:28.645Z</time></trkpt><trkpt lat="43.5454" lon="11.5709633"><ele>140.0</ele><time>2026-04-26T07:59:29.645Z</time></trkpt><trkpt lat="43.5453167" lon="11.5709733"><ele>140.0</ele><time>2026-04-26T07:59:30.644Z</time></trkpt><trkpt lat="43.5452333" lon="11.57099"><ele>140.0</ele><time>2026-04-26T07:59:31.643Z</time></trkpt><trkpt lat="43.5451483" lon="11.5710067"><ele>140.0</ele><time>2026-04-26T07:59:32.644Z</time></trkpt><trkpt lat="43.5450583" lon="11.5710183"><ele>140.0</ele><time>2026-04-26T07:59:33.643Z</time></trkpt><trkpt lat="43.5449717" lon="11.5710467"><ele>140.2</ele><time>2026-04-26T07:59:34.644Z</time></trkpt><trkpt lat="43.544885" lon="11.5710833"><ele>140.4</ele><time>2026-04-26T07:59:35.644Z</time></trkpt><trkpt lat="43.5448" lon="11.5711217"><ele>140.6</ele><time>2026-04-26T07:59:36.644Z</time></trkpt><trkpt lat="43.5447117" lon="11.5711633"><ele>140.8</ele><time>2026-04-26T07:59:37.645Z</time></trkpt><trkpt lat="43.5446267" lon="11.57121"><ele>141.0</ele><time>2026-04-26T07:59:38.646Z</time></trkpt><trkpt lat="43.5445417" lon="11.5712583"><ele>141.0</ele><time>2026-04-26T07:59:39.643Z</time></trkpt><trkpt lat="43.5444583" lon="11.5712917"><ele>141.0</ele><time>2026-04-26T07:59:40.643Z</time></trkpt><trkpt lat="43.54437" lon="11.5713017"><ele>141.0</ele><time>2026-04-26T07:59:41.643Z</time></trkpt><trkpt lat="43.5442917" lon="11.5712983"><ele>141.0</ele><time>2026-04-26T07:59:42.644Z</time></trkpt><trkpt lat="43.544205" lon="11.5712567"><ele>141.0</ele><time>2026-04-26T07:59:43.644Z</time></trkpt><trkpt lat="43.5441317" lon="11.5712017"><ele>141.0</ele><time>2026-04-26T07:59:44.646Z</time></trkpt><trkpt lat="43.5440683" lon="11.5711133"><ele>141.0</ele><time>2026-04-26T07:59:45.643Z</time></trkpt><trkpt lat="43.5440133" lon="11.5710217"><ele>141.0</ele><time>2026-04-26T07:59:46.644Z</time></trkpt><trkpt lat="43.5439583" lon="11.570925"><ele>141.0</ele><time>2026-04-26T07:59:47.644Z</time></trkpt><trkpt lat="43.5439067" lon="11.5708367"><ele>141.0</ele><time>2026-04-26T07:59:48.643Z</time></trkpt><trkpt lat="43.543855" lon="11.5707483"><ele>141.0</ele><time>2026-04-26T07:59:49.644Z</time></trkpt><trkpt lat="43.5438017" lon="11.5706567"><ele>141.0</ele><time>2026-04-26T07:59:50.644Z</time></trkpt><trkpt lat="43.543755" lon="11.570565"><ele>140.83333333333334</ele><time>2026-04-26T07:59:51.643Z</time></trkpt><trkpt lat="43.543705" lon="11.570475"><ele>140.66666666666666</ele><time>2026-04-26T07:59:52.643Z</time></trkpt><trkpt lat="43.5436533" lon="11.5703867"><ele>140.5</ele><time>2026-04-26T07:59:53.643Z</time></trkpt><trkpt lat="43.5436033" lon="11.5702983"><ele>140.33333333333331</ele><time>2026-04-26T07:59:54.643Z</time></trkpt><trkpt lat="43.5435517" lon="11.57021"><ele>140.16666666666666</ele><time>2026-04-26T07:59:55.643Z</time></trkpt><trkpt lat="43.5434983" lon="11.5701267"><ele>140.0</ele><time>2026-04-26T07:59:56.645Z</time></trkpt><trkpt lat="43.54345" lon="11.570045"><ele>140.0</ele><time>2026-04-26T07:59:57.643Z</time></trkpt><trkpt lat="43.5434033" lon="11.5699617"><ele>140.0</ele><time>2026-04-26T07:59:58.643Z</time></trkpt><trkpt lat="43.543355" lon="11.569885"><ele>140.0</ele><time>2026-04-26T07:59:59.643Z</time></trkpt><trkpt lat="43.5432983" lon="11.569835"><ele>140.0</ele><time>2026-04-26T08:00:00.645Z</time></trkpt><trkpt lat="43.5432267" lon="11.5698217"><ele>140.0</ele><time>2026-04-26T08:00:01.643Z</time></trkpt><trkpt lat="43.543155" lon="11.5698417"><ele>140.0</ele><time>2026-04-26T08:00:02.644Z</time></trkpt><trkpt lat="43.54309" lon="11.5698917"><ele>140.0</ele><time>2026-04-26T08:00:03.644Z</time></trkpt><trkpt lat="43.5430233" lon="11.5699517"><ele>140.0</ele><time>2026-04-26T08:00:04.643Z</time></trkpt><trkpt lat="43.542955" lon="11.5700083"><ele>140.0</ele><time>2026-04-26T08:00:05.644Z</time></trkpt><trkpt lat="43.5428917" lon="11.570075"><ele>140.0</ele><time>2026-04-26T08:00:06.644Z</time></trkpt><trkpt lat="43.5428317" lon="11.570145"><ele>140.0</ele><time>2026-04-26T08:00:07.643Z</time></trkpt><trkpt lat="43.5427667" lon="11.5702167"><ele>140.0</ele><time>2026-04-26T08:00:08.644Z</time></trkpt><trkpt lat="43.5427" lon="11.5702933"><ele>140.0</ele><time>2026-04-26T08:00:09.643Z</time></trkpt><trkpt lat="43.5426367" lon="11.57037"><ele>140.16666666666666</ele><time>2026-04-26T08:00:10.645Z</time></trkpt><trkpt lat="43.54257" lon="11.57045"><ele>140.33333333333331</ele><time>2026-04-26T08:00:11.644Z</time></trkpt><trkpt lat="43.542505" lon="11.570535"><ele>140.5</ele><time>2026-04-26T08:00:12.646Z</time></trkpt><trkpt lat="43.54244" lon="11.570615"><ele>140.66666666666666</ele><time>2026-04-26T08:00:13.644Z</time></trkpt><trkpt lat="43.5423717" lon="11.5706967"><ele>140.83333333333334</ele><time>2026-04-26T08:00:14.646Z</time></trkpt><trkpt lat="43.542305" lon="11.57078"><ele>141.0</ele><time>2026-04-26T08:00:15.643Z</time></trkpt><trkpt lat="43.5422317" lon="11.5708483"><ele>141.0</ele><time>2026-04-26T08:00:16.646Z</time></trkpt><trkpt lat="43.5421567" lon="11.5709083"><ele>141.0</ele><time>2026-04-26T08:00:17.646Z</time></trkpt><trkpt lat="43.5420767" lon="11.5709333"><ele>141.0</ele><time>2026-04-26T08:00:18.647Z</time></trkpt><trkpt lat="43.5419917" lon="11.5709283"><ele>141.0</ele><time>2026-04-26T08:00:19.644Z</time></trkpt><trkpt lat="43.5419017" lon="11.5709017"><ele>141.0</ele><time>2026-04-26T08:00:20.645Z</time></trkpt><trkpt lat="43.5418133" lon="11.570875"><ele>141.0</ele><time>2026-04-26T08:00:21.646Z</time></trkpt><trkpt lat="43.5417233" lon="11.5708417"><ele>140.6</ele><time>2026-04-26T08:00:22.646Z</time></trkpt><trkpt lat="43.5416333" lon="11.57081"><ele>140.2</ele><time>2026-04-26T08:00:23.644Z</time></trkpt><trkpt lat="43.541545" lon="11.5707767"><ele>139.8</ele><time>2026-04-26T08:00:24.646Z</time></trkpt><trkpt lat="43.541455" lon="11.570745"><ele>139.4</ele><time>2026-04-26T08:00:25.645Z</time></trkpt><trkpt lat="43.541365" lon="11.5707117"><ele>139.0</ele><time>2026-04-26T08:00:26.644Z</time></trkpt><trkpt lat="43.5412783" lon="11.5706867"><ele>139.5</ele><time>2026-04-26T08:00:27.644Z</time></trkpt><trkpt lat="43.54119" lon="11.5706633"><ele>140.0</ele><time>2026-04-26T08:00:28.646Z</time></trkpt><trkpt lat="43.541105" lon="11.5706433"><ele>140.5</ele><time>2026-04-26T08:00:29.645Z</time></trkpt><trkpt lat="43.5410217" lon="11.570625"><ele>141.0</ele><time>2026-04-26T08:00:30.645Z</time></trkpt><trkpt lat="43.5409383" lon="11.570605"><ele>141.5</ele><time>2026-04-26T08:00:31.644Z</time></trkpt><trkpt lat="43.5408567" lon="11.57059"><ele>142.0</ele><time>2026-04-26T08:00:32.645Z</time></trkpt><trkpt lat="43.5407767" lon="11.570575"><ele>142.0</ele><time>2026-04-26T08:00:33.644Z</time></trkpt><trkpt lat="43.540695" lon="11.57055"><ele>142.0</ele><time>2026-04-26T08:00:34.646Z</time></trkpt><trkpt lat="43.540615" lon="11.5705167"><ele>142.0</ele><time>2026-04-26T08:00:35.645Z</time></trkpt><trkpt lat="43.5405367" lon="11.5704667"><ele>142.0</ele><time>2026-04-26T08:00:36.646Z</time></trkpt><trkpt lat="43.54046" lon="11.5704167"><ele>142.0</ele><time>2026-04-26T08:00:37.645Z</time></trkpt><trkpt lat="43.5403933" lon="11.57036"><ele>142.0</ele><time>2026-04-26T08:00:38.644Z</time></trkpt><trkpt lat="43.5403233" lon="11.570315"><ele>141.83333333333334</ele><time>2026-04-26T08:00:39.644Z</time></trkpt><trkpt lat="43.5402433" lon="11.5703033"><ele>141.66666666666669</ele><time>2026-04-26T08:00:40.645Z</time></trkpt><trkpt lat="43.5401683" lon="11.570335"><ele>141.5</ele><time>2026-04-26T08:00:41.644Z</time></trkpt><trkpt lat="43.5401133" lon="11.57042"><ele>141.33333333333334</ele><time>2026-04-26T08:00:42.645Z</time></trkpt><trkpt lat="43.5400633" lon="11.5705117"><ele>141.16666666666666</ele><time>2026-04-26T08:00:43.646Z</time></trkpt><trkpt lat="43.5400067" lon="11.5706"><ele>141.0</ele><time>2026-04-26T08:00:44.645Z</time></trkpt><trkpt lat="43.5399333" lon="11.570665"><ele>141.0</ele><time>2026-04-26T08:00:45.645Z</time></trkpt><trkpt lat="43.5398567" lon="11.5707217"><ele>141.0</ele><time>2026-04-26T08:00:46.645Z</time></trkpt><trkpt lat="43.5397833" lon="11.5707817"><ele>141.0</ele><time>2026-04-26T08:00:47.644Z</time></trkpt><trkpt lat="43.5397183" lon="11.570855"><ele>141.0</ele><time>2026-04-26T08:00:48.645Z</time></trkpt><trkpt lat="43.5396583" lon="11.570935"><ele>141.0</ele><time>2026-04-26T08:00:49.645Z</time></trkpt><trkpt lat="43.5396" lon="11.57102"><ele>141.0</ele><time>2026-04-26T08:00:50.646Z</time></trkpt><trkpt lat="43.5395467" lon="11.57111"><ele>140.66666666666666</ele><time>2026-04-26T08:00:51.644Z</time></trkpt><trkpt lat="43.5394917" lon="11.5711983"><ele>140.33333333333334</ele><time>2026-04-26T08:00:52.643Z</time></trkpt><trkpt lat="43.539435" lon="11.5712833"><ele>140.0</ele><time>2026-04-26T08:00:53.644Z</time></trkpt><trkpt lat="43.5393783" lon="11.5713683"><ele>139.66666666666669</ele><time>2026-04-26T08:00:54.645Z</time></trkpt><trkpt lat="43.53932" lon="11.5714583"><ele>139.33333333333334</ele><time>2026-04-26T08:00:55.646Z</time></trkpt><trkpt lat="43.5392617" lon="11.5715483"><ele>139.0</ele><time>2026-04-26T08:00:56.645Z</time></trkpt><trkpt lat="43.539205" lon="11.571645"><ele>139.0</ele><time>2026-04-26T08:00:57.645Z</time></trkpt><trkpt lat="43.539145" lon="11.5717383"><ele>139.0</ele><time>2026-04-26T08:00:58.645Z</time></trkpt><trkpt lat="43.5390917" lon="11.57183"><ele>139.0</ele><time>2026-04-26T08:00:59.648Z</time></trkpt><trkpt lat="43.539035" lon="11.5719183"><ele>139.0</ele><time>2026-04-26T08:01:00.645Z</time></trkpt><trkpt lat="43.5389783" lon="11.5720117"><ele>139.0</ele><time>2026-04-26T08:01:01.645Z</time></trkpt><trkpt lat="43.5389217" lon="11.5721033"><ele>139.0</ele><time>2026-04-26T08:01:02.647Z</time></trkpt><trkpt lat="43.5388667" lon="11.5721917"><ele>139.5</ele><time>2026-04-26T08:01:03.646Z</time></trkpt><trkpt lat="43.5388133" lon="11.5722833"><ele>140.0</ele><time>2026-04-26T08:01:04.647Z</time></trkpt><trkpt lat="43.53876" lon="11.572375"><ele>140.5</ele><time>2026-04-26T08:01:05.646Z</time></trkpt><trkpt lat="43.538705" lon="11.5724667"><ele>141.0</ele><time>2026-04-26T08:01:06.645Z</time></trkpt><trkpt lat="43.53865" lon="11.572555"><ele>141.5</ele><time>2026-04-26T08:01:07.645Z</time></trkpt><trkpt lat="43.5385967" lon="11.5726467"><ele>142.0</ele><time>2026-04-26T08:01:08.648Z</time></trkpt><trkpt lat="43.538545" lon="11.5727417"><ele>142.0</ele><time>2026-04-26T08:01:09.646Z</time></trkpt><trkpt lat="43.5384917" lon="11.572835"><ele>142.0</ele><time>2026-04-26T08:01:10.645Z</time></trkpt><trkpt lat="43.5384367" lon="11.5729317"><ele>142.0</ele><time>2026-04-26T08:01:11.645Z</time></trkpt><trkpt lat="43.5383817" lon="11.5730217"><ele>142.0</ele><time>2026-04-26T08:01:12.646Z</time></trkpt><trkpt lat="43.5383267" lon="11.5731117"><ele>142.0</ele><time>2026-04-26T08:01:13.645Z</time></trkpt><trkpt lat="43.538275" lon="11.5732083"><ele>142.0</ele><time>2026-04-26T08:01:14.646Z</time></trkpt><trkpt lat="43.5382233" lon="11.5733067"><ele>142.0</ele><time>2026-04-26T08:01:15.644Z</time></trkpt><trkpt lat="43.538175" lon="11.5734"><ele>142.0</ele><time>2026-04-26T08:01:16.644Z</time></trkpt><trkpt lat="43.5381233" lon="11.573495"><ele>142.0</ele><time>2026-04-26T08:01:17.645Z</time></trkpt><trkpt lat="43.53807" lon="11.5735883"><ele>142.0</ele><time>2026-04-26T08:01:18.643Z</time></trkpt><trkpt lat="43.5380167" lon="11.5736817"><ele>142.0</ele><time>2026-04-26T08:01:19.642Z</time></trkpt><trkpt lat="43.5379617" lon="11.5737767"><ele>142.0</ele><time>2026-04-26T08:01:20.642Z</time></trkpt><trkpt lat="43.5379067" lon="11.5738683"><ele>142.16666666666669</ele><time>2026-04-26T08:01:21.643Z</time></trkpt><trkpt lat="43.5378533" lon="11.573965"><ele>142.33333333333334</ele><time>2026-04-26T08:01:22.642Z</time></trkpt><trkpt lat="43.5377983" lon="11.5740633"><ele>142.5</ele><time>2026-04-26T08:01:23.642Z</time></trkpt><trkpt lat="43.537745" lon="11.57416"><ele>142.66666666666666</ele><time>2026-04-26T08:01:24.642Z</time></trkpt><trkpt lat="43.5376933" lon="11.574255"><ele>142.83333333333331</ele><time>2026-04-26T08:01:25.643Z</time></trkpt><trkpt lat="43.5376433" lon="11.5743533"><ele>143.0</ele><time>2026-04-26T08:01:26.643Z</time></trkpt><trkpt lat="43.537595" lon="11.5744433"><ele>142.66666666666666</ele><time>2026-04-26T08:01:27.645Z</time></trkpt><trkpt lat="43.5375433" lon="11.574535"><ele>142.33333333333331</ele><time>2026-04-26T08:01:28.645Z</time></trkpt><trkpt lat="43.5374917" lon="11.5746267"><ele>142.0</ele><time>2026-04-26T08:01:29.644Z</time></trkpt><trkpt lat="43.5374417" lon="11.5747183"><ele>141.66666666666666</ele><time>2026-04-26T08:01:30.645Z</time></trkpt><trkpt lat="43.5373933" lon="11.5748083"><ele>141.33333333333334</ele><time>2026-04-26T08:01:31.647Z</time></trkpt><trkpt lat="43.53734" lon="11.5749017"><ele>141.0</ele><time>2026-04-26T08:01:32.645Z</time></trkpt><trkpt lat="43.5372867" lon="11.574995"><ele>141.0</ele><time>2026-04-26T08:01:33.647Z</time></trkpt><trkpt lat="43.537235" lon="11.5750867"><ele>141.0</ele><time>2026-04-26T08:01:34.645Z</time></trkpt><trkpt lat="43.537185" lon="11.5751783"><ele>141.0</ele><time>2026-04-26T08:01:35.645Z</time></trkpt><trkpt lat="43.537135" lon="11.5752683"><ele>141.0</ele><time>2026-04-26T08:01:36.646Z</time></trkpt><trkpt lat="43.5370883" lon="11.5753583"><ele>141.0</ele><time>2026-04-26T08:01:37.645Z</time></trkpt><trkpt lat="43.5370383" lon="11.5754483"><ele>141.0</ele><time>2026-04-26T08:01:38.645Z</time></trkpt><trkpt lat="43.53699" lon="11.5755417"><ele>141.0</ele><time>2026-04-26T08:01:39.645Z</time></trkpt><trkpt lat="43.5369433" lon="11.5756383"><ele>141.0</ele><time>2026-04-26T08:01:40.645Z</time></trkpt><trkpt lat="43.536895" lon="11.5757367"><ele>141.0</ele><time>2026-04-26T08:01:41.645Z</time></trkpt><trkpt lat="43.5368417" lon="11.5758333"><ele>141.0</ele><time>2026-04-26T08:01:42.646Z</time></trkpt><trkpt lat="43.5367883" lon="11.5759283"><ele>141.0</ele><time>2026-04-26T08:01:43.645Z</time></trkpt><trkpt lat="43.5367367" lon="11.576025"><ele>141.0</ele><time>2026-04-26T08:01:44.645Z</time></trkpt><trkpt lat="43.536685" lon="11.5761283"><ele>141.2</ele><time>2026-04-26T08:01:45.648Z</time></trkpt><trkpt lat="43.5366283" lon="11.5762267"><ele>141.39999999999998</ele><time>2026-04-26T08:01:46.647Z</time></trkpt><trkpt lat="43.5365733" lon="11.5763233"><ele>141.6</ele><time>2026-04-26T08:01:47.645Z</time></trkpt><trkpt lat="43.5365183" lon="11.5764217"><ele>141.79999999999998</ele><time>2026-04-26T08:01:48.645Z</time></trkpt><trkpt lat="43.5364617" lon="11.5765183"><ele>142.0</ele><time>2026-04-26T08:01:49.645Z</time></trkpt><trkpt lat="43.5364033" lon="11.5766133"><ele>142.0</ele><time>2026-04-26T08:01:50.645Z</time></trkpt><trkpt lat="43.5363483" lon="11.5767167"><ele>142.0</ele><time>2026-04-26T08:01:51.645Z</time></trkpt><trkpt lat="43.53629" lon="11.5768167"><ele>142.0</ele><time>2026-04-26T08:01:52.644Z</time></trkpt><trkpt lat="43.53623" lon="11.5769133"><ele>142.0</ele><time>2026-04-26T08:01:53.645Z</time></trkpt><trkpt lat="43.5361783" lon="11.577015"><ele>142.0</ele><time>2026-04-26T08:01:54.646Z</time></trkpt><trkpt lat="43.53612" lon="11.5771133"><ele>141.79999999999998</ele><time>2026-04-26T08:01:55.646Z</time></trkpt><trkpt lat="43.5360667" lon="11.577215"><ele>141.6</ele><time>2026-04-26T08:01:56.646Z</time></trkpt><trkpt lat="43.5360117" lon="11.5773167"><ele>141.39999999999998</ele><time>2026-04-26T08:01:57.644Z</time></trkpt><trkpt lat="43.53596" lon="11.577425"><ele>141.2</ele><time>2026-04-26T08:01:58.645Z</time></trkpt><trkpt lat="43.5359017" lon="11.577525"><ele>141.0</ele><time>2026-04-26T08:01:59.644Z</time></trkpt><trkpt lat="43.53584" lon="11.5776233"><ele>141.0</ele><time>2026-04-26T08:02:00.644Z</time></trkpt><trkpt lat="43.5357833" lon="11.5777267"><ele>141.0</ele><time>2026-04-26T08:02:01.646Z</time></trkpt><trkpt lat="43.535725" lon="11.577825"><ele>141.0</ele><time>2026-04-26T08:02:02.644Z</time></trkpt><trkpt lat="43.5356667" lon="11.5779217"><ele>141.0</ele><time>2026-04-26T08:02:03.648Z</time></trkpt><trkpt lat="43.5356117" lon="11.57802"><ele>141.0</ele><time>2026-04-26T08:02:04.645Z</time></trkpt><trkpt lat="43.5355533" lon="11.5781167"><ele>141.0</ele><time>2026-04-26T08:02:05.645Z</time></trkpt><trkpt lat="43.5354967" lon="11.578215"><ele>141.0</ele><time>2026-04-26T08:02:06.645Z</time></trkpt><trkpt lat="43.5354367" lon="11.5783117"><ele>141.0</ele><time>2026-04-26T08:02:07.645Z</time></trkpt><trkpt lat="43.53538" lon="11.578415"><ele>141.0</ele><time>2026-04-26T08:02:08.647Z</time></trkpt><trkpt lat="43.5353233" lon="11.5785167"><ele>141.0</ele><time>2026-04-26T08:02:09.647Z</time></trkpt><trkpt lat="43.5352667" lon="11.578615"><ele>141.0</ele><time>2026-04-26T08:02:10.645Z</time></trkpt><trkpt lat="43.53521" lon="11.578715"><ele>141.0</ele><time>2026-04-26T08:02:11.646Z</time></trkpt><trkpt lat="43.5351533" lon="11.5788133"><ele>141.0</ele><time>2026-04-26T08:02:12.645Z</time></trkpt><trkpt lat="43.5350967" lon="11.5789133"><ele>141.0</ele><time>2026-04-26T08:02:13.646Z</time></trkpt><trkpt lat="43.5350417" lon="11.579015"><ele>141.0</ele><time>2026-04-26T08:02:14.647Z</time></trkpt><trkpt lat="43.53499" lon="11.5791167"><ele>141.0</ele><time>2026-04-26T08:02:15.645Z</time></trkpt><trkpt lat="43.5349367" lon="11.5792117"><ele>141.0</ele><time>2026-04-26T08:02:16.646Z</time></trkpt><trkpt lat="43.5348833" lon="11.57931"><ele>141.0</ele><time>2026-04-26T08:02:17.645Z</time></trkpt><trkpt lat="43.53483" lon="11.5794067"><ele>141.0</ele><time>2026-04-26T08:02:18.645Z</time></trkpt><trkpt lat="43.534775" lon="11.5795067"><ele>141.0</ele><time>2026-04-26T08:02:19.646Z</time></trkpt><trkpt lat="43.5347183" lon="11.5796067"><ele>141.0</ele><time>2026-04-26T08:02:20.645Z</time></trkpt><trkpt lat="43.5346617" lon="11.57971"><ele>141.4</ele><time>2026-04-26T08:02:21.645Z</time></trkpt><trkpt lat="43.534605" lon="11.57981"><ele>141.8</ele><time>2026-04-26T08:02:22.646Z</time></trkpt><trkpt lat="43.5345467" lon="11.57991"><ele>142.20000000000002</ele><time>2026-04-26T08:02:23.646Z</time></trkpt><trkpt lat="43.53449" lon="11.5800083"><ele>142.6</ele><time>2026-04-26T08:02:24.645Z</time></trkpt><trkpt lat="43.5344333" lon="11.5801067"><ele>143.0</ele><time>2026-04-26T08:02:25.648Z</time></trkpt><trkpt lat="43.53437" lon="11.5802017"><ele>143.0</ele><time>2026-04-26T08:02:26.645Z</time></trkpt><trkpt lat="43.5343083" lon="11.580295"><ele>143.0</ele><time>2026-04-26T08:02:27.645Z</time></trkpt><trkpt lat="43.5342483" lon="11.5803867"><ele>143.0</ele><time>2026-04-26T08:02:28.645Z</time></trkpt><trkpt lat="43.5341933" lon="11.5804817"><ele>143.0</ele><time>2026-04-26T08:02:29.644Z</time></trkpt><trkpt lat="43.5341367" lon="11.5805733"><ele>143.0</ele><time>2026-04-26T08:02:30.645Z</time></trkpt><trkpt lat="43.53408" lon="11.580665"><ele>143.0</ele><time>2026-04-26T08:02:31.645Z</time></trkpt><trkpt lat="43.5340217" lon="11.5807583"><ele>143.0</ele><time>2026-04-26T08:02:32.645Z</time></trkpt><trkpt lat="43.53397" lon="11.580855"><ele>143.0</ele><time>2026-04-26T08:02:33.646Z</time></trkpt><trkpt lat="43.5339167" lon="11.5809533"><ele>143.0</ele><time>2026-04-26T08:02:34.645Z</time></trkpt><trkpt lat="43.5338617" lon="11.5810483"><ele>143.0</ele><time>2026-04-26T08:02:35.646Z</time></trkpt><trkpt lat="43.5338083" lon="11.5811417"><ele>143.0</ele><time>2026-04-26T08:02:36.645Z</time></trkpt><trkpt lat="43.5337617" lon="11.581235"><ele>143.0</ele><time>2026-04-26T08:02:37.646Z</time></trkpt><trkpt lat="43.5337117" lon="11.5813333"><ele>142.66666666666666</ele><time>2026-04-26T08:02:38.646Z</time></trkpt><trkpt lat="43.5336617" lon="11.58143"><ele>142.33333333333331</ele><time>2026-04-26T08:02:39.645Z</time></trkpt><trkpt lat="43.53361" lon="11.5815283"><ele>142.0</ele><time>2026-04-26T08:02:40.645Z</time></trkpt><trkpt lat="43.53356" lon="11.5816233"><ele>141.66666666666666</ele><time>2026-04-26T08:02:41.647Z</time></trkpt><trkpt lat="43.5335133" lon="11.5817217"><ele>141.33333333333334</ele><time>2026-04-26T08:02:42.645Z</time></trkpt><trkpt lat="43.5334633" lon="11.5818183"><ele>141.0</ele><time>2026-04-26T08:02:43.645Z</time></trkpt><trkpt lat="43.533415" lon="11.5819167"><ele>141.0</ele><time>2026-04-26T08:02:44.643Z</time></trkpt><trkpt lat="43.5333667" lon="11.5820133"><ele>141.0</ele><time>2026-04-26T08:02:45.645Z</time></trkpt><trkpt lat="43.5333167" lon="11.58211"><ele>141.0</ele><time>2026-04-26T08:02:46.644Z</time></trkpt><trkpt lat="43.53327" lon="11.582205"><ele>141.0</ele><time>2026-04-26T08:02:47.647Z</time></trkpt><trkpt lat="43.5332233" lon="11.5823067"><ele>141.0</ele><time>2026-04-26T08:02:48.647Z</time></trkpt><trkpt lat="43.5331783" lon="11.58241"><ele>141.0</ele><time>2026-04-26T08:02:49.644Z</time></trkpt><trkpt lat="43.53313" lon="11.5825067"><ele>141.33333333333334</ele><time>2026-04-26T08:02:50.646Z</time></trkpt><trkpt lat="43.5330817" lon="11.5826017"><ele>141.66666666666666</ele><time>2026-04-26T08:02:51.647Z</time></trkpt><trkpt lat="43.5330317" lon="11.5827"><ele>142.0</ele><time>2026-04-26T08:02:52.645Z</time></trkpt><trkpt lat="43.5329767" lon="11.5827917"><ele>142.33333333333331</ele><time>2026-04-26T08:02:53.645Z</time></trkpt><trkpt lat="43.532925" lon="11.5828867"><ele>142.66666666666666</ele><time>2026-04-26T08:02:54.647Z</time></trkpt><trkpt lat="43.5328767" lon="11.5829833"><ele>143.0</ele><time>2026-04-26T08:02:55.645Z</time></trkpt><trkpt lat="43.5328283" lon="11.5830767"><ele>143.0</ele><time>2026-04-26T08:02:56.646Z</time></trkpt><trkpt lat="43.532775" lon="11.58317"><ele>143.0</ele><time>2026-04-26T08:02:57.645Z</time></trkpt><trkpt lat="43.5327233" lon="11.583265"><ele>143.0</ele><time>2026-04-26T08:02:58.646Z</time></trkpt><trkpt lat="43.5326717" lon="11.5833567"><ele>143.0</ele><time>2026-04-26T08:02:59.645Z</time></trkpt><trkpt lat="43.53262" lon="11.58345"><ele>143.0</ele><time>2026-04-26T08:03:00.647Z</time></trkpt><trkpt lat="43.53257" lon="11.5835467"><ele>143.0</ele><time>2026-04-26T08:03:01.646Z</time></trkpt><trkpt lat="43.5325217" lon="11.58365"><ele>143.0</ele><time>2026-04-26T08:03:02.645Z</time></trkpt><trkpt lat="43.5324683" lon="11.5837483"><ele>143.0</ele><time>2026-04-26T08:03:03.644Z</time></trkpt><trkpt lat="43.5324183" lon="11.5838467"><ele>143.0</ele><time>2026-04-26T08:03:04.646Z</time></trkpt><trkpt lat="43.5323633" lon="11.5839417"><ele>143.0</ele><time>2026-04-26T08:03:05.645Z</time></trkpt><trkpt lat="43.532315" lon="11.58404"><ele>143.0</ele><time>2026-04-26T08:03:06.645Z</time></trkpt><trkpt lat="43.53226" lon="11.5841367"><ele>143.0</ele><time>2026-04-26T08:03:07.644Z</time></trkpt><trkpt lat="43.53221" lon="11.58423"><ele>143.0</ele><time>2026-04-26T08:03:08.646Z</time></trkpt><trkpt lat="43.53216" lon="11.5843217"><ele>143.0</ele><time>2026-04-26T08:03:09.646Z</time></trkpt><trkpt lat="43.5321067" lon="11.5844117"><ele>143.0</ele><time>2026-04-26T08:03:10.644Z</time></trkpt><trkpt lat="43.5320517" lon="11.5844983"><ele>143.0</ele><time>2026-04-26T08:03:11.644Z</time></trkpt><trkpt lat="43.532" lon="11.5845883"><ele>143.0</ele><time>2026-04-26T08:03:12.646Z</time></trkpt><trkpt lat="43.5319467" lon="11.5846817"><ele>143.0</ele><time>2026-04-26T08:03:13.645Z</time></trkpt><trkpt lat="43.531895" lon="11.584775"><ele>143.16666666666666</ele><time>2026-04-26T08:03:14.646Z</time></trkpt><trkpt lat="43.5318433" lon="11.5848667"><ele>143.33333333333331</ele><time>2026-04-26T08:03:15.645Z</time></trkpt><trkpt lat="43.53179" lon="11.5849617"><ele>143.5</ele><time>2026-04-26T08:03:16.646Z</time></trkpt><trkpt lat="43.5317383" lon="11.585055"><ele>143.66666666666666</ele><time>2026-04-26T08:03:17.645Z</time></trkpt><trkpt lat="43.531685" lon="11.58515"><ele>143.83333333333334</ele><time>2026-04-26T08:03:18.646Z</time></trkpt><trkpt lat="43.5316333" lon="11.5852467"><ele>144.0</ele><time>2026-04-26T08:03:19.646Z</time></trkpt><trkpt lat="43.5315817" lon="11.58534"><ele>143.83333333333334</ele><time>2026-04-26T08:03:20.646Z</time></trkpt><trkpt lat="43.53153" lon="11.5854317"><ele>143.66666666666666</ele><time>2026-04-26T08:03:21.646Z</time></trkpt><trkpt lat="43.5314767" lon="11.5855217"><ele>143.5</ele><time>2026-04-26T08:03:22.645Z</time></trkpt><trkpt lat="43.5314267" lon="11.5856183"><ele>143.33333333333331</ele><time>2026-04-26T08:03:23.646Z</time></trkpt><trkpt lat="43.5313767" lon="11.585715"><ele>143.16666666666666</ele><time>2026-04-26T08:03:24.645Z</time></trkpt><trkpt lat="43.5313267" lon="11.58581"><ele>143.0</ele><time>2026-04-26T08:03:25.645Z</time></trkpt><trkpt lat="43.5312767" lon="11.585905"><ele>143.0</ele><time>2026-04-26T08:03:26.647Z</time></trkpt><trkpt lat="43.53123" lon="11.5859983"><ele>143.0</ele><time>2026-04-26T08:03:27.645Z</time></trkpt><trkpt lat="43.5311783" lon="11.5860883"><ele>143.0</ele><time>2026-04-26T08:03:28.647Z</time></trkpt><trkpt lat="43.5311267" lon="11.58618"><ele>143.0</ele><time>2026-04-26T08:03:29.646Z</time></trkpt><trkpt lat="43.53107" lon="11.5862717"><ele>143.0</ele><time>2026-04-26T08:03:30.645Z</time></trkpt><trkpt lat="43.5310183" lon="11.5863617"><ele>143.0</ele><time>2026-04-26T08:03:31.647Z</time></trkpt><trkpt lat="43.5309617" lon="11.5864533"><ele>143.0</ele><time>2026-04-26T08:03:32.646Z</time></trkpt><trkpt lat="43.5309067" lon="11.5865433"><ele>143.0</ele><time>2026-04-26T08:03:33.645Z</time></trkpt><trkpt lat="43.5308533" lon="11.5866367"><ele>143.0</ele><time>2026-04-26T08:03:34.645Z</time></trkpt><trkpt lat="43.5307983" lon="11.58673"><ele>143.0</ele><time>2026-04-26T08:03:35.644Z</time></trkpt><trkpt lat="43.5307467" lon="11.5868233"><ele>143.0</ele><time>2026-04-26T08:03:36.647Z</time></trkpt><trkpt lat="43.5306967" lon="11.5869183"><ele>143.0</ele><time>2026-04-26T08:03:37.647Z</time></trkpt><trkpt lat="43.5306467" lon="11.587015"><ele>143.16666666666666</ele><time>2026-04-26T08:03:38.644Z</time></trkpt><trkpt lat="43.5305933" lon="11.5871083"><ele>143.33333333333331</ele><time>2026-04-26T08:03:39.644Z</time></trkpt><trkpt lat="43.5305433" lon="11.5872033"><ele>143.5</ele><time>2026-04-26T08:03:40.644Z</time></trkpt><trkpt lat="43.5304867" lon="11.5872933"><ele>143.66666666666666</ele><time>2026-04-26T08:03:41.645Z</time></trkpt><trkpt lat="43.53043" lon="11.5873883"><ele>143.83333333333334</ele><time>2026-04-26T08:03:42.646Z</time></trkpt><trkpt lat="43.5303733" lon="11.58748"><ele>144.0</ele><time>2026-04-26T08:03:43.646Z</time></trkpt><trkpt lat="43.53032" lon="11.5875767"><ele>144.16666666666666</ele><time>2026-04-26T08:03:44.645Z</time></trkpt><trkpt lat="43.5302717" lon="11.587675"><ele>144.33333333333334</ele><time>2026-04-26T08:03:45.645Z</time></trkpt><trkpt lat="43.530225" lon="11.58778"><ele>144.5</ele><time>2026-04-26T08:03:46.645Z</time></trkpt><trkpt lat="43.5301767" lon="11.587885"><ele>144.66666666666669</ele><time>2026-04-26T08:03:47.645Z</time></trkpt><trkpt lat="43.5301233" lon="11.5879867"><ele>144.83333333333334</ele><time>2026-04-26T08:03:48.645Z</time></trkpt><trkpt lat="43.5300683" lon="11.588085"><ele>145.0</ele><time>2026-04-26T08:03:49.645Z</time></trkpt><trkpt lat="43.5300133" lon="11.5881817"><ele>145.0</ele><time>2026-04-26T08:03:50.645Z</time></trkpt><trkpt lat="43.5299583" lon="11.5882783"><ele>145.0</ele><time>2026-04-26T08:03:51.645Z</time></trkpt><trkpt lat="43.5299033" lon="11.5883717"><ele>145.0</ele><time>2026-04-26T08:03:52.646Z</time></trkpt><trkpt lat="43.5298467" lon="11.588465"><ele>145.0</ele><time>2026-04-26T08:03:53.645Z</time></trkpt><trkpt lat="43.52979" lon="11.58856"><ele>145.0</ele><time>2026-04-26T08:03:54.645Z</time></trkpt><trkpt lat="43.529735" lon="11.588655"><ele>145.0</ele><time>2026-04-26T08:03:55.646Z</time></trkpt><trkpt lat="43.5296833" lon="11.5887567"><ele>145.0</ele><time>2026-04-26T08:03:56.645Z</time></trkpt><trkpt lat="43.5296367" lon="11.5888567"><ele>145.0</ele><time>2026-04-26T08:03:57.648Z</time></trkpt><trkpt lat="43.5295883" lon="11.5889533"><ele>145.0</ele><time>2026-04-26T08:03:58.645Z</time></trkpt><trkpt lat="43.5295417" lon="11.5890517"><ele>145.0</ele><time>2026-04-26T08:03:59.645Z</time></trkpt><trkpt lat="43.5294917" lon="11.5891483"><ele>145.0</ele><time>2026-04-26T08:04:00.648Z</time></trkpt><trkpt lat="43.5294417" lon="11.5892417"><ele>145.0</ele><time>2026-04-26T08:04:01.646Z</time></trkpt><trkpt lat="43.529395" lon="11.5893383"><ele>145.0</ele><time>2026-04-26T08:04:02.647Z</time></trkpt><trkpt lat="43.529345" lon="11.58943"><ele>145.0</ele><time>2026-04-26T08:04:03.647Z</time></trkpt><trkpt lat="43.5292967" lon="11.5895233"><ele>145.0</ele><time>2026-04-26T08:04:04.645Z</time></trkpt><trkpt lat="43.529245" lon="11.5896167"><ele>145.0</ele><time>2026-04-26T08:04:05.646Z</time></trkpt><trkpt lat="43.529195" lon="11.589715"><ele>145.0</ele><time>2026-04-26T08:04:06.645Z</time></trkpt><trkpt lat="43.529145" lon="11.5898083"><ele>145.0</ele><time>2026-04-26T08:04:07.645Z</time></trkpt><trkpt lat="43.5290967" lon="11.5899083"><ele>145.0</ele><time>2026-04-26T08:04:08.646Z</time></trkpt><trkpt lat="43.5290433" lon="11.5899983"><ele>145.0</ele><time>2026-04-26T08:04:09.645Z</time></trkpt><trkpt lat="43.528995" lon="11.5900883"><ele>145.0</ele><time>2026-04-26T08:04:10.646Z</time></trkpt><trkpt lat="43.528945" lon="11.590175"><ele>145.0</ele><time>2026-04-26T08:04:11.646Z</time></trkpt><trkpt lat="43.5288933" lon="11.5902633"><ele>145.0</ele><time>2026-04-26T08:04:12.647Z</time></trkpt><trkpt lat="43.528845" lon="11.5903483"><ele>145.0</ele><time>2026-04-26T08:04:13.645Z</time></trkpt><trkpt lat="43.528795" lon="11.5904317"><ele>145.33333333333334</ele><time>2026-04-26T08:04:14.646Z</time></trkpt><trkpt lat="43.5287433" lon="11.59052"><ele>145.66666666666669</ele><time>2026-04-26T08:04:15.647Z</time></trkpt><trkpt lat="43.5286933" lon="11.590605"><ele>146.0</ele><time>2026-04-26T08:04:16.646Z</time></trkpt><trkpt lat="43.5286467" lon="11.5906883"><ele>146.33333333333334</ele><time>2026-04-26T08:04:17.645Z</time></trkpt><trkpt lat="43.5285983" lon="11.590775"><ele>146.66666666666666</ele><time>2026-04-26T08:04:18.647Z</time></trkpt><trkpt lat="43.52855" lon="11.590865"><ele>147.0</ele><time>2026-04-26T08:04:19.646Z</time></trkpt><trkpt lat="43.5285033" lon="11.590955"><ele>147.0</ele><time>2026-04-26T08:04:20.645Z</time></trkpt><trkpt lat="43.5284617" lon="11.591045"><ele>147.0</ele><time>2026-04-26T08:04:21.646Z</time></trkpt><trkpt lat="43.5284183" lon="11.5911367"><ele>147.0</ele><time>2026-04-26T08:04:22.645Z</time></trkpt><trkpt lat="43.5283783" lon="11.5912317"><ele>147.0</ele><time>2026-04-26T08:04:23.646Z</time></trkpt><trkpt lat="43.5283417" lon="11.59133"><ele>147.0</ele><time>2026-04-26T08:04:24.647Z</time></trkpt><trkpt lat="43.52831" lon="11.5914317"><ele>147.0</ele><time>2026-04-26T08:04:25.646Z</time></trkpt><trkpt lat="43.52828" lon="11.591535"><ele>147.0</ele><time>2026-04-26T08:04:26.647Z</time></trkpt><trkpt lat="43.5282517" lon="11.5916383"><ele>147.0</ele><time>2026-04-26T08:04:27.646Z</time></trkpt><trkpt lat="43.5282267" lon="11.59174"><ele>147.0</ele><time>2026-04-26T08:04:28.647Z</time></trkpt><trkpt lat="43.5282033" lon="11.5918417"><ele>147.0</ele><time>2026-04-26T08:04:29.645Z</time></trkpt><trkpt lat="43.52818" lon="11.5919467"><ele>147.0</ele><time>2026-04-26T08:04:30.646Z</time></trkpt><trkpt lat="43.5281567" lon="11.5920517"><ele>147.0</ele><time>2026-04-26T08:04:31.645Z</time></trkpt><trkpt lat="43.5281367" lon="11.5921567"><ele>148.0</ele><time>2026-04-26T08:04:32.646Z</time></trkpt><trkpt lat="43.5281217" lon="11.592265"><ele>149.0</ele><time>2026-04-26T08:04:33.648Z</time></trkpt><trkpt lat="43.5281067" lon="11.59237"><ele>150.0</ele><time>2026-04-26T08:04:34.647Z</time></trkpt><trkpt lat="43.5280867" lon="11.5924733"><ele>151.0</ele><time>2026-04-26T08:04:35.646Z</time></trkpt><trkpt lat="43.5280717" lon="11.592575"><ele>152.0</ele><time>2026-04-26T08:04:36.645Z</time></trkpt><trkpt lat="43.5280533" lon="11.592675"><ele>153.0</ele><time>2026-04-26T08:04:37.647Z</time></trkpt><trkpt lat="43.5280333" lon="11.592765"><ele>153.5</ele><time>2026-04-26T08:04:38.645Z</time></trkpt><trkpt lat="43.528015" lon="11.5928633"><ele>154.0</ele><time>2026-04-26T08:04:39.645Z</time></trkpt><trkpt lat="43.5279917" lon="11.5929617"><ele>154.5</ele><time>2026-04-26T08:04:40.645Z</time></trkpt><trkpt lat="43.52797" lon="11.5930583"><ele>155.0</ele><time>2026-04-26T08:04:41.646Z</time></trkpt><trkpt lat="43.5279417" lon="11.593155"><ele>155.5</ele><time>2026-04-26T08:04:42.646Z</time></trkpt><trkpt lat="43.5279083" lon="11.5932483"><ele>156.0</ele><time>2026-04-26T08:04:43.646Z</time></trkpt><trkpt lat="43.5278667" lon="11.5933383"><ele>154.57142857142858</ele><time>2026-04-26T08:04:44.645Z</time></trkpt><trkpt lat="43.5278183" lon="11.593415"><ele>153.14285714285714</ele><time>2026-04-26T08:04:45.645Z</time></trkpt><trkpt lat="43.5277633" lon="11.59348"><ele>151.71428571428572</ele><time>2026-04-26T08:04:46.646Z</time></trkpt><trkpt lat="43.5276967" lon="11.59353"><ele>150.28571428571428</ele><time>2026-04-26T08:04:47.645Z</time></trkpt><trkpt lat="43.5276283" lon="11.593565"><ele>148.85714285714286</ele><time>2026-04-26T08:04:48.646Z</time></trkpt><trkpt lat="43.5275583" lon="11.5935833"><ele>147.42857142857142</ele><time>2026-04-26T08:04:49.647Z</time></trkpt><trkpt lat="43.52749" lon="11.5935917"><ele>146.0</ele><time>2026-04-26T08:04:50.647Z</time></trkpt><trkpt lat="43.5274217" lon="11.5935883"><ele>146.0</ele><time>2026-04-26T08:04:51.645Z</time></trkpt><trkpt lat="43.527355" lon="11.59358"><ele>146.0</ele><time>2026-04-26T08:04:52.646Z</time></trkpt><trkpt lat="43.5272867" lon="11.5935583"><ele>146.0</ele><time>2026-04-26T08:04:53.645Z</time></trkpt><trkpt lat="43.52722" lon="11.5935267"><ele>146.0</ele><time>2026-04-26T08:04:54.645Z</time></trkpt><trkpt lat="43.527155" lon="11.593485"><ele>146.0</ele><time>2026-04-26T08:04:55.646Z</time></trkpt><trkpt lat="43.5270967" lon="11.5934283"><ele>146.0</ele><time>2026-04-26T08:04:56.646Z</time></trkpt><trkpt lat="43.5270367" lon="11.5933667"><ele>146.0</ele><time>2026-04-26T08:04:57.645Z</time></trkpt><trkpt lat="43.5269783" lon="11.593305"><ele>145.83333333333331</ele><time>2026-04-26T08:04:58.646Z</time></trkpt><trkpt lat="43.5269183" lon="11.5932383"><ele>145.66666666666666</ele><time>2026-04-26T08:04:59.645Z</time></trkpt><trkpt lat="43.526855" lon="11.5931717"><ele>145.5</ele><time>2026-04-26T08:05:00.645Z</time></trkpt><trkpt lat="43.5267917" lon="11.5931067"><ele>145.33333333333334</ele><time>2026-04-26T08:05:01.645Z</time></trkpt><trkpt lat="43.5267333" lon="11.593045"><ele>145.16666666666669</ele><time>2026-04-26T08:05:02.646Z</time></trkpt><trkpt lat="43.5266717" lon="11.5929783"><ele>145.0</ele><time>2026-04-26T08:05:03.646Z</time></trkpt><trkpt lat="43.5266083" lon="11.5929117"><ele>145.0</ele><time>2026-04-26T08:05:04.646Z</time></trkpt><trkpt lat="43.52655" lon="11.59285"><ele>145.0</ele><time>2026-04-26T08:05:05.646Z</time></trkpt><trkpt lat="43.52649" lon="11.592785"><ele>145.0</ele><time>2026-04-26T08:05:06.647Z</time></trkpt><trkpt lat="43.5264267" lon="11.5927133"><ele>145.0</ele><time>2026-04-26T08:05:07.646Z</time></trkpt><trkpt lat="43.5263633" lon="11.5926383"><ele>145.0</ele><time>2026-04-26T08:05:08.647Z</time></trkpt><trkpt lat="43.5263033" lon="11.5925667"><ele>145.0</ele><time>2026-04-26T08:05:09.645Z</time></trkpt><trkpt lat="43.5262383" lon="11.592495"><ele>144.8</ele><time>2026-04-26T08:05:10.646Z</time></trkpt><trkpt lat="43.5261683" lon="11.5924217"><ele>144.6</ele><time>2026-04-26T08:05:11.646Z</time></trkpt><trkpt lat="43.526095" lon="11.5923467"><ele>144.4</ele><time>2026-04-26T08:05:12.646Z</time></trkpt><trkpt lat="43.5260217" lon="11.5922717"><ele>144.2</ele><time>2026-04-26T08:05:13.645Z</time></trkpt><trkpt lat="43.52595" lon="11.5921917"><ele>144.0</ele><time>2026-04-26T08:05:14.645Z</time></trkpt><trkpt lat="43.5258767" lon="11.5921183"><ele>144.0</ele><time>2026-04-26T08:05:15.645Z</time></trkpt><trkpt lat="43.5258017" lon="11.5920383"><ele>144.0</ele><time>2026-04-26T08:05:16.645Z</time></trkpt><trkpt lat="43.5257283" lon="11.5919617"><ele>144.0</ele><time>2026-04-26T08:05:17.644Z</time></trkpt><trkpt lat="43.52566" lon="11.5918833"><ele>144.0</ele><time>2026-04-26T08:05:18.645Z</time></trkpt><trkpt lat="43.5255917" lon="11.5918033"><ele>144.0</ele><time>2026-04-26T08:05:19.647Z</time></trkpt><trkpt lat="43.525525" lon="11.5917233"><ele>144.2</ele><time>2026-04-26T08:05:20.646Z</time></trkpt><trkpt lat="43.52545" lon="11.59164"><ele>144.4</ele><time>2026-04-26T08:05:21.645Z</time></trkpt><trkpt lat="43.5253767" lon="11.5915567"><ele>144.6</ele><time>2026-04-26T08:05:22.646Z</time></trkpt><trkpt lat="43.5253033" lon="11.5914767"><ele>144.8</ele><time>2026-04-26T08:05:23.645Z</time></trkpt><trkpt lat="43.5252317" lon="11.5913967"><ele>145.0</ele><time>2026-04-26T08:05:24.648Z</time></trkpt><trkpt lat="43.5251583" lon="11.5913167"><ele>145.0</ele><time>2026-04-26T08:05:25.647Z</time></trkpt><trkpt lat="43.52508" lon="11.59124"><ele>145.0</ele><time>2026-04-26T08:05:26.647Z</time></trkpt><trkpt lat="43.5250033" lon="11.5911583"><ele>145.0</ele><time>2026-04-26T08:05:27.646Z</time></trkpt><trkpt lat="43.524925" lon="11.5910733"><ele>145.0</ele><time>2026-04-26T08:05:28.646Z</time></trkpt><trkpt lat="43.5248433" lon="11.5909833"><ele>145.0</ele><time>2026-04-26T08:05:29.645Z</time></trkpt><trkpt lat="43.52476" lon="11.590895"><ele>144.6</ele><time>2026-04-26T08:05:30.646Z</time></trkpt><trkpt lat="43.5246767" lon="11.59081"><ele>144.2</ele><time>2026-04-26T08:05:31.645Z</time></trkpt><trkpt lat="43.5245917" lon="11.5907217"><ele>143.8</ele><time>2026-04-26T08:05:32.645Z</time></trkpt><trkpt lat="43.524505" lon="11.590635"><ele>143.4</ele><time>2026-04-26T08:05:33.647Z</time></trkpt><trkpt lat="43.5244183" lon="11.590545"><ele>143.0</ele><time>2026-04-26T08:05:34.646Z</time></trkpt><trkpt lat="43.524335" lon="11.5904567"><ele>143.0</ele><time>2026-04-26T08:05:35.646Z</time></trkpt><trkpt lat="43.524255" lon="11.5903683"><ele>143.0</ele><time>2026-04-26T08:05:36.646Z</time></trkpt><trkpt lat="43.52418" lon="11.5902767"><ele>143.0</ele><time>2026-04-26T08:05:37.645Z</time></trkpt><trkpt lat="43.5241117" lon="11.5901783"><ele>143.0</ele><time>2026-04-26T08:05:38.647Z</time></trkpt><trkpt lat="43.524065" lon="11.5900683"><ele>143.0</ele><time>2026-04-26T08:05:39.646Z</time></trkpt><trkpt lat="43.52403" lon="11.5899517"><ele>142.83333333333331</ele><time>2026-04-26T08:05:40.645Z</time></trkpt><trkpt lat="43.5240017" lon="11.5898367"><ele>142.66666666666666</ele><time>2026-04-26T08:05:41.647Z</time></trkpt><trkpt lat="43.52396" lon="11.5897317"><ele>142.5</ele><time>2026-04-26T08:05:42.648Z</time></trkpt><trkpt lat="43.5239033" lon="11.5896517"><ele>142.33333333333334</ele><time>2026-04-26T08:05:43.645Z</time></trkpt><trkpt lat="43.5238283" lon="11.589625"><ele>142.16666666666669</ele><time>2026-04-26T08:05:44.648Z</time></trkpt><trkpt lat="43.5237533" lon="11.5896317"><ele>142.0</ele><time>2026-04-26T08:05:45.646Z</time></trkpt><trkpt lat="43.5236767" lon="11.5896717"><ele>142.33333333333334</ele><time>2026-04-26T08:05:46.645Z</time></trkpt><trkpt lat="43.52361" lon="11.5897333"><ele>142.66666666666669</ele><time>2026-04-26T08:05:47.645Z</time></trkpt><trkpt lat="43.5235633" lon="11.58983"><ele>143.0</ele><time>2026-04-26T08:05:48.645Z</time></trkpt><trkpt lat="43.523535" lon="11.5899483"><ele>143.33333333333334</ele><time>2026-04-26T08:05:49.647Z</time></trkpt><trkpt lat="43.5235117" lon="11.590065"><ele>143.66666666666666</ele><time>2026-04-26T08:05:50.645Z</time></trkpt><trkpt lat="43.523485" lon="11.5901783"><ele>144.0</ele><time>2026-04-26T08:05:51.646Z</time></trkpt><trkpt lat="43.52345" lon="11.5902983"><ele>144.0</ele><time>2026-04-26T08:05:52.647Z</time></trkpt><trkpt lat="43.5233917" lon="11.5903983"><ele>144.0</ele><time>2026-04-26T08:05:53.645Z</time></trkpt><trkpt lat="43.52333" lon="11.590485"><ele>144.0</ele><time>2026-04-26T08:05:54.646Z</time></trkpt><trkpt lat="43.5232667" lon="11.5905733"><ele>144.0</ele><time>2026-04-26T08:05:55.646Z</time></trkpt><trkpt lat="43.523205" lon="11.5906583"><ele>144.0</ele><time>2026-04-26T08:05:56.646Z</time></trkpt><trkpt lat="43.5231433" lon="11.59074"><ele>144.0</ele><time>2026-04-26T08:05:57.647Z</time></trkpt><trkpt lat="43.5230833" lon="11.5908233"><ele>144.0</ele><time>2026-04-26T08:05:58.646Z</time></trkpt><trkpt lat="43.5230217" lon="11.5909083"><ele>144.0</ele><time>2026-04-26T08:05:59.645Z</time></trkpt><trkpt lat="43.5229583" lon="11.59099"><ele>144.0</ele><time>2026-04-26T08:06:00.646Z</time></trkpt><trkpt lat="43.522895" lon="11.5910733"><ele>144.0</ele><time>2026-04-26T08:06:01.646Z</time></trkpt><trkpt lat="43.5228333" lon="11.5911533"><ele>144.0</ele><time>2026-04-26T08:06:02.646Z</time></trkpt><trkpt lat="43.52277" lon="11.5912383"><ele>144.0</ele><time>2026-04-26T08:06:03.647Z</time></trkpt><trkpt lat="43.5227067" lon="11.59132"><ele>144.0</ele><time>2026-04-26T08:06:04.645Z</time></trkpt><trkpt lat="43.5226433" lon="11.5913983"><ele>144.0</ele><time>2026-04-26T08:06:05.646Z</time></trkpt><trkpt lat="43.5225783" lon="11.5914767"><ele>144.0</ele><time>2026-04-26T08:06:06.646Z</time></trkpt><trkpt lat="43.5225133" lon="11.591555"><ele>144.0</ele><time>2026-04-26T08:06:07.649Z</time></trkpt><trkpt lat="43.5224483" lon="11.5916317"><ele>144.0</ele><time>2026-04-26T08:06:08.646Z</time></trkpt><trkpt lat="43.5223817" lon="11.5917083"><ele>144.0</ele><time>2026-04-26T08:06:09.645Z</time></trkpt><trkpt lat="43.5223117" lon="11.59178"><ele>144.0</ele><time>2026-04-26T08:06:10.647Z</time></trkpt><trkpt lat="43.522245" lon="11.5918533"><ele>144.0</ele><time>2026-04-26T08:06:11.646Z</time></trkpt><trkpt lat="43.5221783" lon="11.5919283"><ele>144.0</ele><time>2026-04-26T08:06:12.648Z</time></trkpt><trkpt lat="43.52211" lon="11.5920033"><ele>144.0</ele><time>2026-04-26T08:06:13.648Z</time></trkpt><trkpt lat="43.5220417" lon="11.5920783"><ele>144.0</ele><time>2026-04-26T08:06:14.646Z</time></trkpt><trkpt lat="43.521975" lon="11.5921533"><ele>144.0</ele><time>2026-04-26T08:06:15.646Z</time></trkpt><trkpt lat="43.5219083" lon="11.5922233"><ele>143.66666666666666</ele><time>2026-04-26T08:06:16.645Z</time></trkpt><trkpt lat="43.5218417" lon="11.5922983"><ele>143.33333333333334</ele><time>2026-04-26T08:06:17.645Z</time></trkpt><trkpt lat="43.5217767" lon="11.5923683"><ele>143.0</ele><time>2026-04-26T08:06:18.645Z</time></trkpt><trkpt lat="43.52171" lon="11.5924367"><ele>142.66666666666669</ele><time>2026-04-26T08:06:19.646Z</time></trkpt><trkpt lat="43.521645" lon="11.5925083"><ele>142.33333333333334</ele><time>2026-04-26T08:06:20.646Z</time></trkpt><trkpt lat="43.5215783" lon="11.5925783"><ele>142.0</ele><time>2026-04-26T08:06:21.645Z</time></trkpt><trkpt lat="43.5215133" lon="11.5926483"><ele>142.0</ele><time>2026-04-26T08:06:22.644Z</time></trkpt><trkpt lat="43.5214467" lon="11.592715"><ele>142.0</ele><time>2026-04-26T08:06:23.647Z</time></trkpt><trkpt lat="43.52138" lon="11.5927817"><ele>142.0</ele><time>2026-04-26T08:06:24.647Z</time></trkpt><trkpt lat="43.5213133" lon="11.5928483"><ele>142.0</ele><time>2026-04-26T08:06:25.646Z</time></trkpt><trkpt lat="43.5212467" lon="11.5929183"><ele>142.0</ele><time>2026-04-26T08:06:26.647Z</time></trkpt><trkpt lat="43.5211783" lon="11.5929867"><ele>142.0</ele><time>2026-04-26T08:06:27.646Z</time></trkpt><trkpt lat="43.5211117" lon="11.5930583"><ele>142.0</ele><time>2026-04-26T08:06:28.645Z</time></trkpt><trkpt lat="43.521045" lon="11.593125"><ele>142.0</ele><time>2026-04-26T08:06:29.647Z</time></trkpt><trkpt lat="43.5209783" lon="11.5931917"><ele>142.0</ele><time>2026-04-26T08:06:30.646Z</time></trkpt><trkpt lat="43.5209133" lon="11.5932583"><ele>142.0</ele><time>2026-04-26T08:06:31.646Z</time></trkpt><trkpt lat="43.5208467" lon="11.5933233"><ele>142.0</ele><time>2026-04-26T08:06:32.646Z</time></trkpt><trkpt lat="43.5207833" lon="11.593395"><ele>142.0</ele><time>2026-04-26T08:06:33.647Z</time></trkpt><trkpt lat="43.52072" lon="11.593465"><ele>142.0</ele><time>2026-04-26T08:06:34.644Z</time></trkpt><trkpt lat="43.520655" lon="11.5935333"><ele>142.0</ele><time>2026-04-26T08:06:35.645Z</time></trkpt><trkpt lat="43.5205933" lon="11.5936033"><ele>142.0</ele><time>2026-04-26T08:06:36.647Z</time></trkpt><trkpt lat="43.52053" lon="11.59367"><ele>142.0</ele><time>2026-04-26T08:06:37.646Z</time></trkpt><trkpt lat="43.5204683" lon="11.59374"><ele>142.0</ele><time>2026-04-26T08:06:38.647Z</time></trkpt><trkpt lat="43.520405" lon="11.59381"><ele>142.0</ele><time>2026-04-26T08:06:39.647Z</time></trkpt><trkpt lat="43.5203417" lon="11.5938767"><ele>142.33333333333334</ele><time>2026-04-26T08:06:40.645Z</time></trkpt><trkpt lat="43.5202783" lon="11.5939467"><ele>142.66666666666669</ele><time>2026-04-26T08:06:41.646Z</time></trkpt><trkpt lat="43.520215" lon="11.5940133"><ele>143.0</ele><time>2026-04-26T08:06:42.647Z</time></trkpt><trkpt lat="43.52015" lon="11.5940783"><ele>143.33333333333334</ele><time>2026-04-26T08:06:43.647Z</time></trkpt><trkpt lat="43.5200817" lon="11.594145"><ele>143.66666666666666</ele><time>2026-04-26T08:06:44.646Z</time></trkpt><trkpt lat="43.5200133" lon="11.5942133"><ele>144.0</ele><time>2026-04-26T08:06:45.645Z</time></trkpt><trkpt lat="43.519945" lon="11.5942817"><ele>144.0</ele><time>2026-04-26T08:06:46.646Z</time></trkpt><trkpt lat="43.5198783" lon="11.5943483"><ele>144.0</ele><time>2026-04-26T08:06:47.647Z</time></trkpt><trkpt lat="43.5198133" lon="11.5944217"><ele>144.0</ele><time>2026-04-26T08:06:48.645Z</time></trkpt><trkpt lat="43.5197483" lon="11.59449"><ele>144.0</ele><time>2026-04-26T08:06:49.645Z</time></trkpt><trkpt lat="43.5196833" lon="11.5945583"><ele>144.0</ele><time>2026-04-26T08:06:50.646Z</time></trkpt><trkpt lat="43.5196183" lon="11.59462"><ele>144.0</ele><time>2026-04-26T08:06:51.646Z</time></trkpt><trkpt lat="43.5195517" lon="11.594685"><ele>143.83333333333334</ele><time>2026-04-26T08:06:52.645Z</time></trkpt><trkpt lat="43.519485" lon="11.5947517"><ele>143.66666666666666</ele><time>2026-04-26T08:06:53.646Z</time></trkpt><trkpt lat="43.51942" lon="11.5948133"><ele>143.5</ele><time>2026-04-26T08:06:54.645Z</time></trkpt><trkpt lat="43.519355" lon="11.5948767"><ele>143.33333333333331</ele><time>2026-04-26T08:06:55.645Z</time></trkpt><trkpt lat="43.5192883" lon="11.5949433"><ele>143.16666666666666</ele><time>2026-04-26T08:06:56.648Z</time></trkpt><trkpt lat="43.5192233" lon="11.5950067"><ele>143.0</ele><time>2026-04-26T08:06:57.645Z</time></trkpt><trkpt lat="43.519155" lon="11.5950683"><ele>143.0</ele><time>2026-04-26T08:06:58.647Z</time></trkpt><trkpt lat="43.5190883" lon="11.595135"><ele>143.0</ele><time>2026-04-26T08:06:59.645Z</time></trkpt><trkpt lat="43.51902" lon="11.59521"><ele>143.0</ele><time>2026-04-26T08:07:00.647Z</time></trkpt><trkpt lat="43.5189533" lon="11.5952783"><ele>143.0</ele><time>2026-04-26T08:07:01.645Z</time></trkpt><trkpt lat="43.518885" lon="11.5953467"><ele>143.0</ele><time>2026-04-26T08:07:02.648Z</time></trkpt><trkpt lat="43.5188183" lon="11.595415"><ele>143.0</ele><time>2026-04-26T08:07:03.646Z</time></trkpt><trkpt lat="43.5187533" lon="11.5954833"><ele>143.16666666666666</ele><time>2026-04-26T08:07:04.647Z</time></trkpt><trkpt lat="43.5186883" lon="11.5955533"><ele>143.33333333333331</ele><time>2026-04-26T08:07:05.645Z</time></trkpt><trkpt lat="43.5186233" lon="11.5956267"><ele>143.5</ele><time>2026-04-26T08:07:06.646Z</time></trkpt><trkpt lat="43.5185617" lon="11.5956983"><ele>143.66666666666666</ele><time>2026-04-26T08:07:07.648Z</time></trkpt><trkpt lat="43.5184967" lon="11.5957717"><ele>143.83333333333334</ele><time>2026-04-26T08:07:08.646Z</time></trkpt><trkpt lat="43.518435" lon="11.595845"><ele>144.0</ele><time>2026-04-26T08:07:09.647Z</time></trkpt><trkpt lat="43.5183767" lon="11.59593"><ele>144.0</ele><time>2026-04-26T08:07:10.645Z</time></trkpt><trkpt lat="43.5183167" lon="11.5960117"><ele>144.0</ele><time>2026-04-26T08:07:11.645Z</time></trkpt><trkpt lat="43.5182617" lon="11.5961"><ele>144.0</ele><time>2026-04-26T08:07:12.647Z</time></trkpt><trkpt lat="43.518205" lon="11.59619"><ele>144.0</ele><time>2026-04-26T08:07:13.647Z</time></trkpt><trkpt lat="43.5181517" lon="11.59628"><ele>144.0</ele><time>2026-04-26T08:07:14.646Z</time></trkpt><trkpt lat="43.5181" lon="11.5963717"><ele>144.0</ele><time>2026-04-26T08:07:15.646Z</time></trkpt><trkpt lat="43.5180483" lon="11.5964667"><ele>143.83333333333334</ele><time>2026-04-26T08:07:16.646Z</time></trkpt><trkpt lat="43.518" lon="11.5965633"><ele>143.66666666666666</ele><time>2026-04-26T08:07:17.646Z</time></trkpt><trkpt lat="43.517955" lon="11.596665"><ele>143.5</ele><time>2026-04-26T08:07:18.647Z</time></trkpt><trkpt lat="43.5179117" lon="11.5967633"><ele>143.33333333333331</ele><time>2026-04-26T08:07:19.647Z</time></trkpt><trkpt lat="43.51787" lon="11.59686"><ele>143.16666666666666</ele><time>2026-04-26T08:07:20.646Z</time></trkpt><trkpt lat="43.5178333" lon="11.5969633"><ele>143.0</ele><time>2026-04-26T08:07:21.645Z</time></trkpt><trkpt lat="43.5177967" lon="11.59707"><ele>143.33333333333331</ele><time>2026-04-26T08:07:22.645Z</time></trkpt><trkpt lat="43.5177633" lon="11.5971817"><ele>143.66666666666666</ele><time>2026-04-26T08:07:23.645Z</time></trkpt><trkpt lat="43.5177333" lon="11.5972933"><ele>144.0</ele><time>2026-04-26T08:07:24.647Z</time></trkpt><trkpt lat="43.5177083" lon="11.5974033"><ele>144.33333333333334</ele><time>2026-04-26T08:07:25.648Z</time></trkpt><trkpt lat="43.51768" lon="11.5975167"><ele>144.66666666666669</ele><time>2026-04-26T08:07:26.648Z</time></trkpt><trkpt lat="43.517655" lon="11.59763"><ele>145.0</ele><time>2026-04-26T08:07:27.645Z</time></trkpt><trkpt lat="43.5176317" lon="11.5977433"><ele>144.83333333333334</ele><time>2026-04-26T08:07:28.645Z</time></trkpt><trkpt lat="43.5176117" lon="11.5978583"><ele>144.66666666666669</ele><time>2026-04-26T08:07:29.645Z</time></trkpt><trkpt lat="43.5175917" lon="11.5979783"><ele>144.5</ele><time>2026-04-26T08:07:30.645Z</time></trkpt><trkpt lat="43.517575" lon="11.5980983"><ele>144.33333333333334</ele><time>2026-04-26T08:07:31.646Z</time></trkpt><trkpt lat="43.51756" lon="11.5982183"><ele>144.16666666666666</ele><time>2026-04-26T08:07:32.647Z</time></trkpt><trkpt lat="43.5175467" lon="11.5983383"><ele>144.0</ele><time>2026-04-26T08:07:33.645Z</time></trkpt><trkpt lat="43.517535" lon="11.5984567"><ele>144.0</ele><time>2026-04-26T08:07:34.647Z</time></trkpt><trkpt lat="43.5175217" lon="11.598575"><ele>144.0</ele><time>2026-04-26T08:07:35.647Z</time></trkpt><trkpt lat="43.5175117" lon="11.5986933"><ele>144.0</ele><time>2026-04-26T08:07:36.646Z</time></trkpt><trkpt lat="43.5175" lon="11.5988133"><ele>144.0</ele><time>2026-04-26T08:07:37.646Z</time></trkpt><trkpt lat="43.5174867" lon="11.5989333"><ele>144.0</ele><time>2026-04-26T08:07:38.646Z</time></trkpt><trkpt lat="43.51747" lon="11.5990517"><ele>144.0</ele><time>2026-04-26T08:07:39.644Z</time></trkpt><trkpt lat="43.51745" lon="11.59917"><ele>144.16666666666666</ele><time>2026-04-26T08:07:40.646Z</time></trkpt><trkpt lat="43.5174283" lon="11.5992917"><ele>144.33333333333334</ele><time>2026-04-26T08:07:41.645Z</time></trkpt><trkpt lat="43.5174" lon="11.5994083"><ele>144.5</ele><time>2026-04-26T08:07:42.647Z</time></trkpt><trkpt lat="43.5173633" lon="11.59952"><ele>144.66666666666669</ele><time>2026-04-26T08:07:43.645Z</time></trkpt><trkpt lat="43.5173217" lon="11.5996233"><ele>144.83333333333334</ele><time>2026-04-26T08:07:44.645Z</time></trkpt><trkpt lat="43.5172717" lon="11.5997217"><ele>145.0</ele><time>2026-04-26T08:07:45.645Z</time></trkpt><trkpt lat="43.517215" lon="11.599815"><ele>145.16666666666669</ele><time>2026-04-26T08:07:46.647Z</time></trkpt><trkpt lat="43.5171517" lon="11.599905"><ele>145.33333333333334</ele><time>2026-04-26T08:07:47.646Z</time></trkpt><trkpt lat="43.5170883" lon="11.5999917"><ele>145.5</ele><time>2026-04-26T08:07:48.646Z</time></trkpt><trkpt lat="43.5170217" lon="11.60007"><ele>145.66666666666666</ele><time>2026-04-26T08:07:49.647Z</time></trkpt><trkpt lat="43.5169517" lon="11.60014"><ele>145.83333333333331</ele><time>2026-04-26T08:07:50.646Z</time></trkpt><trkpt lat="43.5168767" lon="11.6001983"><ele>146.0</ele><time>2026-04-26T08:07:51.645Z</time></trkpt><trkpt lat="43.5168" lon="11.60025"><ele>146.0</ele><time>2026-04-26T08:07:52.646Z</time></trkpt><trkpt lat="43.51672" lon="11.6002867"><ele>146.0</ele><time>2026-04-26T08:07:53.646Z</time></trkpt><trkpt lat="43.5166383" lon="11.6003083"><ele>146.0</ele><time>2026-04-26T08:07:54.646Z</time></trkpt><trkpt lat="43.5165583" lon="11.6003117"><ele>146.0</ele><time>2026-04-26T08:07:55.645Z</time></trkpt><trkpt lat="43.516475" lon="11.6003083"><ele>146.0</ele><time>2026-04-26T08:07:56.645Z</time></trkpt><trkpt lat="43.51639" lon="11.60032"><ele>146.0</ele><time>2026-04-26T08:07:57.647Z</time></trkpt><trkpt lat="43.5163083" lon="11.60036"><ele>146.16666666666666</ele><time>2026-04-26T08:07:58.646Z</time></trkpt><trkpt lat="43.5162417" lon="11.600425"><ele>146.33333333333331</ele><time>2026-04-26T08:07:59.645Z</time></trkpt><trkpt lat="43.5161917" lon="11.6005117"><ele>146.5</ele><time>2026-04-26T08:08:00.645Z</time></trkpt><trkpt lat="43.516155" lon="11.6006167"><ele>146.66666666666666</ele><time>2026-04-26T08:08:01.646Z</time></trkpt><trkpt lat="43.516125" lon="11.6007267"><ele>146.83333333333334</ele><time>2026-04-26T08:08:02.648Z</time></trkpt><trkpt lat="43.516085" lon="11.6008333"><ele>147.0</ele><time>2026-04-26T08:08:03.648Z</time></trkpt><trkpt lat="43.5160233" lon="11.6009183"><ele>146.66666666666666</ele><time>2026-04-26T08:08:04.647Z</time></trkpt><trkpt lat="43.5159483" lon="11.60099"><ele>146.33333333333334</ele><time>2026-04-26T08:08:05.645Z</time></trkpt><trkpt lat="43.5158683" lon="11.601045"><ele>146.0</ele><time>2026-04-26T08:08:06.646Z</time></trkpt><trkpt lat="43.51579" lon="11.6011"><ele>145.66666666666669</ele><time>2026-04-26T08:08:07.645Z</time></trkpt><trkpt lat="43.51571" lon="11.6011483"><ele>145.33333333333334</ele><time>2026-04-26T08:08:08.645Z</time></trkpt><trkpt lat="43.5156283" lon="11.6012"><ele>145.0</ele><time>2026-04-26T08:08:09.647Z</time></trkpt><trkpt lat="43.5155467" lon="11.60125"><ele>145.0</ele><time>2026-04-26T08:08:10.646Z</time></trkpt><trkpt lat="43.5154667" lon="11.6013017"><ele>145.0</ele><time>2026-04-26T08:08:11.645Z</time></trkpt><trkpt lat="43.515385" lon="11.60135"><ele>145.0</ele><time>2026-04-26T08:08:12.646Z</time></trkpt><trkpt lat="43.515305" lon="11.6013967"><ele>145.0</ele><time>2026-04-26T08:08:13.647Z</time></trkpt><trkpt lat="43.515225" lon="11.6014483"><ele>145.0</ele><time>2026-04-26T08:08:14.647Z</time></trkpt><trkpt lat="43.5151483" lon="11.6015033"><ele>145.0</ele><time>2026-04-26T08:08:15.647Z</time></trkpt><trkpt lat="43.51507" lon="11.6015583"><ele>145.0</ele><time>2026-04-26T08:08:16.647Z</time></trkpt><trkpt lat="43.514995" lon="11.6016167"><ele>145.0</ele><time>2026-04-26T08:08:17.646Z</time></trkpt><trkpt lat="43.51492" lon="11.6016767"><ele>145.0</ele><time>2026-04-26T08:08:18.646Z</time></trkpt><trkpt lat="43.5148467" lon="11.6017383"><ele>145.0</ele><time>2026-04-26T08:08:19.646Z</time></trkpt><trkpt lat="43.514775" lon="11.601805"><ele>145.0</ele><time>2026-04-26T08:08:20.645Z</time></trkpt><trkpt lat="43.514705" lon="11.6018733"><ele>145.0</ele><time>2026-04-26T08:08:21.645Z</time></trkpt><trkpt lat="43.5146383" lon="11.6019417"><ele>145.16666666666669</ele><time>2026-04-26T08:08:22.644Z</time></trkpt><trkpt lat="43.5145717" lon="11.6020133"><ele>145.33333333333334</ele><time>2026-04-26T08:08:23.646Z</time></trkpt><trkpt lat="43.51451" lon="11.6020917"><ele>145.5</ele><time>2026-04-26T08:08:24.646Z</time></trkpt><trkpt lat="43.51445" lon="11.6021733"><ele>145.66666666666666</ele><time>2026-04-26T08:08:25.646Z</time></trkpt><trkpt lat="43.5143867" lon="11.6022533"><ele>145.83333333333331</ele><time>2026-04-26T08:08:26.647Z</time></trkpt><trkpt lat="43.51433" lon="11.6023383"><ele>146.0</ele><time>2026-04-26T08:08:27.649Z</time></trkpt><trkpt lat="43.5142717" lon="11.6024317"><ele>146.16666666666666</ele><time>2026-04-26T08:08:28.647Z</time></trkpt><trkpt lat="43.5142133" lon="11.602525"><ele>146.33333333333331</ele><time>2026-04-26T08:08:29.646Z</time></trkpt><trkpt lat="43.5141583" lon="11.60262"><ele>146.5</ele><time>2026-04-26T08:08:30.647Z</time></trkpt><trkpt lat="43.514105" lon="11.60272"><ele>146.66666666666666</ele><time>2026-04-26T08:08:31.646Z</time></trkpt><trkpt lat="43.5140533" lon="11.6028167"><ele>146.83333333333334</ele><time>2026-04-26T08:08:32.647Z</time></trkpt><trkpt lat="43.5140017" lon="11.6029117"><ele>147.0</ele><time>2026-04-26T08:08:33.645Z</time></trkpt><trkpt lat="43.5139483" lon="11.603005"><ele>147.0</ele><time>2026-04-26T08:08:34.646Z</time></trkpt><trkpt lat="43.513895" lon="11.6031017"><ele>147.0</ele><time>2026-04-26T08:08:35.646Z</time></trkpt><trkpt lat="43.5138433" lon="11.6032"><ele>147.0</ele><time>2026-04-26T08:08:36.645Z</time></trkpt><trkpt lat="43.5137933" lon="11.6033017"><ele>147.0</ele><time>2026-04-26T08:08:37.647Z</time></trkpt><trkpt lat="43.5137417" lon="11.6034"><ele>147.0</ele><time>2026-04-26T08:08:38.648Z</time></trkpt><trkpt lat="43.5136933" lon="11.6034983"><ele>147.0</ele><time>2026-04-26T08:08:39.646Z</time></trkpt><trkpt lat="43.513645" lon="11.6035917"><ele>146.66666666666666</ele><time>2026-04-26T08:08:40.645Z</time></trkpt><trkpt lat="43.5135967" lon="11.6036867"><ele>146.33333333333334</ele><time>2026-04-26T08:08:41.645Z</time></trkpt><trkpt lat="43.5135483" lon="11.60378"><ele>146.0</ele><time>2026-04-26T08:08:42.647Z</time></trkpt><trkpt lat="43.5135017" lon="11.6038783"><ele>145.66666666666669</ele><time>2026-04-26T08:08:43.647Z</time></trkpt><trkpt lat="43.5134533" lon="11.6039783"><ele>145.33333333333334</ele><time>2026-04-26T08:08:44.647Z</time></trkpt><trkpt lat="43.5134067" lon="11.6040733"><ele>145.0</ele><time>2026-04-26T08:08:45.645Z</time></trkpt><trkpt lat="43.5133583" lon="11.60417"><ele>145.0</ele><time>2026-04-26T08:08:46.646Z</time></trkpt><trkpt lat="43.51331" lon="11.6042683"><ele>145.0</ele><time>2026-04-26T08:08:47.647Z</time></trkpt><trkpt lat="43.51326" lon="11.604365"><ele>145.0</ele><time>2026-04-26T08:08:48.648Z</time></trkpt><trkpt lat="43.5132133" lon="11.6044583"><ele>145.0</ele><time>2026-04-26T08:08:49.648Z</time></trkpt><trkpt lat="43.5131667" lon="11.6045567"><ele>145.0</ele><time>2026-04-26T08:08:50.648Z</time></trkpt><trkpt lat="43.5131167" lon="11.6046517"><ele>145.0</ele><time>2026-04-26T08:08:51.645Z</time></trkpt><trkpt lat="43.5130683" lon="11.6047467"><ele>145.16666666666669</ele><time>2026-04-26T08:08:52.646Z</time></trkpt><trkpt lat="43.5130183" lon="11.60484"><ele>145.33333333333334</ele><time>2026-04-26T08:08:53.646Z</time></trkpt><trkpt lat="43.5129683" lon="11.6049333"><ele>145.5</ele><time>2026-04-26T08:08:54.647Z</time></trkpt><trkpt lat="43.512915" lon="11.605025"><ele>145.66666666666666</ele><time>2026-04-26T08:08:55.645Z</time></trkpt><trkpt lat="43.5128633" lon="11.6051183"><ele>145.83333333333331</ele><time>2026-04-26T08:08:56.645Z</time></trkpt><trkpt lat="43.5128067" lon="11.6052017"><ele>146.0</ele><time>2026-04-26T08:08:57.645Z</time></trkpt><trkpt lat="43.51275" lon="11.6052883"><ele>146.16666666666666</ele><time>2026-04-26T08:08:58.647Z</time></trkpt><trkpt lat="43.5126917" lon="11.6053733"><ele>146.33333333333331</ele><time>2026-04-26T08:08:59.647Z</time></trkpt><trkpt lat="43.5126367" lon="11.6054617"><ele>146.5</ele><time>2026-04-26T08:09:00.645Z</time></trkpt><trkpt lat="43.512575" lon="11.6055433"><ele>146.66666666666666</ele><time>2026-04-26T08:09:01.646Z</time></trkpt><trkpt lat="43.5125167" lon="11.6056233"><ele>146.83333333333334</ele><time>2026-04-26T08:09:02.645Z</time></trkpt><trkpt lat="43.5124533" lon="11.6056967"><ele>147.0</ele><time>2026-04-26T08:09:03.645Z</time></trkpt><trkpt lat="43.51239" lon="11.605775"><ele>147.0</ele><time>2026-04-26T08:09:04.646Z</time></trkpt><trkpt lat="43.5123267" lon="11.6058517"><ele>147.0</ele><time>2026-04-26T08:09:05.644Z</time></trkpt><trkpt lat="43.5122633" lon="11.6059267"><ele>147.0</ele><time>2026-04-26T08:09:06.648Z</time></trkpt><trkpt lat="43.5121983" lon="11.606"><ele>147.0</ele><time>2026-04-26T08:09:07.647Z</time></trkpt><trkpt lat="43.5121317" lon="11.6060717"><ele>147.0</ele><time>2026-04-26T08:09:08.647Z</time></trkpt><trkpt lat="43.5120667" lon="11.6061433"><ele>147.0</ele><time>2026-04-26T08:09:09.645Z</time></trkpt><trkpt lat="43.512" lon="11.6062117"><ele>147.16666666666666</ele><time>2026-04-26T08:09:10.647Z</time></trkpt><trkpt lat="43.5119317" lon="11.6062783"><ele>147.33333333333334</ele><time>2026-04-26T08:09:11.645Z</time></trkpt><trkpt lat="43.5118633" lon="11.6063517"><ele>147.5</ele><time>2026-04-26T08:09:12.646Z</time></trkpt><trkpt lat="43.5117933" lon="11.6064183"><ele>147.66666666666669</ele><time>2026-04-26T08:09:13.646Z</time></trkpt><trkpt lat="43.5117233" lon="11.60648"><ele>147.83333333333334</ele><time>2026-04-26T08:09:14.647Z</time></trkpt><trkpt lat="43.5116533" lon="11.6065367"><ele>148.0</ele><time>2026-04-26T08:09:15.647Z</time></trkpt><trkpt lat="43.5115817" lon="11.6065933"><ele>148.0</ele><time>2026-04-26T08:09:16.645Z</time></trkpt><trkpt lat="43.5115133" lon="11.6066517"><ele>148.0</ele><time>2026-04-26T08:09:17.646Z</time></trkpt><trkpt lat="43.5114417" lon="11.6067017"><ele>148.0</ele><time>2026-04-26T08:09:18.647Z</time></trkpt><trkpt lat="43.5113683" lon="11.6067567"><ele>148.0</ele><time>2026-04-26T08:09:19.645Z</time></trkpt><trkpt lat="43.51129" lon="11.6068083"><ele>148.0</ele><time>2026-04-26T08:09:20.646Z</time></trkpt><trkpt lat="43.5112117" lon="11.6068583"><ele>148.0</ele><time>2026-04-26T08:09:21.644Z</time></trkpt><trkpt lat="43.511135" lon="11.606905"><ele>148.0</ele><time>2026-04-26T08:09:22.645Z</time></trkpt><trkpt lat="43.5110583" lon="11.6069517"><ele>148.0</ele><time>2026-04-26T08:09:23.646Z</time></trkpt><trkpt lat="43.510985" lon="11.6069967"><ele>148.0</ele><time>2026-04-26T08:09:24.649Z</time></trkpt><trkpt lat="43.5109067" lon="11.6070433"><ele>148.0</ele><time>2026-04-26T08:09:25.645Z</time></trkpt><trkpt lat="43.51083" lon="11.6070917"><ele>148.0</ele><time>2026-04-26T08:09:26.648Z</time></trkpt><trkpt lat="43.510755" lon="11.6071417"><ele>148.0</ele><time>2026-04-26T08:09:27.647Z</time></trkpt><trkpt lat="43.51068" lon="11.6071933"><ele>147.83333333333334</ele><time>2026-04-26T08:09:28.648Z</time></trkpt><trkpt lat="43.5106067" lon="11.6072467"><ele>147.66666666666669</ele><time>2026-04-26T08:09:29.645Z</time></trkpt><trkpt lat="43.5105333" lon="11.6072983"><ele>147.5</ele><time>2026-04-26T08:09:30.647Z</time></trkpt><trkpt lat="43.5104567" lon="11.607345"><ele>147.33333333333334</ele><time>2026-04-26T08:09:31.647Z</time></trkpt><trkpt lat="43.51038" lon="11.607395"><ele>147.16666666666666</ele><time>2026-04-26T08:09:32.646Z</time></trkpt><trkpt lat="43.510305" lon="11.6074383"><ele>147.0</ele><time>2026-04-26T08:09:33.648Z</time></trkpt><trkpt lat="43.5102317" lon="11.607485"><ele>147.33333333333334</ele><time>2026-04-26T08:09:34.645Z</time></trkpt><trkpt lat="43.510155" lon="11.607535"><ele>147.66666666666666</ele><time>2026-04-26T08:09:35.646Z</time></trkpt><trkpt lat="43.51008" lon="11.6075833"><ele>148.0</ele><time>2026-04-26T08:09:36.647Z</time></trkpt><trkpt lat="43.510005" lon="11.6076317"><ele>148.33333333333331</ele><time>2026-04-26T08:09:37.645Z</time></trkpt><trkpt lat="43.50993" lon="11.6076733"><ele>148.66666666666666</ele><time>2026-04-26T08:09:38.645Z</time></trkpt><trkpt lat="43.509855" lon="11.6077217"><ele>149.0</ele><time>2026-04-26T08:09:39.645Z</time></trkpt><trkpt lat="43.5097783" lon="11.60777"><ele>149.0</ele><time>2026-04-26T08:09:40.646Z</time></trkpt><trkpt lat="43.5097017" lon="11.60782"><ele>149.0</ele><time>2026-04-26T08:09:41.646Z</time></trkpt><trkpt lat="43.5096217" lon="11.6078683"><ele>149.0</ele><time>2026-04-26T08:09:42.646Z</time></trkpt><trkpt lat="43.5095433" lon="11.6079183"><ele>149.0</ele><time>2026-04-26T08:09:43.647Z</time></trkpt><trkpt lat="43.5094617" lon="11.6079717"><ele>149.0</ele><time>2026-04-26T08:09:44.645Z</time></trkpt><trkpt lat="43.509385" lon="11.608025"><ele>149.0</ele><time>2026-04-26T08:09:45.645Z</time></trkpt><trkpt lat="43.5093033" lon="11.608075"><ele>149.6</ele><time>2026-04-26T08:09:46.646Z</time></trkpt><trkpt lat="43.5092183" lon="11.6081283"><ele>150.2</ele><time>2026-04-26T08:09:47.646Z</time></trkpt><trkpt lat="43.5091283" lon="11.6081833"><ele>150.79999999999998</ele><time>2026-04-26T08:09:48.647Z</time></trkpt><trkpt lat="43.5090367" lon="11.6082383"><ele>151.4</ele><time>2026-04-26T08:09:49.647Z</time></trkpt><trkpt lat="43.5089433" lon="11.6082933"><ele>152.0</ele><time>2026-04-26T08:09:50.649Z</time></trkpt><trkpt lat="43.5088517" lon="11.60835"><ele>152.0</ele><time>2026-04-26T08:09:51.645Z</time></trkpt><trkpt lat="43.5087583" lon="11.6084083"><ele>152.0</ele><time>2026-04-26T08:09:52.646Z</time></trkpt><trkpt lat="43.5086683" lon="11.6084617"><ele>152.0</ele><time>2026-04-26T08:09:53.645Z</time></trkpt><trkpt lat="43.5085733" lon="11.6085167"><ele>152.0</ele><time>2026-04-26T08:09:54.646Z</time></trkpt><trkpt lat="43.5084833" lon="11.6085733"><ele>152.0</ele><time>2026-04-26T08:09:55.648Z</time></trkpt><trkpt lat="43.5083917" lon="11.608635"><ele>151.0</ele><time>2026-04-26T08:09:56.646Z</time></trkpt><trkpt lat="43.5082983" lon="11.6086917"><ele>150.0</ele><time>2026-04-26T08:09:57.644Z</time></trkpt><trkpt lat="43.5082117" lon="11.6087517"><ele>149.0</ele><time>2026-04-26T08:09:58.643Z</time></trkpt><trkpt lat="43.508125" lon="11.6088133"><ele>148.0</ele><time>2026-04-26T08:09:59.644Z</time></trkpt><trkpt lat="43.5080417" lon="11.6088767"><ele>147.0</ele><time>2026-04-26T08:10:00.645Z</time></trkpt><trkpt lat="43.5079667" lon="11.6089383"><ele>147.4</ele><time>2026-04-26T08:10:01.646Z</time></trkpt><trkpt lat="43.507885" lon="11.6090067"><ele>147.79999999999998</ele><time>2026-04-26T08:10:02.644Z</time></trkpt><trkpt lat="43.5078083" lon="11.609075"><ele>148.2</ele><time>2026-04-26T08:10:03.645Z</time></trkpt><trkpt lat="43.5077267" lon="11.6091483"><ele>148.6</ele><time>2026-04-26T08:10:04.643Z</time></trkpt><trkpt lat="43.50765" lon="11.6092217"><ele>149.0</ele><time>2026-04-26T08:10:05.644Z</time></trkpt><trkpt lat="43.5075783" lon="11.609295"><ele>149.0</ele><time>2026-04-26T08:10:06.644Z</time></trkpt><trkpt lat="43.5075117" lon="11.6093733"><ele>149.0</ele><time>2026-04-26T08:10:07.643Z</time></trkpt><trkpt lat="43.5074483" lon="11.609455"><ele>149.0</ele><time>2026-04-26T08:10:08.644Z</time></trkpt><trkpt lat="43.5073883" lon="11.6095383"><ele>149.0</ele><time>2026-04-26T08:10:09.642Z</time></trkpt><trkpt lat="43.5073217" lon="11.6096217"><ele>149.0</ele><time>2026-04-26T08:10:10.643Z</time></trkpt><trkpt lat="43.5072633" lon="11.609705"><ele>149.0</ele><time>2026-04-26T08:10:11.643Z</time></trkpt><trkpt lat="43.5072033" lon="11.60979"><ele>149.16666666666666</ele><time>2026-04-26T08:10:12.642Z</time></trkpt><trkpt lat="43.5071467" lon="11.6098767"><ele>149.33333333333331</ele><time>2026-04-26T08:10:13.647Z</time></trkpt><trkpt lat="43.5070917" lon="11.6099617"><ele>149.5</ele><time>2026-04-26T08:10:14.647Z</time></trkpt><trkpt lat="43.507035" lon="11.6100483"><ele>149.66666666666666</ele><time>2026-04-26T08:10:15.646Z</time></trkpt><trkpt lat="43.50698" lon="11.61014"><ele>149.83333333333334</ele><time>2026-04-26T08:10:16.645Z</time></trkpt><trkpt lat="43.506925" lon="11.6102317"><ele>150.0</ele><time>2026-04-26T08:10:17.646Z</time></trkpt><trkpt lat="43.5068667" lon="11.6103233"><ele>149.83333333333334</ele><time>2026-04-26T08:10:18.644Z</time></trkpt><trkpt lat="43.5068067" lon="11.6104133"><ele>149.66666666666666</ele><time>2026-04-26T08:10:19.645Z</time></trkpt><trkpt lat="43.5067483" lon="11.610505"><ele>149.5</ele><time>2026-04-26T08:10:20.646Z</time></trkpt><trkpt lat="43.50669" lon="11.6105983"><ele>149.33333333333331</ele><time>2026-04-26T08:10:21.646Z</time></trkpt><trkpt lat="43.5066317" lon="11.61069"><ele>149.16666666666666</ele><time>2026-04-26T08:10:22.645Z</time></trkpt><trkpt lat="43.5065733" lon="11.61078"><ele>149.0</ele><time>2026-04-26T08:10:23.645Z</time></trkpt><trkpt lat="43.5065167" lon="11.6108683"><ele>149.0</ele><time>2026-04-26T08:10:24.646Z</time></trkpt><trkpt lat="43.5064583" lon="11.6109533"><ele>149.0</ele><time>2026-04-26T08:10:25.647Z</time></trkpt><trkpt lat="43.5064017" lon="11.61104"><ele>149.0</ele><time>2026-04-26T08:10:26.648Z</time></trkpt><trkpt lat="43.5063433" lon="11.6111267"><ele>149.0</ele><time>2026-04-26T08:10:27.645Z</time></trkpt><trkpt lat="43.5062867" lon="11.6112117"><ele>149.0</ele><time>2026-04-26T08:10:28.647Z</time></trkpt><trkpt lat="43.5062267" lon="11.6112967"><ele>149.0</ele><time>2026-04-26T08:10:29.644Z</time></trkpt><trkpt lat="43.5061683" lon="11.6113833"><ele>149.33333333333331</ele><time>2026-04-26T08:10:30.646Z</time></trkpt><trkpt lat="43.50611" lon="11.6114683"><ele>149.66666666666666</ele><time>2026-04-26T08:10:31.645Z</time></trkpt><trkpt lat="43.50605" lon="11.6115533"><ele>150.0</ele><time>2026-04-26T08:10:32.646Z</time></trkpt><trkpt lat="43.5059917" lon="11.61164"><ele>150.33333333333334</ele><time>2026-04-26T08:10:33.644Z</time></trkpt><trkpt lat="43.5059367" lon="11.6117317"><ele>150.66666666666669</ele><time>2026-04-26T08:10:34.645Z</time></trkpt><trkpt lat="43.505875" lon="11.6118183"><ele>151.0</ele><time>2026-04-26T08:10:35.645Z</time></trkpt><trkpt lat="43.50581" lon="11.6119033"><ele>151.0</ele><time>2026-04-26T08:10:36.644Z</time></trkpt><trkpt lat="43.5057467" lon="11.61199"><ele>151.0</ele><time>2026-04-26T08:10:37.646Z</time></trkpt><trkpt lat="43.50568" lon="11.61207"><ele>151.0</ele><time>2026-04-26T08:10:38.645Z</time></trkpt><trkpt lat="43.50561" lon="11.6121383"><ele>151.0</ele><time>2026-04-26T08:10:39.646Z</time></trkpt><trkpt lat="43.5055367" lon="11.6122017"><ele>151.0</ele><time>2026-04-26T08:10:40.643Z</time></trkpt><trkpt lat="43.5054617" lon="11.6122583"><ele>151.0</ele><time>2026-04-26T08:10:41.645Z</time></trkpt><trkpt lat="43.5053833" lon="11.61231"><ele>150.83333333333334</ele><time>2026-04-26T08:10:42.646Z</time></trkpt><trkpt lat="43.5053" lon="11.6123483"><ele>150.66666666666669</ele><time>2026-04-26T08:10:43.646Z</time></trkpt><trkpt lat="43.505215" lon="11.6123733"><ele>150.5</ele><time>2026-04-26T08:10:44.645Z</time></trkpt><trkpt lat="43.50513" lon="11.6123867"><ele>150.33333333333334</ele><time>2026-04-26T08:10:45.645Z</time></trkpt><trkpt lat="43.5050417" lon="11.6123983"><ele>150.16666666666666</ele><time>2026-04-26T08:10:46.644Z</time></trkpt><trkpt lat="43.504955" lon="11.6124"><ele>150.0</ele><time>2026-04-26T08:10:47.645Z</time></trkpt><trkpt lat="43.5048717" lon="11.61239"><ele>150.0</ele><time>2026-04-26T08:10:48.645Z</time></trkpt><trkpt lat="43.5047883" lon="11.61237"><ele>150.0</ele><time>2026-04-26T08:10:49.645Z</time></trkpt><trkpt lat="43.504705" lon="11.6123467"><ele>150.0</ele><time>2026-04-26T08:10:50.646Z</time></trkpt><trkpt lat="43.504625" lon="11.6123167"><ele>150.0</ele><time>2026-04-26T08:10:51.646Z</time></trkpt><trkpt lat="43.5045483" lon="11.6122717"><ele>150.0</ele><time>2026-04-26T08:10:52.644Z</time></trkpt><trkpt lat="43.504475" lon="11.612225"><ele>150.0</ele><time>2026-04-26T08:10:53.645Z</time></trkpt><trkpt lat="43.5044017" lon="11.6121683"><ele>150.16666666666666</ele><time>2026-04-26T08:10:54.646Z</time></trkpt><trkpt lat="43.5043317" lon="11.6121083"><ele>150.33333333333334</ele><time>2026-04-26T08:10:55.644Z</time></trkpt><trkpt lat="43.5042617" lon="11.61204"><ele>150.5</ele><time>2026-04-26T08:10:56.645Z</time></trkpt><trkpt lat="43.504195" lon="11.6119683"><ele>150.66666666666669</ele><time>2026-04-26T08:10:57.643Z</time></trkpt><trkpt lat="43.5041333" lon="11.6118983"><ele>150.83333333333334</ele><time>2026-04-26T08:10:58.645Z</time></trkpt><trkpt lat="43.5040767" lon="11.6118317"><ele>151.0</ele><time>2026-04-26T08:10:59.645Z</time></trkpt><trkpt lat="43.504025" lon="11.61177"><ele>151.0</ele><time>2026-04-26T08:11:00.646Z</time></trkpt><trkpt lat="43.5039483" lon="11.6116733"><ele>151.0</ele><time>2026-04-26T08:11:02.646Z</time></trkpt><trkpt lat="43.5039133" lon="11.611595"><ele>151.0</ele><time>2026-04-26T08:11:04.643Z</time></trkpt><trkpt lat="43.5039" lon="11.61149"><ele>151.0</ele><time>2026-04-26T08:11:06.646Z</time></trkpt><trkpt lat="43.503895" lon="11.61135"><ele>151.0</ele><time>2026-04-26T08:11:08.647Z</time></trkpt><trkpt lat="43.5038883" lon="11.6111767"><ele>151.00000000000003</ele><time>2026-04-26T08:11:10.645Z</time></trkpt><trkpt lat="43.5038933" lon="11.611085"><ele>151.0</ele><time>2026-04-26T08:11:11.646Z</time></trkpt><trkpt lat="43.5038983" lon="11.6109967"><ele>151.0</ele><time>2026-04-26T08:11:12.646Z</time></trkpt><trkpt lat="43.5039033" lon="11.6109067"><ele>151.0</ele><time>2026-04-26T08:11:13.647Z</time></trkpt><trkpt lat="43.5039117" lon="11.610815"><ele>151.0</ele><time>2026-04-26T08:11:14.645Z</time></trkpt><trkpt lat="43.5039133" lon="11.6107233"><ele>151.00000000000003</ele><time>2026-04-26T08:11:15.644Z</time></trkpt><trkpt lat="43.5039133" lon="11.6106283"><ele>151.0</ele><time>2026-04-26T08:11:16.647Z</time></trkpt><trkpt lat="43.50389" lon="11.6105417"><ele>151.00000000000003</ele><time>2026-04-26T08:11:17.646Z</time></trkpt><trkpt lat="43.5038533" lon="11.6104617"><ele>151.0</ele><time>2026-04-26T08:11:18.647Z</time></trkpt><trkpt lat="43.5037983" lon="11.6104017"><ele>151.0</ele><time>2026-04-26T08:11:19.647Z</time></trkpt><trkpt lat="43.5037283" lon="11.610365"><ele>151.0</ele><time>2026-04-26T08:11:20.646Z</time></trkpt><trkpt lat="43.5036617" lon="11.6103383"><ele>151.0</ele><time>2026-04-26T08:11:21.644Z</time></trkpt><trkpt lat="43.5035933" lon="11.610315"><ele>151.00000000000003</ele><time>2026-04-26T08:11:22.646Z</time></trkpt><trkpt lat="43.5035217" lon="11.6102833"><ele>151.0</ele><time>2026-04-26T08:11:23.646Z</time></trkpt><trkpt lat="43.503455" lon="11.6102417"><ele>150.85714285714286</ele><time>2026-04-26T08:11:24.647Z</time></trkpt><trkpt lat="43.50339" lon="11.6102"><ele>150.71428571428572</ele><time>2026-04-26T08:11:25.645Z</time></trkpt><trkpt lat="43.503325" lon="11.6101567"><ele>150.57142857142856</ele><time>2026-04-26T08:11:26.647Z</time></trkpt><trkpt lat="43.5032617" lon="11.6101167"><ele>150.42857142857144</ele><time>2026-04-26T08:11:27.645Z</time></trkpt><trkpt lat="43.5032" lon="11.6100783"><ele>150.28571428571428</ele><time>2026-04-26T08:11:28.645Z</time></trkpt><trkpt lat="43.503135" lon="11.6100467"><ele>150.14285714285714</ele><time>2026-04-26T08:11:29.646Z</time></trkpt><trkpt lat="43.50307" lon="11.6100167"><ele>150.0</ele><time>2026-04-26T08:11:30.647Z</time></trkpt><trkpt lat="43.5030017" lon="11.609995"><ele>149.99999999999997</ele><time>2026-04-26T08:11:31.646Z</time></trkpt><trkpt lat="43.502935" lon="11.6099817"><ele>150.0</ele><time>2026-04-26T08:11:32.646Z</time></trkpt><trkpt lat="43.5028667" lon="11.60997"><ele>150.0</ele><time>2026-04-26T08:11:33.647Z</time></trkpt><trkpt lat="43.5027983" lon="11.6099617"><ele>150.0</ele><time>2026-04-26T08:11:34.644Z</time></trkpt><trkpt lat="43.5027283" lon="11.60996"><ele>150.0</ele><time>2026-04-26T08:11:35.645Z</time></trkpt><trkpt lat="43.5026567" lon="11.60996"><ele>149.99999999999997</ele><time>2026-04-26T08:11:36.646Z</time></trkpt><trkpt lat="43.5025833" lon="11.6099683"><ele>150.0</ele><time>2026-04-26T08:11:37.644Z</time></trkpt><trkpt lat="43.5025133" lon="11.6099783"><ele>150.28571428571428</ele><time>2026-04-26T08:11:38.647Z</time></trkpt><trkpt lat="43.502445" lon="11.6099967"><ele>150.57142857142856</ele><time>2026-04-26T08:11:39.644Z</time></trkpt><trkpt lat="43.5023783" lon="11.61002"><ele>150.85714285714283</ele><time>2026-04-26T08:11:40.645Z</time></trkpt><trkpt lat="43.5023133" lon="11.610045"><ele>151.14285714285714</ele><time>2026-04-26T08:11:41.646Z</time></trkpt><trkpt lat="43.5022467" lon="11.6100767"><ele>151.42857142857144</ele><time>2026-04-26T08:11:42.647Z</time></trkpt><trkpt lat="43.502185" lon="11.6101183"><ele>151.7142857142857</ele><time>2026-04-26T08:11:43.645Z</time></trkpt><trkpt lat="43.5021233" lon="11.61016"><ele>152.0</ele><time>2026-04-26T08:11:44.648Z</time></trkpt><trkpt lat="43.5020633" lon="11.6102083"><ele>152.0</ele><time>2026-04-26T08:11:45.645Z</time></trkpt><trkpt lat="43.5020033" lon="11.61026"><ele>152.0</ele><time>2026-04-26T08:11:46.646Z</time></trkpt><trkpt lat="43.501945" lon="11.6103083"><ele>152.0</ele><time>2026-04-26T08:11:47.645Z</time></trkpt><trkpt lat="43.501885" lon="11.6103633"><ele>152.0</ele><time>2026-04-26T08:11:48.645Z</time></trkpt><trkpt lat="43.5018267" lon="11.61042"><ele>152.0</ele><time>2026-04-26T08:11:49.646Z</time></trkpt><trkpt lat="43.5017667" lon="11.6104733"><ele>152.0</ele><time>2026-04-26T08:11:50.645Z</time></trkpt><trkpt lat="43.5017083" lon="11.6105267"><ele>152.0</ele><time>2026-04-26T08:11:51.646Z</time></trkpt><trkpt lat="43.5016517" lon="11.6105833"><ele>152.0</ele><time>2026-04-26T08:11:52.648Z</time></trkpt><trkpt lat="43.5015933" lon="11.6106367"><ele>152.0</ele><time>2026-04-26T08:11:53.647Z</time></trkpt><trkpt lat="43.5015383" lon="11.61069"><ele>152.0</ele><time>2026-04-26T08:11:54.646Z</time></trkpt><trkpt lat="43.50148" lon="11.610745"><ele>152.0</ele><time>2026-04-26T08:11:55.646Z</time></trkpt><trkpt lat="43.5014233" lon="11.6108017"><ele>152.0</ele><time>2026-04-26T08:11:56.646Z</time></trkpt><trkpt lat="43.5013667" lon="11.6108583"><ele>152.0</ele><time>2026-04-26T08:11:57.646Z</time></trkpt><trkpt lat="43.5013083" lon="11.6109083"><ele>152.0</ele><time>2026-04-26T08:11:58.644Z</time></trkpt><trkpt lat="43.5012483" lon="11.61096"><ele>152.14285714285714</ele><time>2026-04-26T08:11:59.645Z</time></trkpt><trkpt lat="43.50119" lon="11.6110083"><ele>152.2857142857143</ele><time>2026-04-26T08:12:00.645Z</time></trkpt><trkpt lat="43.5011317" lon="11.61106"><ele>152.42857142857144</ele><time>2026-04-26T08:12:01.645Z</time></trkpt><trkpt lat="43.5010733" lon="11.61111"><ele>152.57142857142856</ele><time>2026-04-26T08:12:02.645Z</time></trkpt><trkpt lat="43.5010133" lon="11.6111583"><ele>152.71428571428572</ele><time>2026-04-26T08:12:03.646Z</time></trkpt><trkpt lat="43.5009583" lon="11.6112133"><ele>152.85714285714286</ele><time>2026-04-26T08:12:04.645Z</time></trkpt><trkpt lat="43.5009033" lon="11.611265"><ele>153.0</ele><time>2026-04-26T08:12:05.646Z</time></trkpt><trkpt lat="43.50085" lon="11.6113233"><ele>153.0</ele><time>2026-04-26T08:12:06.646Z</time></trkpt><trkpt lat="43.5007967" lon="11.611375"><ele>153.0</ele><time>2026-04-26T08:12:07.647Z</time></trkpt><trkpt lat="43.5007383" lon="11.6114217"><ele>153.0</ele><time>2026-04-26T08:12:08.646Z</time></trkpt><trkpt lat="43.50068" lon="11.611465"><ele>153.0</ele><time>2026-04-26T08:12:09.646Z</time></trkpt><trkpt lat="43.5006267" lon="11.6115117"><ele>153.0</ele><time>2026-04-26T08:12:10.645Z</time></trkpt><trkpt lat="43.5005667" lon="11.6115583"><ele>153.0</ele><time>2026-04-26T08:12:11.645Z</time></trkpt><trkpt lat="43.5005117" lon="11.6116133"><ele>153.0</ele><time>2026-04-26T08:12:12.646Z</time></trkpt><trkpt lat="43.5004583" lon="11.6116617"><ele>153.71428571428572</ele><time>2026-04-26T08:12:13.646Z</time></trkpt><trkpt lat="43.5004017" lon="11.6117067"><ele>154.42857142857144</ele><time>2026-04-26T08:12:14.644Z</time></trkpt><trkpt lat="43.500345" lon="11.61176"><ele>155.14285714285717</ele><time>2026-04-26T08:12:15.645Z</time></trkpt><trkpt lat="43.5002883" lon="11.6118067"><ele>155.85714285714286</ele><time>2026-04-26T08:12:16.646Z</time></trkpt><trkpt lat="43.50023" lon="11.6118467"><ele>156.57142857142858</ele><time>2026-04-26T08:12:17.646Z</time></trkpt><trkpt lat="43.5001717" lon="11.6118883"><ele>157.2857142857143</ele><time>2026-04-26T08:12:18.646Z</time></trkpt><trkpt lat="43.5001167" lon="11.611935"><ele>158.0</ele><time>2026-04-26T08:12:19.646Z</time></trkpt><trkpt lat="43.50006" lon="11.6119817"><ele>157.42857142857144</ele><time>2026-04-26T08:12:20.645Z</time></trkpt><trkpt lat="43.5000017" lon="11.61203"><ele>156.85714285714286</ele><time>2026-04-26T08:12:21.644Z</time></trkpt><trkpt lat="43.499945" lon="11.6120783"><ele>156.28571428571428</ele><time>2026-04-26T08:12:22.645Z</time></trkpt><trkpt lat="43.49989" lon="11.612125"><ele>155.71428571428572</ele><time>2026-04-26T08:12:23.646Z</time></trkpt><trkpt lat="43.4998333" lon="11.6121717"><ele>155.14285714285714</ele><time>2026-04-26T08:12:24.646Z</time></trkpt><trkpt lat="43.4997783" lon="11.61222"><ele>154.57142857142858</ele><time>2026-04-26T08:12:25.646Z</time></trkpt><trkpt lat="43.4997233" lon="11.6122667"><ele>154.0</ele><time>2026-04-26T08:12:26.646Z</time></trkpt><trkpt lat="43.4996217" lon="11.6123567"><ele>154.8</ele><time>2026-04-26T08:12:28.645Z</time></trkpt><trkpt lat="43.499525" lon="11.61244"><ele>155.60000000000002</ele><time>2026-04-26T08:12:30.647Z</time></trkpt><trkpt lat="43.4994317" lon="11.6125167"><ele>156.4</ele><time>2026-04-26T08:12:32.647Z</time></trkpt><trkpt lat="43.4993333" lon="11.6125883"><ele>157.20000000000002</ele><time>2026-04-26T08:12:34.647Z</time></trkpt><trkpt lat="43.499235" lon="11.61267"><ele>158.0</ele><time>2026-04-26T08:12:36.646Z</time></trkpt><trkpt lat="43.4991317" lon="11.6127567"><ele>157.6</ele><time>2026-04-26T08:12:38.645Z</time></trkpt><trkpt lat="43.4990267" lon="11.6128517"><ele>157.20000000000002</ele><time>2026-04-26T08:12:40.645Z</time></trkpt><trkpt lat="43.4989683" lon="11.6128983"><ele>156.8</ele><time>2026-04-26T08:12:41.646Z</time></trkpt><trkpt lat="43.4988667" lon="11.6129883"><ele>156.4</ele><time>2026-04-26T08:12:43.646Z</time></trkpt><trkpt lat="43.4987633" lon="11.6130783"><ele>156.0</ele><time>2026-04-26T08:12:45.646Z</time></trkpt><trkpt lat="43.498655" lon="11.6131633"><ele>156.85714285714286</ele><time>2026-04-26T08:12:47.646Z</time></trkpt><trkpt lat="43.4986" lon="11.61321"><ele>157.7142857142857</ele><time>2026-04-26T08:12:48.645Z</time></trkpt><trkpt lat="43.49854" lon="11.6132667"><ele>158.57142857142856</ele><time>2026-04-26T08:12:49.645Z</time></trkpt><trkpt lat="43.4984833" lon="11.613315"><ele>159.42857142857144</ele><time>2026-04-26T08:12:50.646Z</time></trkpt><trkpt lat="43.4984233" lon="11.6133633"><ele>160.28571428571428</ele><time>2026-04-26T08:12:51.645Z</time></trkpt><trkpt lat="43.498365" lon="11.6134117"><ele>161.14285714285714</ele><time>2026-04-26T08:12:52.645Z</time></trkpt><trkpt lat="43.4983083" lon="11.61346"><ele>162.0</ele><time>2026-04-26T08:12:53.646Z</time></trkpt><trkpt lat="43.49825" lon="11.613515"><ele>162.0</ele><time>2026-04-26T08:12:54.646Z</time></trkpt><trkpt lat="43.4981883" lon="11.613565"><ele>162.0</ele><time>2026-04-26T08:12:55.646Z</time></trkpt><trkpt lat="43.4981283" lon="11.6136133"><ele>162.0</ele><time>2026-04-26T08:12:56.646Z</time></trkpt><trkpt lat="43.498065" lon="11.6136617"><ele>162.0</ele><time>2026-04-26T08:12:57.646Z</time></trkpt><trkpt lat="43.4980033" lon="11.6137133"><ele>162.0</ele><time>2026-04-26T08:12:58.644Z</time></trkpt><trkpt lat="43.4979417" lon="11.61376"><ele>162.0</ele><time>2026-04-26T08:12:59.646Z</time></trkpt><trkpt lat="43.4978783" lon="11.613815"><ele>162.0</ele><time>2026-04-26T08:13:00.644Z</time></trkpt><trkpt lat="43.49781" lon="11.6138667"><ele>162.16666666666666</ele><time>2026-04-26T08:13:01.646Z</time></trkpt><trkpt lat="43.4977433" lon="11.61392"><ele>162.33333333333334</ele><time>2026-04-26T08:13:02.647Z</time></trkpt><trkpt lat="43.49768" lon="11.6139733"><ele>162.5</ele><time>2026-04-26T08:13:03.645Z</time></trkpt><trkpt lat="43.497615" lon="11.6140267"><ele>162.66666666666669</ele><time>2026-04-26T08:13:04.646Z</time></trkpt><trkpt lat="43.4975467" lon="11.6140767"><ele>162.83333333333334</ele><time>2026-04-26T08:13:05.647Z</time></trkpt><trkpt lat="43.4974817" lon="11.6141283"><ele>163.0</ele><time>2026-04-26T08:13:06.645Z</time></trkpt><trkpt lat="43.4974117" lon="11.614175"><ele>163.0</ele><time>2026-04-26T08:13:07.646Z</time></trkpt><trkpt lat="43.4973417" lon="11.614225"><ele>163.0</ele><time>2026-04-26T08:13:08.647Z</time></trkpt><trkpt lat="43.4972783" lon="11.61427"><ele>163.0</ele><time>2026-04-26T08:13:09.644Z</time></trkpt><trkpt lat="43.4972133" lon="11.6143183"><ele>163.0</ele><time>2026-04-26T08:13:10.646Z</time></trkpt><trkpt lat="43.4971483" lon="11.6143667"><ele>163.0</ele><time>2026-04-26T08:13:11.646Z</time></trkpt><trkpt lat="43.497085" lon="11.614415"><ele>163.0</ele><time>2026-04-26T08:13:12.645Z</time></trkpt><trkpt lat="43.4970183" lon="11.6144617"><ele>163.0</ele><time>2026-04-26T08:13:13.645Z</time></trkpt><trkpt lat="43.49695" lon="11.6145033"><ele>162.16666666666669</ele><time>2026-04-26T08:13:14.646Z</time></trkpt><trkpt lat="43.4968817" lon="11.61454"><ele>161.33333333333334</ele><time>2026-04-26T08:13:15.644Z</time></trkpt><trkpt lat="43.4968133" lon="11.61458"><ele>160.5</ele><time>2026-04-26T08:13:16.645Z</time></trkpt><trkpt lat="43.4967433" lon="11.6146167"><ele>159.66666666666666</ele><time>2026-04-26T08:13:17.646Z</time></trkpt><trkpt lat="43.4966717" lon="11.6146483"><ele>158.83333333333331</ele><time>2026-04-26T08:13:18.644Z</time></trkpt><trkpt lat="43.4965983" lon="11.6146717"><ele>158.0</ele><time>2026-04-26T08:13:19.645Z</time></trkpt><trkpt lat="43.4965233" lon="11.6146967"><ele>158.0</ele><time>2026-04-26T08:13:20.647Z</time></trkpt><trkpt lat="43.49645" lon="11.6147217"><ele>158.0</ele><time>2026-04-26T08:13:21.644Z</time></trkpt><trkpt lat="43.4963767" lon="11.61474"><ele>158.0</ele><time>2026-04-26T08:13:22.647Z</time></trkpt><trkpt lat="43.4962983" lon="11.6147517"><ele>158.0</ele><time>2026-04-26T08:13:23.645Z</time></trkpt><trkpt lat="43.4962217" lon="11.6147583"><ele>158.0</ele><time>2026-04-26T08:13:24.646Z</time></trkpt><trkpt lat="43.4961483" lon="11.6147617"><ele>158.0</ele><time>2026-04-26T08:13:25.646Z</time></trkpt><trkpt lat="43.49607" lon="11.6147633"><ele>158.0</ele><time>2026-04-26T08:13:26.647Z</time></trkpt><trkpt lat="43.49599" lon="11.6147617"><ele>158.0</ele><time>2026-04-26T08:13:27.645Z</time></trkpt><trkpt lat="43.49591" lon="11.6147583"><ele>158.0</ele><time>2026-04-26T08:13:28.645Z</time></trkpt><trkpt lat="43.4958367" lon="11.614755"><ele>158.0</ele><time>2026-04-26T08:13:29.646Z</time></trkpt><trkpt lat="43.4957583" lon="11.614755"><ele>158.0</ele><time>2026-04-26T08:13:30.644Z</time></trkpt><trkpt lat="43.4956833" lon="11.6147583"><ele>158.0</ele><time>2026-04-26T08:13:31.646Z</time></trkpt><trkpt lat="43.4956083" lon="11.6147617"><ele>158.0</ele><time>2026-04-26T08:13:32.645Z</time></trkpt><trkpt lat="43.4955333" lon="11.61477"><ele>158.0</ele><time>2026-04-26T08:13:33.645Z</time></trkpt><trkpt lat="43.4954583" lon="11.61478"><ele>158.0</ele><time>2026-04-26T08:13:34.644Z</time></trkpt><trkpt lat="43.4953867" lon="11.61479"><ele>158.0</ele><time>2026-04-26T08:13:35.644Z</time></trkpt><trkpt lat="43.49531" lon="11.6148033"><ele>158.0</ele><time>2026-04-26T08:13:36.646Z</time></trkpt><trkpt lat="43.4952333" lon="11.6148183"><ele>158.0</ele><time>2026-04-26T08:13:37.644Z</time></trkpt><trkpt lat="43.4951567" lon="11.6148417"><ele>158.33333333333331</ele><time>2026-04-26T08:13:38.645Z</time></trkpt><trkpt lat="43.4950833" lon="11.6148633"><ele>158.66666666666666</ele><time>2026-04-26T08:13:39.645Z</time></trkpt><trkpt lat="43.4950067" lon="11.61489"><ele>159.0</ele><time>2026-04-26T08:13:40.644Z</time></trkpt><trkpt lat="43.4949333" lon="11.61492"><ele>159.33333333333334</ele><time>2026-04-26T08:13:41.645Z</time></trkpt><trkpt lat="43.49486" lon="11.6149583"><ele>159.66666666666669</ele><time>2026-04-26T08:13:42.645Z</time></trkpt><trkpt lat="43.4947883" lon="11.615005"><ele>160.0</ele><time>2026-04-26T08:13:43.646Z</time></trkpt><trkpt lat="43.4947183" lon="11.61505"><ele>160.0</ele><time>2026-04-26T08:13:44.645Z</time></trkpt><trkpt lat="43.4946483" lon="11.615095"><ele>160.0</ele><time>2026-04-26T08:13:45.645Z</time></trkpt><trkpt lat="43.4945767" lon="11.6151383"><ele>160.0</ele><time>2026-04-26T08:13:46.646Z</time></trkpt><trkpt lat="43.4945067" lon="11.615185"><ele>160.0</ele><time>2026-04-26T08:13:47.643Z</time></trkpt><trkpt lat="43.4944417" lon="11.6152267"><ele>160.0</ele><time>2026-04-26T08:13:48.646Z</time></trkpt><trkpt lat="43.4943717" lon="11.6152683"><ele>160.0</ele><time>2026-04-26T08:13:49.645Z</time></trkpt><trkpt lat="43.4943" lon="11.6153067"><ele>160.14285714285714</ele><time>2026-04-26T08:13:50.645Z</time></trkpt><trkpt lat="43.4942333" lon="11.6153467"><ele>160.28571428571428</ele><time>2026-04-26T08:13:51.646Z</time></trkpt><trkpt lat="43.4941683" lon="11.6153883"><ele>160.42857142857144</ele><time>2026-04-26T08:13:52.646Z</time></trkpt><trkpt lat="43.4940983" lon="11.61543"><ele>160.57142857142856</ele><time>2026-04-26T08:13:53.645Z</time></trkpt><trkpt lat="43.4940333" lon="11.6154717"><ele>160.71428571428572</ele><time>2026-04-26T08:13:54.646Z</time></trkpt><trkpt lat="43.4939667" lon="11.615515"><ele>160.85714285714286</ele><time>2026-04-26T08:13:55.645Z</time></trkpt><trkpt lat="43.4939" lon="11.61556"><ele>161.0</ele><time>2026-04-26T08:13:56.645Z</time></trkpt><trkpt lat="43.4938333" lon="11.6156033"><ele>161.0</ele><time>2026-04-26T08:13:57.645Z</time></trkpt><trkpt lat="43.4937667" lon="11.6156483"><ele>161.0</ele><time>2026-04-26T08:13:58.644Z</time></trkpt><trkpt lat="43.4937017" lon="11.615695"><ele>161.0</ele><time>2026-04-26T08:13:59.645Z</time></trkpt><trkpt lat="43.4936383" lon="11.615735"><ele>161.0</ele><time>2026-04-26T08:14:00.647Z</time></trkpt><trkpt lat="43.4935717" lon="11.615765"><ele>161.0</ele><time>2026-04-26T08:14:01.644Z</time></trkpt><trkpt lat="43.493505" lon="11.6157767"><ele>161.0</ele><time>2026-04-26T08:14:02.646Z</time></trkpt><trkpt lat="43.4934367" lon="11.6157717"><ele>161.0</ele><time>2026-04-26T08:14:03.644Z</time></trkpt><trkpt lat="43.493365" lon="11.6157617"><ele>161.42857142857142</ele><time>2026-04-26T08:14:04.646Z</time></trkpt><trkpt lat="43.4932917" lon="11.615755"><ele>161.85714285714286</ele><time>2026-04-26T08:14:05.646Z</time></trkpt><trkpt lat="43.4932133" lon="11.6157683"><ele>162.28571428571428</ele><time>2026-04-26T08:14:06.646Z</time></trkpt><trkpt lat="43.4931467" lon="11.61581"><ele>162.71428571428572</ele><time>2026-04-26T08:14:07.646Z</time></trkpt><trkpt lat="43.4930917" lon="11.61588"><ele>163.14285714285714</ele><time>2026-04-26T08:14:08.645Z</time></trkpt><trkpt lat="43.49305" lon="11.61596"><ele>163.57142857142856</ele><time>2026-04-26T08:14:09.645Z</time></trkpt><trkpt lat="43.4930067" lon="11.6160417"><ele>164.0</ele><time>2026-04-26T08:14:10.645Z</time></trkpt><trkpt lat="43.4929617" lon="11.6161167"><ele>164.14285714285714</ele><time>2026-04-26T08:14:11.645Z</time></trkpt><trkpt lat="43.4929083" lon="11.6161817"><ele>164.28571428571428</ele><time>2026-04-26T08:14:12.647Z</time></trkpt><trkpt lat="43.4928533" lon="11.61624"><ele>164.42857142857144</ele><time>2026-04-26T08:14:13.646Z</time></trkpt><trkpt lat="43.492795" lon="11.6162883"><ele>164.57142857142856</ele><time>2026-04-26T08:14:14.647Z</time></trkpt><trkpt lat="43.4927367" lon="11.6163283"><ele>164.71428571428572</ele><time>2026-04-26T08:14:15.646Z</time></trkpt><trkpt lat="43.49268" lon="11.6163717"><ele>164.85714285714286</ele><time>2026-04-26T08:14:16.645Z</time></trkpt><trkpt lat="43.4926233" lon="11.6164133"><ele>165.0</ele><time>2026-04-26T08:14:17.646Z</time></trkpt><trkpt lat="43.4925683" lon="11.6164617"><ele>165.0</ele><time>2026-04-26T08:14:18.645Z</time></trkpt><trkpt lat="43.4924683" lon="11.6165533"><ele>165.0</ele><time>2026-04-26T08:14:20.645Z</time></trkpt><trkpt lat="43.4923783" lon="11.6166583"><ele>165.0</ele><time>2026-04-26T08:14:22.645Z</time></trkpt><trkpt lat="43.492285" lon="11.6167817"><ele>165.0</ele><time>2026-04-26T08:14:24.644Z</time></trkpt><trkpt lat="43.4922417" lon="11.616845"><ele>165.0</ele><time>2026-04-26T08:14:25.647Z</time></trkpt><trkpt lat="43.4921917" lon="11.616905"><ele>165.0</ele><time>2026-04-26T08:14:26.647Z</time></trkpt><trkpt lat="43.4921367" lon="11.616965"><ele>165.0</ele><time>2026-04-26T08:14:27.646Z</time></trkpt><trkpt lat="43.49209" lon="11.6170233"><ele>165.0</ele><time>2026-04-26T08:14:28.645Z</time></trkpt><trkpt lat="43.4920033" lon="11.617145"><ele>165.0</ele><time>2026-04-26T08:14:30.646Z</time></trkpt><trkpt lat="43.49193" lon="11.6172733"><ele>165.0</ele><time>2026-04-26T08:14:32.648Z</time></trkpt><trkpt lat="43.4918633" lon="11.617395"><ele>165.2</ele><time>2026-04-26T08:14:34.645Z</time></trkpt><trkpt lat="43.49179" lon="11.6175017"><ele>165.4</ele><time>2026-04-26T08:14:36.645Z</time></trkpt><trkpt lat="43.491715" lon="11.6176167"><ele>165.60000000000002</ele><time>2026-04-26T08:14:38.646Z</time></trkpt><trkpt lat="43.4916433" lon="11.6177367"><ele>165.8</ele><time>2026-04-26T08:14:40.644Z</time></trkpt><trkpt lat="43.4915733" lon="11.61786"><ele>166.0</ele><time>2026-04-26T08:14:42.646Z</time></trkpt><trkpt lat="43.491505" lon="11.6179817"><ele>166.0</ele><time>2026-04-26T08:14:44.646Z</time></trkpt><trkpt lat="43.491435" lon="11.618105"><ele>166.0</ele><time>2026-04-26T08:14:46.645Z</time></trkpt><trkpt lat="43.4913667" lon="11.6182267"><ele>166.0</ele><time>2026-04-26T08:14:48.647Z</time></trkpt><trkpt lat="43.4913017" lon="11.6183517"><ele>166.0</ele><time>2026-04-26T08:14:50.646Z</time></trkpt><trkpt lat="43.4912383" lon="11.618475"><ele>166.0</ele><time>2026-04-26T08:14:52.645Z</time></trkpt><trkpt lat="43.49117" lon="11.61859"><ele>167.60000000000002</ele><time>2026-04-26T08:14:54.645Z</time></trkpt><trkpt lat="43.4911017" lon="11.6186967"><ele>169.2</ele><time>2026-04-26T08:14:56.645Z</time></trkpt><trkpt lat="43.4910383" lon="11.6188017"><ele>170.8</ele><time>2026-04-26T08:14:58.646Z</time></trkpt><trkpt lat="43.490975" lon="11.6189017"><ele>172.39999999999998</ele><time>2026-04-26T08:15:00.645Z</time></trkpt><trkpt lat="43.4909133" lon="11.6190083"><ele>174.0</ele><time>2026-04-26T08:15:02.645Z</time></trkpt><trkpt lat="43.4908517" lon="11.6191133"><ele>174.0</ele><time>2026-04-26T08:15:04.644Z</time></trkpt><trkpt lat="43.4907783" lon="11.619195"><ele>174.0</ele><time>2026-04-26T08:15:06.644Z</time></trkpt><trkpt lat="43.4906983" lon="11.6192667"><ele>174.0</ele><time>2026-04-26T08:15:08.645Z</time></trkpt><trkpt lat="43.490615" lon="11.6193383"><ele>174.0</ele><time>2026-04-26T08:15:10.645Z</time></trkpt><trkpt lat="43.4905333" lon="11.6194"><ele>174.0</ele><time>2026-04-26T08:15:12.648Z</time></trkpt><trkpt lat="43.4904433" lon="11.6194533"><ele>173.79999999999998</ele><time>2026-04-26T08:15:14.645Z</time></trkpt><trkpt lat="43.4903467" lon="11.6194783"><ele>173.6</ele><time>2026-04-26T08:15:16.644Z</time></trkpt><trkpt lat="43.490245" lon="11.6194917"><ele>173.4</ele><time>2026-04-26T08:15:18.645Z</time></trkpt><trkpt lat="43.4901267" lon="11.6194983"><ele>173.2</ele><time>2026-04-26T08:15:20.645Z</time></trkpt><trkpt lat="43.4900617" lon="11.6194983"><ele>173.0</ele><time>2026-04-26T08:15:21.644Z</time></trkpt><trkpt lat="43.4899933" lon="11.6194967"><ele>172.5</ele><time>2026-04-26T08:15:22.647Z</time></trkpt><trkpt lat="43.4899233" lon="11.6194967"><ele>172.0</ele><time>2026-04-26T08:15:23.645Z</time></trkpt><trkpt lat="43.4898517" lon="11.6194917"><ele>171.5</ele><time>2026-04-26T08:15:24.649Z</time></trkpt><trkpt lat="43.489785" lon="11.6194933"><ele>171.0</ele><time>2026-04-26T08:15:25.644Z</time></trkpt><trkpt lat="43.4896667" lon="11.6194883"><ele>170.5</ele><time>2026-04-26T08:15:27.646Z</time></trkpt><trkpt lat="43.489555" lon="11.6194883"><ele>170.0</ele><time>2026-04-26T08:15:29.646Z</time></trkpt><trkpt lat="43.48948" lon="11.619515"><ele>170.0</ele><time>2026-04-26T08:15:31.646Z</time></trkpt><trkpt lat="43.48942" lon="11.6195733"><ele>170.0</ele><time>2026-04-26T08:15:33.644Z</time></trkpt><trkpt lat="43.4893883" lon="11.61967"><ele>170.0</ele><time>2026-04-26T08:15:35.645Z</time></trkpt><trkpt lat="43.4893867" lon="11.6197867"><ele>170.0</ele><time>2026-04-26T08:15:37.646Z</time></trkpt><trkpt lat="43.4893917" lon="11.6199017"><ele>170.0</ele><time>2026-04-26T08:15:39.645Z</time></trkpt><trkpt lat="43.4893967" lon="11.62001"><ele>170.0</ele><time>2026-04-26T08:15:41.645Z</time></trkpt><trkpt lat="43.4893983" lon="11.620115"><ele>170.0</ele><time>2026-04-26T08:15:43.645Z</time></trkpt><trkpt lat="43.4893983" lon="11.6202167"><ele>170.0</ele><time>2026-04-26T08:15:45.646Z</time></trkpt><trkpt lat="43.4893983" lon="11.6203233"><ele>170.0</ele><time>2026-04-26T08:15:47.644Z</time></trkpt><trkpt lat="43.4893883" lon="11.620425"><ele>170.0</ele><time>2026-04-26T08:15:49.646Z</time></trkpt><trkpt lat="43.489385" lon="11.6205333"><ele>170.0</ele><time>2026-04-26T08:15:51.645Z</time></trkpt><trkpt lat="43.489385" lon="11.620635"><ele>170.0</ele><time>2026-04-26T08:15:53.646Z</time></trkpt><trkpt lat="43.489385" lon="11.620745"><ele>170.57142857142858</ele><time>2026-04-26T08:15:55.644Z</time></trkpt><trkpt lat="43.4893683" lon="11.6208433"><ele>171.14285714285714</ele><time>2026-04-26T08:15:57.646Z</time></trkpt><trkpt lat="43.4893483" lon="11.6209267"><ele>171.71428571428572</ele><time>2026-04-26T08:15:59.645Z</time></trkpt><trkpt lat="43.489325" lon="11.621015"><ele>172.28571428571428</ele><time>2026-04-26T08:16:01.644Z</time></trkpt><trkpt lat="43.4893" lon="11.6211133"><ele>172.85714285714286</ele><time>2026-04-26T08:16:03.646Z</time></trkpt><trkpt lat="43.48926" lon="11.6212017"><ele>173.42857142857142</ele><time>2026-04-26T08:16:05.645Z</time></trkpt><trkpt lat="43.4892067" lon="11.621285"><ele>174.0</ele><time>2026-04-26T08:16:07.645Z</time></trkpt><trkpt lat="43.489145" lon="11.6213667"><ele>174.16666666666666</ele><time>2026-04-26T08:16:09.644Z</time></trkpt><trkpt lat="43.4890733" lon="11.6214433"><ele>174.33333333333334</ele><time>2026-04-26T08:16:11.644Z</time></trkpt><trkpt lat="43.48899" lon="11.6215133"><ele>174.5</ele><time>2026-04-26T08:16:13.646Z</time></trkpt><trkpt lat="43.4888817" lon="11.6215767"><ele>174.66666666666669</ele><time>2026-04-26T08:16:15.645Z</time></trkpt><trkpt lat="43.4888217" lon="11.6216067"><ele>174.83333333333334</ele><time>2026-04-26T08:16:16.647Z</time></trkpt><trkpt lat="43.488755" lon="11.6216367"><ele>175.0</ele><time>2026-04-26T08:16:17.647Z</time></trkpt><trkpt lat="43.488685" lon="11.62167"><ele>175.0</ele><time>2026-04-26T08:16:18.644Z</time></trkpt><trkpt lat="43.48861" lon="11.6217083"><ele>175.0</ele><time>2026-04-26T08:16:19.645Z</time></trkpt><trkpt lat="43.4885333" lon="11.6217533"><ele>175.0</ele><time>2026-04-26T08:16:20.645Z</time></trkpt><trkpt lat="43.4884533" lon="11.621795"><ele>175.0</ele><time>2026-04-26T08:16:21.646Z</time></trkpt><trkpt lat="43.48837" lon="11.621845"><ele>175.0</ele><time>2026-04-26T08:16:22.644Z</time></trkpt><trkpt lat="43.488285" lon="11.6218917"><ele>175.0</ele><time>2026-04-26T08:16:23.645Z</time></trkpt><trkpt lat="43.4881967" lon="11.6219417"><ele>177.6</ele><time>2026-04-26T08:16:24.645Z</time></trkpt><trkpt lat="43.4881067" lon="11.6219933"><ele>180.2</ele><time>2026-04-26T08:16:25.647Z</time></trkpt><trkpt lat="43.4880183" lon="11.6220483"><ele>182.8</ele><time>2026-04-26T08:16:26.646Z</time></trkpt><trkpt lat="43.4879283" lon="11.6221"><ele>185.4</ele><time>2026-04-26T08:16:27.646Z</time></trkpt><trkpt lat="43.4878367" lon="11.6221467"><ele>188.0</ele><time>2026-04-26T08:16:28.647Z</time></trkpt><trkpt lat="43.487745" lon="11.6221983"><ele>188.0</ele><time>2026-04-26T08:16:29.645Z</time></trkpt><trkpt lat="43.487655" lon="11.62224"><ele>188.0</ele><time>2026-04-26T08:16:30.647Z</time></trkpt><trkpt lat="43.487565" lon="11.6222683"><ele>188.0</ele><time>2026-04-26T08:16:31.646Z</time></trkpt><trkpt lat="43.4874717" lon="11.622275"><ele>188.0</ele><time>2026-04-26T08:16:32.646Z</time></trkpt><trkpt lat="43.4873817" lon="11.6222633"><ele>188.0</ele><time>2026-04-26T08:16:33.645Z</time></trkpt><trkpt lat="43.4872967" lon="11.62224"><ele>188.0</ele><time>2026-04-26T08:16:34.646Z</time></trkpt><trkpt lat="43.4872167" lon="11.622215"><ele>188.0</ele><time>2026-04-26T08:16:35.646Z</time></trkpt><trkpt lat="43.48714" lon="11.6221867"><ele>188.0</ele><time>2026-04-26T08:16:36.645Z</time></trkpt><trkpt lat="43.487065" lon="11.62216"><ele>188.0</ele><time>2026-04-26T08:16:37.645Z</time></trkpt><trkpt lat="43.4869933" lon="11.6221333"><ele>188.0</ele><time>2026-04-26T08:16:38.648Z</time></trkpt><trkpt lat="43.4869167" lon="11.6221"><ele>188.0</ele><time>2026-04-26T08:16:39.647Z</time></trkpt><trkpt lat="43.4868383" lon="11.6220717"><ele>188.66666666666666</ele><time>2026-04-26T08:16:40.645Z</time></trkpt><trkpt lat="43.48676" lon="11.6220433"><ele>189.33333333333331</ele><time>2026-04-26T08:16:41.648Z</time></trkpt><trkpt lat="43.4866783" lon="11.622015"><ele>190.0</ele><time>2026-04-26T08:16:42.646Z</time></trkpt><trkpt lat="43.486595" lon="11.6219883"><ele>190.66666666666666</ele><time>2026-04-26T08:16:43.647Z</time></trkpt><trkpt lat="43.48651" lon="11.6219567"><ele>191.33333333333334</ele><time>2026-04-26T08:16:44.646Z</time></trkpt><trkpt lat="43.486425" lon="11.6219283"><ele>192.0</ele><time>2026-04-26T08:16:45.644Z</time></trkpt><trkpt lat="43.4863367" lon="11.621895"><ele>189.2</ele><time>2026-04-26T08:16:46.646Z</time></trkpt><trkpt lat="43.4862433" lon="11.621865"><ele>186.39999999999998</ele><time>2026-04-26T08:16:47.646Z</time></trkpt><trkpt lat="43.48615" lon="11.6218383"><ele>183.60000000000002</ele><time>2026-04-26T08:16:48.647Z</time></trkpt><trkpt lat="43.4860567" lon="11.6218083"><ele>180.8</ele><time>2026-04-26T08:16:49.645Z</time></trkpt><trkpt lat="43.4859683" lon="11.621765"><ele>178.0</ele><time>2026-04-26T08:16:50.647Z</time></trkpt><trkpt lat="43.4858833" lon="11.6217083"><ele>178.0</ele><time>2026-04-26T08:16:51.645Z</time></trkpt><trkpt lat="43.4858033" lon="11.6216317"><ele>178.0</ele><time>2026-04-26T08:16:52.646Z</time></trkpt><trkpt lat="43.48573" lon="11.6215467"><ele>178.0</ele><time>2026-04-26T08:16:53.647Z</time></trkpt><trkpt lat="43.4856583" lon="11.6214517"><ele>178.0</ele><time>2026-04-26T08:16:54.646Z</time></trkpt><trkpt lat="43.4855867" lon="11.621365"><ele>178.0</ele><time>2026-04-26T08:16:55.645Z</time></trkpt><trkpt lat="43.4855167" lon="11.621275"><ele>178.0</ele><time>2026-04-26T08:16:56.647Z</time></trkpt><trkpt lat="43.485445" lon="11.6211833"><ele>178.0</ele><time>2026-04-26T08:16:57.645Z</time></trkpt><trkpt lat="43.4853733" lon="11.6210967"><ele>178.0</ele><time>2026-04-26T08:16:58.647Z</time></trkpt><trkpt lat="43.4853017" lon="11.62101"><ele>178.0</ele><time>2026-04-26T08:16:59.646Z</time></trkpt><trkpt lat="43.48523" lon="11.62092"><ele>178.0</ele><time>2026-04-26T08:17:00.646Z</time></trkpt><trkpt lat="43.4851633" lon="11.62083"><ele>177.60000000000002</ele><time>2026-04-26T08:17:01.646Z</time></trkpt><trkpt lat="43.485095" lon="11.62074"><ele>177.20000000000002</ele><time>2026-04-26T08:17:02.648Z</time></trkpt><trkpt lat="43.4850267" lon="11.62065"><ele>176.8</ele><time>2026-04-26T08:17:03.645Z</time></trkpt><trkpt lat="43.4849567" lon="11.6205583"><ele>176.4</ele><time>2026-04-26T08:17:04.646Z</time></trkpt><trkpt lat="43.48489" lon="11.6204683"><ele>176.0</ele><time>2026-04-26T08:17:05.645Z</time></trkpt><trkpt lat="43.4848183" lon="11.6203817"><ele>176.0</ele><time>2026-04-26T08:17:06.647Z</time></trkpt><trkpt lat="43.48475" lon="11.6202983"><ele>176.0</ele><time>2026-04-26T08:17:07.644Z</time></trkpt><trkpt lat="43.4846817" lon="11.620215"><ele>176.0</ele><time>2026-04-26T08:17:08.647Z</time></trkpt><trkpt lat="43.4846117" lon="11.620135"><ele>176.0</ele><time>2026-04-26T08:17:09.645Z</time></trkpt><trkpt lat="43.4845433" lon="11.62005"><ele>176.0</ele><time>2026-04-26T08:17:10.645Z</time></trkpt><trkpt lat="43.484485" lon="11.6199683"><ele>176.0</ele><time>2026-04-26T08:17:11.645Z</time></trkpt><trkpt lat="43.4844167" lon="11.619895"><ele>176.0</ele><time>2026-04-26T08:17:12.647Z</time></trkpt><trkpt lat="43.4843517" lon="11.6198133"><ele>176.0</ele><time>2026-04-26T08:17:13.646Z</time></trkpt><trkpt lat="43.48429" lon="11.6197333"><ele>176.0</ele><time>2026-04-26T08:17:14.647Z</time></trkpt><trkpt lat="43.4842283" lon="11.6196583"><ele>176.0</ele><time>2026-04-26T08:17:15.645Z</time></trkpt><trkpt lat="43.4841667" lon="11.6195833"><ele>176.0</ele><time>2026-04-26T08:17:16.645Z</time></trkpt><trkpt lat="43.4841067" lon="11.6195083"><ele>176.0</ele><time>2026-04-26T08:17:17.647Z</time></trkpt><trkpt lat="43.4840483" lon="11.619435"><ele>175.57142857142858</ele><time>2026-04-26T08:17:18.647Z</time></trkpt><trkpt lat="43.4839867" lon="11.619365"><ele>175.14285714285714</ele><time>2026-04-26T08:17:19.645Z</time></trkpt><trkpt lat="43.4839283" lon="11.6192967"><ele>174.71428571428572</ele><time>2026-04-26T08:17:20.645Z</time></trkpt><trkpt lat="43.483875" lon="11.61923"><ele>174.28571428571428</ele><time>2026-04-26T08:17:21.646Z</time></trkpt><trkpt lat="43.48382" lon="11.6191633"><ele>173.85714285714286</ele><time>2026-04-26T08:17:22.647Z</time></trkpt><trkpt lat="43.4837783" lon="11.6190983"><ele>173.42857142857142</ele><time>2026-04-26T08:17:23.647Z</time></trkpt><trkpt lat="43.4837283" lon="11.619035"><ele>173.0</ele><time>2026-04-26T08:17:24.648Z</time></trkpt><trkpt lat="43.48368" lon="11.6189767"><ele>173.0</ele><time>2026-04-26T08:17:25.647Z</time></trkpt><trkpt lat="43.483625" lon="11.6189167"><ele>173.0</ele><time>2026-04-26T08:17:26.645Z</time></trkpt><trkpt lat="43.483575" lon="11.6188533"><ele>173.0</ele><time>2026-04-26T08:17:27.646Z</time></trkpt><trkpt lat="43.4834833" lon="11.6187317"><ele>173.0</ele><time>2026-04-26T08:17:29.646Z</time></trkpt><trkpt lat="43.48343" lon="11.6186667"><ele>173.0</ele><time>2026-04-26T08:17:30.647Z</time></trkpt><trkpt lat="43.483385" lon="11.618605"><ele>173.0</ele><time>2026-04-26T08:17:31.646Z</time></trkpt><trkpt lat="43.4833417" lon="11.6185417"><ele>174.75</ele><time>2026-04-26T08:17:32.646Z</time></trkpt><trkpt lat="43.48324" lon="11.6184417"><ele>176.5</ele><time>2026-04-26T08:17:34.648Z</time></trkpt><trkpt lat="43.4831317" lon="11.6183767"><ele>178.25</ele><time>2026-04-26T08:17:36.646Z</time></trkpt><trkpt lat="43.4830133" lon="11.618345"><ele>180.0</ele><time>2026-04-26T08:17:38.646Z</time></trkpt><trkpt lat="43.4828917" lon="11.6183333"><ele>180.8</ele><time>2026-04-26T08:17:40.645Z</time></trkpt><trkpt lat="43.4827767" lon="11.6183483"><ele>181.6</ele><time>2026-04-26T08:17:42.646Z</time></trkpt><trkpt lat="43.4826717" lon="11.6183833"><ele>182.39999999999998</ele><time>2026-04-26T08:17:44.646Z</time></trkpt><trkpt lat="43.4825683" lon="11.6184267"><ele>183.2</ele><time>2026-04-26T08:17:46.648Z</time></trkpt><trkpt lat="43.4824667" lon="11.6184833"><ele>184.0</ele><time>2026-04-26T08:17:48.645Z</time></trkpt><trkpt lat="43.4823717" lon="11.61854"><ele>184.0</ele><time>2026-04-26T08:17:50.647Z</time></trkpt><trkpt lat="43.482285" lon="11.618595"><ele>184.0</ele><time>2026-04-26T08:17:52.647Z</time></trkpt><trkpt lat="43.4821967" lon="11.6186517"><ele>184.0</ele><time>2026-04-26T08:17:54.645Z</time></trkpt><trkpt lat="43.4821167" lon="11.6187117"><ele>184.0</ele><time>2026-04-26T08:17:56.647Z</time></trkpt><trkpt lat="43.482035" lon="11.6187667"><ele>184.0</ele><time>2026-04-26T08:17:58.645Z</time></trkpt><trkpt lat="43.48194" lon="11.6188317"><ele>184.6</ele><time>2026-04-26T08:18:00.646Z</time></trkpt><trkpt lat="43.481845" lon="11.6189067"><ele>185.2</ele><time>2026-04-26T08:18:02.647Z</time></trkpt><trkpt lat="43.4817567" lon="11.6189817"><ele>185.79999999999998</ele><time>2026-04-26T08:18:04.647Z</time></trkpt><trkpt lat="43.4816683" lon="11.6190567"><ele>186.39999999999998</ele><time>2026-04-26T08:18:06.647Z</time></trkpt><trkpt lat="43.48158" lon="11.6191533"><ele>187.0</ele><time>2026-04-26T08:18:08.647Z</time></trkpt><trkpt lat="43.4815017" lon="11.6192567"><ele>187.0</ele><time>2026-04-26T08:18:10.648Z</time></trkpt><trkpt lat="43.4814383" lon="11.6193733"><ele>187.0</ele><time>2026-04-26T08:18:12.645Z</time></trkpt><trkpt lat="43.48139" lon="11.6194917"><ele>187.0</ele><time>2026-04-26T08:18:14.646Z</time></trkpt><trkpt lat="43.4813467" lon="11.6196317"><ele>187.0</ele><time>2026-04-26T08:18:16.645Z</time></trkpt><trkpt lat="43.4813033" lon="11.6197617"><ele>187.0</ele><time>2026-04-26T08:18:18.648Z</time></trkpt><trkpt lat="43.4812733" lon="11.61989"><ele>188.0</ele><time>2026-04-26T08:18:20.648Z</time></trkpt><trkpt lat="43.4812433" lon="11.6200267"><ele>189.0</ele><time>2026-04-26T08:18:22.645Z</time></trkpt><trkpt lat="43.48121" lon="11.62015"><ele>190.0</ele><time>2026-04-26T08:18:24.646Z</time></trkpt><trkpt lat="43.4811717" lon="11.620275"><ele>191.0</ele><time>2026-04-26T08:18:26.647Z</time></trkpt><trkpt lat="43.481115" lon="11.6203917"><ele>192.0</ele><time>2026-04-26T08:18:28.647Z</time></trkpt><trkpt lat="43.4810433" lon="11.6204867"><ele>192.0</ele><time>2026-04-26T08:18:30.648Z</time></trkpt><trkpt lat="43.4809783" lon="11.6205617"><ele>192.0</ele><time>2026-04-26T08:18:32.647Z</time></trkpt><trkpt lat="43.4809083" lon="11.62062"><ele>192.0</ele><time>2026-04-26T08:18:34.645Z</time></trkpt><trkpt lat="43.48083" lon="11.6206717"><ele>192.0</ele><time>2026-04-26T08:18:36.646Z</time></trkpt><trkpt lat="43.4807483" lon="11.62073"><ele>192.0</ele><time>2026-04-26T08:18:38.648Z</time></trkpt><trkpt lat="43.4806633" lon="11.6207867"><ele>192.0</ele><time>2026-04-26T08:18:40.644Z</time></trkpt><trkpt lat="43.4805767" lon="11.620855"><ele>192.0</ele><time>2026-04-26T08:18:42.646Z</time></trkpt><trkpt lat="43.4804883" lon="11.6209367"><ele>192.0</ele><time>2026-04-26T08:18:44.648Z</time></trkpt><trkpt lat="43.480405" lon="11.62101"><ele>192.0</ele><time>2026-04-26T08:18:46.647Z</time></trkpt><trkpt lat="43.4803267" lon="11.621075"><ele>192.0</ele><time>2026-04-26T08:18:48.647Z</time></trkpt><trkpt lat="43.480255" lon="11.6211533"><ele>192.0</ele><time>2026-04-26T08:18:50.646Z</time></trkpt><trkpt lat="43.4801783" lon="11.6212183"><ele>193.39999999999998</ele><time>2026-04-26T08:18:52.646Z</time></trkpt><trkpt lat="43.4801017" lon="11.621285"><ele>194.79999999999998</ele><time>2026-04-26T08:18:54.646Z</time></trkpt><trkpt lat="43.4800183" lon="11.6213467"><ele>196.2</ele><time>2026-04-26T08:18:56.647Z</time></trkpt><trkpt lat="43.4799467" lon="11.621415"><ele>197.6</ele><time>2026-04-26T08:18:58.647Z</time></trkpt><trkpt lat="43.47988" lon="11.6214867"><ele>199.0</ele><time>2026-04-26T08:19:00.646Z</time></trkpt><trkpt lat="43.4798" lon="11.621565"><ele>199.0</ele><time>2026-04-26T08:19:02.648Z</time></trkpt><trkpt lat="43.4797133" lon="11.6216317"><ele>199.0</ele><time>2026-04-26T08:19:04.646Z</time></trkpt><trkpt lat="43.4796283" lon="11.6217083"><ele>199.0</ele><time>2026-04-26T08:19:06.648Z</time></trkpt><trkpt lat="43.47956" lon="11.6217783"><ele>199.0</ele><time>2026-04-26T08:19:08.646Z</time></trkpt><trkpt lat="43.479495" lon="11.621845"><ele>199.0</ele><time>2026-04-26T08:19:10.647Z</time></trkpt><trkpt lat="43.4794217" lon="11.6219133"><ele>198.6</ele><time>2026-04-26T08:19:12.646Z</time></trkpt><trkpt lat="43.47934" lon="11.6219867"><ele>198.2</ele><time>2026-04-26T08:19:14.646Z</time></trkpt><trkpt lat="43.4792483" lon="11.6220433"><ele>197.79999999999998</ele><time>2026-04-26T08:19:16.646Z</time></trkpt><trkpt lat="43.47916" lon="11.6220883"><ele>197.39999999999998</ele><time>2026-04-26T08:19:18.646Z</time></trkpt><trkpt lat="43.4790733" lon="11.62214"><ele>197.0</ele><time>2026-04-26T08:19:20.647Z</time></trkpt><trkpt lat="43.4789867" lon="11.6221733"><ele>197.0</ele><time>2026-04-26T08:19:22.645Z</time></trkpt><trkpt lat="43.4788983" lon="11.6222"><ele>197.0</ele><time>2026-04-26T08:19:24.647Z</time></trkpt><trkpt lat="43.4788067" lon="11.62222"><ele>197.0</ele><time>2026-04-26T08:19:26.647Z</time></trkpt><trkpt lat="43.4787133" lon="11.6222333"><ele>197.0</ele><time>2026-04-26T08:19:28.646Z</time></trkpt><trkpt lat="43.4786233" lon="11.6222467"><ele>197.0</ele><time>2026-04-26T08:19:30.648Z</time></trkpt><trkpt lat="43.4785317" lon="11.622255"><ele>198.66666666666669</ele><time>2026-04-26T08:19:32.646Z</time></trkpt><trkpt lat="43.4784433" lon="11.6222583"><ele>200.33333333333334</ele><time>2026-04-26T08:19:34.644Z</time></trkpt><trkpt lat="43.4783533" lon="11.6222567"><ele>202.0</ele><time>2026-04-26T08:19:36.647Z</time></trkpt><trkpt lat="43.4782733" lon="11.62221"><ele>203.66666666666669</ele><time>2026-04-26T08:19:38.645Z</time></trkpt><trkpt lat="43.4781983" lon="11.6221583"><ele>205.33333333333334</ele><time>2026-04-26T08:19:40.644Z</time></trkpt><trkpt lat="43.4781333" lon="11.6221"><ele>207.0</ele><time>2026-04-26T08:19:42.646Z</time></trkpt><trkpt lat="43.478085" lon="11.6220267"><ele>207.83333333333334</ele><time>2026-04-26T08:19:44.646Z</time></trkpt><trkpt lat="43.4780267" lon="11.6219417"><ele>208.66666666666669</ele><time>2026-04-26T08:19:46.645Z</time></trkpt><trkpt lat="43.477985" lon="11.6218417"><ele>209.5</ele><time>2026-04-26T08:19:48.647Z</time></trkpt><trkpt lat="43.4779383" lon="11.6217317"><ele>210.33333333333334</ele><time>2026-04-26T08:19:50.646Z</time></trkpt><trkpt lat="43.4779067" lon="11.6216117"><ele>211.16666666666669</ele><time>2026-04-26T08:19:52.646Z</time></trkpt><trkpt lat="43.47787" lon="11.621495"><ele>212.0</ele><time>2026-04-26T08:19:54.645Z</time></trkpt><trkpt lat="43.4778567" lon="11.6213917"><ele>213.6</ele><time>2026-04-26T08:19:56.645Z</time></trkpt><trkpt lat="43.4778233" lon="11.6212783"><ele>215.2</ele><time>2026-04-26T08:19:58.644Z</time></trkpt><trkpt lat="43.477795" lon="11.6211617"><ele>216.8</ele><time>2026-04-26T08:20:00.646Z</time></trkpt><trkpt lat="43.477755" lon="11.62105"><ele>218.4</ele><time>2026-04-26T08:20:02.646Z</time></trkpt><trkpt lat="43.47771" lon="11.62093"><ele>220.0</ele><time>2026-04-26T08:20:04.646Z</time></trkpt><trkpt lat="43.4776733" lon="11.620805"><ele>220.6</ele><time>2026-04-26T08:20:06.647Z</time></trkpt><trkpt lat="43.4776383" lon="11.62068"><ele>221.2</ele><time>2026-04-26T08:20:08.646Z</time></trkpt><trkpt lat="43.4775933" lon="11.6205567"><ele>221.8</ele><time>2026-04-26T08:20:10.647Z</time></trkpt><trkpt lat="43.4775683" lon="11.62043"><ele>222.4</ele><time>2026-04-26T08:20:12.646Z</time></trkpt><trkpt lat="43.4775317" lon="11.620315"><ele>223.0</ele><time>2026-04-26T08:20:14.648Z</time></trkpt><trkpt lat="43.477495" lon="11.62019"><ele>223.8</ele><time>2026-04-26T08:20:16.644Z</time></trkpt><trkpt lat="43.4774567" lon="11.620065"><ele>224.60000000000002</ele><time>2026-04-26T08:20:18.646Z</time></trkpt><trkpt lat="43.4774217" lon="11.6199383"><ele>225.39999999999998</ele><time>2026-04-26T08:20:20.647Z</time></trkpt><trkpt lat="43.47738" lon="11.61982"><ele>226.2</ele><time>2026-04-26T08:20:22.648Z</time></trkpt><trkpt lat="43.4773417" lon="11.619695"><ele>227.0</ele><time>2026-04-26T08:20:24.647Z</time></trkpt><trkpt lat="43.477315" lon="11.6195667"><ele>228.2</ele><time>2026-04-26T08:20:26.647Z</time></trkpt><trkpt lat="43.4772833" lon="11.61945"><ele>229.39999999999998</ele><time>2026-04-26T08:20:28.646Z</time></trkpt><trkpt lat="43.4772517" lon="11.61933"><ele>230.60000000000002</ele><time>2026-04-26T08:20:30.646Z</time></trkpt><trkpt lat="43.4772167" lon="11.6192"><ele>231.8</ele><time>2026-04-26T08:20:32.649Z</time></trkpt><trkpt lat="43.4771733" lon="11.6190733"><ele>233.0</ele><time>2026-04-26T08:20:34.647Z</time></trkpt><trkpt lat="43.4771233" lon="11.6189533"><ele>233.0</ele><time>2026-04-26T08:20:36.646Z</time></trkpt><trkpt lat="43.4770867" lon="11.6188267"><ele>233.0</ele><time>2026-04-26T08:20:38.647Z</time></trkpt><trkpt lat="43.4770367" lon="11.618715"><ele>233.0</ele><time>2026-04-26T08:20:40.647Z</time></trkpt><trkpt lat="43.4769733" lon="11.6186083"><ele>233.0</ele><time>2026-04-26T08:20:42.645Z</time></trkpt><trkpt lat="43.4769083" lon="11.618505"><ele>233.0</ele><time>2026-04-26T08:20:44.646Z</time></trkpt><trkpt lat="43.4768367" lon="11.6184083"><ele>232.60000000000002</ele><time>2026-04-26T08:20:46.645Z</time></trkpt><trkpt lat="43.476765" lon="11.6183167"><ele>232.20000000000002</ele><time>2026-04-26T08:20:48.646Z</time></trkpt><trkpt lat="43.4766783" lon="11.6182383"><ele>231.8</ele><time>2026-04-26T08:20:50.647Z</time></trkpt><trkpt lat="43.476585" lon="11.61817"><ele>231.4</ele><time>2026-04-26T08:20:52.646Z</time></trkpt><trkpt lat="43.4764917" lon="11.6181083"><ele>231.0</ele><time>2026-04-26T08:20:54.648Z</time></trkpt><trkpt lat="43.4764017" lon="11.6180467"><ele>231.0</ele><time>2026-04-26T08:20:56.646Z</time></trkpt><trkpt lat="43.4763067" lon="11.6179883"><ele>231.00000000000003</ele><time>2026-04-26T08:20:58.647Z</time></trkpt><trkpt lat="43.476215" lon="11.6179233"><ele>231.00000000000003</ele><time>2026-04-26T08:21:00.645Z</time></trkpt><trkpt lat="43.4761167" lon="11.617875"><ele>231.0</ele><time>2026-04-26T08:21:02.647Z</time></trkpt><trkpt lat="43.4760167" lon="11.6178233"><ele>231.0</ele><time>2026-04-26T08:21:04.646Z</time></trkpt><trkpt lat="43.4759233" lon="11.617765"><ele>233.4</ele><time>2026-04-26T08:21:06.646Z</time></trkpt><trkpt lat="43.4758367" lon="11.6177033"><ele>235.8</ele><time>2026-04-26T08:21:08.646Z</time></trkpt><trkpt lat="43.4757483" lon="11.6176433"><ele>238.20000000000002</ele><time>2026-04-26T08:21:10.646Z</time></trkpt><trkpt lat="43.4756517" lon="11.6175817"><ele>240.60000000000002</ele><time>2026-04-26T08:21:12.646Z</time></trkpt><trkpt lat="43.475545" lon="11.6175183"><ele>243.0</ele><time>2026-04-26T08:21:14.648Z</time></trkpt><trkpt lat="43.47545" lon="11.6174567"><ele>242.0</ele><time>2026-04-26T08:21:16.647Z</time></trkpt><trkpt lat="43.4753467" lon="11.617405"><ele>241.0</ele><time>2026-04-26T08:21:18.648Z</time></trkpt><trkpt lat="43.475245" lon="11.617345"><ele>240.0</ele><time>2026-04-26T08:21:20.648Z</time></trkpt><trkpt lat="43.475135" lon="11.6172867"><ele>239.0</ele><time>2026-04-26T08:21:22.646Z</time></trkpt><trkpt lat="43.4750317" lon="11.61723"><ele>239.0</ele><time>2026-04-26T08:21:24.645Z</time></trkpt><trkpt lat="43.4749283" lon="11.6171683"><ele>239.0</ele><time>2026-04-26T08:21:26.647Z</time></trkpt><trkpt lat="43.4748217" lon="11.6171167"><ele>239.0</ele><time>2026-04-26T08:21:28.646Z</time></trkpt><trkpt lat="43.47472" lon="11.6170633"><ele>239.0</ele><time>2026-04-26T08:21:30.646Z</time></trkpt><trkpt lat="43.474615" lon="11.6169983"><ele>239.79999999999998</ele><time>2026-04-26T08:21:32.645Z</time></trkpt><trkpt lat="43.4745033" lon="11.616935"><ele>240.59999999999997</ele><time>2026-04-26T08:21:34.644Z</time></trkpt><trkpt lat="43.4744017" lon="11.6168717"><ele>241.4</ele><time>2026-04-26T08:21:36.645Z</time></trkpt><trkpt lat="43.4743067" lon="11.6168167"><ele>242.2</ele><time>2026-04-26T08:21:38.645Z</time></trkpt><trkpt lat="43.47421" lon="11.6167683"><ele>243.0</ele><time>2026-04-26T08:21:40.645Z</time></trkpt><trkpt lat="43.474115" lon="11.6167083"><ele>243.0</ele><time>2026-04-26T08:21:42.646Z</time></trkpt><trkpt lat="43.4740117" lon="11.6166383"><ele>243.0</ele><time>2026-04-26T08:21:44.645Z</time></trkpt><trkpt lat="43.4739117" lon="11.6165733"><ele>243.0</ele><time>2026-04-26T08:21:46.645Z</time></trkpt><trkpt lat="43.47381" lon="11.6165067"><ele>243.0</ele><time>2026-04-26T08:21:48.647Z</time></trkpt><trkpt lat="43.473705" lon="11.6164333"><ele>244.25</ele><time>2026-04-26T08:21:50.645Z</time></trkpt><trkpt lat="43.473605" lon="11.616365"><ele>245.5</ele><time>2026-04-26T08:21:52.645Z</time></trkpt><trkpt lat="43.473505" lon="11.6163033"><ele>246.75</ele><time>2026-04-26T08:21:54.644Z</time></trkpt><trkpt lat="43.4734033" lon="11.61624"><ele>248.0</ele><time>2026-04-26T08:21:56.645Z</time></trkpt><trkpt lat="43.4732933" lon="11.61618"><ele>247.5</ele><time>2026-04-26T08:21:58.645Z</time></trkpt><trkpt lat="43.4731883" lon="11.616115"><ele>247.0</ele><time>2026-04-26T08:22:00.647Z</time></trkpt><trkpt lat="43.4730783" lon="11.6160517"><ele>246.5</ele><time>2026-04-26T08:22:02.644Z</time></trkpt><trkpt lat="43.4729717" lon="11.6159917"><ele>246.0</ele><time>2026-04-26T08:22:04.644Z</time></trkpt><trkpt lat="43.472865" lon="11.6159333"><ele>247.25</ele><time>2026-04-26T08:22:06.646Z</time></trkpt><trkpt lat="43.472755" lon="11.6158683"><ele>248.5</ele><time>2026-04-26T08:22:08.645Z</time></trkpt><trkpt lat="43.4726483" lon="11.6158033"><ele>249.75</ele><time>2026-04-26T08:22:10.645Z</time></trkpt><trkpt lat="43.47254" lon="11.6157283"><ele>251.0</ele><time>2026-04-26T08:22:12.644Z</time></trkpt><trkpt lat="43.4724317" lon="11.615655"><ele>251.0</ele><time>2026-04-26T08:22:14.646Z</time></trkpt><trkpt lat="43.4723267" lon="11.615585"><ele>251.0</ele><time>2026-04-26T08:22:16.644Z</time></trkpt><trkpt lat="43.47222" lon="11.6155017"><ele>251.0</ele><time>2026-04-26T08:22:18.645Z</time></trkpt><trkpt lat="43.4721133" lon="11.61542"><ele>251.0</ele><time>2026-04-26T08:22:20.645Z</time></trkpt><trkpt lat="43.4720067" lon="11.615335"><ele>251.16666666666669</ele><time>2026-04-26T08:22:22.646Z</time></trkpt><trkpt lat="43.4718967" lon="11.6152483"><ele>251.33333333333334</ele><time>2026-04-26T08:22:24.646Z</time></trkpt><trkpt lat="43.47184" lon="11.615205"><ele>251.5</ele><time>2026-04-26T08:22:25.646Z</time></trkpt><trkpt lat="43.4717833" lon="11.61516"><ele>251.66666666666669</ele><time>2026-04-26T08:22:26.646Z</time></trkpt><trkpt lat="43.4717233" lon="11.6151117"><ele>251.83333333333334</ele><time>2026-04-26T08:22:27.646Z</time></trkpt><trkpt lat="43.47166" lon="11.6150617"><ele>252.0</ele><time>2026-04-26T08:22:28.646Z</time></trkpt><trkpt lat="43.47159" lon="11.6150133"><ele>252.0</ele><time>2026-04-26T08:22:29.645Z</time></trkpt><trkpt lat="43.47152" lon="11.6149683"><ele>252.0</ele><time>2026-04-26T08:22:30.645Z</time></trkpt><trkpt lat="43.471445" lon="11.6149333"><ele>252.0</ele><time>2026-04-26T08:22:31.647Z</time></trkpt><trkpt lat="43.4713683" lon="11.6149117"><ele>252.0</ele><time>2026-04-26T08:22:32.646Z</time></trkpt><trkpt lat="43.47129" lon="11.6148983"><ele>252.0</ele><time>2026-04-26T08:22:33.645Z</time></trkpt><trkpt lat="43.471205" lon="11.6148967"><ele>252.0</ele><time>2026-04-26T08:22:34.644Z</time></trkpt><trkpt lat="43.4711217" lon="11.614895"><ele>251.2</ele><time>2026-04-26T08:22:35.645Z</time></trkpt><trkpt lat="43.4710317" lon="11.614905"><ele>250.39999999999998</ele><time>2026-04-26T08:22:36.645Z</time></trkpt><trkpt lat="43.4709483" lon="11.61492"><ele>249.60000000000002</ele><time>2026-04-26T08:22:37.645Z</time></trkpt><trkpt lat="43.47086" lon="11.6149333"><ele>248.8</ele><time>2026-04-26T08:22:38.645Z</time></trkpt><trkpt lat="43.4707667" lon="11.6149467"><ele>248.0</ele><time>2026-04-26T08:22:39.647Z</time></trkpt><trkpt lat="43.47067" lon="11.6149583"><ele>248.0</ele><time>2026-04-26T08:22:40.645Z</time></trkpt><trkpt lat="43.47057" lon="11.61497"><ele>248.0</ele><time>2026-04-26T08:22:41.645Z</time></trkpt><trkpt lat="43.47047" lon="11.6149667"><ele>248.0</ele><time>2026-04-26T08:22:42.646Z</time></trkpt><trkpt lat="43.47037" lon="11.6149517"><ele>248.0</ele><time>2026-04-26T08:22:43.646Z</time></trkpt><trkpt lat="43.4702733" lon="11.6149267"><ele>248.0</ele><time>2026-04-26T08:22:44.647Z</time></trkpt><trkpt lat="43.4701767" lon="11.6148883"><ele>247.0</ele><time>2026-04-26T08:22:45.645Z</time></trkpt><trkpt lat="43.4700833" lon="11.6148333"><ele>246.0</ele><time>2026-04-26T08:22:46.646Z</time></trkpt><trkpt lat="43.4699883" lon="11.6147833"><ele>245.0</ele><time>2026-04-26T08:22:47.646Z</time></trkpt><trkpt lat="43.4698933" lon="11.6147217"><ele>244.0</ele><time>2026-04-26T08:22:48.645Z</time></trkpt><trkpt lat="43.469805" lon="11.6146533"><ele>243.0</ele><time>2026-04-26T08:22:49.646Z</time></trkpt><trkpt lat="43.4697167" lon="11.61458"><ele>243.0</ele><time>2026-04-26T08:22:50.647Z</time></trkpt><trkpt lat="43.4696367" lon="11.6144983"><ele>243.0</ele><time>2026-04-26T08:22:51.646Z</time></trkpt><trkpt lat="43.4695583" lon="11.6144183"><ele>243.0</ele><time>2026-04-26T08:22:52.645Z</time></trkpt><trkpt lat="43.4694817" lon="11.614335"><ele>243.0</ele><time>2026-04-26T08:22:53.646Z</time></trkpt><trkpt lat="43.4694033" lon="11.6142483"><ele>243.0</ele><time>2026-04-26T08:22:54.645Z</time></trkpt><trkpt lat="43.4693283" lon="11.6141633"><ele>242.4</ele><time>2026-04-26T08:22:55.646Z</time></trkpt><trkpt lat="43.4692517" lon="11.6140817"><ele>241.8</ele><time>2026-04-26T08:22:56.645Z</time></trkpt><trkpt lat="43.4691733" lon="11.6139967"><ele>241.2</ele><time>2026-04-26T08:22:57.645Z</time></trkpt><trkpt lat="43.4690967" lon="11.6139167"><ele>240.6</ele><time>2026-04-26T08:22:58.648Z</time></trkpt><trkpt lat="43.469025" lon="11.6138383"><ele>240.0</ele><time>2026-04-26T08:22:59.645Z</time></trkpt><trkpt lat="43.468965" lon="11.6137517"><ele>240.5</ele><time>2026-04-26T08:23:00.646Z</time></trkpt><trkpt lat="43.46892" lon="11.6136533"><ele>241.0</ele><time>2026-04-26T08:23:01.646Z</time></trkpt><trkpt lat="43.4688933" lon="11.6135483"><ele>241.5</ele><time>2026-04-26T08:23:02.647Z</time></trkpt><trkpt lat="43.4688833" lon="11.613435"><ele>242.0</ele><time>2026-04-26T08:23:03.646Z</time></trkpt><trkpt lat="43.468905" lon="11.613315"><ele>242.5</ele><time>2026-04-26T08:23:04.645Z</time></trkpt><trkpt lat="43.4689317" lon="11.6131933"><ele>243.0</ele><time>2026-04-26T08:23:05.646Z</time></trkpt><trkpt lat="43.468965" lon="11.6130683"><ele>243.0</ele><time>2026-04-26T08:23:06.647Z</time></trkpt><trkpt lat="43.4689983" lon="11.61294"><ele>243.0</ele><time>2026-04-26T08:23:07.646Z</time></trkpt><trkpt lat="43.4690317" lon="11.6128067"><ele>243.0</ele><time>2026-04-26T08:23:08.646Z</time></trkpt><trkpt lat="43.4690617" lon="11.6126717"><ele>243.0</ele><time>2026-04-26T08:23:09.646Z</time></trkpt><trkpt lat="43.4690933" lon="11.612535"><ele>243.0</ele><time>2026-04-26T08:23:10.645Z</time></trkpt><trkpt lat="43.46913" lon="11.6123967"><ele>242.0</ele><time>2026-04-26T08:23:11.646Z</time></trkpt><trkpt lat="43.4691667" lon="11.612255"><ele>241.0</ele><time>2026-04-26T08:23:12.647Z</time></trkpt><trkpt lat="43.4692033" lon="11.6121133"><ele>240.0</ele><time>2026-04-26T08:23:13.645Z</time></trkpt><trkpt lat="43.469235" lon="11.611965"><ele>239.0</ele><time>2026-04-26T08:23:14.646Z</time></trkpt><trkpt lat="43.46927" lon="11.6118117"><ele>238.0</ele><time>2026-04-26T08:23:15.647Z</time></trkpt><trkpt lat="43.4693083" lon="11.61166"><ele>237.75</ele><time>2026-04-26T08:23:16.645Z</time></trkpt><trkpt lat="43.4693467" lon="11.61151"><ele>237.5</ele><time>2026-04-26T08:23:17.646Z</time></trkpt><trkpt lat="43.4693867" lon="11.61136"><ele>237.25</ele><time>2026-04-26T08:23:18.644Z</time></trkpt><trkpt lat="43.4694267" lon="11.6112117"><ele>237.0</ele><time>2026-04-26T08:23:19.645Z</time></trkpt><trkpt lat="43.46947" lon="11.6110617"><ele>237.0</ele><time>2026-04-26T08:23:20.644Z</time></trkpt><trkpt lat="43.46951" lon="11.61091"><ele>237.0</ele><time>2026-04-26T08:23:21.644Z</time></trkpt><trkpt lat="43.4695467" lon="11.6107583"><ele>237.0</ele><time>2026-04-26T08:23:22.646Z</time></trkpt><trkpt lat="43.4695817" lon="11.6106133"><ele>237.0</ele><time>2026-04-26T08:23:23.646Z</time></trkpt><trkpt lat="43.4696167" lon="11.610465"><ele>236.25</ele><time>2026-04-26T08:23:24.648Z</time></trkpt><trkpt lat="43.46965" lon="11.6103217"><ele>235.5</ele><time>2026-04-26T08:23:25.645Z</time></trkpt><trkpt lat="43.4696867" lon="11.610175"><ele>234.75</ele><time>2026-04-26T08:23:26.646Z</time></trkpt><trkpt lat="43.469725" lon="11.6100233"><ele>234.0</ele><time>2026-04-26T08:23:27.648Z</time></trkpt><trkpt lat="43.4697633" lon="11.6098717"><ele>234.0</ele><time>2026-04-26T08:23:28.645Z</time></trkpt><trkpt lat="43.4697967" lon="11.60972"><ele>234.0</ele><time>2026-04-26T08:23:29.645Z</time></trkpt><trkpt lat="43.4698367" lon="11.6095733"><ele>234.0</ele><time>2026-04-26T08:23:30.646Z</time></trkpt><trkpt lat="43.46987" lon="11.6094217"><ele>234.0</ele><time>2026-04-26T08:23:31.644Z</time></trkpt><trkpt lat="43.4699017" lon="11.6092767"><ele>234.0</ele><time>2026-04-26T08:23:32.645Z</time></trkpt><trkpt lat="43.4699383" lon="11.6091483"><ele>233.99999999999997</ele><time>2026-04-26T08:23:33.648Z</time></trkpt><trkpt lat="43.469975" lon="11.6090117"><ele>233.99999999999997</ele><time>2026-04-26T08:23:34.646Z</time></trkpt><trkpt lat="43.4700117" lon="11.6088717"><ele>234.0</ele><time>2026-04-26T08:23:35.645Z</time></trkpt><trkpt lat="43.47005" lon="11.6087333"><ele>234.0</ele><time>2026-04-26T08:23:36.645Z</time></trkpt><trkpt lat="43.4700817" lon="11.6085983"><ele>234.0</ele><time>2026-04-26T08:23:37.648Z</time></trkpt><trkpt lat="43.4701117" lon="11.6084633"><ele>233.99999999999997</ele><time>2026-04-26T08:23:38.648Z</time></trkpt><trkpt lat="43.4701433" lon="11.6083383"><ele>233.99999999999997</ele><time>2026-04-26T08:23:39.646Z</time></trkpt><trkpt lat="43.4701617" lon="11.608205"><ele>234.0</ele><time>2026-04-26T08:23:40.644Z</time></trkpt><trkpt lat="43.4701717" lon="11.60807"><ele>234.0</ele><time>2026-04-26T08:23:41.645Z</time></trkpt><trkpt lat="43.470175" lon="11.60794"><ele>235.16666666666666</ele><time>2026-04-26T08:23:42.647Z</time></trkpt><trkpt lat="43.47017" lon="11.6078183"><ele>236.33333333333331</ele><time>2026-04-26T08:23:43.647Z</time></trkpt><trkpt lat="43.4701567" lon="11.607705"><ele>237.5</ele><time>2026-04-26T08:23:44.647Z</time></trkpt><trkpt lat="43.4701367" lon="11.6075983"><ele>238.66666666666666</ele><time>2026-04-26T08:23:45.646Z</time></trkpt><trkpt lat="43.4701167" lon="11.6075033"><ele>239.83333333333331</ele><time>2026-04-26T08:23:46.645Z</time></trkpt><trkpt lat="43.47009" lon="11.607415"><ele>241.0</ele><time>2026-04-26T08:23:47.645Z</time></trkpt><trkpt lat="43.4700617" lon="11.6073317"><ele>240.99999999999997</ele><time>2026-04-26T08:23:48.645Z</time></trkpt><trkpt lat="43.4700367" lon="11.6072517"><ele>241.0</ele><time>2026-04-26T08:23:49.647Z</time></trkpt><trkpt lat="43.4699967" lon="11.607115"><ele>241.0</ele><time>2026-04-26T08:23:51.645Z</time></trkpt><trkpt lat="43.4699733" lon="11.6070017"><ele>241.0</ele><time>2026-04-26T08:23:53.646Z</time></trkpt><trkpt lat="43.4699633" lon="11.6068983"><ele>240.99999999999997</ele><time>2026-04-26T08:23:55.644Z</time></trkpt><trkpt lat="43.4699667" lon="11.6067867"><ele>241.0</ele><time>2026-04-26T08:23:57.645Z</time></trkpt><trkpt lat="43.4699867" lon="11.60669"><ele>241.99999999999997</ele><time>2026-04-26T08:23:59.643Z</time></trkpt><trkpt lat="43.4700167" lon="11.606575"><ele>243.0</ele><time>2026-04-26T08:24:02.645Z</time></trkpt><trkpt lat="43.47004" lon="11.6064567"><ele>244.0</ele><time>2026-04-26T08:24:05.645Z</time></trkpt><trkpt lat="43.4700417" lon="11.606345"><ele>245.0</ele><time>2026-04-26T08:24:08.646Z</time></trkpt><trkpt lat="43.4700433" lon="11.6062133"><ele>245.99999999999997</ele><time>2026-04-26T08:24:11.643Z</time></trkpt><trkpt lat="43.470055" lon="11.6061133"><ele>247.0</ele><time>2026-04-26T08:24:13.644Z</time></trkpt><trkpt lat="43.4700617" lon="11.6060167"><ele>247.49999999999997</ele><time>2026-04-26T08:24:15.644Z</time></trkpt><trkpt lat="43.470075" lon="11.605895"><ele>248.0</ele><time>2026-04-26T08:24:18.647Z</time></trkpt><trkpt lat="43.470105" lon="11.6057833"><ele>248.5</ele><time>2026-04-26T08:24:21.646Z</time></trkpt><trkpt lat="43.470125" lon="11.6056517"><ele>249.0</ele><time>2026-04-26T08:24:24.645Z</time></trkpt><trkpt lat="43.470135" lon="11.6055467"><ele>249.49999999999997</ele><time>2026-04-26T08:24:26.646Z</time></trkpt><trkpt lat="43.4701367" lon="11.6054533"><ele>250.0</ele><time>2026-04-26T08:24:28.645Z</time></trkpt><trkpt lat="43.4701483" lon="11.605355"><ele>250.16666666666666</ele><time>2026-04-26T08:24:30.644Z</time></trkpt><trkpt lat="43.4701533" lon="11.6052567"><ele>250.33333333333331</ele><time>2026-04-26T08:24:32.648Z</time></trkpt><trkpt lat="43.4701633" lon="11.605165"><ele>250.5</ele><time>2026-04-26T08:24:34.644Z</time></trkpt><trkpt lat="43.470175" lon="11.6050767"><ele>250.66666666666669</ele><time>2026-04-26T08:24:36.645Z</time></trkpt><trkpt lat="43.4701883" lon="11.6049583"><ele>250.83333333333334</ele><time>2026-04-26T08:24:38.646Z</time></trkpt><trkpt lat="43.4702" lon="11.604825"><ele>251.0</ele><time>2026-04-26T08:24:40.645Z</time></trkpt><trkpt lat="43.4702083" lon="11.60469"><ele>251.0</ele><time>2026-04-26T08:24:42.643Z</time></trkpt><trkpt lat="43.4702333" lon="11.6045533"><ele>251.00000000000003</ele><time>2026-04-26T08:24:44.647Z</time></trkpt><trkpt lat="43.4702617" lon="11.604415"><ele>251.00000000000003</ele><time>2026-04-26T08:24:46.646Z</time></trkpt><trkpt lat="43.4702983" lon="11.6042817"><ele>251.0</ele><time>2026-04-26T08:24:48.646Z</time></trkpt><trkpt lat="43.4703433" lon="11.6041467"><ele>251.0</ele><time>2026-04-26T08:24:50.646Z</time></trkpt><trkpt lat="43.4704033" lon="11.6040017"><ele>251.20000000000002</ele><time>2026-04-26T08:24:52.644Z</time></trkpt><trkpt lat="43.4704783" lon="11.6038633"><ele>251.40000000000003</ele><time>2026-04-26T08:24:54.645Z</time></trkpt><trkpt lat="43.4705617" lon="11.6037383"><ele>251.6</ele><time>2026-04-26T08:24:56.646Z</time></trkpt><trkpt lat="43.4706483" lon="11.603615"><ele>251.8</ele><time>2026-04-26T08:24:58.646Z</time></trkpt><trkpt lat="43.4706983" lon="11.6035617"><ele>252.0</ele><time>2026-04-26T08:24:59.646Z</time></trkpt><trkpt lat="43.4707967" lon="11.603455"><ele>251.5</ele><time>2026-04-26T08:25:01.647Z</time></trkpt><trkpt lat="43.4708483" lon="11.6034017"><ele>251.0</ele><time>2026-04-26T08:25:02.646Z</time></trkpt><trkpt lat="43.4709517" lon="11.6033017"><ele>250.5</ele><time>2026-04-26T08:25:04.646Z</time></trkpt><trkpt lat="43.4710033" lon="11.6032467"><ele>250.0</ele><time>2026-04-26T08:25:05.646Z</time></trkpt><trkpt lat="43.471055" lon="11.6031917"><ele>249.5</ele><time>2026-04-26T08:25:06.646Z</time></trkpt><trkpt lat="43.471105" lon="11.6031367"><ele>249.0</ele><time>2026-04-26T08:25:07.645Z</time></trkpt><trkpt lat="43.471205" lon="11.60303"><ele>249.0</ele><time>2026-04-26T08:25:09.644Z</time></trkpt><trkpt lat="43.4712567" lon="11.60298"><ele>248.99999999999997</ele><time>2026-04-26T08:25:10.645Z</time></trkpt><trkpt lat="43.4713083" lon="11.6029267"><ele>248.99999999999997</ele><time>2026-04-26T08:25:11.642Z</time></trkpt><trkpt lat="43.4714067" lon="11.6028267"><ele>249.0</ele><time>2026-04-26T08:25:13.643Z</time></trkpt><trkpt lat="43.4715017" lon="11.6027283"><ele>249.0</ele><time>2026-04-26T08:25:15.641Z</time></trkpt><trkpt lat="43.4716" lon="11.602625"><ele>249.25</ele><time>2026-04-26T08:25:17.642Z</time></trkpt><trkpt lat="43.4716933" lon="11.6025233"><ele>249.5</ele><time>2026-04-26T08:25:19.644Z</time></trkpt><trkpt lat="43.4717917" lon="11.6024167"><ele>249.75</ele><time>2026-04-26T08:25:21.644Z</time></trkpt><trkpt lat="43.471885" lon="11.602315"><ele>250.0</ele><time>2026-04-26T08:25:23.645Z</time></trkpt><trkpt lat="43.4719817" lon="11.60221"><ele>250.0</ele><time>2026-04-26T08:25:25.644Z</time></trkpt><trkpt lat="43.4720317" lon="11.602155"><ele>250.0</ele><time>2026-04-26T08:25:26.646Z</time></trkpt><trkpt lat="43.47213" lon="11.6020533"><ele>250.0</ele><time>2026-04-26T08:25:28.645Z</time></trkpt><trkpt lat="43.472225" lon="11.6019467"><ele>250.0</ele><time>2026-04-26T08:25:30.646Z</time></trkpt><trkpt lat="43.472325" lon="11.60184"><ele>250.0</ele><time>2026-04-26T08:25:32.646Z</time></trkpt><trkpt lat="43.472375" lon="11.6017833"><ele>250.33333333333331</ele><time>2026-04-26T08:25:33.646Z</time></trkpt><trkpt lat="43.472425" lon="11.601725"><ele>250.66666666666666</ele><time>2026-04-26T08:25:34.647Z</time></trkpt><trkpt lat="43.472475" lon="11.6016667"><ele>251.0</ele><time>2026-04-26T08:25:35.645Z</time></trkpt><trkpt lat="43.4725733" lon="11.601565"><ele>251.33333333333331</ele><time>2026-04-26T08:25:37.646Z</time></trkpt><trkpt lat="43.4726233" lon="11.6015117"><ele>251.66666666666666</ele><time>2026-04-26T08:25:38.646Z</time></trkpt><trkpt lat="43.472725" lon="11.60141"><ele>252.0</ele><time>2026-04-26T08:25:40.646Z</time></trkpt><trkpt lat="43.472825" lon="11.6013117"><ele>252.0</ele><time>2026-04-26T08:25:42.648Z</time></trkpt><trkpt lat="43.47292" lon="11.6012117"><ele>252.0</ele><time>2026-04-26T08:25:44.646Z</time></trkpt><trkpt lat="43.47302" lon="11.6011033"><ele>252.0</ele><time>2026-04-26T08:25:46.645Z</time></trkpt><trkpt lat="43.4730717" lon="11.6010517"><ele>252.0</ele><time>2026-04-26T08:25:47.645Z</time></trkpt><trkpt lat="43.47312" lon="11.600995"><ele>252.0</ele><time>2026-04-26T08:25:48.648Z</time></trkpt><trkpt lat="43.4732183" lon="11.6008833"><ele>252.5</ele><time>2026-04-26T08:25:50.646Z</time></trkpt><trkpt lat="43.47327" lon="11.6008317"><ele>253.0</ele><time>2026-04-26T08:25:51.646Z</time></trkpt><trkpt lat="43.4733217" lon="11.60078"><ele>253.5</ele><time>2026-04-26T08:25:52.646Z</time></trkpt><trkpt lat="43.4734267" lon="11.6006817"><ele>254.0</ele><time>2026-04-26T08:25:54.647Z</time></trkpt><trkpt lat="43.4734783" lon="11.6006283"><ele>254.5</ele><time>2026-04-26T08:25:55.646Z</time></trkpt><trkpt lat="43.4735767" lon="11.600525"><ele>255.0</ele><time>2026-04-26T08:25:57.646Z</time></trkpt><trkpt lat="43.4736733" lon="11.60042"><ele>254.5</ele><time>2026-04-26T08:25:59.646Z</time></trkpt><trkpt lat="43.4737683" lon="11.6003167"><ele>254.0</ele><time>2026-04-26T08:26:01.648Z</time></trkpt><trkpt lat="43.473865" lon="11.6001983"><ele>253.5</ele><time>2026-04-26T08:26:03.645Z</time></trkpt><trkpt lat="43.4739583" lon="11.60008"><ele>253.0</ele><time>2026-04-26T08:26:05.647Z</time></trkpt><trkpt lat="43.4740433" lon="11.5999533"><ele>253.60000000000002</ele><time>2026-04-26T08:26:07.646Z</time></trkpt><trkpt lat="43.4740817" lon="11.59988"><ele>254.20000000000002</ele><time>2026-04-26T08:26:08.646Z</time></trkpt><trkpt lat="43.474135" lon="11.59973"><ele>254.8</ele><time>2026-04-26T08:26:10.646Z</time></trkpt><trkpt lat="43.4741617" lon="11.599565"><ele>255.4</ele><time>2026-04-26T08:26:12.645Z</time></trkpt><trkpt lat="43.474175" lon="11.5994017"><ele>256.0</ele><time>2026-04-26T08:26:14.644Z</time></trkpt><trkpt lat="43.4741933" lon="11.5992483"><ele>255.99999999999997</ele><time>2026-04-26T08:26:16.642Z</time></trkpt><trkpt lat="43.4742217" lon="11.599105"><ele>256.0</ele><time>2026-04-26T08:26:18.643Z</time></trkpt><trkpt lat="43.4742533" lon="11.59898"><ele>256.0</ele><time>2026-04-26T08:26:20.643Z</time></trkpt><trkpt lat="43.4742783" lon="11.5988733"><ele>256.0</ele><time>2026-04-26T08:26:22.646Z</time></trkpt><trkpt lat="43.47428" lon="11.598785"><ele>255.99999999999997</ele><time>2026-04-26T08:33:21.643Z</time></trkpt><trkpt lat="43.4742667" lon="11.598665"><ele>256.0</ele><time>2026-04-26T08:33:25.646Z</time></trkpt><trkpt lat="43.4742317" lon="11.598585"><ele>256.0</ele><time>2026-04-26T08:33:27.644Z</time></trkpt><trkpt lat="43.47419" lon="11.598485"><ele>256.0</ele><time>2026-04-26T08:33:29.645Z</time></trkpt><trkpt lat="43.4741533" lon="11.5983783"><ele>256.0</ele><time>2026-04-26T08:33:31.645Z</time></trkpt><trkpt lat="43.4741133" lon="11.5982617"><ele>256.0</ele><time>2026-04-26T08:33:33.645Z</time></trkpt><trkpt lat="43.4740733" lon="11.5981417"><ele>256.0</ele><time>2026-04-26T08:33:35.645Z</time></trkpt><trkpt lat="43.4740333" lon="11.5980133"><ele>256.0</ele><time>2026-04-26T08:33:37.646Z</time></trkpt><trkpt lat="43.474" lon="11.5978733"><ele>256.0</ele><time>2026-04-26T08:33:39.644Z</time></trkpt><trkpt lat="43.4739667" lon="11.597725"><ele>256.0</ele><time>2026-04-26T08:33:41.643Z</time></trkpt><trkpt lat="43.4739283" lon="11.59758"><ele>256.0</ele><time>2026-04-26T08:33:43.643Z</time></trkpt><trkpt lat="43.4738733" lon="11.5974317"><ele>256.16666666666663</ele><time>2026-04-26T08:33:45.643Z</time></trkpt><trkpt lat="43.4738033" lon="11.5972933"><ele>256.3333333333333</ele><time>2026-04-26T08:33:47.644Z</time></trkpt><trkpt lat="43.4737767" lon="11.5972067"><ele>256.5</ele><time>2026-04-26T08:33:48.647Z</time></trkpt><trkpt lat="43.4737567" lon="11.5971233"><ele>256.6666666666667</ele><time>2026-04-26T08:33:49.647Z</time></trkpt><trkpt lat="43.47374" lon="11.5970383"><ele>256.83333333333337</ele><time>2026-04-26T08:33:50.646Z</time></trkpt><trkpt lat="43.47372" lon="11.596955"><ele>257.0</ele><time>2026-04-26T08:33:51.646Z</time></trkpt><trkpt lat="43.473685" lon="11.59679"><ele>257.33333333333337</ele><time>2026-04-26T08:33:53.646Z</time></trkpt><trkpt lat="43.47366" lon="11.596635"><ele>257.6666666666667</ele><time>2026-04-26T08:33:55.645Z</time></trkpt><trkpt lat="43.47364" lon="11.5965483"><ele>258.0</ele><time>2026-04-26T08:33:56.647Z</time></trkpt><trkpt lat="43.4736167" lon="11.5963967"><ele>258.3333333333333</ele><time>2026-04-26T08:33:58.647Z</time></trkpt><trkpt lat="43.473605" lon="11.5963083"><ele>258.66666666666663</ele><time>2026-04-26T08:33:59.646Z</time></trkpt><trkpt lat="43.4735933" lon="11.5962217"><ele>259.0</ele><time>2026-04-26T08:34:00.647Z</time></trkpt><trkpt lat="43.4735817" lon="11.5961333"><ele>259.14285714285717</ele><time>2026-04-26T08:34:01.645Z</time></trkpt><trkpt lat="43.47357" lon="11.5960417"><ele>259.2857142857143</ele><time>2026-04-26T08:34:02.646Z</time></trkpt><trkpt lat="43.4735583" lon="11.59595"><ele>259.42857142857144</ele><time>2026-04-26T08:34:03.647Z</time></trkpt><trkpt lat="43.47355" lon="11.5958567"><ele>259.57142857142856</ele><time>2026-04-26T08:34:04.647Z</time></trkpt><trkpt lat="43.4735383" lon="11.5957617"><ele>259.7142857142857</ele><time>2026-04-26T08:34:05.646Z</time></trkpt><trkpt lat="43.4735233" lon="11.5956617"><ele>259.8571428571429</ele><time>2026-04-26T08:34:06.646Z</time></trkpt><trkpt lat="43.4735117" lon="11.595555"><ele>260.0</ele><time>2026-04-26T08:34:07.645Z</time></trkpt><trkpt lat="43.4735033" lon="11.5954467"><ele>260.0</ele><time>2026-04-26T08:34:08.648Z</time></trkpt><trkpt lat="43.47349" lon="11.59534"><ele>260.0</ele><time>2026-04-26T08:34:09.647Z</time></trkpt><trkpt lat="43.47348" lon="11.5952317"><ele>260.0</ele><time>2026-04-26T08:34:10.647Z</time></trkpt><trkpt lat="43.4734717" lon="11.595125"><ele>260.0</ele><time>2026-04-26T08:34:11.646Z</time></trkpt><trkpt lat="43.4734617" lon="11.5950133"><ele>260.0</ele><time>2026-04-26T08:34:12.646Z</time></trkpt><trkpt lat="43.4734467" lon="11.5949"><ele>260.0</ele><time>2026-04-26T08:34:13.647Z</time></trkpt><trkpt lat="43.4734383" lon="11.594785"><ele>260.1666666666667</ele><time>2026-04-26T08:34:14.645Z</time></trkpt><trkpt lat="43.473435" lon="11.5946717"><ele>260.33333333333337</ele><time>2026-04-26T08:34:15.645Z</time></trkpt><trkpt lat="43.4734267" lon="11.5945617"><ele>260.5</ele><time>2026-04-26T08:34:16.647Z</time></trkpt><trkpt lat="43.4734217" lon="11.5944533"><ele>260.6666666666667</ele><time>2026-04-26T08:34:17.646Z</time></trkpt><trkpt lat="43.473415" lon="11.5943433"><ele>260.8333333333333</ele><time>2026-04-26T08:34:18.645Z</time></trkpt><trkpt lat="43.4734067" lon="11.59424"><ele>261.0</ele><time>2026-04-26T08:34:19.647Z</time></trkpt><trkpt lat="43.4733967" lon="11.594135"><ele>260.7142857142857</ele><time>2026-04-26T08:34:20.645Z</time></trkpt><trkpt lat="43.4733883" lon="11.5940333"><ele>260.42857142857144</ele><time>2026-04-26T08:34:21.646Z</time></trkpt><trkpt lat="43.47338" lon="11.5939333"><ele>260.1428571428571</ele><time>2026-04-26T08:34:22.646Z</time></trkpt><trkpt lat="43.47337" lon="11.5938317"><ele>259.8571428571429</ele><time>2026-04-26T08:34:23.646Z</time></trkpt><trkpt lat="43.47336" lon="11.5937317"><ele>259.57142857142856</ele><time>2026-04-26T08:34:24.646Z</time></trkpt><trkpt lat="43.4733533" lon="11.5936317"><ele>259.2857142857143</ele><time>2026-04-26T08:34:25.646Z</time></trkpt><trkpt lat="43.4733433" lon="11.5935333"><ele>259.0</ele><time>2026-04-26T08:34:26.648Z</time></trkpt><trkpt lat="43.473335" lon="11.5934367"><ele>259.0</ele><time>2026-04-26T08:34:27.646Z</time></trkpt><trkpt lat="43.47333" lon="11.5933383"><ele>259.0</ele><time>2026-04-26T08:34:28.645Z</time></trkpt><trkpt lat="43.4733233" lon="11.5932383"><ele>259.0</ele><time>2026-04-26T08:34:29.646Z</time></trkpt><trkpt lat="43.47332" lon="11.5931433"><ele>259.0</ele><time>2026-04-26T08:34:30.646Z</time></trkpt><trkpt lat="43.47331" lon="11.5930483"><ele>259.0</ele><time>2026-04-26T08:34:31.645Z</time></trkpt><trkpt lat="43.4732967" lon="11.5929567"><ele>259.0</ele><time>2026-04-26T08:34:32.646Z</time></trkpt><trkpt lat="43.473285" lon="11.592865"><ele>259.0</ele><time>2026-04-26T08:34:33.645Z</time></trkpt><trkpt lat="43.4732783" lon="11.5927717"><ele>259.0</ele><time>2026-04-26T08:34:34.646Z</time></trkpt><trkpt lat="43.473275" lon="11.5926783"><ele>259.0</ele><time>2026-04-26T08:34:35.647Z</time></trkpt><trkpt lat="43.4732683" lon="11.592585"><ele>259.0</ele><time>2026-04-26T08:34:36.647Z</time></trkpt><trkpt lat="43.4732567" lon="11.5924933"><ele>259.0</ele><time>2026-04-26T08:34:37.646Z</time></trkpt><trkpt lat="43.4732483" lon="11.5924017"><ele>259.0</ele><time>2026-04-26T08:34:38.648Z</time></trkpt><trkpt lat="43.47324" lon="11.5923067"><ele>259.0</ele><time>2026-04-26T08:34:39.647Z</time></trkpt><trkpt lat="43.4732317" lon="11.592215"><ele>259.0</ele><time>2026-04-26T08:34:40.644Z</time></trkpt><trkpt lat="43.4732233" lon="11.5921233"><ele>259.0</ele><time>2026-04-26T08:34:41.644Z</time></trkpt><trkpt lat="43.4732133" lon="11.5920283"><ele>259.0</ele><time>2026-04-26T08:34:42.647Z</time></trkpt><trkpt lat="43.4732067" lon="11.591935"><ele>259.0</ele><time>2026-04-26T08:34:43.646Z</time></trkpt><trkpt lat="43.4731983" lon="11.5918417"><ele>259.0</ele><time>2026-04-26T08:34:44.646Z</time></trkpt><trkpt lat="43.47319" lon="11.5917533"><ele>259.0</ele><time>2026-04-26T08:34:45.646Z</time></trkpt><trkpt lat="43.4731817" lon="11.5916617"><ele>259.0</ele><time>2026-04-26T08:34:46.644Z</time></trkpt><trkpt lat="43.473175" lon="11.591575"><ele>259.0</ele><time>2026-04-26T08:34:47.644Z</time></trkpt><trkpt lat="43.473165" lon="11.5914867"><ele>259.5</ele><time>2026-04-26T08:34:48.647Z</time></trkpt><trkpt lat="43.4731567" lon="11.5914"><ele>260.0</ele><time>2026-04-26T08:34:49.644Z</time></trkpt><trkpt lat="43.4731383" lon="11.5912267"><ele>260.5</ele><time>2026-04-26T08:34:51.645Z</time></trkpt><trkpt lat="43.4731333" lon="11.59114"><ele>261.0</ele><time>2026-04-26T08:34:52.644Z</time></trkpt><trkpt lat="43.473125" lon="11.5910433"><ele>261.5</ele><time>2026-04-26T08:34:53.646Z</time></trkpt><trkpt lat="43.4731217" lon="11.5909483"><ele>262.0</ele><time>2026-04-26T08:34:54.644Z</time></trkpt><trkpt lat="43.473115" lon="11.5908517"><ele>262.42857142857144</ele><time>2026-04-26T08:34:55.644Z</time></trkpt><trkpt lat="43.47311" lon="11.590755"><ele>262.8571428571429</ele><time>2026-04-26T08:34:56.644Z</time></trkpt><trkpt lat="43.4731033" lon="11.5906583"><ele>263.2857142857143</ele><time>2026-04-26T08:34:57.646Z</time></trkpt><trkpt lat="43.4730967" lon="11.5905633"><ele>263.7142857142857</ele><time>2026-04-26T08:34:58.644Z</time></trkpt><trkpt lat="43.4730883" lon="11.59047"><ele>264.1428571428571</ele><time>2026-04-26T08:34:59.645Z</time></trkpt><trkpt lat="43.47308" lon="11.5903767"><ele>264.57142857142856</ele><time>2026-04-26T08:35:00.645Z</time></trkpt><trkpt lat="43.473075" lon="11.5902833"><ele>265.0</ele><time>2026-04-26T08:35:01.646Z</time></trkpt><trkpt lat="43.4730667" lon="11.59019"><ele>265.2857142857143</ele><time>2026-04-26T08:35:02.645Z</time></trkpt><trkpt lat="43.4730567" lon="11.5900967"><ele>265.57142857142856</ele><time>2026-04-26T08:35:03.647Z</time></trkpt><trkpt lat="43.4730467" lon="11.590005"><ele>265.8571428571429</ele><time>2026-04-26T08:35:04.644Z</time></trkpt><trkpt lat="43.47304" lon="11.5899117"><ele>266.1428571428571</ele><time>2026-04-26T08:35:05.647Z</time></trkpt><trkpt lat="43.4730333" lon="11.5898183"><ele>266.42857142857144</ele><time>2026-04-26T08:35:06.645Z</time></trkpt><trkpt lat="43.4730267" lon="11.5897317"><ele>266.7142857142857</ele><time>2026-04-26T08:35:07.644Z</time></trkpt><trkpt lat="43.4730167" lon="11.58964"><ele>267.0</ele><time>2026-04-26T08:35:08.644Z</time></trkpt><trkpt lat="43.4730017" lon="11.5895433"><ele>267.00000000000006</ele><time>2026-04-26T08:35:09.644Z</time></trkpt><trkpt lat="43.47299" lon="11.5894467"><ele>267.0</ele><time>2026-04-26T08:35:10.644Z</time></trkpt><trkpt lat="43.472975" lon="11.5893533"><ele>267.0</ele><time>2026-04-26T08:35:11.645Z</time></trkpt><trkpt lat="43.4729617" lon="11.58926"><ele>267.0</ele><time>2026-04-26T08:35:12.645Z</time></trkpt><trkpt lat="43.4729517" lon="11.5891667"><ele>267.0</ele><time>2026-04-26T08:35:13.644Z</time></trkpt><trkpt lat="43.472945" lon="11.58907"><ele>267.00000000000006</ele><time>2026-04-26T08:35:14.645Z</time></trkpt><trkpt lat="43.47294" lon="11.58897"><ele>267.0</ele><time>2026-04-26T08:35:15.644Z</time></trkpt><trkpt lat="43.4729417" lon="11.5888767"><ele>267.00000000000006</ele><time>2026-04-26T08:35:16.645Z</time></trkpt><trkpt lat="43.4729467" lon="11.58878"><ele>267.0</ele><time>2026-04-26T08:35:17.645Z</time></trkpt><trkpt lat="43.4729567" lon="11.588685"><ele>267.0</ele><time>2026-04-26T08:35:18.646Z</time></trkpt><trkpt lat="43.4729567" lon="11.5885867"><ele>267.0</ele><time>2026-04-26T08:35:19.646Z</time></trkpt><trkpt lat="43.4729733" lon="11.5884933"><ele>267.0</ele><time>2026-04-26T08:35:20.645Z</time></trkpt><trkpt lat="43.4729833" lon="11.588395"><ele>267.00000000000006</ele><time>2026-04-26T08:35:21.646Z</time></trkpt><trkpt lat="43.473" lon="11.5882983"><ele>267.0</ele><time>2026-04-26T08:35:22.645Z</time></trkpt><trkpt lat="43.47302" lon="11.588205"><ele>267.14285714285717</ele><time>2026-04-26T08:35:23.644Z</time></trkpt><trkpt lat="43.4730367" lon="11.5881067"><ele>267.2857142857143</ele><time>2026-04-26T08:35:24.646Z</time></trkpt><trkpt lat="43.473055" lon="11.5880167"><ele>267.42857142857144</ele><time>2026-04-26T08:35:25.644Z</time></trkpt><trkpt lat="43.473075" lon="11.5879267"><ele>267.57142857142856</ele><time>2026-04-26T08:35:26.645Z</time></trkpt><trkpt lat="43.4730983" lon="11.5878333"><ele>267.7142857142857</ele><time>2026-04-26T08:35:27.645Z</time></trkpt><trkpt lat="43.473125" lon="11.5877433"><ele>267.8571428571429</ele><time>2026-04-26T08:35:28.645Z</time></trkpt><trkpt lat="43.47315" lon="11.5876467"><ele>268.0</ele><time>2026-04-26T08:35:29.646Z</time></trkpt><trkpt lat="43.4731767" lon="11.5875517"><ele>268.14285714285717</ele><time>2026-04-26T08:35:30.644Z</time></trkpt><trkpt lat="43.4732067" lon="11.5874583"><ele>268.2857142857143</ele><time>2026-04-26T08:35:31.644Z</time></trkpt><trkpt lat="43.4732367" lon="11.587365"><ele>268.42857142857144</ele><time>2026-04-26T08:35:32.646Z</time></trkpt><trkpt lat="43.4732667" lon="11.587275"><ele>268.57142857142856</ele><time>2026-04-26T08:35:33.645Z</time></trkpt><trkpt lat="43.4733017" lon="11.5871833"><ele>268.7142857142857</ele><time>2026-04-26T08:35:34.644Z</time></trkpt><trkpt lat="43.4733333" lon="11.5870933"><ele>268.8571428571429</ele><time>2026-04-26T08:35:35.644Z</time></trkpt><trkpt lat="43.4733667" lon="11.5869983"><ele>269.0</ele><time>2026-04-26T08:35:36.644Z</time></trkpt><trkpt lat="43.4734" lon="11.5869083"><ele>269.2857142857143</ele><time>2026-04-26T08:35:37.647Z</time></trkpt><trkpt lat="43.4734317" lon="11.5868183"><ele>269.5714285714286</ele><time>2026-04-26T08:35:38.644Z</time></trkpt><trkpt lat="43.4734633" lon="11.5867233"><ele>269.8571428571429</ele><time>2026-04-26T08:35:39.644Z</time></trkpt><trkpt lat="43.4734933" lon="11.5866267"><ele>270.14285714285717</ele><time>2026-04-26T08:35:40.647Z</time></trkpt><trkpt lat="43.4735217" lon="11.5865333"><ele>270.42857142857144</ele><time>2026-04-26T08:35:41.646Z</time></trkpt><trkpt lat="43.4735533" lon="11.586445"><ele>270.7142857142857</ele><time>2026-04-26T08:35:42.646Z</time></trkpt><trkpt lat="43.4735833" lon="11.5863567"><ele>271.0</ele><time>2026-04-26T08:35:43.646Z</time></trkpt><trkpt lat="43.4736183" lon="11.5862633"><ele>271.1428571428571</ele><time>2026-04-26T08:35:44.646Z</time></trkpt><trkpt lat="43.4736517" lon="11.5861633"><ele>271.2857142857143</ele><time>2026-04-26T08:35:45.644Z</time></trkpt><trkpt lat="43.4736817" lon="11.5860667"><ele>271.42857142857144</ele><time>2026-04-26T08:35:46.645Z</time></trkpt><trkpt lat="43.473705" lon="11.5859833"><ele>271.57142857142856</ele><time>2026-04-26T08:35:47.645Z</time></trkpt><trkpt lat="43.4737333" lon="11.5858833"><ele>271.7142857142857</ele><time>2026-04-26T08:35:48.644Z</time></trkpt><trkpt lat="43.4737617" lon="11.585785"><ele>271.85714285714283</ele><time>2026-04-26T08:35:49.646Z</time></trkpt><trkpt lat="43.47379" lon="11.5856983"><ele>272.0</ele><time>2026-04-26T08:35:50.645Z</time></trkpt><trkpt lat="43.4738217" lon="11.5856033"><ele>271.6</ele><time>2026-04-26T08:35:51.646Z</time></trkpt><trkpt lat="43.4738517" lon="11.58551"><ele>271.2</ele><time>2026-04-26T08:35:52.646Z</time></trkpt><trkpt lat="43.4738767" lon="11.585425"><ele>270.8</ele><time>2026-04-26T08:35:53.646Z</time></trkpt><trkpt lat="43.4739217" lon="11.5852917"><ele>270.4</ele><time>2026-04-26T08:35:55.646Z</time></trkpt><trkpt lat="43.4739633" lon="11.5851467"><ele>270.0</ele><time>2026-04-26T08:35:57.645Z</time></trkpt><trkpt lat="43.4740117" lon="11.5850067"><ele>269.8</ele><time>2026-04-26T08:35:59.646Z</time></trkpt><trkpt lat="43.4740517" lon="11.58488"><ele>269.6</ele><time>2026-04-26T08:36:01.645Z</time></trkpt><trkpt lat="43.4741" lon="11.5847483"><ele>269.4</ele><time>2026-04-26T08:36:03.646Z</time></trkpt><trkpt lat="43.4741517" lon="11.5846167"><ele>269.2</ele><time>2026-04-26T08:36:05.644Z</time></trkpt><trkpt lat="43.4742067" lon="11.584475"><ele>269.0</ele><time>2026-04-26T08:36:07.644Z</time></trkpt><trkpt lat="43.474255" lon="11.584335"><ele>269.0</ele><time>2026-04-26T08:36:09.645Z</time></trkpt><trkpt lat="43.4743017" lon="11.5841917"><ele>269.0</ele><time>2026-04-26T08:36:11.646Z</time></trkpt><trkpt lat="43.474365" lon="11.5840417"><ele>269.0</ele><time>2026-04-26T08:36:13.646Z</time></trkpt><trkpt lat="43.4743983" lon="11.5839517"><ele>269.0</ele><time>2026-04-26T08:36:14.645Z</time></trkpt><trkpt lat="43.47444" lon="11.5838533"><ele>269.0</ele><time>2026-04-26T08:36:15.646Z</time></trkpt><trkpt lat="43.4744883" lon="11.5837517"><ele>268.8</ele><time>2026-04-26T08:36:16.645Z</time></trkpt><trkpt lat="43.4745383" lon="11.5836483"><ele>268.59999999999997</ele><time>2026-04-26T08:36:17.645Z</time></trkpt><trkpt lat="43.474595" lon="11.58354"><ele>268.4</ele><time>2026-04-26T08:36:18.646Z</time></trkpt><trkpt lat="43.474655" lon="11.5834267"><ele>268.2</ele><time>2026-04-26T08:36:19.645Z</time></trkpt><trkpt lat="43.47471" lon="11.5833083"><ele>268.0</ele><time>2026-04-26T08:36:20.646Z</time></trkpt><trkpt lat="43.4747667" lon="11.5831867"><ele>268.0</ele><time>2026-04-26T08:36:21.645Z</time></trkpt><trkpt lat="43.4748283" lon="11.5830583"><ele>268.0</ele><time>2026-04-26T08:36:22.646Z</time></trkpt><trkpt lat="43.4748917" lon="11.5829283"><ele>268.0</ele><time>2026-04-26T08:36:23.645Z</time></trkpt><trkpt lat="43.474955" lon="11.5827967"><ele>268.0</ele><time>2026-04-26T08:36:24.647Z</time></trkpt><trkpt lat="43.4750183" lon="11.5826667"><ele>268.75</ele><time>2026-04-26T08:36:25.646Z</time></trkpt><trkpt lat="43.4750817" lon="11.582535"><ele>269.5</ele><time>2026-04-26T08:36:26.646Z</time></trkpt><trkpt lat="43.4751417" lon="11.5823967"><ele>270.25</ele><time>2026-04-26T08:36:27.645Z</time></trkpt><trkpt lat="43.4752033" lon="11.582265"><ele>271.0</ele><time>2026-04-26T08:36:28.644Z</time></trkpt><trkpt lat="43.4752617" lon="11.5821317"><ele>271.8</ele><time>2026-04-26T08:36:29.644Z</time></trkpt><trkpt lat="43.4753167" lon="11.5820067"><ele>272.6</ele><time>2026-04-26T08:36:30.645Z</time></trkpt><trkpt lat="43.4753717" lon="11.5818783"><ele>273.4</ele><time>2026-04-26T08:36:31.647Z</time></trkpt><trkpt lat="43.4754233" lon="11.581755"><ele>274.2</ele><time>2026-04-26T08:36:32.647Z</time></trkpt><trkpt lat="43.4754767" lon="11.581635"><ele>275.0</ele><time>2026-04-26T08:36:33.646Z</time></trkpt><trkpt lat="43.4755283" lon="11.58152"><ele>273.8</ele><time>2026-04-26T08:36:34.645Z</time></trkpt><trkpt lat="43.4755817" lon="11.581405"><ele>272.6</ele><time>2026-04-26T08:36:35.644Z</time></trkpt><trkpt lat="43.47563" lon="11.5812967"><ele>271.4</ele><time>2026-04-26T08:36:36.645Z</time></trkpt><trkpt lat="43.47568" lon="11.5811933"><ele>270.2</ele><time>2026-04-26T08:36:37.646Z</time></trkpt><trkpt lat="43.47573" lon="11.5810917"><ele>269.0</ele><time>2026-04-26T08:36:38.646Z</time></trkpt><trkpt lat="43.4757783" lon="11.5809917"><ele>269.0</ele><time>2026-04-26T08:36:39.645Z</time></trkpt><trkpt lat="43.4758233" lon="11.5808917"><ele>269.0</ele><time>2026-04-26T08:36:40.646Z</time></trkpt><trkpt lat="43.47587" lon="11.5807917"><ele>269.0</ele><time>2026-04-26T08:36:41.647Z</time></trkpt><trkpt lat="43.4759167" lon="11.5806933"><ele>269.0</ele><time>2026-04-26T08:36:42.645Z</time></trkpt><trkpt lat="43.47596" lon="11.5805967"><ele>269.0</ele><time>2026-04-26T08:36:43.645Z</time></trkpt><trkpt lat="43.476" lon="11.580505"><ele>269.0</ele><time>2026-04-26T08:36:44.646Z</time></trkpt><trkpt lat="43.4760433" lon="11.58042"><ele>269.0</ele><time>2026-04-26T08:36:45.644Z</time></trkpt><trkpt lat="43.476085" lon="11.5803333"><ele>269.0</ele><time>2026-04-26T08:36:46.645Z</time></trkpt><trkpt lat="43.476125" lon="11.580245"><ele>269.0</ele><time>2026-04-26T08:36:47.644Z</time></trkpt><trkpt lat="43.4761633" lon="11.5801567"><ele>269.0</ele><time>2026-04-26T08:36:48.647Z</time></trkpt><trkpt lat="43.4761983" lon="11.580065"><ele>269.0</ele><time>2026-04-26T08:36:49.646Z</time></trkpt><trkpt lat="43.4762383" lon="11.5799733"><ele>269.0</ele><time>2026-04-26T08:36:50.645Z</time></trkpt><trkpt lat="43.4762783" lon="11.5798867"><ele>269.0</ele><time>2026-04-26T08:36:51.645Z</time></trkpt><trkpt lat="43.4763167" lon="11.5797983"><ele>269.0</ele><time>2026-04-26T08:36:52.647Z</time></trkpt><trkpt lat="43.476355" lon="11.57971"><ele>269.0</ele><time>2026-04-26T08:36:53.644Z</time></trkpt><trkpt lat="43.4763933" lon="11.579625"><ele>269.0</ele><time>2026-04-26T08:36:54.647Z</time></trkpt><trkpt lat="43.4764267" lon="11.5795383"><ele>269.0</ele><time>2026-04-26T08:36:55.645Z</time></trkpt><trkpt lat="43.476465" lon="11.5794567"><ele>269.0</ele><time>2026-04-26T08:36:56.647Z</time></trkpt><trkpt lat="43.4765033" lon="11.5793733"><ele>269.0</ele><time>2026-04-26T08:36:57.647Z</time></trkpt><trkpt lat="43.4765433" lon="11.5792867"><ele>268.83333333333337</ele><time>2026-04-26T08:36:58.644Z</time></trkpt><trkpt lat="43.4765833" lon="11.5792"><ele>268.6666666666667</ele><time>2026-04-26T08:36:59.646Z</time></trkpt><trkpt lat="43.476625" lon="11.5791117"><ele>268.5</ele><time>2026-04-26T08:37:00.645Z</time></trkpt><trkpt lat="43.47667" lon="11.579025"><ele>268.3333333333333</ele><time>2026-04-26T08:37:01.647Z</time></trkpt><trkpt lat="43.476715" lon="11.5789267"><ele>268.16666666666663</ele><time>2026-04-26T08:37:02.646Z</time></trkpt><trkpt lat="43.4767583" lon="11.5788383"><ele>268.0</ele><time>2026-04-26T08:37:03.645Z</time></trkpt><trkpt lat="43.4768017" lon="11.5787517"><ele>268.3333333333333</ele><time>2026-04-26T08:37:04.646Z</time></trkpt><trkpt lat="43.476845" lon="11.57866"><ele>268.66666666666663</ele><time>2026-04-26T08:37:05.645Z</time></trkpt><trkpt lat="43.4768867" lon="11.5785683"><ele>269.0</ele><time>2026-04-26T08:37:06.645Z</time></trkpt><trkpt lat="43.4769283" lon="11.57848"><ele>269.3333333333333</ele><time>2026-04-26T08:37:07.645Z</time></trkpt><trkpt lat="43.4769667" lon="11.5783883"><ele>269.6666666666667</ele><time>2026-04-26T08:37:08.646Z</time></trkpt><trkpt lat="43.4770067" lon="11.5783"><ele>270.0</ele><time>2026-04-26T08:37:09.645Z</time></trkpt><trkpt lat="43.4770467" lon="11.5782133"><ele>270.0</ele><time>2026-04-26T08:37:10.645Z</time></trkpt><trkpt lat="43.477085" lon="11.578125"><ele>270.0</ele><time>2026-04-26T08:37:11.647Z</time></trkpt><trkpt lat="43.4771217" lon="11.57804"><ele>270.0</ele><time>2026-04-26T08:37:12.646Z</time></trkpt><trkpt lat="43.4771567" lon="11.5779617"><ele>270.0</ele><time>2026-04-26T08:37:13.647Z</time></trkpt><trkpt lat="43.4771983" lon="11.5778633"><ele>270.0</ele><time>2026-04-26T08:37:14.646Z</time></trkpt><trkpt lat="43.4772367" lon="11.57776"><ele>270.0</ele><time>2026-04-26T08:37:15.644Z</time></trkpt><trkpt lat="43.4772717" lon="11.5776583"><ele>270.0</ele><time>2026-04-26T08:37:16.644Z</time></trkpt><trkpt lat="43.4773033" lon="11.5775583"><ele>270.0</ele><time>2026-04-26T08:37:17.645Z</time></trkpt><trkpt lat="43.4773333" lon="11.57746"><ele>270.0</ele><time>2026-04-26T08:37:18.646Z</time></trkpt><trkpt lat="43.4773583" lon="11.5773583"><ele>270.0</ele><time>2026-04-26T08:37:19.647Z</time></trkpt><trkpt lat="43.4773783" lon="11.577255"><ele>270.0</ele><time>2026-04-26T08:37:20.647Z</time></trkpt><trkpt lat="43.4773933" lon="11.5771433"><ele>270.0</ele><time>2026-04-26T08:37:21.646Z</time></trkpt><trkpt lat="43.4774067" lon="11.5770417"><ele>270.1666666666667</ele><time>2026-04-26T08:37:22.647Z</time></trkpt><trkpt lat="43.477415" lon="11.5769383"><ele>270.3333333333333</ele><time>2026-04-26T08:37:23.645Z</time></trkpt><trkpt lat="43.477425" lon="11.5768317"><ele>270.5</ele><time>2026-04-26T08:37:24.646Z</time></trkpt><trkpt lat="43.4774383" lon="11.5767233"><ele>270.66666666666663</ele><time>2026-04-26T08:37:25.647Z</time></trkpt><trkpt lat="43.47745" lon="11.5766117"><ele>270.8333333333333</ele><time>2026-04-26T08:37:26.645Z</time></trkpt><trkpt lat="43.4774617" lon="11.5765"><ele>271.0</ele><time>2026-04-26T08:37:27.646Z</time></trkpt><trkpt lat="43.477465" lon="11.5763883"><ele>271.0</ele><time>2026-04-26T08:37:28.645Z</time></trkpt><trkpt lat="43.4774683" lon="11.5762783"><ele>271.0</ele><time>2026-04-26T08:37:29.647Z</time></trkpt><trkpt lat="43.4774717" lon="11.57617"><ele>271.0</ele><time>2026-04-26T08:37:30.648Z</time></trkpt><trkpt lat="43.4774767" lon="11.5760583"><ele>271.0</ele><time>2026-04-26T08:37:31.646Z</time></trkpt><trkpt lat="43.4774733" lon="11.5759433"><ele>271.0</ele><time>2026-04-26T08:37:32.647Z</time></trkpt><trkpt lat="43.477475" lon="11.57583"><ele>271.0</ele><time>2026-04-26T08:37:33.645Z</time></trkpt><trkpt lat="43.4774783" lon="11.5757167"><ele>270.66666666666663</ele><time>2026-04-26T08:37:34.646Z</time></trkpt><trkpt lat="43.4774833" lon="11.5756067"><ele>270.3333333333333</ele><time>2026-04-26T08:37:35.646Z</time></trkpt><trkpt lat="43.4774817" lon="11.5754867"><ele>270.0</ele><time>2026-04-26T08:37:36.647Z</time></trkpt><trkpt lat="43.4774717" lon="11.5753633"><ele>269.6666666666667</ele><time>2026-04-26T08:37:37.645Z</time></trkpt><trkpt lat="43.47747" lon="11.5752417"><ele>269.33333333333337</ele><time>2026-04-26T08:37:38.647Z</time></trkpt><trkpt lat="43.47746" lon="11.5751133"><ele>269.0</ele><time>2026-04-26T08:37:39.646Z</time></trkpt><trkpt lat="43.47746" lon="11.5749867"><ele>268.4</ele><time>2026-04-26T08:37:40.644Z</time></trkpt><trkpt lat="43.47746" lon="11.57486"><ele>267.79999999999995</ele><time>2026-04-26T08:37:41.647Z</time></trkpt><trkpt lat="43.4774633" lon="11.5747283"><ele>267.20000000000005</ele><time>2026-04-26T08:37:42.646Z</time></trkpt><trkpt lat="43.4774683" lon="11.5746"><ele>266.6</ele><time>2026-04-26T08:37:43.648Z</time></trkpt><trkpt lat="43.4774717" lon="11.57447"><ele>266.0</ele><time>2026-04-26T08:37:44.646Z</time></trkpt><trkpt lat="43.47748" lon="11.5743483"><ele>266.0</ele><time>2026-04-26T08:37:45.648Z</time></trkpt><trkpt lat="43.47749" lon="11.5742233"><ele>266.0</ele><time>2026-04-26T08:37:46.646Z</time></trkpt><trkpt lat="43.4775033" lon="11.5740967"><ele>266.0</ele><time>2026-04-26T08:37:47.645Z</time></trkpt><trkpt lat="43.4775217" lon="11.5739767"><ele>266.0</ele><time>2026-04-26T08:37:48.646Z</time></trkpt><trkpt lat="43.477545" lon="11.5738567"><ele>266.0</ele><time>2026-04-26T08:37:49.644Z</time></trkpt><trkpt lat="43.4775683" lon="11.5737383"><ele>266.0</ele><time>2026-04-26T08:37:50.645Z</time></trkpt><trkpt lat="43.477595" lon="11.573615"><ele>266.0</ele><time>2026-04-26T08:37:51.644Z</time></trkpt><trkpt lat="43.4776317" lon="11.5735"><ele>266.0</ele><time>2026-04-26T08:37:52.645Z</time></trkpt><trkpt lat="43.47767" lon="11.5733883"><ele>266.0</ele><time>2026-04-26T08:37:53.645Z</time></trkpt><trkpt lat="43.47771" lon="11.5732817"><ele>266.0</ele><time>2026-04-26T08:37:54.645Z</time></trkpt><trkpt lat="43.4777517" lon="11.5731717"><ele>266.0</ele><time>2026-04-26T08:37:55.645Z</time></trkpt><trkpt lat="43.4777867" lon="11.5730617"><ele>266.0</ele><time>2026-04-26T08:37:56.646Z</time></trkpt><trkpt lat="43.477825" lon="11.5729567"><ele>266.0</ele><time>2026-04-26T08:37:57.647Z</time></trkpt><trkpt lat="43.47786" lon="11.5728583"><ele>266.0</ele><time>2026-04-26T08:37:58.645Z</time></trkpt><trkpt lat="43.477895" lon="11.5727617"><ele>266.0</ele><time>2026-04-26T08:37:59.645Z</time></trkpt><trkpt lat="43.4779317" lon="11.5726633"><ele>266.0</ele><time>2026-04-26T08:38:00.645Z</time></trkpt><trkpt lat="43.4779717" lon="11.5725667"><ele>266.0</ele><time>2026-04-26T08:38:01.645Z</time></trkpt><trkpt lat="43.4780033" lon="11.5724717"><ele>266.0</ele><time>2026-04-26T08:38:02.647Z</time></trkpt><trkpt lat="43.4780333" lon="11.5723767"><ele>266.0</ele><time>2026-04-26T08:38:03.645Z</time></trkpt><trkpt lat="43.478065" lon="11.57228"><ele>266.0</ele><time>2026-04-26T08:38:04.645Z</time></trkpt><trkpt lat="43.4780983" lon="11.572185"><ele>266.0</ele><time>2026-04-26T08:38:05.645Z</time></trkpt><trkpt lat="43.4781283" lon="11.5720883"><ele>266.0</ele><time>2026-04-26T08:38:06.648Z</time></trkpt><trkpt lat="43.4781567" lon="11.572"><ele>266.0</ele><time>2026-04-26T08:38:07.648Z</time></trkpt><trkpt lat="43.4781833" lon="11.5719067"><ele>266.0</ele><time>2026-04-26T08:38:08.645Z</time></trkpt><trkpt lat="43.4782167" lon="11.571815"><ele>266.0</ele><time>2026-04-26T08:38:09.646Z</time></trkpt><trkpt lat="43.4782483" lon="11.5717233"><ele>266.0</ele><time>2026-04-26T08:38:10.645Z</time></trkpt><trkpt lat="43.4782817" lon="11.5716467"><ele>266.0</ele><time>2026-04-26T08:38:11.648Z</time></trkpt><trkpt lat="43.4783117" lon="11.57156"><ele>266.0</ele><time>2026-04-26T08:38:12.645Z</time></trkpt><trkpt lat="43.4783417" lon="11.571475"><ele>266.0</ele><time>2026-04-26T08:38:13.645Z</time></trkpt><trkpt lat="43.4783667" lon="11.5713883"><ele>266.0</ele><time>2026-04-26T08:38:14.645Z</time></trkpt><trkpt lat="43.478395" lon="11.5713017"><ele>266.0</ele><time>2026-04-26T08:38:15.645Z</time></trkpt><trkpt lat="43.4784217" lon="11.5712167"><ele>266.0</ele><time>2026-04-26T08:38:16.645Z</time></trkpt><trkpt lat="43.4784467" lon="11.57113"><ele>266.0</ele><time>2026-04-26T08:38:17.645Z</time></trkpt><trkpt lat="43.47847" lon="11.5710417"><ele>266.0</ele><time>2026-04-26T08:38:18.645Z</time></trkpt><trkpt lat="43.4784917" lon="11.5709467"><ele>266.0</ele><time>2026-04-26T08:38:19.647Z</time></trkpt><trkpt lat="43.4785117" lon="11.5708517"><ele>266.0</ele><time>2026-04-26T08:38:20.647Z</time></trkpt><trkpt lat="43.47853" lon="11.5707567"><ele>266.57142857142856</ele><time>2026-04-26T08:38:21.645Z</time></trkpt><trkpt lat="43.4785467" lon="11.5706633"><ele>267.1428571428571</ele><time>2026-04-26T08:38:22.645Z</time></trkpt><trkpt lat="43.4785617" lon="11.5705667"><ele>267.7142857142857</ele><time>2026-04-26T08:38:23.645Z</time></trkpt><trkpt lat="43.4785733" lon="11.570475"><ele>268.2857142857143</ele><time>2026-04-26T08:38:24.646Z</time></trkpt><trkpt lat="43.47858" lon="11.570385"><ele>268.85714285714283</ele><time>2026-04-26T08:38:25.646Z</time></trkpt><trkpt lat="43.4785883" lon="11.5702967"><ele>269.42857142857144</ele><time>2026-04-26T08:38:26.646Z</time></trkpt><trkpt lat="43.478595" lon="11.5702017"><ele>270.0</ele><time>2026-04-26T08:38:27.645Z</time></trkpt><trkpt lat="43.4786033" lon="11.5701083"><ele>270.0</ele><time>2026-04-26T08:38:28.646Z</time></trkpt><trkpt lat="43.4786117" lon="11.5700117"><ele>270.0</ele><time>2026-04-26T08:38:29.646Z</time></trkpt><trkpt lat="43.4786183" lon="11.56992"><ele>270.0</ele><time>2026-04-26T08:38:30.645Z</time></trkpt><trkpt lat="43.4786217" lon="11.5698283"><ele>270.0</ele><time>2026-04-26T08:38:31.646Z</time></trkpt><trkpt lat="43.47863" lon="11.5697367"><ele>270.0</ele><time>2026-04-26T08:38:32.646Z</time></trkpt><trkpt lat="43.47863" lon="11.5696367"><ele>270.0</ele><time>2026-04-26T08:38:33.645Z</time></trkpt><trkpt lat="43.47863" lon="11.5695417"><ele>270.0</ele><time>2026-04-26T08:38:34.648Z</time></trkpt><trkpt lat="43.4786317" lon="11.5694467"><ele>270.2857142857143</ele><time>2026-04-26T08:38:35.645Z</time></trkpt><trkpt lat="43.4786383" lon="11.5693517"><ele>270.57142857142856</ele><time>2026-04-26T08:38:36.646Z</time></trkpt><trkpt lat="43.4786433" lon="11.5692533"><ele>270.85714285714283</ele><time>2026-04-26T08:38:37.646Z</time></trkpt><trkpt lat="43.47865" lon="11.5691583"><ele>271.1428571428571</ele><time>2026-04-26T08:38:38.647Z</time></trkpt><trkpt lat="43.4786533" lon="11.5690617"><ele>271.42857142857144</ele><time>2026-04-26T08:38:39.645Z</time></trkpt><trkpt lat="43.478655" lon="11.5689667"><ele>271.71428571428567</ele><time>2026-04-26T08:38:40.648Z</time></trkpt><trkpt lat="43.4786583" lon="11.5688717"><ele>272.0</ele><time>2026-04-26T08:38:41.645Z</time></trkpt><trkpt lat="43.4786617" lon="11.5686917"><ele>272.2857142857143</ele><time>2026-04-26T08:38:43.645Z</time></trkpt><trkpt lat="43.478665" lon="11.5685917"><ele>272.57142857142856</ele><time>2026-04-26T08:38:44.647Z</time></trkpt><trkpt lat="43.4786683" lon="11.5684933"><ele>272.8571428571429</ele><time>2026-04-26T08:38:45.645Z</time></trkpt><trkpt lat="43.478675" lon="11.5683933"><ele>273.1428571428571</ele><time>2026-04-26T08:38:46.646Z</time></trkpt><trkpt lat="43.4786767" lon="11.568295"><ele>273.42857142857144</ele><time>2026-04-26T08:38:47.647Z</time></trkpt><trkpt lat="43.4786883" lon="11.5682"><ele>273.7142857142857</ele><time>2026-04-26T08:38:48.645Z</time></trkpt><trkpt lat="43.4786883" lon="11.5681017"><ele>274.0</ele><time>2026-04-26T08:38:49.645Z</time></trkpt><trkpt lat="43.478695" lon="11.568005"><ele>274.00000000000006</ele><time>2026-04-26T08:38:50.646Z</time></trkpt><trkpt lat="43.478705" lon="11.5679083"><ele>274.0</ele><time>2026-04-26T08:38:51.645Z</time></trkpt><trkpt lat="43.4787117" lon="11.5678133"><ele>274.0</ele><time>2026-04-26T08:38:52.645Z</time></trkpt><trkpt lat="43.4787167" lon="11.5677217"><ele>274.0</ele><time>2026-04-26T08:38:53.646Z</time></trkpt><trkpt lat="43.4787133" lon="11.5676233"><ele>274.0</ele><time>2026-04-26T08:38:54.646Z</time></trkpt><trkpt lat="43.47871" lon="11.567535"><ele>274.00000000000006</ele><time>2026-04-26T08:38:55.648Z</time></trkpt><trkpt lat="43.4786983" lon="11.5674417"><ele>274.0</ele><time>2026-04-26T08:38:56.645Z</time></trkpt><trkpt lat="43.4786917" lon="11.56735"><ele>274.14285714285717</ele><time>2026-04-26T08:38:57.645Z</time></trkpt><trkpt lat="43.4786783" lon="11.5672583"><ele>274.2857142857143</ele><time>2026-04-26T08:38:58.648Z</time></trkpt><trkpt lat="43.4786683" lon="11.56717"><ele>274.42857142857144</ele><time>2026-04-26T08:38:59.646Z</time></trkpt><trkpt lat="43.4786583" lon="11.5670817"><ele>274.57142857142856</ele><time>2026-04-26T08:39:00.648Z</time></trkpt><trkpt lat="43.478645" lon="11.5669867"><ele>274.7142857142857</ele><time>2026-04-26T08:39:01.646Z</time></trkpt><trkpt lat="43.478635" lon="11.566895"><ele>274.8571428571429</ele><time>2026-04-26T08:39:02.646Z</time></trkpt><trkpt lat="43.478615" lon="11.5668017"><ele>275.0</ele><time>2026-04-26T08:39:03.647Z</time></trkpt><trkpt lat="43.4785967" lon="11.566715"><ele>274.5</ele><time>2026-04-26T08:39:04.647Z</time></trkpt><trkpt lat="43.478555" lon="11.5665517"><ele>274.0</ele><time>2026-04-26T08:39:06.647Z</time></trkpt><trkpt lat="43.4785117" lon="11.5663917"><ele>273.5</ele><time>2026-04-26T08:39:08.646Z</time></trkpt><trkpt lat="43.478475" lon="11.5662317"><ele>273.0</ele><time>2026-04-26T08:39:10.647Z</time></trkpt><trkpt lat="43.4784233" lon="11.56607"><ele>272.5</ele><time>2026-04-26T08:39:12.646Z</time></trkpt><trkpt lat="43.4784183" lon="11.5659767"><ele>272.0</ele><time>2026-04-26T08:39:13.645Z</time></trkpt><trkpt lat="43.4784367" lon="11.56588"><ele>271.5</ele><time>2026-04-26T08:39:14.647Z</time></trkpt><trkpt lat="43.47847" lon="11.565785"><ele>271.0</ele><time>2026-04-26T08:39:15.646Z</time></trkpt><trkpt lat="43.478515" lon="11.5656883"><ele>270.5</ele><time>2026-04-26T08:39:16.645Z</time></trkpt><trkpt lat="43.4785667" lon="11.5655867"><ele>270.0</ele><time>2026-04-26T08:39:17.645Z</time></trkpt><trkpt lat="43.4786167" lon="11.5654783"><ele>270.0</ele><time>2026-04-26T08:39:18.646Z</time></trkpt><trkpt lat="43.4786683" lon="11.565365"><ele>270.0</ele><time>2026-04-26T08:39:19.647Z</time></trkpt><trkpt lat="43.4787233" lon="11.56525"><ele>270.0</ele><time>2026-04-26T08:39:20.648Z</time></trkpt><trkpt lat="43.478775" lon="11.565135"><ele>270.0</ele><time>2026-04-26T08:39:21.646Z</time></trkpt><trkpt lat="43.478825" lon="11.5650217"><ele>270.0</ele><time>2026-04-26T08:39:22.645Z</time></trkpt><trkpt lat="43.478875" lon="11.564925"><ele>269.3333333333333</ele><time>2026-04-26T08:39:23.644Z</time></trkpt><trkpt lat="43.47892" lon="11.564835"><ele>268.6666666666667</ele><time>2026-04-26T08:39:24.647Z</time></trkpt><trkpt lat="43.4789683" lon="11.564745"><ele>268.0</ele><time>2026-04-26T08:39:25.645Z</time></trkpt><trkpt lat="43.4790233" lon="11.564655"><ele>267.33333333333337</ele><time>2026-04-26T08:39:26.647Z</time></trkpt><trkpt lat="43.479075" lon="11.5645533"><ele>266.6666666666667</ele><time>2026-04-26T08:39:27.647Z</time></trkpt><trkpt lat="43.4791267" lon="11.5644517"><ele>266.0</ele><time>2026-04-26T08:39:28.646Z</time></trkpt><trkpt lat="43.47917" lon="11.56435"><ele>265.1666666666667</ele><time>2026-04-26T08:39:29.646Z</time></trkpt><trkpt lat="43.4792117" lon="11.564245"><ele>264.33333333333337</ele><time>2026-04-26T08:39:30.646Z</time></trkpt><trkpt lat="43.4792517" lon="11.5641417"><ele>263.5</ele><time>2026-04-26T08:39:31.647Z</time></trkpt><trkpt lat="43.4792967" lon="11.564045"><ele>262.6666666666667</ele><time>2026-04-26T08:39:32.647Z</time></trkpt><trkpt lat="43.4793367" lon="11.5639383"><ele>261.8333333333333</ele><time>2026-04-26T08:39:33.645Z</time></trkpt><trkpt lat="43.4793783" lon="11.5638383"><ele>261.0</ele><time>2026-04-26T08:39:34.645Z</time></trkpt><trkpt lat="43.4794183" lon="11.5637367"><ele>260.8333333333333</ele><time>2026-04-26T08:39:35.647Z</time></trkpt><trkpt lat="43.4794633" lon="11.563645"><ele>260.6666666666667</ele><time>2026-04-26T08:39:36.645Z</time></trkpt><trkpt lat="43.4795067" lon="11.5635517"><ele>260.5</ele><time>2026-04-26T08:39:37.646Z</time></trkpt><trkpt lat="43.4795417" lon="11.5634417"><ele>260.33333333333337</ele><time>2026-04-26T08:39:38.646Z</time></trkpt><trkpt lat="43.4795783" lon="11.5633517"><ele>260.1666666666667</ele><time>2026-04-26T08:39:39.646Z</time></trkpt><trkpt lat="43.4796117" lon="11.5632583"><ele>260.0</ele><time>2026-04-26T08:39:40.644Z</time></trkpt><trkpt lat="43.47965" lon="11.56318"><ele>260.0</ele><time>2026-04-26T08:39:41.648Z</time></trkpt><trkpt lat="43.479685" lon="11.5630967"><ele>260.0</ele><time>2026-04-26T08:39:42.648Z</time></trkpt><trkpt lat="43.47974" lon="11.56298"><ele>260.0</ele><time>2026-04-26T08:39:44.647Z</time></trkpt><trkpt lat="43.4797667" lon="11.5628867"><ele>260.0</ele><time>2026-04-26T08:39:47.647Z</time></trkpt><trkpt lat="43.4798083" lon="11.5627783"><ele>260.0</ele><time>2026-04-26T08:41:15.645Z</time></trkpt><trkpt lat="43.4798733" lon="11.5627383"><ele>260.0</ele><time>2026-04-26T08:41:18.645Z</time></trkpt><trkpt lat="43.4799067" lon="11.5626117"><ele>260.14285714285717</ele><time>2026-04-26T08:41:21.645Z</time></trkpt><trkpt lat="43.4799217" lon="11.562525"><ele>260.2857142857143</ele><time>2026-04-26T08:41:23.647Z</time></trkpt><trkpt lat="43.4799483" lon="11.56242"><ele>260.42857142857144</ele><time>2026-04-26T08:41:26.646Z</time></trkpt><trkpt lat="43.47998" lon="11.5623433"><ele>260.57142857142856</ele><time>2026-04-26T08:41:29.643Z</time></trkpt><trkpt lat="43.4800233" lon="11.56227"><ele>260.7142857142857</ele><time>2026-04-26T08:41:32.645Z</time></trkpt><trkpt lat="43.4800767" lon="11.5621867"><ele>260.8571428571429</ele><time>2026-04-26T08:41:36.645Z</time></trkpt><trkpt lat="43.4800622" lon="11.5621016"><ele>261.0</ele><time>2026-04-26T08:42:41.642Z</time></trkpt><trkpt lat="43.4798917" lon="11.56184"><ele>261.3333333333333</ele><time>2026-04-26T08:42:58.644Z</time></trkpt><trkpt lat="43.47982" lon="11.56182"><ele>261.6666666666667</ele><time>2026-04-26T08:43:02.643Z</time></trkpt><trkpt lat="43.4798783" lon="11.5618617"><ele>262.0</ele><time>2026-04-26T08:43:11.642Z</time></trkpt><trkpt lat="43.479945" lon="11.5618633"><ele>262.33333333333337</ele><time>2026-04-26T08:43:13.644Z</time></trkpt><trkpt lat="43.4800267" lon="11.5618117"><ele>262.6666666666667</ele><time>2026-04-26T08:43:16.644Z</time></trkpt><trkpt lat="43.4800633" lon="11.561725"><ele>263.0</ele><time>2026-04-26T08:43:22.643Z</time></trkpt><trkpt lat="43.48" lon="11.5618917"><ele>263.0</ele><time>2026-04-26T08:43:28.645Z</time></trkpt><trkpt lat="43.4799617" lon="11.561965"><ele>263.0</ele><time>2026-04-26T08:43:32.646Z</time></trkpt><trkpt lat="43.4799167" lon="11.5620483"><ele>263.0</ele><time>2026-04-26T08:43:34.645Z</time></trkpt><trkpt lat="43.4798983" lon="11.5621417"><ele>263.0</ele><time>2026-04-26T08:43:37.642Z</time></trkpt><trkpt lat="43.479905" lon="11.5622283"><ele>263.0</ele><time>2026-04-26T08:43:40.645Z</time></trkpt><trkpt lat="43.4800252" lon="11.5621523"><ele>263.0</ele><time>2026-04-26T08:43:57.686Z</time></trkpt><trkpt lat="43.4800717" lon="11.561515"><ele>261.0</ele><time>2026-04-26T08:46:01.644Z</time></trkpt><trkpt lat="43.4800686" lon="11.5621965"><ele>261.0</ele><time>2026-04-26T08:46:03.725Z</time></trkpt><trkpt lat="43.4800621" lon="11.5620438"><ele>261.0</ele><time>2026-04-26T08:46:07.662Z</time></trkpt><trkpt lat="43.4800333" lon="11.5619633"><ele>261.0</ele><time>2026-04-26T08:46:57.688Z</time></trkpt><trkpt lat="43.4800133" lon="11.5618396"><ele>261.0</ele><time>2026-04-26T08:47:39.725Z</time></trkpt><trkpt lat="43.4799935" lon="11.5617552"><ele>261.0</ele><time>2026-04-26T08:48:16.665Z</time></trkpt><trkpt lat="43.4800548" lon="11.5616128"><ele>261.2857142857143</ele><time>2026-04-26T08:49:12.715Z</time></trkpt><trkpt lat="43.4800895" lon="11.5615206"><ele>261.57142857142856</ele><time>2026-04-26T08:50:38.644Z</time></trkpt><trkpt lat="43.4801607" lon="11.5614497"><ele>261.85714285714283</ele><time>2026-04-26T08:50:44.666Z</time></trkpt><trkpt lat="43.4802245" lon="11.5614005"><ele>262.1428571428571</ele><time>2026-04-26T08:50:47.678Z</time></trkpt><trkpt lat="43.4802883" lon="11.561415"><ele>262.4285714285714</ele><time>2026-04-26T08:50:50.645Z</time></trkpt><trkpt lat="43.48035" lon="11.5613833"><ele>262.7142857142857</ele><time>2026-04-26T08:50:53.645Z</time></trkpt><trkpt lat="43.4804117" lon="11.5613483"><ele>263.0</ele><time>2026-04-26T08:50:55.648Z</time></trkpt><trkpt lat="43.480485" lon="11.56133"><ele>263.6666666666667</ele><time>2026-04-26T08:50:58.645Z</time></trkpt><trkpt lat="43.4805517" lon="11.5613667"><ele>264.33333333333337</ele><time>2026-04-26T08:51:00.646Z</time></trkpt><trkpt lat="43.4806233" lon="11.56132"><ele>265.0</ele><time>2026-04-26T08:51:03.644Z</time></trkpt><trkpt lat="43.4806817" lon="11.5612867"><ele>265.6666666666667</ele><time>2026-04-26T08:51:05.645Z</time></trkpt><trkpt lat="43.4807533" lon="11.5612617"><ele>266.3333333333333</ele><time>2026-04-26T08:51:07.647Z</time></trkpt><trkpt lat="43.480825" lon="11.5612217"><ele>267.0</ele><time>2026-04-26T08:51:10.644Z</time></trkpt><trkpt lat="43.48088" lon="11.56131"><ele>267.0</ele><time>2026-04-26T08:51:12.645Z</time></trkpt><trkpt lat="43.480965" lon="11.5613317"><ele>267.0</ele><time>2026-04-26T08:51:18.645Z</time></trkpt><trkpt lat="43.48103" lon="11.5613783"><ele>267.0</ele><time>2026-04-26T08:51:21.646Z</time></trkpt><trkpt lat="43.481095" lon="11.5614383"><ele>267.0</ele><time>2026-04-26T08:51:23.645Z</time></trkpt><trkpt lat="43.4811683" lon="11.561525"><ele>267.0</ele><time>2026-04-26T08:51:25.642Z</time></trkpt><trkpt lat="43.4812467" lon="11.5616333"><ele>267.0</ele><time>2026-04-26T08:51:27.644Z</time></trkpt><trkpt lat="43.4813133" lon="11.5617517"><ele>268.0</ele><time>2026-04-26T08:51:29.645Z</time></trkpt><trkpt lat="43.481325" lon="11.5618683"><ele>269.0</ele><time>2026-04-26T08:51:30.645Z</time></trkpt><trkpt lat="43.48134" lon="11.56197"><ele>270.0</ele><time>2026-04-26T08:51:31.646Z</time></trkpt><trkpt lat="43.4813583" lon="11.5620583"><ele>271.0</ele><time>2026-04-26T08:51:32.646Z</time></trkpt><trkpt lat="43.481415" lon="11.5622083"><ele>272.0</ele><time>2026-04-26T08:51:34.645Z</time></trkpt><trkpt lat="43.4815" lon="11.5622933"><ele>269.8</ele><time>2026-04-26T08:51:36.645Z</time></trkpt><trkpt lat="43.4815967" lon="11.5623067"><ele>267.6</ele><time>2026-04-26T08:51:38.646Z</time></trkpt><trkpt lat="43.481695" lon="11.5622667"><ele>265.40000000000003</ele><time>2026-04-26T08:51:40.645Z</time></trkpt><trkpt lat="43.4817967" lon="11.5621967"><ele>263.2</ele><time>2026-04-26T08:51:42.647Z</time></trkpt><trkpt lat="43.4818967" lon="11.5621267"><ele>261.0</ele><time>2026-04-26T08:51:44.647Z</time></trkpt><trkpt lat="43.4819917" lon="11.5620617"><ele>263.0</ele><time>2026-04-26T08:51:46.644Z</time></trkpt><trkpt lat="43.4820967" lon="11.561985"><ele>265.0</ele><time>2026-04-26T08:51:48.646Z</time></trkpt><trkpt lat="43.4822033" lon="11.5619167"><ele>267.0</ele><time>2026-04-26T08:51:50.644Z</time></trkpt><trkpt lat="43.4823083" lon="11.561845"><ele>269.0</ele><time>2026-04-26T08:51:52.645Z</time></trkpt><trkpt lat="43.48242" lon="11.5617817"><ele>269.0</ele><time>2026-04-26T08:51:54.645Z</time></trkpt><trkpt lat="43.4824833" lon="11.561755"><ele>269.0</ele><time>2026-04-26T08:51:55.644Z</time></trkpt><trkpt lat="43.48255" lon="11.5617317"><ele>269.0</ele><time>2026-04-26T08:51:56.645Z</time></trkpt><trkpt lat="43.4826717" lon="11.5617317"><ele>269.0</ele><time>2026-04-26T08:51:58.645Z</time></trkpt><trkpt lat="43.48279" lon="11.561755"><ele>269.0</ele><time>2026-04-26T08:52:00.645Z</time></trkpt><trkpt lat="43.4828983" lon="11.56181"><ele>270.0</ele><time>2026-04-26T08:52:02.647Z</time></trkpt><trkpt lat="43.4830083" lon="11.5618717"><ele>271.0</ele><time>2026-04-26T08:52:04.644Z</time></trkpt><trkpt lat="43.4831167" lon="11.561935"><ele>272.0</ele><time>2026-04-26T08:52:06.646Z</time></trkpt><trkpt lat="43.483225" lon="11.5619983"><ele>273.0</ele><time>2026-04-26T08:52:08.644Z</time></trkpt><trkpt lat="43.4833333" lon="11.562055"><ele>268.75</ele><time>2026-04-26T08:52:10.644Z</time></trkpt><trkpt lat="43.4834483" lon="11.5621133"><ele>264.5</ele><time>2026-04-26T08:52:12.644Z</time></trkpt><trkpt lat="43.4835533" lon="11.56218"><ele>260.25</ele><time>2026-04-26T08:52:14.645Z</time></trkpt><trkpt lat="43.4836467" lon="11.5622733"><ele>256.0</ele><time>2026-04-26T08:52:16.645Z</time></trkpt><trkpt lat="43.48373" lon="11.5623967"><ele>257.6</ele><time>2026-04-26T08:52:18.645Z</time></trkpt><trkpt lat="43.4837983" lon="11.5625217"><ele>259.20000000000005</ele><time>2026-04-26T08:52:20.646Z</time></trkpt><trkpt lat="43.4838583" lon="11.5626417"><ele>260.79999999999995</ele><time>2026-04-26T08:52:22.645Z</time></trkpt><trkpt lat="43.4839067" lon="11.5627017"><ele>262.4</ele><time>2026-04-26T08:52:23.646Z</time></trkpt><trkpt lat="43.483995" lon="11.5628183"><ele>264.0</ele><time>2026-04-26T08:52:25.643Z</time></trkpt><trkpt lat="43.4840833" lon="11.56293"><ele>264.0</ele><time>2026-04-26T08:52:27.643Z</time></trkpt><trkpt lat="43.4841817" lon="11.5630467"><ele>264.0</ele><time>2026-04-26T08:52:29.643Z</time></trkpt><trkpt lat="43.48423" lon="11.5631067"><ele>264.0</ele><time>2026-04-26T08:52:30.642Z</time></trkpt><trkpt lat="43.48428" lon="11.563165"><ele>264.0</ele><time>2026-04-26T08:52:31.642Z</time></trkpt><trkpt lat="43.4843683" lon="11.5632817"><ele>264.0</ele><time>2026-04-26T08:52:33.641Z</time></trkpt><trkpt lat="43.4844617" lon="11.563375"><ele>264.0</ele><time>2026-04-26T08:52:35.643Z</time></trkpt><trkpt lat="43.4845233" lon="11.5633967"><ele>264.0</ele><time>2026-04-26T08:52:36.644Z</time></trkpt><trkpt lat="43.4845933" lon="11.5633983"><ele>264.0</ele><time>2026-04-26T08:52:37.646Z</time></trkpt><trkpt lat="43.4846617" lon="11.56338"><ele>264.0</ele><time>2026-04-26T08:52:38.645Z</time></trkpt><trkpt lat="43.4847267" lon="11.56335"><ele>264.0</ele><time>2026-04-26T08:52:39.646Z</time></trkpt><trkpt lat="43.4847917" lon="11.5633067"><ele>264.0</ele><time>2026-04-26T08:52:40.644Z</time></trkpt><trkpt lat="43.48485" lon="11.5632667"><ele>264.0</ele><time>2026-04-26T08:52:41.646Z</time></trkpt><trkpt lat="43.4849133" lon="11.5632217"><ele>265.0</ele><time>2026-04-26T08:52:42.646Z</time></trkpt><trkpt lat="43.4849767" lon="11.5631817"><ele>266.0</ele><time>2026-04-26T08:52:43.645Z</time></trkpt><trkpt lat="43.4850417" lon="11.5631367"><ele>267.0</ele><time>2026-04-26T08:52:44.644Z</time></trkpt><trkpt lat="43.485115" lon="11.5630867"><ele>268.0</ele><time>2026-04-26T08:52:45.644Z</time></trkpt><trkpt lat="43.4851933" lon="11.563035"><ele>269.0</ele><time>2026-04-26T08:52:46.646Z</time></trkpt><trkpt lat="43.4852733" lon="11.562985"><ele>270.0</ele><time>2026-04-26T08:52:47.646Z</time></trkpt><trkpt lat="43.4853517" lon="11.5629317"><ele>269.2</ele><time>2026-04-26T08:52:48.646Z</time></trkpt><trkpt lat="43.485435" lon="11.5628783"><ele>268.4</ele><time>2026-04-26T08:52:49.645Z</time></trkpt><trkpt lat="43.4855217" lon="11.562835"><ele>267.6</ele><time>2026-04-26T08:52:50.647Z</time></trkpt><trkpt lat="43.4856117" lon="11.5628083"><ele>266.8</ele><time>2026-04-26T08:52:51.646Z</time></trkpt><trkpt lat="43.4857067" lon="11.5627883"><ele>266.0</ele><time>2026-04-26T08:52:52.645Z</time></trkpt><trkpt lat="43.485805" lon="11.562775"><ele>266.0</ele><time>2026-04-26T08:52:53.645Z</time></trkpt><trkpt lat="43.4859033" lon="11.5627717"><ele>266.0</ele><time>2026-04-26T08:52:54.645Z</time></trkpt><trkpt lat="43.486005" lon="11.5627633"><ele>266.0</ele><time>2026-04-26T08:52:55.645Z</time></trkpt><trkpt lat="43.4861067" lon="11.5627383"><ele>266.0</ele><time>2026-04-26T08:52:56.645Z</time></trkpt><trkpt lat="43.486205" lon="11.5626817"><ele>266.0</ele><time>2026-04-26T08:52:57.646Z</time></trkpt><trkpt lat="43.4862933" lon="11.562605"><ele>264.0</ele><time>2026-04-26T08:52:58.645Z</time></trkpt><trkpt lat="43.486365" lon="11.5625033"><ele>262.0</ele><time>2026-04-26T08:52:59.644Z</time></trkpt><trkpt lat="43.4864217" lon="11.5623817"><ele>260.0</ele><time>2026-04-26T08:53:00.646Z</time></trkpt><trkpt lat="43.4864567" lon="11.5622383"><ele>258.0</ele><time>2026-04-26T08:53:01.646Z</time></trkpt><trkpt lat="43.4864617" lon="11.562085"><ele>256.0</ele><time>2026-04-26T08:53:02.647Z</time></trkpt><trkpt lat="43.48645" lon="11.5619367"><ele>256.0</ele><time>2026-04-26T08:53:03.643Z</time></trkpt><trkpt lat="43.48644" lon="11.5617883"><ele>256.0</ele><time>2026-04-26T08:53:04.644Z</time></trkpt><trkpt lat="43.4864467" lon="11.5616383"><ele>256.0</ele><time>2026-04-26T08:53:05.644Z</time></trkpt><trkpt lat="43.4864583" lon="11.5614917"><ele>256.0</ele><time>2026-04-26T08:53:06.645Z</time></trkpt><trkpt lat="43.4864717" lon="11.5613383"><ele>256.0</ele><time>2026-04-26T08:53:07.647Z</time></trkpt><trkpt lat="43.4865" lon="11.56118"><ele>256.5</ele><time>2026-04-26T08:53:08.645Z</time></trkpt><trkpt lat="43.4865383" lon="11.5610233"><ele>257.0</ele><time>2026-04-26T08:53:09.645Z</time></trkpt><trkpt lat="43.4865867" lon="11.5608783"><ele>257.5</ele><time>2026-04-26T08:53:10.644Z</time></trkpt><trkpt lat="43.4866383" lon="11.5607383"><ele>258.0</ele><time>2026-04-26T08:53:11.647Z</time></trkpt><trkpt lat="43.4866933" lon="11.5606033"><ele>258.0</ele><time>2026-04-26T08:53:12.646Z</time></trkpt><trkpt lat="43.486735" lon="11.560485"><ele>258.0</ele><time>2026-04-26T08:53:13.646Z</time></trkpt><trkpt lat="43.4867833" lon="11.560345"><ele>258.0</ele><time>2026-04-26T08:53:14.646Z</time></trkpt><trkpt lat="43.4868267" lon="11.5602033"><ele>258.0</ele><time>2026-04-26T08:53:15.645Z</time></trkpt><trkpt lat="43.4868733" lon="11.5600733"><ele>258.0</ele><time>2026-04-26T08:53:16.644Z</time></trkpt><trkpt lat="43.48691" lon="11.559955"><ele>258.3333333333333</ele><time>2026-04-26T08:53:17.647Z</time></trkpt><trkpt lat="43.4869467" lon="11.5598417"><ele>258.6666666666667</ele><time>2026-04-26T08:53:18.648Z</time></trkpt><trkpt lat="43.4869883" lon="11.5597383"><ele>259.0</ele><time>2026-04-26T08:53:19.646Z</time></trkpt><trkpt lat="43.4870617" lon="11.55968"><ele>259.33333333333337</ele><time>2026-04-26T08:53:20.646Z</time></trkpt><trkpt lat="43.4871333" lon="11.559615"><ele>259.6666666666667</ele><time>2026-04-26T08:53:21.645Z</time></trkpt><trkpt lat="43.4872183" lon="11.5595767"><ele>260.0</ele><time>2026-04-26T08:53:22.643Z</time></trkpt><trkpt lat="43.4873117" lon="11.559635"><ele>259.0</ele><time>2026-04-26T08:53:23.646Z</time></trkpt><trkpt lat="43.487385" lon="11.5597133"><ele>258.0</ele><time>2026-04-26T08:53:24.646Z</time></trkpt><trkpt lat="43.4873917" lon="11.5598817"><ele>257.0</ele><time>2026-04-26T08:53:25.644Z</time></trkpt><trkpt lat="43.487385" lon="11.5600133"><ele>256.0</ele><time>2026-04-26T08:53:26.647Z</time></trkpt><trkpt lat="43.487365" lon="11.5601633"><ele>255.0</ele><time>2026-04-26T08:53:27.645Z</time></trkpt><trkpt lat="43.4873267" lon="11.5603033"><ele>255.0</ele><time>2026-04-26T08:53:28.644Z</time></trkpt><trkpt lat="43.4872933" lon="11.5604333"><ele>255.0</ele><time>2026-04-26T08:53:29.644Z</time></trkpt><trkpt lat="43.4872767" lon="11.5605683"><ele>255.0</ele><time>2026-04-26T08:53:30.645Z</time></trkpt><trkpt lat="43.4872583" lon="11.5606983"><ele>255.0</ele><time>2026-04-26T08:53:31.645Z</time></trkpt><trkpt lat="43.4872467" lon="11.5608183"><ele>255.0</ele><time>2026-04-26T08:53:32.647Z</time></trkpt><trkpt lat="43.487235" lon="11.560935"><ele>255.0</ele><time>2026-04-26T08:53:33.646Z</time></trkpt><trkpt lat="43.48722" lon="11.5610617"><ele>255.0</ele><time>2026-04-26T08:53:34.645Z</time></trkpt><trkpt lat="43.4872083" lon="11.5611833"><ele>255.0</ele><time>2026-04-26T08:53:35.645Z</time></trkpt><trkpt lat="43.4872117" lon="11.5612983"><ele>255.0</ele><time>2026-04-26T08:53:36.644Z</time></trkpt><trkpt lat="43.48722" lon="11.561415"><ele>255.0</ele><time>2026-04-26T08:53:37.644Z</time></trkpt><trkpt lat="43.4872467" lon="11.561525"><ele>255.0</ele><time>2026-04-26T08:53:38.646Z</time></trkpt><trkpt lat="43.4872983" lon="11.5616267"><ele>253.8</ele><time>2026-04-26T08:53:39.646Z</time></trkpt><trkpt lat="43.4873717" lon="11.5617183"><ele>252.6</ele><time>2026-04-26T08:53:40.646Z</time></trkpt><trkpt lat="43.48745" lon="11.5618133"><ele>251.39999999999998</ele><time>2026-04-26T08:53:41.645Z</time></trkpt><trkpt lat="43.4875367" lon="11.5618967"><ele>250.2</ele><time>2026-04-26T08:53:42.647Z</time></trkpt><trkpt lat="43.4876333" lon="11.5619817"><ele>249.0</ele><time>2026-04-26T08:53:43.646Z</time></trkpt><trkpt lat="43.4877283" lon="11.56206"><ele>247.5</ele><time>2026-04-26T08:53:44.645Z</time></trkpt><trkpt lat="43.487835" lon="11.562125"><ele>246.0</ele><time>2026-04-26T08:53:45.647Z</time></trkpt><trkpt lat="43.487945" lon="11.56218"><ele>244.5</ele><time>2026-04-26T08:53:46.645Z</time></trkpt><trkpt lat="43.4880633" lon="11.562225"><ele>243.0</ele><time>2026-04-26T08:53:47.645Z</time></trkpt><trkpt lat="43.4881883" lon="11.56227"><ele>242.5</ele><time>2026-04-26T08:53:48.647Z</time></trkpt><trkpt lat="43.4883083" lon="11.5623167"><ele>242.0</ele><time>2026-04-26T08:53:49.647Z</time></trkpt><trkpt lat="43.4884333" lon="11.5623633"><ele>241.5</ele><time>2026-04-26T08:53:50.645Z</time></trkpt><trkpt lat="43.4885517" lon="11.5624133"><ele>241.0</ele><time>2026-04-26T08:53:51.646Z</time></trkpt><trkpt lat="43.488675" lon="11.5624567"><ele>240.0</ele><time>2026-04-26T08:53:52.643Z</time></trkpt><trkpt lat="43.488795" lon="11.5625"><ele>239.0</ele><time>2026-04-26T08:53:53.645Z</time></trkpt><trkpt lat="43.4889183" lon="11.5625383"><ele>238.0</ele><time>2026-04-26T08:53:54.646Z</time></trkpt><trkpt lat="43.4890433" lon="11.56257"><ele>237.0</ele><time>2026-04-26T08:53:55.646Z</time></trkpt><trkpt lat="43.489165" lon="11.5626067"><ele>237.0</ele><time>2026-04-26T08:53:56.645Z</time></trkpt><trkpt lat="43.489285" lon="11.5626417"><ele>237.0</ele><time>2026-04-26T08:53:57.644Z</time></trkpt><trkpt lat="43.4894083" lon="11.5626667"><ele>237.0</ele><time>2026-04-26T08:53:58.646Z</time></trkpt><trkpt lat="43.489535" lon="11.562675"><ele>237.0</ele><time>2026-04-26T08:53:59.645Z</time></trkpt><trkpt lat="43.489665" lon="11.5626617"><ele>235.25</ele><time>2026-04-26T08:54:00.646Z</time></trkpt><trkpt lat="43.4897967" lon="11.5626317"><ele>233.5</ele><time>2026-04-26T08:54:01.646Z</time></trkpt><trkpt lat="43.4899283" lon="11.5625983"><ele>231.75</ele><time>2026-04-26T08:54:02.646Z</time></trkpt><trkpt lat="43.4900617" lon="11.562565"><ele>230.0</ele><time>2026-04-26T08:54:03.646Z</time></trkpt><trkpt lat="43.490195" lon="11.5625267"><ele>230.0</ele><time>2026-04-26T08:54:04.646Z</time></trkpt><trkpt lat="43.4903333" lon="11.5624883"><ele>230.0</ele><time>2026-04-26T08:54:05.645Z</time></trkpt><trkpt lat="43.4904733" lon="11.56245"><ele>230.0</ele><time>2026-04-26T08:54:06.644Z</time></trkpt><trkpt lat="43.4906133" lon="11.56241"><ele>230.0</ele><time>2026-04-26T08:54:07.644Z</time></trkpt><trkpt lat="43.4907533" lon="11.5623683"><ele>227.5</ele><time>2026-04-26T08:54:08.646Z</time></trkpt><trkpt lat="43.4908883" lon="11.562335"><ele>225.0</ele><time>2026-04-26T08:54:09.645Z</time></trkpt><trkpt lat="43.4910117" lon="11.5623133"><ele>222.5</ele><time>2026-04-26T08:54:10.646Z</time></trkpt><trkpt lat="43.4911217" lon="11.562295"><ele>220.0</ele><time>2026-04-26T08:54:11.643Z</time></trkpt><trkpt lat="43.49123" lon="11.56226"><ele>218.25</ele><time>2026-04-26T08:54:12.645Z</time></trkpt><trkpt lat="43.4913333" lon="11.5622033"><ele>216.5</ele><time>2026-04-26T08:54:13.646Z</time></trkpt><trkpt lat="43.4914283" lon="11.562115"><ele>214.75</ele><time>2026-04-26T08:54:14.645Z</time></trkpt><trkpt lat="43.4915067" lon="11.5620017"><ele>213.0</ele><time>2026-04-26T08:54:15.644Z</time></trkpt><trkpt lat="43.491565" lon="11.56186"><ele>213.0</ele><time>2026-04-26T08:54:16.644Z</time></trkpt><trkpt lat="43.491615" lon="11.5617033"><ele>213.0</ele><time>2026-04-26T08:54:17.646Z</time></trkpt><trkpt lat="43.4916533" lon="11.56154"><ele>213.0</ele><time>2026-04-26T08:54:18.644Z</time></trkpt><trkpt lat="43.4916783" lon="11.561375"><ele>213.0</ele><time>2026-04-26T08:54:19.644Z</time></trkpt><trkpt lat="43.4916967" lon="11.56122"><ele>214.0</ele><time>2026-04-26T08:54:20.647Z</time></trkpt><trkpt lat="43.4917117" lon="11.5610833"><ele>215.0</ele><time>2026-04-26T08:54:21.645Z</time></trkpt><trkpt lat="43.4917433" lon="11.5609717"><ele>216.0</ele><time>2026-04-26T08:54:22.644Z</time></trkpt><trkpt lat="43.491795" lon="11.560885"><ele>217.0</ele><time>2026-04-26T08:54:23.646Z</time></trkpt><trkpt lat="43.4918667" lon="11.560835"><ele>218.0</ele><time>2026-04-26T08:54:24.645Z</time></trkpt><trkpt lat="43.4919533" lon="11.5608733"><ele>219.0</ele><time>2026-04-26T08:54:25.647Z</time></trkpt><trkpt lat="43.49204" lon="11.5609333"><ele>219.2</ele><time>2026-04-26T08:54:26.646Z</time></trkpt><trkpt lat="43.4921183" lon="11.5610283"><ele>219.39999999999998</ele><time>2026-04-26T08:54:27.646Z</time></trkpt><trkpt lat="43.4921967" lon="11.5611267"><ele>219.6</ele><time>2026-04-26T08:54:28.646Z</time></trkpt><trkpt lat="43.4922867" lon="11.5612167"><ele>219.8</ele><time>2026-04-26T08:54:29.645Z</time></trkpt><trkpt lat="43.4923767" lon="11.5613233"><ele>220.0</ele><time>2026-04-26T08:54:30.646Z</time></trkpt><trkpt lat="43.49247" lon="11.5614333"><ele>217.75</ele><time>2026-04-26T08:54:31.644Z</time></trkpt><trkpt lat="43.4925533" lon="11.5615483"><ele>215.5</ele><time>2026-04-26T08:54:32.648Z</time></trkpt><trkpt lat="43.492625" lon="11.5616917"><ele>213.25</ele><time>2026-04-26T08:54:33.646Z</time></trkpt><trkpt lat="43.4926683" lon="11.561865"><ele>211.0</ele><time>2026-04-26T08:54:34.647Z</time></trkpt><trkpt lat="43.4926933" lon="11.5620517"><ele>208.75</ele><time>2026-04-26T08:54:35.644Z</time></trkpt><trkpt lat="43.4927067" lon="11.5622333"><ele>206.5</ele><time>2026-04-26T08:54:36.646Z</time></trkpt><trkpt lat="43.4927167" lon="11.562395"><ele>204.25</ele><time>2026-04-26T08:54:37.646Z</time></trkpt><trkpt lat="43.49275" lon="11.5625417"><ele>202.0</ele><time>2026-04-26T08:54:38.646Z</time></trkpt><trkpt lat="43.4928017" lon="11.5626867"><ele>202.0</ele><time>2026-04-26T08:54:39.645Z</time></trkpt><trkpt lat="43.4928617" lon="11.562825"><ele>202.0</ele><time>2026-04-26T08:54:40.646Z</time></trkpt><trkpt lat="43.4929433" lon="11.5629433"><ele>202.0</ele><time>2026-04-26T08:54:41.646Z</time></trkpt><trkpt lat="43.4930467" lon="11.5630483"><ele>202.0</ele><time>2026-04-26T08:54:42.645Z</time></trkpt><trkpt lat="43.4931633" lon="11.563145"><ele>201.5</ele><time>2026-04-26T08:54:43.646Z</time></trkpt><trkpt lat="43.4932817" lon="11.5632383"><ele>201.0</ele><time>2026-04-26T08:54:44.647Z</time></trkpt><trkpt lat="43.4934033" lon="11.5633333"><ele>200.5</ele><time>2026-04-26T08:54:45.644Z</time></trkpt><trkpt lat="43.4935317" lon="11.563425"><ele>200.0</ele><time>2026-04-26T08:54:46.645Z</time></trkpt><trkpt lat="43.4936683" lon="11.5635067"><ele>201.0</ele><time>2026-04-26T08:54:47.646Z</time></trkpt><trkpt lat="43.4938017" lon="11.5635867"><ele>202.0</ele><time>2026-04-26T08:54:48.645Z</time></trkpt><trkpt lat="43.4939367" lon="11.5636667"><ele>203.0</ele><time>2026-04-26T08:54:49.645Z</time></trkpt><trkpt lat="43.4940767" lon="11.563745"><ele>204.0</ele><time>2026-04-26T08:54:50.646Z</time></trkpt><trkpt lat="43.4942067" lon="11.5638417"><ele>199.5</ele><time>2026-04-26T08:54:51.645Z</time></trkpt><trkpt lat="43.4943317" lon="11.5639517"><ele>195.0</ele><time>2026-04-26T08:54:52.647Z</time></trkpt><trkpt lat="43.4944567" lon="11.5640683"><ele>190.5</ele><time>2026-04-26T08:54:53.649Z</time></trkpt><trkpt lat="43.4945583" lon="11.564175"><ele>186.0</ele><time>2026-04-26T08:54:54.645Z</time></trkpt><trkpt lat="43.49467" lon="11.56428"><ele>186.0</ele><time>2026-04-26T08:54:55.646Z</time></trkpt><trkpt lat="43.494795" lon="11.5643583"><ele>186.0</ele><time>2026-04-26T08:54:56.646Z</time></trkpt><trkpt lat="43.4949283" lon="11.56441"><ele>186.0</ele><time>2026-04-26T08:54:57.646Z</time></trkpt><trkpt lat="43.495065" lon="11.56445"><ele>186.0</ele><time>2026-04-26T08:54:58.645Z</time></trkpt><trkpt lat="43.4952167" lon="11.56448"><ele>186.0</ele><time>2026-04-26T08:54:59.645Z</time></trkpt><trkpt lat="43.4953617" lon="11.5645233"><ele>186.0</ele><time>2026-04-26T08:55:00.646Z</time></trkpt><trkpt lat="43.495505" lon="11.5645917"><ele>186.0</ele><time>2026-04-26T08:55:01.646Z</time></trkpt><trkpt lat="43.4956467" lon="11.564685"><ele>183.75</ele><time>2026-04-26T08:55:02.646Z</time></trkpt><trkpt lat="43.4957783" lon="11.56479"><ele>181.5</ele><time>2026-04-26T08:55:03.648Z</time></trkpt><trkpt lat="43.4959" lon="11.5649067"><ele>179.25</ele><time>2026-04-26T08:55:04.648Z</time></trkpt><trkpt lat="43.4960217" lon="11.5650217"><ele>177.0</ele><time>2026-04-26T08:55:05.645Z</time></trkpt><trkpt lat="43.4961483" lon="11.565125"><ele>176.5</ele><time>2026-04-26T08:55:06.646Z</time></trkpt><trkpt lat="43.496275" lon="11.5652133"><ele>176.0</ele><time>2026-04-26T08:55:07.644Z</time></trkpt><trkpt lat="43.496395" lon="11.5652883"><ele>175.5</ele><time>2026-04-26T08:55:08.645Z</time></trkpt><trkpt lat="43.49652" lon="11.5653517"><ele>175.0</ele><time>2026-04-26T08:55:09.645Z</time></trkpt><trkpt lat="43.496645" lon="11.56541"><ele>174.75</ele><time>2026-04-26T08:55:10.645Z</time></trkpt><trkpt lat="43.4967683" lon="11.56547"><ele>174.5</ele><time>2026-04-26T08:55:11.645Z</time></trkpt><trkpt lat="43.4968933" lon="11.5655233"><ele>174.25</ele><time>2026-04-26T08:55:12.645Z</time></trkpt><trkpt lat="43.4970133" lon="11.5655733"><ele>174.0</ele><time>2026-04-26T08:55:13.645Z</time></trkpt><trkpt lat="43.497135" lon="11.5656133"><ele>173.25</ele><time>2026-04-26T08:55:14.645Z</time></trkpt><trkpt lat="43.4972567" lon="11.5656517"><ele>172.5</ele><time>2026-04-26T08:55:15.645Z</time></trkpt><trkpt lat="43.497375" lon="11.5656883"><ele>171.75</ele><time>2026-04-26T08:55:16.646Z</time></trkpt><trkpt lat="43.4974967" lon="11.5657167"><ele>171.0</ele><time>2026-04-26T08:55:17.644Z</time></trkpt><trkpt lat="43.4976233" lon="11.5657417"><ele>171.0</ele><time>2026-04-26T08:55:18.647Z</time></trkpt><trkpt lat="43.4977467" lon="11.5657583"><ele>171.0</ele><time>2026-04-26T08:55:19.647Z</time></trkpt><trkpt lat="43.49787" lon="11.5657567"><ele>171.0</ele><time>2026-04-26T08:55:20.646Z</time></trkpt><trkpt lat="43.497995" lon="11.56574"><ele>171.0</ele><time>2026-04-26T08:55:21.646Z</time></trkpt><trkpt lat="43.4981183" lon="11.5657167"><ele>171.5</ele><time>2026-04-26T08:55:22.646Z</time></trkpt><trkpt lat="43.4982383" lon="11.56569"><ele>172.0</ele><time>2026-04-26T08:55:23.646Z</time></trkpt><trkpt lat="43.498355" lon="11.5656567"><ele>172.5</ele><time>2026-04-26T08:55:24.645Z</time></trkpt><trkpt lat="43.4984683" lon="11.565615"><ele>173.0</ele><time>2026-04-26T08:55:25.644Z</time></trkpt><trkpt lat="43.4985767" lon="11.5655717"><ele>173.0</ele><time>2026-04-26T08:55:26.647Z</time></trkpt><trkpt lat="43.4986767" lon="11.5655317"><ele>173.0</ele><time>2026-04-26T08:55:27.646Z</time></trkpt><trkpt lat="43.4987767" lon="11.5654917"><ele>173.0</ele><time>2026-04-26T08:55:28.645Z</time></trkpt><trkpt lat="43.49888" lon="11.5654483"><ele>173.0</ele><time>2026-04-26T08:55:29.646Z</time></trkpt><trkpt lat="43.4989767" lon="11.5653983"><ele>173.0</ele><time>2026-04-26T08:55:30.645Z</time></trkpt><trkpt lat="43.4990767" lon="11.56534"><ele>171.8</ele><time>2026-04-26T08:55:31.646Z</time></trkpt><trkpt lat="43.4991783" lon="11.5652867"><ele>170.60000000000002</ele><time>2026-04-26T08:55:32.647Z</time></trkpt><trkpt lat="43.4992817" lon="11.5652433"><ele>169.39999999999998</ele><time>2026-04-26T08:55:33.647Z</time></trkpt><trkpt lat="43.4993733" lon="11.5651967"><ele>168.2</ele><time>2026-04-26T08:55:34.645Z</time></trkpt><trkpt lat="43.4994683" lon="11.565145"><ele>167.0</ele><time>2026-04-26T08:55:35.645Z</time></trkpt><trkpt lat="43.4995617" lon="11.5650783"><ele>167.6</ele><time>2026-04-26T08:55:36.645Z</time></trkpt><trkpt lat="43.499645" lon="11.56502"><ele>168.2</ele><time>2026-04-26T08:55:37.645Z</time></trkpt><trkpt lat="43.4997267" lon="11.5649533"><ele>168.8</ele><time>2026-04-26T08:55:38.647Z</time></trkpt><trkpt lat="43.499815" lon="11.56488"><ele>169.4</ele><time>2026-04-26T08:55:39.646Z</time></trkpt><trkpt lat="43.4999033" lon="11.56481"><ele>170.0</ele><time>2026-04-26T08:55:40.647Z</time></trkpt><trkpt lat="43.4999883" lon="11.5647433"><ele>170.0</ele><time>2026-04-26T08:55:41.646Z</time></trkpt><trkpt lat="43.5000667" lon="11.5646733"><ele>170.0</ele><time>2026-04-26T08:55:42.647Z</time></trkpt><trkpt lat="43.5001483" lon="11.5646067"><ele>170.0</ele><time>2026-04-26T08:55:43.646Z</time></trkpt><trkpt lat="43.50023" lon="11.5645383"><ele>170.0</ele><time>2026-04-26T08:55:44.646Z</time></trkpt><trkpt lat="43.50031" lon="11.564465"><ele>170.0</ele><time>2026-04-26T08:55:45.646Z</time></trkpt><trkpt lat="43.500395" lon="11.5643917"><ele>169.0</ele><time>2026-04-26T08:55:46.645Z</time></trkpt><trkpt lat="43.500485" lon="11.5643283"><ele>168.0</ele><time>2026-04-26T08:55:47.648Z</time></trkpt><trkpt lat="43.5005733" lon="11.5642967"><ele>167.0</ele><time>2026-04-26T08:55:48.646Z</time></trkpt><trkpt lat="43.5006667" lon="11.5642683"><ele>166.0</ele><time>2026-04-26T08:55:49.647Z</time></trkpt><trkpt lat="43.5007583" lon="11.564255"><ele>165.0</ele><time>2026-04-26T08:55:50.645Z</time></trkpt><trkpt lat="43.5008583" lon="11.564255"><ele>165.0</ele><time>2026-04-26T08:55:51.645Z</time></trkpt><trkpt lat="43.5009583" lon="11.5642583"><ele>165.0</ele><time>2026-04-26T08:55:52.645Z</time></trkpt><trkpt lat="43.5010583" lon="11.5642617"><ele>165.0</ele><time>2026-04-26T08:55:53.646Z</time></trkpt><trkpt lat="43.5011583" lon="11.5642617"><ele>165.0</ele><time>2026-04-26T08:55:54.646Z</time></trkpt><trkpt lat="43.5012667" lon="11.56425"><ele>165.0</ele><time>2026-04-26T08:55:55.645Z</time></trkpt><trkpt lat="43.50137" lon="11.5642467"><ele>165.8</ele><time>2026-04-26T08:55:56.646Z</time></trkpt><trkpt lat="43.501465" lon="11.5642517"><ele>166.6</ele><time>2026-04-26T08:55:57.646Z</time></trkpt><trkpt lat="43.5015533" lon="11.5642583"><ele>167.39999999999998</ele><time>2026-04-26T08:55:58.647Z</time></trkpt><trkpt lat="43.5016467" lon="11.564245"><ele>168.2</ele><time>2026-04-26T08:55:59.646Z</time></trkpt><trkpt lat="43.50174" lon="11.5642333"><ele>169.0</ele><time>2026-04-26T08:56:00.645Z</time></trkpt><trkpt lat="43.5018367" lon="11.5642183"><ele>169.0</ele><time>2026-04-26T08:56:01.645Z</time></trkpt><trkpt lat="43.5019333" lon="11.5642083"><ele>169.0</ele><time>2026-04-26T08:56:02.646Z</time></trkpt><trkpt lat="43.5020317" lon="11.5641917"><ele>169.0</ele><time>2026-04-26T08:56:03.647Z</time></trkpt><trkpt lat="43.5021267" lon="11.564175"><ele>169.0</ele><time>2026-04-26T08:56:04.645Z</time></trkpt><trkpt lat="43.50223" lon="11.5641683"><ele>169.0</ele><time>2026-04-26T08:56:05.646Z</time></trkpt><trkpt lat="43.5023383" lon="11.56417"><ele>168.0</ele><time>2026-04-26T08:56:06.645Z</time></trkpt><trkpt lat="43.50244" lon="11.5641783"><ele>167.0</ele><time>2026-04-26T08:56:07.643Z</time></trkpt><trkpt lat="43.502545" lon="11.564185"><ele>166.0</ele><time>2026-04-26T08:56:08.646Z</time></trkpt><trkpt lat="43.5026467" lon="11.5642"><ele>165.0</ele><time>2026-04-26T08:56:09.645Z</time></trkpt><trkpt lat="43.5027483" lon="11.5642183"><ele>164.0</ele><time>2026-04-26T08:56:10.645Z</time></trkpt><trkpt lat="43.5028483" lon="11.5642483"><ele>163.6</ele><time>2026-04-26T08:56:11.644Z</time></trkpt><trkpt lat="43.502945" lon="11.56427"><ele>163.2</ele><time>2026-04-26T08:56:12.646Z</time></trkpt><trkpt lat="43.50304" lon="11.5642967"><ele>162.79999999999998</ele><time>2026-04-26T08:56:13.647Z</time></trkpt><trkpt lat="43.5031383" lon="11.5643283"><ele>162.39999999999998</ele><time>2026-04-26T08:56:14.645Z</time></trkpt><trkpt lat="43.5032333" lon="11.56436"><ele>162.0</ele><time>2026-04-26T08:56:15.645Z</time></trkpt><trkpt lat="43.503325" lon="11.56439"><ele>162.0</ele><time>2026-04-26T08:56:16.646Z</time></trkpt><trkpt lat="43.5034183" lon="11.5644133"><ele>162.0</ele><time>2026-04-26T08:56:17.646Z</time></trkpt><trkpt lat="43.5035117" lon="11.56444"><ele>162.0</ele><time>2026-04-26T08:56:18.647Z</time></trkpt><trkpt lat="43.5036017" lon="11.5644667"><ele>162.0</ele><time>2026-04-26T08:56:19.645Z</time></trkpt><trkpt lat="43.5036933" lon="11.5644867"><ele>162.0</ele><time>2026-04-26T08:56:20.648Z</time></trkpt><trkpt lat="43.50378" lon="11.56451"><ele>162.39999999999998</ele><time>2026-04-26T08:56:21.647Z</time></trkpt><trkpt lat="43.5038717" lon="11.5645317"><ele>162.79999999999998</ele><time>2026-04-26T08:56:22.646Z</time></trkpt><trkpt lat="43.5039667" lon="11.5645433"><ele>163.2</ele><time>2026-04-26T08:56:23.646Z</time></trkpt><trkpt lat="43.5040567" lon="11.56455"><ele>163.6</ele><time>2026-04-26T08:56:24.647Z</time></trkpt><trkpt lat="43.5041467" lon="11.564535"><ele>164.0</ele><time>2026-04-26T08:56:25.648Z</time></trkpt><trkpt lat="43.5042383" lon="11.5644983"><ele>164.0</ele><time>2026-04-26T08:56:26.648Z</time></trkpt><trkpt lat="43.5043283" lon="11.5644467"><ele>164.0</ele><time>2026-04-26T08:56:27.645Z</time></trkpt><trkpt lat="43.50442" lon="11.5643917"><ele>164.0</ele><time>2026-04-26T08:56:28.643Z</time></trkpt><trkpt lat="43.5045133" lon="11.5643283"><ele>164.0</ele><time>2026-04-26T08:56:29.647Z</time></trkpt><trkpt lat="43.504605" lon="11.5642683"><ele>164.0</ele><time>2026-04-26T08:56:30.647Z</time></trkpt><trkpt lat="43.5047017" lon="11.5642017"><ele>163.6</ele><time>2026-04-26T08:56:31.646Z</time></trkpt><trkpt lat="43.5047917" lon="11.56414"><ele>163.2</ele><time>2026-04-26T08:56:32.647Z</time></trkpt><trkpt lat="43.504885" lon="11.5640867"><ele>162.79999999999998</ele><time>2026-04-26T08:56:33.645Z</time></trkpt><trkpt lat="43.504985" lon="11.56404"><ele>162.39999999999998</ele><time>2026-04-26T08:56:34.647Z</time></trkpt><trkpt lat="43.5050833" lon="11.56403"><ele>162.0</ele><time>2026-04-26T08:56:35.644Z</time></trkpt><trkpt lat="43.505175" lon="11.5640317"><ele>162.0</ele><time>2026-04-26T08:56:36.646Z</time></trkpt><trkpt lat="43.5052717" lon="11.56403"><ele>162.0</ele><time>2026-04-26T08:56:37.645Z</time></trkpt><trkpt lat="43.50537" lon="11.5640233"><ele>162.0</ele><time>2026-04-26T08:56:38.647Z</time></trkpt><trkpt lat="43.5054617" lon="11.5640167"><ele>162.0</ele><time>2026-04-26T08:56:39.647Z</time></trkpt><trkpt lat="43.5055533" lon="11.56402"><ele>162.0</ele><time>2026-04-26T08:56:40.643Z</time></trkpt><trkpt lat="43.5056483" lon="11.5640167"><ele>161.8</ele><time>2026-04-26T08:56:41.644Z</time></trkpt><trkpt lat="43.5057467" lon="11.5640133"><ele>161.6</ele><time>2026-04-26T08:56:42.644Z</time></trkpt><trkpt lat="43.505845" lon="11.564"><ele>161.4</ele><time>2026-04-26T08:56:43.645Z</time></trkpt><trkpt lat="43.5059367" lon="11.56399"><ele>161.20000000000002</ele><time>2026-04-26T08:56:44.646Z</time></trkpt><trkpt lat="43.5060333" lon="11.5639667"><ele>161.0</ele><time>2026-04-26T08:56:45.645Z</time></trkpt><trkpt lat="43.50613" lon="11.56394"><ele>161.0</ele><time>2026-04-26T08:56:46.645Z</time></trkpt><trkpt lat="43.5062267" lon="11.5639"><ele>161.0</ele><time>2026-04-26T08:56:47.645Z</time></trkpt><trkpt lat="43.5063183" lon="11.5638483"><ele>161.0</ele><time>2026-04-26T08:56:48.645Z</time></trkpt><trkpt lat="43.5064083" lon="11.5637967"><ele>161.0</ele><time>2026-04-26T08:56:49.647Z</time></trkpt><trkpt lat="43.506495" lon="11.563745"><ele>161.0</ele><time>2026-04-26T08:56:50.646Z</time></trkpt><trkpt lat="43.5065833" lon="11.5636917"><ele>160.60000000000002</ele><time>2026-04-26T08:56:51.644Z</time></trkpt><trkpt lat="43.50667" lon="11.5636367"><ele>160.20000000000002</ele><time>2026-04-26T08:56:52.645Z</time></trkpt><trkpt lat="43.5067567" lon="11.5635933"><ele>159.8</ele><time>2026-04-26T08:56:53.645Z</time></trkpt><trkpt lat="43.50685" lon="11.5635667"><ele>159.4</ele><time>2026-04-26T08:56:54.646Z</time></trkpt><trkpt lat="43.5069483" lon="11.5635567"><ele>159.0</ele><time>2026-04-26T08:56:55.644Z</time></trkpt><trkpt lat="43.5070517" lon="11.563545"><ele>158.6</ele><time>2026-04-26T08:56:56.645Z</time></trkpt><trkpt lat="43.50715" lon="11.5635367"><ele>158.2</ele><time>2026-04-26T08:56:57.647Z</time></trkpt><trkpt lat="43.5072483" lon="11.5635383"><ele>157.79999999999998</ele><time>2026-04-26T08:56:58.644Z</time></trkpt><trkpt lat="43.5073467" lon="11.5635517"><ele>157.4</ele><time>2026-04-26T08:56:59.645Z</time></trkpt><trkpt lat="43.507445" lon="11.563565"><ele>157.0</ele><time>2026-04-26T08:57:00.644Z</time></trkpt><trkpt lat="43.5075383" lon="11.5635717"><ele>157.0</ele><time>2026-04-26T08:57:01.647Z</time></trkpt><trkpt lat="43.5076383" lon="11.56358"><ele>157.0</ele><time>2026-04-26T08:57:02.645Z</time></trkpt><trkpt lat="43.5077383" lon="11.5635883"><ele>157.0</ele><time>2026-04-26T08:57:03.646Z</time></trkpt><trkpt lat="43.5078367" lon="11.563595"><ele>157.0</ele><time>2026-04-26T08:57:04.645Z</time></trkpt><trkpt lat="43.5079317" lon="11.563595"><ele>157.0</ele><time>2026-04-26T08:57:05.644Z</time></trkpt><trkpt lat="43.5080283" lon="11.563595"><ele>156.79999999999998</ele><time>2026-04-26T08:57:06.646Z</time></trkpt><trkpt lat="43.5081283" lon="11.563595"><ele>156.6</ele><time>2026-04-26T08:57:07.646Z</time></trkpt><trkpt lat="43.5082267" lon="11.5636"><ele>156.39999999999998</ele><time>2026-04-26T08:57:08.644Z</time></trkpt><trkpt lat="43.5083233" lon="11.5636067"><ele>156.2</ele><time>2026-04-26T08:57:09.645Z</time></trkpt><trkpt lat="43.508425" lon="11.5636167"><ele>156.0</ele><time>2026-04-26T08:57:10.645Z</time></trkpt><trkpt lat="43.5085233" lon="11.5636233"><ele>156.0</ele><time>2026-04-26T08:57:11.645Z</time></trkpt><trkpt lat="43.5086183" lon="11.5636333"><ele>156.0</ele><time>2026-04-26T08:57:12.644Z</time></trkpt><trkpt lat="43.5087167" lon="11.5636517"><ele>156.0</ele><time>2026-04-26T08:57:13.645Z</time></trkpt><trkpt lat="43.5088133" lon="11.5636767"><ele>156.0</ele><time>2026-04-26T08:57:14.645Z</time></trkpt><trkpt lat="43.5089083" lon="11.5637067"><ele>156.0</ele><time>2026-04-26T08:57:15.644Z</time></trkpt><trkpt lat="43.5090033" lon="11.5637367"><ele>156.2</ele><time>2026-04-26T08:57:16.644Z</time></trkpt><trkpt lat="43.5091" lon="11.5637717"><ele>156.39999999999998</ele><time>2026-04-26T08:57:17.643Z</time></trkpt><trkpt lat="43.5091967" lon="11.56381"><ele>156.6</ele><time>2026-04-26T08:57:18.645Z</time></trkpt><trkpt lat="43.5092883" lon="11.5638517"><ele>156.79999999999998</ele><time>2026-04-26T08:57:19.644Z</time></trkpt><trkpt lat="43.5093783" lon="11.5639"><ele>157.0</ele><time>2026-04-26T08:57:20.645Z</time></trkpt><trkpt lat="43.5094667" lon="11.5639467"><ele>157.0</ele><time>2026-04-26T08:57:21.646Z</time></trkpt><trkpt lat="43.5095567" lon="11.5639967"><ele>157.0</ele><time>2026-04-26T08:57:22.646Z</time></trkpt><trkpt lat="43.5096467" lon="11.5640483"><ele>157.0</ele><time>2026-04-26T08:57:23.646Z</time></trkpt><trkpt lat="43.5097433" lon="11.5640983"><ele>157.0</ele><time>2026-04-26T08:57:24.645Z</time></trkpt><trkpt lat="43.5098333" lon="11.5641517"><ele>157.0</ele><time>2026-04-26T08:57:25.646Z</time></trkpt><trkpt lat="43.5099217" lon="11.5642017"><ele>156.79999999999998</ele><time>2026-04-26T08:57:26.645Z</time></trkpt><trkpt lat="43.5100133" lon="11.5642467"><ele>156.6</ele><time>2026-04-26T08:57:27.645Z</time></trkpt><trkpt lat="43.5101067" lon="11.5642783"><ele>156.39999999999998</ele><time>2026-04-26T08:57:28.645Z</time></trkpt><trkpt lat="43.5102017" lon="11.5642983"><ele>156.2</ele><time>2026-04-26T08:57:29.645Z</time></trkpt><trkpt lat="43.5102967" lon="11.5643117"><ele>156.0</ele><time>2026-04-26T08:57:30.645Z</time></trkpt><trkpt lat="43.5103917" lon="11.5643083"><ele>155.8</ele><time>2026-04-26T08:57:31.645Z</time></trkpt><trkpt lat="43.5104833" lon="11.5642933"><ele>155.6</ele><time>2026-04-26T08:57:32.645Z</time></trkpt><trkpt lat="43.5105733" lon="11.5642633"><ele>155.4</ele><time>2026-04-26T08:57:33.647Z</time></trkpt><trkpt lat="43.51066" lon="11.5642217"><ele>155.2</ele><time>2026-04-26T08:57:34.645Z</time></trkpt><trkpt lat="43.510745" lon="11.5641717"><ele>155.0</ele><time>2026-04-26T08:57:35.646Z</time></trkpt><trkpt lat="43.51083" lon="11.56412"><ele>155.0</ele><time>2026-04-26T08:57:36.645Z</time></trkpt><trkpt lat="43.5109133" lon="11.56406"><ele>155.0</ele><time>2026-04-26T08:57:37.646Z</time></trkpt><trkpt lat="43.5109983" lon="11.5639983"><ele>155.0</ele><time>2026-04-26T08:57:38.645Z</time></trkpt><trkpt lat="43.51108" lon="11.563935"><ele>155.0</ele><time>2026-04-26T08:57:39.645Z</time></trkpt><trkpt lat="43.5111617" lon="11.5638683"><ele>155.0</ele><time>2026-04-26T08:57:40.646Z</time></trkpt><trkpt lat="43.51124" lon="11.5638083"><ele>154.6</ele><time>2026-04-26T08:57:41.644Z</time></trkpt><trkpt lat="43.51132" lon="11.56375"><ele>154.2</ele><time>2026-04-26T08:57:42.645Z</time></trkpt><trkpt lat="43.5114017" lon="11.5636883"><ele>153.8</ele><time>2026-04-26T08:57:43.646Z</time></trkpt><trkpt lat="43.5114867" lon="11.56363"><ele>153.4</ele><time>2026-04-26T08:57:44.647Z</time></trkpt><trkpt lat="43.51157" lon="11.563575"><ele>153.0</ele><time>2026-04-26T08:57:45.647Z</time></trkpt><trkpt lat="43.51165" lon="11.56352"><ele>152.8</ele><time>2026-04-26T08:57:46.644Z</time></trkpt><trkpt lat="43.5117333" lon="11.5634667"><ele>152.60000000000002</ele><time>2026-04-26T08:57:47.645Z</time></trkpt><trkpt lat="43.511815" lon="11.5634167"><ele>152.39999999999998</ele><time>2026-04-26T08:57:48.644Z</time></trkpt><trkpt lat="43.5118983" lon="11.563365"><ele>152.2</ele><time>2026-04-26T08:57:49.643Z</time></trkpt><trkpt lat="43.5119817" lon="11.563315"><ele>152.0</ele><time>2026-04-26T08:57:50.648Z</time></trkpt><trkpt lat="43.5120683" lon="11.56327"><ele>152.0</ele><time>2026-04-26T08:57:51.645Z</time></trkpt><trkpt lat="43.51216" lon="11.56324"><ele>152.0</ele><time>2026-04-26T08:57:52.646Z</time></trkpt><trkpt lat="43.512255" lon="11.5632167"><ele>152.0</ele><time>2026-04-26T08:57:53.647Z</time></trkpt><trkpt lat="43.5123567" lon="11.5631933"><ele>152.0</ele><time>2026-04-26T08:57:54.645Z</time></trkpt><trkpt lat="43.5124567" lon="11.5631717"><ele>152.0</ele><time>2026-04-26T08:57:55.644Z</time></trkpt><trkpt lat="43.5125517" lon="11.5631567"><ele>152.0</ele><time>2026-04-26T08:57:56.644Z</time></trkpt><trkpt lat="43.51265" lon="11.56314"><ele>152.0</ele><time>2026-04-26T08:57:57.645Z</time></trkpt><trkpt lat="43.5127433" lon="11.5631233"><ele>152.0</ele><time>2026-04-26T08:57:58.644Z</time></trkpt><trkpt lat="43.5128367" lon="11.5631033"><ele>152.0</ele><time>2026-04-26T08:57:59.645Z</time></trkpt><trkpt lat="43.5129317" lon="11.5630817"><ele>152.0</ele><time>2026-04-26T08:58:00.644Z</time></trkpt><trkpt lat="43.5130267" lon="11.5630583"><ele>152.0</ele><time>2026-04-26T08:58:01.644Z</time></trkpt><trkpt lat="43.513125" lon="11.5630417"><ele>152.0</ele><time>2026-04-26T08:58:02.645Z</time></trkpt><trkpt lat="43.5132233" lon="11.5630317"><ele>152.0</ele><time>2026-04-26T08:58:03.645Z</time></trkpt><trkpt lat="43.5133267" lon="11.5630217"><ele>152.0</ele><time>2026-04-26T08:58:04.644Z</time></trkpt><trkpt lat="43.51343" lon="11.5630167"><ele>152.0</ele><time>2026-04-26T08:58:05.644Z</time></trkpt><trkpt lat="43.51353" lon="11.56302"><ele>152.0</ele><time>2026-04-26T08:58:06.646Z</time></trkpt><trkpt lat="43.5136317" lon="11.5630317"><ele>152.0</ele><time>2026-04-26T08:58:07.645Z</time></trkpt><trkpt lat="43.5137317" lon="11.5630517"><ele>152.0</ele><time>2026-04-26T08:58:08.646Z</time></trkpt><trkpt lat="43.51383" lon="11.5630817"><ele>152.0</ele><time>2026-04-26T08:58:09.646Z</time></trkpt><trkpt lat="43.513925" lon="11.5631183"><ele>152.0</ele><time>2026-04-26T08:58:10.645Z</time></trkpt><trkpt lat="43.51402" lon="11.563155"><ele>152.0</ele><time>2026-04-26T08:58:11.646Z</time></trkpt><trkpt lat="43.5141117" lon="11.56319"><ele>152.0</ele><time>2026-04-26T08:58:12.645Z</time></trkpt><trkpt lat="43.5142" lon="11.5632267"><ele>152.0</ele><time>2026-04-26T08:58:13.645Z</time></trkpt><trkpt lat="43.5142867" lon="11.56326"><ele>152.0</ele><time>2026-04-26T08:58:14.646Z</time></trkpt><trkpt lat="43.5143717" lon="11.563295"><ele>152.0</ele><time>2026-04-26T08:58:15.645Z</time></trkpt><trkpt lat="43.5144567" lon="11.5633317"><ele>152.0</ele><time>2026-04-26T08:58:16.646Z</time></trkpt><trkpt lat="43.5145367" lon="11.5633717"><ele>152.0</ele><time>2026-04-26T08:58:17.645Z</time></trkpt><trkpt lat="43.514615" lon="11.5634133"><ele>152.0</ele><time>2026-04-26T08:58:18.644Z</time></trkpt><trkpt lat="43.51469" lon="11.56345"><ele>152.0</ele><time>2026-04-26T08:58:19.645Z</time></trkpt><trkpt lat="43.5147633" lon="11.5634833"><ele>152.0</ele><time>2026-04-26T08:58:20.645Z</time></trkpt><trkpt lat="43.5148333" lon="11.5635167"><ele>152.0</ele><time>2026-04-26T08:58:21.644Z</time></trkpt><trkpt lat="43.5148967" lon="11.5635517"><ele>151.6</ele><time>2026-04-26T08:58:22.644Z</time></trkpt><trkpt lat="43.514955" lon="11.5635967"><ele>151.2</ele><time>2026-04-26T08:58:23.646Z</time></trkpt><trkpt lat="43.515055" lon="11.563675"><ele>150.8</ele><time>2026-04-26T08:58:25.644Z</time></trkpt><trkpt lat="43.5151583" lon="11.563665"><ele>150.4</ele><time>2026-04-26T08:58:27.647Z</time></trkpt><trkpt lat="43.5152183" lon="11.5635317"><ele>150.0</ele><time>2026-04-26T08:58:29.645Z</time></trkpt><trkpt lat="43.51525" lon="11.5633917"><ele>150.0</ele><time>2026-04-26T08:58:31.644Z</time></trkpt><trkpt lat="43.515335" lon="11.5632867"><ele>150.0</ele><time>2026-04-26T08:58:33.645Z</time></trkpt><trkpt lat="43.5153967" lon="11.56326"><ele>150.0</ele><time>2026-04-26T08:58:34.647Z</time></trkpt><trkpt lat="43.515465" lon="11.56325"><ele>150.0</ele><time>2026-04-26T08:58:35.643Z</time></trkpt><trkpt lat="43.515535" lon="11.5632567"><ele>150.0</ele><time>2026-04-26T08:58:36.645Z</time></trkpt><trkpt lat="43.5156033" lon="11.56328"><ele>150.0</ele><time>2026-04-26T08:58:37.647Z</time></trkpt><trkpt lat="43.515675" lon="11.5633033"><ele>150.33333333333334</ele><time>2026-04-26T08:58:38.645Z</time></trkpt><trkpt lat="43.5157433" lon="11.5633333"><ele>150.66666666666666</ele><time>2026-04-26T08:58:39.646Z</time></trkpt><trkpt lat="43.5158117" lon="11.563365"><ele>151.0</ele><time>2026-04-26T08:58:40.644Z</time></trkpt><trkpt lat="43.5158783" lon="11.5634033"><ele>151.33333333333331</ele><time>2026-04-26T08:58:41.646Z</time></trkpt><trkpt lat="43.5159433" lon="11.5634417"><ele>151.66666666666666</ele><time>2026-04-26T08:58:42.644Z</time></trkpt><trkpt lat="43.5160117" lon="11.563485"><ele>152.0</ele><time>2026-04-26T08:58:43.645Z</time></trkpt><trkpt lat="43.5160933" lon="11.5635367"><ele>152.0</ele><time>2026-04-26T08:58:44.645Z</time></trkpt><trkpt lat="43.516165" lon="11.5635917"><ele>152.0</ele><time>2026-04-26T08:58:45.647Z</time></trkpt><trkpt lat="43.5162433" lon="11.56364"><ele>152.0</ele><time>2026-04-26T08:58:46.647Z</time></trkpt><trkpt lat="43.5163217" lon="11.5636917"><ele>152.0</ele><time>2026-04-26T08:58:47.646Z</time></trkpt><trkpt lat="43.516395" lon="11.5637433"><ele>152.0</ele><time>2026-04-26T08:58:48.645Z</time></trkpt><trkpt lat="43.516475" lon="11.5637967"><ele>152.0</ele><time>2026-04-26T08:58:49.646Z</time></trkpt><trkpt lat="43.51655" lon="11.56385"><ele>152.0</ele><time>2026-04-26T08:58:50.646Z</time></trkpt><trkpt lat="43.516625" lon="11.5639017"><ele>152.0</ele><time>2026-04-26T08:58:51.645Z</time></trkpt><trkpt lat="43.5167033" lon="11.5639533"><ele>152.0</ele><time>2026-04-26T08:58:52.646Z</time></trkpt><trkpt lat="43.5167783" lon="11.564005"><ele>152.0</ele><time>2026-04-26T08:58:53.644Z</time></trkpt><trkpt lat="43.5168533" lon="11.56406"><ele>152.0</ele><time>2026-04-26T08:58:54.646Z</time></trkpt><trkpt lat="43.516925" lon="11.564115"><ele>152.0</ele><time>2026-04-26T08:58:55.645Z</time></trkpt><trkpt lat="43.516995" lon="11.5641717"><ele>152.0</ele><time>2026-04-26T08:58:56.644Z</time></trkpt><trkpt lat="43.5170667" lon="11.5642333"><ele>152.0</ele><time>2026-04-26T08:58:57.645Z</time></trkpt><trkpt lat="43.51714" lon="11.5642933"><ele>152.0</ele><time>2026-04-26T08:58:58.643Z</time></trkpt><trkpt lat="43.517215" lon="11.5643517"><ele>152.0</ele><time>2026-04-26T08:58:59.642Z</time></trkpt><trkpt lat="43.5172867" lon="11.5644167"><ele>152.0</ele><time>2026-04-26T08:59:00.643Z</time></trkpt><trkpt lat="43.5173567" lon="11.564485"><ele>152.0</ele><time>2026-04-26T08:59:01.645Z</time></trkpt><trkpt lat="43.517425" lon="11.5645533"><ele>151.66666666666666</ele><time>2026-04-26T08:59:02.645Z</time></trkpt><trkpt lat="43.5174933" lon="11.564625"><ele>151.33333333333331</ele><time>2026-04-26T08:59:03.644Z</time></trkpt><trkpt lat="43.5175583" lon="11.564695"><ele>151.0</ele><time>2026-04-26T08:59:04.644Z</time></trkpt><trkpt lat="43.5176233" lon="11.5647667"><ele>150.66666666666666</ele><time>2026-04-26T08:59:05.645Z</time></trkpt><trkpt lat="43.51769" lon="11.56484"><ele>150.33333333333334</ele><time>2026-04-26T08:59:06.646Z</time></trkpt><trkpt lat="43.51775" lon="11.5649233"><ele>150.0</ele><time>2026-04-26T08:59:07.645Z</time></trkpt><trkpt lat="43.517815" lon="11.5650033"><ele>150.0</ele><time>2026-04-26T08:59:08.646Z</time></trkpt><trkpt lat="43.5178817" lon="11.5650833"><ele>150.0</ele><time>2026-04-26T08:59:09.647Z</time></trkpt><trkpt lat="43.5179483" lon="11.5651633"><ele>150.0</ele><time>2026-04-26T08:59:10.647Z</time></trkpt><trkpt lat="43.5180117" lon="11.565235"><ele>150.0</ele><time>2026-04-26T08:59:11.647Z</time></trkpt><trkpt lat="43.518075" lon="11.5653067"><ele>150.0</ele><time>2026-04-26T08:59:12.647Z</time></trkpt><trkpt lat="43.5181433" lon="11.565375"><ele>150.0</ele><time>2026-04-26T08:59:13.646Z</time></trkpt><trkpt lat="43.518205" lon="11.5654517"><ele>150.0</ele><time>2026-04-26T08:59:14.645Z</time></trkpt><trkpt lat="43.5182633" lon="11.5655267"><ele>150.0</ele><time>2026-04-26T08:59:15.646Z</time></trkpt><trkpt lat="43.5183167" lon="11.5655983"><ele>150.0</ele><time>2026-04-26T08:59:16.646Z</time></trkpt><trkpt lat="43.5183733" lon="11.56567"><ele>150.0</ele><time>2026-04-26T08:59:17.644Z</time></trkpt><trkpt lat="43.518435" lon="11.5657483"><ele>150.0</ele><time>2026-04-26T08:59:18.644Z</time></trkpt><trkpt lat="43.5184967" lon="11.5658267"><ele>150.0</ele><time>2026-04-26T08:59:19.645Z</time></trkpt><trkpt lat="43.518555" lon="11.565905"><ele>150.0</ele><time>2026-04-26T08:59:20.645Z</time></trkpt><trkpt lat="43.5186083" lon="11.5659883"><ele>150.0</ele><time>2026-04-26T08:59:21.644Z</time></trkpt><trkpt lat="43.5186633" lon="11.5660683"><ele>150.0</ele><time>2026-04-26T08:59:22.646Z</time></trkpt><trkpt lat="43.5187217" lon="11.5661483"><ele>150.0</ele><time>2026-04-26T08:59:23.644Z</time></trkpt><trkpt lat="43.5187783" lon="11.5662267"><ele>150.0</ele><time>2026-04-26T08:59:24.644Z</time></trkpt><trkpt lat="43.518835" lon="11.5663033"><ele>150.0</ele><time>2026-04-26T08:59:25.645Z</time></trkpt><trkpt lat="43.5188967" lon="11.5663833"><ele>150.0</ele><time>2026-04-26T08:59:26.647Z</time></trkpt><trkpt lat="43.5189567" lon="11.5664617"><ele>150.0</ele><time>2026-04-26T08:59:27.645Z</time></trkpt><trkpt lat="43.5190167" lon="11.5665433"><ele>150.0</ele><time>2026-04-26T08:59:28.645Z</time></trkpt><trkpt lat="43.5190783" lon="11.5666217"><ele>150.0</ele><time>2026-04-26T08:59:29.645Z</time></trkpt><trkpt lat="43.5191367" lon="11.5666933"><ele>150.0</ele><time>2026-04-26T08:59:30.645Z</time></trkpt><trkpt lat="43.519195" lon="11.56677"><ele>150.0</ele><time>2026-04-26T08:59:31.645Z</time></trkpt><trkpt lat="43.5192583" lon="11.5668417"><ele>150.0</ele><time>2026-04-26T08:59:32.646Z</time></trkpt><trkpt lat="43.5193233" lon="11.5669133"><ele>150.0</ele><time>2026-04-26T08:59:33.646Z</time></trkpt><trkpt lat="43.5193867" lon="11.5669867"><ele>150.0</ele><time>2026-04-26T08:59:34.643Z</time></trkpt><trkpt lat="43.51945" lon="11.5670617"><ele>150.0</ele><time>2026-04-26T08:59:35.644Z</time></trkpt><trkpt lat="43.5195133" lon="11.5671367"><ele>150.0</ele><time>2026-04-26T08:59:36.644Z</time></trkpt><trkpt lat="43.5195783" lon="11.5672133"><ele>150.0</ele><time>2026-04-26T08:59:37.645Z</time></trkpt><trkpt lat="43.5196517" lon="11.567275"><ele>149.83333333333334</ele><time>2026-04-26T08:59:38.646Z</time></trkpt><trkpt lat="43.5197217" lon="11.5673183"><ele>149.66666666666666</ele><time>2026-04-26T08:59:39.645Z</time></trkpt><trkpt lat="43.5197917" lon="11.5673467"><ele>149.5</ele><time>2026-04-26T08:59:40.644Z</time></trkpt><trkpt lat="43.5199133" lon="11.567375"><ele>149.33333333333331</ele><time>2026-04-26T08:59:42.645Z</time></trkpt><trkpt lat="43.51998" lon="11.5673833"><ele>149.16666666666666</ele><time>2026-04-26T08:59:43.645Z</time></trkpt><trkpt lat="43.520055" lon="11.5673783"><ele>149.0</ele><time>2026-04-26T08:59:44.649Z</time></trkpt><trkpt lat="43.520125" lon="11.56736"><ele>149.0</ele><time>2026-04-26T08:59:45.648Z</time></trkpt><trkpt lat="43.5201967" lon="11.5673383"><ele>149.0</ele><time>2026-04-26T08:59:46.645Z</time></trkpt><trkpt lat="43.5202667" lon="11.5673183"><ele>149.0</ele><time>2026-04-26T08:59:47.645Z</time></trkpt><trkpt lat="43.5203367" lon="11.567315"><ele>149.0</ele><time>2026-04-26T08:59:48.645Z</time></trkpt><trkpt lat="43.520405" lon="11.5673167"><ele>149.0</ele><time>2026-04-26T08:59:49.646Z</time></trkpt><trkpt lat="43.5204733" lon="11.567325"><ele>149.0</ele><time>2026-04-26T08:59:50.644Z</time></trkpt><trkpt lat="43.5205383" lon="11.5673383"><ele>149.0</ele><time>2026-04-26T08:59:51.644Z</time></trkpt><trkpt lat="43.520605" lon="11.5673667"><ele>149.14285714285714</ele><time>2026-04-26T08:59:52.646Z</time></trkpt><trkpt lat="43.5206683" lon="11.5674"><ele>149.28571428571428</ele><time>2026-04-26T08:59:53.645Z</time></trkpt><trkpt lat="43.5207317" lon="11.5674333"><ele>149.42857142857142</ele><time>2026-04-26T08:59:54.645Z</time></trkpt><trkpt lat="43.5207933" lon="11.5674617"><ele>149.57142857142856</ele><time>2026-04-26T08:59:55.645Z</time></trkpt><trkpt lat="43.5208617" lon="11.56749"><ele>149.71428571428572</ele><time>2026-04-26T08:59:56.645Z</time></trkpt><trkpt lat="43.5209333" lon="11.5675117"><ele>149.85714285714283</ele><time>2026-04-26T08:59:57.645Z</time></trkpt><trkpt lat="43.52101" lon="11.5675183"><ele>150.0</ele><time>2026-04-26T08:59:58.645Z</time></trkpt><trkpt lat="43.5210867" lon="11.5675117"><ele>150.0</ele><time>2026-04-26T08:59:59.645Z</time></trkpt><trkpt lat="43.521165" lon="11.56749"><ele>150.0</ele><time>2026-04-26T09:00:00.645Z</time></trkpt><trkpt lat="43.5212283" lon="11.56745"><ele>150.0</ele><time>2026-04-26T09:00:01.645Z</time></trkpt><trkpt lat="43.5212817" lon="11.567395"><ele>150.0</ele><time>2026-04-26T09:00:02.645Z</time></trkpt><trkpt lat="43.5213367" lon="11.5673217"><ele>150.0</ele><time>2026-04-26T09:00:03.645Z</time></trkpt><trkpt lat="43.521395" lon="11.5672417"><ele>150.0</ele><time>2026-04-26T09:00:04.646Z</time></trkpt><trkpt lat="43.5214517" lon="11.567165"><ele>149.83333333333334</ele><time>2026-04-26T09:00:05.644Z</time></trkpt><trkpt lat="43.521505" lon="11.567095"><ele>149.66666666666666</ele><time>2026-04-26T09:00:06.645Z</time></trkpt><trkpt lat="43.52156" lon="11.56702"><ele>149.5</ele><time>2026-04-26T09:00:07.646Z</time></trkpt><trkpt lat="43.5216217" lon="11.5669483"><ele>149.33333333333331</ele><time>2026-04-26T09:00:08.645Z</time></trkpt><trkpt lat="43.5216833" lon="11.5668767"><ele>149.16666666666666</ele><time>2026-04-26T09:00:09.647Z</time></trkpt><trkpt lat="43.5217433" lon="11.566805"><ele>149.0</ele><time>2026-04-26T09:00:10.645Z</time></trkpt><trkpt lat="43.5218083" lon="11.56673"><ele>149.0</ele><time>2026-04-26T09:00:11.646Z</time></trkpt><trkpt lat="43.5218683" lon="11.56666"><ele>149.0</ele><time>2026-04-26T09:00:12.647Z</time></trkpt><trkpt lat="43.5219283" lon="11.5665883"><ele>149.0</ele><time>2026-04-26T09:00:13.645Z</time></trkpt><trkpt lat="43.5219933" lon="11.5665217"><ele>149.0</ele><time>2026-04-26T09:00:14.646Z</time></trkpt><trkpt lat="43.5220583" lon="11.566455"><ele>149.0</ele><time>2026-04-26T09:00:15.645Z</time></trkpt><trkpt lat="43.522125" lon="11.56639"><ele>149.0</ele><time>2026-04-26T09:00:16.644Z</time></trkpt><trkpt lat="43.5221933" lon="11.5663317"><ele>149.0</ele><time>2026-04-26T09:00:17.646Z</time></trkpt><trkpt lat="43.5222583" lon="11.5662667"><ele>149.0</ele><time>2026-04-26T09:00:18.646Z</time></trkpt><trkpt lat="43.5223233" lon="11.5662017"><ele>149.0</ele><time>2026-04-26T09:00:19.645Z</time></trkpt><trkpt lat="43.5223917" lon="11.56614"><ele>149.0</ele><time>2026-04-26T09:00:20.646Z</time></trkpt><trkpt lat="43.5224567" lon="11.5660833"><ele>149.0</ele><time>2026-04-26T09:00:21.647Z</time></trkpt><trkpt lat="43.5225233" lon="11.5660317"><ele>149.0</ele><time>2026-04-26T09:00:22.645Z</time></trkpt><trkpt lat="43.52259" lon="11.5659817"><ele>149.0</ele><time>2026-04-26T09:00:23.645Z</time></trkpt><trkpt lat="43.5226583" lon="11.5659317"><ele>149.0</ele><time>2026-04-26T09:00:24.645Z</time></trkpt><trkpt lat="43.5227283" lon="11.565875"><ele>149.0</ele><time>2026-04-26T09:00:25.647Z</time></trkpt><trkpt lat="43.5228017" lon="11.5658117"><ele>149.0</ele><time>2026-04-26T09:00:26.646Z</time></trkpt><trkpt lat="43.5228733" lon="11.5657567"><ele>149.0</ele><time>2026-04-26T09:00:27.644Z</time></trkpt><trkpt lat="43.522945" lon="11.5656967"><ele>149.0</ele><time>2026-04-26T09:00:28.643Z</time></trkpt><trkpt lat="43.5230167" lon="11.5656383"><ele>149.0</ele><time>2026-04-26T09:00:29.645Z</time></trkpt><trkpt lat="43.5230867" lon="11.5655817"><ele>149.0</ele><time>2026-04-26T09:00:30.646Z</time></trkpt><trkpt lat="43.5231617" lon="11.5655183"><ele>149.0</ele><time>2026-04-26T09:00:31.645Z</time></trkpt><trkpt lat="43.5232333" lon="11.56546"><ele>149.0</ele><time>2026-04-26T09:00:32.646Z</time></trkpt><trkpt lat="43.5233067" lon="11.565405"><ele>149.0</ele><time>2026-04-26T09:00:33.644Z</time></trkpt><trkpt lat="43.5233817" lon="11.56535"><ele>149.0</ele><time>2026-04-26T09:00:34.644Z</time></trkpt><trkpt lat="43.52346" lon="11.5652867"><ele>149.16666666666666</ele><time>2026-04-26T09:00:35.645Z</time></trkpt><trkpt lat="43.5235367" lon="11.5652267"><ele>149.33333333333331</ele><time>2026-04-26T09:00:36.646Z</time></trkpt><trkpt lat="43.5236133" lon="11.5651667"><ele>149.5</ele><time>2026-04-26T09:00:37.644Z</time></trkpt><trkpt lat="43.5236867" lon="11.5651067"><ele>149.66666666666666</ele><time>2026-04-26T09:00:38.645Z</time></trkpt><trkpt lat="43.523765" lon="11.5650467"><ele>149.83333333333334</ele><time>2026-04-26T09:00:39.646Z</time></trkpt><trkpt lat="43.5238433" lon="11.564985"><ele>150.0</ele><time>2026-04-26T09:00:40.644Z</time></trkpt><trkpt lat="43.5239217" lon="11.564915"><ele>149.4</ele><time>2026-04-26T09:00:41.644Z</time></trkpt><trkpt lat="43.5240017" lon="11.5648517"><ele>148.8</ele><time>2026-04-26T09:00:42.647Z</time></trkpt><trkpt lat="43.5240817" lon="11.56479"><ele>148.2</ele><time>2026-04-26T09:00:43.646Z</time></trkpt><trkpt lat="43.5241633" lon="11.5647267"><ele>147.6</ele><time>2026-04-26T09:00:44.647Z</time></trkpt><trkpt lat="43.524245" lon="11.564665"><ele>147.0</ele><time>2026-04-26T09:00:45.645Z</time></trkpt><trkpt lat="43.5243233" lon="11.5646"><ele>147.0</ele><time>2026-04-26T09:00:46.645Z</time></trkpt><trkpt lat="43.5244" lon="11.5645417"><ele>147.0</ele><time>2026-04-26T09:00:47.646Z</time></trkpt><trkpt lat="43.5244767" lon="11.56448"><ele>147.0</ele><time>2026-04-26T09:00:48.646Z</time></trkpt><trkpt lat="43.5245533" lon="11.5644167"><ele>147.0</ele><time>2026-04-26T09:00:49.647Z</time></trkpt><trkpt lat="43.52463" lon="11.5643533"><ele>147.0</ele><time>2026-04-26T09:00:50.646Z</time></trkpt><trkpt lat="43.5247083" lon="11.5642883"><ele>147.0</ele><time>2026-04-26T09:00:51.645Z</time></trkpt><trkpt lat="43.5247917" lon="11.5642183"><ele>147.0</ele><time>2026-04-26T09:00:52.645Z</time></trkpt><trkpt lat="43.524875" lon="11.56415"><ele>147.0</ele><time>2026-04-26T09:00:53.646Z</time></trkpt><trkpt lat="43.5249533" lon="11.56409"><ele>147.0</ele><time>2026-04-26T09:00:54.644Z</time></trkpt><trkpt lat="43.5250333" lon="11.5640267"><ele>147.0</ele><time>2026-04-26T09:00:55.645Z</time></trkpt><trkpt lat="43.5251117" lon="11.5639633"><ele>147.0</ele><time>2026-04-26T09:00:56.646Z</time></trkpt><trkpt lat="43.5251867" lon="11.5638917"><ele>147.0</ele><time>2026-04-26T09:00:57.647Z</time></trkpt><trkpt lat="43.525255" lon="11.5638083"><ele>147.0</ele><time>2026-04-26T09:00:58.646Z</time></trkpt><trkpt lat="43.5253183" lon="11.5637117"><ele>147.0</ele><time>2026-04-26T09:00:59.646Z</time></trkpt><trkpt lat="43.5253733" lon="11.56361"><ele>147.0</ele><time>2026-04-26T09:01:00.646Z</time></trkpt><trkpt lat="43.5254167" lon="11.5635033"><ele>147.0</ele><time>2026-04-26T09:01:01.646Z</time></trkpt><trkpt lat="43.5254483" lon="11.563395"><ele>147.0</ele><time>2026-04-26T09:01:02.646Z</time></trkpt><trkpt lat="43.525465" lon="11.5632817"><ele>147.0</ele><time>2026-04-26T09:01:03.645Z</time></trkpt><trkpt lat="43.525465" lon="11.5631617"><ele>147.0</ele><time>2026-04-26T09:01:04.644Z</time></trkpt><trkpt lat="43.5254433" lon="11.563045"><ele>147.0</ele><time>2026-04-26T09:01:05.645Z</time></trkpt><trkpt lat="43.525415" lon="11.5629317"><ele>147.0</ele><time>2026-04-26T09:01:06.644Z</time></trkpt><trkpt lat="43.5253767" lon="11.5628283"><ele>147.0</ele><time>2026-04-26T09:01:07.645Z</time></trkpt><trkpt lat="43.5253417" lon="11.562725"><ele>147.0</ele><time>2026-04-26T09:01:08.647Z</time></trkpt><trkpt lat="43.5253" lon="11.5626233"><ele>147.0</ele><time>2026-04-26T09:01:09.645Z</time></trkpt><trkpt lat="43.5252633" lon="11.5625233"><ele>147.0</ele><time>2026-04-26T09:01:10.647Z</time></trkpt><trkpt lat="43.52521" lon="11.5624267"><ele>147.0</ele><time>2026-04-26T09:01:11.646Z</time></trkpt><trkpt lat="43.52517" lon="11.5623317"><ele>147.0</ele><time>2026-04-26T09:01:12.647Z</time></trkpt><trkpt lat="43.5251283" lon="11.562235"><ele>147.0</ele><time>2026-04-26T09:01:13.645Z</time></trkpt><trkpt lat="43.52508" lon="11.5621333"><ele>147.0</ele><time>2026-04-26T09:01:14.646Z</time></trkpt><trkpt lat="43.5250367" lon="11.562035"><ele>147.0</ele><time>2026-04-26T09:01:15.646Z</time></trkpt><trkpt lat="43.524995" lon="11.5619383"><ele>147.0</ele><time>2026-04-26T09:01:16.646Z</time></trkpt><trkpt lat="43.5249517" lon="11.5618417"><ele>147.0</ele><time>2026-04-26T09:01:17.644Z</time></trkpt><trkpt lat="43.5249133" lon="11.56175"><ele>147.0</ele><time>2026-04-26T09:01:18.647Z</time></trkpt><trkpt lat="43.5248717" lon="11.56166"><ele>147.0</ele><time>2026-04-26T09:01:19.646Z</time></trkpt><trkpt lat="43.5248267" lon="11.5615667"><ele>146.83333333333334</ele><time>2026-04-26T09:01:20.645Z</time></trkpt><trkpt lat="43.5247867" lon="11.561475"><ele>146.66666666666666</ele><time>2026-04-26T09:01:21.645Z</time></trkpt><trkpt lat="43.5247483" lon="11.5613817"><ele>146.5</ele><time>2026-04-26T09:01:22.647Z</time></trkpt><trkpt lat="43.5247033" lon="11.56129"><ele>146.33333333333331</ele><time>2026-04-26T09:01:23.645Z</time></trkpt><trkpt lat="43.5246633" lon="11.561195"><ele>146.16666666666666</ele><time>2026-04-26T09:01:24.645Z</time></trkpt><trkpt lat="43.524625" lon="11.5611017"><ele>146.0</ele><time>2026-04-26T09:01:25.647Z</time></trkpt><trkpt lat="43.5245867" lon="11.5610117"><ele>146.66666666666666</ele><time>2026-04-26T09:01:26.646Z</time></trkpt><trkpt lat="43.5245483" lon="11.56092"><ele>147.33333333333331</ele><time>2026-04-26T09:01:27.646Z</time></trkpt><trkpt lat="43.524505" lon="11.5608283"><ele>148.0</ele><time>2026-04-26T09:01:28.646Z</time></trkpt><trkpt lat="43.52447" lon="11.5607317"><ele>148.66666666666666</ele><time>2026-04-26T09:01:29.643Z</time></trkpt><trkpt lat="43.52444" lon="11.56063"><ele>149.33333333333334</ele><time>2026-04-26T09:01:30.645Z</time></trkpt><trkpt lat="43.5244183" lon="11.5605283"><ele>150.0</ele><time>2026-04-26T09:01:31.646Z</time></trkpt><trkpt lat="43.5244" lon="11.5604233"><ele>149.5</ele><time>2026-04-26T09:01:32.645Z</time></trkpt><trkpt lat="43.5243867" lon="11.5603167"><ele>149.0</ele><time>2026-04-26T09:01:33.645Z</time></trkpt><trkpt lat="43.5243783" lon="11.5602117"><ele>148.5</ele><time>2026-04-26T09:01:34.645Z</time></trkpt><trkpt lat="43.524375" lon="11.560105"><ele>148.0</ele><time>2026-04-26T09:01:35.646Z</time></trkpt><trkpt lat="43.5243717" lon="11.56"><ele>147.5</ele><time>2026-04-26T09:01:36.645Z</time></trkpt><trkpt lat="43.524375" lon="11.5599017"><ele>147.0</ele><time>2026-04-26T09:01:37.646Z</time></trkpt><trkpt lat="43.5243833" lon="11.5598033"><ele>147.0</ele><time>2026-04-26T09:01:38.647Z</time></trkpt><trkpt lat="43.5243933" lon="11.55971"><ele>147.0</ele><time>2026-04-26T09:01:39.647Z</time></trkpt><trkpt lat="43.524405" lon="11.5596233"><ele>147.0</ele><time>2026-04-26T09:01:40.645Z</time></trkpt><trkpt lat="43.52444" lon="11.5594567"><ele>147.0</ele><time>2026-04-26T09:01:42.646Z</time></trkpt><trkpt lat="43.5244583" lon="11.5593717"><ele>147.0</ele><time>2026-04-26T09:01:43.645Z</time></trkpt><trkpt lat="43.5245" lon="11.5592067"><ele>147.0</ele><time>2026-04-26T09:01:45.645Z</time></trkpt><trkpt lat="43.52452" lon="11.55912"><ele>147.14285714285714</ele><time>2026-04-26T09:01:46.647Z</time></trkpt><trkpt lat="43.524545" lon="11.5590283"><ele>147.28571428571428</ele><time>2026-04-26T09:01:47.645Z</time></trkpt><trkpt lat="43.5245633" lon="11.5589367"><ele>147.42857142857144</ele><time>2026-04-26T09:01:48.645Z</time></trkpt><trkpt lat="43.5245833" lon="11.5588417"><ele>147.57142857142856</ele><time>2026-04-26T09:01:49.645Z</time></trkpt><trkpt lat="43.52461" lon="11.5587467"><ele>147.71428571428572</ele><time>2026-04-26T09:01:50.646Z</time></trkpt><trkpt lat="43.5246483" lon="11.558655"><ele>147.85714285714286</ele><time>2026-04-26T09:01:51.647Z</time></trkpt><trkpt lat="43.5246967" lon="11.5585733"><ele>148.0</ele><time>2026-04-26T09:01:52.645Z</time></trkpt><trkpt lat="43.52476" lon="11.55852"><ele>148.5</ele><time>2026-04-26T09:01:53.646Z</time></trkpt><trkpt lat="43.524835" lon="11.5584867"><ele>149.0</ele><time>2026-04-26T09:01:54.645Z</time></trkpt><trkpt lat="43.5249117" lon="11.558475"><ele>149.5</ele><time>2026-04-26T09:01:55.645Z</time></trkpt><trkpt lat="43.5249917" lon="11.558475"><ele>150.0</ele><time>2026-04-26T09:01:56.645Z</time></trkpt><trkpt lat="43.5250683" lon="11.5585"><ele>150.5</ele><time>2026-04-26T09:01:57.645Z</time></trkpt><trkpt lat="43.5251417" lon="11.5585433"><ele>151.0</ele><time>2026-04-26T09:01:58.644Z</time></trkpt><trkpt lat="43.525215" lon="11.5585833"><ele>151.0</ele><time>2026-04-26T09:01:59.647Z</time></trkpt><trkpt lat="43.5252833" lon="11.5586267"><ele>151.0</ele><time>2026-04-26T09:02:00.646Z</time></trkpt><trkpt lat="43.5253583" lon="11.55867"><ele>151.0</ele><time>2026-04-26T09:02:01.646Z</time></trkpt><trkpt lat="43.525435" lon="11.5587133"><ele>151.0</ele><time>2026-04-26T09:02:02.646Z</time></trkpt><trkpt lat="43.52551" lon="11.558755"><ele>151.0</ele><time>2026-04-26T09:02:03.647Z</time></trkpt><trkpt lat="43.525585" lon="11.558795"><ele>151.0</ele><time>2026-04-26T09:02:04.645Z</time></trkpt><trkpt lat="43.525665" lon="11.558825"><ele>150.33333333333334</ele><time>2026-04-26T09:02:05.646Z</time></trkpt><trkpt lat="43.525745" lon="11.5588533"><ele>149.66666666666669</ele><time>2026-04-26T09:02:06.646Z</time></trkpt><trkpt lat="43.5258317" lon="11.558875"><ele>149.0</ele><time>2026-04-26T09:02:07.647Z</time></trkpt><trkpt lat="43.525915" lon="11.558895"><ele>148.33333333333334</ele><time>2026-04-26T09:02:08.645Z</time></trkpt><trkpt lat="43.5259983" lon="11.5589117"><ele>147.66666666666666</ele><time>2026-04-26T09:02:09.647Z</time></trkpt><trkpt lat="43.526085" lon="11.5589283"><ele>147.0</ele><time>2026-04-26T09:02:10.646Z</time></trkpt><trkpt lat="43.5261733" lon="11.558945"><ele>147.33333333333334</ele><time>2026-04-26T09:02:11.645Z</time></trkpt><trkpt lat="43.5262633" lon="11.5589533"><ele>147.66666666666666</ele><time>2026-04-26T09:02:12.648Z</time></trkpt><trkpt lat="43.5263517" lon="11.558965"><ele>148.0</ele><time>2026-04-26T09:02:13.646Z</time></trkpt><trkpt lat="43.52644" lon="11.5589783"><ele>148.33333333333331</ele><time>2026-04-26T09:02:14.646Z</time></trkpt><trkpt lat="43.5265283" lon="11.558995"><ele>148.66666666666666</ele><time>2026-04-26T09:02:15.646Z</time></trkpt><trkpt lat="43.5266133" lon="11.5590183"><ele>149.0</ele><time>2026-04-26T09:02:16.646Z</time></trkpt><trkpt lat="43.526695" lon="11.559045"><ele>149.0</ele><time>2026-04-26T09:02:17.645Z</time></trkpt><trkpt lat="43.52678" lon="11.5590633"><ele>149.0</ele><time>2026-04-26T09:02:18.647Z</time></trkpt><trkpt lat="43.526865" lon="11.5590767"><ele>149.0</ele><time>2026-04-26T09:02:19.645Z</time></trkpt><trkpt lat="43.5269533" lon="11.5590883"><ele>149.0</ele><time>2026-04-26T09:02:20.646Z</time></trkpt><trkpt lat="43.5270433" lon="11.5591033"><ele>149.0</ele><time>2026-04-26T09:02:21.646Z</time></trkpt><trkpt lat="43.5271267" lon="11.5591117"><ele>149.0</ele><time>2026-04-26T09:02:22.646Z</time></trkpt><trkpt lat="43.5272083" lon="11.5591267"><ele>148.83333333333331</ele><time>2026-04-26T09:02:23.646Z</time></trkpt><trkpt lat="43.52729" lon="11.55914"><ele>148.66666666666666</ele><time>2026-04-26T09:02:24.646Z</time></trkpt><trkpt lat="43.5273767" lon="11.5591583"><ele>148.5</ele><time>2026-04-26T09:02:25.645Z</time></trkpt><trkpt lat="43.52746" lon="11.5591833"><ele>148.33333333333334</ele><time>2026-04-26T09:02:26.648Z</time></trkpt><trkpt lat="43.5275483" lon="11.5591967"><ele>148.16666666666669</ele><time>2026-04-26T09:02:27.645Z</time></trkpt><trkpt lat="43.527635" lon="11.5592117"><ele>148.0</ele><time>2026-04-26T09:02:28.645Z</time></trkpt><trkpt lat="43.5277317" lon="11.5592367"><ele>148.0</ele><time>2026-04-26T09:02:29.645Z</time></trkpt><trkpt lat="43.5278283" lon="11.55926"><ele>148.0</ele><time>2026-04-26T09:02:30.647Z</time></trkpt><trkpt lat="43.5279217" lon="11.55929"><ele>148.0</ele><time>2026-04-26T09:02:31.646Z</time></trkpt><trkpt lat="43.5280133" lon="11.559305"><ele>148.0</ele><time>2026-04-26T09:02:32.647Z</time></trkpt><trkpt lat="43.5281" lon="11.5593283"><ele>148.0</ele><time>2026-04-26T09:02:33.647Z</time></trkpt><trkpt lat="43.52819" lon="11.5593467"><ele>147.66666666666669</ele><time>2026-04-26T09:02:34.645Z</time></trkpt><trkpt lat="43.5282783" lon="11.559355"><ele>147.33333333333334</ele><time>2026-04-26T09:02:35.646Z</time></trkpt><trkpt lat="43.5283633" lon="11.559375"><ele>147.0</ele><time>2026-04-26T09:02:36.646Z</time></trkpt><trkpt lat="43.5284483" lon="11.559395"><ele>146.66666666666666</ele><time>2026-04-26T09:02:37.645Z</time></trkpt><trkpt lat="43.5285333" lon="11.5594133"><ele>146.33333333333331</ele><time>2026-04-26T09:02:38.646Z</time></trkpt><trkpt lat="43.5286183" lon="11.5594333"><ele>146.0</ele><time>2026-04-26T09:02:39.648Z</time></trkpt><trkpt lat="43.5287033" lon="11.5594517"><ele>146.0</ele><time>2026-04-26T09:02:40.646Z</time></trkpt><trkpt lat="43.5287883" lon="11.55947"><ele>146.0</ele><time>2026-04-26T09:02:41.645Z</time></trkpt><trkpt lat="43.5288733" lon="11.5594917"><ele>146.0</ele><time>2026-04-26T09:02:42.647Z</time></trkpt><trkpt lat="43.5289617" lon="11.55951"><ele>146.0</ele><time>2026-04-26T09:02:43.645Z</time></trkpt><trkpt lat="43.5290517" lon="11.55953"><ele>146.0</ele><time>2026-04-26T09:02:44.646Z</time></trkpt><trkpt lat="43.52914" lon="11.5595517"><ele>146.0</ele><time>2026-04-26T09:02:45.647Z</time></trkpt><trkpt lat="43.529225" lon="11.55957"><ele>145.83333333333331</ele><time>2026-04-26T09:02:46.646Z</time></trkpt><trkpt lat="43.5293117" lon="11.5595917"><ele>145.66666666666666</ele><time>2026-04-26T09:02:47.645Z</time></trkpt><trkpt lat="43.5293967" lon="11.55961"><ele>145.5</ele><time>2026-04-26T09:02:48.647Z</time></trkpt><trkpt lat="43.5294833" lon="11.5596283"><ele>145.33333333333334</ele><time>2026-04-26T09:02:49.645Z</time></trkpt><trkpt lat="43.5295683" lon="11.5596517"><ele>145.16666666666669</ele><time>2026-04-26T09:02:50.647Z</time></trkpt><trkpt lat="43.5296517" lon="11.5596733"><ele>145.0</ele><time>2026-04-26T09:02:51.644Z</time></trkpt><trkpt lat="43.52973" lon="11.559705"><ele>145.0</ele><time>2026-04-26T09:02:52.645Z</time></trkpt><trkpt lat="43.5298033" lon="11.5597417"><ele>145.0</ele><time>2026-04-26T09:02:53.646Z</time></trkpt><trkpt lat="43.5298767" lon="11.55977"><ele>145.0</ele><time>2026-04-26T09:02:54.646Z</time></trkpt><trkpt lat="43.5299517" lon="11.5597783"><ele>145.0</ele><time>2026-04-26T09:02:55.647Z</time></trkpt><trkpt lat="43.530025" lon="11.5597683"><ele>145.0</ele><time>2026-04-26T09:02:56.647Z</time></trkpt><trkpt lat="43.5300967" lon="11.55974"><ele>145.0</ele><time>2026-04-26T09:02:57.645Z</time></trkpt><trkpt lat="43.530175" lon="11.559695"><ele>145.0</ele><time>2026-04-26T09:02:58.646Z</time></trkpt><trkpt lat="43.5302467" lon="11.5596367"><ele>145.0</ele><time>2026-04-26T09:02:59.647Z</time></trkpt><trkpt lat="43.5303183" lon="11.559575"><ele>145.0</ele><time>2026-04-26T09:03:00.645Z</time></trkpt><trkpt lat="43.5303883" lon="11.5595117"><ele>145.0</ele><time>2026-04-26T09:03:01.646Z</time></trkpt><trkpt lat="43.5304567" lon="11.55944"><ele>145.0</ele><time>2026-04-26T09:03:02.649Z</time></trkpt><trkpt lat="43.5305267" lon="11.55937"><ele>145.0</ele><time>2026-04-26T09:03:03.646Z</time></trkpt><trkpt lat="43.5305983" lon="11.5593033"><ele>144.83333333333334</ele><time>2026-04-26T09:03:04.645Z</time></trkpt><trkpt lat="43.5306683" lon="11.5592333"><ele>144.66666666666669</ele><time>2026-04-26T09:03:05.644Z</time></trkpt><trkpt lat="43.53074" lon="11.5591683"><ele>144.5</ele><time>2026-04-26T09:03:06.645Z</time></trkpt><trkpt lat="43.530815" lon="11.5591033"><ele>144.33333333333334</ele><time>2026-04-26T09:03:07.644Z</time></trkpt><trkpt lat="43.53089" lon="11.5590317"><ele>144.16666666666666</ele><time>2026-04-26T09:03:08.646Z</time></trkpt><trkpt lat="43.530965" lon="11.5589633"><ele>144.0</ele><time>2026-04-26T09:03:09.646Z</time></trkpt><trkpt lat="43.531035" lon="11.5589"><ele>144.0</ele><time>2026-04-26T09:03:10.646Z</time></trkpt><trkpt lat="43.5311067" lon="11.5588367"><ele>144.0</ele><time>2026-04-26T09:03:11.644Z</time></trkpt><trkpt lat="43.5311817" lon="11.55877"><ele>144.0</ele><time>2026-04-26T09:03:12.647Z</time></trkpt><trkpt lat="43.5312533" lon="11.5587"><ele>144.0</ele><time>2026-04-26T09:03:13.646Z</time></trkpt><trkpt lat="43.5313267" lon="11.5586233"><ele>144.0</ele><time>2026-04-26T09:03:14.647Z</time></trkpt><trkpt lat="43.5314017" lon="11.55855"><ele>144.0</ele><time>2026-04-26T09:03:15.645Z</time></trkpt><trkpt lat="43.5314767" lon="11.558475"><ele>144.0</ele><time>2026-04-26T09:03:16.645Z</time></trkpt><trkpt lat="43.5315533" lon="11.5584033"><ele>144.0</ele><time>2026-04-26T09:03:17.645Z</time></trkpt><trkpt lat="43.5316267" lon="11.5583333"><ele>144.0</ele><time>2026-04-26T09:03:18.647Z</time></trkpt><trkpt lat="43.5317017" lon="11.5582617"><ele>144.0</ele><time>2026-04-26T09:03:19.645Z</time></trkpt><trkpt lat="43.531775" lon="11.5581933"><ele>144.0</ele><time>2026-04-26T09:03:20.646Z</time></trkpt><trkpt lat="43.5318483" lon="11.5581283"><ele>144.0</ele><time>2026-04-26T09:03:21.647Z</time></trkpt><trkpt lat="43.5319217" lon="11.558055"><ele>144.0</ele><time>2026-04-26T09:03:22.645Z</time></trkpt><trkpt lat="43.5319933" lon="11.5579867"><ele>144.0</ele><time>2026-04-26T09:03:23.645Z</time></trkpt><trkpt lat="43.5320667" lon="11.5579183"><ele>144.0</ele><time>2026-04-26T09:03:24.646Z</time></trkpt><trkpt lat="43.5321433" lon="11.557845"><ele>144.0</ele><time>2026-04-26T09:03:25.648Z</time></trkpt><trkpt lat="43.5322233" lon="11.5577683"><ele>144.0</ele><time>2026-04-26T09:03:26.646Z</time></trkpt><trkpt lat="43.5323" lon="11.557695"><ele>143.8</ele><time>2026-04-26T09:03:27.644Z</time></trkpt><trkpt lat="43.5323767" lon="11.5576217"><ele>143.60000000000002</ele><time>2026-04-26T09:03:28.645Z</time></trkpt><trkpt lat="43.5324583" lon="11.5575517"><ele>143.4</ele><time>2026-04-26T09:03:29.645Z</time></trkpt><trkpt lat="43.5325483" lon="11.5574917"><ele>143.20000000000002</ele><time>2026-04-26T09:03:30.645Z</time></trkpt><trkpt lat="43.532645" lon="11.5574467"><ele>143.0</ele><time>2026-04-26T09:03:31.644Z</time></trkpt><trkpt lat="43.53275" lon="11.557425"><ele>143.0</ele><time>2026-04-26T09:03:32.645Z</time></trkpt><trkpt lat="43.5328567" lon="11.5574383"><ele>143.0</ele><time>2026-04-26T09:03:33.645Z</time></trkpt><trkpt lat="43.5329617" lon="11.5574883"><ele>143.0</ele><time>2026-04-26T09:03:34.646Z</time></trkpt><trkpt lat="43.5330633" lon="11.5575583"><ele>143.0</ele><time>2026-04-26T09:03:35.645Z</time></trkpt><trkpt lat="43.533155" lon="11.55765"><ele>143.0</ele><time>2026-04-26T09:03:36.645Z</time></trkpt><trkpt lat="43.53324" lon="11.557755"><ele>143.0</ele><time>2026-04-26T09:03:37.645Z</time></trkpt><trkpt lat="43.53332" lon="11.5578767"><ele>143.0</ele><time>2026-04-26T09:03:38.644Z</time></trkpt><trkpt lat="43.53341" lon="11.558005"><ele>143.0</ele><time>2026-04-26T09:03:39.645Z</time></trkpt><trkpt lat="43.53351" lon="11.5581167"><ele>143.0</ele><time>2026-04-26T09:03:40.644Z</time></trkpt><trkpt lat="43.5336183" lon="11.5582283"><ele>143.0</ele><time>2026-04-26T09:03:41.645Z</time></trkpt><trkpt lat="43.5337083" lon="11.5583467"><ele>143.0</ele><time>2026-04-26T09:03:42.644Z</time></trkpt><trkpt lat="43.5337883" lon="11.558465"><ele>143.0</ele><time>2026-04-26T09:03:43.646Z</time></trkpt><trkpt lat="43.5338683" lon="11.5585683"><ele>143.0</ele><time>2026-04-26T09:03:44.647Z</time></trkpt><trkpt lat="43.5339483" lon="11.558675"><ele>142.6</ele><time>2026-04-26T09:03:45.643Z</time></trkpt><trkpt lat="43.5340217" lon="11.558775"><ele>142.20000000000002</ele><time>2026-04-26T09:03:46.645Z</time></trkpt><trkpt lat="43.5340883" lon="11.5588717"><ele>141.8</ele><time>2026-04-26T09:03:47.645Z</time></trkpt><trkpt lat="43.5341617" lon="11.55896"><ele>141.4</ele><time>2026-04-26T09:03:48.647Z</time></trkpt><trkpt lat="43.53423" lon="11.5590417"><ele>141.0</ele><time>2026-04-26T09:03:49.644Z</time></trkpt><trkpt lat="43.53429" lon="11.5591167"><ele>141.0</ele><time>2026-04-26T09:03:50.646Z</time></trkpt><trkpt lat="43.5343483" lon="11.559185"><ele>141.0</ele><time>2026-04-26T09:03:51.643Z</time></trkpt><trkpt lat="43.53439" lon="11.559255"><ele>141.0</ele><time>2026-04-26T09:03:52.644Z</time></trkpt><trkpt lat="43.5344333" lon="11.5593217"><ele>141.0</ele><time>2026-04-26T09:03:53.644Z</time></trkpt><trkpt lat="43.5345083" lon="11.55946"><ele>141.0</ele><time>2026-04-26T09:03:55.646Z</time></trkpt><trkpt lat="43.53456" lon="11.5596167"><ele>141.33333333333334</ele><time>2026-04-26T09:03:57.643Z</time></trkpt><trkpt lat="43.5345883" lon="11.5597017"><ele>141.66666666666666</ele><time>2026-04-26T09:03:58.645Z</time></trkpt><trkpt lat="43.5346083" lon="11.5597917"><ele>142.0</ele><time>2026-04-26T09:03:59.644Z</time></trkpt><trkpt lat="43.5346217" lon="11.5598833"><ele>142.33333333333331</ele><time>2026-04-26T09:04:00.646Z</time></trkpt><trkpt lat="43.5346417" lon="11.55997"><ele>142.66666666666666</ele><time>2026-04-26T09:04:01.644Z</time></trkpt><trkpt lat="43.534705" lon="11.5601233"><ele>143.0</ele><time>2026-04-26T09:04:03.644Z</time></trkpt><trkpt lat="43.5347517" lon="11.5601917"><ele>142.99999999999997</ele><time>2026-04-26T09:04:04.645Z</time></trkpt><trkpt lat="43.53481" lon="11.5602467"><ele>143.0</ele><time>2026-04-26T09:04:05.643Z</time></trkpt><trkpt lat="43.534875" lon="11.5602833"><ele>143.0</ele><time>2026-04-26T09:04:06.646Z</time></trkpt><trkpt lat="43.53494" lon="11.560305"><ele>143.0</ele><time>2026-04-26T09:04:07.647Z</time></trkpt><trkpt lat="43.53501" lon="11.5603117"><ele>143.0</ele><time>2026-04-26T09:04:08.644Z</time></trkpt><trkpt lat="43.535085" lon="11.5603117"><ele>142.99999999999997</ele><time>2026-04-26T09:04:09.645Z</time></trkpt><trkpt lat="43.53516" lon="11.560305"><ele>143.0</ele><time>2026-04-26T09:04:10.646Z</time></trkpt><trkpt lat="43.5352317" lon="11.5603017"><ele>143.0</ele><time>2026-04-26T09:04:11.645Z</time></trkpt><trkpt lat="43.5353417" lon="11.56031"><ele>143.0</ele><time>2026-04-26T09:04:13.645Z</time></trkpt><trkpt lat="43.535415" lon="11.5603417"><ele>143.0</ele><time>2026-04-26T09:04:15.645Z</time></trkpt><trkpt lat="43.535475" lon="11.5604167"><ele>143.0</ele><time>2026-04-26T09:04:18.645Z</time></trkpt><trkpt lat="43.53554" lon="11.5605033"><ele>143.0</ele><time>2026-04-26T09:04:21.643Z</time></trkpt><trkpt lat="43.5355983" lon="11.5605667"><ele>143.0</ele><time>2026-04-26T09:04:23.645Z</time></trkpt><trkpt lat="43.5356633" lon="11.5606283"><ele>142.83333333333331</ele><time>2026-04-26T09:04:25.645Z</time></trkpt><trkpt lat="43.535745" lon="11.56071"><ele>142.66666666666666</ele><time>2026-04-26T09:04:27.645Z</time></trkpt><trkpt lat="43.5358167" lon="11.56079"><ele>142.5</ele><time>2026-04-26T09:04:29.646Z</time></trkpt><trkpt lat="43.535865" lon="11.5608633"><ele>142.33333333333334</ele><time>2026-04-26T09:04:31.645Z</time></trkpt><trkpt lat="43.5359183" lon="11.5609383"><ele>142.16666666666669</ele><time>2026-04-26T09:04:33.644Z</time></trkpt><trkpt lat="43.53598" lon="11.561"><ele>142.0</ele><time>2026-04-26T09:04:35.646Z</time></trkpt><trkpt lat="43.53604" lon="11.5610517"><ele>142.0</ele><time>2026-04-26T09:04:37.646Z</time></trkpt><trkpt lat="43.536115" lon="11.5611283"><ele>142.0</ele><time>2026-04-26T09:04:39.645Z</time></trkpt><trkpt lat="43.536185" lon="11.561245"><ele>142.0</ele><time>2026-04-26T09:04:41.644Z</time></trkpt><trkpt lat="43.5362233" lon="11.56135"><ele>142.0</ele><time>2026-04-26T09:04:43.645Z</time></trkpt><trkpt lat="43.5362517" lon="11.5614317"><ele>142.0</ele><time>2026-04-26T09:04:46.645Z</time></trkpt><trkpt lat="43.536265" lon="11.56152"><ele>142.0</ele><time>2026-04-26T09:04:50.645Z</time></trkpt><trkpt lat="43.5362783" lon="11.5616083"><ele>141.79999999999998</ele><time>2026-04-26T09:04:53.645Z</time></trkpt><trkpt lat="43.53632" lon="11.5617183"><ele>141.6</ele><time>2026-04-26T09:04:55.646Z</time></trkpt><trkpt lat="43.536385" lon="11.5618367"><ele>141.39999999999998</ele><time>2026-04-26T09:04:57.646Z</time></trkpt><trkpt lat="43.536475" lon="11.561955"><ele>141.2</ele><time>2026-04-26T09:04:59.644Z</time></trkpt><trkpt lat="43.5365267" lon="11.5620133"><ele>141.0</ele><time>2026-04-26T09:05:00.644Z</time></trkpt><trkpt lat="43.5365817" lon="11.5620633"><ele>140.83333333333334</ele><time>2026-04-26T09:05:01.645Z</time></trkpt><trkpt lat="43.536645" lon="11.5621167"><ele>140.66666666666666</ele><time>2026-04-26T09:05:02.644Z</time></trkpt><trkpt lat="43.5367067" lon="11.5621717"><ele>140.5</ele><time>2026-04-26T09:05:03.644Z</time></trkpt><trkpt lat="43.5367733" lon="11.562225"><ele>140.33333333333331</ele><time>2026-04-26T09:05:04.645Z</time></trkpt><trkpt lat="43.5368467" lon="11.562285"><ele>140.16666666666666</ele><time>2026-04-26T09:05:05.645Z</time></trkpt><trkpt lat="43.53692" lon="11.56236"><ele>140.0</ele><time>2026-04-26T09:05:06.646Z</time></trkpt><trkpt lat="43.53699" lon="11.562445"><ele>140.0</ele><time>2026-04-26T09:05:07.645Z</time></trkpt><trkpt lat="43.5370583" lon="11.5625333"><ele>140.0</ele><time>2026-04-26T09:05:08.645Z</time></trkpt><trkpt lat="43.537125" lon="11.5626283"><ele>140.0</ele><time>2026-04-26T09:05:09.646Z</time></trkpt><trkpt lat="43.537195" lon="11.5627183"><ele>140.0</ele><time>2026-04-26T09:05:10.644Z</time></trkpt><trkpt lat="43.537275" lon="11.5628"><ele>140.0</ele><time>2026-04-26T09:05:11.646Z</time></trkpt><trkpt lat="43.5373533" lon="11.562875"><ele>139.5</ele><time>2026-04-26T09:05:12.647Z</time></trkpt><trkpt lat="43.5374267" lon="11.5629467"><ele>139.0</ele><time>2026-04-26T09:05:13.645Z</time></trkpt><trkpt lat="43.5375017" lon="11.5630117"><ele>138.5</ele><time>2026-04-26T09:05:14.647Z</time></trkpt><trkpt lat="43.537575" lon="11.5630683"><ele>138.0</ele><time>2026-04-26T09:05:15.645Z</time></trkpt><trkpt lat="43.537645" lon="11.5631233"><ele>137.5</ele><time>2026-04-26T09:05:16.643Z</time></trkpt><trkpt lat="43.5377083" lon="11.563175"><ele>137.0</ele><time>2026-04-26T09:05:17.644Z</time></trkpt><trkpt lat="43.5377683" lon="11.56323"><ele>137.00000000000003</ele><time>2026-04-26T09:05:18.644Z</time></trkpt><trkpt lat="43.5378317" lon="11.563285"><ele>137.0</ele><time>2026-04-26T09:05:19.645Z</time></trkpt><trkpt lat="43.537895" lon="11.5633367"><ele>137.0</ele><time>2026-04-26T09:05:20.646Z</time></trkpt><trkpt lat="43.5379567" lon="11.5633833"><ele>137.0</ele><time>2026-04-26T09:05:21.646Z</time></trkpt><trkpt lat="43.5380183" lon="11.5634333"><ele>137.0</ele><time>2026-04-26T09:05:22.644Z</time></trkpt><trkpt lat="43.53808" lon="11.5634883"><ele>137.00000000000003</ele><time>2026-04-26T09:05:23.645Z</time></trkpt><trkpt lat="43.538145" lon="11.56354"><ele>137.0</ele><time>2026-04-26T09:05:24.645Z</time></trkpt><trkpt lat="43.5382067" lon="11.5635917"><ele>137.14285714285717</ele><time>2026-04-26T09:05:25.644Z</time></trkpt><trkpt lat="43.53827" lon="11.56364"><ele>137.28571428571428</ele><time>2026-04-26T09:05:26.646Z</time></trkpt><trkpt lat="43.5383317" lon="11.5636917"><ele>137.42857142857144</ele><time>2026-04-26T09:05:27.645Z</time></trkpt><trkpt lat="43.53839" lon="11.5637467"><ele>137.57142857142858</ele><time>2026-04-26T09:05:28.642Z</time></trkpt><trkpt lat="43.53845" lon="11.5638017"><ele>137.71428571428572</ele><time>2026-04-26T09:05:29.645Z</time></trkpt><trkpt lat="43.53851" lon="11.5638633"><ele>137.85714285714286</ele><time>2026-04-26T09:05:30.646Z</time></trkpt><trkpt lat="43.5385717" lon="11.5639333"><ele>138.0</ele><time>2026-04-26T09:05:31.646Z</time></trkpt><trkpt lat="43.53863" lon="11.5639983"><ele>138.0</ele><time>2026-04-26T09:05:32.645Z</time></trkpt><trkpt lat="43.5386883" lon="11.5640567"><ele>138.0</ele><time>2026-04-26T09:05:33.645Z</time></trkpt><trkpt lat="43.5387517" lon="11.5641117"><ele>138.0</ele><time>2026-04-26T09:05:34.644Z</time></trkpt><trkpt lat="43.5388167" lon="11.564165"><ele>138.0</ele><time>2026-04-26T09:05:35.644Z</time></trkpt><trkpt lat="43.5388783" lon="11.5642217"><ele>138.0</ele><time>2026-04-26T09:05:36.648Z</time></trkpt><trkpt lat="43.5389433" lon="11.564275"><ele>138.0</ele><time>2026-04-26T09:05:37.644Z</time></trkpt><trkpt lat="43.5390067" lon="11.564325"><ele>138.0</ele><time>2026-04-26T09:05:38.646Z</time></trkpt><trkpt lat="43.5390733" lon="11.5643633"><ele>138.0</ele><time>2026-04-26T09:05:39.645Z</time></trkpt><trkpt lat="43.5391417" lon="11.5643867"><ele>138.0</ele><time>2026-04-26T09:05:40.647Z</time></trkpt><trkpt lat="43.5392133" lon="11.5643983"><ele>138.0</ele><time>2026-04-26T09:05:41.645Z</time></trkpt><trkpt lat="43.5392817" lon="11.5644"><ele>138.0</ele><time>2026-04-26T09:05:42.645Z</time></trkpt><trkpt lat="43.5393483" lon="11.564405"><ele>138.0</ele><time>2026-04-26T09:05:43.646Z</time></trkpt><trkpt lat="43.5394183" lon="11.5644"><ele>138.0</ele><time>2026-04-26T09:05:44.645Z</time></trkpt><trkpt lat="43.5394867" lon="11.5643967"><ele>138.0</ele><time>2026-04-26T09:05:45.646Z</time></trkpt><trkpt lat="43.5395533" lon="11.5644"><ele>138.0</ele><time>2026-04-26T09:05:46.645Z</time></trkpt><trkpt lat="43.5396183" lon="11.5644033"><ele>138.0</ele><time>2026-04-26T09:05:47.643Z</time></trkpt><trkpt lat="43.5397317" lon="11.5644583"><ele>138.0</ele><time>2026-04-26T09:05:49.644Z</time></trkpt><trkpt lat="43.5398233" lon="11.564555"><ele>138.0</ele><time>2026-04-26T09:05:51.644Z</time></trkpt><trkpt lat="43.5399017" lon="11.56466"><ele>138.0</ele><time>2026-04-26T09:05:53.645Z</time></trkpt><trkpt lat="43.53998" lon="11.5647717"><ele>138.0</ele><time>2026-04-26T09:05:55.643Z</time></trkpt><trkpt lat="43.5400617" lon="11.564875"><ele>138.0</ele><time>2026-04-26T09:05:57.644Z</time></trkpt><trkpt lat="43.5401467" lon="11.5649717"><ele>138.0</ele><time>2026-04-26T09:05:59.643Z</time></trkpt><trkpt lat="43.5402083" lon="11.565075"><ele>138.0</ele><time>2026-04-26T09:06:01.642Z</time></trkpt><trkpt lat="43.540285" lon="11.56518"><ele>138.0</ele><time>2026-04-26T09:06:03.647Z</time></trkpt><trkpt lat="43.54036" lon="11.565285"><ele>137.20000000000002</ele><time>2026-04-26T09:06:05.645Z</time></trkpt><trkpt lat="43.5404283" lon="11.5653717"><ele>136.4</ele><time>2026-04-26T09:06:07.644Z</time></trkpt><trkpt lat="43.540505" lon="11.5654733"><ele>135.60000000000002</ele><time>2026-04-26T09:06:09.646Z</time></trkpt><trkpt lat="43.54058" lon="11.5655733"><ele>134.8</ele><time>2026-04-26T09:06:11.646Z</time></trkpt><trkpt lat="43.5406617" lon="11.565685"><ele>134.0</ele><time>2026-04-26T09:06:13.646Z</time></trkpt><trkpt lat="43.5407433" lon="11.5657917"><ele>134.0</ele><time>2026-04-26T09:06:15.646Z</time></trkpt><trkpt lat="43.5408183" lon="11.5658917"><ele>134.0</ele><time>2026-04-26T09:06:17.647Z</time></trkpt><trkpt lat="43.540895" lon="11.56599"><ele>134.0</ele><time>2026-04-26T09:06:19.644Z</time></trkpt><trkpt lat="43.540945" lon="11.566045"><ele>134.0</ele><time>2026-04-26T09:06:20.646Z</time></trkpt><trkpt lat="43.5409967" lon="11.5661017"><ele>134.0</ele><time>2026-04-26T09:06:21.645Z</time></trkpt><trkpt lat="43.541045" lon="11.5661583"><ele>134.0</ele><time>2026-04-26T09:06:22.645Z</time></trkpt><trkpt lat="43.5410917" lon="11.56622"><ele>134.16666666666666</ele><time>2026-04-26T09:06:23.645Z</time></trkpt><trkpt lat="43.541185" lon="11.5663383"><ele>134.33333333333331</ele><time>2026-04-26T09:06:25.646Z</time></trkpt><trkpt lat="43.5412317" lon="11.5664"><ele>134.5</ele><time>2026-04-26T09:06:26.645Z</time></trkpt><trkpt lat="43.5412783" lon="11.566465"><ele>134.66666666666666</ele><time>2026-04-26T09:06:27.647Z</time></trkpt><trkpt lat="43.5413267" lon="11.5665317"><ele>134.83333333333334</ele><time>2026-04-26T09:06:28.644Z</time></trkpt><trkpt lat="43.541375" lon="11.566595"><ele>135.0</ele><time>2026-04-26T09:06:29.644Z</time></trkpt><trkpt lat="43.5414267" lon="11.5666633"><ele>135.14285714285714</ele><time>2026-04-26T09:06:30.644Z</time></trkpt><trkpt lat="43.5414767" lon="11.566735"><ele>135.28571428571428</ele><time>2026-04-26T09:06:31.646Z</time></trkpt><trkpt lat="43.5415317" lon="11.566805"><ele>135.42857142857142</ele><time>2026-04-26T09:06:32.645Z</time></trkpt><trkpt lat="43.541585" lon="11.56687"><ele>135.57142857142856</ele><time>2026-04-26T09:06:33.646Z</time></trkpt><trkpt lat="43.5416367" lon="11.5669383"><ele>135.71428571428572</ele><time>2026-04-26T09:06:34.644Z</time></trkpt><trkpt lat="43.5416917" lon="11.56701"><ele>135.85714285714283</ele><time>2026-04-26T09:06:35.644Z</time></trkpt><trkpt lat="43.5417483" lon="11.5670867"><ele>136.0</ele><time>2026-04-26T09:06:36.647Z</time></trkpt><trkpt lat="43.5418083" lon="11.567165"><ele>136.33333333333334</ele><time>2026-04-26T09:06:37.645Z</time></trkpt><trkpt lat="43.54187" lon="11.5672467"><ele>136.66666666666669</ele><time>2026-04-26T09:06:38.646Z</time></trkpt><trkpt lat="43.54193" lon="11.567325"><ele>137.0</ele><time>2026-04-26T09:06:39.644Z</time></trkpt><trkpt lat="43.5419867" lon="11.5674033"><ele>137.33333333333334</ele><time>2026-04-26T09:06:40.644Z</time></trkpt><trkpt lat="43.5420483" lon="11.5674833"><ele>137.66666666666666</ele><time>2026-04-26T09:06:41.646Z</time></trkpt><trkpt lat="43.5421083" lon="11.5675683"><ele>138.0</ele><time>2026-04-26T09:06:42.646Z</time></trkpt><trkpt lat="43.542165" lon="11.56766"><ele>138.0</ele><time>2026-04-26T09:06:43.646Z</time></trkpt><trkpt lat="43.5422167" lon="11.5677533"><ele>138.0</ele><time>2026-04-26T09:06:44.645Z</time></trkpt><trkpt lat="43.5422633" lon="11.56785"><ele>138.0</ele><time>2026-04-26T09:06:45.647Z</time></trkpt><trkpt lat="43.54231" lon="11.567945"><ele>138.0</ele><time>2026-04-26T09:06:46.645Z</time></trkpt><trkpt lat="43.54236" lon="11.5680417"><ele>138.0</ele><time>2026-04-26T09:06:47.647Z</time></trkpt><trkpt lat="43.54241" lon="11.5681417"><ele>138.0</ele><time>2026-04-26T09:06:48.645Z</time></trkpt><trkpt lat="43.54246" lon="11.5682433"><ele>138.4</ele><time>2026-04-26T09:06:49.647Z</time></trkpt><trkpt lat="43.54251" lon="11.5683483"><ele>138.8</ele><time>2026-04-26T09:06:50.645Z</time></trkpt><trkpt lat="43.5425633" lon="11.5684567"><ele>139.2</ele><time>2026-04-26T09:06:51.645Z</time></trkpt><trkpt lat="43.5426183" lon="11.5685667"><ele>139.6</ele><time>2026-04-26T09:06:52.645Z</time></trkpt><trkpt lat="43.542675" lon="11.5686817"><ele>140.0</ele><time>2026-04-26T09:06:53.644Z</time></trkpt><trkpt lat="43.5427383" lon="11.568805"><ele>140.0</ele><time>2026-04-26T09:06:54.645Z</time></trkpt><trkpt lat="43.5428083" lon="11.5689383"><ele>140.0</ele><time>2026-04-26T09:06:55.646Z</time></trkpt><trkpt lat="43.5428767" lon="11.5690683"><ele>140.0</ele><time>2026-04-26T09:06:56.646Z</time></trkpt><trkpt lat="43.5429483" lon="11.5691917"><ele>140.0</ele><time>2026-04-26T09:06:57.645Z</time></trkpt><trkpt lat="43.543015" lon="11.5693033"><ele>140.0</ele><time>2026-04-26T09:06:58.647Z</time></trkpt><trkpt lat="43.5430733" lon="11.5694083"><ele>140.0</ele><time>2026-04-26T09:06:59.647Z</time></trkpt><trkpt lat="43.5431167" lon="11.56951"><ele>140.0</ele><time>2026-04-26T09:07:00.645Z</time></trkpt><trkpt lat="43.5431417" lon="11.5696083"><ele>140.0</ele><time>2026-04-26T09:07:01.646Z</time></trkpt><trkpt lat="43.54315" lon="11.5697083"><ele>140.0</ele><time>2026-04-26T09:07:02.647Z</time></trkpt><trkpt lat="43.5431383" lon="11.56981"><ele>140.0</ele><time>2026-04-26T09:07:03.646Z</time></trkpt><trkpt lat="43.543105" lon="11.5698967"><ele>140.0</ele><time>2026-04-26T09:07:04.647Z</time></trkpt><trkpt lat="43.5430617" lon="11.5699833"><ele>140.0</ele><time>2026-04-26T09:07:05.645Z</time></trkpt><trkpt lat="43.5430033" lon="11.5700633"><ele>140.0</ele><time>2026-04-26T09:07:06.645Z</time></trkpt><trkpt lat="43.5429417" lon="11.570145"><ele>140.0</ele><time>2026-04-26T09:07:07.646Z</time></trkpt><trkpt lat="43.542875" lon="11.5702267"><ele>140.0</ele><time>2026-04-26T09:07:08.645Z</time></trkpt><trkpt lat="43.542805" lon="11.5703117"><ele>140.0</ele><time>2026-04-26T09:07:09.646Z</time></trkpt><trkpt lat="43.5427267" lon="11.5703867"><ele>140.16666666666666</ele><time>2026-04-26T09:07:10.647Z</time></trkpt><trkpt lat="43.5426517" lon="11.570465"><ele>140.33333333333331</ele><time>2026-04-26T09:07:11.646Z</time></trkpt><trkpt lat="43.5425817" lon="11.5705433"><ele>140.5</ele><time>2026-04-26T09:07:12.645Z</time></trkpt><trkpt lat="43.5425133" lon="11.57062"><ele>140.66666666666666</ele><time>2026-04-26T09:07:13.645Z</time></trkpt><trkpt lat="43.5424533" lon="11.5706933"><ele>140.83333333333334</ele><time>2026-04-26T09:07:14.647Z</time></trkpt><trkpt lat="43.5424067" lon="11.5707733"><ele>141.0</ele><time>2026-04-26T09:07:15.645Z</time></trkpt><trkpt lat="43.5423783" lon="11.570865"><ele>141.0</ele><time>2026-04-26T09:07:16.645Z</time></trkpt><trkpt lat="43.542395" lon="11.570955"><ele>141.0</ele><time>2026-04-26T09:07:17.646Z</time></trkpt><trkpt lat="43.5424383" lon="11.5710267"><ele>141.0</ele><time>2026-04-26T09:07:18.647Z</time></trkpt><trkpt lat="43.5424883" lon="11.571085"><ele>141.0</ele><time>2026-04-26T09:07:19.645Z</time></trkpt><trkpt lat="43.5425583" lon="11.5711217"><ele>141.0</ele><time>2026-04-26T09:07:20.647Z</time></trkpt><trkpt lat="43.542635" lon="11.5711483"><ele>141.0</ele><time>2026-04-26T09:07:21.645Z</time></trkpt><trkpt lat="43.542715" lon="11.57117"><ele>141.0</ele><time>2026-04-26T09:07:22.643Z</time></trkpt><trkpt lat="43.5427967" lon="11.5711917"><ele>140.66666666666666</ele><time>2026-04-26T09:07:23.644Z</time></trkpt><trkpt lat="43.5428767" lon="11.57121"><ele>140.33333333333334</ele><time>2026-04-26T09:07:24.647Z</time></trkpt><trkpt lat="43.5429567" lon="11.5712383"><ele>140.0</ele><time>2026-04-26T09:07:25.645Z</time></trkpt><trkpt lat="43.543035" lon="11.5712567"><ele>139.66666666666669</ele><time>2026-04-26T09:07:26.645Z</time></trkpt><trkpt lat="43.5431183" lon="11.5712767"><ele>139.33333333333334</ele><time>2026-04-26T09:07:27.644Z</time></trkpt><trkpt lat="43.5432017" lon="11.571295"><ele>139.0</ele><time>2026-04-26T09:07:28.643Z</time></trkpt><trkpt lat="43.54328" lon="11.571315"><ele>139.0</ele><time>2026-04-26T09:07:29.647Z</time></trkpt><trkpt lat="43.54336" lon="11.571335"><ele>139.0</ele><time>2026-04-26T09:07:30.646Z</time></trkpt><trkpt lat="43.54344" lon="11.5713517"><ele>139.0</ele><time>2026-04-26T09:07:31.645Z</time></trkpt><trkpt lat="43.5435183" lon="11.57137"><ele>139.0</ele><time>2026-04-26T09:07:32.645Z</time></trkpt><trkpt lat="43.5435983" lon="11.5713867"><ele>139.0</ele><time>2026-04-26T09:07:33.646Z</time></trkpt><trkpt lat="43.543675" lon="11.5713983"><ele>139.0</ele><time>2026-04-26T09:07:34.644Z</time></trkpt><trkpt lat="43.543755" lon="11.5714217"><ele>139.33333333333334</ele><time>2026-04-26T09:07:35.647Z</time></trkpt><trkpt lat="43.543835" lon="11.5714467"><ele>139.66666666666669</ele><time>2026-04-26T09:07:36.645Z</time></trkpt><trkpt lat="43.543915" lon="11.5714667"><ele>140.0</ele><time>2026-04-26T09:07:37.645Z</time></trkpt><trkpt lat="43.543995" lon="11.57149"><ele>140.33333333333334</ele><time>2026-04-26T09:07:38.645Z</time></trkpt><trkpt lat="43.5440783" lon="11.5715"><ele>140.66666666666666</ele><time>2026-04-26T09:07:39.645Z</time></trkpt><trkpt lat="43.5441583" lon="11.5715233"><ele>141.0</ele><time>2026-04-26T09:07:40.644Z</time></trkpt><trkpt lat="43.5442317" lon="11.57156"><ele>141.0</ele><time>2026-04-26T09:07:41.645Z</time></trkpt><trkpt lat="43.5442983" lon="11.5716183"><ele>141.0</ele><time>2026-04-26T09:07:42.646Z</time></trkpt><trkpt lat="43.544355" lon="11.5716917"><ele>141.0</ele><time>2026-04-26T09:07:43.644Z</time></trkpt><trkpt lat="43.5444067" lon="11.5717717"><ele>141.0</ele><time>2026-04-26T09:07:44.646Z</time></trkpt><trkpt lat="43.5444567" lon="11.5718567"><ele>141.0</ele><time>2026-04-26T09:07:45.646Z</time></trkpt><trkpt lat="43.5445067" lon="11.5719417"><ele>141.0</ele><time>2026-04-26T09:07:46.645Z</time></trkpt><trkpt lat="43.5445583" lon="11.5720233"><ele>142.16666666666666</ele><time>2026-04-26T09:07:47.644Z</time></trkpt><trkpt lat="43.5446033" lon="11.572105"><ele>143.33333333333334</ele><time>2026-04-26T09:07:48.644Z</time></trkpt><trkpt lat="43.54465" lon="11.5721783"><ele>144.5</ele><time>2026-04-26T09:07:49.645Z</time></trkpt><trkpt lat="43.54469" lon="11.5722483"><ele>145.66666666666669</ele><time>2026-04-26T09:07:50.646Z</time></trkpt><trkpt lat="43.5447333" lon="11.5723133"><ele>146.83333333333334</ele><time>2026-04-26T09:07:51.647Z</time></trkpt><trkpt lat="43.5448067" lon="11.5724433"><ele>148.0</ele><time>2026-04-26T09:07:53.645Z</time></trkpt><trkpt lat="43.5448483" lon="11.5725133"><ele>148.0</ele><time>2026-04-26T09:07:54.645Z</time></trkpt><trkpt lat="43.5448883" lon="11.5725933"><ele>148.0</ele><time>2026-04-26T09:07:55.646Z</time></trkpt><trkpt lat="43.5449333" lon="11.5726783"><ele>148.0</ele><time>2026-04-26T09:07:56.646Z</time></trkpt><trkpt lat="43.544975" lon="11.57276"><ele>148.0</ele><time>2026-04-26T09:07:57.645Z</time></trkpt><trkpt lat="43.5450167" lon="11.57285"><ele>148.0</ele><time>2026-04-26T09:07:58.645Z</time></trkpt><trkpt lat="43.545065" lon="11.5729383"><ele>148.0</ele><time>2026-04-26T09:07:59.645Z</time></trkpt><trkpt lat="43.5451217" lon="11.5730233"><ele>147.5</ele><time>2026-04-26T09:08:00.646Z</time></trkpt><trkpt lat="43.545175" lon="11.5731083"><ele>147.0</ele><time>2026-04-26T09:08:01.647Z</time></trkpt><trkpt lat="43.5452267" lon="11.57319"><ele>146.5</ele><time>2026-04-26T09:08:02.645Z</time></trkpt><trkpt lat="43.545275" lon="11.5732817"><ele>146.0</ele><time>2026-04-26T09:08:03.646Z</time></trkpt><trkpt lat="43.5453267" lon="11.573365"><ele>145.5</ele><time>2026-04-26T09:08:04.644Z</time></trkpt><trkpt lat="43.545375" lon="11.5734583"><ele>145.0</ele><time>2026-04-26T09:08:05.645Z</time></trkpt><trkpt lat="43.545425" lon="11.57355"><ele>144.33333333333334</ele><time>2026-04-26T09:08:06.648Z</time></trkpt><trkpt lat="43.5454767" lon="11.573635"><ele>143.66666666666669</ele><time>2026-04-26T09:08:07.648Z</time></trkpt><trkpt lat="43.5455317" lon="11.5737217"><ele>143.0</ele><time>2026-04-26T09:08:08.647Z</time></trkpt><trkpt lat="43.5455867" lon="11.5738117"><ele>142.33333333333334</ele><time>2026-04-26T09:08:09.645Z</time></trkpt><trkpt lat="43.54564" lon="11.5738933"><ele>141.66666666666666</ele><time>2026-04-26T09:08:10.645Z</time></trkpt><trkpt lat="43.5456967" lon="11.5739833"><ele>141.0</ele><time>2026-04-26T09:08:11.646Z</time></trkpt><trkpt lat="43.545755" lon="11.5740733"><ele>141.0</ele><time>2026-04-26T09:08:12.646Z</time></trkpt><trkpt lat="43.545815" lon="11.5741583"><ele>141.0</ele><time>2026-04-26T09:08:13.646Z</time></trkpt><trkpt lat="43.5458733" lon="11.5742467"><ele>141.0</ele><time>2026-04-26T09:08:14.645Z</time></trkpt><trkpt lat="43.5459283" lon="11.5743317"><ele>141.0</ele><time>2026-04-26T09:08:15.645Z</time></trkpt><trkpt lat="43.5459833" lon="11.5744117"><ele>141.0</ele><time>2026-04-26T09:08:16.644Z</time></trkpt><trkpt lat="43.5460383" lon="11.5744883"><ele>141.0</ele><time>2026-04-26T09:08:17.646Z</time></trkpt><trkpt lat="43.546095" lon="11.574565"><ele>141.0</ele><time>2026-04-26T09:08:18.645Z</time></trkpt><trkpt lat="43.5461517" lon="11.5746433"><ele>141.0</ele><time>2026-04-26T09:08:19.645Z</time></trkpt><trkpt lat="43.5462017" lon="11.5747267"><ele>141.0</ele><time>2026-04-26T09:08:20.645Z</time></trkpt><trkpt lat="43.54625" lon="11.5748167"><ele>141.0</ele><time>2026-04-26T09:08:21.646Z</time></trkpt><trkpt lat="43.5462983" lon="11.5748967"><ele>141.0</ele><time>2026-04-26T09:08:22.646Z</time></trkpt><trkpt lat="43.5463383" lon="11.5749917"><ele>141.0</ele><time>2026-04-26T09:08:23.645Z</time></trkpt><trkpt lat="43.5463833" lon="11.5750833"><ele>140.83333333333334</ele><time>2026-04-26T09:08:24.647Z</time></trkpt><trkpt lat="43.5464267" lon="11.5751767"><ele>140.66666666666666</ele><time>2026-04-26T09:08:25.647Z</time></trkpt><trkpt lat="43.5464783" lon="11.5752717"><ele>140.5</ele><time>2026-04-26T09:08:26.646Z</time></trkpt><trkpt lat="43.546525" lon="11.5753633"><ele>140.33333333333331</ele><time>2026-04-26T09:08:27.645Z</time></trkpt><trkpt lat="43.5465717" lon="11.5754567"><ele>140.16666666666666</ele><time>2026-04-26T09:08:28.646Z</time></trkpt><trkpt lat="43.5466217" lon="11.57555"><ele>140.0</ele><time>2026-04-26T09:08:29.645Z</time></trkpt><trkpt lat="43.5466767" lon="11.5756417"><ele>140.33333333333331</ele><time>2026-04-26T09:08:30.646Z</time></trkpt><trkpt lat="43.5467317" lon="11.5757333"><ele>140.66666666666666</ele><time>2026-04-26T09:08:31.644Z</time></trkpt><trkpt lat="43.5467783" lon="11.57583"><ele>141.0</ele><time>2026-04-26T09:08:32.646Z</time></trkpt><trkpt lat="43.5468317" lon="11.5759283"><ele>141.33333333333334</ele><time>2026-04-26T09:08:33.647Z</time></trkpt><trkpt lat="43.5468833" lon="11.5760267"><ele>141.66666666666669</ele><time>2026-04-26T09:08:34.645Z</time></trkpt><trkpt lat="43.5469267" lon="11.57612"><ele>142.0</ele><time>2026-04-26T09:08:35.645Z</time></trkpt><trkpt lat="43.546975" lon="11.576215"><ele>142.0</ele><time>2026-04-26T09:08:36.645Z</time></trkpt><trkpt lat="43.5470183" lon="11.5763133"><ele>142.0</ele><time>2026-04-26T09:08:37.645Z</time></trkpt><trkpt lat="43.547055" lon="11.576415"><ele>142.0</ele><time>2026-04-26T09:08:38.647Z</time></trkpt><trkpt lat="43.54709" lon="11.5765167"><ele>142.0</ele><time>2026-04-26T09:08:39.646Z</time></trkpt><trkpt lat="43.5471267" lon="11.5766233"><ele>142.0</ele><time>2026-04-26T09:08:40.643Z</time></trkpt><trkpt lat="43.54715" lon="11.5767317"><ele>142.0</ele><time>2026-04-26T09:08:41.647Z</time></trkpt><trkpt lat="43.547155" lon="11.5768433"><ele>142.16666666666669</ele><time>2026-04-26T09:08:42.648Z</time></trkpt><trkpt lat="43.5471417" lon="11.576955"><ele>142.33333333333334</ele><time>2026-04-26T09:08:43.645Z</time></trkpt><trkpt lat="43.5471183" lon="11.577065"><ele>142.5</ele><time>2026-04-26T09:08:44.646Z</time></trkpt><trkpt lat="43.5470933" lon="11.5771783"><ele>142.66666666666666</ele><time>2026-04-26T09:08:45.646Z</time></trkpt><trkpt lat="43.5470783" lon="11.57729"><ele>142.83333333333331</ele><time>2026-04-26T09:08:46.646Z</time></trkpt><trkpt lat="43.54707" lon="11.5774033"><ele>143.0</ele><time>2026-04-26T09:08:47.648Z</time></trkpt><trkpt lat="43.54707" lon="11.577515"><ele>143.0</ele><time>2026-04-26T09:08:48.646Z</time></trkpt><trkpt lat="43.5470667" lon="11.5776267"><ele>143.0</ele><time>2026-04-26T09:08:49.647Z</time></trkpt><trkpt lat="43.5470517" lon="11.5777333"><ele>143.0</ele><time>2026-04-26T09:08:50.646Z</time></trkpt><trkpt lat="43.5470267" lon="11.577835"><ele>143.0</ele><time>2026-04-26T09:08:51.646Z</time></trkpt><trkpt lat="43.5469767" lon="11.5779183"><ele>143.0</ele><time>2026-04-26T09:08:52.646Z</time></trkpt><trkpt lat="43.5469183" lon="11.5779917"><ele>143.0</ele><time>2026-04-26T09:08:53.645Z</time></trkpt><trkpt lat="43.5468583" lon="11.5780567"><ele>142.42857142857142</ele><time>2026-04-26T09:08:54.645Z</time></trkpt><trkpt lat="43.5467967" lon="11.57812"><ele>141.85714285714286</ele><time>2026-04-26T09:08:55.647Z</time></trkpt><trkpt lat="43.5467367" lon="11.5781817"><ele>141.28571428571428</ele><time>2026-04-26T09:08:56.645Z</time></trkpt><trkpt lat="43.54668" lon="11.5782433"><ele>140.71428571428572</ele><time>2026-04-26T09:08:57.647Z</time></trkpt><trkpt lat="43.5466217" lon="11.5783033"><ele>140.14285714285714</ele><time>2026-04-26T09:08:58.646Z</time></trkpt><trkpt lat="43.5465683" lon="11.5783617"><ele>139.57142857142856</ele><time>2026-04-26T09:08:59.646Z</time></trkpt><trkpt lat="43.546515" lon="11.5784183"><ele>139.0</ele><time>2026-04-26T09:09:00.646Z</time></trkpt><trkpt lat="43.5464583" lon="11.57847"><ele>139.0</ele><time>2026-04-26T09:09:01.646Z</time></trkpt><trkpt lat="43.5464033" lon="11.5785283"><ele>139.0</ele><time>2026-04-26T09:09:02.645Z</time></trkpt><trkpt lat="43.5463417" lon="11.5785883"><ele>139.0</ele><time>2026-04-26T09:09:03.645Z</time></trkpt><trkpt lat="43.546285" lon="11.5786483"><ele>139.0</ele><time>2026-04-26T09:09:04.645Z</time></trkpt><trkpt lat="43.5462283" lon="11.5787117"><ele>139.0</ele><time>2026-04-26T09:09:05.644Z</time></trkpt><trkpt lat="43.5461717" lon="11.5787783"><ele>139.0</ele><time>2026-04-26T09:09:06.646Z</time></trkpt><trkpt lat="43.5461133" lon="11.5788417"><ele>139.0</ele><time>2026-04-26T09:09:07.647Z</time></trkpt><trkpt lat="43.54606" lon="11.5789133"><ele>140.28571428571428</ele><time>2026-04-26T09:09:08.647Z</time></trkpt><trkpt lat="43.5460083" lon="11.5789833"><ele>141.57142857142858</ele><time>2026-04-26T09:09:09.645Z</time></trkpt><trkpt lat="43.5459567" lon="11.5790483"><ele>142.85714285714286</ele><time>2026-04-26T09:09:10.646Z</time></trkpt><trkpt lat="43.545905" lon="11.5791167"><ele>144.14285714285714</ele><time>2026-04-26T09:09:11.647Z</time></trkpt><trkpt lat="43.545855" lon="11.579195"><ele>145.42857142857142</ele><time>2026-04-26T09:09:12.648Z</time></trkpt><trkpt lat="43.54581" lon="11.5792733"><ele>146.71428571428572</ele><time>2026-04-26T09:09:13.645Z</time></trkpt><trkpt lat="43.545765" lon="11.57935"><ele>148.0</ele><time>2026-04-26T09:09:14.646Z</time></trkpt><trkpt lat="43.5457233" lon="11.579425"><ele>148.0</ele><time>2026-04-26T09:09:15.646Z</time></trkpt><trkpt lat="43.545685" lon="11.5794983"><ele>148.0</ele><time>2026-04-26T09:09:16.646Z</time></trkpt><trkpt lat="43.5456467" lon="11.5795733"><ele>148.0</ele><time>2026-04-26T09:09:17.646Z</time></trkpt><trkpt lat="43.5456067" lon="11.579645"><ele>148.0</ele><time>2026-04-26T09:09:18.648Z</time></trkpt><trkpt lat="43.5455733" lon="11.579725"><ele>148.0</ele><time>2026-04-26T09:09:19.648Z</time></trkpt><trkpt lat="43.545545" lon="11.5798133"><ele>148.0</ele><time>2026-04-26T09:09:20.648Z</time></trkpt><trkpt lat="43.54552" lon="11.5799"><ele>148.0</ele><time>2026-04-26T09:09:21.646Z</time></trkpt><trkpt lat="43.5454933" lon="11.57999"><ele>148.0</ele><time>2026-04-26T09:09:22.645Z</time></trkpt><trkpt lat="43.5454667" lon="11.5800817"><ele>148.0</ele><time>2026-04-26T09:09:23.645Z</time></trkpt><trkpt lat="43.5454417" lon="11.5801733"><ele>148.0</ele><time>2026-04-26T09:09:24.646Z</time></trkpt><trkpt lat="43.5454167" lon="11.5802667"><ele>148.0</ele><time>2026-04-26T09:09:25.645Z</time></trkpt><trkpt lat="43.545395" lon="11.5803617"><ele>148.0</ele><time>2026-04-26T09:09:26.644Z</time></trkpt><trkpt lat="43.5453767" lon="11.5804567"><ele>148.0</ele><time>2026-04-26T09:09:27.645Z</time></trkpt><trkpt lat="43.54536" lon="11.5805533"><ele>148.0</ele><time>2026-04-26T09:09:28.647Z</time></trkpt><trkpt lat="43.545345" lon="11.5806533"><ele>148.71428571428572</ele><time>2026-04-26T09:09:29.647Z</time></trkpt><trkpt lat="43.54533" lon="11.5807533"><ele>149.42857142857142</ele><time>2026-04-26T09:09:30.646Z</time></trkpt><trkpt lat="43.5453133" lon="11.5808583"><ele>150.14285714285714</ele><time>2026-04-26T09:09:31.646Z</time></trkpt><trkpt lat="43.5453033" lon="11.5809617"><ele>150.85714285714286</ele><time>2026-04-26T09:09:32.645Z</time></trkpt><trkpt lat="43.545295" lon="11.581065"><ele>151.57142857142858</ele><time>2026-04-26T09:09:33.645Z</time></trkpt><trkpt lat="43.5452833" lon="11.58116"><ele>152.28571428571428</ele><time>2026-04-26T09:09:34.645Z</time></trkpt><trkpt lat="43.5452733" lon="11.5812617"><ele>153.0</ele><time>2026-04-26T09:09:35.646Z</time></trkpt><trkpt lat="43.545265" lon="11.581365"><ele>153.0</ele><time>2026-04-26T09:09:36.645Z</time></trkpt><trkpt lat="43.5452567" lon="11.58147"><ele>153.0</ele><time>2026-04-26T09:09:37.645Z</time></trkpt><trkpt lat="43.545255" lon="11.5815833"><ele>153.0</ele><time>2026-04-26T09:09:38.648Z</time></trkpt><trkpt lat="43.5452517" lon="11.5816967"><ele>153.0</ele><time>2026-04-26T09:09:39.648Z</time></trkpt><trkpt lat="43.5452483" lon="11.58181"><ele>153.0</ele><time>2026-04-26T09:09:40.646Z</time></trkpt><trkpt lat="43.5452383" lon="11.58192"><ele>153.0</ele><time>2026-04-26T09:09:41.646Z</time></trkpt><trkpt lat="43.5452333" lon="11.58203"><ele>152.83333333333334</ele><time>2026-04-26T09:09:42.645Z</time></trkpt><trkpt lat="43.5452317" lon="11.582145"><ele>152.66666666666666</ele><time>2026-04-26T09:09:43.646Z</time></trkpt><trkpt lat="43.5452283" lon="11.58226"><ele>152.5</ele><time>2026-04-26T09:09:44.645Z</time></trkpt><trkpt lat="43.545225" lon="11.582375"><ele>152.33333333333331</ele><time>2026-04-26T09:09:45.645Z</time></trkpt><trkpt lat="43.54522" lon="11.582485"><ele>152.16666666666666</ele><time>2026-04-26T09:09:46.645Z</time></trkpt><trkpt lat="43.5452217" lon="11.5825933"><ele>152.0</ele><time>2026-04-26T09:09:47.645Z</time></trkpt><trkpt lat="43.5452267" lon="11.5827033"><ele>152.0</ele><time>2026-04-26T09:09:48.645Z</time></trkpt><trkpt lat="43.545235" lon="11.582815"><ele>152.0</ele><time>2026-04-26T09:09:49.645Z</time></trkpt><trkpt lat="43.5452433" lon="11.5829233"><ele>152.0</ele><time>2026-04-26T09:09:50.648Z</time></trkpt><trkpt lat="43.5452533" lon="11.5830283"><ele>152.0</ele><time>2026-04-26T09:09:51.646Z</time></trkpt><trkpt lat="43.5452683" lon="11.5831417"><ele>152.0</ele><time>2026-04-26T09:09:52.646Z</time></trkpt><trkpt lat="43.545285" lon="11.583255"><ele>152.0</ele><time>2026-04-26T09:09:53.646Z</time></trkpt><trkpt lat="43.5453083" lon="11.5833683"><ele>152.0</ele><time>2026-04-26T09:09:54.647Z</time></trkpt><trkpt lat="43.5453333" lon="11.583475"><ele>152.0</ele><time>2026-04-26T09:09:55.648Z</time></trkpt><trkpt lat="43.545365" lon="11.583585"><ele>152.0</ele><time>2026-04-26T09:09:56.645Z</time></trkpt><trkpt lat="43.5453967" lon="11.5836933"><ele>152.0</ele><time>2026-04-26T09:09:57.644Z</time></trkpt><trkpt lat="43.5454267" lon="11.583805"><ele>152.0</ele><time>2026-04-26T09:09:58.643Z</time></trkpt><trkpt lat="43.5454567" lon="11.583915"><ele>152.0</ele><time>2026-04-26T09:09:59.643Z</time></trkpt><trkpt lat="43.5454933" lon="11.584025"><ele>152.2</ele><time>2026-04-26T09:10:00.644Z</time></trkpt><trkpt lat="43.5455333" lon="11.5841433"><ele>152.39999999999998</ele><time>2026-04-26T09:10:01.646Z</time></trkpt><trkpt lat="43.5455767" lon="11.58426"><ele>152.60000000000002</ele><time>2026-04-26T09:10:02.646Z</time></trkpt><trkpt lat="43.54562" lon="11.5843783"><ele>152.8</ele><time>2026-04-26T09:10:03.645Z</time></trkpt><trkpt lat="43.5456633" lon="11.5844967"><ele>153.0</ele><time>2026-04-26T09:10:04.648Z</time></trkpt><trkpt lat="43.5457067" lon="11.5846183"><ele>153.0</ele><time>2026-04-26T09:10:05.643Z</time></trkpt><trkpt lat="43.5457533" lon="11.5847383"><ele>153.0</ele><time>2026-04-26T09:10:06.643Z</time></trkpt><trkpt lat="43.5457983" lon="11.5848533"><ele>153.0</ele><time>2026-04-26T09:10:07.644Z</time></trkpt><trkpt lat="43.5458467" lon="11.5849667"><ele>153.0</ele><time>2026-04-26T09:10:08.643Z</time></trkpt><trkpt lat="43.5458917" lon="11.5850867"><ele>153.0</ele><time>2026-04-26T09:10:09.642Z</time></trkpt><trkpt lat="43.5459333" lon="11.5852017"><ele>153.0</ele><time>2026-04-26T09:10:10.641Z</time></trkpt><trkpt lat="43.545975" lon="11.5853217"><ele>153.0</ele><time>2026-04-26T09:10:11.642Z</time></trkpt><trkpt lat="43.5460167" lon="11.5854433"><ele>153.0</ele><time>2026-04-26T09:10:12.642Z</time></trkpt><trkpt lat="43.5460683" lon="11.5855767"><ele>153.0</ele><time>2026-04-26T09:10:13.641Z</time></trkpt><trkpt lat="43.5461117" lon="11.5857017"><ele>153.0</ele><time>2026-04-26T09:10:14.643Z</time></trkpt><trkpt lat="43.5461533" lon="11.58582"><ele>152.6</ele><time>2026-04-26T09:10:15.642Z</time></trkpt><trkpt lat="43.5461933" lon="11.58594"><ele>152.20000000000002</ele><time>2026-04-26T09:10:16.643Z</time></trkpt><trkpt lat="43.5462433" lon="11.5860583"><ele>151.8</ele><time>2026-04-26T09:10:17.645Z</time></trkpt><trkpt lat="43.5462933" lon="11.586185"><ele>151.4</ele><time>2026-04-26T09:10:18.647Z</time></trkpt><trkpt lat="43.5463483" lon="11.5863017"><ele>151.0</ele><time>2026-04-26T09:10:19.644Z</time></trkpt><trkpt lat="43.5463933" lon="11.58642"><ele>151.0</ele><time>2026-04-26T09:10:20.644Z</time></trkpt><trkpt lat="43.5464417" lon="11.5865367"><ele>151.0</ele><time>2026-04-26T09:10:21.644Z</time></trkpt><trkpt lat="43.546485" lon="11.58665"><ele>151.0</ele><time>2026-04-26T09:10:22.645Z</time></trkpt><trkpt lat="43.5465267" lon="11.5867667"><ele>151.0</ele><time>2026-04-26T09:10:23.645Z</time></trkpt><trkpt lat="43.5465667" lon="11.5868817"><ele>151.0</ele><time>2026-04-26T09:10:24.645Z</time></trkpt><trkpt lat="43.5465967" lon="11.5869967"><ele>151.4</ele><time>2026-04-26T09:10:25.644Z</time></trkpt><trkpt lat="43.5466283" lon="11.5871117"><ele>151.8</ele><time>2026-04-26T09:10:26.642Z</time></trkpt><trkpt lat="43.5466583" lon="11.5872267"><ele>152.20000000000002</ele><time>2026-04-26T09:10:27.642Z</time></trkpt><trkpt lat="43.546685" lon="11.5873433"><ele>152.6</ele><time>2026-04-26T09:10:28.642Z</time></trkpt><trkpt lat="43.5467167" lon="11.5874667"><ele>153.0</ele><time>2026-04-26T09:10:29.644Z</time></trkpt><trkpt lat="43.5467567" lon="11.5875783"><ele>153.0</ele><time>2026-04-26T09:10:30.642Z</time></trkpt><trkpt lat="43.546795" lon="11.5876883"><ele>153.0</ele><time>2026-04-26T09:10:31.643Z</time></trkpt><trkpt lat="43.5468367" lon="11.5877983"><ele>153.0</ele><time>2026-04-26T09:10:32.644Z</time></trkpt><trkpt lat="43.54688" lon="11.5879033"><ele>153.0</ele><time>2026-04-26T09:10:33.642Z</time></trkpt><trkpt lat="43.5469283" lon="11.5880067"><ele>153.0</ele><time>2026-04-26T09:10:34.645Z</time></trkpt><trkpt lat="43.546975" lon="11.5881183"><ele>153.0</ele><time>2026-04-26T09:10:35.643Z</time></trkpt><trkpt lat="43.5470283" lon="11.5882233"><ele>153.0</ele><time>2026-04-26T09:10:36.646Z</time></trkpt><trkpt lat="43.54708" lon="11.5883217"><ele>153.0</ele><time>2026-04-26T09:10:37.645Z</time></trkpt><trkpt lat="43.547135" lon="11.588415"><ele>153.0</ele><time>2026-04-26T09:10:38.644Z</time></trkpt><trkpt lat="43.5471917" lon="11.5885067"><ele>153.0</ele><time>2026-04-26T09:10:39.642Z</time></trkpt><trkpt lat="43.5472483" lon="11.5885983"><ele>153.0</ele><time>2026-04-26T09:10:40.644Z</time></trkpt><trkpt lat="43.547295" lon="11.5886967"><ele>153.0</ele><time>2026-04-26T09:10:41.644Z</time></trkpt><trkpt lat="43.5473367" lon="11.5888017"><ele>153.0</ele><time>2026-04-26T09:10:42.647Z</time></trkpt><trkpt lat="43.5473817" lon="11.5889017"><ele>153.0</ele><time>2026-04-26T09:10:43.644Z</time></trkpt><trkpt lat="43.54741" lon="11.589005"><ele>153.0</ele><time>2026-04-26T09:10:44.645Z</time></trkpt><trkpt lat="43.5474433" lon="11.589105"><ele>153.0</ele><time>2026-04-26T09:10:45.645Z</time></trkpt><trkpt lat="43.5474683" lon="11.5892117"><ele>153.0</ele><time>2026-04-26T09:10:46.645Z</time></trkpt><trkpt lat="43.5474917" lon="11.5893183"><ele>153.0</ele><time>2026-04-26T09:10:47.645Z</time></trkpt><trkpt lat="43.547515" lon="11.5894233"><ele>152.83333333333334</ele><time>2026-04-26T09:10:48.646Z</time></trkpt><trkpt lat="43.5475383" lon="11.5895267"><ele>152.66666666666666</ele><time>2026-04-26T09:10:49.644Z</time></trkpt><trkpt lat="43.5475567" lon="11.5896317"><ele>152.5</ele><time>2026-04-26T09:10:50.645Z</time></trkpt><trkpt lat="43.547575" lon="11.5897367"><ele>152.33333333333331</ele><time>2026-04-26T09:10:51.645Z</time></trkpt><trkpt lat="43.547595" lon="11.5898433"><ele>152.16666666666666</ele><time>2026-04-26T09:10:52.644Z</time></trkpt><trkpt lat="43.5476133" lon="11.5899517"><ele>152.0</ele><time>2026-04-26T09:10:53.644Z</time></trkpt><trkpt lat="43.547635" lon="11.59006"><ele>152.0</ele><time>2026-04-26T09:10:54.644Z</time></trkpt><trkpt lat="43.547655" lon="11.5901717"><ele>152.0</ele><time>2026-04-26T09:10:55.644Z</time></trkpt><trkpt lat="43.547675" lon="11.59028"><ele>152.0</ele><time>2026-04-26T09:10:56.647Z</time></trkpt><trkpt lat="43.5476917" lon="11.5903933"><ele>152.0</ele><time>2026-04-26T09:10:57.644Z</time></trkpt><trkpt lat="43.5477117" lon="11.590505"><ele>152.0</ele><time>2026-04-26T09:10:58.645Z</time></trkpt><trkpt lat="43.5477367" lon="11.59062"><ele>152.0</ele><time>2026-04-26T09:10:59.645Z</time></trkpt><trkpt lat="43.5477583" lon="11.590735"><ele>152.0</ele><time>2026-04-26T09:11:00.644Z</time></trkpt><trkpt lat="43.5477783" lon="11.5908467"><ele>152.0</ele><time>2026-04-26T09:11:01.644Z</time></trkpt><trkpt lat="43.547805" lon="11.59096"><ele>152.0</ele><time>2026-04-26T09:11:02.646Z</time></trkpt><trkpt lat="43.5478267" lon="11.5910717"><ele>152.0</ele><time>2026-04-26T09:11:03.647Z</time></trkpt><trkpt lat="43.5478483" lon="11.59118"><ele>152.0</ele><time>2026-04-26T09:11:04.645Z</time></trkpt><trkpt lat="43.5478683" lon="11.5912933"><ele>152.0</ele><time>2026-04-26T09:11:05.645Z</time></trkpt><trkpt lat="43.54789" lon="11.5914067"><ele>152.0</ele><time>2026-04-26T09:11:06.646Z</time></trkpt><trkpt lat="43.5479133" lon="11.5915217"><ele>152.0</ele><time>2026-04-26T09:11:07.646Z</time></trkpt><trkpt lat="43.5479367" lon="11.591635"><ele>152.0</ele><time>2026-04-26T09:11:08.646Z</time></trkpt><trkpt lat="43.5479617" lon="11.5917467"><ele>152.0</ele><time>2026-04-26T09:11:09.646Z</time></trkpt><trkpt lat="43.5479883" lon="11.5918533"><ele>152.0</ele><time>2026-04-26T09:11:10.647Z</time></trkpt><trkpt lat="43.5480233" lon="11.5919583"><ele>152.0</ele><time>2026-04-26T09:11:11.644Z</time></trkpt><trkpt lat="43.5480617" lon="11.59206"><ele>152.0</ele><time>2026-04-26T09:11:12.646Z</time></trkpt><trkpt lat="43.5481017" lon="11.5921533"><ele>152.0</ele><time>2026-04-26T09:11:13.644Z</time></trkpt><trkpt lat="43.548145" lon="11.592255"><ele>152.0</ele><time>2026-04-26T09:11:14.646Z</time></trkpt><trkpt lat="43.5481867" lon="11.592345"><ele>152.0</ele><time>2026-04-26T09:11:15.647Z</time></trkpt><trkpt lat="43.548235" lon="11.592425"><ele>152.0</ele><time>2026-04-26T09:11:16.644Z</time></trkpt><trkpt lat="43.548285" lon="11.5925017"><ele>152.0</ele><time>2026-04-26T09:11:17.644Z</time></trkpt><trkpt lat="43.5483433" lon="11.5925783"><ele>152.0</ele><time>2026-04-26T09:11:18.644Z</time></trkpt><trkpt lat="43.5483983" lon="11.592655"><ele>152.0</ele><time>2026-04-26T09:11:19.643Z</time></trkpt><trkpt lat="43.5484567" lon="11.5927267"><ele>152.0</ele><time>2026-04-26T09:11:20.643Z</time></trkpt><trkpt lat="43.5485183" lon="11.59279"><ele>152.0</ele><time>2026-04-26T09:11:21.645Z</time></trkpt><trkpt lat="43.5485783" lon="11.5928533"><ele>152.0</ele><time>2026-04-26T09:11:22.646Z</time></trkpt><trkpt lat="43.54864" lon="11.5929167"><ele>152.0</ele><time>2026-04-26T09:11:23.642Z</time></trkpt><trkpt lat="43.5487017" lon="11.5929767"><ele>153.28571428571428</ele><time>2026-04-26T09:11:24.645Z</time></trkpt><trkpt lat="43.5487633" lon="11.5930367"><ele>154.57142857142858</ele><time>2026-04-26T09:11:25.644Z</time></trkpt><trkpt lat="43.5488233" lon="11.5930917"><ele>155.85714285714286</ele><time>2026-04-26T09:11:26.646Z</time></trkpt><trkpt lat="43.54888" lon="11.593145"><ele>157.14285714285714</ele><time>2026-04-26T09:11:27.644Z</time></trkpt><trkpt lat="43.5489383" lon="11.5932017"><ele>158.42857142857144</ele><time>2026-04-26T09:11:28.644Z</time></trkpt><trkpt lat="43.5489967" lon="11.593255"><ele>159.71428571428572</ele><time>2026-04-26T09:11:29.644Z</time></trkpt><trkpt lat="43.5490567" lon="11.593305"><ele>161.0</ele><time>2026-04-26T09:11:30.644Z</time></trkpt><trkpt lat="43.549115" lon="11.59336"><ele>161.0</ele><time>2026-04-26T09:11:31.645Z</time></trkpt><trkpt lat="43.5491717" lon="11.5934133"><ele>161.0</ele><time>2026-04-26T09:11:32.646Z</time></trkpt><trkpt lat="43.54923" lon="11.5934683"><ele>161.0</ele><time>2026-04-26T09:11:33.644Z</time></trkpt><trkpt lat="43.549285" lon="11.593525"><ele>161.0</ele><time>2026-04-26T09:11:34.644Z</time></trkpt><trkpt lat="43.5493433" lon="11.5935783"><ele>161.0</ele><time>2026-04-26T09:11:35.644Z</time></trkpt><trkpt lat="43.549405" lon="11.5936383"><ele>161.0</ele><time>2026-04-26T09:11:36.644Z</time></trkpt><trkpt lat="43.5494617" lon="11.5936983"><ele>161.0</ele><time>2026-04-26T09:11:37.645Z</time></trkpt><trkpt lat="43.549515" lon="11.5937517"><ele>162.0</ele><time>2026-04-26T09:11:38.646Z</time></trkpt><trkpt lat="43.5495683" lon="11.5938117"><ele>163.0</ele><time>2026-04-26T09:11:39.645Z</time></trkpt><trkpt lat="43.5496283" lon="11.593875"><ele>164.0</ele><time>2026-04-26T09:11:40.646Z</time></trkpt><trkpt lat="43.54969" lon="11.5939367"><ele>165.0</ele><time>2026-04-26T09:11:41.645Z</time></trkpt><trkpt lat="43.5497533" lon="11.5939983"><ele>166.0</ele><time>2026-04-26T09:11:42.646Z</time></trkpt><trkpt lat="43.5498183" lon="11.5940683"><ele>167.0</ele><time>2026-04-26T09:11:43.645Z</time></trkpt><trkpt lat="43.5498917" lon="11.59413"><ele>167.0</ele><time>2026-04-26T09:11:44.646Z</time></trkpt><trkpt lat="43.5499633" lon="11.5941983"><ele>167.0</ele><time>2026-04-26T09:11:45.646Z</time></trkpt><trkpt lat="43.5500333" lon="11.5942667"><ele>167.0</ele><time>2026-04-26T09:11:46.644Z</time></trkpt><trkpt lat="43.5501033" lon="11.59433"><ele>167.0</ele><time>2026-04-26T09:11:47.643Z</time></trkpt><trkpt lat="43.5501767" lon="11.5943917"><ele>167.0</ele><time>2026-04-26T09:11:48.647Z</time></trkpt><trkpt lat="43.550245" lon="11.5944567"><ele>167.0</ele><time>2026-04-26T09:11:49.645Z</time></trkpt><trkpt lat="43.55031" lon="11.594525"><ele>166.33333333333331</ele><time>2026-04-26T09:11:50.647Z</time></trkpt><trkpt lat="43.5503733" lon="11.5945917"><ele>165.66666666666666</ele><time>2026-04-26T09:11:51.645Z</time></trkpt><trkpt lat="43.5504467" lon="11.5946617"><ele>165.0</ele><time>2026-04-26T09:11:52.644Z</time></trkpt><trkpt lat="43.5505117" lon="11.5947333"><ele>164.33333333333334</ele><time>2026-04-26T09:11:53.645Z</time></trkpt><trkpt lat="43.5505767" lon="11.5948"><ele>163.66666666666669</ele><time>2026-04-26T09:11:54.645Z</time></trkpt><trkpt lat="43.55065" lon="11.5948667"><ele>163.0</ele><time>2026-04-26T09:11:55.644Z</time></trkpt><trkpt lat="43.5507217" lon="11.5949333"><ele>163.0</ele><time>2026-04-26T09:11:56.646Z</time></trkpt><trkpt lat="43.5507917" lon="11.5949967"><ele>163.0</ele><time>2026-04-26T09:11:57.645Z</time></trkpt><trkpt lat="43.5508617" lon="11.5950617"><ele>163.0</ele><time>2026-04-26T09:11:58.645Z</time></trkpt><trkpt lat="43.550935" lon="11.595125"><ele>163.0</ele><time>2026-04-26T09:11:59.645Z</time></trkpt><trkpt lat="43.551005" lon="11.59519"><ele>163.0</ele><time>2026-04-26T09:12:00.647Z</time></trkpt><trkpt lat="43.551075" lon="11.5952517"><ele>163.0</ele><time>2026-04-26T09:12:01.645Z</time></trkpt><trkpt lat="43.551145" lon="11.5953133"><ele>163.0</ele><time>2026-04-26T09:12:02.646Z</time></trkpt><trkpt lat="43.5512183" lon="11.5953717"><ele>163.0</ele><time>2026-04-26T09:12:03.645Z</time></trkpt><trkpt lat="43.5512883" lon="11.59543"><ele>163.0</ele><time>2026-04-26T09:12:04.646Z</time></trkpt><trkpt lat="43.5513633" lon="11.5954867"><ele>163.0</ele><time>2026-04-26T09:12:05.646Z</time></trkpt><trkpt lat="43.551435" lon="11.5955483"><ele>163.0</ele><time>2026-04-26T09:12:06.645Z</time></trkpt><trkpt lat="43.55151" lon="11.59561"><ele>163.0</ele><time>2026-04-26T09:12:07.645Z</time></trkpt><trkpt lat="43.5515867" lon="11.5956633"><ele>163.0</ele><time>2026-04-26T09:12:08.645Z</time></trkpt><trkpt lat="43.551665" lon="11.595715"><ele>163.0</ele><time>2026-04-26T09:12:09.644Z</time></trkpt><trkpt lat="43.5517433" lon="11.5957667"><ele>163.0</ele><time>2026-04-26T09:12:10.644Z</time></trkpt><trkpt lat="43.551825" lon="11.5958217"><ele>163.0</ele><time>2026-04-26T09:12:11.645Z</time></trkpt><trkpt lat="43.5519083" lon="11.5958767"><ele>163.0</ele><time>2026-04-26T09:12:12.645Z</time></trkpt><trkpt lat="43.5519967" lon="11.5959333"><ele>162.8</ele><time>2026-04-26T09:12:13.646Z</time></trkpt><trkpt lat="43.55209" lon="11.595985"><ele>162.60000000000002</ele><time>2026-04-26T09:12:14.645Z</time></trkpt><trkpt lat="43.552185" lon="11.5960317"><ele>162.39999999999998</ele><time>2026-04-26T09:12:15.645Z</time></trkpt><trkpt lat="43.552285" lon="11.5960783"><ele>162.2</ele><time>2026-04-26T09:12:16.646Z</time></trkpt><trkpt lat="43.5523883" lon="11.5961283"><ele>162.0</ele><time>2026-04-26T09:12:17.643Z</time></trkpt><trkpt lat="43.5524917" lon="11.59618"><ele>162.0</ele><time>2026-04-26T09:12:18.645Z</time></trkpt><trkpt lat="43.5525983" lon="11.5962317"><ele>162.0</ele><time>2026-04-26T09:12:19.644Z</time></trkpt><trkpt lat="43.5527083" lon="11.5962883"><ele>162.0</ele><time>2026-04-26T09:12:20.645Z</time></trkpt><trkpt lat="43.5528183" lon="11.5963417"><ele>162.0</ele><time>2026-04-26T09:12:21.643Z</time></trkpt><trkpt lat="43.5529283" lon="11.5963933"><ele>159.75</ele><time>2026-04-26T09:12:22.643Z</time></trkpt><trkpt lat="43.5530433" lon="11.5964433"><ele>157.5</ele><time>2026-04-26T09:12:23.645Z</time></trkpt><trkpt lat="43.5531583" lon="11.5964917"><ele>155.25</ele><time>2026-04-26T09:12:24.646Z</time></trkpt><trkpt lat="43.5532717" lon="11.5965383"><ele>153.0</ele><time>2026-04-26T09:12:25.645Z</time></trkpt><trkpt lat="43.5533817" lon="11.5965883"><ele>153.0</ele><time>2026-04-26T09:12:26.648Z</time></trkpt><trkpt lat="43.5534883" lon="11.5966383"><ele>153.0</ele><time>2026-04-26T09:12:27.646Z</time></trkpt><trkpt lat="43.5535933" lon="11.5966867"><ele>153.0</ele><time>2026-04-26T09:12:28.644Z</time></trkpt><trkpt lat="43.5536933" lon="11.5967317"><ele>153.0</ele><time>2026-04-26T09:12:29.645Z</time></trkpt><trkpt lat="43.55379" lon="11.5967733"><ele>153.0</ele><time>2026-04-26T09:12:30.647Z</time></trkpt><trkpt lat="43.5538833" lon="11.5968133"><ele>153.0</ele><time>2026-04-26T09:12:31.644Z</time></trkpt><trkpt lat="43.5539767" lon="11.5968567"><ele>153.0</ele><time>2026-04-26T09:12:32.645Z</time></trkpt><trkpt lat="43.5540717" lon="11.5969"><ele>153.0</ele><time>2026-04-26T09:12:33.645Z</time></trkpt><trkpt lat="43.5541633" lon="11.5969417"><ele>153.0</ele><time>2026-04-26T09:12:34.644Z</time></trkpt><trkpt lat="43.554255" lon="11.5969783"><ele>153.0</ele><time>2026-04-26T09:12:35.645Z</time></trkpt><trkpt lat="43.554345" lon="11.5970183"><ele>152.8</ele><time>2026-04-26T09:12:36.646Z</time></trkpt><trkpt lat="43.554435" lon="11.5970533"><ele>152.60000000000002</ele><time>2026-04-26T09:12:37.646Z</time></trkpt><trkpt lat="43.554525" lon="11.5970883"><ele>152.39999999999998</ele><time>2026-04-26T09:12:38.645Z</time></trkpt><trkpt lat="43.554615" lon="11.597125"><ele>152.2</ele><time>2026-04-26T09:12:39.644Z</time></trkpt><trkpt lat="43.5547033" lon="11.5971617"><ele>152.0</ele><time>2026-04-26T09:12:40.645Z</time></trkpt><trkpt lat="43.554785" lon="11.5972017"><ele>152.33333333333331</ele><time>2026-04-26T09:12:41.645Z</time></trkpt><trkpt lat="43.55486" lon="11.5972567"><ele>152.66666666666666</ele><time>2026-04-26T09:12:42.647Z</time></trkpt><trkpt lat="43.5549233" lon="11.5973317"><ele>153.0</ele><time>2026-04-26T09:12:43.645Z</time></trkpt><trkpt lat="43.5549767" lon="11.5974183"><ele>153.33333333333334</ele><time>2026-04-26T09:12:44.645Z</time></trkpt><trkpt lat="43.555025" lon="11.59751"><ele>153.66666666666669</ele><time>2026-04-26T09:12:45.644Z</time></trkpt><trkpt lat="43.5550733" lon="11.5976017"><ele>154.0</ele><time>2026-04-26T09:12:46.645Z</time></trkpt><trkpt lat="43.5551317" lon="11.5976833"><ele>154.0</ele><time>2026-04-26T09:12:47.644Z</time></trkpt><trkpt lat="43.5552" lon="11.5977483"><ele>154.0</ele><time>2026-04-26T09:12:48.645Z</time></trkpt><trkpt lat="43.5552783" lon="11.597795"><ele>154.0</ele><time>2026-04-26T09:12:49.644Z</time></trkpt><trkpt lat="43.55536" lon="11.5978167"><ele>154.0</ele><time>2026-04-26T09:12:50.646Z</time></trkpt><trkpt lat="43.5554467" lon="11.59781"><ele>154.0</ele><time>2026-04-26T09:12:51.646Z</time></trkpt><trkpt lat="43.55553" lon="11.5977783"><ele>154.0</ele><time>2026-04-26T09:12:52.646Z</time></trkpt><trkpt lat="43.5556133" lon="11.5977383"><ele>154.33333333333334</ele><time>2026-04-26T09:12:53.645Z</time></trkpt><trkpt lat="43.5556967" lon="11.5976933"><ele>154.66666666666669</ele><time>2026-04-26T09:12:54.645Z</time></trkpt><trkpt lat="43.5557817" lon="11.597665"><ele>155.0</ele><time>2026-04-26T09:12:55.643Z</time></trkpt><trkpt lat="43.5558683" lon="11.59766"><ele>155.33333333333334</ele><time>2026-04-26T09:12:56.647Z</time></trkpt><trkpt lat="43.555955" lon="11.5976717"><ele>155.66666666666666</ele><time>2026-04-26T09:12:57.644Z</time></trkpt><trkpt lat="43.5560417" lon="11.59769"><ele>156.0</ele><time>2026-04-26T09:12:58.646Z</time></trkpt><trkpt lat="43.55613" lon="11.5977117"><ele>156.0</ele><time>2026-04-26T09:12:59.644Z</time></trkpt><trkpt lat="43.5562167" lon="11.5977267"><ele>156.0</ele><time>2026-04-26T09:13:00.646Z</time></trkpt><trkpt lat="43.5563033" lon="11.5977367"><ele>156.0</ele><time>2026-04-26T09:13:01.644Z</time></trkpt><trkpt lat="43.55639" lon="11.5977433"><ele>156.0</ele><time>2026-04-26T09:13:02.646Z</time></trkpt><trkpt lat="43.556475" lon="11.59775"><ele>156.0</ele><time>2026-04-26T09:13:03.645Z</time></trkpt><trkpt lat="43.5565567" lon="11.5977583"><ele>156.0</ele><time>2026-04-26T09:13:04.645Z</time></trkpt><trkpt lat="43.55664" lon="11.597765"><ele>156.0</ele><time>2026-04-26T09:13:05.645Z</time></trkpt><trkpt lat="43.5567233" lon="11.59777"><ele>156.0</ele><time>2026-04-26T09:13:06.644Z</time></trkpt><trkpt lat="43.556805" lon="11.5977683"><ele>156.0</ele><time>2026-04-26T09:13:07.645Z</time></trkpt><trkpt lat="43.5568883" lon="11.59777"><ele>156.0</ele><time>2026-04-26T09:13:08.645Z</time></trkpt><trkpt lat="43.556975" lon="11.5977717"><ele>156.0</ele><time>2026-04-26T09:13:09.646Z</time></trkpt><trkpt lat="43.557065" lon="11.5977717"><ele>156.0</ele><time>2026-04-26T09:13:10.645Z</time></trkpt><trkpt lat="43.5571467" lon="11.59778"><ele>156.16666666666666</ele><time>2026-04-26T09:13:11.646Z</time></trkpt><trkpt lat="43.557235" lon="11.5977833"><ele>156.33333333333334</ele><time>2026-04-26T09:13:12.644Z</time></trkpt><trkpt lat="43.5573183" lon="11.59779"><ele>156.5</ele><time>2026-04-26T09:13:13.645Z</time></trkpt><trkpt lat="43.5574033" lon="11.5977933"><ele>156.66666666666669</ele><time>2026-04-26T09:13:14.645Z</time></trkpt><trkpt lat="43.55749" lon="11.5977933"><ele>156.83333333333334</ele><time>2026-04-26T09:13:15.644Z</time></trkpt><trkpt lat="43.55757" lon="11.597805"><ele>157.0</ele><time>2026-04-26T09:13:16.645Z</time></trkpt><trkpt lat="43.55765" lon="11.5978283"><ele>157.0</ele><time>2026-04-26T09:13:17.644Z</time></trkpt><trkpt lat="43.5577283" lon="11.5978617"><ele>157.0</ele><time>2026-04-26T09:13:18.645Z</time></trkpt><trkpt lat="43.5578017" lon="11.59791"><ele>157.0</ele><time>2026-04-26T09:13:19.646Z</time></trkpt><trkpt lat="43.557875" lon="11.59796"><ele>157.0</ele><time>2026-04-26T09:13:20.646Z</time></trkpt><trkpt lat="43.5579433" lon="11.5980217"><ele>157.0</ele><time>2026-04-26T09:13:21.645Z</time></trkpt><trkpt lat="43.558015" lon="11.5980883"><ele>157.0</ele><time>2026-04-26T09:13:22.647Z</time></trkpt><trkpt lat="43.5580883" lon="11.5981467"><ele>157.16666666666669</ele><time>2026-04-26T09:13:23.645Z</time></trkpt><trkpt lat="43.55816" lon="11.598205"><ele>157.33333333333334</ele><time>2026-04-26T09:13:24.646Z</time></trkpt><trkpt lat="43.5582333" lon="11.5982633"><ele>157.5</ele><time>2026-04-26T09:13:25.645Z</time></trkpt><trkpt lat="43.5583067" lon="11.59832"><ele>157.66666666666666</ele><time>2026-04-26T09:13:26.646Z</time></trkpt><trkpt lat="43.5583817" lon="11.598375"><ele>157.83333333333331</ele><time>2026-04-26T09:13:27.646Z</time></trkpt><trkpt lat="43.55845" lon="11.5984383"><ele>158.0</ele><time>2026-04-26T09:13:28.645Z</time></trkpt><trkpt lat="43.5585167" lon="11.598505"><ele>158.0</ele><time>2026-04-26T09:13:29.644Z</time></trkpt><trkpt lat="43.5585867" lon="11.59857"><ele>158.0</ele><time>2026-04-26T09:13:30.644Z</time></trkpt><trkpt lat="43.558655" lon="11.5986267"><ele>158.0</ele><time>2026-04-26T09:13:31.643Z</time></trkpt><trkpt lat="43.5587183" lon="11.598685"><ele>158.0</ele><time>2026-04-26T09:13:32.647Z</time></trkpt><trkpt lat="43.5587833" lon="11.59874"><ele>158.0</ele><time>2026-04-26T09:13:33.644Z</time></trkpt><trkpt lat="43.5588483" lon="11.5987967"><ele>158.0</ele><time>2026-04-26T09:13:34.647Z</time></trkpt><trkpt lat="43.5589083" lon="11.5988567"><ele>158.42857142857144</ele><time>2026-04-26T09:13:35.643Z</time></trkpt><trkpt lat="43.55897" lon="11.598915"><ele>158.85714285714286</ele><time>2026-04-26T09:13:36.645Z</time></trkpt><trkpt lat="43.5590383" lon="11.59897"><ele>159.28571428571428</ele><time>2026-04-26T09:13:37.645Z</time></trkpt><trkpt lat="43.5591067" lon="11.599025"><ele>159.71428571428572</ele><time>2026-04-26T09:13:38.646Z</time></trkpt><trkpt lat="43.5591683" lon="11.5990817"><ele>160.14285714285714</ele><time>2026-04-26T09:13:39.644Z</time></trkpt><trkpt lat="43.55923" lon="11.5991317"><ele>160.57142857142858</ele><time>2026-04-26T09:13:40.644Z</time></trkpt><trkpt lat="43.55929" lon="11.5991833"><ele>161.0</ele><time>2026-04-26T09:13:41.645Z</time></trkpt><trkpt lat="43.5593483" lon="11.5992317"><ele>161.0</ele><time>2026-04-26T09:13:42.644Z</time></trkpt><trkpt lat="43.5594033" lon="11.5992867"><ele>161.0</ele><time>2026-04-26T09:13:43.645Z</time></trkpt><trkpt lat="43.5594583" lon="11.5993417"><ele>161.0</ele><time>2026-04-26T09:13:44.646Z</time></trkpt><trkpt lat="43.5595117" lon="11.5993917"><ele>161.0</ele><time>2026-04-26T09:13:45.643Z</time></trkpt><trkpt lat="43.5595617" lon="11.5994467"><ele>161.0</ele><time>2026-04-26T09:13:46.645Z</time></trkpt><trkpt lat="43.5596167" lon="11.5994983"><ele>161.0</ele><time>2026-04-26T09:13:47.646Z</time></trkpt><trkpt lat="43.559675" lon="11.5995467"><ele>161.0</ele><time>2026-04-26T09:13:48.647Z</time></trkpt><trkpt lat="43.5597367" lon="11.5995883"><ele>162.20000000000002</ele><time>2026-04-26T09:13:49.646Z</time></trkpt><trkpt lat="43.5597917" lon="11.5996333"><ele>163.4</ele><time>2026-04-26T09:13:50.646Z</time></trkpt><trkpt lat="43.55985" lon="11.59968"><ele>164.6</ele><time>2026-04-26T09:13:51.644Z</time></trkpt><trkpt lat="43.5599617" lon="11.5997667"><ele>165.8</ele><time>2026-04-26T09:13:53.644Z</time></trkpt><trkpt lat="43.5600717" lon="11.5998533"><ele>167.0</ele><time>2026-04-26T09:13:55.644Z</time></trkpt><trkpt lat="43.56013" lon="11.5999033"><ele>167.0</ele><time>2026-04-26T09:13:56.645Z</time></trkpt><trkpt lat="43.5601867" lon="11.5999517"><ele>167.0</ele><time>2026-04-26T09:13:57.645Z</time></trkpt><trkpt lat="43.560245" lon="11.6000017"><ele>167.0</ele><time>2026-04-26T09:13:58.643Z</time></trkpt><trkpt lat="43.5602967" lon="11.6000583"><ele>167.0</ele><time>2026-04-26T09:13:59.645Z</time></trkpt><trkpt lat="43.5603483" lon="11.6001117"><ele>167.0</ele><time>2026-04-26T09:14:00.645Z</time></trkpt><trkpt lat="43.5604033" lon="11.6001567"><ele>167.0</ele><time>2026-04-26T09:14:01.643Z</time></trkpt><trkpt lat="43.56046" lon="11.6002"><ele>167.0</ele><time>2026-04-26T09:14:02.645Z</time></trkpt><trkpt lat="43.5605167" lon="11.6002467"><ele>167.42857142857142</ele><time>2026-04-26T09:14:03.644Z</time></trkpt><trkpt lat="43.5605717" lon="11.6002967"><ele>167.85714285714286</ele><time>2026-04-26T09:14:04.645Z</time></trkpt><trkpt lat="43.5606267" lon="11.6003467"><ele>168.28571428571428</ele><time>2026-04-26T09:14:05.645Z</time></trkpt><trkpt lat="43.560685" lon="11.6003917"><ele>168.71428571428572</ele><time>2026-04-26T09:14:06.645Z</time></trkpt><trkpt lat="43.5607417" lon="11.600435"><ele>169.14285714285714</ele><time>2026-04-26T09:14:07.645Z</time></trkpt><trkpt lat="43.5607983" lon="11.6004767"><ele>169.57142857142858</ele><time>2026-04-26T09:14:08.645Z</time></trkpt><trkpt lat="43.5608567" lon="11.6005133"><ele>170.0</ele><time>2026-04-26T09:14:09.646Z</time></trkpt><trkpt lat="43.5609133" lon="11.6005517"><ele>170.0</ele><time>2026-04-26T09:14:10.647Z</time></trkpt><trkpt lat="43.5610233" lon="11.6006333"><ele>170.0</ele><time>2026-04-26T09:14:12.648Z</time></trkpt><trkpt lat="43.5610783" lon="11.6006783"><ele>170.0</ele><time>2026-04-26T09:14:13.646Z</time></trkpt><trkpt lat="43.561135" lon="11.6007233"><ele>170.0</ele><time>2026-04-26T09:14:14.645Z</time></trkpt><trkpt lat="43.5611933" lon="11.6007733"><ele>170.0</ele><time>2026-04-26T09:14:15.644Z</time></trkpt><trkpt lat="43.5612483" lon="11.6008167"><ele>170.0</ele><time>2026-04-26T09:14:16.644Z</time></trkpt><trkpt lat="43.5613583" lon="11.6008983"><ele>170.71428571428572</ele><time>2026-04-26T09:14:18.647Z</time></trkpt><trkpt lat="43.5614133" lon="11.6009433"><ele>171.42857142857142</ele><time>2026-04-26T09:14:19.647Z</time></trkpt><trkpt lat="43.56147" lon="11.60099"><ele>172.14285714285714</ele><time>2026-04-26T09:14:20.645Z</time></trkpt><trkpt lat="43.5615267" lon="11.6010383"><ele>172.85714285714286</ele><time>2026-04-26T09:14:21.646Z</time></trkpt><trkpt lat="43.561585" lon="11.6010883"><ele>173.57142857142856</ele><time>2026-04-26T09:14:22.645Z</time></trkpt><trkpt lat="43.5616433" lon="11.6011367"><ele>174.28571428571428</ele><time>2026-04-26T09:14:23.645Z</time></trkpt><trkpt lat="43.5617" lon="11.6011883"><ele>175.0</ele><time>2026-04-26T09:14:24.648Z</time></trkpt><trkpt lat="43.561755" lon="11.6012383"><ele>175.0</ele><time>2026-04-26T09:14:25.648Z</time></trkpt><trkpt lat="43.5618117" lon="11.6012883"><ele>175.0</ele><time>2026-04-26T09:14:26.646Z</time></trkpt><trkpt lat="43.5618683" lon="11.6013367"><ele>175.0</ele><time>2026-04-26T09:14:27.645Z</time></trkpt><trkpt lat="43.5619267" lon="11.6013883"><ele>175.0</ele><time>2026-04-26T09:14:28.647Z</time></trkpt><trkpt lat="43.561985" lon="11.601435"><ele>175.0</ele><time>2026-04-26T09:14:29.644Z</time></trkpt><trkpt lat="43.5620417" lon="11.601485"><ele>175.0</ele><time>2026-04-26T09:14:30.647Z</time></trkpt><trkpt lat="43.5620983" lon="11.6015417"><ele>175.0</ele><time>2026-04-26T09:14:31.645Z</time></trkpt><trkpt lat="43.5621567" lon="11.6016"><ele>175.71428571428572</ele><time>2026-04-26T09:14:32.646Z</time></trkpt><trkpt lat="43.5622167" lon="11.6016517"><ele>176.42857142857144</ele><time>2026-04-26T09:14:33.645Z</time></trkpt><trkpt lat="43.562275" lon="11.6017033"><ele>177.14285714285714</ele><time>2026-04-26T09:14:34.645Z</time></trkpt><trkpt lat="43.5623367" lon="11.6017567"><ele>177.85714285714286</ele><time>2026-04-26T09:14:35.645Z</time></trkpt><trkpt lat="43.5623967" lon="11.60181"><ele>178.57142857142858</ele><time>2026-04-26T09:14:36.648Z</time></trkpt><trkpt lat="43.56246" lon="11.60186"><ele>179.28571428571428</ele><time>2026-04-26T09:14:37.646Z</time></trkpt><trkpt lat="43.5625233" lon="11.6019117"><ele>180.0</ele><time>2026-04-26T09:14:38.645Z</time></trkpt><trkpt lat="43.5625883" lon="11.601965"><ele>179.7142857142857</ele><time>2026-04-26T09:14:39.645Z</time></trkpt><trkpt lat="43.56265" lon="11.60202"><ele>179.42857142857144</ele><time>2026-04-26T09:14:40.646Z</time></trkpt><trkpt lat="43.5627133" lon="11.6020767"><ele>179.14285714285714</ele><time>2026-04-26T09:14:41.645Z</time></trkpt><trkpt lat="43.5627783" lon="11.60213"><ele>178.85714285714283</ele><time>2026-04-26T09:14:42.646Z</time></trkpt><trkpt lat="43.5628417" lon="11.6021867"><ele>178.57142857142856</ele><time>2026-04-26T09:14:43.645Z</time></trkpt><trkpt lat="43.562905" lon="11.6022367"><ele>178.28571428571428</ele><time>2026-04-26T09:14:44.645Z</time></trkpt><trkpt lat="43.5629683" lon="11.60229"><ele>178.0</ele><time>2026-04-26T09:14:45.645Z</time></trkpt><trkpt lat="43.5630317" lon="11.6023483"><ele>178.0</ele><time>2026-04-26T09:14:46.645Z</time></trkpt><trkpt lat="43.5630983" lon="11.6024033"><ele>178.0</ele><time>2026-04-26T09:14:47.645Z</time></trkpt><trkpt lat="43.563165" lon="11.6024617"><ele>178.0</ele><time>2026-04-26T09:14:48.646Z</time></trkpt><trkpt lat="43.5632317" lon="11.6025183"><ele>178.0</ele><time>2026-04-26T09:14:49.644Z</time></trkpt><trkpt lat="43.563305" lon="11.60258"><ele>178.0</ele><time>2026-04-26T09:14:50.645Z</time></trkpt><trkpt lat="43.5633733" lon="11.6026383"><ele>178.0</ele><time>2026-04-26T09:14:51.646Z</time></trkpt><trkpt lat="43.5634417" lon="11.6027"><ele>178.0</ele><time>2026-04-26T09:14:52.647Z</time></trkpt><trkpt lat="43.5635117" lon="11.6027567"><ele>178.0</ele><time>2026-04-26T09:14:53.646Z</time></trkpt><trkpt lat="43.5635767" lon="11.60281"><ele>178.0</ele><time>2026-04-26T09:14:54.645Z</time></trkpt><trkpt lat="43.5636417" lon="11.6028633"><ele>178.0</ele><time>2026-04-26T09:14:55.644Z</time></trkpt><trkpt lat="43.5637083" lon="11.602915"><ele>178.0</ele><time>2026-04-26T09:14:56.648Z</time></trkpt><trkpt lat="43.563775" lon="11.6029683"><ele>178.0</ele><time>2026-04-26T09:14:57.647Z</time></trkpt><trkpt lat="43.56384" lon="11.6030283"><ele>178.0</ele><time>2026-04-26T09:14:58.645Z</time></trkpt><trkpt lat="43.563905" lon="11.6030883"><ele>178.0</ele><time>2026-04-26T09:14:59.644Z</time></trkpt><trkpt lat="43.5639683" lon="11.6031483"><ele>178.0</ele><time>2026-04-26T09:15:00.646Z</time></trkpt><trkpt lat="43.5640317" lon="11.6032033"><ele>178.0</ele><time>2026-04-26T09:15:01.644Z</time></trkpt><trkpt lat="43.564095" lon="11.6032567"><ele>178.0</ele><time>2026-04-26T09:15:02.645Z</time></trkpt><trkpt lat="43.56416" lon="11.603315"><ele>178.0</ele><time>2026-04-26T09:15:03.648Z</time></trkpt><trkpt lat="43.5642217" lon="11.6033733"><ele>178.0</ele><time>2026-04-26T09:15:04.644Z</time></trkpt><trkpt lat="43.5642867" lon="11.6034367"><ele>178.0</ele><time>2026-04-26T09:15:05.645Z</time></trkpt><trkpt lat="43.56435" lon="11.6034983"><ele>178.0</ele><time>2026-04-26T09:15:06.646Z</time></trkpt><trkpt lat="43.56441" lon="11.603565"><ele>178.0</ele><time>2026-04-26T09:15:07.645Z</time></trkpt><trkpt lat="43.564465" lon="11.6036417"><ele>178.0</ele><time>2026-04-26T09:15:08.645Z</time></trkpt><trkpt lat="43.5645167" lon="11.60372"><ele>178.0</ele><time>2026-04-26T09:15:09.646Z</time></trkpt><trkpt lat="43.5645583" lon="11.6038033"><ele>178.85714285714283</ele><time>2026-04-26T09:15:10.645Z</time></trkpt><trkpt lat="43.5646017" lon="11.6038817"><ele>179.71428571428572</ele><time>2026-04-26T09:15:11.644Z</time></trkpt><trkpt lat="43.56464" lon="11.60396"><ele>180.57142857142856</ele><time>2026-04-26T09:15:12.646Z</time></trkpt><trkpt lat="43.5646767" lon="11.6040383"><ele>181.42857142857142</ele><time>2026-04-26T09:15:13.646Z</time></trkpt><trkpt lat="43.5647133" lon="11.6041183"><ele>182.28571428571428</ele><time>2026-04-26T09:15:14.645Z</time></trkpt><trkpt lat="43.56475" lon="11.6042"><ele>183.14285714285714</ele><time>2026-04-26T09:15:15.646Z</time></trkpt><trkpt lat="43.564785" lon="11.6042817"><ele>184.0</ele><time>2026-04-26T09:15:16.646Z</time></trkpt><trkpt lat="43.5648217" lon="11.604365"><ele>184.0</ele><time>2026-04-26T09:15:17.644Z</time></trkpt><trkpt lat="43.564855" lon="11.6044467"><ele>184.0</ele><time>2026-04-26T09:15:18.645Z</time></trkpt><trkpt lat="43.56489" lon="11.6045233"><ele>184.0</ele><time>2026-04-26T09:15:19.643Z</time></trkpt><trkpt lat="43.5649217" lon="11.604605"><ele>184.0</ele><time>2026-04-26T09:15:20.644Z</time></trkpt><trkpt lat="43.5649583" lon="11.604685"><ele>184.0</ele><time>2026-04-26T09:15:21.643Z</time></trkpt><trkpt lat="43.5649967" lon="11.60476"><ele>184.0</ele><time>2026-04-26T09:15:22.643Z</time></trkpt><trkpt lat="43.5650333" lon="11.60484"><ele>184.0</ele><time>2026-04-26T09:15:23.643Z</time></trkpt><trkpt lat="43.5650683" lon="11.6049217"><ele>183.85714285714286</ele><time>2026-04-26T09:15:24.642Z</time></trkpt><trkpt lat="43.5651017" lon="11.605005"><ele>183.7142857142857</ele><time>2026-04-26T09:15:25.642Z</time></trkpt><trkpt lat="43.5651317" lon="11.6050933"><ele>183.57142857142856</ele><time>2026-04-26T09:15:26.643Z</time></trkpt><trkpt lat="43.56517" lon="11.6051783"><ele>183.42857142857144</ele><time>2026-04-26T09:15:27.645Z</time></trkpt><trkpt lat="43.5652083" lon="11.6052667"><ele>183.28571428571428</ele><time>2026-04-26T09:15:28.645Z</time></trkpt><trkpt lat="43.5652433" lon="11.605355"><ele>183.14285714285714</ele><time>2026-04-26T09:15:29.645Z</time></trkpt><trkpt lat="43.5652817" lon="11.6054417"><ele>183.0</ele><time>2026-04-26T09:15:30.646Z</time></trkpt><trkpt lat="43.56532" lon="11.6055317"><ele>182.85714285714286</ele><time>2026-04-26T09:15:31.646Z</time></trkpt><trkpt lat="43.5653533" lon="11.6056217"><ele>182.71428571428572</ele><time>2026-04-26T09:15:32.647Z</time></trkpt><trkpt lat="43.565385" lon="11.6057067"><ele>182.57142857142856</ele><time>2026-04-26T09:15:33.644Z</time></trkpt><trkpt lat="43.5654217" lon="11.6057917"><ele>182.42857142857144</ele><time>2026-04-26T09:15:34.645Z</time></trkpt><trkpt lat="43.56546" lon="11.60588"><ele>182.28571428571428</ele><time>2026-04-26T09:15:35.647Z</time></trkpt><trkpt lat="43.5654933" lon="11.6059633"><ele>182.14285714285714</ele><time>2026-04-26T09:15:36.647Z</time></trkpt><trkpt lat="43.5655283" lon="11.6060467"><ele>182.0</ele><time>2026-04-26T09:15:37.645Z</time></trkpt><trkpt lat="43.565565" lon="11.6061267"><ele>182.57142857142858</ele><time>2026-04-26T09:15:38.648Z</time></trkpt><trkpt lat="43.5656" lon="11.60621"><ele>183.14285714285714</ele><time>2026-04-26T09:15:39.644Z</time></trkpt><trkpt lat="43.5656317" lon="11.606295"><ele>183.71428571428572</ele><time>2026-04-26T09:15:40.646Z</time></trkpt><trkpt lat="43.565665" lon="11.60638"><ele>184.28571428571428</ele><time>2026-04-26T09:15:41.647Z</time></trkpt><trkpt lat="43.5657017" lon="11.6064683"><ele>184.85714285714286</ele><time>2026-04-26T09:15:42.645Z</time></trkpt><trkpt lat="43.5657383" lon="11.6065533"><ele>185.42857142857144</ele><time>2026-04-26T09:15:43.646Z</time></trkpt><trkpt lat="43.56577" lon="11.606635"><ele>186.0</ele><time>2026-04-26T09:15:44.645Z</time></trkpt><trkpt lat="43.5658017" lon="11.606715"><ele>186.00000000000003</ele><time>2026-04-26T09:15:45.644Z</time></trkpt><trkpt lat="43.5658383" lon="11.6067983"><ele>186.0</ele><time>2026-04-26T09:15:46.645Z</time></trkpt><trkpt lat="43.5658767" lon="11.6068783"><ele>186.0</ele><time>2026-04-26T09:15:47.643Z</time></trkpt><trkpt lat="43.565915" lon="11.6069617"><ele>186.0</ele><time>2026-04-26T09:15:48.647Z</time></trkpt><trkpt lat="43.5659517" lon="11.6070483"><ele>186.0</ele><time>2026-04-26T09:15:49.648Z</time></trkpt><trkpt lat="43.565985" lon="11.6071317"><ele>186.00000000000003</ele><time>2026-04-26T09:15:50.646Z</time></trkpt><trkpt lat="43.5660217" lon="11.6072117"><ele>186.0</ele><time>2026-04-26T09:15:51.646Z</time></trkpt><trkpt lat="43.5660567" lon="11.60729"><ele>186.16666666666666</ele><time>2026-04-26T09:15:52.645Z</time></trkpt><trkpt lat="43.566095" lon="11.60736"><ele>186.33333333333334</ele><time>2026-04-26T09:15:53.645Z</time></trkpt><trkpt lat="43.5661333" lon="11.60743"><ele>186.5</ele><time>2026-04-26T09:15:54.647Z</time></trkpt><trkpt lat="43.5661783" lon="11.6074933"><ele>186.66666666666669</ele><time>2026-04-26T09:15:55.643Z</time></trkpt><trkpt lat="43.5662283" lon="11.6075467"><ele>186.83333333333334</ele><time>2026-04-26T09:15:56.645Z</time></trkpt><trkpt lat="43.5663267" lon="11.60764"><ele>187.0</ele><time>2026-04-26T09:15:58.644Z</time></trkpt><trkpt lat="43.5664267" lon="11.6077183"><ele>188.25</ele><time>2026-04-26T09:16:00.646Z</time></trkpt><trkpt lat="43.5665417" lon="11.6077717"><ele>189.5</ele><time>2026-04-26T09:16:02.646Z</time></trkpt><trkpt lat="43.5666533" lon="11.6078083"><ele>190.75</ele><time>2026-04-26T09:16:04.644Z</time></trkpt><trkpt lat="43.5667683" lon="11.6078283"><ele>192.0</ele><time>2026-04-26T09:16:06.647Z</time></trkpt><trkpt lat="43.5668817" lon="11.607875"><ele>192.2</ele><time>2026-04-26T09:16:08.645Z</time></trkpt><trkpt lat="43.5669767" lon="11.6079517"><ele>192.39999999999998</ele><time>2026-04-26T09:16:10.646Z</time></trkpt><trkpt lat="43.56704" lon="11.6080767"><ele>192.60000000000002</ele><time>2026-04-26T09:16:12.646Z</time></trkpt><trkpt lat="43.5671033" lon="11.608215"><ele>192.8</ele><time>2026-04-26T09:16:14.645Z</time></trkpt><trkpt lat="43.5671833" lon="11.6083083"><ele>193.0</ele><time>2026-04-26T09:16:16.645Z</time></trkpt><trkpt lat="43.56728" lon="11.608355"><ele>194.2</ele><time>2026-04-26T09:16:18.646Z</time></trkpt><trkpt lat="43.567375" lon="11.6083783"><ele>195.4</ele><time>2026-04-26T09:16:20.644Z</time></trkpt><trkpt lat="43.5674567" lon="11.6084233"><ele>196.6</ele><time>2026-04-26T09:16:22.647Z</time></trkpt><trkpt lat="43.5675217" lon="11.60849"><ele>197.79999999999998</ele><time>2026-04-26T09:16:24.646Z</time></trkpt><trkpt lat="43.5675717" lon="11.6086083"><ele>199.0</ele><time>2026-04-26T09:16:26.646Z</time></trkpt><trkpt lat="43.5676233" lon="11.608735"><ele>199.0</ele><time>2026-04-26T09:16:28.644Z</time></trkpt><trkpt lat="43.56768" lon="11.608855"><ele>199.0</ele><time>2026-04-26T09:16:30.645Z</time></trkpt><trkpt lat="43.5677367" lon="11.6089767"><ele>199.0</ele><time>2026-04-26T09:16:32.645Z</time></trkpt><trkpt lat="43.5677967" lon="11.609105"><ele>199.0</ele><time>2026-04-26T09:16:34.645Z</time></trkpt><trkpt lat="43.5678633" lon="11.6092317"><ele>199.0</ele><time>2026-04-26T09:16:36.645Z</time></trkpt><trkpt lat="43.56792" lon="11.60936"><ele>200.6</ele><time>2026-04-26T09:16:38.645Z</time></trkpt><trkpt lat="43.5679733" lon="11.6094933"><ele>202.2</ele><time>2026-04-26T09:16:40.644Z</time></trkpt><trkpt lat="43.56803" lon="11.6096317"><ele>203.79999999999998</ele><time>2026-04-26T09:16:42.647Z</time></trkpt><trkpt lat="43.5680833" lon="11.60976"><ele>205.39999999999998</ele><time>2026-04-26T09:16:44.646Z</time></trkpt><trkpt lat="43.5681317" lon="11.6099017"><ele>207.0</ele><time>2026-04-26T09:16:46.644Z</time></trkpt><trkpt lat="43.5681717" lon="11.610045"><ele>207.0</ele><time>2026-04-26T09:16:48.646Z</time></trkpt><trkpt lat="43.5682133" lon="11.610195"><ele>207.0</ele><time>2026-04-26T09:16:50.644Z</time></trkpt><trkpt lat="43.5682567" lon="11.6103483"><ele>207.0</ele><time>2026-04-26T09:16:52.644Z</time></trkpt><trkpt lat="43.5682967" lon="11.6105"><ele>207.0</ele><time>2026-04-26T09:16:54.646Z</time></trkpt><trkpt lat="43.5683317" lon="11.6106567"><ele>206.39999999999998</ele><time>2026-04-26T09:16:56.646Z</time></trkpt><trkpt lat="43.5683667" lon="11.610805"><ele>205.79999999999998</ele><time>2026-04-26T09:16:58.646Z</time></trkpt><trkpt lat="43.568405" lon="11.6109467"><ele>205.2</ele><time>2026-04-26T09:17:00.645Z</time></trkpt><trkpt lat="43.56845" lon="11.6110867"><ele>204.6</ele><time>2026-04-26T09:17:02.645Z</time></trkpt><trkpt lat="43.56849" lon="11.611225"><ele>204.0</ele><time>2026-04-26T09:17:04.645Z</time></trkpt><trkpt lat="43.5685367" lon="11.611355"><ele>203.79999999999998</ele><time>2026-04-26T09:17:06.644Z</time></trkpt><trkpt lat="43.56858" lon="11.611485"><ele>203.6</ele><time>2026-04-26T09:17:08.646Z</time></trkpt><trkpt lat="43.5686267" lon="11.6116117"><ele>203.4</ele><time>2026-04-26T09:17:10.645Z</time></trkpt><trkpt lat="43.568685" lon="11.6117367"><ele>203.2</ele><time>2026-04-26T09:17:12.647Z</time></trkpt><trkpt lat="43.5687467" lon="11.6118533"><ele>203.0</ele><time>2026-04-26T09:17:14.646Z</time></trkpt><trkpt lat="43.56881" lon="11.6119633"><ele>204.2</ele><time>2026-04-26T09:17:16.644Z</time></trkpt><trkpt lat="43.5688833" lon="11.6120733"><ele>205.4</ele><time>2026-04-26T09:17:18.645Z</time></trkpt><trkpt lat="43.568955" lon="11.612185"><ele>206.6</ele><time>2026-04-26T09:17:20.645Z</time></trkpt><trkpt lat="43.5690267" lon="11.612295"><ele>207.79999999999998</ele><time>2026-04-26T09:17:22.646Z</time></trkpt><trkpt lat="43.5690967" lon="11.6124133"><ele>209.0</ele><time>2026-04-26T09:17:24.646Z</time></trkpt><trkpt lat="43.5691717" lon="11.6125217"><ele>209.0</ele><time>2026-04-26T09:17:26.645Z</time></trkpt><trkpt lat="43.5692433" lon="11.6126383"><ele>209.0</ele><time>2026-04-26T09:17:28.644Z</time></trkpt><trkpt lat="43.5693117" lon="11.6127517"><ele>209.0</ele><time>2026-04-26T09:17:30.647Z</time></trkpt><trkpt lat="43.5693767" lon="11.6128817"><ele>209.0</ele><time>2026-04-26T09:17:32.645Z</time></trkpt><trkpt lat="43.569445" lon="11.6130217"><ele>208.39999999999998</ele><time>2026-04-26T09:17:34.646Z</time></trkpt><trkpt lat="43.5695033" lon="11.6131733"><ele>207.8</ele><time>2026-04-26T09:17:36.646Z</time></trkpt><trkpt lat="43.5695417" lon="11.6133317"><ele>207.2</ele><time>2026-04-26T09:17:38.646Z</time></trkpt><trkpt lat="43.5695367" lon="11.6135017"><ele>206.60000000000002</ele><time>2026-04-26T09:17:40.646Z</time></trkpt><trkpt lat="43.5695183" lon="11.6135883"><ele>206.0</ele><time>2026-04-26T09:17:41.645Z</time></trkpt><trkpt lat="43.5694933" lon="11.6136917"><ele>205.66666666666669</ele><time>2026-04-26T09:17:42.647Z</time></trkpt><trkpt lat="43.5694883" lon="11.6137883"><ele>205.33333333333334</ele><time>2026-04-26T09:17:43.645Z</time></trkpt><trkpt lat="43.5695033" lon="11.613875"><ele>205.0</ele><time>2026-04-26T09:17:44.647Z</time></trkpt><trkpt lat="43.5695317" lon="11.6139533"><ele>204.66666666666669</ele><time>2026-04-26T09:17:45.645Z</time></trkpt><trkpt lat="43.569615" lon="11.6140817"><ele>204.33333333333334</ele><time>2026-04-26T09:17:47.645Z</time></trkpt><trkpt lat="43.5696883" lon="11.614185"><ele>204.0</ele><time>2026-04-26T09:17:49.645Z</time></trkpt><trkpt lat="43.5697417" lon="11.6143083"><ele>205.16666666666666</ele><time>2026-04-26T09:17:51.646Z</time></trkpt><trkpt lat="43.5697733" lon="11.6144233"><ele>206.33333333333331</ele><time>2026-04-26T09:17:53.644Z</time></trkpt><trkpt lat="43.5698083" lon="11.614535"><ele>207.5</ele><time>2026-04-26T09:17:55.645Z</time></trkpt><trkpt lat="43.5698483" lon="11.61464"><ele>208.66666666666666</ele><time>2026-04-26T09:17:57.645Z</time></trkpt><trkpt lat="43.5698783" lon="11.6147367"><ele>209.83333333333331</ele><time>2026-04-26T09:17:59.645Z</time></trkpt><trkpt lat="43.5699183" lon="11.6148333"><ele>211.0</ele><time>2026-04-26T09:18:01.644Z</time></trkpt><trkpt lat="43.5699567" lon="11.6149267"><ele>211.85714285714286</ele><time>2026-04-26T09:18:03.645Z</time></trkpt><trkpt lat="43.569985" lon="11.6150167"><ele>212.71428571428572</ele><time>2026-04-26T09:18:05.644Z</time></trkpt><trkpt lat="43.5700167" lon="11.61511"><ele>213.57142857142856</ele><time>2026-04-26T09:18:07.646Z</time></trkpt><trkpt lat="43.5700483" lon="11.6152033"><ele>214.42857142857144</ele><time>2026-04-26T09:18:09.646Z</time></trkpt><trkpt lat="43.5700833" lon="11.61529"><ele>215.28571428571428</ele><time>2026-04-26T09:18:11.646Z</time></trkpt><trkpt lat="43.570115" lon="11.6153783"><ele>216.14285714285714</ele><time>2026-04-26T09:18:13.645Z</time></trkpt><trkpt lat="43.57015" lon="11.615475"><ele>217.0</ele><time>2026-04-26T09:18:15.644Z</time></trkpt><trkpt lat="43.570185" lon="11.61557"><ele>217.0</ele><time>2026-04-26T09:18:17.644Z</time></trkpt><trkpt lat="43.5702217" lon="11.61566"><ele>217.0</ele><time>2026-04-26T09:18:19.644Z</time></trkpt><trkpt lat="43.5702567" lon="11.6157533"><ele>217.0</ele><time>2026-04-26T09:18:21.644Z</time></trkpt><trkpt lat="43.57029" lon="11.615845"><ele>217.0</ele><time>2026-04-26T09:18:23.644Z</time></trkpt><trkpt lat="43.5703233" lon="11.6159267"><ele>217.0</ele><time>2026-04-26T09:18:25.644Z</time></trkpt><trkpt lat="43.5703633" lon="11.6160183"><ele>217.0</ele><time>2026-04-26T09:18:27.646Z</time></trkpt><trkpt lat="43.5704" lon="11.6161067"><ele>217.0</ele><time>2026-04-26T09:18:29.644Z</time></trkpt><trkpt lat="43.5704333" lon="11.6161933"><ele>219.28571428571428</ele><time>2026-04-26T09:18:31.644Z</time></trkpt><trkpt lat="43.5704617" lon="11.61628"><ele>221.57142857142856</ele><time>2026-04-26T09:18:33.644Z</time></trkpt><trkpt lat="43.5704983" lon="11.61636"><ele>223.85714285714286</ele><time>2026-04-26T09:18:35.645Z</time></trkpt><trkpt lat="43.57054" lon="11.6164333"><ele>226.14285714285714</ele><time>2026-04-26T09:18:37.645Z</time></trkpt><trkpt lat="43.5705783" lon="11.6165217"><ele>228.42857142857142</ele><time>2026-04-26T09:18:39.644Z</time></trkpt><trkpt lat="43.5706183" lon="11.6166033"><ele>230.71428571428572</ele><time>2026-04-26T09:18:41.645Z</time></trkpt><trkpt lat="43.5706733" lon="11.6166917"><ele>233.0</ele><time>2026-04-26T09:18:43.645Z</time></trkpt><trkpt lat="43.5707183" lon="11.6167667"><ele>233.0</ele><time>2026-04-26T09:18:45.645Z</time></trkpt><trkpt lat="43.57076" lon="11.6168467"><ele>233.0</ele><time>2026-04-26T09:18:47.646Z</time></trkpt><trkpt lat="43.5708033" lon="11.6169333"><ele>233.0</ele><time>2026-04-26T09:18:49.644Z</time></trkpt><trkpt lat="43.5708183" lon="11.6170233"><ele>233.0</ele><time>2026-04-26T09:18:51.647Z</time></trkpt><trkpt lat="43.570865" lon="11.6170983"><ele>233.0</ele><time>2026-04-26T09:18:53.643Z</time></trkpt><trkpt lat="43.5709167" lon="11.6171783"><ele>233.0</ele><time>2026-04-26T09:18:55.644Z</time></trkpt><trkpt lat="43.5709433" lon="11.6172633"><ele>233.0</ele><time>2026-04-26T09:18:57.645Z</time></trkpt><trkpt lat="43.570985" lon="11.617335"><ele>231.66666666666669</ele><time>2026-04-26T09:18:59.644Z</time></trkpt><trkpt lat="43.5710283" lon="11.6174517"><ele>230.33333333333334</ele><time>2026-04-26T09:19:02.645Z</time></trkpt><trkpt lat="43.5710717" lon="11.6175367"><ele>229.0</ele><time>2026-04-26T09:19:04.644Z</time></trkpt><trkpt lat="43.5711217" lon="11.6176167"><ele>227.66666666666669</ele><time>2026-04-26T09:19:06.645Z</time></trkpt><trkpt lat="43.5711683" lon="11.6176933"><ele>226.33333333333334</ele><time>2026-04-26T09:19:08.645Z</time></trkpt><trkpt lat="43.5712133" lon="11.617765"><ele>225.0</ele><time>2026-04-26T09:19:10.645Z</time></trkpt><trkpt lat="43.57126" lon="11.6178367"><ele>228.33333333333334</ele><time>2026-04-26T09:19:12.646Z</time></trkpt><trkpt lat="43.5713117" lon="11.6179083"><ele>231.66666666666669</ele><time>2026-04-26T09:19:14.644Z</time></trkpt><trkpt lat="43.571365" lon="11.61798"><ele>235.0</ele><time>2026-04-26T09:19:16.644Z</time></trkpt><trkpt lat="43.571415" lon="11.61806"><ele>238.33333333333334</ele><time>2026-04-26T09:19:18.645Z</time></trkpt><trkpt lat="43.5714567" lon="11.618135"><ele>241.66666666666669</ele><time>2026-04-26T09:19:20.645Z</time></trkpt><trkpt lat="43.571485" lon="11.61825"><ele>245.0</ele><time>2026-04-26T09:19:23.644Z</time></trkpt><trkpt lat="43.5715283" lon="11.6183267"><ele>245.00000000000003</ele><time>2026-04-26T09:19:25.645Z</time></trkpt><trkpt lat="43.5715583" lon="11.6184417"><ele>245.0</ele><time>2026-04-26T09:19:28.644Z</time></trkpt><trkpt lat="43.5715983" lon="11.6185317"><ele>245.0</ele><time>2026-04-26T09:19:30.645Z</time></trkpt><trkpt lat="43.5716233" lon="11.6186333"><ele>245.0</ele><time>2026-04-26T09:19:32.646Z</time></trkpt><trkpt lat="43.5716383" lon="11.6187317"><ele>245.00000000000003</ele><time>2026-04-26T09:19:34.643Z</time></trkpt><trkpt lat="43.5716683" lon="11.6188283"><ele>245.0</ele><time>2026-04-26T09:19:36.646Z</time></trkpt><trkpt lat="43.5716933" lon="11.61891"><ele>243.85714285714286</ele><time>2026-04-26T09:19:38.646Z</time></trkpt><trkpt lat="43.5717217" lon="11.6189917"><ele>242.71428571428572</ele><time>2026-04-26T09:19:40.644Z</time></trkpt><trkpt lat="43.571755" lon="11.6190817"><ele>241.57142857142856</ele><time>2026-04-26T09:19:42.643Z</time></trkpt><trkpt lat="43.5717883" lon="11.619165"><ele>240.42857142857142</ele><time>2026-04-26T09:19:44.646Z</time></trkpt><trkpt lat="43.5718183" lon="11.619245"><ele>239.28571428571428</ele><time>2026-04-26T09:19:46.643Z</time></trkpt><trkpt lat="43.571865" lon="11.6193383"><ele>238.1428571428571</ele><time>2026-04-26T09:19:48.644Z</time></trkpt><trkpt lat="43.571905" lon="11.6194217"><ele>236.99999999999997</ele><time>2026-04-26T09:19:50.644Z</time></trkpt><trkpt lat="43.571955" lon="11.6195033"><ele>235.4285714285714</ele><time>2026-04-26T09:19:52.646Z</time></trkpt><trkpt lat="43.5720083" lon="11.6195867"><ele>233.85714285714283</ele><time>2026-04-26T09:19:54.646Z</time></trkpt><trkpt lat="43.5720533" lon="11.6196633"><ele>232.28571428571428</ele><time>2026-04-26T09:19:56.645Z</time></trkpt><trkpt lat="43.5721117" lon="11.619735"><ele>230.7142857142857</ele><time>2026-04-26T09:19:58.644Z</time></trkpt><trkpt lat="43.57216" lon="11.6197983"><ele>229.1428571428571</ele><time>2026-04-26T09:20:00.644Z</time></trkpt><trkpt lat="43.5722033" lon="11.6198767"><ele>227.57142857142858</ele><time>2026-04-26T09:20:02.645Z</time></trkpt><trkpt lat="43.5722283" lon="11.6199567"><ele>226.0</ele><time>2026-04-26T09:20:04.644Z</time></trkpt><trkpt lat="43.572275" lon="11.62003"><ele>227.28571428571428</ele><time>2026-04-26T09:20:06.645Z</time></trkpt><trkpt lat="43.57232" lon="11.6201"><ele>228.57142857142856</ele><time>2026-04-26T09:20:08.644Z</time></trkpt><trkpt lat="43.5723683" lon="11.6201717"><ele>229.85714285714283</ele><time>2026-04-26T09:20:10.643Z</time></trkpt><trkpt lat="43.5724167" lon="11.6202433"><ele>231.14285714285714</ele><time>2026-04-26T09:20:12.646Z</time></trkpt><trkpt lat="43.572455" lon="11.620325"><ele>232.4285714285714</ele><time>2026-04-26T09:20:14.646Z</time></trkpt><trkpt lat="43.5724917" lon="11.6204033"><ele>233.7142857142857</ele><time>2026-04-26T09:20:16.644Z</time></trkpt><trkpt lat="43.57253" lon="11.620475"><ele>235.0</ele><time>2026-04-26T09:20:18.643Z</time></trkpt><trkpt lat="43.5725767" lon="11.6205483"><ele>234.99999999999997</ele><time>2026-04-26T09:20:20.646Z</time></trkpt><trkpt lat="43.572555" lon="11.6206633"><ele>235.0</ele><time>2026-04-26T09:20:23.643Z</time></trkpt><trkpt lat="43.5725917" lon="11.62075"><ele>235.0</ele><time>2026-04-26T09:20:26.645Z</time></trkpt><trkpt lat="43.5726583" lon="11.62082"><ele>235.0</ele><time>2026-04-26T09:20:29.645Z</time></trkpt><trkpt lat="43.5727267" lon="11.620835"><ele>234.99999999999997</ele><time>2026-04-26T09:20:31.644Z</time></trkpt><trkpt lat="43.5728233" lon="11.620815"><ele>235.0</ele><time>2026-04-26T09:20:34.644Z</time></trkpt><trkpt lat="43.572895" lon="11.6207817"><ele>237.49999999999997</ele><time>2026-04-26T09:20:36.645Z</time></trkpt><trkpt lat="43.572955" lon="11.620745"><ele>240.0</ele><time>2026-04-26T09:20:38.644Z</time></trkpt><trkpt lat="43.5730333" lon="11.6206883"><ele>242.5</ele><time>2026-04-26T09:20:41.645Z</time></trkpt><trkpt lat="43.5730883" lon="11.6206367"><ele>245.0</ele><time>2026-04-26T09:20:43.646Z</time></trkpt><trkpt lat="43.57315" lon="11.620565"><ele>247.49999999999997</ele><time>2026-04-26T09:20:45.645Z</time></trkpt><trkpt lat="43.5732133" lon="11.6205"><ele>250.0</ele><time>2026-04-26T09:20:47.645Z</time></trkpt><trkpt lat="43.5732833" lon="11.6204533"><ele>250.0</ele><time>2026-04-26T09:20:49.645Z</time></trkpt><trkpt lat="43.5733483" lon="11.620415"><ele>250.0</ele><time>2026-04-26T09:20:51.646Z</time></trkpt><trkpt lat="43.5734067" lon="11.6203817"><ele>250.0</ele><time>2026-04-26T09:20:53.645Z</time></trkpt><trkpt lat="43.5734733" lon="11.6203467"><ele>250.0</ele><time>2026-04-26T09:20:55.645Z</time></trkpt><trkpt lat="43.5735433" lon="11.6203067"><ele>250.0</ele><time>2026-04-26T09:20:57.644Z</time></trkpt><trkpt lat="43.5736067" lon="11.6202817"><ele>250.0</ele><time>2026-04-26T09:20:59.644Z</time></trkpt><trkpt lat="43.57367" lon="11.6202567"><ele>250.0</ele><time>2026-04-26T09:21:01.645Z</time></trkpt><trkpt lat="43.57374" lon="11.620255"><ele>252.57142857142856</ele><time>2026-04-26T09:21:03.646Z</time></trkpt><trkpt lat="43.573805" lon="11.6202683"><ele>255.14285714285717</ele><time>2026-04-26T09:21:05.647Z</time></trkpt><trkpt lat="43.5738683" lon="11.6202683"><ele>257.7142857142857</ele><time>2026-04-26T09:21:07.645Z</time></trkpt><trkpt lat="43.57396" lon="11.6202967"><ele>260.2857142857143</ele><time>2026-04-26T09:21:10.643Z</time></trkpt><trkpt lat="43.5740267" lon="11.6203333"><ele>262.85714285714283</ele><time>2026-04-26T09:21:12.644Z</time></trkpt><trkpt lat="43.5740933" lon="11.620385"><ele>265.42857142857144</ele><time>2026-04-26T09:21:14.645Z</time></trkpt><trkpt lat="43.5741533" lon="11.6204467"><ele>268.0</ele><time>2026-04-26T09:21:16.644Z</time></trkpt><trkpt lat="43.57423" lon="11.620515"><ele>268.0</ele><time>2026-04-26T09:21:19.645Z</time></trkpt><trkpt lat="43.5742917" lon="11.6205533"><ele>268.0</ele><time>2026-04-26T09:21:21.644Z</time></trkpt><trkpt lat="43.574355" lon="11.6205817"><ele>268.0</ele><time>2026-04-26T09:21:23.644Z</time></trkpt><trkpt lat="43.5744217" lon="11.620635"><ele>268.0</ele><time>2026-04-26T09:21:25.644Z</time></trkpt><trkpt lat="43.5744867" lon="11.6206767"><ele>268.0</ele><time>2026-04-26T09:21:27.644Z</time></trkpt><trkpt lat="43.5745583" lon="11.6207017"><ele>268.0</ele><time>2026-04-26T09:21:29.645Z</time></trkpt><trkpt lat="43.5746233" lon="11.6207367"><ele>268.0</ele><time>2026-04-26T09:21:32.646Z</time></trkpt><trkpt lat="43.57469" lon="11.6207333"><ele>268.5</ele><time>2026-04-26T09:21:34.645Z</time></trkpt><trkpt lat="43.574765" lon="11.6207033"><ele>269.0</ele><time>2026-04-26T09:21:36.646Z</time></trkpt><trkpt lat="43.574825" lon="11.6206533"><ele>269.5</ele><time>2026-04-26T09:21:38.646Z</time></trkpt><trkpt lat="43.5748667" lon="11.6205817"><ele>270.0</ele><time>2026-04-26T09:21:40.645Z</time></trkpt><trkpt lat="43.5749183" lon="11.6204967"><ele>270.5</ele><time>2026-04-26T09:21:42.645Z</time></trkpt><trkpt lat="43.57497" lon="11.620405"><ele>271.0</ele><time>2026-04-26T09:21:44.648Z</time></trkpt><trkpt lat="43.5750283" lon="11.6203017"><ele>271.0</ele><time>2026-04-26T09:21:46.644Z</time></trkpt><trkpt lat="43.575085" lon="11.6202"><ele>271.0</ele><time>2026-04-26T09:21:48.646Z</time></trkpt><trkpt lat="43.57515" lon="11.6200967"><ele>271.0</ele><time>2026-04-26T09:21:50.646Z</time></trkpt><trkpt lat="43.575195" lon="11.6199967"><ele>271.0</ele><time>2026-04-26T09:21:52.645Z</time></trkpt><trkpt lat="43.5752517" lon="11.6198933"><ele>271.0</ele><time>2026-04-26T09:21:54.645Z</time></trkpt><trkpt lat="43.5753067" lon="11.6197883"><ele>271.0</ele><time>2026-04-26T09:21:56.646Z</time></trkpt><trkpt lat="43.5753667" lon="11.6196817"><ele>271.0</ele><time>2026-04-26T09:21:58.646Z</time></trkpt><trkpt lat="43.575435" lon="11.6195867"><ele>271.0</ele><time>2026-04-26T09:22:00.645Z</time></trkpt><trkpt lat="43.5755183" lon="11.619505"><ele>271.0</ele><time>2026-04-26T09:22:02.646Z</time></trkpt><trkpt lat="43.57561" lon="11.6194383"><ele>271.0</ele><time>2026-04-26T09:22:04.644Z</time></trkpt><trkpt lat="43.5757133" lon="11.6193883"><ele>270.6</ele><time>2026-04-26T09:22:06.646Z</time></trkpt><trkpt lat="43.57582" lon="11.619355"><ele>270.20000000000005</ele><time>2026-04-26T09:22:08.646Z</time></trkpt><trkpt lat="43.5759233" lon="11.6193583"><ele>269.79999999999995</ele><time>2026-04-26T09:22:10.645Z</time></trkpt><trkpt lat="43.5760183" lon="11.6193917"><ele>269.4</ele><time>2026-04-26T09:22:12.646Z</time></trkpt><trkpt lat="43.5761117" lon="11.6194367"><ele>269.0</ele><time>2026-04-26T09:22:14.645Z</time></trkpt><trkpt lat="43.57621" lon="11.6194817"><ele>270.0</ele><time>2026-04-26T09:22:16.645Z</time></trkpt><trkpt lat="43.5763083" lon="11.61953"><ele>271.0</ele><time>2026-04-26T09:22:18.647Z</time></trkpt><trkpt lat="43.5764033" lon="11.6195833"><ele>272.0</ele><time>2026-04-26T09:22:20.646Z</time></trkpt><trkpt lat="43.5765" lon="11.6196367"><ele>273.0</ele><time>2026-04-26T09:22:22.645Z</time></trkpt><trkpt lat="43.5765983" lon="11.61969"><ele>274.0</ele><time>2026-04-26T09:22:24.644Z</time></trkpt><trkpt lat="43.5766883" lon="11.6197567"><ele>274.0</ele><time>2026-04-26T09:22:26.646Z</time></trkpt><trkpt lat="43.576795" lon="11.6198167"><ele>274.0</ele><time>2026-04-26T09:22:28.643Z</time></trkpt><trkpt lat="43.5768983" lon="11.61989"><ele>274.0</ele><time>2026-04-26T09:22:30.646Z</time></trkpt><trkpt lat="43.5770067" lon="11.6199533"><ele>274.0</ele><time>2026-04-26T09:22:32.646Z</time></trkpt><trkpt lat="43.5771217" lon="11.62001"><ele>274.25</ele><time>2026-04-26T09:22:34.645Z</time></trkpt><trkpt lat="43.5772333" lon="11.6200683"><ele>274.5</ele><time>2026-04-26T09:22:36.644Z</time></trkpt><trkpt lat="43.57734" lon="11.6201417"><ele>274.75</ele><time>2026-04-26T09:22:38.645Z</time></trkpt><trkpt lat="43.5774433" lon="11.6202167"><ele>275.0</ele><time>2026-04-26T09:22:40.644Z</time></trkpt><trkpt lat="43.5775483" lon="11.6202733"><ele>275.4</ele><time>2026-04-26T09:22:42.646Z</time></trkpt><trkpt lat="43.5776533" lon="11.6203283"><ele>275.8</ele><time>2026-04-26T09:22:44.644Z</time></trkpt><trkpt lat="43.57775" lon="11.6203933"><ele>276.2</ele><time>2026-04-26T09:22:46.644Z</time></trkpt><trkpt lat="43.57783" lon="11.6204717"><ele>276.6</ele><time>2026-04-26T09:22:48.645Z</time></trkpt><trkpt lat="43.577905" lon="11.6205517"><ele>277.0</ele><time>2026-04-26T09:22:50.646Z</time></trkpt><trkpt lat="43.578" lon="11.6206083"><ele>277.4</ele><time>2026-04-26T09:22:52.643Z</time></trkpt><trkpt lat="43.5780867" lon="11.6206783"><ele>277.79999999999995</ele><time>2026-04-26T09:22:54.645Z</time></trkpt><trkpt lat="43.5781817" lon="11.620745"><ele>278.2</ele><time>2026-04-26T09:22:56.644Z</time></trkpt><trkpt lat="43.5782783" lon="11.6208067"><ele>278.59999999999997</ele><time>2026-04-26T09:22:58.647Z</time></trkpt><trkpt lat="43.5783733" lon="11.6208667"><ele>279.0</ele><time>2026-04-26T09:23:00.645Z</time></trkpt><trkpt lat="43.5784567" lon="11.6209317"><ele>279.0</ele><time>2026-04-26T09:23:02.646Z</time></trkpt><trkpt lat="43.5785467" lon="11.620995"><ele>279.0</ele><time>2026-04-26T09:23:04.644Z</time></trkpt><trkpt lat="43.5786417" lon="11.6210583"><ele>279.0</ele><time>2026-04-26T09:23:06.645Z</time></trkpt><trkpt lat="43.578745" lon="11.62112"><ele>279.0</ele><time>2026-04-26T09:23:08.647Z</time></trkpt><trkpt lat="43.5788383" lon="11.6211883"><ele>279.0</ele><time>2026-04-26T09:23:10.644Z</time></trkpt><trkpt lat="43.5789383" lon="11.6212517"><ele>279.8</ele><time>2026-04-26T09:23:12.645Z</time></trkpt><trkpt lat="43.5790417" lon="11.6213067"><ele>280.59999999999997</ele><time>2026-04-26T09:23:14.644Z</time></trkpt><trkpt lat="43.5791417" lon="11.621365"><ele>281.4</ele><time>2026-04-26T09:23:16.645Z</time></trkpt><trkpt lat="43.5792317" lon="11.621435"><ele>282.2</ele><time>2026-04-26T09:23:18.648Z</time></trkpt><trkpt lat="43.5793167" lon="11.621515"><ele>283.0</ele><time>2026-04-26T09:23:20.645Z</time></trkpt><trkpt lat="43.5794" lon="11.6216"><ele>283.0</ele><time>2026-04-26T09:23:22.646Z</time></trkpt><trkpt lat="43.579485" lon="11.6216617"><ele>283.0</ele><time>2026-04-26T09:23:24.644Z</time></trkpt><trkpt lat="43.5795767" lon="11.6217317"><ele>283.0</ele><time>2026-04-26T09:23:26.646Z</time></trkpt><trkpt lat="43.5796783" lon="11.6217983"><ele>283.0</ele><time>2026-04-26T09:23:28.646Z</time></trkpt><trkpt lat="43.5797783" lon="11.621865"><ele>283.0</ele><time>2026-04-26T09:23:30.645Z</time></trkpt><trkpt lat="43.579885" lon="11.6219317"><ele>283.5</ele><time>2026-04-26T09:23:32.645Z</time></trkpt><trkpt lat="43.57999" lon="11.6219967"><ele>284.0</ele><time>2026-04-26T09:23:34.645Z</time></trkpt><trkpt lat="43.580095" lon="11.6220583"><ele>284.5</ele><time>2026-04-26T09:23:36.645Z</time></trkpt><trkpt lat="43.5802033" lon="11.6221217"><ele>285.0</ele><time>2026-04-26T09:23:38.646Z</time></trkpt><trkpt lat="43.5803083" lon="11.6221933"><ele>285.8</ele><time>2026-04-26T09:23:40.644Z</time></trkpt><trkpt lat="43.5804133" lon="11.6222633"><ele>286.6</ele><time>2026-04-26T09:23:42.646Z</time></trkpt><trkpt lat="43.5805133" lon="11.622325"><ele>287.4</ele><time>2026-04-26T09:23:44.645Z</time></trkpt><trkpt lat="43.5806117" lon="11.6223867"><ele>288.2</ele><time>2026-04-26T09:23:46.645Z</time></trkpt><trkpt lat="43.58071" lon="11.622455"><ele>289.0</ele><time>2026-04-26T09:23:48.644Z</time></trkpt><trkpt lat="43.5808083" lon="11.6225217"><ele>289.0</ele><time>2026-04-26T09:23:50.648Z</time></trkpt><trkpt lat="43.5809083" lon="11.622575"><ele>289.0</ele><time>2026-04-26T09:23:52.644Z</time></trkpt><trkpt lat="43.5810117" lon="11.6226333"><ele>289.0</ele><time>2026-04-26T09:23:54.648Z</time></trkpt><trkpt lat="43.58111" lon="11.6226983"><ele>289.0</ele><time>2026-04-26T09:23:56.644Z</time></trkpt><trkpt lat="43.5812167" lon="11.622765"><ele>289.0</ele><time>2026-04-26T09:23:58.644Z</time></trkpt><trkpt lat="43.5813183" lon="11.6228383"><ele>290.25</ele><time>2026-04-26T09:24:00.646Z</time></trkpt><trkpt lat="43.5814233" lon="11.6229083"><ele>291.5</ele><time>2026-04-26T09:24:02.644Z</time></trkpt><trkpt lat="43.5815283" lon="11.6229783"><ele>292.75</ele><time>2026-04-26T09:24:04.644Z</time></trkpt><trkpt lat="43.5816283" lon="11.6230483"><ele>294.0</ele><time>2026-04-26T09:24:06.646Z</time></trkpt><trkpt lat="43.5817283" lon="11.62311"><ele>294.0</ele><time>2026-04-26T09:24:08.644Z</time></trkpt><trkpt lat="43.5818267" lon="11.62318"><ele>294.0</ele><time>2026-04-26T09:24:10.645Z</time></trkpt><trkpt lat="43.581925" lon="11.6232467"><ele>294.0</ele><time>2026-04-26T09:24:12.646Z</time></trkpt><trkpt lat="43.582025" lon="11.6233067"><ele>294.0</ele><time>2026-04-26T09:24:14.644Z</time></trkpt><trkpt lat="43.58213" lon="11.62337"><ele>294.0</ele><time>2026-04-26T09:24:16.645Z</time></trkpt><trkpt lat="43.5822333" lon="11.623435"><ele>294.4</ele><time>2026-04-26T09:24:18.646Z</time></trkpt><trkpt lat="43.5823333" lon="11.6235083"><ele>294.79999999999995</ele><time>2026-04-26T09:24:20.645Z</time></trkpt><trkpt lat="43.5824383" lon="11.6235783"><ele>295.20000000000005</ele><time>2026-04-26T09:24:22.644Z</time></trkpt><trkpt lat="43.5825367" lon="11.6236417"><ele>295.6</ele><time>2026-04-26T09:24:24.645Z</time></trkpt><trkpt lat="43.582635" lon="11.6237083"><ele>296.0</ele><time>2026-04-26T09:24:26.645Z</time></trkpt><trkpt lat="43.5827333" lon="11.623775"><ele>296.6</ele><time>2026-04-26T09:24:28.645Z</time></trkpt><trkpt lat="43.582835" lon="11.62384"><ele>297.20000000000005</ele><time>2026-04-26T09:24:30.644Z</time></trkpt><trkpt lat="43.58294" lon="11.6239033"><ele>297.79999999999995</ele><time>2026-04-26T09:24:32.646Z</time></trkpt><trkpt lat="43.5830417" lon="11.623975"><ele>298.4</ele><time>2026-04-26T09:24:34.645Z</time></trkpt><trkpt lat="43.58314" lon="11.6240383"><ele>299.0</ele><time>2026-04-26T09:24:36.645Z</time></trkpt><trkpt lat="43.5832317" lon="11.6240967"><ele>299.0</ele><time>2026-04-26T09:24:38.645Z</time></trkpt><trkpt lat="43.583325" lon="11.6241533"><ele>299.0</ele><time>2026-04-26T09:24:40.644Z</time></trkpt><trkpt lat="43.5834133" lon="11.62422"><ele>299.0</ele><time>2026-04-26T09:24:42.647Z</time></trkpt><trkpt lat="43.5834783" lon="11.6243283"><ele>299.0</ele><time>2026-04-26T09:24:44.647Z</time></trkpt><trkpt lat="43.5835633" lon="11.6243733"><ele>299.0</ele><time>2026-04-26T09:24:46.646Z</time></trkpt><trkpt lat="43.5836333" lon="11.624295"><ele>299.0</ele><time>2026-04-26T09:24:48.646Z</time></trkpt><trkpt lat="43.58364" lon="11.62416"><ele>299.0</ele><time>2026-04-26T09:24:50.645Z</time></trkpt><trkpt lat="43.58366" lon="11.624025"><ele>299.0</ele><time>2026-04-26T09:24:52.645Z</time></trkpt><trkpt lat="43.5837017" lon="11.6239133"><ele>299.0</ele><time>2026-04-26T09:24:54.644Z</time></trkpt><trkpt lat="43.5837417" lon="11.623805"><ele>299.0</ele><time>2026-04-26T09:24:56.645Z</time></trkpt><trkpt lat="43.5837783" lon="11.6237167"><ele>299.1666666666667</ele><time>2026-04-26T09:24:58.646Z</time></trkpt><trkpt lat="43.5838167" lon="11.6236183"><ele>299.33333333333337</ele><time>2026-04-26T09:25:00.644Z</time></trkpt><trkpt lat="43.58386" lon="11.623525"><ele>299.5</ele><time>2026-04-26T09:25:02.645Z</time></trkpt><trkpt lat="43.5839033" lon="11.623425"><ele>299.6666666666667</ele><time>2026-04-26T09:25:04.646Z</time></trkpt><trkpt lat="43.5839417" lon="11.6233267"><ele>299.8333333333333</ele><time>2026-04-26T09:25:06.646Z</time></trkpt><trkpt lat="43.5839733" lon="11.6232233"><ele>300.0</ele><time>2026-04-26T09:25:08.644Z</time></trkpt><trkpt lat="43.5840133" lon="11.6231217"><ele>300.0</ele><time>2026-04-26T09:25:10.645Z</time></trkpt><trkpt lat="43.584055" lon="11.623005"><ele>300.0</ele><time>2026-04-26T09:25:12.645Z</time></trkpt><trkpt lat="43.584095" lon="11.622885"><ele>300.0</ele><time>2026-04-26T09:25:14.647Z</time></trkpt><trkpt lat="43.584135" lon="11.622765"><ele>300.0</ele><time>2026-04-26T09:25:16.643Z</time></trkpt><trkpt lat="43.58418" lon="11.6226517"><ele>300.0</ele><time>2026-04-26T09:25:18.645Z</time></trkpt><trkpt lat="43.5842233" lon="11.62253"><ele>299.8</ele><time>2026-04-26T09:25:20.645Z</time></trkpt><trkpt lat="43.5842717" lon="11.6224183"><ele>299.6</ele><time>2026-04-26T09:25:22.645Z</time></trkpt><trkpt lat="43.5843117" lon="11.622305"><ele>299.4</ele><time>2026-04-26T09:25:24.644Z</time></trkpt><trkpt lat="43.584355" lon="11.6221867"><ele>299.2</ele><time>2026-04-26T09:25:26.646Z</time></trkpt><trkpt lat="43.5844033" lon="11.62206"><ele>299.0</ele><time>2026-04-26T09:25:28.645Z</time></trkpt><trkpt lat="43.5844583" lon="11.6219267"><ele>298.8</ele><time>2026-04-26T09:25:30.646Z</time></trkpt><trkpt lat="43.584525" lon="11.6218083"><ele>298.59999999999997</ele><time>2026-04-26T09:25:32.647Z</time></trkpt><trkpt lat="43.5845933" lon="11.621695"><ele>298.4</ele><time>2026-04-26T09:25:34.644Z</time></trkpt><trkpt lat="43.58468" lon="11.6215983"><ele>298.2</ele><time>2026-04-26T09:25:36.647Z</time></trkpt><trkpt lat="43.5847683" lon="11.6215167"><ele>298.0</ele><time>2026-04-26T09:25:38.645Z</time></trkpt><trkpt lat="43.5848483" lon="11.6214617"><ele>298.0</ele><time>2026-04-26T09:25:40.644Z</time></trkpt><trkpt lat="43.5849367" lon="11.6214067"><ele>298.0</ele><time>2026-04-26T09:25:42.647Z</time></trkpt><trkpt lat="43.5850283" lon="11.6213783"><ele>298.0</ele><time>2026-04-26T09:25:44.645Z</time></trkpt><trkpt lat="43.5851267" lon="11.6213733"><ele>298.0</ele><time>2026-04-26T09:25:46.645Z</time></trkpt><trkpt lat="43.5852183" lon="11.62138"><ele>298.0</ele><time>2026-04-26T09:25:48.647Z</time></trkpt><trkpt lat="43.58532" lon="11.6213833"><ele>298.8</ele><time>2026-04-26T09:25:50.645Z</time></trkpt><trkpt lat="43.5854183" lon="11.6213883"><ele>299.6</ele><time>2026-04-26T09:25:52.644Z</time></trkpt><trkpt lat="43.5855067" lon="11.621405"><ele>300.4</ele><time>2026-04-26T09:25:54.647Z</time></trkpt><trkpt lat="43.5855983" lon="11.6214133"><ele>301.2</ele><time>2026-04-26T09:25:56.646Z</time></trkpt><trkpt lat="43.5856967" lon="11.6214167"><ele>302.0</ele><time>2026-04-26T09:25:58.646Z</time></trkpt><trkpt lat="43.5857833" lon="11.6214367"><ele>302.0</ele><time>2026-04-26T09:26:00.647Z</time></trkpt><trkpt lat="43.5858583" lon="11.6214633"><ele>302.0</ele><time>2026-04-26T09:26:02.645Z</time></trkpt><trkpt lat="43.5859283" lon="11.6215117"><ele>302.0</ele><time>2026-04-26T09:26:04.643Z</time></trkpt><trkpt lat="43.5860117" lon="11.62154"><ele>302.0</ele><time>2026-04-26T09:26:06.646Z</time></trkpt><trkpt lat="43.586085" lon="11.6215767"><ele>302.0</ele><time>2026-04-26T09:26:08.644Z</time></trkpt><trkpt lat="43.5861583" lon="11.6216367"><ele>302.0</ele><time>2026-04-26T09:26:10.644Z</time></trkpt><trkpt lat="43.586225" lon="11.6217067"><ele>302.5</ele><time>2026-04-26T09:26:12.647Z</time></trkpt><trkpt lat="43.5862867" lon="11.62179"><ele>303.0</ele><time>2026-04-26T09:26:14.644Z</time></trkpt><trkpt lat="43.5863417" lon="11.62186"><ele>303.5</ele><time>2026-04-26T09:26:16.642Z</time></trkpt><trkpt lat="43.5864067" lon="11.62193"><ele>304.0</ele><time>2026-04-26T09:26:18.645Z</time></trkpt><trkpt lat="43.586475" lon="11.6220017"><ele>304.5</ele><time>2026-04-26T09:26:20.645Z</time></trkpt><trkpt lat="43.5865383" lon="11.622075"><ele>305.0</ele><time>2026-04-26T09:26:22.645Z</time></trkpt><trkpt lat="43.5865983" lon="11.6221533"><ele>305.0</ele><time>2026-04-26T09:26:24.646Z</time></trkpt><trkpt lat="43.5866583" lon="11.6222317"><ele>305.0</ele><time>2026-04-26T09:26:26.645Z</time></trkpt><trkpt lat="43.5867217" lon="11.6223033"><ele>305.0</ele><time>2026-04-26T09:26:28.643Z</time></trkpt><trkpt lat="43.5867817" lon="11.622375"><ele>305.0</ele><time>2026-04-26T09:26:30.646Z</time></trkpt><trkpt lat="43.5868467" lon="11.6224333"><ele>305.0</ele><time>2026-04-26T09:26:32.645Z</time></trkpt><trkpt lat="43.586905" lon="11.62249"><ele>305.0</ele><time>2026-04-26T09:26:34.644Z</time></trkpt><trkpt lat="43.5869467" lon="11.6225683"><ele>305.0</ele><time>2026-04-26T09:26:36.645Z</time></trkpt><trkpt lat="43.5869783" lon="11.6226467"><ele>305.0</ele><time>2026-04-26T09:26:38.645Z</time></trkpt><trkpt lat="43.5870167" lon="11.622725"><ele>305.0</ele><time>2026-04-26T09:26:40.644Z</time></trkpt><trkpt lat="43.5870683" lon="11.6227767"><ele>305.0</ele><time>2026-04-26T09:26:42.646Z</time></trkpt><trkpt lat="43.5871317" lon="11.6227817"><ele>305.0</ele><time>2026-04-26T09:26:44.648Z</time></trkpt><trkpt lat="43.587195" lon="11.622735"><ele>305.0</ele><time>2026-04-26T09:26:46.644Z</time></trkpt><trkpt lat="43.58723" lon="11.6226117"><ele>305.0</ele><time>2026-04-26T09:26:49.646Z</time></trkpt><trkpt lat="43.5872167" lon="11.62249"><ele>306.2</ele><time>2026-04-26T09:26:51.645Z</time></trkpt><trkpt lat="43.5872067" lon="11.6223683"><ele>307.4</ele><time>2026-04-26T09:26:53.645Z</time></trkpt><trkpt lat="43.587195" lon="11.6222317"><ele>308.6</ele><time>2026-04-26T09:26:55.644Z</time></trkpt><trkpt lat="43.5871867" lon="11.6220883"><ele>309.8</ele><time>2026-04-26T09:26:57.646Z</time></trkpt><trkpt lat="43.58719" lon="11.6219517"><ele>311.0</ele><time>2026-04-26T09:26:59.644Z</time></trkpt><trkpt lat="43.5871933" lon="11.6218183"><ele>311.0</ele><time>2026-04-26T09:27:01.646Z</time></trkpt><trkpt lat="43.5872" lon="11.6216717"><ele>311.0</ele><time>2026-04-26T09:27:03.645Z</time></trkpt><trkpt lat="43.58722" lon="11.6215267"><ele>311.0</ele><time>2026-04-26T09:27:05.644Z</time></trkpt><trkpt lat="43.5872417" lon="11.6213767"><ele>311.0</ele><time>2026-04-26T09:27:07.646Z</time></trkpt><trkpt lat="43.587275" lon="11.62124"><ele>311.0</ele><time>2026-04-26T09:27:09.643Z</time></trkpt><trkpt lat="43.5873" lon="11.6211133"><ele>311.0</ele><time>2026-04-26T09:27:11.645Z</time></trkpt><trkpt lat="43.5873283" lon="11.6209917"><ele>311.0</ele><time>2026-04-26T09:27:13.645Z</time></trkpt><trkpt lat="43.5873583" lon="11.6208567"><ele>311.0</ele><time>2026-04-26T09:27:15.647Z</time></trkpt><trkpt lat="43.5873883" lon="11.62072"><ele>311.0</ele><time>2026-04-26T09:27:17.644Z</time></trkpt><trkpt lat="43.5874217" lon="11.6205783"><ele>311.0</ele><time>2026-04-26T09:27:19.646Z</time></trkpt><trkpt lat="43.5874583" lon="11.6204317"><ele>310.75</ele><time>2026-04-26T09:27:21.647Z</time></trkpt><trkpt lat="43.5874917" lon="11.6202767"><ele>310.5</ele><time>2026-04-26T09:27:23.645Z</time></trkpt><trkpt lat="43.58752" lon="11.62012"><ele>310.25</ele><time>2026-04-26T09:27:25.645Z</time></trkpt><trkpt lat="43.587545" lon="11.6199617"><ele>310.0</ele><time>2026-04-26T09:27:27.646Z</time></trkpt><trkpt lat="43.5875617" lon="11.619795"><ele>310.0</ele><time>2026-04-26T09:27:29.645Z</time></trkpt><trkpt lat="43.5875717" lon="11.6196283"><ele>310.0</ele><time>2026-04-26T09:27:31.643Z</time></trkpt><trkpt lat="43.5875717" lon="11.6194617"><ele>310.0</ele><time>2026-04-26T09:27:33.646Z</time></trkpt><trkpt lat="43.5875783" lon="11.619305"><ele>310.0</ele><time>2026-04-26T09:27:35.646Z</time></trkpt><trkpt lat="43.5876133" lon="11.61915"><ele>309.7142857142857</ele><time>2026-04-26T09:27:37.645Z</time></trkpt><trkpt lat="43.587645" lon="11.6190733"><ele>309.42857142857144</ele><time>2026-04-26T09:27:38.645Z</time></trkpt><trkpt lat="43.58768" lon="11.618995"><ele>309.1428571428571</ele><time>2026-04-26T09:27:39.644Z</time></trkpt><trkpt lat="43.587715" lon="11.6189117"><ele>308.8571428571429</ele><time>2026-04-26T09:27:40.646Z</time></trkpt><trkpt lat="43.5877567" lon="11.618825"><ele>308.57142857142856</ele><time>2026-04-26T09:27:41.644Z</time></trkpt><trkpt lat="43.5878033" lon="11.6187367"><ele>308.2857142857143</ele><time>2026-04-26T09:27:42.645Z</time></trkpt><trkpt lat="43.5878467" lon="11.6186517"><ele>308.0</ele><time>2026-04-26T09:27:43.646Z</time></trkpt><trkpt lat="43.5878883" lon="11.6185683"><ele>308.0</ele><time>2026-04-26T09:27:44.646Z</time></trkpt><trkpt lat="43.587935" lon="11.6184767"><ele>308.0</ele><time>2026-04-26T09:27:45.645Z</time></trkpt><trkpt lat="43.5879833" lon="11.6183767"><ele>308.0</ele><time>2026-04-26T09:27:46.646Z</time></trkpt><trkpt lat="43.5880317" lon="11.61827"><ele>308.0</ele><time>2026-04-26T09:27:47.647Z</time></trkpt><trkpt lat="43.5880733" lon="11.6181633"><ele>308.0</ele><time>2026-04-26T09:27:48.645Z</time></trkpt><trkpt lat="43.5881033" lon="11.6180383"><ele>308.0</ele><time>2026-04-26T09:27:49.648Z</time></trkpt><trkpt lat="43.5881233" lon="11.6179033"><ele>307.6</ele><time>2026-04-26T09:27:50.647Z</time></trkpt><trkpt lat="43.5881317" lon="11.6177633"><ele>307.20000000000005</ele><time>2026-04-26T09:27:51.646Z</time></trkpt><trkpt lat="43.58813" lon="11.6176283"><ele>306.8</ele><time>2026-04-26T09:27:52.644Z</time></trkpt><trkpt lat="43.588115" lon="11.6174933"><ele>306.40000000000003</ele><time>2026-04-26T09:27:53.646Z</time></trkpt><trkpt lat="43.58809" lon="11.617365"><ele>306.0</ele><time>2026-04-26T09:27:54.646Z</time></trkpt><trkpt lat="43.5880617" lon="11.617235"><ele>306.0</ele><time>2026-04-26T09:27:55.644Z</time></trkpt><trkpt lat="43.58803" lon="11.617105"><ele>306.0</ele><time>2026-04-26T09:27:56.645Z</time></trkpt><trkpt lat="43.5879983" lon="11.6169733"><ele>306.0</ele><time>2026-04-26T09:27:57.646Z</time></trkpt><trkpt lat="43.5879767" lon="11.6168417"><ele>306.0</ele><time>2026-04-26T09:27:58.644Z</time></trkpt><trkpt lat="43.587955" lon="11.6167117"><ele>306.0</ele><time>2026-04-26T09:27:59.645Z</time></trkpt><trkpt lat="43.5879317" lon="11.6165817"><ele>305.6</ele><time>2026-04-26T09:28:00.646Z</time></trkpt><trkpt lat="43.587905" lon="11.6164533"><ele>305.20000000000005</ele><time>2026-04-26T09:28:01.644Z</time></trkpt><trkpt lat="43.5878767" lon="11.616325"><ele>304.79999999999995</ele><time>2026-04-26T09:28:02.645Z</time></trkpt><trkpt lat="43.5878533" lon="11.6161983"><ele>304.4</ele><time>2026-04-26T09:28:03.644Z</time></trkpt><trkpt lat="43.5878367" lon="11.61607"><ele>304.0</ele><time>2026-04-26T09:28:04.645Z</time></trkpt><trkpt lat="43.5878233" lon="11.6159417"><ele>302.59999999999997</ele><time>2026-04-26T09:28:05.644Z</time></trkpt><trkpt lat="43.5878183" lon="11.61581"><ele>301.2</ele><time>2026-04-26T09:28:06.645Z</time></trkpt><trkpt lat="43.587815" lon="11.6156783"><ele>299.79999999999995</ele><time>2026-04-26T09:28:07.645Z</time></trkpt><trkpt lat="43.587815" lon="11.615545"><ele>298.4</ele><time>2026-04-26T09:28:08.646Z</time></trkpt><trkpt lat="43.5878133" lon="11.6154167"><ele>297.0</ele><time>2026-04-26T09:28:09.645Z</time></trkpt><trkpt lat="43.5878133" lon="11.6152917"><ele>297.0</ele><time>2026-04-26T09:28:10.646Z</time></trkpt><trkpt lat="43.5878117" lon="11.6151683"><ele>297.0</ele><time>2026-04-26T09:28:11.645Z</time></trkpt><trkpt lat="43.5878083" lon="11.6150433"><ele>297.0</ele><time>2026-04-26T09:28:12.645Z</time></trkpt><trkpt lat="43.5878083" lon="11.614915"><ele>297.0</ele><time>2026-04-26T09:28:13.645Z</time></trkpt><trkpt lat="43.58781" lon="11.6147867"><ele>297.0</ele><time>2026-04-26T09:28:14.647Z</time></trkpt><trkpt lat="43.5878133" lon="11.6146583"><ele>297.0</ele><time>2026-04-26T09:28:15.646Z</time></trkpt><trkpt lat="43.587815" lon="11.6145317"><ele>297.0</ele><time>2026-04-26T09:28:16.644Z</time></trkpt><trkpt lat="43.58782" lon="11.6144033"><ele>297.0</ele><time>2026-04-26T09:28:17.645Z</time></trkpt><trkpt lat="43.5878267" lon="11.6142733"><ele>297.0</ele><time>2026-04-26T09:28:18.646Z</time></trkpt><trkpt lat="43.5878417" lon="11.6141483"><ele>297.0</ele><time>2026-04-26T09:28:19.644Z</time></trkpt><trkpt lat="43.5878683" lon="11.6140217"><ele>297.8</ele><time>2026-04-26T09:28:20.645Z</time></trkpt><trkpt lat="43.5879017" lon="11.6139017"><ele>298.6</ele><time>2026-04-26T09:28:21.645Z</time></trkpt><trkpt lat="43.5879383" lon="11.61378"><ele>299.40000000000003</ele><time>2026-04-26T09:28:22.646Z</time></trkpt><trkpt lat="43.587975" lon="11.613655"><ele>300.2</ele><time>2026-04-26T09:28:23.645Z</time></trkpt><trkpt lat="43.58801" lon="11.6135333"><ele>301.0</ele><time>2026-04-26T09:28:24.647Z</time></trkpt><trkpt lat="43.5880467" lon="11.6134133"><ele>299.40000000000003</ele><time>2026-04-26T09:28:25.647Z</time></trkpt><trkpt lat="43.5880883" lon="11.6132883"><ele>297.8</ele><time>2026-04-26T09:28:26.646Z</time></trkpt><trkpt lat="43.5881333" lon="11.6131667"><ele>296.20000000000005</ele><time>2026-04-26T09:28:27.644Z</time></trkpt><trkpt lat="43.58819" lon="11.6130467"><ele>294.6</ele><time>2026-04-26T09:28:28.645Z</time></trkpt><trkpt lat="43.5882617" lon="11.6129467"><ele>293.0</ele><time>2026-04-26T09:28:29.645Z</time></trkpt><trkpt lat="43.58835" lon="11.612865"><ele>291.8</ele><time>2026-04-26T09:28:30.647Z</time></trkpt><trkpt lat="43.58845" lon="11.6128067"><ele>290.6</ele><time>2026-04-26T09:28:31.644Z</time></trkpt><trkpt lat="43.588555" lon="11.6127767"><ele>289.4</ele><time>2026-04-26T09:28:32.645Z</time></trkpt><trkpt lat="43.5886567" lon="11.6127667"><ele>288.2</ele><time>2026-04-26T09:28:33.646Z</time></trkpt><trkpt lat="43.5887533" lon="11.6127617"><ele>287.0</ele><time>2026-04-26T09:28:34.644Z</time></trkpt><trkpt lat="43.5888433" lon="11.6127517"><ele>287.0</ele><time>2026-04-26T09:28:35.644Z</time></trkpt><trkpt lat="43.5889317" lon="11.61274"><ele>287.0</ele><time>2026-04-26T09:28:36.645Z</time></trkpt><trkpt lat="43.5890183" lon="11.6127267"><ele>287.0</ele><time>2026-04-26T09:28:37.645Z</time></trkpt><trkpt lat="43.5890983" lon="11.6127067"><ele>287.0</ele><time>2026-04-26T09:28:38.645Z</time></trkpt><trkpt lat="43.5891733" lon="11.612665"><ele>287.0</ele><time>2026-04-26T09:28:39.644Z</time></trkpt><trkpt lat="43.589235" lon="11.6125867"><ele>287.0</ele><time>2026-04-26T09:28:40.644Z</time></trkpt><trkpt lat="43.58926" lon="11.6124733"><ele>287.0</ele><time>2026-04-26T09:28:41.644Z</time></trkpt><trkpt lat="43.58925" lon="11.6123533"><ele>287.0</ele><time>2026-04-26T09:28:42.646Z</time></trkpt><trkpt lat="43.5892367" lon="11.6122333"><ele>287.0</ele><time>2026-04-26T09:28:43.644Z</time></trkpt><trkpt lat="43.5892" lon="11.6121117"><ele>287.0</ele><time>2026-04-26T09:28:44.645Z</time></trkpt><trkpt lat="43.58915" lon="11.6120067"><ele>287.0</ele><time>2026-04-26T09:28:45.644Z</time></trkpt><trkpt lat="43.5890883" lon="11.6119117"><ele>286.6666666666667</ele><time>2026-04-26T09:28:46.645Z</time></trkpt><trkpt lat="43.58903" lon="11.6118217"><ele>286.33333333333337</ele><time>2026-04-26T09:28:47.644Z</time></trkpt><trkpt lat="43.58897" lon="11.61174"><ele>286.0</ele><time>2026-04-26T09:28:48.644Z</time></trkpt><trkpt lat="43.588895" lon="11.6116817"><ele>285.6666666666667</ele><time>2026-04-26T09:28:49.644Z</time></trkpt><trkpt lat="43.5888183" lon="11.6116317"><ele>285.3333333333333</ele><time>2026-04-26T09:28:50.646Z</time></trkpt><trkpt lat="43.588735" lon="11.6116"><ele>285.0</ele><time>2026-04-26T09:28:51.645Z</time></trkpt><trkpt lat="43.5886517" lon="11.6115733"><ele>285.0</ele><time>2026-04-26T09:28:52.644Z</time></trkpt><trkpt lat="43.5885917" lon="11.6115383"><ele>285.0</ele><time>2026-04-26T09:28:53.643Z</time></trkpt><trkpt lat="43.5885233" lon="11.6115117"><ele>285.0</ele><time>2026-04-26T09:28:54.645Z</time></trkpt><trkpt lat="43.5884583" lon="11.6114833"><ele>285.0</ele><time>2026-04-26T09:28:55.644Z</time></trkpt><trkpt lat="43.588345" lon="11.6114233"><ele>285.0</ele><time>2026-04-26T09:28:57.645Z</time></trkpt><trkpt lat="43.58823" lon="11.611355"><ele>285.0</ele><time>2026-04-26T09:28:59.645Z</time></trkpt><trkpt lat="43.5881333" lon="11.6112767"><ele>285.0</ele><time>2026-04-26T09:29:01.646Z</time></trkpt><trkpt lat="43.5880383" lon="11.61119"><ele>285.0</ele><time>2026-04-26T09:29:03.644Z</time></trkpt><trkpt lat="43.5879433" lon="11.6111083"><ele>285.0</ele><time>2026-04-26T09:29:05.645Z</time></trkpt><trkpt lat="43.587865" lon="11.6110233"><ele>285.0</ele><time>2026-04-26T09:29:07.644Z</time></trkpt><trkpt lat="43.5878" lon="11.6109217"><ele>285.6</ele><time>2026-04-26T09:29:09.645Z</time></trkpt><trkpt lat="43.587765" lon="11.6107933"><ele>286.2</ele><time>2026-04-26T09:29:11.644Z</time></trkpt><trkpt lat="43.5877767" lon="11.6106483"><ele>286.8</ele><time>2026-04-26T09:29:13.645Z</time></trkpt><trkpt lat="43.58781" lon="11.61051"><ele>287.4</ele><time>2026-04-26T09:29:15.647Z</time></trkpt><trkpt lat="43.5878467" lon="11.6103683"><ele>288.0</ele><time>2026-04-26T09:29:17.644Z</time></trkpt><trkpt lat="43.5878817" lon="11.610295"><ele>288.1666666666667</ele><time>2026-04-26T09:29:18.646Z</time></trkpt><trkpt lat="43.5879317" lon="11.6102333"><ele>288.3333333333333</ele><time>2026-04-26T09:29:19.645Z</time></trkpt><trkpt lat="43.5879867" lon="11.61018"><ele>288.5</ele><time>2026-04-26T09:29:20.647Z</time></trkpt><trkpt lat="43.5880467" lon="11.6101383"><ele>288.66666666666663</ele><time>2026-04-26T09:29:21.645Z</time></trkpt><trkpt lat="43.5881517" lon="11.610055"><ele>288.8333333333333</ele><time>2026-04-26T09:29:23.645Z</time></trkpt><trkpt lat="43.58821" lon="11.610015"><ele>289.0</ele><time>2026-04-26T09:29:24.647Z</time></trkpt><trkpt lat="43.58827" lon="11.60997"><ele>289.0</ele><time>2026-04-26T09:29:25.647Z</time></trkpt><trkpt lat="43.588335" lon="11.6099317"><ele>289.0</ele><time>2026-04-26T09:29:26.645Z</time></trkpt><trkpt lat="43.588405" lon="11.6098883"><ele>289.0</ele><time>2026-04-26T09:29:27.644Z</time></trkpt><trkpt lat="43.588475" lon="11.60984"><ele>289.0</ele><time>2026-04-26T09:29:28.645Z</time></trkpt><trkpt lat="43.58854" lon="11.609785"><ele>289.0</ele><time>2026-04-26T09:29:29.644Z</time></trkpt><trkpt lat="43.5885933" lon="11.6097183"><ele>289.0</ele><time>2026-04-26T09:29:30.643Z</time></trkpt><trkpt lat="43.5886433" lon="11.60964"><ele>289.0</ele><time>2026-04-26T09:29:31.642Z</time></trkpt><trkpt lat="43.588685" lon="11.609555"><ele>289.42857142857144</ele><time>2026-04-26T09:29:32.644Z</time></trkpt><trkpt lat="43.588715" lon="11.60947"><ele>289.85714285714283</ele><time>2026-04-26T09:29:33.647Z</time></trkpt><trkpt lat="43.5887367" lon="11.60938"><ele>290.2857142857143</ele><time>2026-04-26T09:29:34.645Z</time></trkpt><trkpt lat="43.5887583" lon="11.6092817"><ele>290.7142857142857</ele><time>2026-04-26T09:29:35.647Z</time></trkpt><trkpt lat="43.58877" lon="11.6091933"><ele>291.14285714285717</ele><time>2026-04-26T09:29:36.647Z</time></trkpt><trkpt lat="43.588785" lon="11.609105"><ele>291.57142857142856</ele><time>2026-04-26T09:29:37.646Z</time></trkpt><trkpt lat="43.5887983" lon="11.6090183"><ele>292.0</ele><time>2026-04-26T09:29:38.646Z</time></trkpt><trkpt lat="43.5888067" lon="11.60893"><ele>292.0</ele><time>2026-04-26T09:29:39.645Z</time></trkpt><trkpt lat="43.5888017" lon="11.608765"><ele>292.0</ele><time>2026-04-26T09:29:41.645Z</time></trkpt><trkpt lat="43.5887833" lon="11.6086083"><ele>292.0</ele><time>2026-04-26T09:29:43.643Z</time></trkpt><trkpt lat="43.5887583" lon="11.6084717"><ele>292.0</ele><time>2026-04-26T09:29:45.646Z</time></trkpt><trkpt lat="43.5887483" lon="11.6083483"><ele>292.0</ele><time>2026-04-26T09:29:47.645Z</time></trkpt><trkpt lat="43.5887433" lon="11.6082283"><ele>292.2</ele><time>2026-04-26T09:29:49.644Z</time></trkpt><trkpt lat="43.5887567" lon="11.6081033"><ele>292.4</ele><time>2026-04-26T09:29:51.643Z</time></trkpt><trkpt lat="43.5887967" lon="11.6079867"><ele>292.6</ele><time>2026-04-26T09:29:53.645Z</time></trkpt><trkpt lat="43.5888417" lon="11.607875"><ele>292.8</ele><time>2026-04-26T09:29:55.645Z</time></trkpt><trkpt lat="43.5888933" lon="11.6077833"><ele>293.0</ele><time>2026-04-26T09:29:57.644Z</time></trkpt><trkpt lat="43.58895" lon="11.60769"><ele>293.2</ele><time>2026-04-26T09:29:59.645Z</time></trkpt><trkpt lat="43.5890067" lon="11.6075933"><ele>293.4</ele><time>2026-04-26T09:30:01.644Z</time></trkpt><trkpt lat="43.58906" lon="11.6074817"><ele>293.59999999999997</ele><time>2026-04-26T09:30:03.645Z</time></trkpt><trkpt lat="43.58912" lon="11.6073783"><ele>293.8</ele><time>2026-04-26T09:30:05.645Z</time></trkpt><trkpt lat="43.5891767" lon="11.6072867"><ele>294.0</ele><time>2026-04-26T09:30:07.646Z</time></trkpt><trkpt lat="43.58923" lon="11.6071783"><ele>294.0</ele><time>2026-04-26T09:30:09.643Z</time></trkpt><trkpt lat="43.5892817" lon="11.6070783"><ele>294.0</ele><time>2026-04-26T09:30:11.645Z</time></trkpt><trkpt lat="43.5893317" lon="11.6069817"><ele>294.0</ele><time>2026-04-26T09:30:13.646Z</time></trkpt><trkpt lat="43.58939" lon="11.60688"><ele>294.0</ele><time>2026-04-26T09:30:15.644Z</time></trkpt><trkpt lat="43.5894417" lon="11.606775"><ele>294.0</ele><time>2026-04-26T09:30:17.642Z</time></trkpt><trkpt lat="43.5894967" lon="11.6066917"><ele>294.0</ele><time>2026-04-26T09:30:19.644Z</time></trkpt><trkpt lat="43.58957" lon="11.6066067"><ele>294.4</ele><time>2026-04-26T09:30:21.644Z</time></trkpt><trkpt lat="43.5896617" lon="11.6065333"><ele>294.79999999999995</ele><time>2026-04-26T09:30:23.645Z</time></trkpt><trkpt lat="43.5897583" lon="11.6064817"><ele>295.20000000000005</ele><time>2026-04-26T09:30:25.644Z</time></trkpt><trkpt lat="43.5898583" lon="11.6064367"><ele>295.6</ele><time>2026-04-26T09:30:27.647Z</time></trkpt><trkpt lat="43.5899767" lon="11.60639"><ele>296.0</ele><time>2026-04-26T09:30:29.644Z</time></trkpt><trkpt lat="43.590095" lon="11.60634"><ele>296.0</ele><time>2026-04-26T09:30:31.645Z</time></trkpt><trkpt lat="43.5902133" lon="11.6063083"><ele>296.0</ele><time>2026-04-26T09:30:33.646Z</time></trkpt><trkpt lat="43.5903333" lon="11.6063167"><ele>296.0</ele><time>2026-04-26T09:30:35.644Z</time></trkpt><trkpt lat="43.5904417" lon="11.6063917"><ele>296.0</ele><time>2026-04-26T09:30:37.645Z</time></trkpt><trkpt lat="43.5904983" lon="11.6064383"><ele>296.0</ele><time>2026-04-26T09:30:38.648Z</time></trkpt><trkpt lat="43.5905517" lon="11.6065067"><ele>295.6666666666667</ele><time>2026-04-26T09:30:39.644Z</time></trkpt><trkpt lat="43.5906" lon="11.6065867"><ele>295.33333333333337</ele><time>2026-04-26T09:30:40.643Z</time></trkpt><trkpt lat="43.59065" lon="11.6066617"><ele>295.0</ele><time>2026-04-26T09:30:41.644Z</time></trkpt><trkpt lat="43.5907033" lon="11.60674"><ele>294.6666666666667</ele><time>2026-04-26T09:30:42.645Z</time></trkpt><trkpt lat="43.5907633" lon="11.60681"><ele>294.3333333333333</ele><time>2026-04-26T09:30:43.647Z</time></trkpt><trkpt lat="43.590825" lon="11.6068717"><ele>294.0</ele><time>2026-04-26T09:30:44.645Z</time></trkpt><trkpt lat="43.590895" lon="11.6069217"><ele>294.0</ele><time>2026-04-26T09:30:45.644Z</time></trkpt><trkpt lat="43.590965" lon="11.60696"><ele>294.0</ele><time>2026-04-26T09:30:46.642Z</time></trkpt><trkpt lat="43.59103" lon="11.6069833"><ele>294.0</ele><time>2026-04-26T09:30:47.644Z</time></trkpt><trkpt lat="43.5911" lon="11.6069833"><ele>294.0</ele><time>2026-04-26T09:30:48.644Z</time></trkpt><trkpt lat="43.5911667" lon="11.6069583"><ele>294.0</ele><time>2026-04-26T09:30:49.644Z</time></trkpt><trkpt lat="43.5912067" lon="11.60688"><ele>294.0</ele><time>2026-04-26T09:30:50.647Z</time></trkpt><trkpt lat="43.59123" lon="11.60675"><ele>294.0</ele><time>2026-04-26T09:30:51.645Z</time></trkpt><trkpt lat="43.5912267" lon="11.6066483"><ele>294.0</ele><time>2026-04-26T09:30:52.646Z</time></trkpt><trkpt lat="43.5912067" lon="11.6065467"><ele>294.0</ele><time>2026-04-26T09:30:53.647Z</time></trkpt><trkpt lat="43.5911767" lon="11.6064533"><ele>294.0</ele><time>2026-04-26T09:30:54.645Z</time></trkpt><trkpt lat="43.5911333" lon="11.6063667"><ele>294.0</ele><time>2026-04-26T09:30:55.644Z</time></trkpt><trkpt lat="43.5911033" lon="11.6062783"><ele>294.0</ele><time>2026-04-26T09:30:56.646Z</time></trkpt><trkpt lat="43.5910817" lon="11.6061867"><ele>294.0</ele><time>2026-04-26T09:30:57.644Z</time></trkpt><trkpt lat="43.5910733" lon="11.6060933"><ele>294.0</ele><time>2026-04-26T09:30:58.644Z</time></trkpt><trkpt lat="43.5910683" lon="11.6060017"><ele>293.6666666666667</ele><time>2026-04-26T09:30:59.644Z</time></trkpt><trkpt lat="43.5910683" lon="11.6059117"><ele>293.3333333333333</ele><time>2026-04-26T09:31:00.645Z</time></trkpt><trkpt lat="43.5910783" lon="11.6058183"><ele>293.0</ele><time>2026-04-26T09:31:01.644Z</time></trkpt><trkpt lat="43.59109" lon="11.605725"><ele>292.66666666666663</ele><time>2026-04-26T09:31:02.644Z</time></trkpt><trkpt lat="43.591095" lon="11.6056317"><ele>292.3333333333333</ele><time>2026-04-26T09:31:03.645Z</time></trkpt><trkpt lat="43.5911067" lon="11.605545"><ele>292.0</ele><time>2026-04-26T09:31:04.643Z</time></trkpt><trkpt lat="43.591125" lon="11.6053767"><ele>291.75</ele><time>2026-04-26T09:31:06.644Z</time></trkpt><trkpt lat="43.5911283" lon="11.605215"><ele>291.5</ele><time>2026-04-26T09:31:08.645Z</time></trkpt><trkpt lat="43.5911467" lon="11.6050517"><ele>291.25</ele><time>2026-04-26T09:31:10.644Z</time></trkpt><trkpt lat="43.591175" lon="11.6048967"><ele>291.0</ele><time>2026-04-26T09:31:12.646Z</time></trkpt><trkpt lat="43.591235" lon="11.6047567"><ele>292.0</ele><time>2026-04-26T09:31:14.645Z</time></trkpt><trkpt lat="43.59128" lon="11.6046917"><ele>293.0</ele><time>2026-04-26T09:31:15.644Z</time></trkpt><trkpt lat="43.5913733" lon="11.604595"><ele>294.0</ele><time>2026-04-26T09:31:17.644Z</time></trkpt><trkpt lat="43.5914683" lon="11.604505"><ele>295.0</ele><time>2026-04-26T09:31:19.647Z</time></trkpt><trkpt lat="43.5915683" lon="11.6044233"><ele>296.0</ele><time>2026-04-26T09:31:21.644Z</time></trkpt><trkpt lat="43.59166" lon="11.604345"><ele>296.0</ele><time>2026-04-26T09:31:23.645Z</time></trkpt><trkpt lat="43.591745" lon="11.6042567"><ele>296.0</ele><time>2026-04-26T09:31:25.644Z</time></trkpt><trkpt lat="43.59184" lon="11.6041583"><ele>296.0</ele><time>2026-04-26T09:31:27.646Z</time></trkpt><trkpt lat="43.5919283" lon="11.60404"><ele>296.0</ele><time>2026-04-26T09:31:29.647Z</time></trkpt><trkpt lat="43.5919717" lon="11.6039767"><ele>296.0</ele><time>2026-04-26T09:31:30.646Z</time></trkpt><trkpt lat="43.5920517" lon="11.6038467"><ele>297.0</ele><time>2026-04-26T09:31:32.646Z</time></trkpt><trkpt lat="43.592125" lon="11.6037033"><ele>298.0</ele><time>2026-04-26T09:31:34.645Z</time></trkpt><trkpt lat="43.592165" lon="11.6036283"><ele>299.0</ele><time>2026-04-26T09:31:35.645Z</time></trkpt><trkpt lat="43.5922017" lon="11.6035517"><ele>300.0</ele><time>2026-04-26T09:31:36.646Z</time></trkpt><trkpt lat="43.5922367" lon="11.6034683"><ele>301.0</ele><time>2026-04-26T09:31:37.644Z</time></trkpt><trkpt lat="43.5922633" lon="11.6033817"><ele>302.0</ele><time>2026-04-26T09:31:38.647Z</time></trkpt><trkpt lat="43.59228" lon="11.6032933"><ele>302.00000000000006</ele><time>2026-04-26T09:31:39.644Z</time></trkpt><trkpt lat="43.5922833" lon="11.6031967"><ele>302.0</ele><time>2026-04-26T09:31:40.645Z</time></trkpt><trkpt lat="43.59227" lon="11.603105"><ele>302.0</ele><time>2026-04-26T09:31:41.646Z</time></trkpt><trkpt lat="43.592245" lon="11.6030217"><ele>302.0</ele><time>2026-04-26T09:31:42.647Z</time></trkpt><trkpt lat="43.5922083" lon="11.60295"><ele>302.0</ele><time>2026-04-26T09:31:43.645Z</time></trkpt><trkpt lat="43.5921583" lon="11.6028867"><ele>302.00000000000006</ele><time>2026-04-26T09:31:44.646Z</time></trkpt><trkpt lat="43.59211" lon="11.6028233"><ele>302.0</ele><time>2026-04-26T09:31:45.647Z</time></trkpt><trkpt lat="43.592065" lon="11.6027583"><ele>302.33333333333337</ele><time>2026-04-26T09:31:46.645Z</time></trkpt><trkpt lat="43.5920283" lon="11.602685"><ele>302.6666666666667</ele><time>2026-04-26T09:31:47.645Z</time></trkpt><trkpt lat="43.592005" lon="11.6025133"><ele>303.0</ele><time>2026-04-26T09:31:49.644Z</time></trkpt><trkpt lat="43.5920183" lon="11.6024133"><ele>303.3333333333333</ele><time>2026-04-26T09:31:50.647Z</time></trkpt><trkpt lat="43.5920717" lon="11.60233"><ele>303.66666666666663</ele><time>2026-04-26T09:31:51.646Z</time></trkpt><trkpt lat="43.5921267" lon="11.602255"><ele>304.0</ele><time>2026-04-26T09:31:52.645Z</time></trkpt><trkpt lat="43.5921783" lon="11.60218"><ele>304.0</ele><time>2026-04-26T09:31:53.647Z</time></trkpt><trkpt lat="43.592255" lon="11.6021283"><ele>304.0</ele><time>2026-04-26T09:31:54.643Z</time></trkpt><trkpt lat="43.5923217" lon="11.6020717"><ele>304.0</ele><time>2026-04-26T09:31:55.645Z</time></trkpt><trkpt lat="43.5923983" lon="11.6020267"><ele>304.0</ele><time>2026-04-26T09:31:56.643Z</time></trkpt><trkpt lat="43.5924717" lon="11.60198"><ele>304.0</ele><time>2026-04-26T09:31:57.645Z</time></trkpt><trkpt lat="43.5925417" lon="11.6019217"><ele>304.0</ele><time>2026-04-26T09:31:58.647Z</time></trkpt><trkpt lat="43.5926017" lon="11.6018483"><ele>302.8333333333333</ele><time>2026-04-26T09:31:59.643Z</time></trkpt><trkpt lat="43.5926417" lon="11.601765"><ele>301.66666666666663</ele><time>2026-04-26T09:32:00.644Z</time></trkpt><trkpt lat="43.59266" lon="11.60166"><ele>300.5</ele><time>2026-04-26T09:32:01.644Z</time></trkpt><trkpt lat="43.5926667" lon="11.6015467"><ele>299.3333333333333</ele><time>2026-04-26T09:32:02.645Z</time></trkpt><trkpt lat="43.5926517" lon="11.6014333"><ele>298.1666666666667</ele><time>2026-04-26T09:32:03.645Z</time></trkpt><trkpt lat="43.592615" lon="11.60134"><ele>297.0</ele><time>2026-04-26T09:32:04.646Z</time></trkpt><trkpt lat="43.592565" lon="11.6012667"><ele>297.0</ele><time>2026-04-26T09:32:05.645Z</time></trkpt><trkpt lat="43.5925133" lon="11.601195"><ele>297.0</ele><time>2026-04-26T09:32:06.646Z</time></trkpt><trkpt lat="43.5924583" lon="11.6011333"><ele>297.0</ele><time>2026-04-26T09:32:07.646Z</time></trkpt><trkpt lat="43.5924083" lon="11.6010717"><ele>297.0</ele><time>2026-04-26T09:32:08.645Z</time></trkpt><trkpt lat="43.5923533" lon="11.60101"><ele>297.0</ele><time>2026-04-26T09:32:09.644Z</time></trkpt><trkpt lat="43.5922967" lon="11.60095"><ele>297.0</ele><time>2026-04-26T09:32:10.644Z</time></trkpt><trkpt lat="43.592245" lon="11.60089"><ele>297.0</ele><time>2026-04-26T09:32:11.647Z</time></trkpt><trkpt lat="43.5921917" lon="11.60082"><ele>296.3333333333333</ele><time>2026-04-26T09:32:12.644Z</time></trkpt><trkpt lat="43.5921483" lon="11.6007517"><ele>295.6666666666667</ele><time>2026-04-26T09:32:13.646Z</time></trkpt><trkpt lat="43.5920783" lon="11.600605"><ele>295.0</ele><time>2026-04-26T09:32:15.646Z</time></trkpt><trkpt lat="43.59204" lon="11.6005283"><ele>294.33333333333337</ele><time>2026-04-26T09:32:16.644Z</time></trkpt><trkpt lat="43.5920067" lon="11.6004533"><ele>293.6666666666667</ele><time>2026-04-26T09:32:17.646Z</time></trkpt><trkpt lat="43.5919583" lon="11.6003767"><ele>293.0</ele><time>2026-04-26T09:32:18.647Z</time></trkpt><trkpt lat="43.5919233" lon="11.6002983"><ele>292.99999999999994</ele><time>2026-04-26T09:32:19.646Z</time></trkpt><trkpt lat="43.5918833" lon="11.60022"><ele>293.0</ele><time>2026-04-26T09:32:20.645Z</time></trkpt><trkpt lat="43.5918467" lon="11.6001383"><ele>293.0</ele><time>2026-04-26T09:32:21.645Z</time></trkpt><trkpt lat="43.591815" lon="11.6000517"><ele>293.0</ele><time>2026-04-26T09:32:22.644Z</time></trkpt><trkpt lat="43.5917867" lon="11.5999617"><ele>293.0</ele><time>2026-04-26T09:32:23.646Z</time></trkpt><trkpt lat="43.5917617" lon="11.5998717"><ele>292.99999999999994</ele><time>2026-04-26T09:32:24.647Z</time></trkpt><trkpt lat="43.591735" lon="11.59978"><ele>293.0</ele><time>2026-04-26T09:32:25.645Z</time></trkpt><trkpt lat="43.5917033" lon="11.5996883"><ele>293.0</ele><time>2026-04-26T09:32:26.646Z</time></trkpt><trkpt lat="43.5916783" lon="11.59959"><ele>293.0</ele><time>2026-04-26T09:32:27.646Z</time></trkpt><trkpt lat="43.59166" lon="11.5994883"><ele>293.0</ele><time>2026-04-26T09:32:28.645Z</time></trkpt><trkpt lat="43.591655" lon="11.59938"><ele>293.0</ele><time>2026-04-26T09:32:29.645Z</time></trkpt><trkpt lat="43.59166" lon="11.5992683"><ele>293.0</ele><time>2026-04-26T09:32:30.645Z</time></trkpt><trkpt lat="43.591675" lon="11.5991567"><ele>293.0</ele><time>2026-04-26T09:32:31.645Z</time></trkpt><trkpt lat="43.5917017" lon="11.599045"><ele>293.0</ele><time>2026-04-26T09:32:32.645Z</time></trkpt><trkpt lat="43.5917367" lon="11.59894"><ele>293.0</ele><time>2026-04-26T09:32:33.644Z</time></trkpt><trkpt lat="43.59178" lon="11.5988483"><ele>293.0</ele><time>2026-04-26T09:32:34.645Z</time></trkpt><trkpt lat="43.59183" lon="11.5987667"><ele>293.0</ele><time>2026-04-26T09:32:35.646Z</time></trkpt><trkpt lat="43.5918867" lon="11.5986867"><ele>293.0</ele><time>2026-04-26T09:32:36.645Z</time></trkpt><trkpt lat="43.5919467" lon="11.5985983"><ele>293.0</ele><time>2026-04-26T09:32:37.643Z</time></trkpt><trkpt lat="43.5920033" lon="11.5985133"><ele>294.0</ele><time>2026-04-26T09:32:38.645Z</time></trkpt><trkpt lat="43.5920567" lon="11.5984267"><ele>295.0</ele><time>2026-04-26T09:32:39.645Z</time></trkpt><trkpt lat="43.5920983" lon="11.5983333"><ele>296.0</ele><time>2026-04-26T09:32:40.645Z</time></trkpt><trkpt lat="43.5921283" lon="11.5982267"><ele>297.0</ele><time>2026-04-26T09:32:41.643Z</time></trkpt><trkpt lat="43.59214" lon="11.5981133"><ele>298.0</ele><time>2026-04-26T09:32:42.644Z</time></trkpt><trkpt lat="43.59214" lon="11.5979983"><ele>299.0</ele><time>2026-04-26T09:32:43.645Z</time></trkpt><trkpt lat="43.5921267" lon="11.5978883"><ele>298.5</ele><time>2026-04-26T09:32:44.645Z</time></trkpt><trkpt lat="43.5921183" lon="11.5977767"><ele>298.0</ele><time>2026-04-26T09:32:45.645Z</time></trkpt><trkpt lat="43.5921217" lon="11.59767"><ele>297.5</ele><time>2026-04-26T09:32:46.646Z</time></trkpt><trkpt lat="43.5921383" lon="11.59756"><ele>297.0</ele><time>2026-04-26T09:32:47.644Z</time></trkpt><trkpt lat="43.5921717" lon="11.5974617"><ele>296.5</ele><time>2026-04-26T09:32:48.644Z</time></trkpt><trkpt lat="43.5922133" lon="11.5973717"><ele>296.0</ele><time>2026-04-26T09:32:49.645Z</time></trkpt><trkpt lat="43.59226" lon="11.5972983"><ele>296.0</ele><time>2026-04-26T09:32:50.646Z</time></trkpt><trkpt lat="43.592315" lon="11.597245"><ele>296.0</ele><time>2026-04-26T09:32:51.643Z</time></trkpt><trkpt lat="43.5923733" lon="11.5971933"><ele>296.0</ele><time>2026-04-26T09:32:52.644Z</time></trkpt><trkpt lat="43.5924317" lon="11.5971283"><ele>296.0</ele><time>2026-04-26T09:32:53.646Z</time></trkpt><trkpt lat="43.5924867" lon="11.59707"><ele>296.0</ele><time>2026-04-26T09:32:54.645Z</time></trkpt><trkpt lat="43.59254" lon="11.597015"><ele>296.0</ele><time>2026-04-26T09:32:55.645Z</time></trkpt><trkpt lat="43.5925933" lon="11.596965"><ele>296.0</ele><time>2026-04-26T09:32:56.646Z</time></trkpt><trkpt lat="43.5926467" lon="11.5969133"><ele>297.0</ele><time>2026-04-26T09:32:57.644Z</time></trkpt><trkpt lat="43.5926983" lon="11.5968633"><ele>298.0</ele><time>2026-04-26T09:32:58.646Z</time></trkpt><trkpt lat="43.5928133" lon="11.5967833"><ele>299.0</ele><time>2026-04-26T09:33:00.646Z</time></trkpt><trkpt lat="43.5928783" lon="11.596755"><ele>300.0</ele><time>2026-04-26T09:33:01.646Z</time></trkpt><trkpt lat="43.592945" lon="11.596725"><ele>301.0</ele><time>2026-04-26T09:33:02.646Z</time></trkpt><trkpt lat="43.5930617" lon="11.5966567"><ele>301.0</ele><time>2026-04-26T09:33:04.647Z</time></trkpt><trkpt lat="43.5931133" lon="11.5966067"><ele>301.0</ele><time>2026-04-26T09:33:05.648Z</time></trkpt><trkpt lat="43.5931533" lon="11.5964583"><ele>301.0</ele><time>2026-04-26T09:33:07.648Z</time></trkpt><trkpt lat="43.5931167" lon="11.5963"><ele>301.0</ele><time>2026-04-26T09:33:09.646Z</time></trkpt><trkpt lat="43.5930167" lon="11.59619"><ele>301.0</ele><time>2026-04-26T09:33:11.645Z</time></trkpt><trkpt lat="43.59296" lon="11.59614"><ele>301.0</ele><time>2026-04-26T09:33:12.645Z</time></trkpt><trkpt lat="43.5929017" lon="11.596095"><ele>301.0</ele><time>2026-04-26T09:33:13.645Z</time></trkpt><trkpt lat="43.5928317" lon="11.5960567"><ele>301.0</ele><time>2026-04-26T09:33:14.644Z</time></trkpt><trkpt lat="43.5927633" lon="11.5960133"><ele>301.0</ele><time>2026-04-26T09:33:15.646Z</time></trkpt><trkpt lat="43.5927017" lon="11.5959617"><ele>301.0</ele><time>2026-04-26T09:33:16.645Z</time></trkpt><trkpt lat="43.5926383" lon="11.5959133"><ele>301.0</ele><time>2026-04-26T09:33:17.646Z</time></trkpt><trkpt lat="43.59258" lon="11.595855"><ele>301.0</ele><time>2026-04-26T09:33:18.647Z</time></trkpt><trkpt lat="43.5925283" lon="11.59579"><ele>300.14285714285717</ele><time>2026-04-26T09:33:19.644Z</time></trkpt><trkpt lat="43.5924717" lon="11.59572"><ele>299.2857142857143</ele><time>2026-04-26T09:33:20.645Z</time></trkpt><trkpt lat="43.5924267" lon="11.595645"><ele>298.42857142857144</ele><time>2026-04-26T09:33:21.645Z</time></trkpt><trkpt lat="43.5923833" lon="11.595565"><ele>297.57142857142856</ele><time>2026-04-26T09:33:22.644Z</time></trkpt><trkpt lat="43.5923483" lon="11.5954817"><ele>296.7142857142857</ele><time>2026-04-26T09:33:23.645Z</time></trkpt><trkpt lat="43.5923233" lon="11.595395"><ele>295.8571428571429</ele><time>2026-04-26T09:33:24.646Z</time></trkpt><trkpt lat="43.5923083" lon="11.5953067"><ele>295.0</ele><time>2026-04-26T09:33:25.645Z</time></trkpt><trkpt lat="43.5922983" lon="11.5952183"><ele>295.0</ele><time>2026-04-26T09:33:26.644Z</time></trkpt><trkpt lat="43.5922983" lon="11.59513"><ele>295.0</ele><time>2026-04-26T09:33:27.644Z</time></trkpt><trkpt lat="43.5923083" lon="11.5950417"><ele>295.0</ele><time>2026-04-26T09:33:28.643Z</time></trkpt><trkpt lat="43.5923383" lon="11.5948783"><ele>295.0</ele><time>2026-04-26T09:33:30.644Z</time></trkpt><trkpt lat="43.592365" lon="11.5947933"><ele>295.0</ele><time>2026-04-26T09:33:31.645Z</time></trkpt><trkpt lat="43.5924" lon="11.5947133"><ele>295.0</ele><time>2026-04-26T09:33:32.644Z</time></trkpt><trkpt lat="43.59244" lon="11.5946383"><ele>295.0</ele><time>2026-04-26T09:33:33.644Z</time></trkpt><trkpt lat="43.59249" lon="11.5945667"><ele>295.0</ele><time>2026-04-26T09:33:34.645Z</time></trkpt><trkpt lat="43.5925433" lon="11.5945"><ele>295.0</ele><time>2026-04-26T09:33:35.644Z</time></trkpt><trkpt lat="43.5926083" lon="11.59444"><ele>295.0</ele><time>2026-04-26T09:33:36.645Z</time></trkpt><trkpt lat="43.592675" lon="11.594385"><ele>295.0</ele><time>2026-04-26T09:33:37.644Z</time></trkpt><trkpt lat="43.5927467" lon="11.5943283"><ele>295.0</ele><time>2026-04-26T09:33:38.646Z</time></trkpt><trkpt lat="43.5928217" lon="11.5942683"><ele>294.4</ele><time>2026-04-26T09:33:39.643Z</time></trkpt><trkpt lat="43.5929033" lon="11.5942033"><ele>293.8</ele><time>2026-04-26T09:33:40.645Z</time></trkpt><trkpt lat="43.592985" lon="11.594145"><ele>293.2</ele><time>2026-04-26T09:33:41.643Z</time></trkpt><trkpt lat="43.593065" lon="11.594085"><ele>292.6</ele><time>2026-04-26T09:33:42.646Z</time></trkpt><trkpt lat="43.5931467" lon="11.5940317"><ele>292.0</ele><time>2026-04-26T09:33:43.644Z</time></trkpt><trkpt lat="43.5932217" lon="11.5939717"><ele>292.0</ele><time>2026-04-26T09:33:44.644Z</time></trkpt><trkpt lat="43.593295" lon="11.5939033"><ele>292.0</ele><time>2026-04-26T09:33:45.644Z</time></trkpt><trkpt lat="43.5933617" lon="11.5938167"><ele>292.0</ele><time>2026-04-26T09:33:46.645Z</time></trkpt><trkpt lat="43.5934217" lon="11.5937267"><ele>292.0</ele><time>2026-04-26T09:33:47.645Z</time></trkpt><trkpt lat="43.5934517" lon="11.593615"><ele>292.0</ele><time>2026-04-26T09:33:48.646Z</time></trkpt><trkpt lat="43.59345" lon="11.5934833"><ele>290.8</ele><time>2026-04-26T09:33:49.644Z</time></trkpt><trkpt lat="43.5934317" lon="11.5933533"><ele>289.6</ele><time>2026-04-26T09:33:50.645Z</time></trkpt><trkpt lat="43.5934" lon="11.593225"><ele>288.40000000000003</ele><time>2026-04-26T09:33:51.646Z</time></trkpt><trkpt lat="43.5933717" lon="11.5930967"><ele>287.2</ele><time>2026-04-26T09:33:52.646Z</time></trkpt><trkpt lat="43.5933417" lon="11.5929767"><ele>286.0</ele><time>2026-04-26T09:33:53.644Z</time></trkpt><trkpt lat="43.5933067" lon="11.5928583"><ele>285.8333333333333</ele><time>2026-04-26T09:33:54.645Z</time></trkpt><trkpt lat="43.5932833" lon="11.59274"><ele>285.66666666666663</ele><time>2026-04-26T09:33:55.642Z</time></trkpt><trkpt lat="43.5932617" lon="11.5926233"><ele>285.5</ele><time>2026-04-26T09:33:56.644Z</time></trkpt><trkpt lat="43.5932283" lon="11.592515"><ele>285.3333333333333</ele><time>2026-04-26T09:33:57.644Z</time></trkpt><trkpt lat="43.5932067" lon="11.5924033"><ele>285.1666666666667</ele><time>2026-04-26T09:33:58.642Z</time></trkpt><trkpt lat="43.5931933" lon="11.5922933"><ele>285.0</ele><time>2026-04-26T09:33:59.643Z</time></trkpt><trkpt lat="43.59319" lon="11.59218"><ele>285.0</ele><time>2026-04-26T09:34:00.645Z</time></trkpt><trkpt lat="43.5932033" lon="11.592075"><ele>285.0</ele><time>2026-04-26T09:34:01.644Z</time></trkpt><trkpt lat="43.59329" lon="11.5919917"><ele>285.0</ele><time>2026-04-26T09:34:02.645Z</time></trkpt><trkpt lat="43.593385" lon="11.5919317"><ele>285.0</ele><time>2026-04-26T09:34:03.646Z</time></trkpt><trkpt lat="43.59348" lon="11.5918917"><ele>285.0</ele><time>2026-04-26T09:34:04.646Z</time></trkpt><trkpt lat="43.5935717" lon="11.5918667"><ele>285.6666666666667</ele><time>2026-04-26T09:34:05.642Z</time></trkpt><trkpt lat="43.5936633" lon="11.591845"><ele>286.3333333333333</ele><time>2026-04-26T09:34:06.645Z</time></trkpt><trkpt lat="43.593745" lon="11.59181"><ele>287.0</ele><time>2026-04-26T09:34:07.645Z</time></trkpt><trkpt lat="43.593805" lon="11.5917333"><ele>287.66666666666663</ele><time>2026-04-26T09:34:08.646Z</time></trkpt><trkpt lat="43.5938433" lon="11.59162"><ele>288.3333333333333</ele><time>2026-04-26T09:34:09.644Z</time></trkpt><trkpt lat="43.5938483" lon="11.5915017"><ele>289.0</ele><time>2026-04-26T09:34:10.643Z</time></trkpt><trkpt lat="43.5938417" lon="11.59138"><ele>289.0</ele><time>2026-04-26T09:34:11.642Z</time></trkpt><trkpt lat="43.593835" lon="11.5912667"><ele>289.0</ele><time>2026-04-26T09:34:12.644Z</time></trkpt><trkpt lat="43.5938417" lon="11.5911617"><ele>289.0</ele><time>2026-04-26T09:34:13.644Z</time></trkpt><trkpt lat="43.593855" lon="11.59106"><ele>289.0</ele><time>2026-04-26T09:34:14.646Z</time></trkpt><trkpt lat="43.5938767" lon="11.5909683"><ele>289.0</ele><time>2026-04-26T09:34:15.644Z</time></trkpt><trkpt lat="43.5939" lon="11.5908833"><ele>289.0</ele><time>2026-04-26T09:34:16.644Z</time></trkpt><trkpt lat="43.5939283" lon="11.5908017"><ele>289.0</ele><time>2026-04-26T09:34:17.645Z</time></trkpt><trkpt lat="43.59399" lon="11.5906567"><ele>288.5</ele><time>2026-04-26T09:34:19.645Z</time></trkpt><trkpt lat="43.5940483" lon="11.5905183"><ele>288.0</ele><time>2026-04-26T09:34:21.646Z</time></trkpt><trkpt lat="43.594115" lon="11.5903817"><ele>287.5</ele><time>2026-04-26T09:34:23.644Z</time></trkpt><trkpt lat="43.5941883" lon="11.5902417"><ele>287.0</ele><time>2026-04-26T09:34:25.644Z</time></trkpt><trkpt lat="43.5942467" lon="11.5901117"><ele>286.0</ele><time>2026-04-26T09:34:27.646Z</time></trkpt><trkpt lat="43.5943133" lon="11.589985"><ele>285.0</ele><time>2026-04-26T09:34:29.645Z</time></trkpt><trkpt lat="43.594375" lon="11.5898383"><ele>284.0</ele><time>2026-04-26T09:34:31.645Z</time></trkpt><trkpt lat="43.5944017" lon="11.5897533"><ele>283.0</ele><time>2026-04-26T09:34:32.644Z</time></trkpt><trkpt lat="43.5944317" lon="11.5896733"><ele>282.0</ele><time>2026-04-26T09:34:33.647Z</time></trkpt><trkpt lat="43.5944633" lon="11.58959"><ele>281.0</ele><time>2026-04-26T09:34:34.645Z</time></trkpt><trkpt lat="43.5944883" lon="11.5895033"><ele>282.5714285714286</ele><time>2026-04-26T09:34:35.646Z</time></trkpt><trkpt lat="43.5945133" lon="11.5894083"><ele>284.14285714285717</ele><time>2026-04-26T09:34:36.646Z</time></trkpt><trkpt lat="43.5945383" lon="11.5893117"><ele>285.7142857142857</ele><time>2026-04-26T09:34:37.645Z</time></trkpt><trkpt lat="43.5945617" lon="11.5892183"><ele>287.28571428571433</ele><time>2026-04-26T09:34:38.645Z</time></trkpt><trkpt lat="43.594575" lon="11.5891183"><ele>288.8571428571429</ele><time>2026-04-26T09:34:39.645Z</time></trkpt><trkpt lat="43.594575" lon="11.5890167"><ele>290.42857142857144</ele><time>2026-04-26T09:34:40.644Z</time></trkpt><trkpt lat="43.5945667" lon="11.58892"><ele>292.0</ele><time>2026-04-26T09:34:41.645Z</time></trkpt><trkpt lat="43.5945533" lon="11.5888233"><ele>292.0</ele><time>2026-04-26T09:34:42.646Z</time></trkpt><trkpt lat="43.5945367" lon="11.5887317"><ele>292.0</ele><time>2026-04-26T09:34:43.645Z</time></trkpt><trkpt lat="43.5945167" lon="11.588645"><ele>292.0</ele><time>2026-04-26T09:34:44.647Z</time></trkpt><trkpt lat="43.5944983" lon="11.5885583"><ele>292.0</ele><time>2026-04-26T09:34:45.644Z</time></trkpt><trkpt lat="43.5944783" lon="11.5884733"><ele>292.0</ele><time>2026-04-26T09:34:46.645Z</time></trkpt><trkpt lat="43.5944567" lon="11.5883867"><ele>292.0</ele><time>2026-04-26T09:34:47.644Z</time></trkpt><trkpt lat="43.59444" lon="11.5883017"><ele>292.0</ele><time>2026-04-26T09:34:48.645Z</time></trkpt><trkpt lat="43.5944317" lon="11.5882133"><ele>291.85714285714283</ele><time>2026-04-26T09:34:49.644Z</time></trkpt><trkpt lat="43.5944267" lon="11.58812"><ele>291.7142857142857</ele><time>2026-04-26T09:34:50.645Z</time></trkpt><trkpt lat="43.5944283" lon="11.5880283"><ele>291.57142857142856</ele><time>2026-04-26T09:34:51.643Z</time></trkpt><trkpt lat="43.594435" lon="11.5879383"><ele>291.42857142857144</ele><time>2026-04-26T09:34:52.645Z</time></trkpt><trkpt lat="43.5944433" lon="11.5878467"><ele>291.2857142857143</ele><time>2026-04-26T09:34:53.644Z</time></trkpt><trkpt lat="43.5944583" lon="11.5877583"><ele>291.1428571428571</ele><time>2026-04-26T09:34:54.646Z</time></trkpt><trkpt lat="43.5944783" lon="11.5876717"><ele>291.0</ele><time>2026-04-26T09:34:55.645Z</time></trkpt><trkpt lat="43.594505" lon="11.5875833"><ele>291.0</ele><time>2026-04-26T09:34:56.645Z</time></trkpt><trkpt lat="43.59453" lon="11.587495"><ele>291.0</ele><time>2026-04-26T09:34:57.645Z</time></trkpt><trkpt lat="43.5945633" lon="11.5874133"><ele>291.0</ele><time>2026-04-26T09:34:58.646Z</time></trkpt><trkpt lat="43.5945983" lon="11.5873317"><ele>291.0</ele><time>2026-04-26T09:34:59.646Z</time></trkpt><trkpt lat="43.5946317" lon="11.5872533"><ele>291.0</ele><time>2026-04-26T09:35:00.644Z</time></trkpt><trkpt lat="43.5946717" lon="11.5871817"><ele>291.0</ele><time>2026-04-26T09:35:01.646Z</time></trkpt><trkpt lat="43.59472" lon="11.58712"><ele>291.0</ele><time>2026-04-26T09:35:02.647Z</time></trkpt><trkpt lat="43.5947733" lon="11.5870617"><ele>289.85714285714283</ele><time>2026-04-26T09:35:03.643Z</time></trkpt><trkpt lat="43.59483" lon="11.587"><ele>288.71428571428567</ele><time>2026-04-26T09:35:04.644Z</time></trkpt><trkpt lat="43.5948967" lon="11.5869517"><ele>287.57142857142856</ele><time>2026-04-26T09:35:05.647Z</time></trkpt><trkpt lat="43.5949633" lon="11.5869067"><ele>286.42857142857144</ele><time>2026-04-26T09:35:06.647Z</time></trkpt><trkpt lat="43.5950317" lon="11.5868617"><ele>285.28571428571433</ele><time>2026-04-26T09:35:07.644Z</time></trkpt><trkpt lat="43.5951033" lon="11.5868267"><ele>284.14285714285717</ele><time>2026-04-26T09:35:08.646Z</time></trkpt><trkpt lat="43.5951733" lon="11.5868017"><ele>283.0</ele><time>2026-04-26T09:35:09.645Z</time></trkpt><trkpt lat="43.5952517" lon="11.5868"><ele>283.0</ele><time>2026-04-26T09:35:10.644Z</time></trkpt><trkpt lat="43.5953283" lon="11.5868133"><ele>283.0</ele><time>2026-04-26T09:35:11.644Z</time></trkpt><trkpt lat="43.5954033" lon="11.5868317"><ele>283.0</ele><time>2026-04-26T09:35:12.646Z</time></trkpt><trkpt lat="43.5954767" lon="11.586855"><ele>283.0</ele><time>2026-04-26T09:35:13.645Z</time></trkpt><trkpt lat="43.5955483" lon="11.58688"><ele>283.0</ele><time>2026-04-26T09:35:14.646Z</time></trkpt><trkpt lat="43.5956233" lon="11.58691"><ele>283.0</ele><time>2026-04-26T09:35:15.645Z</time></trkpt><trkpt lat="43.595695" lon="11.5869483"><ele>282.5</ele><time>2026-04-26T09:35:16.645Z</time></trkpt><trkpt lat="43.5957667" lon="11.5869883"><ele>282.0</ele><time>2026-04-26T09:35:17.644Z</time></trkpt><trkpt lat="43.5958367" lon="11.5870267"><ele>281.5</ele><time>2026-04-26T09:35:18.647Z</time></trkpt><trkpt lat="43.59591" lon="11.5870683"><ele>281.0</ele><time>2026-04-26T09:35:19.644Z</time></trkpt><trkpt lat="43.59598" lon="11.5871117"><ele>280.5</ele><time>2026-04-26T09:35:20.646Z</time></trkpt><trkpt lat="43.59605" lon="11.587155"><ele>280.0</ele><time>2026-04-26T09:35:21.645Z</time></trkpt><trkpt lat="43.5961233" lon="11.58719"><ele>280.8333333333333</ele><time>2026-04-26T09:35:22.645Z</time></trkpt><trkpt lat="43.5962033" lon="11.587205"><ele>281.66666666666663</ele><time>2026-04-26T09:35:23.645Z</time></trkpt><trkpt lat="43.596285" lon="11.5871983"><ele>282.5</ele><time>2026-04-26T09:35:24.645Z</time></trkpt><trkpt lat="43.59636" lon="11.5871633"><ele>283.3333333333333</ele><time>2026-04-26T09:35:25.644Z</time></trkpt><trkpt lat="43.59643" lon="11.5871067"><ele>284.1666666666667</ele><time>2026-04-26T09:35:26.646Z</time></trkpt><trkpt lat="43.5964917" lon="11.58704"><ele>285.0</ele><time>2026-04-26T09:35:27.644Z</time></trkpt><trkpt lat="43.5965517" lon="11.586975"><ele>285.0</ele><time>2026-04-26T09:35:28.645Z</time></trkpt><trkpt lat="43.59661" lon="11.5869067"><ele>285.0</ele><time>2026-04-26T09:35:29.644Z</time></trkpt><trkpt lat="43.59666" lon="11.5868467"><ele>285.0</ele><time>2026-04-26T09:35:30.645Z</time></trkpt><trkpt lat="43.596715" lon="11.586775"><ele>285.0</ele><time>2026-04-26T09:35:31.645Z</time></trkpt><trkpt lat="43.5967717" lon="11.5866317"><ele>285.0</ele><time>2026-04-26T09:35:33.645Z</time></trkpt><trkpt lat="43.5967817" lon="11.586545"><ele>285.0</ele><time>2026-04-26T09:35:34.644Z</time></trkpt><trkpt lat="43.596795" lon="11.5863967"><ele>285.0</ele><time>2026-04-26T09:35:36.646Z</time></trkpt><trkpt lat="43.5968017" lon="11.586245"><ele>285.0</ele><time>2026-04-26T09:35:38.646Z</time></trkpt><trkpt lat="43.5968167" lon="11.5861033"><ele>285.0</ele><time>2026-04-26T09:35:40.644Z</time></trkpt><trkpt lat="43.5968583" lon="11.58598"><ele>285.0</ele><time>2026-04-26T09:35:42.644Z</time></trkpt><trkpt lat="43.5969133" lon="11.5858767"><ele>285.0</ele><time>2026-04-26T09:35:44.645Z</time></trkpt><trkpt lat="43.596965" lon="11.5858067"><ele>286.6666666666667</ele><time>2026-04-26T09:35:46.644Z</time></trkpt><trkpt lat="43.59704" lon="11.5857433"><ele>288.3333333333333</ele><time>2026-04-26T09:35:48.644Z</time></trkpt><trkpt lat="43.5971233" lon="11.5856933"><ele>290.0</ele><time>2026-04-26T09:35:50.645Z</time></trkpt><trkpt lat="43.5972033" lon="11.5856433"><ele>291.66666666666663</ele><time>2026-04-26T09:35:52.644Z</time></trkpt><trkpt lat="43.5972867" lon="11.5856117"><ele>293.3333333333333</ele><time>2026-04-26T09:35:54.646Z</time></trkpt><trkpt lat="43.5973683" lon="11.5855767"><ele>295.0</ele><time>2026-04-26T09:35:56.646Z</time></trkpt><trkpt lat="43.5974583" lon="11.585525"><ele>295.0</ele><time>2026-04-26T09:35:58.646Z</time></trkpt><trkpt lat="43.5975433" lon="11.5854767"><ele>295.0</ele><time>2026-04-26T09:36:00.645Z</time></trkpt><trkpt lat="43.5976233" lon="11.585445"><ele>295.0</ele><time>2026-04-26T09:36:02.644Z</time></trkpt><trkpt lat="43.5977067" lon="11.5854083"><ele>295.0</ele><time>2026-04-26T09:36:04.644Z</time></trkpt><trkpt lat="43.59779" lon="11.5853667"><ele>295.0</ele><time>2026-04-26T09:36:06.647Z</time></trkpt><trkpt lat="43.597875" lon="11.5852983"><ele>295.6</ele><time>2026-04-26T09:36:08.646Z</time></trkpt><trkpt lat="43.597925" lon="11.58523"><ele>296.2</ele><time>2026-04-26T09:36:09.646Z</time></trkpt><trkpt lat="43.5979933" lon="11.585105"><ele>296.8</ele><time>2026-04-26T09:36:11.645Z</time></trkpt><trkpt lat="43.59805" lon="11.58499"><ele>297.4</ele><time>2026-04-26T09:36:13.646Z</time></trkpt><trkpt lat="43.5980983" lon="11.584875"><ele>298.0</ele><time>2026-04-26T09:36:15.646Z</time></trkpt><trkpt lat="43.5981417" lon="11.58476"><ele>298.0</ele><time>2026-04-26T09:36:17.645Z</time></trkpt><trkpt lat="43.5981783" lon="11.5846567"><ele>298.0</ele><time>2026-04-26T09:36:19.646Z</time></trkpt><trkpt lat="43.5982283" lon="11.5845417"><ele>298.0</ele><time>2026-04-26T09:36:21.644Z</time></trkpt><trkpt lat="43.5982967" lon="11.58445"><ele>298.0</ele><time>2026-04-26T09:36:23.646Z</time></trkpt><trkpt lat="43.5983767" lon="11.5843767"><ele>298.0</ele><time>2026-04-26T09:36:25.645Z</time></trkpt><trkpt lat="43.5984733" lon="11.5843333"><ele>297.0</ele><time>2026-04-26T09:36:27.644Z</time></trkpt><trkpt lat="43.5985817" lon="11.5843117"><ele>296.0</ele><time>2026-04-26T09:36:29.645Z</time></trkpt><trkpt lat="43.5987017" lon="11.5842667"><ele>295.0</ele><time>2026-04-26T09:36:31.647Z</time></trkpt><trkpt lat="43.5987583" lon="11.5842283"><ele>294.0</ele><time>2026-04-26T09:36:32.648Z</time></trkpt><trkpt lat="43.598855" lon="11.5841317"><ele>293.0</ele><time>2026-04-26T09:36:34.644Z</time></trkpt><trkpt lat="43.5988967" lon="11.5839817"><ele>294.4</ele><time>2026-04-26T09:36:36.645Z</time></trkpt><trkpt lat="43.5988967" lon="11.5838267"><ele>295.8</ele><time>2026-04-26T09:36:38.645Z</time></trkpt><trkpt lat="43.5988883" lon="11.58368"><ele>297.2</ele><time>2026-04-26T09:36:40.647Z</time></trkpt><trkpt lat="43.5988767" lon="11.5835333"><ele>298.6</ele><time>2026-04-26T09:36:42.645Z</time></trkpt><trkpt lat="43.598875" lon="11.5833917"><ele>300.0</ele><time>2026-04-26T09:36:44.646Z</time></trkpt><trkpt lat="43.5988683" lon="11.5832517"><ele>300.0</ele><time>2026-04-26T09:36:46.645Z</time></trkpt><trkpt lat="43.5988633" lon="11.583095"><ele>300.0</ele><time>2026-04-26T09:36:48.646Z</time></trkpt><trkpt lat="43.59887" lon="11.5829417"><ele>300.0</ele><time>2026-04-26T09:36:50.646Z</time></trkpt><trkpt lat="43.5988883" lon="11.5827833"><ele>300.0</ele><time>2026-04-26T09:36:52.647Z</time></trkpt><trkpt lat="43.5989183" lon="11.5826117"><ele>299.57142857142856</ele><time>2026-04-26T09:36:54.646Z</time></trkpt><trkpt lat="43.5989367" lon="11.5825233"><ele>299.1428571428571</ele><time>2026-04-26T09:36:55.645Z</time></trkpt><trkpt lat="43.5989517" lon="11.5824367"><ele>298.7142857142857</ele><time>2026-04-26T09:36:56.647Z</time></trkpt><trkpt lat="43.5989683" lon="11.5823467"><ele>298.2857142857143</ele><time>2026-04-26T09:36:57.649Z</time></trkpt><trkpt lat="43.5989883" lon="11.582255"><ele>297.8571428571429</ele><time>2026-04-26T09:36:58.647Z</time></trkpt><trkpt lat="43.599005" lon="11.5821633"><ele>297.42857142857144</ele><time>2026-04-26T09:36:59.645Z</time></trkpt><trkpt lat="43.5990233" lon="11.5820683"><ele>297.0</ele><time>2026-04-26T09:37:00.646Z</time></trkpt><trkpt lat="43.5990417" lon="11.581975"><ele>296.42857142857144</ele><time>2026-04-26T09:37:01.644Z</time></trkpt><trkpt lat="43.5990633" lon="11.5818817"><ele>295.8571428571429</ele><time>2026-04-26T09:37:02.646Z</time></trkpt><trkpt lat="43.5990883" lon="11.5817917"><ele>295.2857142857143</ele><time>2026-04-26T09:37:03.644Z</time></trkpt><trkpt lat="43.5991217" lon="11.5817117"><ele>294.7142857142857</ele><time>2026-04-26T09:37:04.646Z</time></trkpt><trkpt lat="43.59916" lon="11.581635"><ele>294.1428571428571</ele><time>2026-04-26T09:37:05.647Z</time></trkpt><trkpt lat="43.5992017" lon="11.5815667"><ele>293.57142857142856</ele><time>2026-04-26T09:37:06.647Z</time></trkpt><trkpt lat="43.599265" lon="11.58151"><ele>293.0</ele><time>2026-04-26T09:37:07.648Z</time></trkpt><trkpt lat="43.599335" lon="11.5814917"><ele>293.0</ele><time>2026-04-26T09:37:08.645Z</time></trkpt><trkpt lat="43.599405" lon="11.5815017"><ele>293.0</ele><time>2026-04-26T09:37:09.646Z</time></trkpt><trkpt lat="43.5994783" lon="11.5815"><ele>293.0</ele><time>2026-04-26T09:37:10.644Z</time></trkpt><trkpt lat="43.5995533" lon="11.5815183"><ele>293.0</ele><time>2026-04-26T09:37:11.646Z</time></trkpt><trkpt lat="43.5996233" lon="11.5815483"><ele>293.0</ele><time>2026-04-26T09:37:12.643Z</time></trkpt><trkpt lat="43.5996983" lon="11.5815983"><ele>293.0</ele><time>2026-04-26T09:37:13.646Z</time></trkpt><trkpt lat="43.59977" lon="11.5816533"><ele>292.0</ele><time>2026-04-26T09:37:14.647Z</time></trkpt><trkpt lat="43.5998217" lon="11.581745"><ele>291.0</ele><time>2026-04-26T09:37:15.644Z</time></trkpt><trkpt lat="43.59987" lon="11.581845"><ele>290.0</ele><time>2026-04-26T09:37:16.644Z</time></trkpt><trkpt lat="43.59994" lon="11.5819433"><ele>289.0</ele><time>2026-04-26T09:37:17.645Z</time></trkpt><trkpt lat="43.6000033" lon="11.582035"><ele>288.0</ele><time>2026-04-26T09:37:18.647Z</time></trkpt><trkpt lat="43.6000683" lon="11.582125"><ele>289.4</ele><time>2026-04-26T09:37:19.645Z</time></trkpt><trkpt lat="43.6001367" lon="11.58221"><ele>290.8</ele><time>2026-04-26T09:37:20.645Z</time></trkpt><trkpt lat="43.6002033" lon="11.5822933"><ele>292.2</ele><time>2026-04-26T09:37:21.645Z</time></trkpt><trkpt lat="43.6002733" lon="11.58238"><ele>293.6</ele><time>2026-04-26T09:37:22.644Z</time></trkpt><trkpt lat="43.6003383" lon="11.58247"><ele>295.0</ele><time>2026-04-26T09:37:23.648Z</time></trkpt><trkpt lat="43.6004033" lon="11.5825733"><ele>295.0</ele><time>2026-04-26T09:37:24.646Z</time></trkpt><trkpt lat="43.600465" lon="11.58267"><ele>295.0</ele><time>2026-04-26T09:37:25.644Z</time></trkpt><trkpt lat="43.600525" lon="11.5827567"><ele>295.0</ele><time>2026-04-26T09:37:26.647Z</time></trkpt><trkpt lat="43.600585" lon="11.58282"><ele>295.0</ele><time>2026-04-26T09:37:27.643Z</time></trkpt><trkpt lat="43.60065" lon="11.5828517"><ele>295.0</ele><time>2026-04-26T09:37:28.645Z</time></trkpt><trkpt lat="43.6007333" lon="11.582775"><ele>295.0</ele><time>2026-04-26T09:37:29.645Z</time></trkpt><trkpt lat="43.6007967" lon="11.5826967"><ele>295.0</ele><time>2026-04-26T09:37:30.646Z</time></trkpt><trkpt lat="43.6008417" lon="11.582605"><ele>295.0</ele><time>2026-04-26T09:37:31.646Z</time></trkpt><trkpt lat="43.600875" lon="11.5825067"><ele>295.0</ele><time>2026-04-26T09:37:32.646Z</time></trkpt><trkpt lat="43.6008867" lon="11.582405"><ele>295.0</ele><time>2026-04-26T09:37:33.645Z</time></trkpt><trkpt lat="43.6008817" lon="11.5822933"><ele>295.0</ele><time>2026-04-26T09:37:34.647Z</time></trkpt><trkpt lat="43.60086" lon="11.5821933"><ele>295.0</ele><time>2026-04-26T09:37:35.645Z</time></trkpt><trkpt lat="43.6008117" lon="11.5820933"><ele>295.28571428571433</ele><time>2026-04-26T09:37:36.644Z</time></trkpt><trkpt lat="43.6007733" lon="11.5820083"><ele>295.57142857142856</ele><time>2026-04-26T09:37:37.644Z</time></trkpt><trkpt lat="43.6007333" lon="11.5819283"><ele>295.8571428571429</ele><time>2026-04-26T09:37:38.645Z</time></trkpt><trkpt lat="43.600695" lon="11.5818467"><ele>296.14285714285717</ele><time>2026-04-26T09:37:39.645Z</time></trkpt><trkpt lat="43.6006667" lon="11.58175"><ele>296.42857142857144</ele><time>2026-04-26T09:37:40.644Z</time></trkpt><trkpt lat="43.600645" lon="11.581655"><ele>296.7142857142857</ele><time>2026-04-26T09:37:41.643Z</time></trkpt><trkpt lat="43.6006233" lon="11.5815617"><ele>297.0</ele><time>2026-04-26T09:37:42.646Z</time></trkpt><trkpt lat="43.6006033" lon="11.5814733"><ele>297.0</ele><time>2026-04-26T09:37:43.646Z</time></trkpt><trkpt lat="43.6005817" lon="11.5813817"><ele>297.0</ele><time>2026-04-26T09:37:44.646Z</time></trkpt><trkpt lat="43.6005617" lon="11.5812867"><ele>297.0</ele><time>2026-04-26T09:37:45.644Z</time></trkpt><trkpt lat="43.6005483" lon="11.58119"><ele>297.0</ele><time>2026-04-26T09:37:46.647Z</time></trkpt><trkpt lat="43.6005317" lon="11.581095"><ele>297.0</ele><time>2026-04-26T09:37:47.644Z</time></trkpt><trkpt lat="43.6005133" lon="11.581005"><ele>297.0</ele><time>2026-04-26T09:37:48.646Z</time></trkpt><trkpt lat="43.6004917" lon="11.58091"><ele>297.0</ele><time>2026-04-26T09:37:49.646Z</time></trkpt><trkpt lat="43.6004783" lon="11.580815"><ele>297.1666666666667</ele><time>2026-04-26T09:37:50.646Z</time></trkpt><trkpt lat="43.6004617" lon="11.58073"><ele>297.3333333333333</ele><time>2026-04-26T09:37:51.646Z</time></trkpt><trkpt lat="43.6004417" lon="11.5806417"><ele>297.5</ele><time>2026-04-26T09:37:52.645Z</time></trkpt><trkpt lat="43.60041" lon="11.58048"><ele>297.66666666666663</ele><time>2026-04-26T09:37:54.646Z</time></trkpt><trkpt lat="43.60041" lon="11.5803817"><ele>297.8333333333333</ele><time>2026-04-26T09:37:55.644Z</time></trkpt><trkpt lat="43.6004133" lon="11.5802183"><ele>298.0</ele><time>2026-04-26T09:37:57.644Z</time></trkpt><trkpt lat="43.6004333" lon="11.580125"><ele>297.6</ele><time>2026-04-26T09:37:58.645Z</time></trkpt><trkpt lat="43.6004817" lon="11.5799767"><ele>297.20000000000005</ele><time>2026-04-26T09:38:00.645Z</time></trkpt><trkpt lat="43.60052" lon="11.5799067"><ele>296.8</ele><time>2026-04-26T09:38:01.645Z</time></trkpt><trkpt lat="43.6006017" lon="11.5797767"><ele>296.40000000000003</ele><time>2026-04-26T09:38:03.645Z</time></trkpt><trkpt lat="43.600685" lon="11.579645"><ele>296.0</ele><time>2026-04-26T09:38:05.646Z</time></trkpt><trkpt lat="43.6007283" lon="11.579575"><ele>295.83333333333337</ele><time>2026-04-26T09:38:06.647Z</time></trkpt><trkpt lat="43.6008083" lon="11.5794367"><ele>295.6666666666667</ele><time>2026-04-26T09:38:08.647Z</time></trkpt><trkpt lat="43.60085" lon="11.5793633"><ele>295.5</ele><time>2026-04-26T09:38:09.645Z</time></trkpt><trkpt lat="43.6008917" lon="11.5792917"><ele>295.3333333333333</ele><time>2026-04-26T09:38:10.645Z</time></trkpt><trkpt lat="43.60098" lon="11.5792033"><ele>295.16666666666663</ele><time>2026-04-26T09:38:12.647Z</time></trkpt><trkpt lat="43.6010417" lon="11.57918"><ele>295.0</ele><time>2026-04-26T09:38:13.647Z</time></trkpt><trkpt lat="43.6011483" lon="11.57916"><ele>295.4</ele><time>2026-04-26T09:38:15.646Z</time></trkpt><trkpt lat="43.6012583" lon="11.5791417"><ele>295.8</ele><time>2026-04-26T09:38:17.645Z</time></trkpt><trkpt lat="43.60137" lon="11.5791483"><ele>296.2</ele><time>2026-04-26T09:38:19.645Z</time></trkpt><trkpt lat="43.601485" lon="11.5792033"><ele>296.6</ele><time>2026-04-26T09:38:21.646Z</time></trkpt><trkpt lat="43.6015783" lon="11.5792617"><ele>297.0</ele><time>2026-04-26T09:38:23.645Z</time></trkpt><trkpt lat="43.6016933" lon="11.5792833"><ele>297.0</ele><time>2026-04-26T09:38:25.645Z</time></trkpt><trkpt lat="43.60181" lon="11.5792817"><ele>297.0</ele><time>2026-04-26T09:38:27.645Z</time></trkpt><trkpt lat="43.6019283" lon="11.579265"><ele>297.0</ele><time>2026-04-26T09:38:29.644Z</time></trkpt><trkpt lat="43.60199" lon="11.5792433"><ele>297.0</ele><time>2026-04-26T09:38:30.645Z</time></trkpt><trkpt lat="43.6021033" lon="11.5792233"><ele>297.0</ele><time>2026-04-26T09:38:32.645Z</time></trkpt><trkpt lat="43.6021683" lon="11.5792133"><ele>297.8571428571429</ele><time>2026-04-26T09:38:33.643Z</time></trkpt><trkpt lat="43.6022333" lon="11.5791967"><ele>298.7142857142857</ele><time>2026-04-26T09:38:34.645Z</time></trkpt><trkpt lat="43.6022967" lon="11.579185"><ele>299.57142857142856</ele><time>2026-04-26T09:38:35.644Z</time></trkpt><trkpt lat="43.6023617" lon="11.5791567"><ele>300.42857142857144</ele><time>2026-04-26T09:38:36.643Z</time></trkpt><trkpt lat="43.602425" lon="11.5791033"><ele>301.2857142857143</ele><time>2026-04-26T09:38:37.644Z</time></trkpt><trkpt lat="43.6024767" lon="11.579035"><ele>302.14285714285717</ele><time>2026-04-26T09:38:38.645Z</time></trkpt><trkpt lat="43.6025233" lon="11.5789517"><ele>303.0</ele><time>2026-04-26T09:38:39.646Z</time></trkpt><trkpt lat="43.6025683" lon="11.5788633"><ele>303.0</ele><time>2026-04-26T09:38:40.643Z</time></trkpt><trkpt lat="43.6026083" lon="11.5787767"><ele>303.0</ele><time>2026-04-26T09:38:41.644Z</time></trkpt><trkpt lat="43.60265" lon="11.5786933"><ele>303.0</ele><time>2026-04-26T09:38:42.645Z</time></trkpt><trkpt lat="43.6026933" lon="11.5786117"><ele>303.0</ele><time>2026-04-26T09:38:43.644Z</time></trkpt><trkpt lat="43.6027533" lon="11.57854"><ele>303.0</ele><time>2026-04-26T09:38:44.645Z</time></trkpt><trkpt lat="43.602815" lon="11.578495"><ele>303.0</ele><time>2026-04-26T09:38:45.647Z</time></trkpt><trkpt lat="43.6028833" lon="11.5784667"><ele>303.0</ele><time>2026-04-26T09:38:46.644Z</time></trkpt><trkpt lat="43.6029517" lon="11.5784283"><ele>303.0</ele><time>2026-04-26T09:38:47.644Z</time></trkpt><trkpt lat="43.6030167" lon="11.5783783"><ele>303.0</ele><time>2026-04-26T09:38:48.644Z</time></trkpt><trkpt lat="43.603075" lon="11.5783167"><ele>303.0</ele><time>2026-04-26T09:38:49.646Z</time></trkpt><trkpt lat="43.6031217" lon="11.5782383"><ele>303.0</ele><time>2026-04-26T09:38:50.644Z</time></trkpt><trkpt lat="43.6031633" lon="11.5781417"><ele>303.0</ele><time>2026-04-26T09:38:51.645Z</time></trkpt><trkpt lat="43.6031767" lon="11.578035"><ele>303.0</ele><time>2026-04-26T09:38:52.644Z</time></trkpt><trkpt lat="43.6031833" lon="11.577925"><ele>302.0</ele><time>2026-04-26T09:38:53.646Z</time></trkpt><trkpt lat="43.6031833" lon="11.5778167"><ele>301.0</ele><time>2026-04-26T09:38:54.645Z</time></trkpt><trkpt lat="43.6031833" lon="11.577705"><ele>300.0</ele><time>2026-04-26T09:38:55.644Z</time></trkpt><trkpt lat="43.6031817" lon="11.5775883"><ele>299.0</ele><time>2026-04-26T09:38:56.645Z</time></trkpt><trkpt lat="43.6031883" lon="11.577475"><ele>298.0</ele><time>2026-04-26T09:38:57.644Z</time></trkpt><trkpt lat="43.6031917" lon="11.57736"><ele>297.0</ele><time>2026-04-26T09:38:58.644Z</time></trkpt><trkpt lat="43.6032083" lon="11.5772483"><ele>297.0</ele><time>2026-04-26T09:38:59.646Z</time></trkpt><trkpt lat="43.603245" lon="11.577145"><ele>297.0</ele><time>2026-04-26T09:39:00.646Z</time></trkpt><trkpt lat="43.6032983" lon="11.5770533"><ele>297.0</ele><time>2026-04-26T09:39:01.643Z</time></trkpt><trkpt lat="43.6033633" lon="11.5769633"><ele>297.0</ele><time>2026-04-26T09:39:02.646Z</time></trkpt><trkpt lat="43.6034317" lon="11.576875"><ele>297.0</ele><time>2026-04-26T09:39:03.645Z</time></trkpt><trkpt lat="43.6035067" lon="11.5767867"><ele>295.8</ele><time>2026-04-26T09:39:04.643Z</time></trkpt><trkpt lat="43.6035867" lon="11.5767117"><ele>294.6</ele><time>2026-04-26T09:39:05.645Z</time></trkpt><trkpt lat="43.6036683" lon="11.57665"><ele>293.40000000000003</ele><time>2026-04-26T09:39:06.644Z</time></trkpt><trkpt lat="43.6037617" lon="11.5766"><ele>292.2</ele><time>2026-04-26T09:39:07.644Z</time></trkpt><trkpt lat="43.6038617" lon="11.5765817"><ele>291.0</ele><time>2026-04-26T09:39:08.646Z</time></trkpt><trkpt lat="43.6039583" lon="11.5765967"><ele>291.0</ele><time>2026-04-26T09:39:09.645Z</time></trkpt><trkpt lat="43.604055" lon="11.5766317"><ele>291.0</ele><time>2026-04-26T09:39:10.646Z</time></trkpt><trkpt lat="43.6041433" lon="11.5766817"><ele>291.0</ele><time>2026-04-26T09:39:11.644Z</time></trkpt><trkpt lat="43.604235" lon="11.5767233"><ele>291.0</ele><time>2026-04-26T09:39:12.645Z</time></trkpt><trkpt lat="43.604335" lon="11.5767567"><ele>291.0</ele><time>2026-04-26T09:39:13.645Z</time></trkpt><trkpt lat="43.6044383" lon="11.576785"><ele>290.8</ele><time>2026-04-26T09:39:14.647Z</time></trkpt><trkpt lat="43.6045433" lon="11.5768017"><ele>290.6</ele><time>2026-04-26T09:39:15.644Z</time></trkpt><trkpt lat="43.6046483" lon="11.576795"><ele>290.4</ele><time>2026-04-26T09:39:16.645Z</time></trkpt><trkpt lat="43.6047533" lon="11.57676"><ele>290.2</ele><time>2026-04-26T09:39:17.644Z</time></trkpt><trkpt lat="43.604845" lon="11.5766917"><ele>290.0</ele><time>2026-04-26T09:39:18.647Z</time></trkpt><trkpt lat="43.60492" lon="11.57659"><ele>290.0</ele><time>2026-04-26T09:39:19.646Z</time></trkpt><trkpt lat="43.6049767" lon="11.5764617"><ele>290.0</ele><time>2026-04-26T09:39:20.645Z</time></trkpt><trkpt lat="43.60501" lon="11.5763267"><ele>290.0</ele><time>2026-04-26T09:39:21.645Z</time></trkpt><trkpt lat="43.605035" lon="11.5761767"><ele>290.0</ele><time>2026-04-26T09:39:22.646Z</time></trkpt><trkpt lat="43.60505" lon="11.5760267"><ele>290.0</ele><time>2026-04-26T09:39:23.644Z</time></trkpt><trkpt lat="43.6050583" lon="11.5758767"><ele>288.6</ele><time>2026-04-26T09:39:24.645Z</time></trkpt><trkpt lat="43.6050683" lon="11.575725"><ele>287.2</ele><time>2026-04-26T09:39:25.647Z</time></trkpt><trkpt lat="43.6050833" lon="11.5755717"><ele>285.8</ele><time>2026-04-26T09:39:26.645Z</time></trkpt><trkpt lat="43.60511" lon="11.5754233"><ele>284.4</ele><time>2026-04-26T09:39:27.646Z</time></trkpt><trkpt lat="43.6051633" lon="11.5752917"><ele>283.0</ele><time>2026-04-26T09:39:28.644Z</time></trkpt><trkpt lat="43.60524" lon="11.575195"><ele>283.4</ele><time>2026-04-26T09:39:29.645Z</time></trkpt><trkpt lat="43.60533" lon="11.5751267"><ele>283.8</ele><time>2026-04-26T09:39:30.645Z</time></trkpt><trkpt lat="43.60543" lon="11.5750767"><ele>284.2</ele><time>2026-04-26T09:39:31.646Z</time></trkpt><trkpt lat="43.605525" lon="11.57502"><ele>284.6</ele><time>2026-04-26T09:39:32.643Z</time></trkpt><trkpt lat="43.6056183" lon="11.5749633"><ele>285.0</ele><time>2026-04-26T09:39:33.645Z</time></trkpt><trkpt lat="43.6057083" lon="11.5749"><ele>285.0</ele><time>2026-04-26T09:39:34.646Z</time></trkpt><trkpt lat="43.6057967" lon="11.5748167"><ele>285.0</ele><time>2026-04-26T09:39:35.644Z</time></trkpt><trkpt lat="43.6058767" lon="11.57473"><ele>285.0</ele><time>2026-04-26T09:39:36.645Z</time></trkpt><trkpt lat="43.605945" lon="11.5746333"><ele>285.0</ele><time>2026-04-26T09:39:37.646Z</time></trkpt><trkpt lat="43.60601" lon="11.5745267"><ele>285.0</ele><time>2026-04-26T09:39:38.646Z</time></trkpt><trkpt lat="43.6060717" lon="11.5744233"><ele>285.5</ele><time>2026-04-26T09:39:39.645Z</time></trkpt><trkpt lat="43.6061317" lon="11.5743217"><ele>286.0</ele><time>2026-04-26T09:39:40.643Z</time></trkpt><trkpt lat="43.60619" lon="11.5742217"><ele>286.5</ele><time>2026-04-26T09:39:41.645Z</time></trkpt><trkpt lat="43.6062467" lon="11.57413"><ele>287.0</ele><time>2026-04-26T09:39:42.644Z</time></trkpt><trkpt lat="43.6063117" lon="11.5740467"><ele>287.5</ele><time>2026-04-26T09:39:43.644Z</time></trkpt><trkpt lat="43.6063783" lon="11.5739733"><ele>288.0</ele><time>2026-04-26T09:39:44.645Z</time></trkpt><trkpt lat="43.6064467" lon="11.5739017"><ele>288.0</ele><time>2026-04-26T09:39:45.646Z</time></trkpt><trkpt lat="43.6065183" lon="11.5738233"><ele>288.0</ele><time>2026-04-26T09:39:46.644Z</time></trkpt><trkpt lat="43.6065867" lon="11.5737533"><ele>288.0</ele><time>2026-04-26T09:39:47.644Z</time></trkpt><trkpt lat="43.606655" lon="11.5736783"><ele>288.0</ele><time>2026-04-26T09:39:48.647Z</time></trkpt><trkpt lat="43.60673" lon="11.5736167"><ele>288.0</ele><time>2026-04-26T09:39:49.644Z</time></trkpt><trkpt lat="43.606805" lon="11.5735783"><ele>288.0</ele><time>2026-04-26T09:39:50.647Z</time></trkpt><trkpt lat="43.606885" lon="11.5735533"><ele>287.5</ele><time>2026-04-26T09:39:51.645Z</time></trkpt><trkpt lat="43.606965" lon="11.57354"><ele>287.0</ele><time>2026-04-26T09:39:52.644Z</time></trkpt><trkpt lat="43.6070433" lon="11.573545"><ele>286.5</ele><time>2026-04-26T09:39:53.645Z</time></trkpt><trkpt lat="43.60712" lon="11.57356"><ele>286.0</ele><time>2026-04-26T09:39:54.646Z</time></trkpt><trkpt lat="43.6071917" lon="11.5735733"><ele>285.5</ele><time>2026-04-26T09:39:55.644Z</time></trkpt><trkpt lat="43.6072633" lon="11.5735667"><ele>285.0</ele><time>2026-04-26T09:39:56.647Z</time></trkpt><trkpt lat="43.6073333" lon="11.5735367"><ele>285.0</ele><time>2026-04-26T09:39:57.647Z</time></trkpt><trkpt lat="43.6073933" lon="11.5734767"><ele>285.0</ele><time>2026-04-26T09:39:58.646Z</time></trkpt><trkpt lat="43.6074317" lon="11.5733967"><ele>285.0</ele><time>2026-04-26T09:39:59.645Z</time></trkpt><trkpt lat="43.6074483" lon="11.5732983"><ele>285.0</ele><time>2026-04-26T09:40:00.647Z</time></trkpt><trkpt lat="43.6074383" lon="11.5732067"><ele>285.0</ele><time>2026-04-26T09:40:01.646Z</time></trkpt><trkpt lat="43.607415" lon="11.5731167"><ele>285.0</ele><time>2026-04-26T09:40:02.647Z</time></trkpt><trkpt lat="43.6073983" lon="11.5730283"><ele>285.0</ele><time>2026-04-26T09:40:03.646Z</time></trkpt><trkpt lat="43.6073817" lon="11.5729417"><ele>285.0</ele><time>2026-04-26T09:40:04.644Z</time></trkpt><trkpt lat="43.6073633" lon="11.5728583"><ele>285.0</ele><time>2026-04-26T09:40:05.644Z</time></trkpt><trkpt lat="43.60734" lon="11.5726917"><ele>285.0</ele><time>2026-04-26T09:40:07.644Z</time></trkpt><trkpt lat="43.60731" lon="11.5725267"><ele>285.0</ele><time>2026-04-26T09:40:09.645Z</time></trkpt><trkpt lat="43.6072933" lon="11.5723667"><ele>285.0</ele><time>2026-04-26T09:40:11.646Z</time></trkpt><trkpt lat="43.6073017" lon="11.5722133"><ele>285.0</ele><time>2026-04-26T09:40:13.648Z</time></trkpt><trkpt lat="43.60733" lon="11.572055"><ele>285.0</ele><time>2026-04-26T09:40:15.644Z</time></trkpt><trkpt lat="43.6073767" lon="11.571915"><ele>285.0</ele><time>2026-04-26T09:40:17.645Z</time></trkpt><trkpt lat="43.6074333" lon="11.5717783"><ele>285.0</ele><time>2026-04-26T09:40:19.644Z</time></trkpt><trkpt lat="43.6074983" lon="11.5716567"><ele>285.0</ele><time>2026-04-26T09:40:21.644Z</time></trkpt><trkpt lat="43.60755" lon="11.571605"><ele>285.0</ele><time>2026-04-26T09:40:22.645Z</time></trkpt><trkpt lat="43.6076067" lon="11.5715567"><ele>285.0</ele><time>2026-04-26T09:40:23.646Z</time></trkpt><trkpt lat="43.6076633" lon="11.5715133"><ele>285.0</ele><time>2026-04-26T09:40:24.645Z</time></trkpt><trkpt lat="43.6077267" lon="11.571475"><ele>285.0</ele><time>2026-04-26T09:40:25.646Z</time></trkpt><trkpt lat="43.60779" lon="11.5714383"><ele>285.0</ele><time>2026-04-26T09:40:26.645Z</time></trkpt><trkpt lat="43.60791" lon="11.5713883"><ele>285.7142857142857</ele><time>2026-04-26T09:40:28.646Z</time></trkpt><trkpt lat="43.6079783" lon="11.5713717"><ele>286.42857142857144</ele><time>2026-04-26T09:40:29.644Z</time></trkpt><trkpt lat="43.6080483" lon="11.571355"><ele>287.14285714285717</ele><time>2026-04-26T09:40:30.646Z</time></trkpt><trkpt lat="43.608115" lon="11.5713467"><ele>287.8571428571429</ele><time>2026-04-26T09:40:31.646Z</time></trkpt><trkpt lat="43.6081817" lon="11.57135"><ele>288.5714285714286</ele><time>2026-04-26T09:40:32.645Z</time></trkpt><trkpt lat="43.60825" lon="11.5713483"><ele>289.2857142857143</ele><time>2026-04-26T09:40:33.644Z</time></trkpt><trkpt lat="43.6083183" lon="11.5713467"><ele>290.0</ele><time>2026-04-26T09:40:34.644Z</time></trkpt><trkpt lat="43.608385" lon="11.57134"><ele>290.0</ele><time>2026-04-26T09:40:35.645Z</time></trkpt><trkpt lat="43.6084533" lon="11.5713267"><ele>290.0</ele><time>2026-04-26T09:40:36.643Z</time></trkpt><trkpt lat="43.6085217" lon="11.5713133"><ele>290.0</ele><time>2026-04-26T09:40:37.644Z</time></trkpt><trkpt lat="43.6085867" lon="11.5713017"><ele>290.0</ele><time>2026-04-26T09:40:38.643Z</time></trkpt><trkpt lat="43.60871" lon="11.5712867"><ele>290.0</ele><time>2026-04-26T09:40:40.643Z</time></trkpt><trkpt lat="43.608775" lon="11.57127"><ele>290.0</ele><time>2026-04-26T09:40:41.644Z</time></trkpt><trkpt lat="43.6088383" lon="11.571255"><ele>289.6</ele><time>2026-04-26T09:40:42.642Z</time></trkpt><trkpt lat="43.6089633" lon="11.5712267"><ele>289.2</ele><time>2026-04-26T09:40:44.642Z</time></trkpt><trkpt lat="43.6090783" lon="11.5712067"><ele>288.8</ele><time>2026-04-26T09:40:46.643Z</time></trkpt><trkpt lat="43.6091417" lon="11.571195"><ele>288.4</ele><time>2026-04-26T09:40:47.646Z</time></trkpt><trkpt lat="43.6092617" lon="11.5711667"><ele>288.0</ele><time>2026-04-26T09:40:49.646Z</time></trkpt><trkpt lat="43.609325" lon="11.5711617"><ele>288.0</ele><time>2026-04-26T09:40:50.646Z</time></trkpt><trkpt lat="43.6094433" lon="11.571145"><ele>288.0</ele><time>2026-04-26T09:40:52.645Z</time></trkpt><trkpt lat="43.6095083" lon="11.5711383"><ele>288.0</ele><time>2026-04-26T09:40:53.645Z</time></trkpt><trkpt lat="43.609625" lon="11.57112"><ele>288.0</ele><time>2026-04-26T09:40:55.645Z</time></trkpt><trkpt lat="43.60974" lon="11.5710933"><ele>288.0</ele><time>2026-04-26T09:40:57.644Z</time></trkpt><trkpt lat="43.6098483" lon="11.5710667"><ele>288.0</ele><time>2026-04-26T09:40:59.647Z</time></trkpt><trkpt lat="43.60996" lon="11.5710383"><ele>288.0</ele><time>2026-04-26T09:41:01.645Z</time></trkpt><trkpt lat="43.610075" lon="11.5710117"><ele>288.0</ele><time>2026-04-26T09:41:03.644Z</time></trkpt><trkpt lat="43.6101917" lon="11.571005"><ele>288.0</ele><time>2026-04-26T09:41:05.645Z</time></trkpt><trkpt lat="43.6102883" lon="11.5710283"><ele>288.0</ele><time>2026-04-26T09:41:07.646Z</time></trkpt><trkpt lat="43.6103917" lon="11.5710717"><ele>288.0</ele><time>2026-04-26T09:41:09.645Z</time></trkpt><trkpt lat="43.6104883" lon="11.57113"><ele>288.0</ele><time>2026-04-26T09:41:11.645Z</time></trkpt><trkpt lat="43.6105683" lon="11.5712267"><ele>288.0</ele><time>2026-04-26T09:41:13.645Z</time></trkpt><trkpt lat="43.6106333" lon="11.5713583"><ele>288.0</ele><time>2026-04-26T09:41:15.644Z</time></trkpt><trkpt lat="43.6106933" lon="11.57151"><ele>288.8333333333333</ele><time>2026-04-26T09:41:17.643Z</time></trkpt><trkpt lat="43.610725" lon="11.57159"><ele>289.6666666666667</ele><time>2026-04-26T09:41:18.645Z</time></trkpt><trkpt lat="43.6107517" lon="11.5716717"><ele>290.5</ele><time>2026-04-26T09:41:19.645Z</time></trkpt><trkpt lat="43.6107683" lon="11.5717583"><ele>291.33333333333337</ele><time>2026-04-26T09:41:20.646Z</time></trkpt><trkpt lat="43.6107833" lon="11.5718433"><ele>292.1666666666667</ele><time>2026-04-26T09:41:21.647Z</time></trkpt><trkpt lat="43.6108267" lon="11.5720083"><ele>293.0</ele><time>2026-04-26T09:41:23.643Z</time></trkpt><trkpt lat="43.6108483" lon="11.5721017"><ele>293.85714285714283</ele><time>2026-04-26T09:41:24.648Z</time></trkpt><trkpt lat="43.610875" lon="11.5721867"><ele>294.7142857142857</ele><time>2026-04-26T09:41:25.646Z</time></trkpt><trkpt lat="43.6108917" lon="11.5722733"><ele>295.57142857142856</ele><time>2026-04-26T09:41:26.647Z</time></trkpt><trkpt lat="43.6109117" lon="11.5723633"><ele>296.42857142857144</ele><time>2026-04-26T09:41:27.646Z</time></trkpt><trkpt lat="43.6109333" lon="11.5724533"><ele>297.2857142857143</ele><time>2026-04-26T09:41:28.646Z</time></trkpt><trkpt lat="43.6109533" lon="11.5725367"><ele>298.1428571428571</ele><time>2026-04-26T09:41:29.646Z</time></trkpt><trkpt lat="43.6109767" lon="11.5726183"><ele>299.0</ele><time>2026-04-26T09:41:30.645Z</time></trkpt><trkpt lat="43.6110017" lon="11.5727"><ele>299.0</ele><time>2026-04-26T09:41:31.644Z</time></trkpt><trkpt lat="43.6110267" lon="11.572785"><ele>299.0</ele><time>2026-04-26T09:41:32.646Z</time></trkpt><trkpt lat="43.61105" lon="11.57287"><ele>299.0</ele><time>2026-04-26T09:41:33.646Z</time></trkpt><trkpt lat="43.61107" lon="11.572955"><ele>299.0</ele><time>2026-04-26T09:41:34.645Z</time></trkpt><trkpt lat="43.6111367" lon="11.5730983"><ele>299.0</ele><time>2026-04-26T09:41:36.646Z</time></trkpt><trkpt lat="43.61119" lon="11.5731567"><ele>299.0</ele><time>2026-04-26T09:41:37.645Z</time></trkpt><trkpt lat="43.61126" lon="11.5731783"><ele>299.1666666666667</ele><time>2026-04-26T09:41:38.646Z</time></trkpt><trkpt lat="43.6113233" lon="11.573175"><ele>299.33333333333337</ele><time>2026-04-26T09:41:39.645Z</time></trkpt><trkpt lat="43.6114267" lon="11.5730883"><ele>299.5</ele><time>2026-04-26T09:41:41.644Z</time></trkpt><trkpt lat="43.6114733" lon="11.57299"><ele>299.6666666666667</ele><time>2026-04-26T09:41:42.646Z</time></trkpt><trkpt lat="43.6115133" lon="11.5729"><ele>299.8333333333333</ele><time>2026-04-26T09:41:43.645Z</time></trkpt><trkpt lat="43.6115517" lon="11.5727983"><ele>300.0</ele><time>2026-04-26T09:41:44.643Z</time></trkpt><trkpt lat="43.6115717" lon="11.5726967"><ele>299.99999999999994</ele><time>2026-04-26T09:41:45.648Z</time></trkpt><trkpt lat="43.611585" lon="11.5725917"><ele>300.0</ele><time>2026-04-26T09:41:46.645Z</time></trkpt><trkpt lat="43.6115867" lon="11.57249"><ele>300.0</ele><time>2026-04-26T09:41:47.645Z</time></trkpt><trkpt lat="43.6115833" lon="11.5723867"><ele>300.0</ele><time>2026-04-26T09:41:48.646Z</time></trkpt><trkpt lat="43.611585" lon="11.5722933"><ele>300.0</ele><time>2026-04-26T09:41:49.646Z</time></trkpt><trkpt lat="43.611595" lon="11.5722033"><ele>299.99999999999994</ele><time>2026-04-26T09:41:50.646Z</time></trkpt><trkpt lat="43.6116" lon="11.57211"><ele>300.0</ele><time>2026-04-26T09:41:51.645Z</time></trkpt><trkpt lat="43.6116017" lon="11.5719417"><ele>299.5</ele><time>2026-04-26T09:41:53.644Z</time></trkpt><trkpt lat="43.6115983" lon="11.5717817"><ele>299.0</ele><time>2026-04-26T09:41:55.645Z</time></trkpt><trkpt lat="43.6116" lon="11.571625"><ele>298.5</ele><time>2026-04-26T09:41:57.647Z</time></trkpt><trkpt lat="43.6116133" lon="11.5714583"><ele>298.0</ele><time>2026-04-26T09:41:59.646Z</time></trkpt><trkpt lat="43.6116267" lon="11.571295"><ele>297.4</ele><time>2026-04-26T09:42:01.647Z</time></trkpt><trkpt lat="43.611645" lon="11.57114"><ele>296.8</ele><time>2026-04-26T09:42:03.646Z</time></trkpt><trkpt lat="43.6116883" lon="11.5709833"><ele>296.2</ele><time>2026-04-26T09:42:05.646Z</time></trkpt><trkpt lat="43.6117283" lon="11.5709133"><ele>295.6</ele><time>2026-04-26T09:42:06.646Z</time></trkpt><trkpt lat="43.6118083" lon="11.5707883"><ele>295.0</ele><time>2026-04-26T09:42:08.646Z</time></trkpt><trkpt lat="43.61191" lon="11.5707117"><ele>295.00000000000006</ele><time>2026-04-26T09:42:10.646Z</time></trkpt><trkpt lat="43.6119717" lon="11.5706933"><ele>295.0</ele><time>2026-04-26T09:42:11.647Z</time></trkpt><trkpt lat="43.6120367" lon="11.5706783"><ele>295.0</ele><time>2026-04-26T09:42:12.645Z</time></trkpt><trkpt lat="43.6121067" lon="11.5706733"><ele>295.0</ele><time>2026-04-26T09:42:13.646Z</time></trkpt><trkpt lat="43.6121767" lon="11.570665"><ele>295.0</ele><time>2026-04-26T09:42:14.647Z</time></trkpt><trkpt lat="43.612245" lon="11.57064"><ele>295.00000000000006</ele><time>2026-04-26T09:42:15.646Z</time></trkpt><trkpt lat="43.6123133" lon="11.570615"><ele>295.0</ele><time>2026-04-26T09:42:16.645Z</time></trkpt><trkpt lat="43.61238" lon="11.57058"><ele>295.00000000000006</ele><time>2026-04-26T09:42:17.646Z</time></trkpt><trkpt lat="43.61244" lon="11.5705267"><ele>295.0</ele><time>2026-04-26T09:42:18.645Z</time></trkpt><trkpt lat="43.61249" lon="11.5704633"><ele>295.0</ele><time>2026-04-26T09:42:19.646Z</time></trkpt><trkpt lat="43.6125383" lon="11.5703917"><ele>295.0</ele><time>2026-04-26T09:42:20.647Z</time></trkpt><trkpt lat="43.612585" lon="11.5703183"><ele>295.0</ele><time>2026-04-26T09:42:21.646Z</time></trkpt><trkpt lat="43.61263" lon="11.5702383"><ele>295.00000000000006</ele><time>2026-04-26T09:42:22.644Z</time></trkpt><trkpt lat="43.6126767" lon="11.5701583"><ele>295.0</ele><time>2026-04-26T09:42:23.646Z</time></trkpt><trkpt lat="43.6127167" lon="11.5700733"><ele>295.0</ele><time>2026-04-26T09:42:24.645Z</time></trkpt><trkpt lat="43.6127567" lon="11.5699917"><ele>295.0</ele><time>2026-04-26T09:42:25.645Z</time></trkpt><trkpt lat="43.6128017" lon="11.569905"><ele>295.0</ele><time>2026-04-26T09:42:26.646Z</time></trkpt><trkpt lat="43.61285" lon="11.5698283"><ele>295.0</ele><time>2026-04-26T09:42:27.646Z</time></trkpt><trkpt lat="43.6129017" lon="11.569755"><ele>295.0</ele><time>2026-04-26T09:42:28.644Z</time></trkpt><trkpt lat="43.6129583" lon="11.5696917"><ele>295.0</ele><time>2026-04-26T09:42:29.647Z</time></trkpt><trkpt lat="43.613025" lon="11.5696283"><ele>295.3333333333333</ele><time>2026-04-26T09:42:30.646Z</time></trkpt><trkpt lat="43.6130983" lon="11.56958"><ele>295.66666666666663</ele><time>2026-04-26T09:42:31.646Z</time></trkpt><trkpt lat="43.61317" lon="11.5695317"><ele>296.0</ele><time>2026-04-26T09:42:32.648Z</time></trkpt><trkpt lat="43.613245" lon="11.5694783"><ele>296.3333333333333</ele><time>2026-04-26T09:42:33.647Z</time></trkpt><trkpt lat="43.6133217" lon="11.5694267"><ele>296.6666666666667</ele><time>2026-04-26T09:42:34.644Z</time></trkpt><trkpt lat="43.613395" lon="11.5693783"><ele>297.0</ele><time>2026-04-26T09:42:35.645Z</time></trkpt><trkpt lat="43.6134667" lon="11.5693333"><ele>297.0</ele><time>2026-04-26T09:42:36.646Z</time></trkpt><trkpt lat="43.6135383" lon="11.5692783"><ele>297.0</ele><time>2026-04-26T09:42:37.645Z</time></trkpt><trkpt lat="43.6136117" lon="11.5692233"><ele>297.0</ele><time>2026-04-26T09:42:38.646Z</time></trkpt><trkpt lat="43.6136867" lon="11.569185"><ele>297.0</ele><time>2026-04-26T09:42:39.646Z</time></trkpt><trkpt lat="43.6137617" lon="11.5691333"><ele>297.0</ele><time>2026-04-26T09:42:40.644Z</time></trkpt><trkpt lat="43.6138317" lon="11.5690817"><ele>297.0</ele><time>2026-04-26T09:42:41.645Z</time></trkpt><trkpt lat="43.6138967" lon="11.5690367"><ele>297.3333333333333</ele><time>2026-04-26T09:42:42.647Z</time></trkpt><trkpt lat="43.6139617" lon="11.5689917"><ele>297.6666666666667</ele><time>2026-04-26T09:42:43.648Z</time></trkpt><trkpt lat="43.6140283" lon="11.5689433"><ele>298.0</ele><time>2026-04-26T09:42:44.645Z</time></trkpt><trkpt lat="43.6141" lon="11.5689"><ele>298.33333333333337</ele><time>2026-04-26T09:42:45.645Z</time></trkpt><trkpt lat="43.614175" lon="11.5688667"><ele>298.6666666666667</ele><time>2026-04-26T09:42:46.647Z</time></trkpt><trkpt lat="43.6142517" lon="11.5688467"><ele>299.0</ele><time>2026-04-26T09:42:47.646Z</time></trkpt><trkpt lat="43.6143267" lon="11.5688383"><ele>299.0</ele><time>2026-04-26T09:42:48.646Z</time></trkpt><trkpt lat="43.6144017" lon="11.5688367"><ele>299.0</ele><time>2026-04-26T09:42:49.646Z</time></trkpt><trkpt lat="43.6144767" lon="11.5688517"><ele>299.0</ele><time>2026-04-26T09:42:50.648Z</time></trkpt><trkpt lat="43.6145533" lon="11.5688783"><ele>299.0</ele><time>2026-04-26T09:42:51.645Z</time></trkpt><trkpt lat="43.6146233" lon="11.568935"><ele>299.0</ele><time>2026-04-26T09:42:52.645Z</time></trkpt><trkpt lat="43.6146783" lon="11.5690133"><ele>299.0</ele><time>2026-04-26T09:42:53.646Z</time></trkpt><trkpt lat="43.6147167" lon="11.5691083"><ele>298.4</ele><time>2026-04-26T09:42:54.646Z</time></trkpt><trkpt lat="43.6147633" lon="11.5692017"><ele>297.79999999999995</ele><time>2026-04-26T09:42:55.646Z</time></trkpt><trkpt lat="43.6148117" lon="11.56929"><ele>297.20000000000005</ele><time>2026-04-26T09:42:56.647Z</time></trkpt><trkpt lat="43.61486" lon="11.5693533"><ele>296.6</ele><time>2026-04-26T09:42:57.647Z</time></trkpt><trkpt lat="43.6150033" lon="11.5693033"><ele>296.0</ele><time>2026-04-26T09:42:59.646Z</time></trkpt><trkpt lat="43.615055" lon="11.569205"><ele>296.0</ele><time>2026-04-26T09:43:00.645Z</time></trkpt><trkpt lat="43.6150867" lon="11.569085"><ele>296.0</ele><time>2026-04-26T09:43:01.646Z</time></trkpt><trkpt lat="43.61511" lon="11.56896"><ele>296.0</ele><time>2026-04-26T09:43:02.646Z</time></trkpt><trkpt lat="43.615125" lon="11.5688383"><ele>296.0</ele><time>2026-04-26T09:43:03.645Z</time></trkpt><trkpt lat="43.6151333" lon="11.5687167"><ele>296.0</ele><time>2026-04-26T09:43:04.645Z</time></trkpt><trkpt lat="43.6151417" lon="11.5685967"><ele>295.83333333333337</ele><time>2026-04-26T09:43:05.647Z</time></trkpt><trkpt lat="43.6151483" lon="11.568475"><ele>295.6666666666667</ele><time>2026-04-26T09:43:06.646Z</time></trkpt><trkpt lat="43.6151517" lon="11.5683533"><ele>295.5</ele><time>2026-04-26T09:43:07.645Z</time></trkpt><trkpt lat="43.6151517" lon="11.5682283"><ele>295.3333333333333</ele><time>2026-04-26T09:43:08.644Z</time></trkpt><trkpt lat="43.6151533" lon="11.5681067"><ele>295.16666666666663</ele><time>2026-04-26T09:43:09.646Z</time></trkpt><trkpt lat="43.6151517" lon="11.567985"><ele>295.0</ele><time>2026-04-26T09:43:10.646Z</time></trkpt><trkpt lat="43.6151533" lon="11.5678617"><ele>294.0</ele><time>2026-04-26T09:43:11.646Z</time></trkpt><trkpt lat="43.6151533" lon="11.567745"><ele>293.0</ele><time>2026-04-26T09:43:12.646Z</time></trkpt><trkpt lat="43.615165" lon="11.5676283"><ele>292.0</ele><time>2026-04-26T09:43:13.648Z</time></trkpt><trkpt lat="43.6151833" lon="11.567515"><ele>291.0</ele><time>2026-04-26T09:43:14.647Z</time></trkpt><trkpt lat="43.615205" lon="11.5673983"><ele>290.0</ele><time>2026-04-26T09:43:15.646Z</time></trkpt><trkpt lat="43.6152317" lon="11.56728"><ele>289.0</ele><time>2026-04-26T09:43:16.645Z</time></trkpt><trkpt lat="43.6152617" lon="11.5671667"><ele>289.0</ele><time>2026-04-26T09:43:17.645Z</time></trkpt><trkpt lat="43.6152917" lon="11.5670533"><ele>289.0</ele><time>2026-04-26T09:43:18.647Z</time></trkpt><trkpt lat="43.61532" lon="11.566935"><ele>289.0</ele><time>2026-04-26T09:43:19.646Z</time></trkpt><trkpt lat="43.6153517" lon="11.5668183"><ele>289.0</ele><time>2026-04-26T09:43:20.645Z</time></trkpt><trkpt lat="43.6153833" lon="11.5666983"><ele>289.0</ele><time>2026-04-26T09:43:21.644Z</time></trkpt><trkpt lat="43.6154133" lon="11.5665733"><ele>287.8</ele><time>2026-04-26T09:43:22.645Z</time></trkpt><trkpt lat="43.615445" lon="11.56645"><ele>286.59999999999997</ele><time>2026-04-26T09:43:23.646Z</time></trkpt><trkpt lat="43.615475" lon="11.5663283"><ele>285.4</ele><time>2026-04-26T09:43:24.645Z</time></trkpt><trkpt lat="43.615515" lon="11.5662117"><ele>284.2</ele><time>2026-04-26T09:43:25.646Z</time></trkpt><trkpt lat="43.615565" lon="11.56611"><ele>283.0</ele><time>2026-04-26T09:43:26.645Z</time></trkpt><trkpt lat="43.6156267" lon="11.5660117"><ele>283.0</ele><time>2026-04-26T09:43:27.646Z</time></trkpt><trkpt lat="43.615695" lon="11.565925"><ele>283.0</ele><time>2026-04-26T09:43:28.647Z</time></trkpt><trkpt lat="43.615775" lon="11.5658617"><ele>283.0</ele><time>2026-04-26T09:43:29.646Z</time></trkpt><trkpt lat="43.6158617" lon="11.5658117"><ele>283.0</ele><time>2026-04-26T09:43:30.645Z</time></trkpt><trkpt lat="43.6159483" lon="11.5657817"><ele>283.0</ele><time>2026-04-26T09:43:31.647Z</time></trkpt><trkpt lat="43.6160433" lon="11.5657533"><ele>283.0</ele><time>2026-04-26T09:43:32.646Z</time></trkpt><trkpt lat="43.61614" lon="11.5657317"><ele>283.0</ele><time>2026-04-26T09:43:33.647Z</time></trkpt><trkpt lat="43.6162367" lon="11.5657133"><ele>283.0</ele><time>2026-04-26T09:43:34.645Z</time></trkpt><trkpt lat="43.616335" lon="11.565705"><ele>283.0</ele><time>2026-04-26T09:43:35.645Z</time></trkpt><trkpt lat="43.61643" lon="11.5657033"><ele>283.0</ele><time>2026-04-26T09:43:36.649Z</time></trkpt><trkpt lat="43.6165283" lon="11.565705"><ele>283.4</ele><time>2026-04-26T09:43:37.646Z</time></trkpt><trkpt lat="43.616625" lon="11.5656983"><ele>283.8</ele><time>2026-04-26T09:43:38.647Z</time></trkpt><trkpt lat="43.6167233" lon="11.565685"><ele>284.2</ele><time>2026-04-26T09:43:39.645Z</time></trkpt><trkpt lat="43.6168217" lon="11.5656583"><ele>284.6</ele><time>2026-04-26T09:43:40.646Z</time></trkpt><trkpt lat="43.61691" lon="11.56561"><ele>285.0</ele><time>2026-04-26T09:43:41.645Z</time></trkpt><trkpt lat="43.6169917" lon="11.5655333"><ele>285.3333333333333</ele><time>2026-04-26T09:43:42.645Z</time></trkpt><trkpt lat="43.617055" lon="11.5654433"><ele>285.6666666666667</ele><time>2026-04-26T09:43:43.645Z</time></trkpt><trkpt lat="43.6171017" lon="11.5653433"><ele>286.0</ele><time>2026-04-26T09:43:44.648Z</time></trkpt><trkpt lat="43.61714" lon="11.5652333"><ele>286.33333333333337</ele><time>2026-04-26T09:43:45.648Z</time></trkpt><trkpt lat="43.6171667" lon="11.5651233"><ele>286.6666666666667</ele><time>2026-04-26T09:43:46.646Z</time></trkpt><trkpt lat="43.6171917" lon="11.56502"><ele>287.0</ele><time>2026-04-26T09:43:47.647Z</time></trkpt><trkpt lat="43.6172183" lon="11.564915"><ele>287.0</ele><time>2026-04-26T09:43:48.646Z</time></trkpt><trkpt lat="43.6172433" lon="11.5648183"><ele>287.0</ele><time>2026-04-26T09:43:49.647Z</time></trkpt><trkpt lat="43.617265" lon="11.5647267"><ele>287.0</ele><time>2026-04-26T09:43:50.645Z</time></trkpt><trkpt lat="43.6172983" lon="11.56464"><ele>287.0</ele><time>2026-04-26T09:43:51.645Z</time></trkpt><trkpt lat="43.6173383" lon="11.5645583"><ele>287.0</ele><time>2026-04-26T09:43:52.646Z</time></trkpt><trkpt lat="43.6173817" lon="11.5644817"><ele>287.0</ele><time>2026-04-26T09:43:53.646Z</time></trkpt><trkpt lat="43.61743" lon="11.5644117"><ele>287.0</ele><time>2026-04-26T09:43:54.644Z</time></trkpt><trkpt lat="43.617485" lon="11.5643517"><ele>286.57142857142856</ele><time>2026-04-26T09:43:55.644Z</time></trkpt><trkpt lat="43.6175383" lon="11.5643"><ele>286.1428571428571</ele><time>2026-04-26T09:43:56.646Z</time></trkpt><trkpt lat="43.617595" lon="11.5642467"><ele>285.7142857142857</ele><time>2026-04-26T09:43:57.645Z</time></trkpt><trkpt lat="43.6176533" lon="11.564195"><ele>285.2857142857143</ele><time>2026-04-26T09:43:58.644Z</time></trkpt><trkpt lat="43.61772" lon="11.5641367"><ele>284.85714285714283</ele><time>2026-04-26T09:43:59.645Z</time></trkpt><trkpt lat="43.6177917" lon="11.5640883"><ele>284.42857142857144</ele><time>2026-04-26T09:44:00.646Z</time></trkpt><trkpt lat="43.617865" lon="11.5640533"><ele>284.0</ele><time>2026-04-26T09:44:01.645Z</time></trkpt><trkpt lat="43.6179383" lon="11.5640417"><ele>284.0</ele><time>2026-04-26T09:44:02.646Z</time></trkpt><trkpt lat="43.61802" lon="11.5640333"><ele>284.0</ele><time>2026-04-26T09:44:03.644Z</time></trkpt><trkpt lat="43.618105" lon="11.56403"><ele>284.0</ele><time>2026-04-26T09:44:04.645Z</time></trkpt><trkpt lat="43.61819" lon="11.564025"><ele>284.0</ele><time>2026-04-26T09:44:05.646Z</time></trkpt><trkpt lat="43.61828" lon="11.5640117"><ele>284.0</ele><time>2026-04-26T09:44:06.646Z</time></trkpt><trkpt lat="43.6183667" lon="11.5639867"><ele>284.0</ele><time>2026-04-26T09:44:07.645Z</time></trkpt><trkpt lat="43.6184517" lon="11.56395"><ele>284.0</ele><time>2026-04-26T09:44:08.645Z</time></trkpt><trkpt lat="43.6185317" lon="11.5638933"><ele>284.0</ele><time>2026-04-26T09:44:09.646Z</time></trkpt><trkpt lat="43.6186083" lon="11.5638183"><ele>284.0</ele><time>2026-04-26T09:44:10.644Z</time></trkpt><trkpt lat="43.6186817" lon="11.563735"><ele>284.0</ele><time>2026-04-26T09:44:11.644Z</time></trkpt><trkpt lat="43.618745" lon="11.5636467"><ele>284.0</ele><time>2026-04-26T09:44:12.646Z</time></trkpt><trkpt lat="43.6188117" lon="11.5635617"><ele>282.83333333333337</ele><time>2026-04-26T09:44:13.645Z</time></trkpt><trkpt lat="43.6188833" lon="11.5634917"><ele>281.6666666666667</ele><time>2026-04-26T09:44:14.644Z</time></trkpt><trkpt lat="43.6189617" lon="11.5634383"><ele>280.5</ele><time>2026-04-26T09:44:15.645Z</time></trkpt><trkpt lat="43.619045" lon="11.5634017"><ele>279.3333333333333</ele><time>2026-04-26T09:44:16.646Z</time></trkpt><trkpt lat="43.619135" lon="11.5633683"><ele>278.16666666666663</ele><time>2026-04-26T09:44:17.646Z</time></trkpt><trkpt lat="43.619225" lon="11.5633433"><ele>277.0</ele><time>2026-04-26T09:44:18.645Z</time></trkpt><trkpt lat="43.6193167" lon="11.5633117"><ele>277.0</ele><time>2026-04-26T09:44:19.646Z</time></trkpt><trkpt lat="43.619405" lon="11.5632817"><ele>277.0</ele><time>2026-04-26T09:44:20.646Z</time></trkpt><trkpt lat="43.6194883" lon="11.5632483"><ele>277.0</ele><time>2026-04-26T09:44:21.647Z</time></trkpt><trkpt lat="43.61957" lon="11.5632133"><ele>277.0</ele><time>2026-04-26T09:44:22.646Z</time></trkpt><trkpt lat="43.61965" lon="11.5631683"><ele>277.0</ele><time>2026-04-26T09:44:23.644Z</time></trkpt><trkpt lat="43.619725" lon="11.56312"><ele>277.0</ele><time>2026-04-26T09:44:24.645Z</time></trkpt><trkpt lat="43.619795" lon="11.5630733"><ele>277.3333333333333</ele><time>2026-04-26T09:44:25.646Z</time></trkpt><trkpt lat="43.6198583" lon="11.5630067"><ele>277.66666666666663</ele><time>2026-04-26T09:44:26.645Z</time></trkpt><trkpt lat="43.619915" lon="11.5629317"><ele>278.0</ele><time>2026-04-26T09:44:27.645Z</time></trkpt><trkpt lat="43.6199667" lon="11.5628467"><ele>278.3333333333333</ele><time>2026-04-26T09:44:28.645Z</time></trkpt><trkpt lat="43.6200133" lon="11.562755"><ele>278.6666666666667</ele><time>2026-04-26T09:44:29.645Z</time></trkpt><trkpt lat="43.620055" lon="11.562665"><ele>279.0</ele><time>2026-04-26T09:44:30.646Z</time></trkpt><trkpt lat="43.6200933" lon="11.562575"><ele>278.99999999999994</ele><time>2026-04-26T09:44:31.644Z</time></trkpt><trkpt lat="43.6201333" lon="11.5624917"><ele>279.0</ele><time>2026-04-26T09:44:32.648Z</time></trkpt><trkpt lat="43.6201717" lon="11.562405"><ele>279.0</ele><time>2026-04-26T09:44:33.644Z</time></trkpt><trkpt lat="43.620205" lon="11.56232"><ele>279.0</ele><time>2026-04-26T09:44:34.645Z</time></trkpt><trkpt lat="43.6202383" lon="11.5622417"><ele>279.0</ele><time>2026-04-26T09:44:35.645Z</time></trkpt><trkpt lat="43.62027" lon="11.5621617"><ele>278.99999999999994</ele><time>2026-04-26T09:44:36.645Z</time></trkpt><trkpt lat="43.6203067" lon="11.562085"><ele>279.0</ele><time>2026-04-26T09:44:37.646Z</time></trkpt><trkpt lat="43.62034" lon="11.5620083"><ele>281.25</ele><time>2026-04-26T09:44:38.647Z</time></trkpt><trkpt lat="43.6204" lon="11.5618667"><ele>283.5</ele><time>2026-04-26T09:44:40.645Z</time></trkpt><trkpt lat="43.620465" lon="11.5617267"><ele>285.75</ele><time>2026-04-26T09:44:42.646Z</time></trkpt><trkpt lat="43.6205283" lon="11.5615933"><ele>288.0</ele><time>2026-04-26T09:44:44.645Z</time></trkpt><trkpt lat="43.620595" lon="11.5614567"><ele>288.0</ele><time>2026-04-26T09:44:46.644Z</time></trkpt><trkpt lat="43.6206517" lon="11.5613183"><ele>288.0</ele><time>2026-04-26T09:44:48.645Z</time></trkpt><trkpt lat="43.6207033" lon="11.561185"><ele>288.0</ele><time>2026-04-26T09:44:50.646Z</time></trkpt><trkpt lat="43.6207733" lon="11.5610533"><ele>288.0</ele><time>2026-04-26T09:44:52.645Z</time></trkpt><trkpt lat="43.62083" lon="11.560905"><ele>287.75</ele><time>2026-04-26T09:44:54.645Z</time></trkpt><trkpt lat="43.6208917" lon="11.56076"><ele>287.5</ele><time>2026-04-26T09:44:56.646Z</time></trkpt><trkpt lat="43.6209617" lon="11.5606233"><ele>287.25</ele><time>2026-04-26T09:44:58.644Z</time></trkpt><trkpt lat="43.6210233" lon="11.5604883"><ele>287.0</ele><time>2026-04-26T09:45:00.647Z</time></trkpt><trkpt lat="43.6210833" lon="11.5603667"><ele>287.0</ele><time>2026-04-26T09:45:02.645Z</time></trkpt><trkpt lat="43.6211517" lon="11.5602417"><ele>287.0</ele><time>2026-04-26T09:45:04.644Z</time></trkpt><trkpt lat="43.6212217" lon="11.560115"><ele>287.0</ele><time>2026-04-26T09:45:06.648Z</time></trkpt><trkpt lat="43.621295" lon="11.5599933"><ele>287.0</ele><time>2026-04-26T09:45:08.647Z</time></trkpt><trkpt lat="43.6213683" lon="11.55986"><ele>287.0</ele><time>2026-04-26T09:45:10.647Z</time></trkpt><trkpt lat="43.621445" lon="11.5597467"><ele>287.0</ele><time>2026-04-26T09:45:12.645Z</time></trkpt><trkpt lat="43.6215283" lon="11.5596517"><ele>287.0</ele><time>2026-04-26T09:45:14.647Z</time></trkpt><trkpt lat="43.621625" lon="11.55958"><ele>287.0</ele><time>2026-04-26T09:45:16.644Z</time></trkpt><trkpt lat="43.6217217" lon="11.55952"><ele>287.0</ele><time>2026-04-26T09:45:18.645Z</time></trkpt><trkpt lat="43.6218317" lon="11.5594783"><ele>286.83333333333337</ele><time>2026-04-26T09:45:20.645Z</time></trkpt><trkpt lat="43.6219267" lon="11.5594533"><ele>286.6666666666667</ele><time>2026-04-26T09:45:22.646Z</time></trkpt><trkpt lat="43.62202" lon="11.5594283"><ele>286.5</ele><time>2026-04-26T09:45:24.645Z</time></trkpt><trkpt lat="43.6221133" lon="11.5593917"><ele>286.3333333333333</ele><time>2026-04-26T09:45:26.646Z</time></trkpt><trkpt lat="43.62218" lon="11.5593867"><ele>286.16666666666663</ele><time>2026-04-26T09:45:28.644Z</time></trkpt><trkpt lat="43.6222633" lon="11.5594233"><ele>286.0</ele><time>2026-04-26T09:45:32.646Z</time></trkpt><trkpt lat="43.6223267" lon="11.5594233"><ele>286.0</ele><time>2026-04-26T09:45:34.644Z</time></trkpt><trkpt lat="43.6224" lon="11.5593883"><ele>286.0</ele><time>2026-04-26T09:45:36.645Z</time></trkpt><trkpt lat="43.6224533" lon="11.5593033"><ele>286.0</ele><time>2026-04-26T09:45:38.646Z</time></trkpt><trkpt lat="43.622455" lon="11.5591683"><ele>286.0</ele><time>2026-04-26T09:45:40.645Z</time></trkpt><trkpt lat="43.6224" lon="11.55903"><ele>286.0</ele><time>2026-04-26T09:45:42.646Z</time></trkpt><trkpt lat="43.6223633" lon="11.5589533"><ele>286.0</ele><time>2026-04-26T09:45:43.646Z</time></trkpt><trkpt lat="43.622335" lon="11.558865"><ele>286.0</ele><time>2026-04-26T09:45:44.647Z</time></trkpt><trkpt lat="43.622315" lon="11.5587667"><ele>286.0</ele><time>2026-04-26T09:45:45.645Z</time></trkpt><trkpt lat="43.6222983" lon="11.5586667"><ele>286.0</ele><time>2026-04-26T09:45:46.648Z</time></trkpt><trkpt lat="43.6222733" lon="11.5585633"><ele>286.0</ele><time>2026-04-26T09:45:47.645Z</time></trkpt><trkpt lat="43.62224" lon="11.558465"><ele>286.0</ele><time>2026-04-26T09:45:48.645Z</time></trkpt><trkpt lat="43.6221983" lon="11.5583683"><ele>286.0</ele><time>2026-04-26T09:45:49.645Z</time></trkpt><trkpt lat="43.6221467" lon="11.5582833"><ele>285.8333333333333</ele><time>2026-04-26T09:45:50.645Z</time></trkpt><trkpt lat="43.6220867" lon="11.5582033"><ele>285.66666666666663</ele><time>2026-04-26T09:45:51.646Z</time></trkpt><trkpt lat="43.62202" lon="11.5581283"><ele>285.5</ele><time>2026-04-26T09:45:52.645Z</time></trkpt><trkpt lat="43.6219533" lon="11.5580517"><ele>285.3333333333333</ele><time>2026-04-26T09:45:53.647Z</time></trkpt><trkpt lat="43.6218833" lon="11.55798"><ele>285.1666666666667</ele><time>2026-04-26T09:45:54.645Z</time></trkpt><trkpt lat="43.6218083" lon="11.5579133"><ele>285.0</ele><time>2026-04-26T09:45:55.645Z</time></trkpt><trkpt lat="43.6217317" lon="11.5578433"><ele>285.0</ele><time>2026-04-26T09:45:56.645Z</time></trkpt><trkpt lat="43.6216517" lon="11.5577733"><ele>285.0</ele><time>2026-04-26T09:45:57.645Z</time></trkpt><trkpt lat="43.6215733" lon="11.5577017"><ele>285.0</ele><time>2026-04-26T09:45:58.648Z</time></trkpt><trkpt lat="43.6214967" lon="11.5576267"><ele>285.0</ele><time>2026-04-26T09:45:59.644Z</time></trkpt><trkpt lat="43.6214183" lon="11.5575533"><ele>285.0</ele><time>2026-04-26T09:46:00.645Z</time></trkpt><trkpt lat="43.6213417" lon="11.557485"><ele>285.0</ele><time>2026-04-26T09:46:01.645Z</time></trkpt><trkpt lat="43.621275" lon="11.5574033"><ele>285.0</ele><time>2026-04-26T09:46:02.645Z</time></trkpt><trkpt lat="43.6212217" lon="11.55731"><ele>285.0</ele><time>2026-04-26T09:46:03.647Z</time></trkpt><trkpt lat="43.62118" lon="11.5572083"><ele>285.0</ele><time>2026-04-26T09:46:04.645Z</time></trkpt><trkpt lat="43.62115" lon="11.5571017"><ele>285.0</ele><time>2026-04-26T09:46:05.645Z</time></trkpt><trkpt lat="43.6211817" lon="11.55699"><ele>285.0</ele><time>2026-04-26T09:46:06.646Z</time></trkpt><trkpt lat="43.6212433" lon="11.5568867"><ele>284.8</ele><time>2026-04-26T09:46:07.645Z</time></trkpt><trkpt lat="43.6213583" lon="11.556805"><ele>284.6</ele><time>2026-04-26T09:46:08.647Z</time></trkpt><trkpt lat="43.6214317" lon="11.5567333"><ele>284.4</ele><time>2026-04-26T09:46:09.646Z</time></trkpt><trkpt lat="43.621505" lon="11.5566683"><ele>284.2</ele><time>2026-04-26T09:46:10.645Z</time></trkpt><trkpt lat="43.6215767" lon="11.556605"><ele>284.0</ele><time>2026-04-26T09:46:11.645Z</time></trkpt><trkpt lat="43.6216383" lon="11.556545"><ele>284.0</ele><time>2026-04-26T09:46:12.647Z</time></trkpt><trkpt lat="43.6217017" lon="11.5564867"><ele>284.0</ele><time>2026-04-26T09:46:13.646Z</time></trkpt><trkpt lat="43.6217617" lon="11.5564283"><ele>284.0</ele><time>2026-04-26T09:46:14.646Z</time></trkpt><trkpt lat="43.6218233" lon="11.5563633"><ele>284.0</ele><time>2026-04-26T09:46:15.645Z</time></trkpt><trkpt lat="43.62189" lon="11.556305"><ele>284.0</ele><time>2026-04-26T09:46:16.645Z</time></trkpt><trkpt lat="43.62195" lon="11.5562467"><ele>284.0</ele><time>2026-04-26T09:46:17.645Z</time></trkpt><trkpt lat="43.6220117" lon="11.5561867"><ele>284.0</ele><time>2026-04-26T09:46:18.649Z</time></trkpt><trkpt lat="43.62207" lon="11.5561217"><ele>284.0</ele><time>2026-04-26T09:46:19.645Z</time></trkpt><trkpt lat="43.622125" lon="11.5560533"><ele>284.0</ele><time>2026-04-26T09:46:20.646Z</time></trkpt><trkpt lat="43.6221833" lon="11.5559883"><ele>284.0</ele><time>2026-04-26T09:46:21.646Z</time></trkpt><trkpt lat="43.6222433" lon="11.5559283"><ele>284.0</ele><time>2026-04-26T09:46:22.646Z</time></trkpt><trkpt lat="43.622305" lon="11.5558667"><ele>284.0</ele><time>2026-04-26T09:46:23.646Z</time></trkpt><trkpt lat="43.6223683" lon="11.5558"><ele>284.0</ele><time>2026-04-26T09:46:24.645Z</time></trkpt><trkpt lat="43.622425" lon="11.5557183"><ele>284.0</ele><time>2026-04-26T09:46:25.647Z</time></trkpt><trkpt lat="43.6224767" lon="11.55563"><ele>284.0</ele><time>2026-04-26T09:46:26.646Z</time></trkpt><trkpt lat="43.6225217" lon="11.5555333"><ele>284.0</ele><time>2026-04-26T09:46:27.646Z</time></trkpt><trkpt lat="43.6225633" lon="11.55543"><ele>284.0</ele><time>2026-04-26T09:46:28.644Z</time></trkpt><trkpt lat="43.6225983" lon="11.5553217"><ele>284.0</ele><time>2026-04-26T09:46:29.643Z</time></trkpt><trkpt lat="43.622625" lon="11.5552083"><ele>283.5</ele><time>2026-04-26T09:46:30.644Z</time></trkpt><trkpt lat="43.6226467" lon="11.55509"><ele>283.0</ele><time>2026-04-26T09:46:31.644Z</time></trkpt><trkpt lat="43.6226683" lon="11.554975"><ele>282.5</ele><time>2026-04-26T09:46:32.645Z</time></trkpt><trkpt lat="43.622675" lon="11.5548533"><ele>282.0</ele><time>2026-04-26T09:46:33.643Z</time></trkpt><trkpt lat="43.6226717" lon="11.5547333"><ele>281.5</ele><time>2026-04-26T09:46:34.643Z</time></trkpt><trkpt lat="43.622665" lon="11.55461"><ele>281.0</ele><time>2026-04-26T09:46:35.643Z</time></trkpt><trkpt lat="43.6226633" lon="11.5544833"><ele>280.6666666666667</ele><time>2026-04-26T09:46:36.642Z</time></trkpt><trkpt lat="43.622655" lon="11.5543583"><ele>280.33333333333337</ele><time>2026-04-26T09:46:37.648Z</time></trkpt><trkpt lat="43.622645" lon="11.5542367"><ele>280.0</ele><time>2026-04-26T09:46:38.645Z</time></trkpt><trkpt lat="43.6226333" lon="11.5541183"><ele>279.6666666666667</ele><time>2026-04-26T09:46:39.646Z</time></trkpt><trkpt lat="43.6226117" lon="11.553995"><ele>279.3333333333333</ele><time>2026-04-26T09:46:40.645Z</time></trkpt><trkpt lat="43.6225867" lon="11.5538733"><ele>279.0</ele><time>2026-04-26T09:46:41.646Z</time></trkpt><trkpt lat="43.6225533" lon="11.553755"><ele>278.8</ele><time>2026-04-26T09:46:42.646Z</time></trkpt><trkpt lat="43.6225183" lon="11.553635"><ele>278.59999999999997</ele><time>2026-04-26T09:46:43.645Z</time></trkpt><trkpt lat="43.6224717" lon="11.5535217"><ele>278.4</ele><time>2026-04-26T09:46:44.647Z</time></trkpt><trkpt lat="43.62242" lon="11.553415"><ele>278.2</ele><time>2026-04-26T09:46:45.646Z</time></trkpt><trkpt lat="43.622365" lon="11.553315"><ele>278.0</ele><time>2026-04-26T09:46:46.648Z</time></trkpt><trkpt lat="43.6223017" lon="11.5532217"><ele>278.0</ele><time>2026-04-26T09:46:47.647Z</time></trkpt><trkpt lat="43.622235" lon="11.553135"><ele>278.0</ele><time>2026-04-26T09:46:48.645Z</time></trkpt><trkpt lat="43.6221667" lon="11.55306"><ele>278.0</ele><time>2026-04-26T09:46:49.645Z</time></trkpt><trkpt lat="43.6220967" lon="11.5529883"><ele>278.0</ele><time>2026-04-26T09:46:50.648Z</time></trkpt><trkpt lat="43.6220217" lon="11.552925"><ele>278.0</ele><time>2026-04-26T09:46:51.647Z</time></trkpt><trkpt lat="43.6219433" lon="11.5528683"><ele>278.0</ele><time>2026-04-26T09:46:52.646Z</time></trkpt><trkpt lat="43.6218633" lon="11.5528183"><ele>276.8</ele><time>2026-04-26T09:46:53.648Z</time></trkpt><trkpt lat="43.6217767" lon="11.552775"><ele>275.6</ele><time>2026-04-26T09:46:54.646Z</time></trkpt><trkpt lat="43.62169" lon="11.5527417"><ele>274.4</ele><time>2026-04-26T09:46:55.646Z</time></trkpt><trkpt lat="43.6216" lon="11.5527167"><ele>273.2</ele><time>2026-04-26T09:46:56.646Z</time></trkpt><trkpt lat="43.6215033" lon="11.5527017"><ele>272.0</ele><time>2026-04-26T09:46:57.645Z</time></trkpt><trkpt lat="43.6214067" lon="11.5527"><ele>272.0</ele><time>2026-04-26T09:46:58.645Z</time></trkpt><trkpt lat="43.6213067" lon="11.5527017"><ele>272.0</ele><time>2026-04-26T09:46:59.644Z</time></trkpt><trkpt lat="43.6212083" lon="11.552705"><ele>272.0</ele><time>2026-04-26T09:47:00.646Z</time></trkpt><trkpt lat="43.62111" lon="11.5527117"><ele>272.0</ele><time>2026-04-26T09:47:01.647Z</time></trkpt><trkpt lat="43.62102" lon="11.5527217"><ele>272.0</ele><time>2026-04-26T09:47:02.646Z</time></trkpt><trkpt lat="43.6209267" lon="11.5527333"><ele>272.1666666666667</ele><time>2026-04-26T09:47:03.647Z</time></trkpt><trkpt lat="43.6208383" lon="11.5527417"><ele>272.33333333333337</ele><time>2026-04-26T09:47:04.645Z</time></trkpt><trkpt lat="43.620755" lon="11.5527433"><ele>272.5</ele><time>2026-04-26T09:47:05.646Z</time></trkpt><trkpt lat="43.6206767" lon="11.5527383"><ele>272.6666666666667</ele><time>2026-04-26T09:47:06.648Z</time></trkpt><trkpt lat="43.620595" lon="11.5527217"><ele>272.8333333333333</ele><time>2026-04-26T09:47:07.646Z</time></trkpt><trkpt lat="43.6205333" lon="11.5526867"><ele>273.0</ele><time>2026-04-26T09:47:08.646Z</time></trkpt><trkpt lat="43.6204833" lon="11.55262"><ele>273.0</ele><time>2026-04-26T09:47:09.646Z</time></trkpt><trkpt lat="43.6204817" lon="11.5524967"><ele>273.0</ele><time>2026-04-26T09:47:10.645Z</time></trkpt><trkpt lat="43.6205067" lon="11.5523517"><ele>273.0</ele><time>2026-04-26T09:47:11.645Z</time></trkpt><trkpt lat="43.6205317" lon="11.5522017"><ele>273.0</ele><time>2026-04-26T09:47:12.645Z</time></trkpt><trkpt lat="43.6205517" lon="11.5520617"><ele>273.0</ele><time>2026-04-26T09:47:13.645Z</time></trkpt><trkpt lat="43.6205617" lon="11.5519267"><ele>272.2</ele><time>2026-04-26T09:47:14.646Z</time></trkpt><trkpt lat="43.6205683" lon="11.5517917"><ele>271.4</ele><time>2026-04-26T09:47:15.646Z</time></trkpt><trkpt lat="43.62058" lon="11.551655"><ele>270.59999999999997</ele><time>2026-04-26T09:47:16.646Z</time></trkpt><trkpt lat="43.620585" lon="11.5515183"><ele>269.8</ele><time>2026-04-26T09:47:17.646Z</time></trkpt><trkpt lat="43.6205883" lon="11.551385"><ele>269.0</ele><time>2026-04-26T09:47:18.648Z</time></trkpt><trkpt lat="43.620595" lon="11.5512533"><ele>268.59999999999997</ele><time>2026-04-26T09:47:19.646Z</time></trkpt><trkpt lat="43.6206083" lon="11.5511183"><ele>268.2</ele><time>2026-04-26T09:47:20.647Z</time></trkpt><trkpt lat="43.6206167" lon="11.5509817"><ele>267.79999999999995</ele><time>2026-04-26T09:47:21.645Z</time></trkpt><trkpt lat="43.620625" lon="11.5508367"><ele>267.4</ele><time>2026-04-26T09:47:22.647Z</time></trkpt><trkpt lat="43.6206333" lon="11.5506817"><ele>267.0</ele><time>2026-04-26T09:47:23.645Z</time></trkpt><trkpt lat="43.6206483" lon="11.5505233"><ele>266.25</ele><time>2026-04-26T09:47:24.646Z</time></trkpt><trkpt lat="43.6206567" lon="11.5503617"><ele>265.5</ele><time>2026-04-26T09:47:25.647Z</time></trkpt><trkpt lat="43.6206633" lon="11.550195"><ele>264.75</ele><time>2026-04-26T09:47:26.646Z</time></trkpt><trkpt lat="43.6206717" lon="11.55002"><ele>264.0</ele><time>2026-04-26T09:47:27.646Z</time></trkpt><trkpt lat="43.620675" lon="11.5498417"><ele>264.0</ele><time>2026-04-26T09:47:28.646Z</time></trkpt><trkpt lat="43.620675" lon="11.5496617"><ele>264.0</ele><time>2026-04-26T09:47:29.645Z</time></trkpt><trkpt lat="43.6206717" lon="11.549475"><ele>264.0</ele><time>2026-04-26T09:47:30.646Z</time></trkpt><trkpt lat="43.62067" lon="11.549285"><ele>264.0</ele><time>2026-04-26T09:47:31.646Z</time></trkpt><trkpt lat="43.6206633" lon="11.54909"><ele>262.0</ele><time>2026-04-26T09:47:32.646Z</time></trkpt><trkpt lat="43.6206567" lon="11.5488883"><ele>260.0</ele><time>2026-04-26T09:47:33.646Z</time></trkpt><trkpt lat="43.6206533" lon="11.54868"><ele>258.0</ele><time>2026-04-26T09:47:34.644Z</time></trkpt><trkpt lat="43.6206583" lon="11.5484683"><ele>255.33333333333331</ele><time>2026-04-26T09:47:35.645Z</time></trkpt><trkpt lat="43.6206667" lon="11.548255"><ele>252.66666666666666</ele><time>2026-04-26T09:47:36.647Z</time></trkpt><trkpt lat="43.6206917" lon="11.5480417"><ele>250.0</ele><time>2026-04-26T09:47:37.645Z</time></trkpt><trkpt lat="43.6207183" lon="11.54783"><ele>249.0</ele><time>2026-04-26T09:47:38.645Z</time></trkpt><trkpt lat="43.6207483" lon="11.5476133"><ele>248.0</ele><time>2026-04-26T09:47:39.645Z</time></trkpt><trkpt lat="43.6207883" lon="11.547395"><ele>247.0</ele><time>2026-04-26T09:47:40.646Z</time></trkpt><trkpt lat="43.620835" lon="11.54718"><ele>244.66666666666666</ele><time>2026-04-26T09:47:41.646Z</time></trkpt><trkpt lat="43.62088" lon="11.5469617"><ele>242.33333333333331</ele><time>2026-04-26T09:47:42.647Z</time></trkpt><trkpt lat="43.6209283" lon="11.5467433"><ele>240.0</ele><time>2026-04-26T09:47:43.647Z</time></trkpt><trkpt lat="43.62097" lon="11.5465333"><ele>240.0</ele><time>2026-04-26T09:47:44.645Z</time></trkpt><trkpt lat="43.6209883" lon="11.5463267"><ele>240.0</ele><time>2026-04-26T09:47:45.644Z</time></trkpt><trkpt lat="43.6210183" lon="11.5461367"><ele>240.0</ele><time>2026-04-26T09:47:46.644Z</time></trkpt><trkpt lat="43.6210383" lon="11.5459467"><ele>240.0</ele><time>2026-04-26T09:47:47.646Z</time></trkpt><trkpt lat="43.6210367" lon="11.545755"><ele>239.75</ele><time>2026-04-26T09:47:48.646Z</time></trkpt><trkpt lat="43.6210117" lon="11.5455667"><ele>239.5</ele><time>2026-04-26T09:47:49.645Z</time></trkpt><trkpt lat="43.6209483" lon="11.5453917"><ele>239.25</ele><time>2026-04-26T09:47:50.646Z</time></trkpt><trkpt lat="43.6208783" lon="11.54523"><ele>239.0</ele><time>2026-04-26T09:47:51.646Z</time></trkpt><trkpt lat="43.6207867" lon="11.5450833"><ele>239.0</ele><time>2026-04-26T09:47:52.645Z</time></trkpt><trkpt lat="43.6206833" lon="11.5449533"><ele>239.0</ele><time>2026-04-26T09:47:53.645Z</time></trkpt><trkpt lat="43.62056" lon="11.5448533"><ele>239.0</ele><time>2026-04-26T09:47:54.646Z</time></trkpt><trkpt lat="43.6204317" lon="11.54478"><ele>239.0</ele><time>2026-04-26T09:47:55.645Z</time></trkpt><trkpt lat="43.6202833" lon="11.5447183"><ele>237.75</ele><time>2026-04-26T09:47:56.648Z</time></trkpt><trkpt lat="43.6201383" lon="11.5446617"><ele>236.5</ele><time>2026-04-26T09:47:57.647Z</time></trkpt><trkpt lat="43.6200117" lon="11.5446033"><ele>235.25</ele><time>2026-04-26T09:47:58.644Z</time></trkpt><trkpt lat="43.6198883" lon="11.5445317"><ele>234.0</ele><time>2026-04-26T09:47:59.645Z</time></trkpt><trkpt lat="43.6197633" lon="11.5444333"><ele>234.0</ele><time>2026-04-26T09:48:00.644Z</time></trkpt><trkpt lat="43.6196633" lon="11.544295"><ele>234.0</ele><time>2026-04-26T09:48:01.646Z</time></trkpt><trkpt lat="43.6195967" lon="11.5441283"><ele>234.0</ele><time>2026-04-26T09:48:02.646Z</time></trkpt><trkpt lat="43.619575" lon="11.5439383"><ele>234.0</ele><time>2026-04-26T09:48:03.646Z</time></trkpt><trkpt lat="43.6195783" lon="11.5437517"><ele>234.0</ele><time>2026-04-26T09:48:04.645Z</time></trkpt><trkpt lat="43.6195917" lon="11.543555"><ele>234.0</ele><time>2026-04-26T09:48:05.645Z</time></trkpt><trkpt lat="43.6196" lon="11.54336"><ele>234.0</ele><time>2026-04-26T09:48:06.647Z</time></trkpt><trkpt lat="43.6196117" lon="11.543165"><ele>234.0</ele><time>2026-04-26T09:48:07.645Z</time></trkpt><trkpt lat="43.6196183" lon="11.54297"><ele>232.5</ele><time>2026-04-26T09:48:08.648Z</time></trkpt><trkpt lat="43.6196267" lon="11.5427767"><ele>231.0</ele><time>2026-04-26T09:48:09.644Z</time></trkpt><trkpt lat="43.6196333" lon="11.542585"><ele>229.5</ele><time>2026-04-26T09:48:10.644Z</time></trkpt><trkpt lat="43.6196333" lon="11.5423917"><ele>228.0</ele><time>2026-04-26T09:48:11.646Z</time></trkpt><trkpt lat="43.6196383" lon="11.542205"><ele>228.25</ele><time>2026-04-26T09:48:12.644Z</time></trkpt><trkpt lat="43.6196533" lon="11.5420267"><ele>228.5</ele><time>2026-04-26T09:48:13.646Z</time></trkpt><trkpt lat="43.619675" lon="11.54186"><ele>228.75</ele><time>2026-04-26T09:48:14.645Z</time></trkpt><trkpt lat="43.61972" lon="11.5417117"><ele>229.0</ele><time>2026-04-26T09:48:15.648Z</time></trkpt><trkpt lat="43.6197567" lon="11.54157"><ele>229.0</ele><time>2026-04-26T09:48:16.645Z</time></trkpt><trkpt lat="43.619815" lon="11.541435"><ele>229.0</ele><time>2026-04-26T09:48:17.645Z</time></trkpt><trkpt lat="43.6212267" lon="11.5404967"><ele>209.0</ele><time>2026-04-26T09:48:28.647Z</time></trkpt><trkpt lat="43.6213783" lon="11.5403683"><ele>189.0</ele><time>2026-04-26T09:48:29.647Z</time></trkpt><trkpt lat="43.6216183" lon="11.5401517"><ele>189.0</ele><time>2026-04-26T09:48:30.645Z</time></trkpt><trkpt lat="43.6217767" lon="11.540005"><ele>189.0</ele><time>2026-04-26T09:48:31.645Z</time></trkpt><trkpt lat="43.6219117" lon="11.5398617"><ele>189.0</ele><time>2026-04-26T09:48:32.647Z</time></trkpt><trkpt lat="43.6220433" lon="11.5397167"><ele>188.66666666666666</ele><time>2026-04-26T09:48:33.645Z</time></trkpt><trkpt lat="43.6221433" lon="11.53956"><ele>188.33333333333331</ele><time>2026-04-26T09:48:34.644Z</time></trkpt><trkpt lat="43.6222567" lon="11.5394"><ele>188.0</ele><time>2026-04-26T09:48:35.647Z</time></trkpt><trkpt lat="43.6223733" lon="11.539235"><ele>185.0</ele><time>2026-04-26T09:48:36.645Z</time></trkpt><trkpt lat="43.62249" lon="11.5390717"><ele>182.0</ele><time>2026-04-26T09:48:37.646Z</time></trkpt><trkpt lat="43.6226017" lon="11.5389017"><ele>179.0</ele><time>2026-04-26T09:48:38.645Z</time></trkpt><trkpt lat="43.6227083" lon="11.53873"><ele>177.66666666666666</ele><time>2026-04-26T09:48:39.646Z</time></trkpt><trkpt lat="43.6228117" lon="11.5385533"><ele>176.33333333333334</ele><time>2026-04-26T09:48:40.646Z</time></trkpt><trkpt lat="43.62291" lon="11.5383717"><ele>175.0</ele><time>2026-04-26T09:48:41.645Z</time></trkpt><trkpt lat="43.623005" lon="11.5381833"><ele>172.33333333333334</ele><time>2026-04-26T09:48:42.645Z</time></trkpt><trkpt lat="43.6231" lon="11.5379933"><ele>169.66666666666666</ele><time>2026-04-26T09:48:43.645Z</time></trkpt><trkpt lat="43.62319" lon="11.537805"><ele>167.0</ele><time>2026-04-26T09:48:44.645Z</time></trkpt><trkpt lat="43.6232767" lon="11.5376167"><ele>166.0</ele><time>2026-04-26T09:48:45.645Z</time></trkpt><trkpt lat="43.6233617" lon="11.5374317"><ele>165.0</ele><time>2026-04-26T09:48:46.647Z</time></trkpt><trkpt lat="43.6234483" lon="11.5372483"><ele>164.0</ele><time>2026-04-26T09:48:47.645Z</time></trkpt><trkpt lat="43.623535" lon="11.5370683"><ele>164.33333333333331</ele><time>2026-04-26T09:48:48.645Z</time></trkpt><trkpt lat="43.6236183" lon="11.536885"><ele>164.66666666666666</ele><time>2026-04-26T09:48:49.648Z</time></trkpt><trkpt lat="43.6237017" lon="11.5367033"><ele>165.0</ele><time>2026-04-26T09:48:50.646Z</time></trkpt><trkpt lat="43.623785" lon="11.53653"><ele>164.25</ele><time>2026-04-26T09:48:51.645Z</time></trkpt><trkpt lat="43.6238683" lon="11.536365"><ele>163.5</ele><time>2026-04-26T09:48:52.645Z</time></trkpt><trkpt lat="43.6239467" lon="11.5361933"><ele>162.75</ele><time>2026-04-26T09:48:53.645Z</time></trkpt><trkpt lat="43.6240233" lon="11.53602"><ele>162.0</ele><time>2026-04-26T09:48:54.646Z</time></trkpt><trkpt lat="43.6240983" lon="11.5358533"><ele>161.75</ele><time>2026-04-26T09:48:55.645Z</time></trkpt><trkpt lat="43.624175" lon="11.535685"><ele>161.5</ele><time>2026-04-26T09:48:56.647Z</time></trkpt><trkpt lat="43.6242483" lon="11.5355167"><ele>161.25</ele><time>2026-04-26T09:48:57.645Z</time></trkpt><trkpt lat="43.6243183" lon="11.5353483"><ele>161.0</ele><time>2026-04-26T09:48:58.645Z</time></trkpt><trkpt lat="43.6243867" lon="11.5351817"><ele>160.5</ele><time>2026-04-26T09:48:59.647Z</time></trkpt><trkpt lat="43.6244483" lon="11.53502"><ele>160.0</ele><time>2026-04-26T09:49:00.647Z</time></trkpt><trkpt lat="43.624505" lon="11.5348583"><ele>159.5</ele><time>2026-04-26T09:49:01.647Z</time></trkpt><trkpt lat="43.62456" lon="11.5347017"><ele>159.0</ele><time>2026-04-26T09:49:02.647Z</time></trkpt><trkpt lat="43.6246083" lon="11.5345467"><ele>160.5</ele><time>2026-04-26T09:49:03.645Z</time></trkpt><trkpt lat="43.6246517" lon="11.5343983"><ele>162.0</ele><time>2026-04-26T09:49:04.648Z</time></trkpt><trkpt lat="43.6246933" lon="11.5342467"><ele>163.5</ele><time>2026-04-26T09:49:05.647Z</time></trkpt><trkpt lat="43.6247283" lon="11.5341"><ele>165.0</ele><time>2026-04-26T09:49:06.646Z</time></trkpt><trkpt lat="43.6247683" lon="11.5339583"><ele>165.0</ele><time>2026-04-26T09:49:07.646Z</time></trkpt><trkpt lat="43.6248033" lon="11.5338217"><ele>165.0</ele><time>2026-04-26T09:49:08.646Z</time></trkpt><trkpt lat="43.6248383" lon="11.53368"><ele>165.0</ele><time>2026-04-26T09:49:09.647Z</time></trkpt><trkpt lat="43.6248717" lon="11.5335417"><ele>165.0</ele><time>2026-04-26T09:49:10.645Z</time></trkpt><trkpt lat="43.6249083" lon="11.5334033"><ele>165.0</ele><time>2026-04-26T09:49:11.647Z</time></trkpt><trkpt lat="43.624945" lon="11.533265"><ele>164.2</ele><time>2026-04-26T09:49:12.646Z</time></trkpt><trkpt lat="43.6249767" lon="11.533125"><ele>163.4</ele><time>2026-04-26T09:49:13.646Z</time></trkpt><trkpt lat="43.6250117" lon="11.5329917"><ele>162.60000000000002</ele><time>2026-04-26T09:49:14.645Z</time></trkpt><trkpt lat="43.625045" lon="11.532855"><ele>161.8</ele><time>2026-04-26T09:49:15.646Z</time></trkpt><trkpt lat="43.6250783" lon="11.5327233"><ele>161.0</ele><time>2026-04-26T09:49:16.646Z</time></trkpt><trkpt lat="43.6251183" lon="11.5325883"><ele>160.20000000000002</ele><time>2026-04-26T09:49:17.647Z</time></trkpt><trkpt lat="43.6251567" lon="11.53246"><ele>159.4</ele><time>2026-04-26T09:49:18.642Z</time></trkpt><trkpt lat="43.6251883" lon="11.5323367"><ele>158.6</ele><time>2026-04-26T09:49:19.644Z</time></trkpt><trkpt lat="43.62522" lon="11.5322083"><ele>157.8</ele><time>2026-04-26T09:49:20.643Z</time></trkpt><trkpt lat="43.6252517" lon="11.5320917"><ele>157.0</ele><time>2026-04-26T09:49:21.643Z</time></trkpt><trkpt lat="43.6252833" lon="11.53197"><ele>158.0</ele><time>2026-04-26T09:49:22.643Z</time></trkpt><trkpt lat="43.625315" lon="11.5318433"><ele>159.0</ele><time>2026-04-26T09:49:23.643Z</time></trkpt><trkpt lat="43.6253467" lon="11.5317267"><ele>160.0</ele><time>2026-04-26T09:49:24.643Z</time></trkpt><trkpt lat="43.625375" lon="11.53161"><ele>161.0</ele><time>2026-04-26T09:49:25.644Z</time></trkpt><trkpt lat="43.625405" lon="11.53149"><ele>162.0</ele><time>2026-04-26T09:49:26.646Z</time></trkpt><trkpt lat="43.6254317" lon="11.531375"><ele>162.0</ele><time>2026-04-26T09:49:27.646Z</time></trkpt><trkpt lat="43.6254583" lon="11.5312617"><ele>162.0</ele><time>2026-04-26T09:49:28.647Z</time></trkpt><trkpt lat="43.6254867" lon="11.5311417"><ele>162.0</ele><time>2026-04-26T09:49:29.646Z</time></trkpt><trkpt lat="43.6255067" lon="11.531025"><ele>162.0</ele><time>2026-04-26T09:49:30.648Z</time></trkpt><trkpt lat="43.62553" lon="11.53091"><ele>162.0</ele><time>2026-04-26T09:49:31.647Z</time></trkpt><trkpt lat="43.6255483" lon="11.5308"><ele>162.0</ele><time>2026-04-26T09:49:32.647Z</time></trkpt><trkpt lat="43.6255667" lon="11.5306767"><ele>161.33333333333334</ele><time>2026-04-26T09:49:33.647Z</time></trkpt><trkpt lat="43.6255783" lon="11.5305583"><ele>160.66666666666666</ele><time>2026-04-26T09:49:34.647Z</time></trkpt><trkpt lat="43.62559" lon="11.53044"><ele>160.0</ele><time>2026-04-26T09:49:35.646Z</time></trkpt><trkpt lat="43.6256017" lon="11.5303183"><ele>159.33333333333331</ele><time>2026-04-26T09:49:36.646Z</time></trkpt><trkpt lat="43.6256067" lon="11.5301967"><ele>158.66666666666666</ele><time>2026-04-26T09:49:37.646Z</time></trkpt><trkpt lat="43.6256117" lon="11.5300717"><ele>158.0</ele><time>2026-04-26T09:49:38.646Z</time></trkpt><trkpt lat="43.6256083" lon="11.529945"><ele>157.83333333333331</ele><time>2026-04-26T09:49:39.645Z</time></trkpt><trkpt lat="43.6256017" lon="11.52982"><ele>157.66666666666666</ele><time>2026-04-26T09:49:40.645Z</time></trkpt><trkpt lat="43.6255917" lon="11.5297"><ele>157.5</ele><time>2026-04-26T09:49:41.645Z</time></trkpt><trkpt lat="43.6255817" lon="11.5295783"><ele>157.33333333333334</ele><time>2026-04-26T09:49:42.646Z</time></trkpt><trkpt lat="43.6255733" lon="11.5294583"><ele>157.16666666666669</ele><time>2026-04-26T09:49:43.646Z</time></trkpt><trkpt lat="43.6255583" lon="11.5293367"><ele>157.0</ele><time>2026-04-26T09:49:44.645Z</time></trkpt><trkpt lat="43.6255417" lon="11.5292167"><ele>156.5</ele><time>2026-04-26T09:49:45.645Z</time></trkpt><trkpt lat="43.6255217" lon="11.5290967"><ele>156.0</ele><time>2026-04-26T09:49:46.644Z</time></trkpt><trkpt lat="43.6254983" lon="11.5289783"><ele>155.5</ele><time>2026-04-26T09:49:47.645Z</time></trkpt><trkpt lat="43.62547" lon="11.52886"><ele>155.0</ele><time>2026-04-26T09:49:48.645Z</time></trkpt><trkpt lat="43.625445" lon="11.5287417"><ele>154.5</ele><time>2026-04-26T09:49:49.646Z</time></trkpt><trkpt lat="43.62542" lon="11.5286233"><ele>154.0</ele><time>2026-04-26T09:49:50.645Z</time></trkpt><trkpt lat="43.6253933" lon="11.528505"><ele>153.4</ele><time>2026-04-26T09:49:51.646Z</time></trkpt><trkpt lat="43.62536" lon="11.5283833"><ele>152.8</ele><time>2026-04-26T09:49:52.645Z</time></trkpt><trkpt lat="43.6253333" lon="11.5282633"><ele>152.2</ele><time>2026-04-26T09:49:53.644Z</time></trkpt><trkpt lat="43.6253083" lon="11.5281417"><ele>151.6</ele><time>2026-04-26T09:49:54.645Z</time></trkpt><trkpt lat="43.625285" lon="11.5280183"><ele>151.0</ele><time>2026-04-26T09:49:55.645Z</time></trkpt><trkpt lat="43.625265" lon="11.5278967"><ele>150.8</ele><time>2026-04-26T09:49:56.645Z</time></trkpt><trkpt lat="43.6252383" lon="11.5277733"><ele>150.6</ele><time>2026-04-26T09:49:57.646Z</time></trkpt><trkpt lat="43.6252183" lon="11.52765"><ele>150.4</ele><time>2026-04-26T09:49:58.646Z</time></trkpt><trkpt lat="43.625195" lon="11.5275267"><ele>150.2</ele><time>2026-04-26T09:49:59.646Z</time></trkpt><trkpt lat="43.6251733" lon="11.5274033"><ele>150.0</ele><time>2026-04-26T09:50:00.644Z</time></trkpt><trkpt lat="43.6251533" lon="11.52728"><ele>150.0</ele><time>2026-04-26T09:50:01.644Z</time></trkpt><trkpt lat="43.6251333" lon="11.5271567"><ele>150.0</ele><time>2026-04-26T09:50:02.645Z</time></trkpt><trkpt lat="43.6251133" lon="11.5270367"><ele>150.0</ele><time>2026-04-26T09:50:03.646Z</time></trkpt><trkpt lat="43.62509" lon="11.526915"><ele>150.0</ele><time>2026-04-26T09:50:04.644Z</time></trkpt><trkpt lat="43.62507" lon="11.5267933"><ele>150.0</ele><time>2026-04-26T09:50:05.642Z</time></trkpt><trkpt lat="43.625055" lon="11.52667"><ele>150.0</ele><time>2026-04-26T09:50:06.645Z</time></trkpt><trkpt lat="43.6250433" lon="11.526545"><ele>150.0</ele><time>2026-04-26T09:50:07.642Z</time></trkpt><trkpt lat="43.6250317" lon="11.52642"><ele>150.0</ele><time>2026-04-26T09:50:08.643Z</time></trkpt><trkpt lat="43.6250217" lon="11.526295"><ele>150.0</ele><time>2026-04-26T09:50:09.644Z</time></trkpt><trkpt lat="43.625025" lon="11.526165"><ele>150.0</ele><time>2026-04-26T09:50:10.642Z</time></trkpt><trkpt lat="43.6250267" lon="11.5260367"><ele>149.4</ele><time>2026-04-26T09:50:11.642Z</time></trkpt><trkpt lat="43.6250267" lon="11.52591"><ele>148.8</ele><time>2026-04-26T09:50:12.643Z</time></trkpt><trkpt lat="43.6250267" lon="11.5257833"><ele>148.2</ele><time>2026-04-26T09:50:13.646Z</time></trkpt><trkpt lat="43.625025" lon="11.525655"><ele>147.6</ele><time>2026-04-26T09:50:14.647Z</time></trkpt><trkpt lat="43.6250267" lon="11.525525"><ele>147.0</ele><time>2026-04-26T09:50:15.645Z</time></trkpt><trkpt lat="43.62503" lon="11.5253967"><ele>147.2</ele><time>2026-04-26T09:50:16.646Z</time></trkpt><trkpt lat="43.6250333" lon="11.5252717"><ele>147.39999999999998</ele><time>2026-04-26T09:50:17.645Z</time></trkpt><trkpt lat="43.6250383" lon="11.5251417"><ele>147.60000000000002</ele><time>2026-04-26T09:50:18.645Z</time></trkpt><trkpt lat="43.6250433" lon="11.5250133"><ele>147.8</ele><time>2026-04-26T09:50:19.644Z</time></trkpt><trkpt lat="43.6250517" lon="11.5248867"><ele>148.0</ele><time>2026-04-26T09:50:20.646Z</time></trkpt><trkpt lat="43.62506" lon="11.5247617"><ele>148.0</ele><time>2026-04-26T09:50:21.645Z</time></trkpt><trkpt lat="43.6250667" lon="11.524635"><ele>148.0</ele><time>2026-04-26T09:50:22.644Z</time></trkpt><trkpt lat="43.625075" lon="11.5245083"><ele>148.0</ele><time>2026-04-26T09:50:23.645Z</time></trkpt><trkpt lat="43.6250817" lon="11.5243833"><ele>148.0</ele><time>2026-04-26T09:50:24.644Z</time></trkpt><trkpt lat="43.6250867" lon="11.5242617"><ele>148.0</ele><time>2026-04-26T09:50:25.647Z</time></trkpt><trkpt lat="43.6250883" lon="11.52414"><ele>148.16666666666669</ele><time>2026-04-26T09:50:26.645Z</time></trkpt><trkpt lat="43.6250967" lon="11.52402"><ele>148.33333333333334</ele><time>2026-04-26T09:50:27.646Z</time></trkpt><trkpt lat="43.6250967" lon="11.5239017"><ele>148.5</ele><time>2026-04-26T09:50:28.644Z</time></trkpt><trkpt lat="43.6251067" lon="11.5237833"><ele>148.66666666666666</ele><time>2026-04-26T09:50:29.645Z</time></trkpt><trkpt lat="43.625115" lon="11.5236667"><ele>148.83333333333331</ele><time>2026-04-26T09:50:30.644Z</time></trkpt><trkpt lat="43.6251267" lon="11.52355"><ele>149.0</ele><time>2026-04-26T09:50:31.645Z</time></trkpt><trkpt lat="43.6251433" lon="11.5234383"><ele>149.0</ele><time>2026-04-26T09:50:32.646Z</time></trkpt><trkpt lat="43.62517" lon="11.5233317"><ele>149.0</ele><time>2026-04-26T09:50:33.645Z</time></trkpt><trkpt lat="43.6252033" lon="11.5232367"><ele>149.0</ele><time>2026-04-26T09:50:34.646Z</time></trkpt><trkpt lat="43.6252517" lon="11.5231517"><ele>149.0</ele><time>2026-04-26T09:50:35.645Z</time></trkpt><trkpt lat="43.6253083" lon="11.5230867"><ele>149.0</ele><time>2026-04-26T09:50:36.645Z</time></trkpt><trkpt lat="43.625375" lon="11.5230567"><ele>149.0</ele><time>2026-04-26T09:50:37.647Z</time></trkpt><trkpt lat="43.6254433" lon="11.5230483"><ele>149.0</ele><time>2026-04-26T09:50:38.645Z</time></trkpt><trkpt lat="43.6255083" lon="11.52305"><ele>149.0</ele><time>2026-04-26T09:50:39.645Z</time></trkpt><trkpt lat="43.6255717" lon="11.52305"><ele>149.0</ele><time>2026-04-26T09:50:40.644Z</time></trkpt><trkpt lat="43.625635" lon="11.5230417"><ele>149.0</ele><time>2026-04-26T09:50:41.644Z</time></trkpt><trkpt lat="43.6257617" lon="11.5229983"><ele>149.0</ele><time>2026-04-26T09:50:43.645Z</time></trkpt><trkpt lat="43.6258783" lon="11.5229567"><ele>149.0</ele><time>2026-04-26T09:50:45.646Z</time></trkpt><trkpt lat="43.6259383" lon="11.522925"><ele>149.0</ele><time>2026-04-26T09:50:46.648Z</time></trkpt><trkpt lat="43.6259967" lon="11.522885"><ele>149.0</ele><time>2026-04-26T09:50:47.645Z</time></trkpt><trkpt lat="43.6261017" lon="11.5228"><ele>149.0</ele><time>2026-04-26T09:50:49.645Z</time></trkpt><trkpt lat="43.626155" lon="11.5227517"><ele>149.0</ele><time>2026-04-26T09:50:50.647Z</time></trkpt><trkpt lat="43.6262483" lon="11.52264"><ele>149.0</ele><time>2026-04-26T09:50:52.644Z</time></trkpt><trkpt lat="43.6262933" lon="11.522575"><ele>149.0</ele><time>2026-04-26T09:50:53.644Z</time></trkpt><trkpt lat="43.6263367" lon="11.5225083"><ele>149.0</ele><time>2026-04-26T09:50:54.645Z</time></trkpt><trkpt lat="43.6264233" lon="11.522375"><ele>149.0</ele><time>2026-04-26T09:50:56.646Z</time></trkpt><trkpt lat="43.62647" lon="11.5223133"><ele>149.0</ele><time>2026-04-26T09:50:57.645Z</time></trkpt><trkpt lat="43.626515" lon="11.5222467"><ele>149.0</ele><time>2026-04-26T09:50:58.645Z</time></trkpt><trkpt lat="43.626555" lon="11.5221733"><ele>149.0</ele><time>2026-04-26T09:50:59.646Z</time></trkpt><trkpt lat="43.626595" lon="11.5221"><ele>149.0</ele><time>2026-04-26T09:51:00.647Z</time></trkpt><trkpt lat="43.6266333" lon="11.5220267"><ele>149.0</ele><time>2026-04-26T09:51:01.645Z</time></trkpt><trkpt lat="43.6266717" lon="11.5219483"><ele>149.0</ele><time>2026-04-26T09:51:02.648Z</time></trkpt><trkpt lat="43.6267117" lon="11.5218683"><ele>149.0</ele><time>2026-04-26T09:51:03.644Z</time></trkpt><trkpt lat="43.62675" lon="11.5217933"><ele>149.0</ele><time>2026-04-26T09:51:04.645Z</time></trkpt><trkpt lat="43.6267933" lon="11.5217117"><ele>149.0</ele><time>2026-04-26T09:51:05.643Z</time></trkpt><trkpt lat="43.626835" lon="11.5216333"><ele>149.0</ele><time>2026-04-26T09:51:06.646Z</time></trkpt><trkpt lat="43.626875" lon="11.5215533"><ele>149.0</ele><time>2026-04-26T09:51:07.645Z</time></trkpt><trkpt lat="43.6269183" lon="11.5214783"><ele>149.0</ele><time>2026-04-26T09:51:08.647Z</time></trkpt><trkpt lat="43.62696" lon="11.5214017"><ele>149.0</ele><time>2026-04-26T09:51:09.644Z</time></trkpt><trkpt lat="43.6269983" lon="11.521325"><ele>149.14285714285714</ele><time>2026-04-26T09:51:10.646Z</time></trkpt><trkpt lat="43.6270367" lon="11.5212483"><ele>149.28571428571428</ele><time>2026-04-26T09:51:11.643Z</time></trkpt><trkpt lat="43.6270717" lon="11.521175"><ele>149.42857142857142</ele><time>2026-04-26T09:51:12.645Z</time></trkpt><trkpt lat="43.6271033" lon="11.521095"><ele>149.57142857142856</ele><time>2026-04-26T09:51:13.646Z</time></trkpt><trkpt lat="43.627135" lon="11.5210183"><ele>149.71428571428572</ele><time>2026-04-26T09:51:14.644Z</time></trkpt><trkpt lat="43.6271667" lon="11.5209333"><ele>149.85714285714283</ele><time>2026-04-26T09:51:15.644Z</time></trkpt><trkpt lat="43.6271983" lon="11.5208483"><ele>150.0</ele><time>2026-04-26T09:51:16.646Z</time></trkpt><trkpt lat="43.6272283" lon="11.52076"><ele>150.0</ele><time>2026-04-26T09:51:17.644Z</time></trkpt><trkpt lat="43.6272567" lon="11.5206683"><ele>150.0</ele><time>2026-04-26T09:51:18.643Z</time></trkpt><trkpt lat="43.6272867" lon="11.5205917"><ele>150.0</ele><time>2026-04-26T09:51:19.644Z</time></trkpt><trkpt lat="43.6273167" lon="11.5205083"><ele>150.0</ele><time>2026-04-26T09:51:20.645Z</time></trkpt><trkpt lat="43.6273683" lon="11.5203633"><ele>150.0</ele><time>2026-04-26T09:51:22.644Z</time></trkpt><trkpt lat="43.6274117" lon="11.5202433"><ele>150.0</ele><time>2026-04-26T09:51:24.647Z</time></trkpt><trkpt lat="43.6274417" lon="11.5201267"><ele>150.5</ele><time>2026-04-26T09:51:26.645Z</time></trkpt><trkpt lat="43.627475" lon="11.5200433"><ele>151.0</ele><time>2026-04-26T09:51:28.644Z</time></trkpt><trkpt lat="43.627495" lon="11.5199383"><ele>151.5</ele><time>2026-04-26T09:51:31.644Z</time></trkpt><trkpt lat="43.6274983" lon="11.51984"><ele>152.0</ele><time>2026-04-26T09:51:33.644Z</time></trkpt><trkpt lat="43.6275367" lon="11.5197217"><ele>152.5</ele><time>2026-04-26T09:51:35.644Z</time></trkpt><trkpt lat="43.6275617" lon="11.519585"><ele>153.0</ele><time>2026-04-26T09:51:37.645Z</time></trkpt><trkpt lat="43.6275917" lon="11.5194417"><ele>153.20000000000002</ele><time>2026-04-26T09:51:39.647Z</time></trkpt><trkpt lat="43.627625" lon="11.5192983"><ele>153.4</ele><time>2026-04-26T09:51:41.646Z</time></trkpt><trkpt lat="43.6276667" lon="11.5191533"><ele>153.60000000000002</ele><time>2026-04-26T09:51:43.645Z</time></trkpt><trkpt lat="43.627705" lon="11.5190067"><ele>153.8</ele><time>2026-04-26T09:51:45.644Z</time></trkpt><trkpt lat="43.6277317" lon="11.51886"><ele>154.0</ele><time>2026-04-26T09:51:47.647Z</time></trkpt><trkpt lat="43.6277633" lon="11.5187167"><ele>154.0</ele><time>2026-04-26T09:51:49.646Z</time></trkpt><trkpt lat="43.627795" lon="11.5185733"><ele>154.0</ele><time>2026-04-26T09:51:51.646Z</time></trkpt><trkpt lat="43.6278183" lon="11.5184267"><ele>154.0</ele><time>2026-04-26T09:51:53.646Z</time></trkpt><trkpt lat="43.627835" lon="11.5182783"><ele>154.0</ele><time>2026-04-26T09:51:55.646Z</time></trkpt><trkpt lat="43.6278533" lon="11.5181133"><ele>154.0</ele><time>2026-04-26T09:51:57.645Z</time></trkpt><trkpt lat="43.6278567" lon="11.5180217"><ele>154.42857142857142</ele><time>2026-04-26T09:51:58.644Z</time></trkpt><trkpt lat="43.62786" lon="11.51793"><ele>154.85714285714286</ele><time>2026-04-26T09:51:59.646Z</time></trkpt><trkpt lat="43.6278633" lon="11.517835"><ele>155.28571428571428</ele><time>2026-04-26T09:52:00.647Z</time></trkpt><trkpt lat="43.6278683" lon="11.5177333"><ele>155.71428571428572</ele><time>2026-04-26T09:52:01.646Z</time></trkpt><trkpt lat="43.627865" lon="11.5176317"><ele>156.14285714285714</ele><time>2026-04-26T09:52:02.645Z</time></trkpt><trkpt lat="43.6278667" lon="11.5175283"><ele>156.57142857142856</ele><time>2026-04-26T09:52:03.644Z</time></trkpt><trkpt lat="43.6278717" lon="11.5174367"><ele>157.0</ele><time>2026-04-26T09:52:04.645Z</time></trkpt><trkpt lat="43.627865" lon="11.5173033"><ele>155.6</ele><time>2026-04-26T09:52:06.645Z</time></trkpt><trkpt lat="43.6277917" lon="11.5172367"><ele>154.2</ele><time>2026-04-26T09:52:08.645Z</time></trkpt><trkpt lat="43.62771" lon="11.5172783"><ele>152.8</ele><time>2026-04-26T09:52:10.646Z</time></trkpt><trkpt lat="43.627635" lon="11.51734"><ele>151.4</ele><time>2026-04-26T09:52:12.645Z</time></trkpt><trkpt lat="43.62752" lon="11.517335"><ele>150.0</ele><time>2026-04-26T09:52:14.645Z</time></trkpt><trkpt lat="43.6274383" lon="11.51725"><ele>150.0</ele><time>2026-04-26T09:52:16.645Z</time></trkpt><trkpt lat="43.6274517" lon="11.5170933"><ele>150.0</ele><time>2026-04-26T09:52:18.645Z</time></trkpt><trkpt lat="43.6274617" lon="11.5169317"><ele>150.0</ele><time>2026-04-26T09:52:20.646Z</time></trkpt><trkpt lat="43.62747" lon="11.5168433"><ele>150.0</ele><time>2026-04-26T09:52:21.644Z</time></trkpt><trkpt lat="43.6274683" lon="11.5167067"><ele>150.0</ele><time>2026-04-26T09:52:23.65Z</time></trkpt><trkpt lat="43.627475" lon="11.5165767"><ele>147.0</ele><time>2026-04-26T09:52:26.645Z</time></trkpt><trkpt lat="43.62748" lon="11.5164733"><ele>147.0</ele><time>2026-04-26T09:52:28.644Z</time></trkpt><trkpt lat="43.627475" lon="11.5163783"><ele>147.0</ele><time>2026-04-26T09:52:31.646Z</time></trkpt><trkpt lat="43.6274367" lon="11.5163067"><ele>147.0</ele><time>2026-04-26T09:52:57.645Z</time></trkpt></trkseg></trk></gpx>